<?xml version='1.0' encoding='UTF-8'?><gpx version="1.1" creator="JPX - https://github.com/jenetics/jpx" xmlns="http://www.topografix.com/GPX/1/1"><trk><trkseg><trkpt lat="43.1376837436843" lon="11.481832328871166"><ele>146.0</ele><time>2026-04-11T01:46:40.001Z</time></trkpt><trkpt lat="43.13760833035144" lon="11.481853243371004"><ele>146.0</ele><time>2026-04-11T01:47:18Z</time></trkpt><trkpt lat="43.13753575887439" lon="11.48189641975932"><ele>146.0</ele><time>2026-04-11T01:47:37Z</time></trkpt><trkpt lat="43.137439902191495" lon="11.481860871110854"><ele>146.0</ele><time>2026-04-11T01:49:54Z</time></trkpt><trkpt lat="43.13736577170349" lon="11.481885348101342"><ele>146.0</ele><time>2026-04-11T01:51:54Z</time></trkpt><trkpt lat="43.13729119331906" lon="11.481866952298608"><ele>146.0</ele><time>2026-04-11T01:51:58Z</time></trkpt><trkpt lat="43.13722456929728" lon="11.481875956021248"><ele>146.14285714285714</ele><time>2026-04-11T01:52:02Z</time></trkpt><trkpt lat="43.137154472786406" lon="11.481895916897605"><ele>146.28571428571428</ele><time>2026-04-11T01:52:06Z</time></trkpt><trkpt lat="43.137097118196095" lon="11.48182472767807"><ele>146.42857142857144</ele><time>2026-04-11T01:55:29Z</time></trkpt><trkpt lat="43.13702749877027" lon="11.481822915055414"><ele>146.57142857142856</ele><time>2026-04-11T01:55:38Z</time></trkpt><trkpt lat="43.136975305197275" lon="11.481873263557567"><ele>146.71428571428572</ele><time>2026-04-11T01:55:50Z</time></trkpt><trkpt lat="43.13691258016403" lon="11.48186059506807"><ele>146.85714285714286</ele><time>2026-04-11T01:55:55Z</time></trkpt><trkpt lat="43.13684512314457" lon="11.481899747030969"><ele>147.0</ele><time>2026-04-11T02:00:45.999Z</time></trkpt><trkpt lat="43.136769258096145" lon="11.481919845512003"><ele>147.0</ele><time>2026-04-11T02:00:50.999Z</time></trkpt><trkpt lat="43.1367061528233" lon="11.481926264945944"><ele>147.0</ele><time>2026-04-11T02:00:52.999Z</time></trkpt><trkpt lat="43.1366457953485" lon="11.481833520507733"><ele>147.0</ele><time>2026-04-11T02:00:55.999Z</time></trkpt><trkpt lat="43.136638182518205" lon="11.481736827551654"><ele>147.0</ele><time>2026-04-11T02:00:57.999Z</time></trkpt><trkpt lat="43.13662834004959" lon="11.481623567806002"><ele>147.0</ele><time>2026-04-11T02:00:59.999Z</time></trkpt><trkpt lat="43.13660825100543" lon="11.481522612851787"><ele>147.0</ele><time>2026-04-11T02:01:01.999Z</time></trkpt><trkpt lat="43.13659064562778" lon="11.48140775238559"><ele>147.0</ele><time>2026-04-11T02:01:03.999Z</time></trkpt><trkpt lat="43.13656738573906" lon="11.48130021195641"><ele>147.0</ele><time>2026-04-11T02:01:05.999Z</time></trkpt><trkpt lat="43.13654573123553" lon="11.481180582512419"><ele>147.0</ele><time>2026-04-11T02:01:07.999Z</time></trkpt><trkpt lat="43.136522977441054" lon="11.481047627354004"><ele>147.0</ele><time>2026-04-11T02:01:09.999Z</time></trkpt><trkpt lat="43.13648609052191" lon="11.480937393810702"><ele>147.0</ele><time>2026-04-11T02:01:11.999Z</time></trkpt><trkpt lat="43.13644956070514" lon="11.4808124143751"><ele>146.6</ele><time>2026-04-11T02:01:13.999Z</time></trkpt><trkpt lat="43.1364261480457" lon="11.48069544253275"><ele>146.2</ele><time>2026-04-11T02:01:15.999Z</time></trkpt><trkpt lat="43.13639538903033" lon="11.48057392372601"><ele>145.8</ele><time>2026-04-11T02:01:17.999Z</time></trkpt><trkpt lat="43.136359987268115" lon="11.480451424266342"><ele>145.4</ele><time>2026-04-11T02:01:19.999Z</time></trkpt><trkpt lat="43.13633391448773" lon="11.480329402922006"><ele>145.0</ele><time>2026-04-11T02:01:21.999Z</time></trkpt><trkpt lat="43.1362994204617" lon="11.480203985556807"><ele>144.8</ele><time>2026-04-11T02:01:23.999Z</time></trkpt><trkpt lat="43.13626760585144" lon="11.480065525565873"><ele>144.6</ele><time>2026-04-11T02:01:25.999Z</time></trkpt><trkpt lat="43.13622307973456" lon="11.47992724853718"><ele>144.4</ele><time>2026-04-11T02:01:27.999Z</time></trkpt><trkpt lat="43.13619210387543" lon="11.479787140750094"><ele>144.2</ele><time>2026-04-11T02:01:29.999Z</time></trkpt><trkpt lat="43.1361612071936" lon="11.47965813543492"><ele>144.0</ele><time>2026-04-11T02:01:31.999Z</time></trkpt><trkpt lat="43.13612344827538" lon="11.47952883112979"><ele>144.0</ele><time>2026-04-11T02:01:33.999Z</time></trkpt><trkpt lat="43.1360799094298" lon="11.47939425740257"><ele>144.0</ele><time>2026-04-11T02:01:36Z</time></trkpt><trkpt lat="43.136061769160094" lon="11.479256710321335"><ele>144.0</ele><time>2026-04-11T02:01:38Z</time></trkpt><trkpt lat="43.13603383035392" lon="11.479116402497493"><ele>144.0</ele><time>2026-04-11T02:01:40Z</time></trkpt><trkpt lat="43.13599498621751" lon="11.478978794603721"><ele>144.0</ele><time>2026-04-11T02:01:42Z</time></trkpt><trkpt lat="43.135955376002215" lon="11.478846270895803"><ele>144.2</ele><time>2026-04-11T02:01:44Z</time></trkpt><trkpt lat="43.13592158147886" lon="11.478704075338499"><ele>144.4</ele><time>2026-04-11T02:01:46Z</time></trkpt><trkpt lat="43.13589336345576" lon="11.478559202387512"><ele>144.6</ele><time>2026-04-11T02:01:48Z</time></trkpt><trkpt lat="43.135866573114875" lon="11.478415370597027"><ele>144.8</ele><time>2026-04-11T02:01:50Z</time></trkpt><trkpt lat="43.13583674052358" lon="11.478268789912189"><ele>145.0</ele><time>2026-04-11T02:01:52Z</time></trkpt><trkpt lat="43.13580534486198" lon="11.47811991006244"><ele>145.0</ele><time>2026-04-11T02:01:54Z</time></trkpt><trkpt lat="43.135769851513786" lon="11.477958667073892"><ele>145.0</ele><time>2026-04-11T02:01:56Z</time></trkpt><trkpt lat="43.13573977623639" lon="11.477798004822333"><ele>145.0</ele><time>2026-04-11T02:01:58Z</time></trkpt><trkpt lat="43.13570010081648" lon="11.477631936784466"><ele>145.0</ele><time>2026-04-11T02:02:00Z</time></trkpt><trkpt lat="43.135679280373324" lon="11.477544192086686"><ele>145.0</ele><time>2026-04-11T02:02:01Z</time></trkpt><trkpt lat="43.13566652533333" lon="11.47745617517582"><ele>144.5</ele><time>2026-04-11T02:02:02Z</time></trkpt><trkpt lat="43.13564853976404" lon="11.47736655901072"><ele>144.0</ele><time>2026-04-11T02:02:03Z</time></trkpt><trkpt lat="43.13563153185779" lon="11.477276159578945"><ele>143.5</ele><time>2026-04-11T02:02:04Z</time></trkpt><trkpt lat="43.135613641678525" lon="11.477192780523035"><ele>143.0</ele><time>2026-04-11T02:02:05Z</time></trkpt><trkpt lat="43.135575738004846" lon="11.477033200956605"><ele>142.5</ele><time>2026-04-11T02:02:07Z</time></trkpt><trkpt lat="43.13553947386318" lon="11.476878293086681"><ele>142.0</ele><time>2026-04-11T02:02:09Z</time></trkpt><trkpt lat="43.13551216877244" lon="11.47672560431566"><ele>141.6</ele><time>2026-04-11T02:02:11Z</time></trkpt><trkpt lat="43.135482816193935" lon="11.476581319556564"><ele>141.2</ele><time>2026-04-11T02:02:13Z</time></trkpt><trkpt lat="43.13544818685748" lon="11.476454192350376"><ele>140.8</ele><time>2026-04-11T02:02:15Z</time></trkpt><trkpt lat="43.13542159384428" lon="11.476326298774035"><ele>140.4</ele><time>2026-04-11T02:02:17Z</time></trkpt><trkpt lat="43.13538077492424" lon="11.476181400068889"><ele>140.0</ele><time>2026-04-11T02:02:19Z</time></trkpt><trkpt lat="43.13534281196849" lon="11.476041181580715"><ele>139.5</ele><time>2026-04-11T02:02:21Z</time></trkpt><trkpt lat="43.13530359634989" lon="11.475899892123937"><ele>139.0</ele><time>2026-04-11T02:02:23Z</time></trkpt><trkpt lat="43.13526581915765" lon="11.47575928427396"><ele>138.5</ele><time>2026-04-11T02:02:25Z</time></trkpt><trkpt lat="43.13522574899905" lon="11.475609020394176"><ele>138.0</ele><time>2026-04-11T02:02:27Z</time></trkpt><trkpt lat="43.13518792407461" lon="11.475448528050213"><ele>138.0</ele><time>2026-04-11T02:02:29Z</time></trkpt><trkpt lat="43.13516148171904" lon="11.47536284891538"><ele>138.0</ele><time>2026-04-11T02:02:30Z</time></trkpt><trkpt lat="43.135125156870124" lon="11.475198050030885"><ele>138.0</ele><time>2026-04-11T02:02:32Z</time></trkpt><trkpt lat="43.135103410061056" lon="11.47511077583218"><ele>138.0</ele><time>2026-04-11T02:02:33Z</time></trkpt><trkpt lat="43.13508500809449" lon="11.4750216921449"><ele>138.0</ele><time>2026-04-11T02:02:34Z</time></trkpt><trkpt lat="43.13506746122756" lon="11.4749311012274"><ele>138.0</ele><time>2026-04-11T02:02:35Z</time></trkpt><trkpt lat="43.13505165529392" lon="11.474840031639928"><ele>138.0</ele><time>2026-04-11T02:02:36Z</time></trkpt><trkpt lat="43.13503690360765" lon="11.474750052947707"><ele>138.0</ele><time>2026-04-11T02:02:37Z</time></trkpt><trkpt lat="43.13502132483063" lon="11.474661390760213"><ele>138.0</ele><time>2026-04-11T02:02:38Z</time></trkpt><trkpt lat="43.13500342125695" lon="11.474574013875646"><ele>138.0</ele><time>2026-04-11T02:02:39Z</time></trkpt><trkpt lat="43.134987747190735" lon="11.474486945666106"><ele>138.0</ele><time>2026-04-11T02:02:40Z</time></trkpt><trkpt lat="43.134972595973466" lon="11.474399127846963"><ele>138.0</ele><time>2026-04-11T02:02:41Z</time></trkpt><trkpt lat="43.134956531781334" lon="11.474315119466299"><ele>138.0</ele><time>2026-04-11T02:02:42Z</time></trkpt><trkpt lat="43.13493690041607" lon="11.474231347275342"><ele>138.0</ele><time>2026-04-11T02:02:43Z</time></trkpt><trkpt lat="43.13492038473147" lon="11.474146064507131"><ele>138.0</ele><time>2026-04-11T02:02:44Z</time></trkpt><trkpt lat="43.13490405092563" lon="11.474061337304956"><ele>138.0</ele><time>2026-04-11T02:02:45Z</time></trkpt><trkpt lat="43.13487014191584" lon="11.473902005944272"><ele>138.0</ele><time>2026-04-11T02:02:47Z</time></trkpt><trkpt lat="43.13483984725964" lon="11.473737138029492"><ele>138.0</ele><time>2026-04-11T02:02:48.999Z</time></trkpt><trkpt lat="43.134809171706934" lon="11.473573570871825"><ele>138.0</ele><time>2026-04-11T02:02:50.999Z</time></trkpt><trkpt lat="43.13479288861244" lon="11.473489772626369"><ele>138.0</ele><time>2026-04-11T02:02:51.999Z</time></trkpt><trkpt lat="43.134763887198716" lon="11.473327133761533"><ele>138.0</ele><time>2026-04-11T02:02:53.999Z</time></trkpt><trkpt lat="43.13473636663034" lon="11.473164639935684"><ele>138.0</ele><time>2026-04-11T02:02:55.999Z</time></trkpt><trkpt lat="43.13470803750993" lon="11.473002540897799"><ele>138.0</ele><time>2026-04-11T02:02:57.999Z</time></trkpt><trkpt lat="43.13467785308523" lon="11.472844847655097"><ele>138.0</ele><time>2026-04-11T02:02:59.999Z</time></trkpt><trkpt lat="43.134649536044265" lon="11.472685710304681"><ele>138.0</ele><time>2026-04-11T02:03:01.999Z</time></trkpt><trkpt lat="43.13461634483666" lon="11.472528755034856"><ele>138.0</ele><time>2026-04-11T02:03:03.999Z</time></trkpt><trkpt lat="43.13458623869447" lon="11.472370561956824"><ele>138.0</ele><time>2026-04-11T02:03:05.999Z</time></trkpt><trkpt lat="43.134558154815934" lon="11.472210042438792"><ele>138.0</ele><time>2026-04-11T02:03:07.999Z</time></trkpt><trkpt lat="43.134526119997545" lon="11.47205084059004"><ele>138.0</ele><time>2026-04-11T02:03:09.999Z</time></trkpt><trkpt lat="43.13449931049808" lon="11.471898477742863"><ele>138.0</ele><time>2026-04-11T02:03:11.999Z</time></trkpt><trkpt lat="43.13447175097259" lon="11.47174930138123"><ele>138.0</ele><time>2026-04-11T02:03:13.999Z</time></trkpt><trkpt lat="43.13443807919992" lon="11.471609511781873"><ele>138.0</ele><time>2026-04-11T02:03:15.999Z</time></trkpt><trkpt lat="43.13441275127897" lon="11.471495352666226"><ele>138.0</ele><time>2026-04-11T02:03:17.999Z</time></trkpt><trkpt lat="43.13440327239637" lon="11.471391545415749"><ele>138.0</ele><time>2026-04-11T02:03:19.999Z</time></trkpt><trkpt lat="43.13443376766287" lon="11.471311243606031"><ele>138.0</ele><time>2026-04-11T02:03:21.999Z</time></trkpt><trkpt lat="43.13450760081426" lon="11.471270871834108"><ele>138.0</ele><time>2026-04-11T02:03:22.999Z</time></trkpt><trkpt lat="43.134604477814854" lon="11.471216319516847"><ele>138.0</ele><time>2026-04-11T02:03:24.999Z</time></trkpt><trkpt lat="43.134710036638786" lon="11.471163285207792"><ele>138.5</ele><time>2026-04-11T02:03:26.999Z</time></trkpt><trkpt lat="43.13481386031599" lon="11.471111452056604"><ele>139.0</ele><time>2026-04-11T02:03:28.999Z</time></trkpt><trkpt lat="43.134919761870115" lon="11.471051951223982"><ele>139.5</ele><time>2026-04-11T02:03:30.999Z</time></trkpt><trkpt lat="43.13503382428247" lon="11.47099736248716"><ele>140.0</ele><time>2026-04-11T02:03:32.999Z</time></trkpt><trkpt lat="43.135148232724376" lon="11.470933630146284"><ele>140.0</ele><time>2026-04-11T02:03:34.999Z</time></trkpt><trkpt lat="43.135254644852196" lon="11.470870855497736"><ele>140.0</ele><time>2026-04-11T02:03:36.999Z</time></trkpt><trkpt lat="43.13536522615767" lon="11.47080868195757"><ele>140.0</ele><time>2026-04-11T02:03:38.999Z</time></trkpt><trkpt lat="43.13547269817734" lon="11.470749960925136"><ele>140.0</ele><time>2026-04-11T02:03:40.999Z</time></trkpt><trkpt lat="43.13557966187717" lon="11.470690127198084"><ele>140.0</ele><time>2026-04-11T02:03:43Z</time></trkpt><trkpt lat="43.13568424358947" lon="11.470632616174909"><ele>140.0</ele><time>2026-04-11T02:03:45Z</time></trkpt><trkpt lat="43.13579178248839" lon="11.47056992806096"><ele>140.0</ele><time>2026-04-11T02:03:47Z</time></trkpt><trkpt lat="43.13590008370491" lon="11.470510510003598"><ele>140.0</ele><time>2026-04-11T02:03:49Z</time></trkpt><trkpt lat="43.13595995622853" lon="11.470477808583812"><ele>140.0</ele><time>2026-04-11T02:03:50Z</time></trkpt><trkpt lat="43.1360724635797" lon="11.470408642200233"><ele>140.25</ele><time>2026-04-11T02:03:52Z</time></trkpt><trkpt lat="43.1361855931981" lon="11.470344655333893"><ele>140.5</ele><time>2026-04-11T02:03:54Z</time></trkpt><trkpt lat="43.1363009031288" lon="11.47028626736621"><ele>140.75</ele><time>2026-04-11T02:03:56Z</time></trkpt><trkpt lat="43.13641508480838" lon="11.470224573839218"><ele>141.0</ele><time>2026-04-11T02:03:58Z</time></trkpt><trkpt lat="43.13652498065044" lon="11.470163219975232"><ele>140.75</ele><time>2026-04-11T02:04:00Z</time></trkpt><trkpt lat="43.13663358834348" lon="11.470110197210486"><ele>140.5</ele><time>2026-04-11T02:04:02Z</time></trkpt><trkpt lat="43.136740024597785" lon="11.470042487530486"><ele>140.25</ele><time>2026-04-11T02:04:04Z</time></trkpt><trkpt lat="43.13684734165771" lon="11.46998528720545"><ele>140.0</ele><time>2026-04-11T02:04:06Z</time></trkpt><trkpt lat="43.13695258777871" lon="11.46992282845742"><ele>140.0</ele><time>2026-04-11T02:04:08Z</time></trkpt><trkpt lat="43.137052154134885" lon="11.46986138240894"><ele>140.0</ele><time>2026-04-11T02:04:10Z</time></trkpt><trkpt lat="43.13716300558503" lon="11.469807324065691"><ele>140.0</ele><time>2026-04-11T02:04:12Z</time></trkpt><trkpt lat="43.137221663739766" lon="11.469771501053552"><ele>140.0</ele><time>2026-04-11T02:04:13Z</time></trkpt><trkpt lat="43.137320658331426" lon="11.46969941116074"><ele>140.0</ele><time>2026-04-11T02:04:15Z</time></trkpt><trkpt lat="43.13741928358568" lon="11.46962059128068"><ele>140.2</ele><time>2026-04-11T02:04:17Z</time></trkpt><trkpt lat="43.13751512845164" lon="11.469539014827818"><ele>140.4</ele><time>2026-04-11T02:04:19Z</time></trkpt><trkpt lat="43.137605716744325" lon="11.46945017827213"><ele>140.6</ele><time>2026-04-11T02:04:21Z</time></trkpt><trkpt lat="43.1376968602015" lon="11.469369299461572"><ele>140.8</ele><time>2026-04-11T02:04:23Z</time></trkpt><trkpt lat="43.13779203649367" lon="11.469280387773736"><ele>141.0</ele><time>2026-04-11T02:04:25Z</time></trkpt><trkpt lat="43.13788276426011" lon="11.469185198864128"><ele>141.0</ele><time>2026-04-11T02:04:27Z</time></trkpt><trkpt lat="43.1379812444693" lon="11.469095558697843"><ele>141.0</ele><time>2026-04-11T02:04:29Z</time></trkpt><trkpt lat="43.138074443270725" lon="11.468983716044821"><ele>141.0</ele><time>2026-04-11T02:04:31Z</time></trkpt><trkpt lat="43.13817301586108" lon="11.468885208475635"><ele>141.0</ele><time>2026-04-11T02:04:33Z</time></trkpt><trkpt lat="43.138223800620835" lon="11.468831536845322"><ele>141.0</ele><time>2026-04-11T02:04:34Z</time></trkpt><trkpt lat="43.13832441999774" lon="11.468732675995925"><ele>140.8</ele><time>2026-04-11T02:04:36Z</time></trkpt><trkpt lat="43.13842131628713" lon="11.468626560249042"><ele>140.6</ele><time>2026-04-11T02:04:38Z</time></trkpt><trkpt lat="43.13851916879237" lon="11.468523335018526"><ele>140.4</ele><time>2026-04-11T02:04:40Z</time></trkpt><trkpt lat="43.138568784645905" lon="11.468470078967206"><ele>140.2</ele><time>2026-04-11T02:04:41Z</time></trkpt><trkpt lat="43.13861742847125" lon="11.46841144799037"><ele>140.0</ele><time>2026-04-11T02:04:42Z</time></trkpt><trkpt lat="43.138715198661934" lon="11.468316262040123"><ele>140.0</ele><time>2026-04-11T02:04:44Z</time></trkpt><trkpt lat="43.13876754297348" lon="11.468261659139785"><ele>140.0</ele><time>2026-04-11T02:04:45Z</time></trkpt><trkpt lat="43.13882039972079" lon="11.468202180550868"><ele>140.0</ele><time>2026-04-11T02:04:46Z</time></trkpt><trkpt lat="43.13887433546107" lon="11.468146541209261"><ele>140.0</ele><time>2026-04-11T02:04:47Z</time></trkpt><trkpt lat="43.13892645536724" lon="11.468090554439005"><ele>140.0</ele><time>2026-04-11T02:04:48Z</time></trkpt><trkpt lat="43.138978641343556" lon="11.468032109148835"><ele>140.0</ele><time>2026-04-11T02:04:49Z</time></trkpt><trkpt lat="43.13903296665131" lon="11.4679777264224"><ele>140.0</ele><time>2026-04-11T02:04:50Z</time></trkpt><trkpt lat="43.139087834559795" lon="11.467925915140485"><ele>140.33333333333331</ele><time>2026-04-11T02:04:51Z</time></trkpt><trkpt lat="43.13914002973223" lon="11.467870654750573"><ele>140.66666666666666</ele><time>2026-04-11T02:04:52Z</time></trkpt><trkpt lat="43.139187867665605" lon="11.467808182395117"><ele>141.0</ele><time>2026-04-11T02:04:53Z</time></trkpt><trkpt lat="43.13923917206749" lon="11.467748184473193"><ele>141.33333333333334</ele><time>2026-04-11T02:04:54Z</time></trkpt><trkpt lat="43.1392958457533" lon="11.467690804768644"><ele>141.66666666666669</ele><time>2026-04-11T02:04:55Z</time></trkpt><trkpt lat="43.139350128401254" lon="11.467637573883973"><ele>142.0</ele><time>2026-04-11T02:04:56Z</time></trkpt><trkpt lat="43.13944071520643" lon="11.46753776322934"><ele>142.0</ele><time>2026-04-11T02:04:58Z</time></trkpt><trkpt lat="43.13949489137645" lon="11.467481205761889"><ele>142.0</ele><time>2026-04-11T02:04:58.999Z</time></trkpt><trkpt lat="43.13954643190258" lon="11.467429784470355"><ele>142.0</ele><time>2026-04-11T02:04:59.999Z</time></trkpt><trkpt lat="43.1396004817579" lon="11.467381245071534"><ele>142.0</ele><time>2026-04-11T02:05:00.999Z</time></trkpt><trkpt lat="43.13970199532097" lon="11.467275417786846"><ele>142.0</ele><time>2026-04-11T02:05:02.999Z</time></trkpt><trkpt lat="43.13979982710396" lon="11.467171653602005"><ele>142.0</ele><time>2026-04-11T02:05:04.999Z</time></trkpt><trkpt lat="43.139899069822995" lon="11.467069801332675"><ele>142.5</ele><time>2026-04-11T02:05:06.999Z</time></trkpt><trkpt lat="43.139997681377515" lon="11.466967956200019"><ele>143.0</ele><time>2026-04-11T02:05:08.999Z</time></trkpt><trkpt lat="43.14009086430722" lon="11.466858503443236"><ele>143.5</ele><time>2026-04-11T02:05:10.999Z</time></trkpt><trkpt lat="43.14018830078027" lon="11.466753171627229"><ele>144.0</ele><time>2026-04-11T02:05:12.999Z</time></trkpt><trkpt lat="43.140285580573526" lon="11.466655878242777"><ele>144.0</ele><time>2026-04-11T02:05:14.999Z</time></trkpt><trkpt lat="43.14037918149551" lon="11.466550940620152"><ele>144.0</ele><time>2026-04-11T02:05:16.999Z</time></trkpt><trkpt lat="43.140474436393546" lon="11.466447078913395"><ele>144.0</ele><time>2026-04-11T02:05:18.999Z</time></trkpt><trkpt lat="43.14052419600099" lon="11.4663881737642"><ele>144.0</ele><time>2026-04-11T02:05:19.999Z</time></trkpt><trkpt lat="43.140619663393736" lon="11.466288581860255"><ele>144.0</ele><time>2026-04-11T02:05:21.999Z</time></trkpt><trkpt lat="43.14071482021237" lon="11.466191892694066"><ele>143.8</ele><time>2026-04-11T02:05:23.999Z</time></trkpt><trkpt lat="43.140763071020245" lon="11.466136026699797"><ele>143.60000000000002</ele><time>2026-04-11T02:05:24.999Z</time></trkpt><trkpt lat="43.14086050805498" lon="11.466034042612133"><ele>143.4</ele><time>2026-04-11T02:05:26.999Z</time></trkpt><trkpt lat="43.14095617801374" lon="11.465936914834725"><ele>143.20000000000002</ele><time>2026-04-11T02:05:28.999Z</time></trkpt><trkpt lat="43.141052637462444" lon="11.465844745852275"><ele>143.0</ele><time>2026-04-11T02:05:30.999Z</time></trkpt><trkpt lat="43.14114683106136" lon="11.465743769754791"><ele>143.0</ele><time>2026-04-11T02:05:32.999Z</time></trkpt><trkpt lat="43.14123647524341" lon="11.465646661857841"><ele>143.0</ele><time>2026-04-11T02:05:34.999Z</time></trkpt><trkpt lat="43.141331946843025" lon="11.465554866477522"><ele>143.0</ele><time>2026-04-11T02:05:36.999Z</time></trkpt><trkpt lat="43.1413824800954" lon="11.465500314442735"><ele>143.0</ele><time>2026-04-11T02:05:37.999Z</time></trkpt><trkpt lat="43.14147180219349" lon="11.465402580375825"><ele>143.0</ele><time>2026-04-11T02:05:39.999Z</time></trkpt><trkpt lat="43.141568679099194" lon="11.465311838147972"><ele>143.5</ele><time>2026-04-11T02:05:41.999Z</time></trkpt><trkpt lat="43.14166529642593" lon="11.465211433895979"><ele>144.0</ele><time>2026-04-11T02:05:43.999Z</time></trkpt><trkpt lat="43.14175743656917" lon="11.465122874060913"><ele>144.5</ele><time>2026-04-11T02:05:45.999Z</time></trkpt><trkpt lat="43.141841026787155" lon="11.465024238674546"><ele>145.0</ele><time>2026-04-11T02:05:48Z</time></trkpt><trkpt lat="43.14194512986698" lon="11.46492613135474"><ele>145.0</ele><time>2026-04-11T02:05:50Z</time></trkpt><trkpt lat="43.14203166775182" lon="11.464827406131548"><ele>145.0</ele><time>2026-04-11T02:05:52Z</time></trkpt><trkpt lat="43.142126137618654" lon="11.464733064187852"><ele>145.0</ele><time>2026-04-11T02:05:54Z</time></trkpt><trkpt lat="43.14221700227553" lon="11.464645696922316"><ele>145.0</ele><time>2026-04-11T02:05:56Z</time></trkpt><trkpt lat="43.14230471047532" lon="11.464548331817474"><ele>145.2</ele><time>2026-04-11T02:05:58Z</time></trkpt><trkpt lat="43.14239537191069" lon="11.46445598491492"><ele>145.4</ele><time>2026-04-11T02:06:00Z</time></trkpt><trkpt lat="43.14248996686888" lon="11.464362403955967"><ele>145.6</ele><time>2026-04-11T02:06:02Z</time></trkpt><trkpt lat="43.142566427554044" lon="11.464276608615593"><ele>145.8</ele><time>2026-04-11T02:06:04Z</time></trkpt><trkpt lat="43.14264296051208" lon="11.464157576478508"><ele>146.0</ele><time>2026-04-11T02:06:06Z</time></trkpt><trkpt lat="43.14270389179657" lon="11.464032382575253"><ele>146.0</ele><time>2026-04-11T02:06:08Z</time></trkpt><trkpt lat="43.14277553778716" lon="11.463895435783186"><ele>146.0</ele><time>2026-04-11T02:06:10Z</time></trkpt><trkpt lat="43.142834363783635" lon="11.463759607601434"><ele>146.0</ele><time>2026-04-11T02:06:12Z</time></trkpt><trkpt lat="43.142893595189705" lon="11.463628748867816"><ele>146.0</ele><time>2026-04-11T02:06:14Z</time></trkpt><trkpt lat="43.14294426974746" lon="11.463493402275091"><ele>146.2</ele><time>2026-04-11T02:06:16Z</time></trkpt><trkpt lat="43.142997959549994" lon="11.463373293959174"><ele>146.39999999999998</ele><time>2026-04-11T02:06:18Z</time></trkpt><trkpt lat="43.143045414946066" lon="11.463245251083217"><ele>146.6</ele><time>2026-04-11T02:06:20Z</time></trkpt><trkpt lat="43.143088540618706" lon="11.46313206129069"><ele>146.79999999999998</ele><time>2026-04-11T02:06:22Z</time></trkpt><trkpt lat="43.1431289826541" lon="11.463018606993245"><ele>147.0</ele><time>2026-04-11T02:06:24Z</time></trkpt><trkpt lat="43.14317424289463" lon="11.462907512588565"><ele>148.0</ele><time>2026-04-11T02:06:26Z</time></trkpt><trkpt lat="43.14322822982172" lon="11.462799892870986"><ele>149.0</ele><time>2026-04-11T02:06:28Z</time></trkpt><trkpt lat="43.14326928808038" lon="11.462676800167388"><ele>150.0</ele><time>2026-04-11T02:06:30Z</time></trkpt><trkpt lat="43.14332026231863" lon="11.462558279259438"><ele>151.0</ele><time>2026-04-11T02:06:32Z</time></trkpt><trkpt lat="43.14337085214614" lon="11.462444010398519"><ele>152.0</ele><time>2026-04-11T02:06:34Z</time></trkpt><trkpt lat="43.14341864778172" lon="11.462323292642349"><ele>152.0</ele><time>2026-04-11T02:06:36Z</time></trkpt><trkpt lat="43.14346797862552" lon="11.462219254169257"><ele>152.0</ele><time>2026-04-11T02:06:38Z</time></trkpt><trkpt lat="43.143521501384505" lon="11.462110464425615"><ele>152.0</ele><time>2026-04-11T02:06:40Z</time></trkpt><trkpt lat="43.14357496418939" lon="11.462022440202619"><ele>152.0</ele><time>2026-04-11T02:06:42Z</time></trkpt><trkpt lat="43.14364589533941" lon="11.461935079806269"><ele>152.0</ele><time>2026-04-11T02:06:44Z</time></trkpt><trkpt lat="43.143712404299514" lon="11.461864510659648"><ele>152.0</ele><time>2026-04-11T02:06:46Z</time></trkpt><trkpt lat="43.143781396481735" lon="11.461797503232344"><ele>151.66666666666666</ele><time>2026-04-11T02:06:48Z</time></trkpt><trkpt lat="43.14385193755199" lon="11.461736989316872"><ele>151.33333333333331</ele><time>2026-04-11T02:06:50Z</time></trkpt><trkpt lat="43.14392847025546" lon="11.461691437959004"><ele>151.0</ele><time>2026-04-11T02:06:52Z</time></trkpt><trkpt lat="43.14399600788584" lon="11.461626274780622"><ele>150.66666666666666</ele><time>2026-04-11T02:06:54Z</time></trkpt><trkpt lat="43.14406820251088" lon="11.461579337428807"><ele>150.33333333333334</ele><time>2026-04-11T02:06:56Z</time></trkpt><trkpt lat="43.14414524688963" lon="11.461536651535697"><ele>150.0</ele><time>2026-04-11T02:06:58Z</time></trkpt><trkpt lat="43.14421604269494" lon="11.461494614098934"><ele>151.0</ele><time>2026-04-11T02:06:59.999Z</time></trkpt><trkpt lat="43.14428646084243" lon="11.461460978082341"><ele>152.0</ele><time>2026-04-11T02:07:01.999Z</time></trkpt><trkpt lat="43.14435854194602" lon="11.46143656882769"><ele>153.0</ele><time>2026-04-11T02:07:03.999Z</time></trkpt><trkpt lat="43.14442416407323" lon="11.461402917162065"><ele>154.0</ele><time>2026-04-11T02:07:05.999Z</time></trkpt><trkpt lat="43.14448915992559" lon="11.461372202717492"><ele>155.0</ele><time>2026-04-11T02:07:07.999Z</time></trkpt><trkpt lat="43.14457855005411" lon="11.461335020042306"><ele>156.0</ele><time>2026-04-11T02:07:10.999Z</time></trkpt><trkpt lat="43.144644530227595" lon="11.461301134539193"><ele>156.14285714285714</ele><time>2026-04-11T02:07:12.999Z</time></trkpt><trkpt lat="43.14471051070632" lon="11.461270590807523"><ele>156.28571428571428</ele><time>2026-04-11T02:07:14.999Z</time></trkpt><trkpt lat="43.14477362861257" lon="11.461239528162807"><ele>156.42857142857142</ele><time>2026-04-11T02:07:16.999Z</time></trkpt><trkpt lat="43.14486189913357" lon="11.461187663487017"><ele>156.57142857142856</ele><time>2026-04-11T02:07:19.999Z</time></trkpt><trkpt lat="43.1449237317574" lon="11.461158542070065"><ele>156.71428571428572</ele><time>2026-04-11T02:07:21.999Z</time></trkpt><trkpt lat="43.14498632960707" lon="11.461115050413582"><ele>156.85714285714283</ele><time>2026-04-11T02:07:23.999Z</time></trkpt><trkpt lat="43.14505746624268" lon="11.461072951794256"><ele>157.0</ele><time>2026-04-11T02:07:25.999Z</time></trkpt><trkpt lat="43.14511364143589" lon="11.461021902838112"><ele>157.83333333333334</ele><time>2026-04-11T02:07:27.999Z</time></trkpt><trkpt lat="43.14517686296904" lon="11.460967770850173"><ele>158.66666666666669</ele><time>2026-04-11T02:07:29.999Z</time></trkpt><trkpt lat="43.1452413541862" lon="11.460906444002475"><ele>159.5</ele><time>2026-04-11T02:07:31.999Z</time></trkpt><trkpt lat="43.14530918809682" lon="11.460859182280831"><ele>160.33333333333334</ele><time>2026-04-11T02:07:33.999Z</time></trkpt><trkpt lat="43.145345523308386" lon="11.46076577341828"><ele>161.16666666666666</ele><time>2026-04-11T02:07:35.999Z</time></trkpt><trkpt lat="43.14543848211119" lon="11.460854248652213"><ele>162.0</ele><time>2026-04-11T02:07:36.999Z</time></trkpt><trkpt lat="43.14552731424515" lon="11.460846848200855"><ele>162.0</ele><time>2026-04-11T02:07:38.999Z</time></trkpt><trkpt lat="43.14562267691951" lon="11.460807206671964"><ele>162.0</ele><time>2026-04-11T02:07:40.999Z</time></trkpt><trkpt lat="43.14572602741019" lon="11.460799799583347"><ele>162.0</ele><time>2026-04-11T02:07:42.999Z</time></trkpt><trkpt lat="43.14582801367487" lon="11.460768308719693"><ele>162.0</ele><time>2026-04-11T02:07:44.999Z</time></trkpt><trkpt lat="43.145935259957746" lon="11.460738249730522"><ele>162.0</ele><time>2026-04-11T02:07:46.999Z</time></trkpt><trkpt lat="43.14604121605456" lon="11.460703880872599"><ele>162.16666666666666</ele><time>2026-04-11T02:07:48.999Z</time></trkpt><trkpt lat="43.14610407838509" lon="11.460686525845219"><ele>162.33333333333334</ele><time>2026-04-11T02:07:49.999Z</time></trkpt><trkpt lat="43.14621998068835" lon="11.460646750564413"><ele>162.5</ele><time>2026-04-11T02:07:51.999Z</time></trkpt><trkpt lat="43.1463390664117" lon="11.460625163940021"><ele>162.66666666666669</ele><time>2026-04-11T02:07:54Z</time></trkpt><trkpt lat="43.146400095647735" lon="11.460600227754433"><ele>162.83333333333334</ele><time>2026-04-11T02:07:55Z</time></trkpt><trkpt lat="43.146465927893765" lon="11.460574821613436"><ele>163.0</ele><time>2026-04-11T02:07:56Z</time></trkpt><trkpt lat="43.14653089257571" lon="11.460562188807815"><ele>162.85714285714286</ele><time>2026-04-11T02:07:57Z</time></trkpt><trkpt lat="43.146596827918806" lon="11.460541136086563"><ele>162.7142857142857</ele><time>2026-04-11T02:07:58Z</time></trkpt><trkpt lat="43.14666177191501" lon="11.46051952082854"><ele>162.57142857142856</ele><time>2026-04-11T02:07:59Z</time></trkpt><trkpt lat="43.146727390176146" lon="11.460497333776619"><ele>162.42857142857144</ele><time>2026-04-11T02:08:00Z</time></trkpt><trkpt lat="43.1467918875478" lon="11.460474065620295"><ele>162.28571428571428</ele><time>2026-04-11T02:08:01Z</time></trkpt><trkpt lat="43.1468644305197" lon="11.460452459595214"><ele>162.14285714285714</ele><time>2026-04-11T02:08:02Z</time></trkpt><trkpt lat="43.14693481414934" lon="11.460431930961903"><ele>162.0</ele><time>2026-04-11T02:08:03Z</time></trkpt><trkpt lat="43.14700590547283" lon="11.460407301000018"><ele>161.66666666666666</ele><time>2026-04-11T02:08:04Z</time></trkpt><trkpt lat="43.14708171830976" lon="11.460379981189705"><ele>161.33333333333334</ele><time>2026-04-11T02:08:05Z</time></trkpt><trkpt lat="43.14716094935897" lon="11.460355657469071"><ele>161.0</ele><time>2026-04-11T02:08:06Z</time></trkpt><trkpt lat="43.14723995727404" lon="11.460337825833541"><ele>160.66666666666669</ele><time>2026-04-11T02:08:07Z</time></trkpt><trkpt lat="43.147322209217094" lon="11.460317216738382"><ele>160.33333333333334</ele><time>2026-04-11T02:08:08Z</time></trkpt><trkpt lat="43.147392965335705" lon="11.46029444767921"><ele>160.0</ele><time>2026-04-11T02:08:09Z</time></trkpt><trkpt lat="43.147458973199505" lon="11.460275335539007"><ele>159.0</ele><time>2026-04-11T02:08:10Z</time></trkpt><trkpt lat="43.1475274319474" lon="11.460261593089836"><ele>158.0</ele><time>2026-04-11T02:08:11Z</time></trkpt><trkpt lat="43.14765833267072" lon="11.460248945467699"><ele>157.0</ele><time>2026-04-11T02:08:13Z</time></trkpt><trkpt lat="43.14774789374557" lon="11.460251077035487"><ele>156.0</ele><time>2026-04-11T02:08:14Z</time></trkpt><trkpt lat="43.14782675459975" lon="11.460264254701684"><ele>155.0</ele><time>2026-04-11T02:08:15Z</time></trkpt><trkpt lat="43.1478998903973" lon="11.46027353029883"><ele>154.0</ele><time>2026-04-11T02:08:16Z</time></trkpt><trkpt lat="43.14798347173116" lon="11.460302337339288"><ele>154.0</ele><time>2026-04-11T02:08:17Z</time></trkpt><trkpt lat="43.14805841244736" lon="11.460330654403863"><ele>154.0</ele><time>2026-04-11T02:08:18Z</time></trkpt><trkpt lat="43.14813603533096" lon="11.460365056786028"><ele>154.0</ele><time>2026-04-11T02:08:19Z</time></trkpt><trkpt lat="43.148205628333905" lon="11.460409106496162"><ele>154.0</ele><time>2026-04-11T02:08:20Z</time></trkpt><trkpt lat="43.14825991394549" lon="11.460453717503558"><ele>154.0</ele><time>2026-04-11T02:08:21Z</time></trkpt><trkpt lat="43.14835189068973" lon="11.460554594382025"><ele>154.0</ele><time>2026-04-11T02:08:23Z</time></trkpt><trkpt lat="43.148436614831105" lon="11.460657701093666"><ele>153.66666666666669</ele><time>2026-04-11T02:08:25Z</time></trkpt><trkpt lat="43.14849736873153" lon="11.460801746795104"><ele>153.33333333333334</ele><time>2026-04-11T02:08:27Z</time></trkpt><trkpt lat="43.14853357662468" lon="11.460879302220603"><ele>153.0</ele><time>2026-04-11T02:08:28Z</time></trkpt><trkpt lat="43.148564052269094" lon="11.460966457582858"><ele>152.66666666666666</ele><time>2026-04-11T02:08:29Z</time></trkpt><trkpt lat="43.148601770237185" lon="11.461052990115721"><ele>152.33333333333331</ele><time>2026-04-11T02:08:30Z</time></trkpt><trkpt lat="43.148641293110565" lon="11.461140232929552"><ele>152.0</ele><time>2026-04-11T02:08:31Z</time></trkpt><trkpt lat="43.14867959146167" lon="11.461232122226905"><ele>151.66666666666666</ele><time>2026-04-11T02:08:32Z</time></trkpt><trkpt lat="43.148714094707344" lon="11.461320209014824"><ele>151.33333333333331</ele><time>2026-04-11T02:08:33Z</time></trkpt><trkpt lat="43.14875405653512" lon="11.461415664447175"><ele>151.0</ele><time>2026-04-11T02:08:34Z</time></trkpt><trkpt lat="43.14879041208251" lon="11.461509487008435"><ele>150.66666666666666</ele><time>2026-04-11T02:08:35Z</time></trkpt><trkpt lat="43.14882955402383" lon="11.461597940395594"><ele>150.33333333333334</ele><time>2026-04-11T02:08:36Z</time></trkpt><trkpt lat="43.148866877355395" lon="11.46169030166265"><ele>150.0</ele><time>2026-04-11T02:08:37Z</time></trkpt><trkpt lat="43.148904856541314" lon="11.461782005379526"><ele>150.0</ele><time>2026-04-11T02:08:38Z</time></trkpt><trkpt lat="43.14894098199475" lon="11.461873989167183"><ele>150.0</ele><time>2026-04-11T02:08:39Z</time></trkpt><trkpt lat="43.14897800690018" lon="11.4619694638838"><ele>150.0</ele><time>2026-04-11T02:08:40Z</time></trkpt><trkpt lat="43.14901471237573" lon="11.46206043813021"><ele>150.0</ele><time>2026-04-11T02:08:41Z</time></trkpt><trkpt lat="43.14905721822541" lon="11.462148704483948"><ele>150.0</ele><time>2026-04-11T02:08:42Z</time></trkpt><trkpt lat="43.14909584145257" lon="11.462236645020004"><ele>150.0</ele><time>2026-04-11T02:08:43Z</time></trkpt><trkpt lat="43.14913283862538" lon="11.462324938033252"><ele>148.99999999999997</ele><time>2026-04-11T02:08:44Z</time></trkpt><trkpt lat="43.14917145573413" lon="11.462411243911134"><ele>148.0</ele><time>2026-04-11T02:08:45Z</time></trkpt><trkpt lat="43.149212605980566" lon="11.462497425690271"><ele>147.0</ele><time>2026-04-11T02:08:46Z</time></trkpt><trkpt lat="43.149254927005494" lon="11.462573397682009"><ele>146.0</ele><time>2026-04-11T02:08:47Z</time></trkpt><trkpt lat="43.14929709681478" lon="11.462655569436768"><ele>145.0</ele><time>2026-04-11T02:08:48Z</time></trkpt><trkpt lat="43.14934460574303" lon="11.46272893953565"><ele>143.99999999999997</ele><time>2026-04-11T02:08:49Z</time></trkpt><trkpt lat="43.149393489764776" lon="11.46279996080097"><ele>143.0</ele><time>2026-04-11T02:08:50Z</time></trkpt><trkpt lat="43.14944011091615" lon="11.462870378765151"><ele>142.99999999999997</ele><time>2026-04-11T02:08:51Z</time></trkpt><trkpt lat="43.14949348038341" lon="11.462936478087869"><ele>143.0</ele><time>2026-04-11T02:08:52Z</time></trkpt><trkpt lat="43.14954821068577" lon="11.462999663086752"><ele>143.0</ele><time>2026-04-11T02:08:53Z</time></trkpt><trkpt lat="43.14961028719223" lon="11.463051321869603"><ele>143.0</ele><time>2026-04-11T02:08:54Z</time></trkpt><trkpt lat="43.149673524809394" lon="11.463102433314745"><ele>143.0</ele><time>2026-04-11T02:08:55Z</time></trkpt><trkpt lat="43.149740810366154" lon="11.463135728473569"><ele>142.99999999999997</ele><time>2026-04-11T02:08:56Z</time></trkpt><trkpt lat="43.1498067888474" lon="11.463157173071233"><ele>143.0</ele><time>2026-04-11T02:08:57Z</time></trkpt><trkpt lat="43.14987728058829" lon="11.463162028209466"><ele>143.16666666666666</ele><time>2026-04-11T02:08:58Z</time></trkpt><trkpt lat="43.149946735077215" lon="11.463146331873997"><ele>143.33333333333331</ele><time>2026-04-11T02:08:59Z</time></trkpt><trkpt lat="43.1500176764394" lon="11.463123234180717"><ele>143.5</ele><time>2026-04-11T02:09:00Z</time></trkpt><trkpt lat="43.15008910786358" lon="11.463090720085928"><ele>143.66666666666666</ele><time>2026-04-11T02:09:01Z</time></trkpt><trkpt lat="43.15020956361537" lon="11.463021645770816"><ele>143.83333333333334</ele><time>2026-04-11T02:09:02.999Z</time></trkpt><trkpt lat="43.15027374141636" lon="11.462986346491432"><ele>144.0</ele><time>2026-04-11T02:09:03.999Z</time></trkpt><trkpt lat="43.15033291427654" lon="11.462950047958365"><ele>144.00000000000003</ele><time>2026-04-11T02:09:04.999Z</time></trkpt><trkpt lat="43.150397661497124" lon="11.462911894946407"><ele>144.0</ele><time>2026-04-11T02:09:05.999Z</time></trkpt><trkpt lat="43.15045928591222" lon="11.462873660160861"><ele>144.0</ele><time>2026-04-11T02:09:06.999Z</time></trkpt><trkpt lat="43.15051814575818" lon="11.462832252219943"><ele>144.0</ele><time>2026-04-11T02:09:07.999Z</time></trkpt><trkpt lat="43.15058607877685" lon="11.462795267055098"><ele>144.0</ele><time>2026-04-11T02:09:08.999Z</time></trkpt><trkpt lat="43.15065236523263" lon="11.462758185911756"><ele>144.00000000000003</ele><time>2026-04-11T02:09:09.999Z</time></trkpt><trkpt lat="43.1507143548392" lon="11.462727886924727"><ele>144.0</ele><time>2026-04-11T02:09:10.999Z</time></trkpt><trkpt lat="43.150787621351206" lon="11.462693536544496"><ele>144.00000000000003</ele><time>2026-04-11T02:09:11.999Z</time></trkpt><trkpt lat="43.150850225567" lon="11.462655080546009"><ele>144.0</ele><time>2026-04-11T02:09:12.999Z</time></trkpt><trkpt lat="43.15091034882623" lon="11.462616689951082"><ele>144.0</ele><time>2026-04-11T02:09:13.999Z</time></trkpt><trkpt lat="43.15097144375806" lon="11.46258456439071"><ele>144.0</ele><time>2026-04-11T02:09:14.999Z</time></trkpt><trkpt lat="43.15103097006109" lon="11.46254603865863"><ele>144.0</ele><time>2026-04-11T02:09:15.999Z</time></trkpt><trkpt lat="43.15109315700554" lon="11.462513770935615"><ele>144.00000000000003</ele><time>2026-04-11T02:09:16.999Z</time></trkpt><trkpt lat="43.151164068555154" lon="11.462485569935918"><ele>144.0</ele><time>2026-04-11T02:09:17.999Z</time></trkpt><trkpt lat="43.151228061298276" lon="11.462445805959447"><ele>144.00000000000003</ele><time>2026-04-11T02:09:18.999Z</time></trkpt><trkpt lat="43.151285767996235" lon="11.462406289197926"><ele>144.0</ele><time>2026-04-11T02:09:19.999Z</time></trkpt><trkpt lat="43.15134863004488" lon="11.462379627327639"><ele>144.0</ele><time>2026-04-11T02:09:20.999Z</time></trkpt><trkpt lat="43.15141427920867" lon="11.462341757679447"><ele>144.0</ele><time>2026-04-11T02:09:21.999Z</time></trkpt><trkpt lat="43.15147448648243" lon="11.462303193395382"><ele>144.0</ele><time>2026-04-11T02:09:22.999Z</time></trkpt><trkpt lat="43.151540429141896" lon="11.462272183649251"><ele>144.00000000000003</ele><time>2026-04-11T02:09:23.999Z</time></trkpt><trkpt lat="43.1516015662401" lon="11.462241026360271"><ele>144.0</ele><time>2026-04-11T02:09:24.999Z</time></trkpt><trkpt lat="43.1517202842696" lon="11.462179142586184"><ele>144.14285714285717</ele><time>2026-04-11T02:09:26.999Z</time></trkpt><trkpt lat="43.15178070122073" lon="11.462139657465684"><ele>144.28571428571428</ele><time>2026-04-11T02:09:27.999Z</time></trkpt><trkpt lat="43.15184902458804" lon="11.462117098536067"><ele>144.42857142857144</ele><time>2026-04-11T02:09:28.999Z</time></trkpt><trkpt lat="43.1519129253252" lon="11.462075555054748"><ele>144.57142857142858</ele><time>2026-04-11T02:09:29.999Z</time></trkpt><trkpt lat="43.15197845584662" lon="11.462038816656987"><ele>144.71428571428572</ele><time>2026-04-11T02:09:30.999Z</time></trkpt><trkpt lat="43.15204340677727" lon="11.462001305924304"><ele>144.85714285714286</ele><time>2026-04-11T02:09:31.999Z</time></trkpt><trkpt lat="43.152104020642646" lon="11.461970792804246"><ele>145.0</ele><time>2026-04-11T02:09:32.999Z</time></trkpt><trkpt lat="43.15216839536439" lon="11.461937965381116"><ele>145.0</ele><time>2026-04-11T02:09:33.999Z</time></trkpt><trkpt lat="43.15223006468913" lon="11.461905787157113"><ele>145.0</ele><time>2026-04-11T02:09:34.999Z</time></trkpt><trkpt lat="43.15229288547304" lon="11.461872303503842"><ele>145.0</ele><time>2026-04-11T02:09:35.999Z</time></trkpt><trkpt lat="43.15235611919869" lon="11.461837451105525"><ele>145.0</ele><time>2026-04-11T02:09:36.999Z</time></trkpt><trkpt lat="43.15242060435104" lon="11.461808864958632"><ele>145.0</ele><time>2026-04-11T02:09:37.999Z</time></trkpt><trkpt lat="43.152483588971116" lon="11.461777677353176"><ele>145.0</ele><time>2026-04-11T02:09:38.999Z</time></trkpt><trkpt lat="43.152547925354" lon="11.461741025055234"><ele>145.0</ele><time>2026-04-11T02:09:39.999Z</time></trkpt><trkpt lat="43.15260968601586" lon="11.46170928369765"><ele>145.0</ele><time>2026-04-11T02:09:40.999Z</time></trkpt><trkpt lat="43.152668963718874" lon="11.461673252974647"><ele>145.0</ele><time>2026-04-11T02:09:41.999Z</time></trkpt><trkpt lat="43.152730692196926" lon="11.461648563469465"><ele>145.0</ele><time>2026-04-11T02:09:42.999Z</time></trkpt><trkpt lat="43.15279165843954" lon="11.461620261843128"><ele>145.0</ele><time>2026-04-11T02:09:43.999Z</time></trkpt><trkpt lat="43.15285280163294" lon="11.461586823909862"><ele>145.0</ele><time>2026-04-11T02:09:44.999Z</time></trkpt><trkpt lat="43.15291772688906" lon="11.461553190146047"><ele>145.0</ele><time>2026-04-11T02:09:45.999Z</time></trkpt><trkpt lat="43.15302993313965" lon="11.461498553193568"><ele>145.0</ele><time>2026-04-11T02:09:47.999Z</time></trkpt><trkpt lat="43.15314207156099" lon="11.461430122009"><ele>145.0</ele><time>2026-04-11T02:09:49.999Z</time></trkpt><trkpt lat="43.15320162184856" lon="11.461401369771414"><ele>145.0</ele><time>2026-04-11T02:09:50.999Z</time></trkpt><trkpt lat="43.153265367269654" lon="11.461368511028482"><ele>145.0</ele><time>2026-04-11T02:09:51.999Z</time></trkpt><trkpt lat="43.15338422673481" lon="11.461306625856414"><ele>145.0</ele><time>2026-04-11T02:09:53.999Z</time></trkpt><trkpt lat="43.153499417350496" lon="11.46124233932213"><ele>145.0</ele><time>2026-04-11T02:09:55.999Z</time></trkpt><trkpt lat="43.15361475465804" lon="11.461176741666307"><ele>145.16666666666669</ele><time>2026-04-11T02:09:57.999Z</time></trkpt><trkpt lat="43.1536754990761" lon="11.461150277119188"><ele>145.33333333333334</ele><time>2026-04-11T02:09:58.999Z</time></trkpt><trkpt lat="43.15378755252075" lon="11.46109067384622"><ele>145.5</ele><time>2026-04-11T02:10:01Z</time></trkpt><trkpt lat="43.15384759288244" lon="11.461060394308557"><ele>145.66666666666666</ele><time>2026-04-11T02:10:02Z</time></trkpt><trkpt lat="43.15396326049043" lon="11.461002674393221"><ele>145.83333333333331</ele><time>2026-04-11T02:10:04Z</time></trkpt><trkpt lat="43.154018370010185" lon="11.460960196337496"><ele>146.0</ele><time>2026-04-11T02:10:05Z</time></trkpt><trkpt lat="43.15412458581535" lon="11.460907422753166"><ele>146.0</ele><time>2026-04-11T02:10:07Z</time></trkpt><trkpt lat="43.154227657374214" lon="11.46087272143271"><ele>146.0</ele><time>2026-04-11T02:10:09Z</time></trkpt><trkpt lat="43.154289848355944" lon="11.460829992110742"><ele>146.0</ele><time>2026-04-11T02:10:10Z</time></trkpt><trkpt lat="43.15435209921413" lon="11.460793677941984"><ele>146.0</ele><time>2026-04-11T02:10:11Z</time></trkpt><trkpt lat="43.154411937079466" lon="11.460764033572108"><ele>146.0</ele><time>2026-04-11T02:10:12Z</time></trkpt><trkpt lat="43.154470819188425" lon="11.46073279409748"><ele>146.0</ele><time>2026-04-11T02:10:13Z</time></trkpt><trkpt lat="43.15458239635724" lon="11.460665047300386"><ele>146.0</ele><time>2026-04-11T02:10:15Z</time></trkpt><trkpt lat="43.15464312330723" lon="11.460636569927708"><ele>146.0</ele><time>2026-04-11T02:10:16Z</time></trkpt><trkpt lat="43.154702987114604" lon="11.460608198822555"><ele>146.0</ele><time>2026-04-11T02:10:17Z</time></trkpt><trkpt lat="43.1548301110039" lon="11.460542672688007"><ele>146.0</ele><time>2026-04-11T02:10:19Z</time></trkpt><trkpt lat="43.15488796983299" lon="11.460506828063478"><ele>146.0</ele><time>2026-04-11T02:10:20Z</time></trkpt><trkpt lat="43.15495419005478" lon="11.460479663697619"><ele>146.0</ele><time>2026-04-11T02:10:21Z</time></trkpt><trkpt lat="43.15507224859452" lon="11.460406869534888"><ele>146.0</ele><time>2026-04-11T02:10:23Z</time></trkpt><trkpt lat="43.155134551982805" lon="11.460390351363564"><ele>146.0</ele><time>2026-04-11T02:10:24Z</time></trkpt><trkpt lat="43.15524935664213" lon="11.46033001462356"><ele>146.0</ele><time>2026-04-11T02:10:26Z</time></trkpt><trkpt lat="43.15531313491086" lon="11.460298403346863"><ele>146.0</ele><time>2026-04-11T02:10:27Z</time></trkpt><trkpt lat="43.15542824713531" lon="11.460234191974928"><ele>146.0</ele><time>2026-04-11T02:10:29Z</time></trkpt><trkpt lat="43.15549389609193" lon="11.460200891201934"><ele>146.0</ele><time>2026-04-11T02:10:30Z</time></trkpt><trkpt lat="43.155609883850445" lon="11.4601318166012"><ele>146.0</ele><time>2026-04-11T02:10:32Z</time></trkpt><trkpt lat="43.15567648011022" lon="11.460099231447241"><ele>146.0</ele><time>2026-04-11T02:10:33Z</time></trkpt><trkpt lat="43.155796172228776" lon="11.46003854804361"><ele>146.0</ele><time>2026-04-11T02:10:35Z</time></trkpt><trkpt lat="43.15585911015817" lon="11.460005408623879"><ele>146.0</ele><time>2026-04-11T02:10:36Z</time></trkpt><trkpt lat="43.15592228506328" lon="11.459969761477222"><ele>146.0</ele><time>2026-04-11T02:10:37Z</time></trkpt><trkpt lat="43.155987044146805" lon="11.459945030470081"><ele>146.0</ele><time>2026-04-11T02:10:38Z</time></trkpt><trkpt lat="43.1560461686479" lon="11.459907899228266"><ele>146.0</ele><time>2026-04-11T02:10:39Z</time></trkpt><trkpt lat="43.15610634169251" lon="11.45988015276125"><ele>146.0</ele><time>2026-04-11T02:10:40Z</time></trkpt><trkpt lat="43.156168503893795" lon="11.459844336682497"><ele>146.0</ele><time>2026-04-11T02:10:41Z</time></trkpt><trkpt lat="43.15622782702472" lon="11.459804918178417"><ele>146.0</ele><time>2026-04-11T02:10:42Z</time></trkpt><trkpt lat="43.15628824982548" lon="11.459772283641012"><ele>146.0</ele><time>2026-04-11T02:10:43Z</time></trkpt><trkpt lat="43.156355250805156" lon="11.459741167770888"><ele>146.0</ele><time>2026-04-11T02:10:44Z</time></trkpt><trkpt lat="43.15641542260722" lon="11.459703694639613"><ele>146.0</ele><time>2026-04-11T02:10:45Z</time></trkpt><trkpt lat="43.15647504754288" lon="11.459666250889928"><ele>146.0</ele><time>2026-04-11T02:10:46Z</time></trkpt><trkpt lat="43.156541237305866" lon="11.459635267007947"><ele>146.0</ele><time>2026-04-11T02:10:47Z</time></trkpt><trkpt lat="43.15660098808132" lon="11.45960069703781"><ele>146.0</ele><time>2026-04-11T02:10:48Z</time></trkpt><trkpt lat="43.15666175167999" lon="11.459564178646088"><ele>146.0</ele><time>2026-04-11T02:10:49Z</time></trkpt><trkpt lat="43.15678215424141" lon="11.459503152237762"><ele>146.0</ele><time>2026-04-11T02:10:51Z</time></trkpt><trkpt lat="43.156846289537754" lon="11.459471230285846"><ele>146.0</ele><time>2026-04-11T02:10:52Z</time></trkpt><trkpt lat="43.15690940083099" lon="11.45943803648369"><ele>146.0</ele><time>2026-04-11T02:10:53Z</time></trkpt><trkpt lat="43.15697421617601" lon="11.459407505972893"><ele>146.0</ele><time>2026-04-11T02:10:54Z</time></trkpt><trkpt lat="43.157034430639676" lon="11.459374546814457"><ele>146.0</ele><time>2026-04-11T02:10:55Z</time></trkpt><trkpt lat="43.15710126240167" lon="11.459347542850516"><ele>146.0</ele><time>2026-04-11T02:10:56Z</time></trkpt><trkpt lat="43.15716360106769" lon="11.459314285850496"><ele>146.0</ele><time>2026-04-11T02:10:57Z</time></trkpt><trkpt lat="43.1572272493978" lon="11.459281536229499"><ele>146.0</ele><time>2026-04-11T02:10:58Z</time></trkpt><trkpt lat="43.15728646789305" lon="11.459248508496131"><ele>146.0</ele><time>2026-04-11T02:10:59Z</time></trkpt><trkpt lat="43.157398742725555" lon="11.459187400045618"><ele>146.0</ele><time>2026-04-11T02:11:01Z</time></trkpt><trkpt lat="43.15751463787344" lon="11.459125718095693"><ele>146.0</ele><time>2026-04-11T02:11:03Z</time></trkpt><trkpt lat="43.1576272788873" lon="11.459057121120452"><ele>146.0</ele><time>2026-04-11T02:11:04.999Z</time></trkpt><trkpt lat="43.157688493448376" lon="11.45902793680611"><ele>146.0</ele><time>2026-04-11T02:11:05.999Z</time></trkpt><trkpt lat="43.157747694969224" lon="11.4589940674186"><ele>146.0</ele><time>2026-04-11T02:11:06.999Z</time></trkpt><trkpt lat="43.15785769868308" lon="11.458925273767296"><ele>146.0</ele><time>2026-04-11T02:11:08.999Z</time></trkpt><trkpt lat="43.1579713419233" lon="11.458879854823511"><ele>146.0</ele><time>2026-04-11T02:11:10.999Z</time></trkpt><trkpt lat="43.15803496204056" lon="11.458856917402391"><ele>146.0</ele><time>2026-04-11T02:11:11.999Z</time></trkpt><trkpt lat="43.1580971076857" lon="11.45882786472177"><ele>146.0</ele><time>2026-04-11T02:11:12.999Z</time></trkpt><trkpt lat="43.15815512198167" lon="11.458792630574315"><ele>146.0</ele><time>2026-04-11T02:11:13.999Z</time></trkpt><trkpt lat="43.15826500284988" lon="11.458726578664391"><ele>146.0</ele><time>2026-04-11T02:11:15.999Z</time></trkpt><trkpt lat="43.158325344916726" lon="11.45869336482551"><ele>145.8</ele><time>2026-04-11T02:11:16.999Z</time></trkpt><trkpt lat="43.158436497712586" lon="11.458628054858707"><ele>145.6</ele><time>2026-04-11T02:11:18.999Z</time></trkpt><trkpt lat="43.15853470033164" lon="11.458571472985312"><ele>145.4</ele><time>2026-04-11T02:11:20.999Z</time></trkpt><trkpt lat="43.15860004743017" lon="11.458528374407472"><ele>145.2</ele><time>2026-04-11T02:11:21.999Z</time></trkpt><trkpt lat="43.15867199263829" lon="11.458504960033082"><ele>145.0</ele><time>2026-04-11T02:11:22.999Z</time></trkpt><trkpt lat="43.15879086706572" lon="11.458449302800823"><ele>145.0</ele><time>2026-04-11T02:11:24.999Z</time></trkpt><trkpt lat="43.15884979054028" lon="11.458397514077786"><ele>145.0</ele><time>2026-04-11T02:11:25.999Z</time></trkpt><trkpt lat="43.158916084611526" lon="11.458384316942041"><ele>145.0</ele><time>2026-04-11T02:11:26.999Z</time></trkpt><trkpt lat="43.15897669071404" lon="11.458335439080956"><ele>145.0</ele><time>2026-04-11T02:11:27.999Z</time></trkpt><trkpt lat="43.159096583282725" lon="11.458272298679582"><ele>145.0</ele><time>2026-04-11T02:11:29.999Z</time></trkpt><trkpt lat="43.159208852186" lon="11.458214509066728"><ele>145.16666666666669</ele><time>2026-04-11T02:11:31.999Z</time></trkpt><trkpt lat="43.15926878185314" lon="11.458187453423708"><ele>145.33333333333334</ele><time>2026-04-11T02:11:32.999Z</time></trkpt><trkpt lat="43.15933046793366" lon="11.458158787398709"><ele>145.5</ele><time>2026-04-11T02:11:33.999Z</time></trkpt><trkpt lat="43.159442332628146" lon="11.458099186083679"><ele>145.66666666666666</ele><time>2026-04-11T02:11:35.999Z</time></trkpt><trkpt lat="43.159500846793364" lon="11.45806662065721"><ele>145.83333333333331</ele><time>2026-04-11T02:11:36.999Z</time></trkpt><trkpt lat="43.15957107651322" lon="11.458040183292121"><ele>146.0</ele><time>2026-04-11T02:11:37.999Z</time></trkpt><trkpt lat="43.159687947362286" lon="11.457972757733419"><ele>146.0</ele><time>2026-04-11T02:11:39.999Z</time></trkpt><trkpt lat="43.15980337043775" lon="11.45790988809512"><ele>146.0</ele><time>2026-04-11T02:11:41.999Z</time></trkpt><trkpt lat="43.159917969721555" lon="11.45784509341224"><ele>146.0</ele><time>2026-04-11T02:11:43.999Z</time></trkpt><trkpt lat="43.160026373107" lon="11.457782029093732"><ele>146.0</ele><time>2026-04-11T02:11:45.999Z</time></trkpt><trkpt lat="43.16013956537373" lon="11.457723672243926"><ele>146.0</ele><time>2026-04-11T02:11:47.999Z</time></trkpt><trkpt lat="43.16024843892073" lon="11.457648070044156"><ele>146.0</ele><time>2026-04-11T02:11:49.999Z</time></trkpt><trkpt lat="43.16034158685814" lon="11.45754323744595"><ele>146.0</ele><time>2026-04-11T02:11:51.999Z</time></trkpt><trkpt lat="43.16039389402461" lon="11.457493295496661"><ele>146.0</ele><time>2026-04-11T02:11:52.999Z</time></trkpt><trkpt lat="43.160406456331685" lon="11.457389624658243"><ele>146.0</ele><time>2026-04-11T02:11:53.999Z</time></trkpt><trkpt lat="43.16043806283785" lon="11.457230848451651"><ele>146.4</ele><time>2026-04-11T02:11:55.999Z</time></trkpt><trkpt lat="43.16045212919583" lon="11.457079861733703"><ele>146.8</ele><time>2026-04-11T02:11:57.999Z</time></trkpt><trkpt lat="43.16049164527668" lon="11.45695274965514"><ele>147.20000000000002</ele><time>2026-04-11T02:11:59.999Z</time></trkpt><trkpt lat="43.16055956155846" lon="11.45687664309561"><ele>147.6</ele><time>2026-04-11T02:12:01.999Z</time></trkpt><trkpt lat="43.16063588042327" lon="11.456850398316357"><ele>148.0</ele><time>2026-04-11T02:12:03.999Z</time></trkpt><trkpt lat="43.16069614519953" lon="11.456782502191992"><ele>148.0</ele><time>2026-04-11T02:12:07Z</time></trkpt><trkpt lat="43.16076865705812" lon="11.456908140152105"><ele>148.0</ele><time>2026-04-11T02:12:08Z</time></trkpt><trkpt lat="43.16082294923259" lon="11.457011857152525"><ele>148.0</ele><time>2026-04-11T02:12:11Z</time></trkpt><trkpt lat="43.160856679328425" lon="11.457093710332844"><ele>148.0</ele><time>2026-04-11T02:12:13Z</time></trkpt><trkpt lat="43.16090156600256" lon="11.45720994087027"><ele>148.0</ele><time>2026-04-11T02:12:16Z</time></trkpt><trkpt lat="43.16092624558459" lon="11.45730400785092"><ele>148.0</ele><time>2026-04-11T02:12:18Z</time></trkpt><trkpt lat="43.16095132527779" lon="11.457414510014747"><ele>148.0</ele><time>2026-04-11T02:12:20Z</time></trkpt><trkpt lat="43.16098953593699" lon="11.457528336550803"><ele>148.0</ele><time>2026-04-11T02:12:22Z</time></trkpt><trkpt lat="43.16103065680895" lon="11.457669042677235"><ele>148.0</ele><time>2026-04-11T02:12:24Z</time></trkpt><trkpt lat="43.161049977333924" lon="11.457751768883087"><ele>148.0</ele><time>2026-04-11T02:12:25Z</time></trkpt><trkpt lat="43.16107399520477" lon="11.457842765443521"><ele>148.0</ele><time>2026-04-11T02:12:26Z</time></trkpt><trkpt lat="43.161088458668466" lon="11.457949390624005"><ele>148.0</ele><time>2026-04-11T02:12:27Z</time></trkpt><trkpt lat="43.161102052028745" lon="11.458065835732269"><ele>147.8</ele><time>2026-04-11T02:12:28Z</time></trkpt><trkpt lat="43.161112421237924" lon="11.458184476470008"><ele>147.60000000000002</ele><time>2026-04-11T02:12:29Z</time></trkpt><trkpt lat="43.161124611921366" lon="11.458315894477288"><ele>147.39999999999998</ele><time>2026-04-11T02:12:30Z</time></trkpt><trkpt lat="43.161119416301844" lon="11.458451628069968"><ele>147.2</ele><time>2026-04-11T02:12:31Z</time></trkpt><trkpt lat="43.16114508497711" lon="11.458585348875474"><ele>147.0</ele><time>2026-04-11T02:12:32Z</time></trkpt><trkpt lat="43.16113845572078" lon="11.458721553315362"><ele>146.79999999999998</ele><time>2026-04-11T02:12:33Z</time></trkpt><trkpt lat="43.16116452627763" lon="11.458857751414497"><ele>146.6</ele><time>2026-04-11T02:12:34Z</time></trkpt><trkpt lat="43.16117183395342" lon="11.458984245685928"><ele>146.39999999999998</ele><time>2026-04-11T02:12:35Z</time></trkpt><trkpt lat="43.16118431675306" lon="11.459112762272923"><ele>146.2</ele><time>2026-04-11T02:12:36Z</time></trkpt><trkpt lat="43.16119233977053" lon="11.459243110764604"><ele>146.0</ele><time>2026-04-11T02:12:37Z</time></trkpt><trkpt lat="43.161215218824054" lon="11.45936374552592"><ele>146.0</ele><time>2026-04-11T02:12:38Z</time></trkpt><trkpt lat="43.16123288032401" lon="11.459484359655372"><ele>146.0</ele><time>2026-04-11T02:12:39Z</time></trkpt><trkpt lat="43.16125307624137" lon="11.45959937253342"><ele>146.0</ele><time>2026-04-11T02:12:40Z</time></trkpt><trkpt lat="43.1612562993722" lon="11.459720977266604"><ele>146.0</ele><time>2026-04-11T02:12:41Z</time></trkpt><trkpt lat="43.161276655468846" lon="11.459833456251978"><ele>146.0</ele><time>2026-04-11T02:12:42Z</time></trkpt><trkpt lat="43.161312831203986" lon="11.459934892312418"><ele>146.0</ele><time>2026-04-11T02:12:43Z</time></trkpt><trkpt lat="43.161333620075126" lon="11.460044159869831"><ele>146.0</ele><time>2026-04-11T02:12:44Z</time></trkpt><trkpt lat="43.161368796518246" lon="11.460148416328522"><ele>146.0</ele><time>2026-04-11T02:12:45Z</time></trkpt><trkpt lat="43.161415950434545" lon="11.460241498944063"><ele>146.0</ele><time>2026-04-11T02:12:46Z</time></trkpt><trkpt lat="43.161457267352574" lon="11.460340501809336"><ele>146.0</ele><time>2026-04-11T02:12:47Z</time></trkpt><trkpt lat="43.16153001600022" lon="11.46040378051576"><ele>146.0</ele><time>2026-04-11T02:12:48Z</time></trkpt><trkpt lat="43.16158998025209" lon="11.460476704409528"><ele>146.0</ele><time>2026-04-11T02:12:49Z</time></trkpt><trkpt lat="43.16165589431469" lon="11.460542126537943"><ele>145.83333333333331</ele><time>2026-04-11T02:12:50Z</time></trkpt><trkpt lat="43.16171917395607" lon="11.460604035187755"><ele>145.66666666666666</ele><time>2026-04-11T02:12:51Z</time></trkpt><trkpt lat="43.161782909197484" lon="11.460665787874504"><ele>145.5</ele><time>2026-04-11T02:12:52Z</time></trkpt><trkpt lat="43.16184408391242" lon="11.460730981335425"><ele>145.33333333333334</ele><time>2026-04-11T02:12:53Z</time></trkpt><trkpt lat="43.16190619194556" lon="11.460792234132128"><ele>145.16666666666669</ele><time>2026-04-11T02:12:54Z</time></trkpt><trkpt lat="43.161963497494526" lon="11.460855959044443"><ele>145.0</ele><time>2026-04-11T02:12:55Z</time></trkpt><trkpt lat="43.162021863316774" lon="11.460918157251944"><ele>145.0</ele><time>2026-04-11T02:12:56Z</time></trkpt><trkpt lat="43.16208042083399" lon="11.460975207474117"><ele>145.0</ele><time>2026-04-11T02:12:57Z</time></trkpt><trkpt lat="43.162137116738954" lon="11.461029843159416"><ele>145.0</ele><time>2026-04-11T02:12:58Z</time></trkpt><trkpt lat="43.162192382242104" lon="11.461086814988363"><ele>145.0</ele><time>2026-04-11T02:12:59Z</time></trkpt><trkpt lat="43.16224580376086" lon="11.4611413546837"><ele>145.0</ele><time>2026-04-11T02:13:00Z</time></trkpt><trkpt lat="43.16230092310912" lon="11.46120328003147"><ele>145.0</ele><time>2026-04-11T02:13:01Z</time></trkpt><trkpt lat="43.162351312911845" lon="11.461262318816905"><ele>145.0</ele><time>2026-04-11T02:13:02Z</time></trkpt><trkpt lat="43.16239824596356" lon="11.461322437067876"><ele>144.71428571428572</ele><time>2026-04-11T02:13:03Z</time></trkpt><trkpt lat="43.162446152598584" lon="11.461378479881624"><ele>144.42857142857144</ele><time>2026-04-11T02:13:04Z</time></trkpt><trkpt lat="43.162499715656125" lon="11.461432091215793"><ele>144.14285714285714</ele><time>2026-04-11T02:13:05Z</time></trkpt><trkpt lat="43.16255666295249" lon="11.461481463175122"><ele>143.85714285714286</ele><time>2026-04-11T02:13:06Z</time></trkpt><trkpt lat="43.162608686540274" lon="11.461546038902553"><ele>143.57142857142856</ele><time>2026-04-11T02:13:07Z</time></trkpt><trkpt lat="43.16267078872135" lon="11.46158861194583"><ele>143.28571428571428</ele><time>2026-04-11T02:13:07.999Z</time></trkpt><trkpt lat="43.162724757928345" lon="11.461648739794626"><ele>143.0</ele><time>2026-04-11T02:13:08.999Z</time></trkpt><trkpt lat="43.16277938075971" lon="11.461707029242227"><ele>143.0</ele><time>2026-04-11T02:13:09.999Z</time></trkpt><trkpt lat="43.16284077418696" lon="11.461763217120339"><ele>143.0</ele><time>2026-04-11T02:13:10.999Z</time></trkpt><trkpt lat="43.16290125474524" lon="11.461824349577288"><ele>143.0</ele><time>2026-04-11T02:13:11.999Z</time></trkpt><trkpt lat="43.162960236870305" lon="11.461882522833864"><ele>143.0</ele><time>2026-04-11T02:13:12.999Z</time></trkpt><trkpt lat="43.16302470617113" lon="11.461940908119962"><ele>143.0</ele><time>2026-04-11T02:13:13.999Z</time></trkpt><trkpt lat="43.163091103565435" lon="11.461995217536488"><ele>143.0</ele><time>2026-04-11T02:13:14.999Z</time></trkpt><trkpt lat="43.1631573121448" lon="11.462052093860173"><ele>142.99999999999997</ele><time>2026-04-11T02:13:15.999Z</time></trkpt><trkpt lat="43.16322449738996" lon="11.462092316101547"><ele>143.0</ele><time>2026-04-11T02:13:16.999Z</time></trkpt><trkpt lat="43.16329131500976" lon="11.462130053726396"><ele>143.0</ele><time>2026-04-11T02:13:17.999Z</time></trkpt><trkpt lat="43.163360917850504" lon="11.462174924057257"><ele>143.0</ele><time>2026-04-11T02:13:18.999Z</time></trkpt><trkpt lat="43.1634320488243" lon="11.46221742148068"><ele>143.0</ele><time>2026-04-11T02:13:19.999Z</time></trkpt><trkpt lat="43.16349706054438" lon="11.462268885808077"><ele>142.99999999999997</ele><time>2026-04-11T02:13:20.999Z</time></trkpt><trkpt lat="43.163555604107515" lon="11.462328019638523"><ele>143.0</ele><time>2026-04-11T02:13:21.999Z</time></trkpt><trkpt lat="43.16357152202471" lon="11.462426146755766"><ele>143.0</ele><time>2026-04-11T02:13:22.999Z</time></trkpt><trkpt lat="43.16364145687447" lon="11.462576878747365"><ele>143.0</ele><time>2026-04-11T02:13:24.999Z</time></trkpt><trkpt lat="43.16367971840557" lon="11.462655318596381"><ele>143.0</ele><time>2026-04-11T02:13:25.999Z</time></trkpt><trkpt lat="43.16372583296995" lon="11.462724734949559"><ele>143.0</ele><time>2026-04-11T02:13:26.999Z</time></trkpt><trkpt lat="43.16378143461617" lon="11.462777976681869"><ele>143.0</ele><time>2026-04-11T02:13:27.999Z</time></trkpt><trkpt lat="43.163843038018946" lon="11.462818806669407"><ele>143.0</ele><time>2026-04-11T02:13:28.999Z</time></trkpt><trkpt lat="43.16390278573194" lon="11.462857366855308"><ele>143.0</ele><time>2026-04-11T02:13:29.999Z</time></trkpt><trkpt lat="43.163959670877055" lon="11.46290198409927"><ele>143.0</ele><time>2026-04-11T02:13:30.999Z</time></trkpt><trkpt lat="43.164073943883054" lon="11.46296927063857"><ele>143.0</ele><time>2026-04-11T02:13:32.999Z</time></trkpt><trkpt lat="43.164185635525556" lon="11.463051026853003"><ele>143.0</ele><time>2026-04-11T02:13:34.999Z</time></trkpt><trkpt lat="43.16424320619891" lon="11.463095781168247"><ele>143.0</ele><time>2026-04-11T02:13:35.999Z</time></trkpt><trkpt lat="43.16430129256046" lon="11.463139503600814"><ele>143.0</ele><time>2026-04-11T02:13:36.999Z</time></trkpt><trkpt lat="43.16435802970588" lon="11.463190748083916"><ele>143.14285714285714</ele><time>2026-04-11T02:13:37.999Z</time></trkpt><trkpt lat="43.16441591403004" lon="11.463238720239898"><ele>143.28571428571428</ele><time>2026-04-11T02:13:38.999Z</time></trkpt><trkpt lat="43.16447015748528" lon="11.463291738671183"><ele>143.42857142857144</ele><time>2026-04-11T02:13:39.999Z</time></trkpt><trkpt lat="43.16452224338769" lon="11.463347084106168"><ele>143.57142857142856</ele><time>2026-04-11T02:13:40.999Z</time></trkpt><trkpt lat="43.16456984541883" lon="11.463410046113482"><ele>143.71428571428572</ele><time>2026-04-11T02:13:41.999Z</time></trkpt><trkpt lat="43.16462042673747" lon="11.463462370988646"><ele>143.85714285714286</ele><time>2026-04-11T02:13:42.999Z</time></trkpt><trkpt lat="43.16471006287454" lon="11.463562267090326"><ele>144.0</ele><time>2026-04-11T02:13:44.999Z</time></trkpt><trkpt lat="43.16476203320385" lon="11.463616565384667"><ele>144.00000000000003</ele><time>2026-04-11T02:13:45.999Z</time></trkpt><trkpt lat="43.16481299666074" lon="11.463672873243123"><ele>144.0</ele><time>2026-04-11T02:13:46.999Z</time></trkpt><trkpt lat="43.164865841073706" lon="11.463731441079778"><ele>144.0</ele><time>2026-04-11T02:13:47.999Z</time></trkpt><trkpt lat="43.16492194530255" lon="11.463787845019064"><ele>144.0</ele><time>2026-04-11T02:13:48.999Z</time></trkpt><trkpt lat="43.16498039771882" lon="11.463836518383246"><ele>144.0</ele><time>2026-04-11T02:13:49.999Z</time></trkpt><trkpt lat="43.16503632959449" lon="11.46388750996644"><ele>144.00000000000003</ele><time>2026-04-11T02:13:50.999Z</time></trkpt><trkpt lat="43.16509724997184" lon="11.4639393700715"><ele>144.0</ele><time>2026-04-11T02:13:51.999Z</time></trkpt><trkpt lat="43.16516210094938" lon="11.463984803532453"><ele>144.14285714285717</ele><time>2026-04-11T02:13:52.999Z</time></trkpt><trkpt lat="43.165226037880636" lon="11.464026407054703"><ele>144.28571428571428</ele><time>2026-04-11T02:13:53.999Z</time></trkpt><trkpt lat="43.165291550889584" lon="11.464066909767457"><ele>144.42857142857144</ele><time>2026-04-11T02:13:54.999Z</time></trkpt><trkpt lat="43.16535062247914" lon="11.464103629697963"><ele>144.57142857142858</ele><time>2026-04-11T02:13:55.999Z</time></trkpt><trkpt lat="43.16541150786152" lon="11.464145322706047"><ele>144.71428571428572</ele><time>2026-04-11T02:13:56.999Z</time></trkpt><trkpt lat="43.16546973459699" lon="11.464188453384294"><ele>144.85714285714286</ele><time>2026-04-11T02:13:57.999Z</time></trkpt><trkpt lat="43.16552830036263" lon="11.464229564322398"><ele>145.0</ele><time>2026-04-11T02:13:58.999Z</time></trkpt><trkpt lat="43.165632303799384" lon="11.464305859572953"><ele>145.2</ele><time>2026-04-11T02:14:00.999Z</time></trkpt><trkpt lat="43.16573496792588" lon="11.464375352050233"><ele>145.4</ele><time>2026-04-11T02:14:02.999Z</time></trkpt><trkpt lat="43.16584013675457" lon="11.464442762410156"><ele>145.6</ele><time>2026-04-11T02:14:04.999Z</time></trkpt><trkpt lat="43.165941401381126" lon="11.464506031753176"><ele>145.8</ele><time>2026-04-11T02:14:06.999Z</time></trkpt><trkpt lat="43.16603943307601" lon="11.46454787119802"><ele>146.0</ele><time>2026-04-11T02:14:08.999Z</time></trkpt><trkpt lat="43.16611718823918" lon="11.464359819245727"><ele>146.0</ele><time>2026-04-11T02:14:09.999Z</time></trkpt><trkpt lat="43.166166008517365" lon="11.464304504954914"><ele>146.0</ele><time>2026-04-11T02:14:10.999Z</time></trkpt><trkpt lat="43.16619123837863" lon="11.46421987344096"><ele>146.0</ele><time>2026-04-11T02:14:12Z</time></trkpt><trkpt lat="43.16626583922151" lon="11.464090344832535"><ele>146.0</ele><time>2026-04-11T02:14:14Z</time></trkpt><trkpt lat="43.166312186578836" lon="11.464025237158605"><ele>146.0</ele><time>2026-04-11T02:14:15Z</time></trkpt><trkpt lat="43.16638688304588" lon="11.46389603506912"><ele>146.0</ele><time>2026-04-11T02:14:17Z</time></trkpt><trkpt lat="43.166475187374694" lon="11.46377171549222"><ele>146.0</ele><time>2026-04-11T02:14:19Z</time></trkpt><trkpt lat="43.16652531332695" lon="11.463718362920847"><ele>146.0</ele><time>2026-04-11T02:14:20Z</time></trkpt><trkpt lat="43.16662459986664" lon="11.463626767402415"><ele>146.0</ele><time>2026-04-11T02:14:22Z</time></trkpt><trkpt lat="43.16673339434644" lon="11.463547329586682"><ele>146.0</ele><time>2026-04-11T02:14:24Z</time></trkpt><trkpt lat="43.166837213045724" lon="11.463453164171435"><ele>146.0</ele><time>2026-04-11T02:14:26Z</time></trkpt><trkpt lat="43.16693487499758" lon="11.463383311375521"><ele>146.2</ele><time>2026-04-11T02:14:28Z</time></trkpt><trkpt lat="43.16700369955744" lon="11.463470730779683"><ele>146.39999999999998</ele><time>2026-04-11T02:14:30Z</time></trkpt><trkpt lat="43.16707795412223" lon="11.46355838368713"><ele>146.6</ele><time>2026-04-11T02:14:32Z</time></trkpt><trkpt lat="43.16716747115232" lon="11.463647022744643"><ele>146.79999999999998</ele><time>2026-04-11T02:14:34Z</time></trkpt><trkpt lat="43.16727107677253" lon="11.463725922317067"><ele>147.0</ele><time>2026-04-11T02:14:36Z</time></trkpt><trkpt lat="43.167380829237565" lon="11.46378738503376"><ele>147.25</ele><time>2026-04-11T02:14:38Z</time></trkpt><trkpt lat="43.1674916341892" lon="11.46385194248669"><ele>147.5</ele><time>2026-04-11T02:14:40Z</time></trkpt><trkpt lat="43.16760161132359" lon="11.46391635063465"><ele>147.75</ele><time>2026-04-11T02:14:42Z</time></trkpt><trkpt lat="43.16771491420666" lon="11.463982706502804"><ele>148.0</ele><time>2026-04-11T02:14:44Z</time></trkpt><trkpt lat="43.16783586734802" lon="11.464030633571143"><ele>148.0</ele><time>2026-04-11T02:14:46Z</time></trkpt><trkpt lat="43.16794063345609" lon="11.46411281024305"><ele>148.0</ele><time>2026-04-11T02:14:48Z</time></trkpt><trkpt lat="43.16804727852321" lon="11.464174237806"><ele>148.0</ele><time>2026-04-11T02:14:50Z</time></trkpt><trkpt lat="43.16813349238893" lon="11.46423491158575"><ele>148.0</ele><time>2026-04-11T02:14:52Z</time></trkpt><trkpt lat="43.16811300961947" lon="11.464422595465596"><ele>148.0</ele><time>2026-04-11T02:14:55Z</time></trkpt><trkpt lat="43.16805716651179" lon="11.464552475886144"><ele>148.0</ele><time>2026-04-11T02:14:57Z</time></trkpt><trkpt lat="43.167994024901354" lon="11.464682795863519"><ele>148.0</ele><time>2026-04-11T02:14:59Z</time></trkpt><trkpt lat="43.16795883931598" lon="11.464831978506203"><ele>148.0</ele><time>2026-04-11T02:15:01Z</time></trkpt><trkpt lat="43.16787291419651" lon="11.464954375593738"><ele>148.0</ele><time>2026-04-11T02:15:03Z</time></trkpt><trkpt lat="43.16776592687263" lon="11.465023684965722"><ele>148.0</ele><time>2026-04-11T02:15:05Z</time></trkpt><trkpt lat="43.16765323689143" lon="11.465081832677539"><ele>148.0</ele><time>2026-04-11T02:15:07Z</time></trkpt><trkpt lat="43.167536760704934" lon="11.465041482353868"><ele>148.0</ele><time>2026-04-11T02:15:09Z</time></trkpt><trkpt lat="43.167470177466264" lon="11.465024120781846"><ele>148.0</ele><time>2026-04-11T02:15:10Z</time></trkpt><trkpt lat="43.16735140984468" lon="11.465002570349863"><ele>148.0</ele><time>2026-04-11T02:15:12Z</time></trkpt><trkpt lat="43.1672876110988" lon="11.465003081469186"><ele>148.0</ele><time>2026-04-11T02:15:13Z</time></trkpt><trkpt lat="43.16721483337294" lon="11.465009626964907"><ele>148.0</ele><time>2026-04-11T02:15:14Z</time></trkpt><trkpt lat="43.16709104827959" lon="11.46502568649306"><ele>148.0</ele><time>2026-04-11T02:15:16Z</time></trkpt><trkpt lat="43.16702676064122" lon="11.465045159120995"><ele>148.0</ele><time>2026-04-11T02:15:16.999Z</time></trkpt><trkpt lat="43.16696111147164" lon="11.465062233030237"><ele>148.0</ele><time>2026-04-11T02:15:17.999Z</time></trkpt><trkpt lat="43.16684798255555" lon="11.465121215288512"><ele>148.0</ele><time>2026-04-11T02:15:19.999Z</time></trkpt><trkpt lat="43.16678695343635" lon="11.465152591985115"><ele>148.0</ele><time>2026-04-11T02:15:20.999Z</time></trkpt><trkpt lat="43.16672802767433" lon="11.465196720424661"><ele>148.0</ele><time>2026-04-11T02:15:21.999Z</time></trkpt><trkpt lat="43.16666836336188" lon="11.465239857856579"><ele>148.0</ele><time>2026-04-11T02:15:22.999Z</time></trkpt><trkpt lat="43.16660872889458" lon="11.465286710210135"><ele>148.0</ele><time>2026-04-11T02:15:23.999Z</time></trkpt><trkpt lat="43.16655158091818" lon="11.465338701413508"><ele>148.0</ele><time>2026-04-11T02:15:24.999Z</time></trkpt><trkpt lat="43.16649736786461" lon="11.465396144380927"><ele>148.0</ele><time>2026-04-11T02:15:25.999Z</time></trkpt><trkpt lat="43.16644257815804" lon="11.465460535390932"><ele>147.42857142857144</ele><time>2026-04-11T02:15:26.999Z</time></trkpt><trkpt lat="43.16638788310665" lon="11.465519846345382"><ele>146.85714285714286</ele><time>2026-04-11T02:15:27.999Z</time></trkpt><trkpt lat="43.1663330730018" lon="11.465579069732327"><ele>146.28571428571428</ele><time>2026-04-11T02:15:28.999Z</time></trkpt><trkpt lat="43.16628346190361" lon="11.465638226700444"><ele>145.71428571428572</ele><time>2026-04-11T02:15:29.999Z</time></trkpt><trkpt lat="43.166235751095" lon="11.46570211642693"><ele>145.14285714285714</ele><time>2026-04-11T02:15:30.999Z</time></trkpt><trkpt lat="43.16618952963127" lon="11.465764415768206"><ele>144.57142857142858</ele><time>2026-04-11T02:15:31.999Z</time></trkpt><trkpt lat="43.166142919416394" lon="11.46582462142118"><ele>144.0</ele><time>2026-04-11T02:15:32.999Z</time></trkpt><trkpt lat="43.16609759503733" lon="11.465886632856611"><ele>144.00000000000003</ele><time>2026-04-11T02:15:33.999Z</time></trkpt><trkpt lat="43.16605156372207" lon="11.46595152450283"><ele>144.0</ele><time>2026-04-11T02:15:34.999Z</time></trkpt><trkpt lat="43.16600707024952" lon="11.46601713528687"><ele>144.0</ele><time>2026-04-11T02:15:35.999Z</time></trkpt><trkpt lat="43.165959953887736" lon="11.46608471482051"><ele>144.0</ele><time>2026-04-11T02:15:36.999Z</time></trkpt><trkpt lat="43.16591175374034" lon="11.46615088575091"><ele>144.0</ele><time>2026-04-11T02:15:37.999Z</time></trkpt><trkpt lat="43.16586079189387" lon="11.466219436679271"><ele>144.00000000000003</ele><time>2026-04-11T02:15:38.999Z</time></trkpt><trkpt lat="43.16580740858675" lon="11.4662911481595"><ele>144.0</ele><time>2026-04-11T02:15:39.999Z</time></trkpt><trkpt lat="43.165746354316305" lon="11.466357601787553"><ele>144.66666666666666</ele><time>2026-04-11T02:15:40.999Z</time></trkpt><trkpt lat="43.16566768559848" lon="11.46640747058519"><ele>145.33333333333334</ele><time>2026-04-11T02:15:41.999Z</time></trkpt><trkpt lat="43.16558589568297" lon="11.466451521312901"><ele>146.0</ele><time>2026-04-11T02:15:42.999Z</time></trkpt><trkpt lat="43.165500296746416" lon="11.466481884700476"><ele>146.66666666666669</ele><time>2026-04-11T02:15:43.999Z</time></trkpt><trkpt lat="43.16542140064097" lon="11.466512649105669"><ele>147.33333333333334</ele><time>2026-04-11T02:15:44.999Z</time></trkpt><trkpt lat="43.16534950678298" lon="11.466560405699648"><ele>148.0</ele><time>2026-04-11T02:15:45.999Z</time></trkpt><trkpt lat="43.16528006813462" lon="11.466605473128372"><ele>148.0</ele><time>2026-04-11T02:15:46.999Z</time></trkpt><trkpt lat="43.1652152511501" lon="11.466652905713234"><ele>148.0</ele><time>2026-04-11T02:15:47.999Z</time></trkpt><trkpt lat="43.165154412395665" lon="11.466694413118361"><ele>148.0</ele><time>2026-04-11T02:15:48.999Z</time></trkpt><trkpt lat="43.165091263516665" lon="11.466727788017291"><ele>148.0</ele><time>2026-04-11T02:15:49.999Z</time></trkpt><trkpt lat="43.16503008089465" lon="11.46676581744379"><ele>148.0</ele><time>2026-04-11T02:15:50.999Z</time></trkpt><trkpt lat="43.16496999259428" lon="11.466814881157742"><ele>148.0</ele><time>2026-04-11T02:15:51.999Z</time></trkpt><trkpt lat="43.16490894800893" lon="11.466859410534912"><ele>148.0</ele><time>2026-04-11T02:15:52.999Z</time></trkpt><trkpt lat="43.16484891826056" lon="11.466902664043282"><ele>147.66666666666669</ele><time>2026-04-11T02:15:53.999Z</time></trkpt><trkpt lat="43.164790866835254" lon="11.466948495994878"><ele>147.33333333333334</ele><time>2026-04-11T02:15:54.999Z</time></trkpt><trkpt lat="43.16473203231907" lon="11.466993187295717"><ele>147.0</ele><time>2026-04-11T02:15:55.999Z</time></trkpt><trkpt lat="43.164674352755426" lon="11.46703708455677"><ele>146.66666666666666</ele><time>2026-04-11T02:15:56.999Z</time></trkpt><trkpt lat="43.164618310391326" lon="11.46707831866559"><ele>146.33333333333331</ele><time>2026-04-11T02:15:57.999Z</time></trkpt><trkpt lat="43.16456122339226" lon="11.467124551970308"><ele>146.0</ele><time>2026-04-11T02:15:58.999Z</time></trkpt><trkpt lat="43.16444868640916" lon="11.46719986590654"><ele>146.0</ele><time>2026-04-11T02:16:00.999Z</time></trkpt><trkpt lat="43.16439124659596" lon="11.467241005262029"><ele>146.0</ele><time>2026-04-11T02:16:01.999Z</time></trkpt><trkpt lat="43.16427825634651" lon="11.467320954614527"><ele>146.0</ele><time>2026-04-11T02:16:03.999Z</time></trkpt><trkpt lat="43.16416631820932" lon="11.467386340542628"><ele>146.0</ele><time>2026-04-11T02:16:05.999Z</time></trkpt><trkpt lat="43.16406480905938" lon="11.467458255185573"><ele>146.0</ele><time>2026-04-11T02:16:07.999Z</time></trkpt><trkpt lat="43.16397559670012" lon="11.467542184454036"><ele>146.0</ele><time>2026-04-11T02:16:09.999Z</time></trkpt><trkpt lat="43.16388713087767" lon="11.467590713208889"><ele>146.0</ele><time>2026-04-11T02:16:11.999Z</time></trkpt><trkpt lat="43.16388113680584" lon="11.467892160519998"><ele>146.0</ele><time>2026-04-11T02:16:14.999Z</time></trkpt><trkpt lat="43.16393596809817" lon="11.468013741402457"><ele>146.0</ele><time>2026-04-11T02:16:16.999Z</time></trkpt><trkpt lat="43.16396766796425" lon="11.468142330058818"><ele>146.0</ele><time>2026-04-11T02:16:19Z</time></trkpt><trkpt lat="43.164015960163226" lon="11.468263703214308"><ele>146.0</ele><time>2026-04-11T02:16:21Z</time></trkpt><trkpt lat="43.16405544373657" lon="11.468392347806017"><ele>146.0</ele><time>2026-04-11T02:16:23Z</time></trkpt><trkpt lat="43.16408833379797" lon="11.468517094444122"><ele>146.0</ele><time>2026-04-11T02:16:25Z</time></trkpt><trkpt lat="43.164108331893864" lon="11.468649869876362"><ele>146.0</ele><time>2026-04-11T02:16:27Z</time></trkpt><trkpt lat="43.164100217441195" lon="11.468792776959903"><ele>147.4</ele><time>2026-04-11T02:16:29Z</time></trkpt><trkpt lat="43.16405007587089" lon="11.468903102435085"><ele>148.8</ele><time>2026-04-11T02:16:31Z</time></trkpt><trkpt lat="43.16397264733813" lon="11.46899169644399"><ele>150.20000000000002</ele><time>2026-04-11T02:16:33Z</time></trkpt><trkpt lat="43.16388060144541" lon="11.469032554382805"><ele>151.6</ele><time>2026-04-11T02:16:35Z</time></trkpt><trkpt lat="43.163786741234595" lon="11.469056127873644"><ele>153.0</ele><time>2026-04-11T02:16:37Z</time></trkpt><trkpt lat="43.163690578514405" lon="11.469072232497089"><ele>153.0</ele><time>2026-04-11T02:16:39Z</time></trkpt><trkpt lat="43.16360022995302" lon="11.469097897591181"><ele>153.0</ele><time>2026-04-11T02:16:41Z</time></trkpt><trkpt lat="43.16350743475752" lon="11.469119348223224"><ele>153.0</ele><time>2026-04-11T02:16:43Z</time></trkpt><trkpt lat="43.16341578279672" lon="11.469149432796316"><ele>153.0</ele><time>2026-04-11T02:16:45Z</time></trkpt><trkpt lat="43.16332143837846" lon="11.469180142203692"><ele>153.0</ele><time>2026-04-11T02:16:47Z</time></trkpt><trkpt lat="43.16323221414616" lon="11.469225772722"><ele>152.83333333333334</ele><time>2026-04-11T02:16:49Z</time></trkpt><trkpt lat="43.16314497937506" lon="11.46928199328123"><ele>152.66666666666666</ele><time>2026-04-11T02:16:51Z</time></trkpt><trkpt lat="43.16307367337748" lon="11.469344923537593"><ele>152.5</ele><time>2026-04-11T02:16:53Z</time></trkpt><trkpt lat="43.163005853789564" lon="11.469410295356026"><ele>152.33333333333331</ele><time>2026-04-11T02:16:55Z</time></trkpt><trkpt lat="43.16294376688691" lon="11.469478941591104"><ele>152.16666666666666</ele><time>2026-04-11T02:16:57Z</time></trkpt><trkpt lat="43.1628787066013" lon="11.469551328198587"><ele>152.0</ele><time>2026-04-11T02:16:59Z</time></trkpt><trkpt lat="43.16282403368627" lon="11.469634309289832"><ele>152.7142857142857</ele><time>2026-04-11T02:17:01Z</time></trkpt><trkpt lat="43.16277448473878" lon="11.469715382815183"><ele>153.42857142857144</ele><time>2026-04-11T02:17:03Z</time></trkpt><trkpt lat="43.16273717849467" lon="11.469787569568442"><ele>154.14285714285714</ele><time>2026-04-11T02:17:05Z</time></trkpt><trkpt lat="43.16270951519059" lon="11.469877792829344"><ele>154.85714285714283</ele><time>2026-04-11T02:17:07Z</time></trkpt><trkpt lat="43.162690163942244" lon="11.469976262115258"><ele>155.57142857142856</ele><time>2026-04-11T02:17:09Z</time></trkpt><trkpt lat="43.16267008150042" lon="11.47007207145051"><ele>156.28571428571428</ele><time>2026-04-11T02:17:11Z</time></trkpt><trkpt lat="43.162656417011675" lon="11.47016430477818"><ele>157.0</ele><time>2026-04-11T02:17:13Z</time></trkpt><trkpt lat="43.16265479529006" lon="11.470253765922646"><ele>157.0</ele><time>2026-04-11T02:17:15Z</time></trkpt><trkpt lat="43.1626485832348" lon="11.470340391332615"><ele>157.0</ele><time>2026-04-11T02:17:17Z</time></trkpt><trkpt lat="43.16263840819761" lon="11.470473085085551"><ele>157.0</ele><time>2026-04-11T02:17:20Z</time></trkpt><trkpt lat="43.16263184522218" lon="11.470568099894804"><ele>157.0</ele><time>2026-04-11T02:17:22Z</time></trkpt><trkpt lat="43.162617363116155" lon="11.470683897358889"><ele>157.0</ele><time>2026-04-11T02:17:25Z</time></trkpt><trkpt lat="43.16261295355719" lon="11.4707749599305"><ele>157.0</ele><time>2026-04-11T02:17:26.999Z</time></trkpt><trkpt lat="43.16262940394814" lon="11.470898243198137"><ele>157.7142857142857</ele><time>2026-04-11T02:17:29.999Z</time></trkpt><trkpt lat="43.16261676141892" lon="11.471004174285317"><ele>158.42857142857142</ele><time>2026-04-11T02:17:32.999Z</time></trkpt><trkpt lat="43.162615106116945" lon="11.471116681355873"><ele>159.14285714285714</ele><time>2026-04-11T02:17:35.999Z</time></trkpt><trkpt lat="43.16260902007782" lon="11.471210729758473"><ele>159.85714285714283</ele><time>2026-04-11T02:17:38.999Z</time></trkpt><trkpt lat="43.162602846477164" lon="11.471298805074117"><ele>160.57142857142856</ele><time>2026-04-11T02:17:41.999Z</time></trkpt><trkpt lat="43.16259356453495" lon="11.471408920315707"><ele>161.28571428571428</ele><time>2026-04-11T02:17:45.999Z</time></trkpt><trkpt lat="43.16258317363882" lon="11.471496488511576"><ele>162.0</ele><time>2026-04-11T02:17:48.999Z</time></trkpt><trkpt lat="43.162563986367616" lon="11.471581199868337"><ele>162.71428571428572</ele><time>2026-04-11T02:17:51.999Z</time></trkpt><trkpt lat="43.16252887818958" lon="11.471684457521008"><ele>163.42857142857142</ele><time>2026-04-11T02:17:55.999Z</time></trkpt><trkpt lat="43.1624882452702" lon="11.471775964499091"><ele>164.14285714285714</ele><time>2026-04-11T02:17:59.999Z</time></trkpt><trkpt lat="43.16245189289826" lon="11.471848018696141"><ele>164.85714285714286</ele><time>2026-04-11T02:18:02.999Z</time></trkpt><trkpt lat="43.162416517351176" lon="11.471921495143903"><ele>165.57142857142858</ele><time>2026-04-11T02:18:05.999Z</time></trkpt><trkpt lat="43.16237876051138" lon="11.47199336934667"><ele>166.28571428571428</ele><time>2026-04-11T02:18:08.999Z</time></trkpt><trkpt lat="43.162334757786255" lon="11.47208952072912"><ele>167.0</ele><time>2026-04-11T02:18:12.999Z</time></trkpt><trkpt lat="43.16228325603842" lon="11.47217839807247"><ele>167.71428571428572</ele><time>2026-04-11T02:18:16.999Z</time></trkpt><trkpt lat="43.16224722574278" lon="11.472254637389621"><ele>168.42857142857144</ele><time>2026-04-11T02:18:19.999Z</time></trkpt><trkpt lat="43.162208130293415" lon="11.472327155589856"><ele>169.14285714285717</ele><time>2026-04-11T02:18:22.999Z</time></trkpt><trkpt lat="43.16217027321262" lon="11.472404338194709"><ele>169.85714285714286</ele><time>2026-04-11T02:18:26Z</time></trkpt><trkpt lat="43.16212764097244" lon="11.472491904198902"><ele>170.57142857142858</ele><time>2026-04-11T02:18:29Z</time></trkpt><trkpt lat="43.16208488664655" lon="11.472590165110978"><ele>171.2857142857143</ele><time>2026-04-11T02:18:33Z</time></trkpt><trkpt lat="43.16204548460258" lon="11.472664978249721"><ele>172.0</ele><time>2026-04-11T02:18:36Z</time></trkpt><trkpt lat="43.16200142895347" lon="11.47274718020957"><ele>172.00000000000003</ele><time>2026-04-11T02:18:39Z</time></trkpt><trkpt lat="43.161963575302174" lon="11.472830425617913"><ele>172.0</ele><time>2026-04-11T02:18:42Z</time></trkpt><trkpt lat="43.16192231892982" lon="11.47290819787734"><ele>172.0</ele><time>2026-04-11T02:18:45Z</time></trkpt><trkpt lat="43.16188440346401" lon="11.472991690513398"><ele>172.0</ele><time>2026-04-11T02:18:48Z</time></trkpt><trkpt lat="43.16184951507857" lon="11.473088408072021"><ele>172.0</ele><time>2026-04-11T02:18:51Z</time></trkpt><trkpt lat="43.161814566357755" lon="11.473166695388137"><ele>172.00000000000003</ele><time>2026-04-11T02:18:53Z</time></trkpt><trkpt lat="43.16179730554698" lon="11.473283369745516"><ele>172.0</ele><time>2026-04-11T02:18:56Z</time></trkpt><trkpt lat="43.16179856776573" lon="11.473393045212797"><ele>172.85714285714286</ele><time>2026-04-11T02:18:59Z</time></trkpt><trkpt lat="43.16181307742574" lon="11.473507251450824"><ele>173.71428571428572</ele><time>2026-04-11T02:19:03Z</time></trkpt><trkpt lat="43.161819815510306" lon="11.473593375516396"><ele>174.57142857142856</ele><time>2026-04-11T02:19:06Z</time></trkpt><trkpt lat="43.16184180904862" lon="11.47368374782851"><ele>175.42857142857144</ele><time>2026-04-11T02:19:09Z</time></trkpt><trkpt lat="43.16186475319445" lon="11.473768299851955"><ele>176.28571428571428</ele><time>2026-04-11T02:19:12Z</time></trkpt><trkpt lat="43.16189707366474" lon="11.473856493612576"><ele>177.14285714285714</ele><time>2026-04-11T02:19:15Z</time></trkpt><trkpt lat="43.16192277771447" lon="11.473948476812135"><ele>178.0</ele><time>2026-04-11T02:19:18Z</time></trkpt><trkpt lat="43.16193178785292" lon="11.474038645736654"><ele>178.33333333333334</ele><time>2026-04-11T02:19:21Z</time></trkpt><trkpt lat="43.16192317764184" lon="11.4741441755297"><ele>178.66666666666669</ele><time>2026-04-11T02:19:24Z</time></trkpt><trkpt lat="43.16191366416231" lon="11.474233269591597"><ele>179.0</ele><time>2026-04-11T02:19:27Z</time></trkpt><trkpt lat="43.16191295602485" lon="11.47434070114904"><ele>179.33333333333334</ele><time>2026-04-11T02:19:30Z</time></trkpt><trkpt lat="43.16191871401808" lon="11.47444694178428"><ele>179.66666666666666</ele><time>2026-04-11T02:19:33Z</time></trkpt><trkpt lat="43.161936801955015" lon="11.474561538334514"><ele>180.0</ele><time>2026-04-11T02:19:35.999Z</time></trkpt><trkpt lat="43.161964816925945" lon="11.474652733695692"><ele>180.0</ele><time>2026-04-11T02:19:38.999Z</time></trkpt><trkpt lat="43.1620173447273" lon="11.474746133796081"><ele>180.0</ele><time>2026-04-11T02:19:41.999Z</time></trkpt><trkpt lat="43.16207590465319" lon="11.474819770009253"><ele>180.0</ele><time>2026-04-11T02:19:44.999Z</time></trkpt><trkpt lat="43.1621394936858" lon="11.47488012518236"><ele>180.0</ele><time>2026-04-11T02:19:47.999Z</time></trkpt><trkpt lat="43.16220848308512" lon="11.474926294188734"><ele>180.0</ele><time>2026-04-11T02:19:50.999Z</time></trkpt><trkpt lat="43.16228200536653" lon="11.474947929326612"><ele>180.0</ele><time>2026-04-11T02:19:53.999Z</time></trkpt><trkpt lat="43.16234872499295" lon="11.474962092567202"><ele>181.66666666666666</ele><time>2026-04-11T02:19:56.999Z</time></trkpt><trkpt lat="43.162418764331484" lon="11.474961394237186"><ele>183.33333333333334</ele><time>2026-04-11T02:19:59.999Z</time></trkpt><trkpt lat="43.162490852439085" lon="11.474961398001257"><ele>185.0</ele><time>2026-04-11T02:20:02.999Z</time></trkpt><trkpt lat="43.16256784264101" lon="11.474970846877591"><ele>186.66666666666669</ele><time>2026-04-11T02:20:05.999Z</time></trkpt><trkpt lat="43.162649429387294" lon="11.475009003570712"><ele>188.33333333333334</ele><time>2026-04-11T02:20:08.999Z</time></trkpt><trkpt lat="43.16270762783958" lon="11.475051579157487"><ele>190.0</ele><time>2026-04-11T02:20:10.999Z</time></trkpt><trkpt lat="43.16279914070785" lon="11.475113617542622"><ele>190.0</ele><time>2026-04-11T02:20:13.999Z</time></trkpt><trkpt lat="43.162856441275814" lon="11.475155325608027"><ele>190.0</ele><time>2026-04-11T02:20:15.999Z</time></trkpt><trkpt lat="43.162920993744514" lon="11.475204940556758"><ele>190.0</ele><time>2026-04-11T02:20:17.999Z</time></trkpt><trkpt lat="43.16300022830666" lon="11.475241440949581"><ele>190.0</ele><time>2026-04-11T02:20:19.999Z</time></trkpt><trkpt lat="43.16308807098441" lon="11.475295310191331"><ele>190.0</ele><time>2026-04-11T02:20:21.999Z</time></trkpt><trkpt lat="43.16320126040724" lon="11.475348740995363"><ele>190.0</ele><time>2026-04-11T02:20:23.999Z</time></trkpt><trkpt lat="43.16327535137725" lon="11.475384961373393"><ele>189.4</ele><time>2026-04-11T02:20:25.999Z</time></trkpt><trkpt lat="43.16334513736839" lon="11.475471516868767"><ele>188.8</ele><time>2026-04-11T02:20:27.999Z</time></trkpt><trkpt lat="43.163457599928165" lon="11.475528466555833"><ele>188.2</ele><time>2026-04-11T02:20:30Z</time></trkpt><trkpt lat="43.16351781111268" lon="11.475557452366564"><ele>187.6</ele><time>2026-04-11T02:20:31Z</time></trkpt><trkpt lat="43.16360559567194" lon="11.475594089259632"><ele>187.0</ele><time>2026-04-11T02:20:33Z</time></trkpt><trkpt lat="43.16369082289418" lon="11.47560776958112"><ele>187.0</ele><time>2026-04-11T02:20:35Z</time></trkpt><trkpt lat="43.16379883084391" lon="11.475655480446052"><ele>187.0</ele><time>2026-04-11T02:20:37Z</time></trkpt><trkpt lat="43.16389050809459" lon="11.475703188029026"><ele>187.0</ele><time>2026-04-11T02:20:39Z</time></trkpt><trkpt lat="43.16399033964571" lon="11.475769589761034"><ele>187.0</ele><time>2026-04-11T02:20:41Z</time></trkpt><trkpt lat="43.16405179037003" lon="11.475803021664872"><ele>187.0</ele><time>2026-04-11T02:20:42Z</time></trkpt><trkpt lat="43.164112518547576" lon="11.475851589895385"><ele>187.0</ele><time>2026-04-11T02:20:43Z</time></trkpt><trkpt lat="43.16420141518118" lon="11.475884719601616"><ele>187.0</ele><time>2026-04-11T02:20:44Z</time></trkpt><trkpt lat="43.16427265540541" lon="11.475939631261484"><ele>187.0</ele><time>2026-04-11T02:20:45Z</time></trkpt><trkpt lat="43.164335376403876" lon="11.4759658732554"><ele>187.0</ele><time>2026-04-11T02:20:46Z</time></trkpt><trkpt lat="43.16439918793489" lon="11.476000393219042"><ele>187.0</ele><time>2026-04-11T02:20:47Z</time></trkpt><trkpt lat="43.16452054358383" lon="11.476055323618365"><ele>187.0</ele><time>2026-04-11T02:20:49Z</time></trkpt><trkpt lat="43.16462629375986" lon="11.476111899656727"><ele>187.0</ele><time>2026-04-11T02:20:51Z</time></trkpt><trkpt lat="43.16472177189618" lon="11.476126286796337"><ele>187.0</ele><time>2026-04-11T02:20:53Z</time></trkpt><trkpt lat="43.16482221092493" lon="11.476171468684969"><ele>187.0</ele><time>2026-04-11T02:20:55Z</time></trkpt><trkpt lat="43.164917972532294" lon="11.476199102581592"><ele>187.0</ele><time>2026-04-11T02:20:57Z</time></trkpt><trkpt lat="43.16500963633328" lon="11.476229696415345"><ele>187.0</ele><time>2026-04-11T02:20:59Z</time></trkpt><trkpt lat="43.165097389811926" lon="11.476267748166785"><ele>186.5</ele><time>2026-04-11T02:21:01Z</time></trkpt><trkpt lat="43.16517049797804" lon="11.476290706294895"><ele>186.0</ele><time>2026-04-11T02:21:03Z</time></trkpt><trkpt lat="43.16525848003242" lon="11.476318938043036"><ele>185.5</ele><time>2026-04-11T02:21:06Z</time></trkpt><trkpt lat="43.1653336801417" lon="11.476331190168054"><ele>185.0</ele><time>2026-04-11T02:21:08Z</time></trkpt><trkpt lat="43.16541577623924" lon="11.476370118670427"><ele>184.5</ele><time>2026-04-11T02:21:10Z</time></trkpt><trkpt lat="43.16548139388646" lon="11.476400544160049"><ele>184.0</ele><time>2026-04-11T02:21:12Z</time></trkpt><trkpt lat="43.16555169338772" lon="11.476462956116256"><ele>184.0</ele><time>2026-04-11T02:21:14Z</time></trkpt><trkpt lat="43.16561685179973" lon="11.476525007040944"><ele>184.0</ele><time>2026-04-11T02:21:16Z</time></trkpt><trkpt lat="43.16569055232033" lon="11.47657385882812"><ele>184.0</ele><time>2026-04-11T02:21:18Z</time></trkpt><trkpt lat="43.165766780075344" lon="11.476621717452005"><ele>184.0</ele><time>2026-04-11T02:21:20Z</time></trkpt><trkpt lat="43.16584517548687" lon="11.476666143213011"><ele>184.0</ele><time>2026-04-11T02:21:22Z</time></trkpt><trkpt lat="43.165921512975416" lon="11.476717302066369"><ele>184.0</ele><time>2026-04-11T02:21:24Z</time></trkpt><trkpt lat="43.16598040016561" lon="11.476761355974416"><ele>185.0</ele><time>2026-04-11T02:21:26Z</time></trkpt><trkpt lat="43.16605461336692" lon="11.476812715426847"><ele>186.0</ele><time>2026-04-11T02:21:28Z</time></trkpt><trkpt lat="43.166115671172626" lon="11.476850725150335"><ele>187.0</ele><time>2026-04-11T02:21:30Z</time></trkpt><trkpt lat="43.16618060962962" lon="11.476895955041334"><ele>188.0</ele><time>2026-04-11T02:21:31.999Z</time></trkpt><trkpt lat="43.166244083989376" lon="11.476935605176562"><ele>189.0</ele><time>2026-04-11T02:21:33.999Z</time></trkpt><trkpt lat="43.16631347458455" lon="11.47698027944493"><ele>190.0</ele><time>2026-04-11T02:21:35.999Z</time></trkpt><trkpt lat="43.16637604011351" lon="11.477028060857505"><ele>191.0</ele><time>2026-04-11T02:21:37.999Z</time></trkpt><trkpt lat="43.16644348927343" lon="11.477065804400114"><ele>190.85714285714286</ele><time>2026-04-11T02:21:39.999Z</time></trkpt><trkpt lat="43.166505140871244" lon="11.477110018389764"><ele>190.7142857142857</ele><time>2026-04-11T02:21:41.999Z</time></trkpt><trkpt lat="43.16656635570708" lon="11.477160773629203"><ele>190.57142857142856</ele><time>2026-04-11T02:21:43.999Z</time></trkpt><trkpt lat="43.16662058436355" lon="11.477219872084223"><ele>190.42857142857144</ele><time>2026-04-11T02:21:45.999Z</time></trkpt><trkpt lat="43.16667782005705" lon="11.477281845725035"><ele>190.28571428571428</ele><time>2026-04-11T02:21:47.999Z</time></trkpt><trkpt lat="43.16673629134912" lon="11.477347959880673"><ele>190.14285714285714</ele><time>2026-04-11T02:21:49.999Z</time></trkpt><trkpt lat="43.16680532716851" lon="11.477416095603866"><ele>190.0</ele><time>2026-04-11T02:21:51.999Z</time></trkpt><trkpt lat="43.16687073697249" lon="11.477492771010231"><ele>190.6</ele><time>2026-04-11T02:21:53.999Z</time></trkpt><trkpt lat="43.16694391366189" lon="11.477577462178067"><ele>191.2</ele><time>2026-04-11T02:21:55.999Z</time></trkpt><trkpt lat="43.167034534572" lon="11.477662851307253"><ele>191.8</ele><time>2026-04-11T02:21:57.999Z</time></trkpt><trkpt lat="43.16713197728998" lon="11.477758706690867"><ele>192.4</ele><time>2026-04-11T02:21:59.999Z</time></trkpt><trkpt lat="43.16719390639468" lon="11.47778990943949"><ele>193.0</ele><time>2026-04-11T02:22:00.999Z</time></trkpt><trkpt lat="43.16730838084608" lon="11.477809300452604"><ele>193.16666666666666</ele><time>2026-04-11T02:22:02.999Z</time></trkpt><trkpt lat="43.16741215169051" lon="11.477823823206611"><ele>193.33333333333331</ele><time>2026-04-11T02:22:04.999Z</time></trkpt><trkpt lat="43.16751473820283" lon="11.477838288534512"><ele>193.5</ele><time>2026-04-11T02:22:06.999Z</time></trkpt><trkpt lat="43.16758832820953" lon="11.477826711783711"><ele>193.66666666666669</ele><time>2026-04-11T02:22:08.999Z</time></trkpt><trkpt lat="43.16765661926589" lon="11.477830509513032"><ele>193.83333333333334</ele><time>2026-04-11T02:22:10.999Z</time></trkpt><trkpt lat="43.167736470050066" lon="11.477831068046871"><ele>194.0</ele><time>2026-04-11T02:22:12.999Z</time></trkpt><trkpt lat="43.16780931689267" lon="11.477827332583606"><ele>194.00000000000003</ele><time>2026-04-11T02:22:15.999Z</time></trkpt><trkpt lat="43.16788944136153" lon="11.47782172808547"><ele>194.0</ele><time>2026-04-11T02:22:18.999Z</time></trkpt><trkpt lat="43.16798080908964" lon="11.477824061956904"><ele>194.0</ele><time>2026-04-11T02:22:21.999Z</time></trkpt><trkpt lat="43.16807097700414" lon="11.477823038530426"><ele>194.0</ele><time>2026-04-11T02:22:24.999Z</time></trkpt><trkpt lat="43.16814092117271" lon="11.477821063503598"><ele>194.00000000000003</ele><time>2026-04-11T02:22:26.999Z</time></trkpt><trkpt lat="43.168231726674776" lon="11.4778344164184"><ele>194.0</ele><time>2026-04-11T02:22:28.999Z</time></trkpt><trkpt lat="43.168299621500694" lon="11.477837479068311"><ele>194.33333333333334</ele><time>2026-04-11T02:22:30.999Z</time></trkpt><trkpt lat="43.16837677682146" lon="11.477870452982522"><ele>194.66666666666669</ele><time>2026-04-11T02:22:32.999Z</time></trkpt><trkpt lat="43.16846040900917" lon="11.477882331184007"><ele>195.0</ele><time>2026-04-11T02:22:34.999Z</time></trkpt><trkpt lat="43.16852511974457" lon="11.477905859249555"><ele>195.33333333333331</ele><time>2026-04-11T02:22:37Z</time></trkpt><trkpt lat="43.16861996369614" lon="11.477917269738334"><ele>195.66666666666666</ele><time>2026-04-11T02:22:39Z</time></trkpt><trkpt lat="43.1687005336383" lon="11.477931748513264"><ele>196.0</ele><time>2026-04-11T02:22:41Z</time></trkpt><trkpt lat="43.168771397048346" lon="11.477946631404425"><ele>196.0</ele><time>2026-04-11T02:22:43Z</time></trkpt><trkpt lat="43.16884207996498" lon="11.477962252977106"><ele>196.0</ele><time>2026-04-11T02:22:45Z</time></trkpt><trkpt lat="43.16891658877459" lon="11.47797763945891"><ele>196.0</ele><time>2026-04-11T02:22:47Z</time></trkpt><trkpt lat="43.16898672701089" lon="11.47799306099501"><ele>196.0</ele><time>2026-04-11T02:22:49Z</time></trkpt><trkpt lat="43.16905560087643" lon="11.47802272480378"><ele>196.0</ele><time>2026-04-11T02:22:51Z</time></trkpt><trkpt lat="43.16912861500057" lon="11.478069151646517"><ele>196.0</ele><time>2026-04-11T02:22:53Z</time></trkpt><trkpt lat="43.16919535424681" lon="11.478109299115191"><ele>196.0</ele><time>2026-04-11T02:22:55Z</time></trkpt><trkpt lat="43.16925043795607" lon="11.478155642564678"><ele>195.99999999999997</ele><time>2026-04-11T02:22:57Z</time></trkpt><trkpt lat="43.169318776997635" lon="11.478223905262203"><ele>196.0</ele><time>2026-04-11T02:22:59Z</time></trkpt><trkpt lat="43.169390919529164" lon="11.478326429191176"><ele>196.0</ele><time>2026-04-11T02:23:02Z</time></trkpt><trkpt lat="43.16943659485102" lon="11.478408620367173"><ele>196.0</ele><time>2026-04-11T02:23:04Z</time></trkpt><trkpt lat="43.16947749194488" lon="11.478494497070868"><ele>195.99999999999997</ele><time>2026-04-11T02:23:06Z</time></trkpt><trkpt lat="43.16951296523086" lon="11.478574528291576"><ele>196.0</ele><time>2026-04-11T02:23:08Z</time></trkpt><trkpt lat="43.16954897922422" lon="11.478657098199614"><ele>196.0</ele><time>2026-04-11T02:23:10Z</time></trkpt><trkpt lat="43.169595024139625" lon="11.478733974761754"><ele>196.0</ele><time>2026-04-11T02:23:12Z</time></trkpt><trkpt lat="43.169635794422604" lon="11.47881355424479"><ele>196.0</ele><time>2026-04-11T02:23:14Z</time></trkpt><trkpt lat="43.169673684408174" lon="11.478890082214145"><ele>196.0</ele><time>2026-04-11T02:23:16Z</time></trkpt><trkpt lat="43.16971867854923" lon="11.478977113561434"><ele>196.0</ele><time>2026-04-11T02:23:18Z</time></trkpt><trkpt lat="43.16976605200985" lon="11.479058728428765"><ele>196.0</ele><time>2026-04-11T02:23:20Z</time></trkpt><trkpt lat="43.16981526027288" lon="11.47913880692215"><ele>196.0</ele><time>2026-04-11T02:23:22Z</time></trkpt><trkpt lat="43.16986482111582" lon="11.479230916074137"><ele>196.83333333333331</ele><time>2026-04-11T02:23:24Z</time></trkpt><trkpt lat="43.16992578819806" lon="11.47929537059538"><ele>197.66666666666666</ele><time>2026-04-11T02:23:26Z</time></trkpt><trkpt lat="43.16999055575844" lon="11.47934789050577"><ele>198.5</ele><time>2026-04-11T02:23:28Z</time></trkpt><trkpt lat="43.17006178767394" lon="11.479390480632821"><ele>199.33333333333331</ele><time>2026-04-11T02:23:30Z</time></trkpt><trkpt lat="43.170147147759536" lon="11.479432727837432"><ele>200.16666666666666</ele><time>2026-04-11T02:23:32Z</time></trkpt><trkpt lat="43.17021740450025" lon="11.479463803981357"><ele>201.0</ele><time>2026-04-11T02:23:34Z</time></trkpt><trkpt lat="43.17031251733253" lon="11.479503579561134"><ele>201.0</ele><time>2026-04-11T02:23:37Z</time></trkpt><trkpt lat="43.17037538359471" lon="11.479529869811781"><ele>201.0</ele><time>2026-04-11T02:23:39Z</time></trkpt><trkpt lat="43.17044336426337" lon="11.479558298898933"><ele>201.0</ele><time>2026-04-11T02:23:41Z</time></trkpt><trkpt lat="43.17050808897371" lon="11.479585366338268"><ele>201.0</ele><time>2026-04-11T02:23:43Z</time></trkpt><trkpt lat="43.17058063134345" lon="11.47962523638083"><ele>201.0</ele><time>2026-04-11T02:23:45Z</time></trkpt><trkpt lat="43.170637138301664" lon="11.479664609525042"><ele>201.0</ele><time>2026-04-11T02:23:46.999Z</time></trkpt><trkpt lat="43.17072446766838" lon="11.47974082727519"><ele>201.5</ele><time>2026-04-11T02:23:48.999Z</time></trkpt><trkpt lat="43.17078059032421" lon="11.479802765877052"><ele>202.0</ele><time>2026-04-11T02:23:50.999Z</time></trkpt><trkpt lat="43.170835379809965" lon="11.479878689241323"><ele>202.5</ele><time>2026-04-11T02:23:52.999Z</time></trkpt><trkpt lat="43.17088022689371" lon="11.479965870081383"><ele>203.0</ele><time>2026-04-11T02:23:54.999Z</time></trkpt><trkpt lat="43.17091390957375" lon="11.48005590631424"><ele>203.5</ele><time>2026-04-11T02:23:56.999Z</time></trkpt><trkpt lat="43.1709510632792" lon="11.480161025089041"><ele>204.0</ele><time>2026-04-11T02:23:58.999Z</time></trkpt><trkpt lat="43.170985273228005" lon="11.4802699098613"><ele>204.0</ele><time>2026-04-11T02:24:00.999Z</time></trkpt><trkpt lat="43.17101490747907" lon="11.48038235154047"><ele>204.0</ele><time>2026-04-11T02:24:02.999Z</time></trkpt><trkpt lat="43.17103851414235" lon="11.480488421334059"><ele>204.0</ele><time>2026-04-11T02:24:04.999Z</time></trkpt><trkpt lat="43.17105775527202" lon="11.480589797406113"><ele>204.0</ele><time>2026-04-11T02:24:06.999Z</time></trkpt><trkpt lat="43.171077801480074" lon="11.480707595376831"><ele>204.0</ele><time>2026-04-11T02:24:08.999Z</time></trkpt><trkpt lat="43.171092972582635" lon="11.480800601537034"><ele>204.0</ele><time>2026-04-11T02:24:10.999Z</time></trkpt><trkpt lat="43.17110921447768" lon="11.480900713809678"><ele>203.85714285714286</ele><time>2026-04-11T02:24:12.999Z</time></trkpt><trkpt lat="43.17112308751235" lon="11.480986224744026"><ele>203.71428571428572</ele><time>2026-04-11T02:24:14.999Z</time></trkpt><trkpt lat="43.171143579313124" lon="11.481105724472368"><ele>203.57142857142856</ele><time>2026-04-11T02:24:17.999Z</time></trkpt><trkpt lat="43.17115816217423" lon="11.481189773880653"><ele>203.42857142857144</ele><time>2026-04-11T02:24:19.999Z</time></trkpt><trkpt lat="43.17117392498644" lon="11.48128062407462"><ele>203.28571428571428</ele><time>2026-04-11T02:24:21.999Z</time></trkpt><trkpt lat="43.1711949733878" lon="11.481399647993431"><ele>203.14285714285714</ele><time>2026-04-11T02:24:24.999Z</time></trkpt><trkpt lat="43.17121094050675" lon="11.481485309676124"><ele>203.0</ele><time>2026-04-11T02:24:26.999Z</time></trkpt><trkpt lat="43.171241997158965" lon="11.481598704833486"><ele>203.0</ele><time>2026-04-11T02:24:29.999Z</time></trkpt><trkpt lat="43.1712621866606" lon="11.481703662154692"><ele>203.0</ele><time>2026-04-11T02:24:32.999Z</time></trkpt><trkpt lat="43.171275673372136" lon="11.481805373045278"><ele>203.0</ele><time>2026-04-11T02:24:35.999Z</time></trkpt><trkpt lat="43.17129183634965" lon="11.48189856489247"><ele>203.0</ele><time>2026-04-11T02:24:38.999Z</time></trkpt><trkpt lat="43.17129476267529" lon="11.481989259048778"><ele>203.0</ele><time>2026-04-11T02:24:42Z</time></trkpt><trkpt lat="43.171313708883666" lon="11.482076586917554"><ele>203.0</ele><time>2026-04-11T02:24:45Z</time></trkpt><trkpt lat="43.17134136054608" lon="11.482186715252979"><ele>203.0</ele><time>2026-04-11T02:24:49Z</time></trkpt><trkpt lat="43.17136978930125" lon="11.482271970539239"><ele>202.14285714285714</ele><time>2026-04-11T02:24:52Z</time></trkpt><trkpt lat="43.17140282225897" lon="11.48235525834956"><ele>201.28571428571428</ele><time>2026-04-11T02:24:55Z</time></trkpt><trkpt lat="43.171442668941395" lon="11.48243811931054"><ele>200.42857142857144</ele><time>2026-04-11T02:24:58Z</time></trkpt><trkpt lat="43.17148977794097" lon="11.482537078311902"><ele>199.57142857142856</ele><time>2026-04-11T02:25:01Z</time></trkpt><trkpt lat="43.17152247100787" lon="11.48261181001638"><ele>198.71428571428572</ele><time>2026-04-11T02:25:03Z</time></trkpt><trkpt lat="43.17155850902801" lon="11.482695057867392"><ele>197.85714285714286</ele><time>2026-04-11T02:25:05Z</time></trkpt><trkpt lat="43.171597856583176" lon="11.482784609560758"><ele>197.0</ele><time>2026-04-11T02:25:07Z</time></trkpt><trkpt lat="43.171636483579775" lon="11.48287024344265"><ele>199.0</ele><time>2026-04-11T02:25:09Z</time></trkpt><trkpt lat="43.171676128946395" lon="11.482959222544935"><ele>201.0</ele><time>2026-04-11T02:25:11Z</time></trkpt><trkpt lat="43.171722468281246" lon="11.483049316688842"><ele>203.0</ele><time>2026-04-11T02:25:13Z</time></trkpt><trkpt lat="43.17176351079978" lon="11.483120560388357"><ele>205.0</ele><time>2026-04-11T02:25:15Z</time></trkpt><trkpt lat="43.171816347481354" lon="11.483188087053811"><ele>207.0</ele><time>2026-04-11T02:25:17Z</time></trkpt><trkpt lat="43.171868500095215" lon="11.483247425365736"><ele>209.0</ele><time>2026-04-11T02:25:19Z</time></trkpt><trkpt lat="43.17192057521095" lon="11.483302555057577"><ele>211.0</ele><time>2026-04-11T02:25:21Z</time></trkpt><trkpt lat="43.1719708406817" lon="11.483355304531251"><ele>210.99999999999997</ele><time>2026-04-11T02:25:23Z</time></trkpt><trkpt lat="43.17204379090367" lon="11.483430285736985"><ele>211.0</ele><time>2026-04-11T02:25:26Z</time></trkpt><trkpt lat="43.17211488156688" lon="11.483500174068997"><ele>211.0</ele><time>2026-04-11T02:25:29Z</time></trkpt><trkpt lat="43.172186002042764" lon="11.483572630661804"><ele>211.0</ele><time>2026-04-11T02:25:32Z</time></trkpt><trkpt lat="43.172256425990945" lon="11.483620597738483"><ele>210.99999999999997</ele><time>2026-04-11T02:25:35Z</time></trkpt><trkpt lat="43.17230770599446" lon="11.483701698800083"><ele>211.0</ele><time>2026-04-11T02:25:38Z</time></trkpt><trkpt lat="43.17236682540374" lon="11.483749380087449"><ele>213.0</ele><time>2026-04-11T02:25:41Z</time></trkpt><trkpt lat="43.17243518161891" lon="11.483777431088829"><ele>215.0</ele><time>2026-04-11T02:25:44Z</time></trkpt><trkpt lat="43.17250515466825" lon="11.483811687491485"><ele>217.0</ele><time>2026-04-11T02:25:47Z</time></trkpt><trkpt lat="43.17257224343588" lon="11.4838682077689"><ele>219.0</ele><time>2026-04-11T02:25:50Z</time></trkpt><trkpt lat="43.172644758151925" lon="11.483876483477902"><ele>221.0</ele><time>2026-04-11T02:25:53Z</time></trkpt><trkpt lat="43.17271017882316" lon="11.483905277111232"><ele>223.00000000000003</ele><time>2026-04-11T02:25:56Z</time></trkpt><trkpt lat="43.17278249014491" lon="11.483941252450515"><ele>225.00000000000003</ele><time>2026-04-11T02:25:58.999Z</time></trkpt><trkpt lat="43.17284948897154" lon="11.483964560364317"><ele>225.0</ele><time>2026-04-11T02:26:01.999Z</time></trkpt><trkpt lat="43.172933705948026" lon="11.483995661758774"><ele>225.0</ele><time>2026-04-11T02:26:05.999Z</time></trkpt><trkpt lat="43.17300742109285" lon="11.484029571808382"><ele>225.0</ele><time>2026-04-11T02:26:09.999Z</time></trkpt><trkpt lat="43.17307464313195" lon="11.484044663938851"><ele>225.0</ele><time>2026-04-11T02:26:12.999Z</time></trkpt><trkpt lat="43.1731449224018" lon="11.484079622757543"><ele>225.0</ele><time>2026-04-11T02:26:15.999Z</time></trkpt><trkpt lat="43.17321480633046" lon="11.484099549940364"><ele>225.0</ele><time>2026-04-11T02:26:18.999Z</time></trkpt><trkpt lat="43.173284375733914" lon="11.484123775071199"><ele>225.66666666666666</ele><time>2026-04-11T02:26:21.999Z</time></trkpt><trkpt lat="43.17334841290938" lon="11.484146220553137"><ele>226.33333333333331</ele><time>2026-04-11T02:26:24.999Z</time></trkpt><trkpt lat="43.17341871141525" lon="11.484157048293941"><ele>227.0</ele><time>2026-04-11T02:26:29.999Z</time></trkpt><trkpt lat="43.17349629038788" lon="11.48417495681087"><ele>227.66666666666666</ele><time>2026-04-11T02:26:33.999Z</time></trkpt><trkpt lat="43.17356727621146" lon="11.484198819396616"><ele>228.33333333333331</ele><time>2026-04-11T02:26:36.999Z</time></trkpt><trkpt lat="43.17364214211835" lon="11.48421075446998"><ele>229.0</ele><time>2026-04-11T02:26:39.999Z</time></trkpt><trkpt lat="43.173727451128954" lon="11.484246393670617"><ele>228.99999999999997</ele><time>2026-04-11T02:26:42.999Z</time></trkpt><trkpt lat="43.17384309681899" lon="11.484287889567977"><ele>229.0</ele><time>2026-04-11T02:26:46.999Z</time></trkpt><trkpt lat="43.17390829142066" lon="11.48430703302847"><ele>229.0</ele><time>2026-04-11T02:26:49Z</time></trkpt><trkpt lat="43.17396924094496" lon="11.484331503491871"><ele>229.0</ele><time>2026-04-11T02:26:51Z</time></trkpt><trkpt lat="43.17403192659091" lon="11.484349279105379"><ele>228.99999999999997</ele><time>2026-04-11T02:26:53Z</time></trkpt><trkpt lat="43.174130389482976" lon="11.484368740101726"><ele>229.0</ele><time>2026-04-11T02:26:56Z</time></trkpt><trkpt lat="43.174196027525014" lon="11.48438997695029"><ele>229.0</ele><time>2026-04-11T02:26:58Z</time></trkpt><trkpt lat="43.17429050136953" lon="11.484416877840163"><ele>228.99999999999997</ele><time>2026-04-11T02:27:01Z</time></trkpt><trkpt lat="43.17438707164878" lon="11.484431051045108"><ele>228.99999999999997</ele><time>2026-04-11T02:27:04Z</time></trkpt><trkpt lat="43.17446386816033" lon="11.484465214697057"><ele>229.0</ele><time>2026-04-11T02:27:07Z</time></trkpt><trkpt lat="43.17454684733373" lon="11.484506686387292"><ele>229.0</ele><time>2026-04-11T02:27:09Z</time></trkpt><trkpt lat="43.17463203001988" lon="11.484539394647364"><ele>228.99999999999997</ele><time>2026-04-11T02:27:11Z</time></trkpt><trkpt lat="43.17471727908407" lon="11.484605490018746"><ele>229.0</ele><time>2026-04-11T02:27:13Z</time></trkpt><trkpt lat="43.174791059506134" lon="11.484684041001683"><ele>229.0</ele><time>2026-04-11T02:27:15Z</time></trkpt><trkpt lat="43.17486277804694" lon="11.484729961909332"><ele>229.0</ele><time>2026-04-11T02:27:17Z</time></trkpt><trkpt lat="43.17494034089095" lon="11.484779624841252"><ele>228.99999999999997</ele><time>2026-04-11T02:27:19Z</time></trkpt><trkpt lat="43.175018785528366" lon="11.484829852364866"><ele>229.0</ele><time>2026-04-11T02:27:21Z</time></trkpt><trkpt lat="43.17509483750152" lon="11.484878548016278"><ele>229.0</ele><time>2026-04-11T02:27:23Z</time></trkpt><trkpt lat="43.17516027727968" lon="11.48492044861915"><ele>228.99999999999997</ele><time>2026-04-11T02:27:25Z</time></trkpt><trkpt lat="43.17522769086373" lon="11.484962165441"><ele>228.99999999999997</ele><time>2026-04-11T02:27:27Z</time></trkpt><trkpt lat="43.17529263436848" lon="11.48500200502995"><ele>229.0</ele><time>2026-04-11T02:27:29Z</time></trkpt><trkpt lat="43.17535910243675" lon="11.485050219337689"><ele>229.0</ele><time>2026-04-11T02:27:31Z</time></trkpt><trkpt lat="43.17550816307861" lon="11.484922501560781"><ele>229.0</ele><time>2026-04-11T02:27:35Z</time></trkpt><trkpt lat="43.175563991524164" lon="11.484816704726978"><ele>228.99999999999997</ele><time>2026-04-11T02:27:37Z</time></trkpt><trkpt lat="43.17562958296733" lon="11.484688201794464"><ele>228.99999999999997</ele><time>2026-04-11T02:27:39Z</time></trkpt><trkpt lat="43.1756658795135" lon="11.484614878885015"><ele>229.0</ele><time>2026-04-11T02:27:40Z</time></trkpt><trkpt lat="43.17573522623601" lon="11.484469042368547"><ele>229.0</ele><time>2026-04-11T02:27:42Z</time></trkpt><trkpt lat="43.17575707493321" lon="11.484379107060729"><ele>228.99999999999997</ele><time>2026-04-11T02:27:43Z</time></trkpt><trkpt lat="43.17581803878762" lon="11.48423613490249"><ele>229.0</ele><time>2026-04-11T02:27:45Z</time></trkpt><trkpt lat="43.17582465013991" lon="11.48414365642302"><ele>229.0</ele><time>2026-04-11T02:27:46Z</time></trkpt><trkpt lat="43.17583268510618" lon="11.48403905328805"><ele>229.0</ele><time>2026-04-11T02:27:47Z</time></trkpt><trkpt lat="43.17583204310956" lon="11.483942263888657"><ele>228.99999999999997</ele><time>2026-04-11T02:27:48Z</time></trkpt><trkpt lat="43.175817029019676" lon="11.483830375669095"><ele>229.0</ele><time>2026-04-11T02:27:49Z</time></trkpt><trkpt lat="43.17580481587684" lon="11.483707128228904"><ele>227.66666666666666</ele><time>2026-04-11T02:27:50Z</time></trkpt><trkpt lat="43.17580546744311" lon="11.483571721580338"><ele>226.33333333333331</ele><time>2026-04-11T02:27:51Z</time></trkpt><trkpt lat="43.17578744811551" lon="11.483443631869392"><ele>225.0</ele><time>2026-04-11T02:27:52Z</time></trkpt><trkpt lat="43.17577900624269" lon="11.483318516399725"><ele>223.66666666666669</ele><time>2026-04-11T02:27:53Z</time></trkpt><trkpt lat="43.175777958272796" lon="11.483212667849525"><ele>222.33333333333334</ele><time>2026-04-11T02:27:54Z</time></trkpt><trkpt lat="43.17577195569725" lon="11.483114665176243"><ele>221.0</ele><time>2026-04-11T02:27:54.999Z</time></trkpt><trkpt lat="43.175753660004496" lon="11.482954025457966"><ele>220.16666666666669</ele><time>2026-04-11T02:27:56.999Z</time></trkpt><trkpt lat="43.17573639915498" lon="11.482812946840882"><ele>219.33333333333334</ele><time>2026-04-11T02:27:58.999Z</time></trkpt><trkpt lat="43.17568122670193" lon="11.482720022173218"><ele>218.5</ele><time>2026-04-11T02:28:00.999Z</time></trkpt><trkpt lat="43.175627765750654" lon="11.482610229492263"><ele>217.66666666666669</ele><time>2026-04-11T02:28:02.999Z</time></trkpt><trkpt lat="43.1756269939945" lon="11.482517212840536"><ele>216.83333333333334</ele><time>2026-04-11T02:28:03.999Z</time></trkpt><trkpt lat="43.17563163261104" lon="11.482412335214573"><ele>216.0</ele><time>2026-04-11T02:28:04.999Z</time></trkpt><trkpt lat="43.17564139136879" lon="11.482302906286188"><ele>214.5</ele><time>2026-04-11T02:28:05.999Z</time></trkpt><trkpt lat="43.1756627611307" lon="11.482198658913024"><ele>213.0</ele><time>2026-04-11T02:28:06.999Z</time></trkpt><trkpt lat="43.17568162684892" lon="11.482094147322687"><ele>211.5</ele><time>2026-04-11T02:28:07.999Z</time></trkpt><trkpt lat="43.17569955937867" lon="11.481997614965824"><ele>210.0</ele><time>2026-04-11T02:28:08.999Z</time></trkpt><trkpt lat="43.17572030044149" lon="11.481915518033507"><ele>208.5</ele><time>2026-04-11T02:28:09.999Z</time></trkpt><trkpt lat="43.1757448192587" lon="11.481834093009455"><ele>207.0</ele><time>2026-04-11T02:28:10.999Z</time></trkpt><trkpt lat="43.175810035622156" lon="11.481697208234598"><ele>207.0</ele><time>2026-04-11T02:28:12.999Z</time></trkpt><trkpt lat="43.1759042427535" lon="11.481616598059952"><ele>207.0</ele><time>2026-04-11T02:28:14.999Z</time></trkpt><trkpt lat="43.17599940682467" lon="11.481508541951639"><ele>207.0</ele><time>2026-04-11T02:28:16.999Z</time></trkpt><trkpt lat="43.176071494346935" lon="11.481364326290802"><ele>207.0</ele><time>2026-04-11T02:28:18.999Z</time></trkpt><trkpt lat="43.17610219952181" lon="11.481269435725437"><ele>207.0</ele><time>2026-04-11T02:28:19.999Z</time></trkpt><trkpt lat="43.17612542335103" lon="11.481152866502867"><ele>205.5</ele><time>2026-04-11T02:28:20.999Z</time></trkpt><trkpt lat="43.17613973430632" lon="11.481035130267285"><ele>204.0</ele><time>2026-04-11T02:28:21.999Z</time></trkpt><trkpt lat="43.1761552241064" lon="11.480906280321118"><ele>202.5</ele><time>2026-04-11T02:28:22.999Z</time></trkpt><trkpt lat="43.17616897916631" lon="11.480785239359221"><ele>201.0</ele><time>2026-04-11T02:28:23.999Z</time></trkpt><trkpt lat="43.17617737127289" lon="11.480678487033408"><ele>199.5</ele><time>2026-04-11T02:28:24.999Z</time></trkpt><trkpt lat="43.17618895547871" lon="11.480567424562244"><ele>198.0</ele><time>2026-04-11T02:28:25.999Z</time></trkpt><trkpt lat="43.17619990900911" lon="11.480475294122886"><ele>197.0</ele><time>2026-04-11T02:28:26.999Z</time></trkpt><trkpt lat="43.1762075183389" lon="11.480386668088427"><ele>196.0</ele><time>2026-04-11T02:28:27.999Z</time></trkpt><trkpt lat="43.17623359613952" lon="11.480241402935777"><ele>195.0</ele><time>2026-04-11T02:28:29.999Z</time></trkpt><trkpt lat="43.17631262087026" lon="11.480112266743882"><ele>194.0</ele><time>2026-04-11T02:28:31.999Z</time></trkpt><trkpt lat="43.17636876949521" lon="11.480058659002001"><ele>193.0</ele><time>2026-04-11T02:28:32.999Z</time></trkpt><trkpt lat="43.1764297908196" lon="11.479972401099324"><ele>193.00000000000003</ele><time>2026-04-11T02:28:33.999Z</time></trkpt><trkpt lat="43.176489151339645" lon="11.47989224923932"><ele>193.0</ele><time>2026-04-11T02:28:34.999Z</time></trkpt><trkpt lat="43.17654051200453" lon="11.479823868398404"><ele>193.0</ele><time>2026-04-11T02:28:35.999Z</time></trkpt><trkpt lat="43.1765974926171" lon="11.47975069379055"><ele>193.0</ele><time>2026-04-11T02:28:36.999Z</time></trkpt><trkpt lat="43.1766381739074" lon="11.47967571919914"><ele>193.0</ele><time>2026-04-11T02:28:37.999Z</time></trkpt><trkpt lat="43.176672183039095" lon="11.47959210402735"><ele>193.00000000000003</ele><time>2026-04-11T02:28:38.999Z</time></trkpt><trkpt lat="43.17670277154689" lon="11.47950066298911"><ele>193.0</ele><time>2026-04-11T02:28:39.999Z</time></trkpt><trkpt lat="43.17672241383211" lon="11.479405058203803"><ele>192.14285714285717</ele><time>2026-04-11T02:28:40.999Z</time></trkpt><trkpt lat="43.176731716489876" lon="11.479314060028218"><ele>191.28571428571428</ele><time>2026-04-11T02:28:41.999Z</time></trkpt><trkpt lat="43.17673026563707" lon="11.479227674335597"><ele>190.42857142857144</ele><time>2026-04-11T02:28:42.999Z</time></trkpt><trkpt lat="43.176733276702926" lon="11.479134133508584"><ele>189.57142857142858</ele><time>2026-04-11T02:28:43.999Z</time></trkpt><trkpt lat="43.17672416089978" lon="11.479044212887421"><ele>188.71428571428572</ele><time>2026-04-11T02:28:44.999Z</time></trkpt><trkpt lat="43.176716358921105" lon="11.47894899069714"><ele>187.85714285714286</ele><time>2026-04-11T02:28:45.999Z</time></trkpt><trkpt lat="43.176699614488975" lon="11.478847642251282"><ele>187.0</ele><time>2026-04-11T02:28:46.999Z</time></trkpt><trkpt lat="43.17669513834498" lon="11.478748763047415"><ele>185.66666666666669</ele><time>2026-04-11T02:28:47.999Z</time></trkpt><trkpt lat="43.17669196325546" lon="11.478654464666151"><ele>184.33333333333334</ele><time>2026-04-11T02:28:48.999Z</time></trkpt><trkpt lat="43.17667896933671" lon="11.478546844025969"><ele>183.0</ele><time>2026-04-11T02:28:49.999Z</time></trkpt><trkpt lat="43.17667509074014" lon="11.478438224475944"><ele>181.66666666666666</ele><time>2026-04-11T02:28:50.999Z</time></trkpt><trkpt lat="43.17668312303308" lon="11.478321646969412"><ele>180.33333333333331</ele><time>2026-04-11T02:28:51.999Z</time></trkpt><trkpt lat="43.176694416793325" lon="11.4782078397532"><ele>179.0</ele><time>2026-04-11T02:28:52.999Z</time></trkpt><trkpt lat="43.17671340882985" lon="11.47809775334775"><ele>179.0</ele><time>2026-04-11T02:28:54Z</time></trkpt><trkpt lat="43.17672230151112" lon="11.47799788548058"><ele>179.0</ele><time>2026-04-11T02:28:55Z</time></trkpt><trkpt lat="43.17674125766758" lon="11.477906218119529"><ele>179.0</ele><time>2026-04-11T02:28:56Z</time></trkpt><trkpt lat="43.17676624094725" lon="11.477817152017316"><ele>179.0</ele><time>2026-04-11T02:28:57Z</time></trkpt><trkpt lat="43.17681216770327" lon="11.477667349247897"><ele>179.0</ele><time>2026-04-11T02:28:59Z</time></trkpt><trkpt lat="43.176894180703705" lon="11.47757932083769"><ele>179.0</ele><time>2026-04-11T02:29:01Z</time></trkpt><trkpt lat="43.17702219260561" lon="11.477536145510623"><ele>177.33333333333331</ele><time>2026-04-11T02:29:03Z</time></trkpt><trkpt lat="43.17710089789079" lon="11.477517512980766"><ele>175.66666666666666</ele><time>2026-04-11T02:29:04Z</time></trkpt><trkpt lat="43.17718151973593" lon="11.477487871965065"><ele>174.0</ele><time>2026-04-11T02:29:05Z</time></trkpt><trkpt lat="43.1772750579052" lon="11.477468207907442"><ele>172.33333333333334</ele><time>2026-04-11T02:29:06Z</time></trkpt><trkpt lat="43.17736164465781" lon="11.477447014920259"><ele>170.66666666666669</ele><time>2026-04-11T02:29:07Z</time></trkpt><trkpt lat="43.177455362850736" lon="11.477436838916347"><ele>169.0</ele><time>2026-04-11T02:29:08Z</time></trkpt><trkpt lat="43.17755402125803" lon="11.477417821115587"><ele>167.39999999999998</ele><time>2026-04-11T02:29:09Z</time></trkpt><trkpt lat="43.177652731911074" lon="11.477406412651908"><ele>165.8</ele><time>2026-04-11T02:29:10Z</time></trkpt><trkpt lat="43.17775131949574" lon="11.477392606153558"><ele>164.2</ele><time>2026-04-11T02:29:11Z</time></trkpt><trkpt lat="43.17785138465198" lon="11.47737562523802"><ele>162.60000000000002</ele><time>2026-04-11T02:29:12Z</time></trkpt><trkpt lat="43.17795626874063" lon="11.477367997118202"><ele>161.0</ele><time>2026-04-11T02:29:13Z</time></trkpt><trkpt lat="43.178050562685044" lon="11.477351073293041"><ele>161.0</ele><time>2026-04-11T02:29:14Z</time></trkpt><trkpt lat="43.17815194366969" lon="11.477331467484447"><ele>161.0</ele><time>2026-04-11T02:29:15Z</time></trkpt><trkpt lat="43.178247295771115" lon="11.477323630075082"><ele>161.0</ele><time>2026-04-11T02:29:16Z</time></trkpt><trkpt lat="43.178340400760504" lon="11.477307463774823"><ele>161.0</ele><time>2026-04-11T02:29:17Z</time></trkpt><trkpt lat="43.178431983704165" lon="11.47729064682244"><ele>161.0</ele><time>2026-04-11T02:29:18Z</time></trkpt><trkpt lat="43.17852533135586" lon="11.477262580736973"><ele>160.33333333333331</ele><time>2026-04-11T02:29:19Z</time></trkpt><trkpt lat="43.17861863711422" lon="11.477238155562175"><ele>159.66666666666666</ele><time>2026-04-11T02:29:20Z</time></trkpt><trkpt lat="43.178703010192045" lon="11.47721368719146"><ele>159.0</ele><time>2026-04-11T02:29:21Z</time></trkpt><trkpt lat="43.178785062382715" lon="11.477185020218705"><ele>158.33333333333334</ele><time>2026-04-11T02:29:22Z</time></trkpt><trkpt lat="43.178867700061545" lon="11.477160190000703"><ele>157.66666666666669</ele><time>2026-04-11T02:29:23Z</time></trkpt><trkpt lat="43.17894625591287" lon="11.47714015892338"><ele>157.0</ele><time>2026-04-11T02:29:24Z</time></trkpt><trkpt lat="43.17902715380352" lon="11.477125150372327"><ele>156.66666666666669</ele><time>2026-04-11T02:29:25Z</time></trkpt><trkpt lat="43.179113678262794" lon="11.477103586982246"><ele>156.33333333333334</ele><time>2026-04-11T02:29:26Z</time></trkpt><trkpt lat="43.17918688359453" lon="11.477085439335017"><ele>156.0</ele><time>2026-04-11T02:29:27Z</time></trkpt><trkpt lat="43.179261806336726" lon="11.477073160334381"><ele>155.66666666666666</ele><time>2026-04-11T02:29:28Z</time></trkpt><trkpt lat="43.17933870047431" lon="11.477093301440032"><ele>155.33333333333331</ele><time>2026-04-11T02:29:29Z</time></trkpt><trkpt lat="43.179414225415655" lon="11.477079654237176"><ele>155.0</ele><time>2026-04-11T02:29:30Z</time></trkpt><trkpt lat="43.17948682669707" lon="11.477096656010216"><ele>155.0</ele><time>2026-04-11T02:29:31Z</time></trkpt><trkpt lat="43.17959267420278" lon="11.477124926343631"><ele>155.0</ele><time>2026-04-11T02:29:33Z</time></trkpt><trkpt lat="43.1797089950665" lon="11.47715884149739"><ele>155.0</ele><time>2026-04-11T02:29:35Z</time></trkpt><trkpt lat="43.179811532496096" lon="11.477187673401264"><ele>155.0</ele><time>2026-04-11T02:29:37Z</time></trkpt><trkpt lat="43.17991902465192" lon="11.477217611943471"><ele>155.0</ele><time>2026-04-11T02:29:39Z</time></trkpt><trkpt lat="43.18002484029803" lon="11.477247597981762"><ele>155.0</ele><time>2026-04-11T02:29:41Z</time></trkpt><trkpt lat="43.180123823494675" lon="11.477277587480966"><ele>155.0</ele><time>2026-04-11T02:29:43Z</time></trkpt><trkpt lat="43.1802269397886" lon="11.477303775310503"><ele>155.0</ele><time>2026-04-11T02:29:45Z</time></trkpt><trkpt lat="43.18033406476516" lon="11.477332015038026"><ele>155.0</ele><time>2026-04-11T02:29:47Z</time></trkpt><trkpt lat="43.180435801845654" lon="11.477361655309776"><ele>155.0</ele><time>2026-04-11T02:29:49Z</time></trkpt><trkpt lat="43.18054113472604" lon="11.47737530941382"><ele>155.0</ele><time>2026-04-11T02:29:51Z</time></trkpt><trkpt lat="43.18064331812895" lon="11.477395020890498"><ele>155.0</ele><time>2026-04-11T02:29:53Z</time></trkpt><trkpt lat="43.180710069080405" lon="11.477417542006418"><ele>155.0</ele><time>2026-04-11T02:29:54Z</time></trkpt><trkpt lat="43.18081728281749" lon="11.477431056043924"><ele>155.0</ele><time>2026-04-11T02:29:56Z</time></trkpt><trkpt lat="43.18092332362516" lon="11.477451204865776"><ele>155.0</ele><time>2026-04-11T02:29:58Z</time></trkpt><trkpt lat="43.18102209632902" lon="11.477472573474135"><ele>155.2</ele><time>2026-04-11T02:30:00Z</time></trkpt><trkpt lat="43.1811241661725" lon="11.477514314484013"><ele>155.4</ele><time>2026-04-11T02:30:01.999Z</time></trkpt><trkpt lat="43.181228739241746" lon="11.477540970246391"><ele>155.6</ele><time>2026-04-11T02:30:03.999Z</time></trkpt><trkpt lat="43.1813405485183" lon="11.477570955461273"><ele>155.8</ele><time>2026-04-11T02:30:05.999Z</time></trkpt><trkpt lat="43.181447652302936" lon="11.477601215284722"><ele>156.0</ele><time>2026-04-11T02:30:07.999Z</time></trkpt><trkpt lat="43.18155595231532" lon="11.477633036940489"><ele>156.0</ele><time>2026-04-11T02:30:09.999Z</time></trkpt><trkpt lat="43.18166191015178" lon="11.47766439029241"><ele>156.0</ele><time>2026-04-11T02:30:11.999Z</time></trkpt><trkpt lat="43.18177012799022" lon="11.477696412273838"><ele>156.0</ele><time>2026-04-11T02:30:13.999Z</time></trkpt><trkpt lat="43.18187979949215" lon="11.477730093255216"><ele>156.0</ele><time>2026-04-11T02:30:15.999Z</time></trkpt><trkpt lat="43.181993133134526" lon="11.477765725479555"><ele>156.0</ele><time>2026-04-11T02:30:17.999Z</time></trkpt><trkpt lat="43.182103816868036" lon="11.477784264197746"><ele>156.0</ele><time>2026-04-11T02:30:19.999Z</time></trkpt><trkpt lat="43.182208440197066" lon="11.477826395146332"><ele>156.0</ele><time>2026-04-11T02:30:21.999Z</time></trkpt><trkpt lat="43.182314303733705" lon="11.477835937003912"><ele>156.0</ele><time>2026-04-11T02:30:23.999Z</time></trkpt><trkpt lat="43.18242558486265" lon="11.47781155280791"><ele>156.0</ele><time>2026-04-11T02:30:25.999Z</time></trkpt><trkpt lat="43.18248493541929" lon="11.47777463530991"><ele>156.0</ele><time>2026-04-11T02:30:26.999Z</time></trkpt><trkpt lat="43.18254484007232" lon="11.477720192405474"><ele>155.8</ele><time>2026-04-11T02:30:27.999Z</time></trkpt><trkpt lat="43.18259979521168" lon="11.477676400090969"><ele>155.6</ele><time>2026-04-11T02:30:28.999Z</time></trkpt><trkpt lat="43.18270795724551" lon="11.477579950523614"><ele>155.4</ele><time>2026-04-11T02:30:30.999Z</time></trkpt><trkpt lat="43.18281432164848" lon="11.477479070677255"><ele>155.2</ele><time>2026-04-11T02:30:32.999Z</time></trkpt><trkpt lat="43.18288055428233" lon="11.47744884877553"><ele>155.0</ele><time>2026-04-11T02:30:33.999Z</time></trkpt><trkpt lat="43.18293481023961" lon="11.477402334244205"><ele>155.0</ele><time>2026-04-11T02:30:34.999Z</time></trkpt><trkpt lat="43.18303222611591" lon="11.477292845006843"><ele>155.0</ele><time>2026-04-11T02:30:36.999Z</time></trkpt><trkpt lat="43.18309210724058" lon="11.47724880545638"><ele>155.0</ele><time>2026-04-11T02:30:37.999Z</time></trkpt><trkpt lat="43.18320168578663" lon="11.47715488922174"><ele>155.0</ele><time>2026-04-11T02:30:39.999Z</time></trkpt><trkpt lat="43.1833088328252" lon="11.477092359498403"><ele>155.0</ele><time>2026-04-11T02:30:41.999Z</time></trkpt><trkpt lat="43.183411614562424" lon="11.476991045987189"><ele>154.6</ele><time>2026-04-11T02:30:43.999Z</time></trkpt><trkpt lat="43.18352345043019" lon="11.476919244765101"><ele>154.2</ele><time>2026-04-11T02:30:45.999Z</time></trkpt><trkpt lat="43.18358006551036" lon="11.476878086052878"><ele>153.8</ele><time>2026-04-11T02:30:46.999Z</time></trkpt><trkpt lat="43.18368547656871" lon="11.476785509602728"><ele>153.4</ele><time>2026-04-11T02:30:48.999Z</time></trkpt><trkpt lat="43.18379071654288" lon="11.47669972613904"><ele>153.0</ele><time>2026-04-11T02:30:50.999Z</time></trkpt><trkpt lat="43.18389598313685" lon="11.476617012592557"><ele>153.0</ele><time>2026-04-11T02:30:52.999Z</time></trkpt><trkpt lat="43.184008188935664" lon="11.476537987306617"><ele>153.0</ele><time>2026-04-11T02:30:54.999Z</time></trkpt><trkpt lat="43.1841103515296" lon="11.476456239351707"><ele>153.0</ele><time>2026-04-11T02:30:56.999Z</time></trkpt><trkpt lat="43.184165427299575" lon="11.476408837174544"><ele>153.0</ele><time>2026-04-11T02:30:57.999Z</time></trkpt><trkpt lat="43.18428240918563" lon="11.476304777015313"><ele>153.0</ele><time>2026-04-11T02:31:00Z</time></trkpt><trkpt lat="43.18437148246218" lon="11.476234955944333"><ele>153.20000000000002</ele><time>2026-04-11T02:31:02Z</time></trkpt><trkpt lat="43.184463734082755" lon="11.476165658573203"><ele>153.4</ele><time>2026-04-11T02:31:04Z</time></trkpt><trkpt lat="43.18456165379093" lon="11.476063281128374"><ele>153.60000000000002</ele><time>2026-04-11T02:31:06Z</time></trkpt><trkpt lat="43.18465988987271" lon="11.475996825294741"><ele>153.8</ele><time>2026-04-11T02:31:08Z</time></trkpt><trkpt lat="43.18475087040854" lon="11.475933731703535"><ele>154.0</ele><time>2026-04-11T02:31:10Z</time></trkpt><trkpt lat="43.1848385343736" lon="11.475852871438288"><ele>154.2</ele><time>2026-04-11T02:31:12Z</time></trkpt><trkpt lat="43.1849300849712" lon="11.47577265691004"><ele>154.4</ele><time>2026-04-11T02:31:14Z</time></trkpt><trkpt lat="43.18502563738656" lon="11.475698004037898"><ele>154.6</ele><time>2026-04-11T02:31:16Z</time></trkpt><trkpt lat="43.185114671287316" lon="11.475619022976636"><ele>154.8</ele><time>2026-04-11T02:31:18Z</time></trkpt><trkpt lat="43.18519779666036" lon="11.475543865780676"><ele>155.0</ele><time>2026-04-11T02:31:20Z</time></trkpt><trkpt lat="43.18528111102795" lon="11.475471746691955"><ele>154.8</ele><time>2026-04-11T02:31:22Z</time></trkpt><trkpt lat="43.18537802479302" lon="11.475400729280398"><ele>154.6</ele><time>2026-04-11T02:31:24Z</time></trkpt><trkpt lat="43.18546151484935" lon="11.475312908355704"><ele>154.4</ele><time>2026-04-11T02:31:26Z</time></trkpt><trkpt lat="43.18555312408817" lon="11.475231836025477"><ele>154.2</ele><time>2026-04-11T02:31:28Z</time></trkpt><trkpt lat="43.185654729952425" lon="11.475170479707895"><ele>154.0</ele><time>2026-04-11T02:31:30Z</time></trkpt><trkpt lat="43.18574837058793" lon="11.475087674135432"><ele>154.0</ele><time>2026-04-11T02:31:32Z</time></trkpt><trkpt lat="43.185842392803565" lon="11.47502033123491"><ele>154.0</ele><time>2026-04-11T02:31:34Z</time></trkpt><trkpt lat="43.18593608440967" lon="11.474936384179985"><ele>154.0</ele><time>2026-04-11T02:31:36Z</time></trkpt><trkpt lat="43.18603368450103" lon="11.474879270682042"><ele>154.0</ele><time>2026-04-11T02:31:38Z</time></trkpt><trkpt lat="43.18613937291493" lon="11.474862059130801"><ele>154.0</ele><time>2026-04-11T02:31:40Z</time></trkpt><trkpt lat="43.1862329301404" lon="11.474852834730916"><ele>154.0</ele><time>2026-04-11T02:31:42Z</time></trkpt><trkpt lat="43.186335349660744" lon="11.474850156359295"><ele>154.0</ele><time>2026-04-11T02:31:44Z</time></trkpt><trkpt lat="43.186435836111286" lon="11.474849580520855"><ele>154.0</ele><time>2026-04-11T02:31:46Z</time></trkpt><trkpt lat="43.18655144921549" lon="11.474848856356068"><ele>154.0</ele><time>2026-04-11T02:31:48Z</time></trkpt><trkpt lat="43.18665500284913" lon="11.474840178481834"><ele>154.0</ele><time>2026-04-11T02:31:50Z</time></trkpt><trkpt lat="43.18676540837675" lon="11.474822344693816"><ele>154.2</ele><time>2026-04-11T02:31:52Z</time></trkpt><trkpt lat="43.18686941065921" lon="11.474790938720444"><ele>154.4</ele><time>2026-04-11T02:31:54Z</time></trkpt><trkpt lat="43.186965422849134" lon="11.47479006881735"><ele>154.6</ele><time>2026-04-11T02:31:56Z</time></trkpt><trkpt lat="43.18706007158614" lon="11.4747621198458"><ele>154.8</ele><time>2026-04-11T02:31:58Z</time></trkpt><trkpt lat="43.18714710544617" lon="11.47476223271526"><ele>155.0</ele><time>2026-04-11T02:32:00Z</time></trkpt><trkpt lat="43.18723272347577" lon="11.474765808508673"><ele>155.0</ele><time>2026-04-11T02:32:02Z</time></trkpt><trkpt lat="43.187318891236494" lon="11.474800002978672"><ele>155.0</ele><time>2026-04-11T02:32:04Z</time></trkpt><trkpt lat="43.18739720081874" lon="11.474841630822242"><ele>155.0</ele><time>2026-04-11T02:32:06.999Z</time></trkpt><trkpt lat="43.1874642172664" lon="11.474895987122204"><ele>155.0</ele><time>2026-04-11T02:32:08.999Z</time></trkpt><trkpt lat="43.18752369356943" lon="11.474940367660563"><ele>155.0</ele><time>2026-04-11T02:32:10.999Z</time></trkpt><trkpt lat="43.18759889793616" lon="11.474965223701611"><ele>155.0</ele><time>2026-04-11T02:32:12.999Z</time></trkpt><trkpt lat="43.187674373661785" lon="11.47500312292185"><ele>155.66666666666666</ele><time>2026-04-11T02:32:14.999Z</time></trkpt><trkpt lat="43.187765830612804" lon="11.474997918323606"><ele>156.33333333333331</ele><time>2026-04-11T02:32:16.999Z</time></trkpt><trkpt lat="43.18784112578558" lon="11.474939799398369"><ele>157.0</ele><time>2026-04-11T02:32:18.999Z</time></trkpt><trkpt lat="43.187898035275886" lon="11.474856207470195"><ele>157.66666666666666</ele><time>2026-04-11T02:32:20.999Z</time></trkpt><trkpt lat="43.187921618121095" lon="11.474748631275864"><ele>158.33333333333334</ele><time>2026-04-11T02:32:22.999Z</time></trkpt><trkpt lat="43.18793785472642" lon="11.474646672606891"><ele>159.0</ele><time>2026-04-11T02:32:24.999Z</time></trkpt><trkpt lat="43.18797560637655" lon="11.474538113000852"><ele>159.0</ele><time>2026-04-11T02:32:26.999Z</time></trkpt><trkpt lat="43.18802353731055" lon="11.47442988397345"><ele>159.0</ele><time>2026-04-11T02:32:28.999Z</time></trkpt><trkpt lat="43.18807880835617" lon="11.47435207639138"><ele>159.0</ele><time>2026-04-11T02:32:30.999Z</time></trkpt><trkpt lat="43.18814473015264" lon="11.474284823980163"><ele>159.0</ele><time>2026-04-11T02:32:32.999Z</time></trkpt><trkpt lat="43.18820828273056" lon="11.47424312920236"><ele>159.0</ele><time>2026-04-11T02:32:34.999Z</time></trkpt><trkpt lat="43.18827227687826" lon="11.47420357568243"><ele>159.0</ele><time>2026-04-11T02:32:36.999Z</time></trkpt><trkpt lat="43.18832463057375" lon="11.474154353830436"><ele>160.0</ele><time>2026-04-11T02:32:38.999Z</time></trkpt><trkpt lat="43.18839092318362" lon="11.474075446121006"><ele>161.0</ele><time>2026-04-11T02:32:41.999Z</time></trkpt><trkpt lat="43.18844198168158" lon="11.474007672347597"><ele>162.0</ele><time>2026-04-11T02:32:44.999Z</time></trkpt><trkpt lat="43.18848170701959" lon="11.473931024303292"><ele>163.0</ele><time>2026-04-11T02:32:47.999Z</time></trkpt><trkpt lat="43.1885259883998" lon="11.473839047311735"><ele>164.0</ele><time>2026-04-11T02:32:50.999Z</time></trkpt><trkpt lat="43.18856704432673" lon="11.473743146697778"><ele>165.0</ele><time>2026-04-11T02:32:53.999Z</time></trkpt><trkpt lat="43.18859387941435" lon="11.473640594184463"><ele>165.0</ele><time>2026-04-11T02:32:56.999Z</time></trkpt><trkpt lat="43.18863008642979" lon="11.47354203573437"><ele>165.0</ele><time>2026-04-11T02:32:59.999Z</time></trkpt><trkpt lat="43.18866305503076" lon="11.473448757302444"><ele>165.0</ele><time>2026-04-11T02:33:02.999Z</time></trkpt><trkpt lat="43.1887002050215" lon="11.473347038011338"><ele>165.0</ele><time>2026-04-11T02:33:06Z</time></trkpt><trkpt lat="43.18873447453078" lon="11.473242277952288"><ele>165.0</ele><time>2026-04-11T02:33:09Z</time></trkpt><trkpt lat="43.18877360295223" lon="11.473131130542672"><ele>165.0</ele><time>2026-04-11T02:33:12Z</time></trkpt><trkpt lat="43.18880860621376" lon="11.473056447103518"><ele>165.0</ele><time>2026-04-11T02:33:14Z</time></trkpt><trkpt lat="43.188845544582996" lon="11.472965657580644"><ele>165.0</ele><time>2026-04-11T02:33:16Z</time></trkpt><trkpt lat="43.18889608369845" lon="11.472868300399638"><ele>165.0</ele><time>2026-04-11T02:33:18Z</time></trkpt><trkpt lat="43.18893392567356" lon="11.4727562831133"><ele>165.0</ele><time>2026-04-11T02:33:20Z</time></trkpt><trkpt lat="43.18896488551072" lon="11.472639173882463"><ele>165.0</ele><time>2026-04-11T02:33:22Z</time></trkpt><trkpt lat="43.188999250344104" lon="11.472519977949878"><ele>165.0</ele><time>2026-04-11T02:33:24Z</time></trkpt><trkpt lat="43.189028385875226" lon="11.472426872421375"><ele>165.4</ele><time>2026-04-11T02:33:26Z</time></trkpt><trkpt lat="43.18905484648654" lon="11.472306059426463"><ele>165.8</ele><time>2026-04-11T02:33:28Z</time></trkpt><trkpt lat="43.18907819991162" lon="11.472212875516254"><ele>166.2</ele><time>2026-04-11T02:33:30Z</time></trkpt><trkpt lat="43.189116757999834" lon="11.472075339225372"><ele>166.6</ele><time>2026-04-11T02:33:32Z</time></trkpt><trkpt lat="43.18915737330177" lon="11.471954638933225"><ele>167.0</ele><time>2026-04-11T02:33:34Z</time></trkpt><trkpt lat="43.189187865442534" lon="11.471834980185823"><ele>167.0</ele><time>2026-04-11T02:33:36Z</time></trkpt><trkpt lat="43.18923874099939" lon="11.471711985100066"><ele>167.0</ele><time>2026-04-11T02:33:38Z</time></trkpt><trkpt lat="43.189310726082304" lon="11.471593152176897"><ele>167.0</ele><time>2026-04-11T02:33:40Z</time></trkpt><trkpt lat="43.18939799196472" lon="11.47148271221924"><ele>167.0</ele><time>2026-04-11T02:33:42Z</time></trkpt><trkpt lat="43.189503305297" lon="11.471389733984132"><ele>167.0</ele><time>2026-04-11T02:33:44Z</time></trkpt><trkpt lat="43.18961084388889" lon="11.471301253412836"><ele>167.0</ele><time>2026-04-11T02:33:46Z</time></trkpt><trkpt lat="43.18966789832973" lon="11.471256065724184"><ele>167.0</ele><time>2026-04-11T02:33:47Z</time></trkpt><trkpt lat="43.18978521995556" lon="11.47119336018017"><ele>167.0</ele><time>2026-04-11T02:33:49Z</time></trkpt><trkpt lat="43.18989880097563" lon="11.471132421437204"><ele>167.0</ele><time>2026-04-11T02:33:51Z</time></trkpt><trkpt lat="43.190003703620526" lon="11.471063704295478"><ele>166.6</ele><time>2026-04-11T02:33:53Z</time></trkpt><trkpt lat="43.190109988376115" lon="11.47097867719878"><ele>166.2</ele><time>2026-04-11T02:33:55Z</time></trkpt><trkpt lat="43.190176578929524" lon="11.470945988569634"><ele>165.8</ele><time>2026-04-11T02:33:56Z</time></trkpt><trkpt lat="43.190267523465316" lon="11.470827613586147"><ele>165.4</ele><time>2026-04-11T02:33:58Z</time></trkpt><trkpt lat="43.19036017235232" lon="11.47073944772559"><ele>165.0</ele><time>2026-04-11T02:34:00Z</time></trkpt><trkpt lat="43.19044473222507" lon="11.47064202549696"><ele>165.0</ele><time>2026-04-11T02:34:02Z</time></trkpt><trkpt lat="43.19052345254458" lon="11.470540839332706"><ele>165.0</ele><time>2026-04-11T02:34:04Z</time></trkpt><trkpt lat="43.19060044538807" lon="11.47044776727401"><ele>165.0</ele><time>2026-04-11T02:34:06Z</time></trkpt><trkpt lat="43.190693676960535" lon="11.470336654490696"><ele>165.0</ele><time>2026-04-11T02:34:08Z</time></trkpt><trkpt lat="43.190739521411" lon="11.47027598855123"><ele>165.0</ele><time>2026-04-11T02:34:09Z</time></trkpt><trkpt lat="43.19078053543538" lon="11.470206914962153"><ele>164.57142857142858</ele><time>2026-04-11T02:34:10Z</time></trkpt><trkpt lat="43.190822791126585" lon="11.47013542343791"><ele>164.14285714285714</ele><time>2026-04-11T02:34:11Z</time></trkpt><trkpt lat="43.19085959401318" lon="11.470057286327433"><ele>163.71428571428572</ele><time>2026-04-11T02:34:12Z</time></trkpt><trkpt lat="43.19090075932776" lon="11.469973117663825"><ele>163.28571428571428</ele><time>2026-04-11T02:34:13Z</time></trkpt><trkpt lat="43.19093702927888" lon="11.469889732638382"><ele>162.85714285714286</ele><time>2026-04-11T02:34:14Z</time></trkpt><trkpt lat="43.190976097625516" lon="11.469806427806702"><ele>162.42857142857144</ele><time>2026-04-11T02:34:14.999Z</time></trkpt><trkpt lat="43.1910140595161" lon="11.469723963787711"><ele>162.0</ele><time>2026-04-11T02:34:15.999Z</time></trkpt><trkpt lat="43.19104309934971" lon="11.469635717174688"><ele>161.28571428571428</ele><time>2026-04-11T02:34:16.999Z</time></trkpt><trkpt lat="43.19107780377719" lon="11.469544999325919"><ele>160.57142857142856</ele><time>2026-04-11T02:34:17.999Z</time></trkpt><trkpt lat="43.19111159011526" lon="11.469454562092022"><ele>159.85714285714283</ele><time>2026-04-11T02:34:18.999Z</time></trkpt><trkpt lat="43.19114427615103" lon="11.46936119369076"><ele>159.14285714285714</ele><time>2026-04-11T02:34:19.999Z</time></trkpt><trkpt lat="43.191185166186436" lon="11.469274900175325"><ele>158.42857142857142</ele><time>2026-04-11T02:34:20.999Z</time></trkpt><trkpt lat="43.19122234636807" lon="11.469193945826177"><ele>157.7142857142857</ele><time>2026-04-11T02:34:21.999Z</time></trkpt><trkpt lat="43.19127175207146" lon="11.469112260716818"><ele>157.0</ele><time>2026-04-11T02:34:22.999Z</time></trkpt><trkpt lat="43.19132393948348" lon="11.469044155208667"><ele>157.0</ele><time>2026-04-11T02:34:23.999Z</time></trkpt><trkpt lat="43.191375404728504" lon="11.468977573869884"><ele>157.0</ele><time>2026-04-11T02:34:24.999Z</time></trkpt><trkpt lat="43.19143136751765" lon="11.468916098483827"><ele>157.0</ele><time>2026-04-11T02:34:25.999Z</time></trkpt><trkpt lat="43.19148605286784" lon="11.468863316117627"><ele>157.0</ele><time>2026-04-11T02:34:26.999Z</time></trkpt><trkpt lat="43.19153916218037" lon="11.468803472588334"><ele>157.0</ele><time>2026-04-11T02:34:27.999Z</time></trkpt><trkpt lat="43.19163756293084" lon="11.468713555448899"><ele>157.0</ele><time>2026-04-11T02:34:29.999Z</time></trkpt><trkpt lat="43.19169662534601" lon="11.468678223836294"><ele>157.4</ele><time>2026-04-11T02:34:30.999Z</time></trkpt><trkpt lat="43.19175078902007" lon="11.468628625876901"><ele>157.79999999999998</ele><time>2026-04-11T02:34:31.999Z</time></trkpt><trkpt lat="43.19183861033458" lon="11.4685319698434"><ele>158.2</ele><time>2026-04-11T02:34:33.999Z</time></trkpt><trkpt lat="43.19193017238954" lon="11.468450920357181"><ele>158.6</ele><time>2026-04-11T02:34:35.999Z</time></trkpt><trkpt lat="43.192032416074206" lon="11.468353485634694"><ele>159.0</ele><time>2026-04-11T02:34:37.999Z</time></trkpt><trkpt lat="43.1920912849681" lon="11.468304998797757"><ele>159.0</ele><time>2026-04-11T02:34:38.999Z</time></trkpt><trkpt lat="43.192147645500796" lon="11.468255298926755"><ele>159.0</ele><time>2026-04-11T02:34:39.999Z</time></trkpt><trkpt lat="43.19224201885196" lon="11.468154985439412"><ele>159.0</ele><time>2026-04-11T02:34:41.999Z</time></trkpt><trkpt lat="43.19229390957874" lon="11.468099891263453"><ele>159.0</ele><time>2026-04-11T02:34:42.999Z</time></trkpt><trkpt lat="43.19235160370326" lon="11.468047879252484"><ele>159.0</ele><time>2026-04-11T02:34:43.999Z</time></trkpt><trkpt lat="43.19245578564168" lon="11.467947801533416"><ele>159.0</ele><time>2026-04-11T02:34:45.999Z</time></trkpt><trkpt lat="43.19251002163042" lon="11.467891696410645"><ele>158.57142857142856</ele><time>2026-04-11T02:34:46.999Z</time></trkpt><trkpt lat="43.192564655865375" lon="11.467838443944725"><ele>158.14285714285717</ele><time>2026-04-11T02:34:47.999Z</time></trkpt><trkpt lat="43.192613740979326" lon="11.467783547804002"><ele>157.71428571428572</ele><time>2026-04-11T02:34:48.999Z</time></trkpt><trkpt lat="43.192662073787794" lon="11.46772635921551"><ele>157.28571428571428</ele><time>2026-04-11T02:34:49.999Z</time></trkpt><trkpt lat="43.192723135686755" lon="11.467678579169444"><ele>156.85714285714283</ele><time>2026-04-11T02:34:50.999Z</time></trkpt><trkpt lat="43.19277666819305" lon="11.467631727564418"><ele>156.42857142857144</ele><time>2026-04-11T02:34:51.999Z</time></trkpt><trkpt lat="43.192875973180435" lon="11.467542403472683"><ele>156.0</ele><time>2026-04-11T02:34:53.999Z</time></trkpt><trkpt lat="43.1929308766775" lon="11.467485607060388"><ele>156.0</ele><time>2026-04-11T02:34:54.999Z</time></trkpt><trkpt lat="43.192984153662536" lon="11.46743022859144"><ele>156.0</ele><time>2026-04-11T02:34:55.999Z</time></trkpt><trkpt lat="43.1930850695494" lon="11.467328349734153"><ele>156.0</ele><time>2026-04-11T02:34:57.999Z</time></trkpt><trkpt lat="43.19313388712505" lon="11.467273257001512"><ele>156.0</ele><time>2026-04-11T02:34:58.999Z</time></trkpt><trkpt lat="43.1931902885886" lon="11.467227999032636"><ele>156.0</ele><time>2026-04-11T02:34:59.999Z</time></trkpt><trkpt lat="43.19324564427099" lon="11.46717237761825"><ele>156.0</ele><time>2026-04-11T02:35:00.999Z</time></trkpt><trkpt lat="43.19334885054454" lon="11.46708221602337"><ele>156.0</ele><time>2026-04-11T02:35:02.999Z</time></trkpt><trkpt lat="43.19340210518289" lon="11.467023685966154"><ele>156.0</ele><time>2026-04-11T02:35:03.999Z</time></trkpt><trkpt lat="43.19350951592841" lon="11.466928190457871"><ele>156.0</ele><time>2026-04-11T02:35:05.999Z</time></trkpt><trkpt lat="43.19357465526243" lon="11.466869383193083"><ele>156.0</ele><time>2026-04-11T02:35:06.999Z</time></trkpt><trkpt lat="43.19363412741248" lon="11.466818442755459"><ele>156.0</ele><time>2026-04-11T02:35:07.999Z</time></trkpt><trkpt lat="43.19369820580413" lon="11.466755431466545"><ele>156.0</ele><time>2026-04-11T02:35:08.999Z</time></trkpt><trkpt lat="43.19375639191104" lon="11.466701811038378"><ele>156.0</ele><time>2026-04-11T02:35:09.999Z</time></trkpt><trkpt lat="43.19381753006959" lon="11.466653728920377"><ele>156.0</ele><time>2026-04-11T02:35:10.999Z</time></trkpt><trkpt lat="43.19388963940199" lon="11.466600685043465"><ele>156.0</ele><time>2026-04-11T02:35:12Z</time></trkpt><trkpt lat="43.193954563449076" lon="11.466546165036355"><ele>156.0</ele><time>2026-04-11T02:35:13Z</time></trkpt><trkpt lat="43.19400732516929" lon="11.466495539008278"><ele>156.0</ele><time>2026-04-11T02:35:14Z</time></trkpt><trkpt lat="43.194065024703924" lon="11.466435496531261"><ele>156.0</ele><time>2026-04-11T02:35:15Z</time></trkpt><trkpt lat="43.19416836173893" lon="11.46634070086656"><ele>156.16666666666666</ele><time>2026-04-11T02:35:17Z</time></trkpt><trkpt lat="43.194218905980456" lon="11.466284572150608"><ele>156.33333333333334</ele><time>2026-04-11T02:35:18Z</time></trkpt><trkpt lat="43.19429154782522" lon="11.466207950076349"><ele>156.5</ele><time>2026-04-11T02:35:20Z</time></trkpt><trkpt lat="43.194370635919775" lon="11.466139607235982"><ele>156.66666666666669</ele><time>2026-04-11T02:35:22Z</time></trkpt><trkpt lat="43.19443463190924" lon="11.466065107912444"><ele>156.83333333333334</ele><time>2026-04-11T02:35:24Z</time></trkpt><trkpt lat="43.19449393521202" lon="11.466007444115764"><ele>157.0</ele><time>2026-04-11T02:35:26Z</time></trkpt><trkpt lat="43.19455460260596" lon="11.465947529525073"><ele>156.66666666666669</ele><time>2026-04-11T02:35:28Z</time></trkpt><trkpt lat="43.19461376959647" lon="11.465899484954644"><ele>156.33333333333334</ele><time>2026-04-11T02:35:30Z</time></trkpt><trkpt lat="43.19469706801593" lon="11.465836452821254"><ele>156.0</ele><time>2026-04-11T02:35:33Z</time></trkpt><trkpt lat="43.19474602541491" lon="11.465776837400897"><ele>155.66666666666666</ele><time>2026-04-11T02:35:35Z</time></trkpt><trkpt lat="43.194802059076515" lon="11.46571431696379"><ele>155.33333333333331</ele><time>2026-04-11T02:35:37Z</time></trkpt><trkpt lat="43.19486738396087" lon="11.465672122091402"><ele>155.0</ele><time>2026-04-11T02:35:40Z</time></trkpt><trkpt lat="43.19491503262064" lon="11.465798371400334"><ele>155.0</ele><time>2026-04-11T02:35:42Z</time></trkpt><trkpt lat="43.194979033660125" lon="11.465898799885196"><ele>155.0</ele><time>2026-04-11T02:35:45Z</time></trkpt><trkpt lat="43.19502873886693" lon="11.465963073426796"><ele>155.0</ele><time>2026-04-11T02:35:47Z</time></trkpt><trkpt lat="43.195079752892156" lon="11.466026146095553"><ele>155.0</ele><time>2026-04-11T02:35:49Z</time></trkpt><trkpt lat="43.19515659009056" lon="11.46609846242755"><ele>155.0</ele><time>2026-04-11T02:35:52Z</time></trkpt><trkpt lat="43.19520090983734" lon="11.466163867610277"><ele>155.0</ele><time>2026-04-11T02:35:54Z</time></trkpt><trkpt lat="43.195270816906856" lon="11.466261298158402"><ele>155.42857142857144</ele><time>2026-04-11T02:35:57Z</time></trkpt><trkpt lat="43.195319833951395" lon="11.466330138288173"><ele>155.85714285714286</ele><time>2026-04-11T02:35:59Z</time></trkpt><trkpt lat="43.195355820489375" lon="11.466409526005432"><ele>156.28571428571428</ele><time>2026-04-11T02:36:01Z</time></trkpt><trkpt lat="43.19539098819634" lon="11.466492495428572"><ele>156.71428571428572</ele><time>2026-04-11T02:36:03Z</time></trkpt><trkpt lat="43.19541048927439" lon="11.46657484443734"><ele>157.14285714285714</ele><time>2026-04-11T02:36:05Z</time></trkpt><trkpt lat="43.195426542292864" lon="11.466661767568304"><ele>157.57142857142858</ele><time>2026-04-11T02:36:07Z</time></trkpt><trkpt lat="43.1954477607571" lon="11.466780764651972"><ele>158.0</ele><time>2026-04-11T02:36:10Z</time></trkpt><trkpt lat="43.19545369367197" lon="11.466893307109737"><ele>158.00000000000003</ele><time>2026-04-11T02:36:13Z</time></trkpt><trkpt lat="43.19546124408591" lon="11.466992338138624"><ele>158.0</ele><time>2026-04-11T02:36:16Z</time></trkpt><trkpt lat="43.19546058381955" lon="11.467088211785711"><ele>158.0</ele><time>2026-04-11T02:36:18.999Z</time></trkpt><trkpt lat="43.19547159426999" lon="11.46718432211703"><ele>158.0</ele><time>2026-04-11T02:36:21.999Z</time></trkpt><trkpt lat="43.19548615734606" lon="11.467277139361526"><ele>158.0</ele><time>2026-04-11T02:36:24.999Z</time></trkpt><trkpt lat="43.19550537389915" lon="11.467367945806272"><ele>158.00000000000003</ele><time>2026-04-11T02:36:27.999Z</time></trkpt><trkpt lat="43.19554750453193" lon="11.467459245652718"><ele>158.0</ele><time>2026-04-11T02:36:31.999Z</time></trkpt><trkpt lat="43.19559145440872" lon="11.467543289093703"><ele>158.2857142857143</ele><time>2026-04-11T02:36:35.999Z</time></trkpt><trkpt lat="43.19565540470687" lon="11.467597539469542"><ele>158.57142857142858</ele><time>2026-04-11T02:36:39.999Z</time></trkpt><trkpt lat="43.195724415904735" lon="11.467624758998806"><ele>158.85714285714286</ele><time>2026-04-11T02:36:43.999Z</time></trkpt><trkpt lat="43.19578951852753" lon="11.467676758524844"><ele>159.14285714285717</ele><time>2026-04-11T02:36:47.999Z</time></trkpt><trkpt lat="43.195855968775255" lon="11.467697169573299"><ele>159.42857142857144</ele><time>2026-04-11T02:36:51.999Z</time></trkpt><trkpt lat="43.195927111262165" lon="11.467717474350701"><ele>159.71428571428572</ele><time>2026-04-11T02:36:55.999Z</time></trkpt><trkpt lat="43.19599006288708" lon="11.46773878575941"><ele>160.0</ele><time>2026-04-11T02:36:59.999Z</time></trkpt><trkpt lat="43.19604908843394" lon="11.467771100306976"><ele>160.83333333333334</ele><time>2026-04-11T02:37:03.999Z</time></trkpt><trkpt lat="43.196109792498156" lon="11.467814176863328"><ele>161.66666666666669</ele><time>2026-04-11T02:37:07.999Z</time></trkpt><trkpt lat="43.1961700834523" lon="11.467872979816757"><ele>162.5</ele><time>2026-04-11T02:37:11.999Z</time></trkpt><trkpt lat="43.1962232181116" lon="11.467932893605452"><ele>163.33333333333334</ele><time>2026-04-11T02:37:15.999Z</time></trkpt><trkpt lat="43.19628320369211" lon="11.468010956780828"><ele>164.16666666666666</ele><time>2026-04-11T02:37:20Z</time></trkpt><trkpt lat="43.19633722084553" lon="11.468093737555394"><ele>165.0</ele><time>2026-04-11T02:37:24Z</time></trkpt><trkpt lat="43.196392797903634" lon="11.468184194624445"><ele>165.2857142857143</ele><time>2026-04-11T02:37:28Z</time></trkpt><trkpt lat="43.19643343040302" lon="11.468250328036069"><ele>165.57142857142858</ele><time>2026-04-11T02:37:31Z</time></trkpt><trkpt lat="43.19648515948233" lon="11.468331268246386"><ele>165.85714285714286</ele><time>2026-04-11T02:37:35Z</time></trkpt><trkpt lat="43.19654094435846" lon="11.468383661278942"><ele>166.14285714285717</ele><time>2026-04-11T02:37:38Z</time></trkpt><trkpt lat="43.196572182287746" lon="11.468462894613062"><ele>166.42857142857144</ele><time>2026-04-11T02:37:41Z</time></trkpt><trkpt lat="43.19660044271909" lon="11.468549516902003"><ele>166.71428571428572</ele><time>2026-04-11T02:37:44Z</time></trkpt><trkpt lat="43.19658381604296" lon="11.468648723468325"><ele>167.0</ele><time>2026-04-11T02:37:47Z</time></trkpt><trkpt lat="43.196593662196676" lon="11.46874094406327"><ele>169.33333333333331</ele><time>2026-04-11T02:37:50Z</time></trkpt><trkpt lat="43.19663238859838" lon="11.468842252415795"><ele>171.66666666666666</ele><time>2026-04-11T02:37:54Z</time></trkpt><trkpt lat="43.196651298784026" lon="11.468949070247016"><ele>174.0</ele><time>2026-04-11T02:37:58Z</time></trkpt><trkpt lat="43.19669460276632" lon="11.469037140906247"><ele>176.33333333333334</ele><time>2026-04-11T02:38:02Z</time></trkpt><trkpt lat="43.19674467350554" lon="11.469118913059292"><ele>178.66666666666669</ele><time>2026-04-11T02:38:06Z</time></trkpt><trkpt lat="43.196792757468884" lon="11.4691914171739"><ele>181.0</ele><time>2026-04-11T02:38:10Z</time></trkpt><trkpt lat="43.19684654869994" lon="11.469273430029387"><ele>181.0</ele><time>2026-04-11T02:38:14Z</time></trkpt><trkpt lat="43.19690145344115" lon="11.4693369127135"><ele>181.0</ele><time>2026-04-11T02:38:18Z</time></trkpt><trkpt lat="43.19694699635125" lon="11.469414909513159"><ele>181.0</ele><time>2026-04-11T02:38:22Z</time></trkpt><trkpt lat="43.196979248155955" lon="11.469496822278858"><ele>181.0</ele><time>2026-04-11T02:38:26Z</time></trkpt><trkpt lat="43.19701882301524" lon="11.469571551896404"><ele>181.0</ele><time>2026-04-11T02:38:29.999Z</time></trkpt><trkpt lat="43.1970583372624" lon="11.469649212261483"><ele>181.0</ele><time>2026-04-11T02:38:33.999Z</time></trkpt><trkpt lat="43.19709724273409" lon="11.46973430482078"><ele>181.0</ele><time>2026-04-11T02:38:37.999Z</time></trkpt><trkpt lat="43.19712664975618" lon="11.469824924499205"><ele>181.16666666666669</ele><time>2026-04-11T02:38:41.999Z</time></trkpt><trkpt lat="43.1971602165069" lon="11.469913079480644"><ele>181.33333333333334</ele><time>2026-04-11T02:38:45.999Z</time></trkpt><trkpt lat="43.197187296938935" lon="11.470012410471428"><ele>181.5</ele><time>2026-04-11T02:38:49.999Z</time></trkpt><trkpt lat="43.19721140779166" lon="11.470120467829862"><ele>181.66666666666666</ele><time>2026-04-11T02:38:53.999Z</time></trkpt><trkpt lat="43.197240939497995" lon="11.470211216668634"><ele>181.83333333333331</ele><time>2026-04-11T02:38:57.999Z</time></trkpt><trkpt lat="43.19727881494873" lon="11.470305148003991"><ele>182.0</ele><time>2026-04-11T02:39:01.999Z</time></trkpt><trkpt lat="43.19732615206763" lon="11.470386632509348"><ele>184.57142857142858</ele><time>2026-04-11T02:39:05.999Z</time></trkpt><trkpt lat="43.197376871883314" lon="11.470481740986276"><ele>187.14285714285714</ele><time>2026-04-11T02:39:09.999Z</time></trkpt><trkpt lat="43.19744174573621" lon="11.470536494525284"><ele>189.71428571428572</ele><time>2026-04-11T02:39:13.999Z</time></trkpt><trkpt lat="43.19751758699531" lon="11.47055115743496"><ele>192.28571428571428</ele><time>2026-04-11T02:39:18.999Z</time></trkpt><trkpt lat="43.197584982029596" lon="11.470571623844958"><ele>194.85714285714286</ele><time>2026-04-11T02:39:22.999Z</time></trkpt><trkpt lat="43.19765036942212" lon="11.470585131831346"><ele>197.42857142857144</ele><time>2026-04-11T02:39:27Z</time></trkpt><trkpt lat="43.197719387622584" lon="11.470614292649275"><ele>200.0</ele><time>2026-04-11T02:39:31Z</time></trkpt><trkpt lat="43.19778703786989" lon="11.470626963410178"><ele>200.00000000000003</ele><time>2026-04-11T02:39:35Z</time></trkpt><trkpt lat="43.19786016455649" lon="11.470644960622804"><ele>200.0</ele><time>2026-04-11T02:39:39Z</time></trkpt><trkpt lat="43.19793291953405" lon="11.47067445384519"><ele>200.0</ele><time>2026-04-11T02:39:44Z</time></trkpt><trkpt lat="43.19800143813829" lon="11.470721091413443"><ele>200.0</ele><time>2026-04-11T02:39:48Z</time></trkpt><trkpt lat="43.198063142796464" lon="11.470773761241142"><ele>200.0</ele><time>2026-04-11T02:39:52Z</time></trkpt><trkpt lat="43.19811483285223" lon="11.47082316264153"><ele>200.00000000000003</ele><time>2026-04-11T02:39:55Z</time></trkpt><trkpt lat="43.19817845896812" lon="11.470892501489317"><ele>200.0</ele><time>2026-04-11T02:40:00Z</time></trkpt><trkpt lat="43.198233789629704" lon="11.470959501993065"><ele>200.57142857142858</ele><time>2026-04-11T02:40:03Z</time></trkpt><trkpt lat="43.19828481033157" lon="11.471033271532384"><ele>201.14285714285714</ele><time>2026-04-11T02:40:07Z</time></trkpt><trkpt lat="43.19833079372977" lon="11.471113451746799"><ele>201.71428571428572</ele><time>2026-04-11T02:40:11Z</time></trkpt><trkpt lat="43.19838824605485" lon="11.471193893318137"><ele>202.28571428571428</ele><time>2026-04-11T02:40:15Z</time></trkpt><trkpt lat="43.19840514684654" lon="11.471280474154366"><ele>202.85714285714286</ele><time>2026-04-11T02:40:18Z</time></trkpt><trkpt lat="43.19844336706908" lon="11.471363585225493"><ele>203.42857142857144</ele><time>2026-04-11T02:40:21Z</time></trkpt><trkpt lat="43.19846909762372" lon="11.471454786561702"><ele>204.0</ele><time>2026-04-11T02:40:24Z</time></trkpt><trkpt lat="43.19849134216761" lon="11.471548806385767"><ele>205.0</ele><time>2026-04-11T02:40:27Z</time></trkpt><trkpt lat="43.198527814444795" lon="11.471649907724233"><ele>206.0</ele><time>2026-04-11T02:40:30Z</time></trkpt><trkpt lat="43.19852891780699" lon="11.471738007151078"><ele>207.0</ele><time>2026-04-11T02:40:32Z</time></trkpt><trkpt lat="43.198541767789514" lon="11.47183848312999"><ele>208.0</ele><time>2026-04-11T02:40:34Z</time></trkpt><trkpt lat="43.19854374184683" lon="11.471956090888186"><ele>209.0</ele><time>2026-04-11T02:40:37Z</time></trkpt><trkpt lat="43.198548398689745" lon="11.47208258980888"><ele>210.0</ele><time>2026-04-11T02:40:39.999Z</time></trkpt><trkpt lat="43.19852476767244" lon="11.47218269794436"><ele>210.5</ele><time>2026-04-11T02:40:41.999Z</time></trkpt><trkpt lat="43.19852763551076" lon="11.472272412659045"><ele>211.0</ele><time>2026-04-11T02:40:43.999Z</time></trkpt><trkpt lat="43.19851108291081" lon="11.472382515120294"><ele>211.5</ele><time>2026-04-11T02:40:45.999Z</time></trkpt><trkpt lat="43.19850218242593" lon="11.472487841432992"><ele>212.0</ele><time>2026-04-11T02:40:47.999Z</time></trkpt><trkpt lat="43.19849195573054" lon="11.47259415044692"><ele>212.5</ele><time>2026-04-11T02:40:49.999Z</time></trkpt><trkpt lat="43.1985049802968" lon="11.472720013371912"><ele>213.0</ele><time>2026-04-11T02:40:51.999Z</time></trkpt><trkpt lat="43.19852150959057" lon="11.472840754035143"><ele>213.2</ele><time>2026-04-11T02:40:53.999Z</time></trkpt><trkpt lat="43.198552044770544" lon="11.472955614756762"><ele>213.4</ele><time>2026-04-11T02:40:55.999Z</time></trkpt><trkpt lat="43.19859433575322" lon="11.473056779064637"><ele>213.59999999999997</ele><time>2026-04-11T02:40:57.999Z</time></trkpt><trkpt lat="43.19866287517008" lon="11.47316880871012"><ele>213.79999999999998</ele><time>2026-04-11T02:40:59.999Z</time></trkpt><trkpt lat="43.198713536877804" lon="11.473288010802595"><ele>214.0</ele><time>2026-04-11T02:41:01.999Z</time></trkpt><trkpt lat="43.19877345011597" lon="11.47339205616334"><ele>214.0</ele><time>2026-04-11T02:41:03.999Z</time></trkpt><trkpt lat="43.19880925954225" lon="11.473532824017958"><ele>213.99999999999997</ele><time>2026-04-11T02:41:05.999Z</time></trkpt><trkpt lat="43.19884091984477" lon="11.473684208307189"><ele>213.99999999999997</ele><time>2026-04-11T02:41:07.999Z</time></trkpt><trkpt lat="43.19885192060137" lon="11.473776928568192"><ele>214.0</ele><time>2026-04-11T02:41:08.999Z</time></trkpt><trkpt lat="43.1988624968237" lon="11.473868307398613"><ele>214.0</ele><time>2026-04-11T02:41:09.999Z</time></trkpt><trkpt lat="43.198857115307796" lon="11.474045623890143"><ele>212.49999999999997</ele><time>2026-04-11T02:41:11.999Z</time></trkpt><trkpt lat="43.198843148362265" lon="11.474137109023458"><ele>211.0</ele><time>2026-04-11T02:41:12.999Z</time></trkpt><trkpt lat="43.19884754726543" lon="11.474231751811253"><ele>209.5</ele><time>2026-04-11T02:41:13.999Z</time></trkpt><trkpt lat="43.198864773317275" lon="11.474324383500315"><ele>208.0</ele><time>2026-04-11T02:41:14.999Z</time></trkpt><trkpt lat="43.19890153518638" lon="11.474403338557037"><ele>206.49999999999997</ele><time>2026-04-11T02:41:15.999Z</time></trkpt><trkpt lat="43.198964398841646" lon="11.474553604718604"><ele>205.0</ele><time>2026-04-11T02:41:17.999Z</time></trkpt><trkpt lat="43.199022002262375" lon="11.47470577954657"><ele>203.8</ele><time>2026-04-11T02:41:19.999Z</time></trkpt><trkpt lat="43.19911058488075" lon="11.474832825345437"><ele>202.6</ele><time>2026-04-11T02:41:21.999Z</time></trkpt><trkpt lat="43.199136156906455" lon="11.474914124584718"><ele>201.39999999999998</ele><time>2026-04-11T02:41:22.999Z</time></trkpt><trkpt lat="43.19920816678074" lon="11.475027745039053"><ele>200.2</ele><time>2026-04-11T02:41:24.999Z</time></trkpt><trkpt lat="43.19927431202685" lon="11.475144496240345"><ele>199.0</ele><time>2026-04-11T02:41:26.999Z</time></trkpt><trkpt lat="43.199336353958635" lon="11.475248060329209"><ele>198.99999999999997</ele><time>2026-04-11T02:41:28.999Z</time></trkpt><trkpt lat="43.199396231310615" lon="11.475350251138625"><ele>199.0</ele><time>2026-04-11T02:41:31Z</time></trkpt><trkpt lat="43.19945142835335" lon="11.475447162395639"><ele>199.0</ele><time>2026-04-11T02:41:33Z</time></trkpt><trkpt lat="43.199513676755544" lon="11.475506008850612"><ele>199.0</ele><time>2026-04-11T02:41:35Z</time></trkpt><trkpt lat="43.19955827719855" lon="11.475569451767498"><ele>198.99999999999997</ele><time>2026-04-11T02:41:37Z</time></trkpt><trkpt lat="43.19961246335248" lon="11.47561495162063"><ele>199.0</ele><time>2026-04-11T02:41:39Z</time></trkpt><trkpt lat="43.19968783521591" lon="11.475673527924963"><ele>199.99999999999997</ele><time>2026-04-11T02:41:42Z</time></trkpt><trkpt lat="43.19975120821004" lon="11.475720397708043"><ele>201.0</ele><time>2026-04-11T02:41:45Z</time></trkpt><trkpt lat="43.19980848628058" lon="11.475787558738212"><ele>202.0</ele><time>2026-04-11T02:41:48Z</time></trkpt><trkpt lat="43.19986834056323" lon="11.475836662615341"><ele>203.0</ele><time>2026-04-11T02:41:51Z</time></trkpt><trkpt lat="43.199933843445706" lon="11.475888655218352"><ele>204.0</ele><time>2026-04-11T02:41:54Z</time></trkpt><trkpt lat="43.199995069418755" lon="11.475938898474297"><ele>204.99999999999997</ele><time>2026-04-11T02:41:57Z</time></trkpt><trkpt lat="43.200061895911766" lon="11.475990652971166"><ele>206.0</ele><time>2026-04-11T02:42:00Z</time></trkpt><trkpt lat="43.20012684864756" lon="11.476079089362392"><ele>206.00000000000003</ele><time>2026-04-11T02:42:04Z</time></trkpt><trkpt lat="43.200192081171636" lon="11.476151744132114"><ele>206.0</ele><time>2026-04-11T02:42:07Z</time></trkpt><trkpt lat="43.20025173091058" lon="11.476221592971273"><ele>206.0</ele><time>2026-04-11T02:42:10Z</time></trkpt><trkpt lat="43.200328038858" lon="11.47628859143359"><ele>206.0</ele><time>2026-04-11T02:42:13Z</time></trkpt><trkpt lat="43.20038304903323" lon="11.476332211009426"><ele>206.00000000000003</ele><time>2026-04-11T02:42:15Z</time></trkpt><trkpt lat="43.20043747996875" lon="11.47638813799433"><ele>206.0</ele><time>2026-04-11T02:42:17Z</time></trkpt><trkpt lat="43.20049759900363" lon="11.476461347774967"><ele>206.66666666666669</ele><time>2026-04-11T02:42:19Z</time></trkpt><trkpt lat="43.200589805618485" lon="11.476559631684982"><ele>207.33333333333334</ele><time>2026-04-11T02:42:22Z</time></trkpt><trkpt lat="43.200644856385246" lon="11.476645246673248"><ele>208.0</ele><time>2026-04-11T02:42:24Z</time></trkpt><trkpt lat="43.200699949018855" lon="11.476722165556346"><ele>208.66666666666669</ele><time>2026-04-11T02:42:26Z</time></trkpt><trkpt lat="43.20075682348512" lon="11.476806317435896"><ele>209.33333333333334</ele><time>2026-04-11T02:42:28Z</time></trkpt><trkpt lat="43.200794642908185" lon="11.476895289973704"><ele>210.0</ele><time>2026-04-11T02:42:30Z</time></trkpt><trkpt lat="43.20083374408919" lon="11.476984049281944"><ele>210.0</ele><time>2026-04-11T02:42:32Z</time></trkpt><trkpt lat="43.20087566993009" lon="11.477074886601416"><ele>210.0</ele><time>2026-04-11T02:42:34Z</time></trkpt><trkpt lat="43.200917299285244" lon="11.47716134210053"><ele>210.0</ele><time>2026-04-11T02:42:36Z</time></trkpt><trkpt lat="43.200951764385046" lon="11.477254461459465"><ele>210.0</ele><time>2026-04-11T02:42:37.999Z</time></trkpt><trkpt lat="43.20099592029772" lon="11.477341500507018"><ele>210.0</ele><time>2026-04-11T02:42:39.999Z</time></trkpt><trkpt lat="43.201026765283146" lon="11.47742882684491"><ele>210.0</ele><time>2026-04-11T02:42:41.999Z</time></trkpt><trkpt lat="43.20106057293876" lon="11.477511430563153"><ele>210.0</ele><time>2026-04-11T02:42:43.999Z</time></trkpt><trkpt lat="43.20109522456713" lon="11.477588473789117"><ele>209.42857142857142</ele><time>2026-04-11T02:42:45.999Z</time></trkpt><trkpt lat="43.20112727854458" lon="11.477669360569534"><ele>208.85714285714286</ele><time>2026-04-11T02:42:47.999Z</time></trkpt><trkpt lat="43.20116026759878" lon="11.47775729299468"><ele>208.28571428571428</ele><time>2026-04-11T02:42:49.999Z</time></trkpt><trkpt lat="43.20118254038975" lon="11.477841349563986"><ele>207.71428571428572</ele><time>2026-04-11T02:42:51.999Z</time></trkpt><trkpt lat="43.201215090836385" lon="11.477924835010462"><ele>207.14285714285714</ele><time>2026-04-11T02:42:53.999Z</time></trkpt><trkpt lat="43.201263192584776" lon="11.478041426311478"><ele>206.57142857142856</ele><time>2026-04-11T02:42:56.999Z</time></trkpt><trkpt lat="43.20128382507908" lon="11.478128097650362"><ele>206.0</ele><time>2026-04-11T02:42:58.999Z</time></trkpt><trkpt lat="43.2013141781313" lon="11.478207788813533"><ele>206.50000000000003</ele><time>2026-04-11T02:43:00.999Z</time></trkpt><trkpt lat="43.20134610120253" lon="11.478289817517853"><ele>207.0</ele><time>2026-04-11T02:43:02.999Z</time></trkpt><trkpt lat="43.20138004010929" lon="11.47837702602747"><ele>207.5</ele><time>2026-04-11T02:43:04.999Z</time></trkpt><trkpt lat="43.2014149461213" lon="11.478466719657057"><ele>208.0</ele><time>2026-04-11T02:43:06.999Z</time></trkpt><trkpt lat="43.201447332419285" lon="11.478549938662333"><ele>208.50000000000003</ele><time>2026-04-11T02:43:08.999Z</time></trkpt><trkpt lat="43.20148091231837" lon="11.478636224720027"><ele>209.0</ele><time>2026-04-11T02:43:10.999Z</time></trkpt><trkpt lat="43.20152595933011" lon="11.478756120722355"><ele>209.57142857142856</ele><time>2026-04-11T02:43:13.999Z</time></trkpt><trkpt lat="43.201561489621724" lon="11.478852436294627"><ele>210.14285714285714</ele><time>2026-04-11T02:43:15.999Z</time></trkpt><trkpt lat="43.20159460062092" lon="11.47894438184654"><ele>210.71428571428572</ele><time>2026-04-11T02:43:17.999Z</time></trkpt><trkpt lat="43.201625052794846" lon="11.479033442588499"><ele>211.28571428571428</ele><time>2026-04-11T02:43:19.999Z</time></trkpt><trkpt lat="43.201670315943275" lon="11.479119137872619"><ele>211.85714285714286</ele><time>2026-04-11T02:43:21.999Z</time></trkpt><trkpt lat="43.201682771860284" lon="11.479213942145526"><ele>212.42857142857142</ele><time>2026-04-11T02:43:23.999Z</time></trkpt><trkpt lat="43.20171844799441" lon="11.479288280367296"><ele>213.0</ele><time>2026-04-11T02:43:25.999Z</time></trkpt><trkpt lat="43.20173574703947" lon="11.479384552545842"><ele>213.0</ele><time>2026-04-11T02:43:27.999Z</time></trkpt><trkpt lat="43.2017591154318" lon="11.4794674404387"><ele>213.0</ele><time>2026-04-11T02:43:29.999Z</time></trkpt><trkpt lat="43.20178376447222" lon="11.479550728112041"><ele>213.0</ele><time>2026-04-11T02:43:31.999Z</time></trkpt><trkpt lat="43.201819110442216" lon="11.479667660708204"><ele>213.0</ele><time>2026-04-11T02:43:34.999Z</time></trkpt><trkpt lat="43.20184903791395" lon="11.479789681434392"><ele>213.0</ele><time>2026-04-11T02:43:38Z</time></trkpt><trkpt lat="43.20188442196654" lon="11.479870999388307"><ele>213.0</ele><time>2026-04-11T02:43:40Z</time></trkpt><trkpt lat="43.2019212142372" lon="11.479992529341287"><ele>212.85714285714283</ele><time>2026-04-11T02:43:43Z</time></trkpt><trkpt lat="43.20195831056534" lon="11.480103385201899"><ele>212.71428571428572</ele><time>2026-04-11T02:43:46Z</time></trkpt><trkpt lat="43.20199660326267" lon="11.480187626642127"><ele>212.57142857142856</ele><time>2026-04-11T02:43:48Z</time></trkpt><trkpt lat="43.20202494959358" lon="11.480265123061288"><ele>212.42857142857142</ele><time>2026-04-11T02:43:50Z</time></trkpt><trkpt lat="43.20205847751233" lon="11.480341573803896"><ele>212.28571428571428</ele><time>2026-04-11T02:43:52Z</time></trkpt><trkpt lat="43.20209150657417" lon="11.480438406588307"><ele>212.14285714285714</ele><time>2026-04-11T02:43:54Z</time></trkpt><trkpt lat="43.2021145027732" lon="11.480520474439508"><ele>212.0</ele><time>2026-04-11T02:43:56Z</time></trkpt><trkpt lat="43.20215090252871" lon="11.480630995293643"><ele>211.50000000000003</ele><time>2026-04-11T02:43:59Z</time></trkpt><trkpt lat="43.20217685074736" lon="11.480751192614159"><ele>211.0</ele><time>2026-04-11T02:44:02Z</time></trkpt><trkpt lat="43.202200449164096" lon="11.480862784069133"><ele>210.5</ele><time>2026-04-11T02:44:05Z</time></trkpt><trkpt lat="43.20221046822341" lon="11.480976857786116"><ele>210.0</ele><time>2026-04-11T02:44:08Z</time></trkpt><trkpt lat="43.20222285936723" lon="11.481074164085245"><ele>209.50000000000003</ele><time>2026-04-11T02:44:11Z</time></trkpt><trkpt lat="43.20224885634437" lon="11.481155558947462"><ele>209.0</ele><time>2026-04-11T02:44:14Z</time></trkpt><trkpt lat="43.20225117443572" lon="11.481249930841836"><ele>209.71428571428572</ele><time>2026-04-11T02:44:17Z</time></trkpt><trkpt lat="43.20226719459001" lon="11.481364616180803"><ele>210.42857142857142</ele><time>2026-04-11T02:44:21Z</time></trkpt><trkpt lat="43.20227987947393" lon="11.481451189795793"><ele>211.14285714285717</ele><time>2026-04-11T02:44:24Z</time></trkpt><trkpt lat="43.202292470346656" lon="11.481540415649768"><ele>211.85714285714286</ele><time>2026-04-11T02:44:27Z</time></trkpt><trkpt lat="43.202310245606334" lon="11.481628967560523"><ele>212.57142857142858</ele><time>2026-04-11T02:44:30Z</time></trkpt><trkpt lat="43.2023205551741" lon="11.481741781732108"><ele>213.2857142857143</ele><time>2026-04-11T02:44:34Z</time></trkpt><trkpt lat="43.20232040609784" lon="11.481832225964247"><ele>214.0</ele><time>2026-04-11T02:44:37Z</time></trkpt><trkpt lat="43.202315012465256" lon="11.481924823899739"><ele>214.00000000000003</ele><time>2026-04-11T02:44:40Z</time></trkpt><trkpt lat="43.202297568854874" lon="11.482010841791029"><ele>214.0</ele><time>2026-04-11T02:44:43Z</time></trkpt><trkpt lat="43.2022802377902" lon="11.48210293336227"><ele>214.0</ele><time>2026-04-11T02:44:46Z</time></trkpt><trkpt lat="43.20225857351854" lon="11.482211761676194"><ele>214.0</ele><time>2026-04-11T02:44:49.999Z</time></trkpt><trkpt lat="43.20223921723838" lon="11.482316637607886"><ele>214.0</ele><time>2026-04-11T02:44:53.999Z</time></trkpt><trkpt lat="43.20221916436148" lon="11.482406824746022"><ele>214.00000000000003</ele><time>2026-04-11T02:44:57.999Z</time></trkpt><trkpt lat="43.20220892524091" lon="11.482500577173177"><ele>214.0</ele><time>2026-04-11T02:45:01.999Z</time></trkpt><trkpt lat="43.20220086362614" lon="11.482586374634911"><ele>215.2857142857143</ele><time>2026-04-11T02:45:05.999Z</time></trkpt><trkpt lat="43.202193853149936" lon="11.48268142682645"><ele>216.57142857142858</ele><time>2026-04-11T02:45:09.999Z</time></trkpt><trkpt lat="43.202194257432765" lon="11.482768484126028"><ele>217.85714285714286</ele><time>2026-04-11T02:45:13.999Z</time></trkpt><trkpt lat="43.2021970127054" lon="11.48285965777686"><ele>219.14285714285717</ele><time>2026-04-11T02:45:17.999Z</time></trkpt><trkpt lat="43.20220993410628" lon="11.482950440885237"><ele>220.42857142857142</ele><time>2026-04-11T02:45:21.999Z</time></trkpt><trkpt lat="43.20220748889408" lon="11.48303872912283"><ele>221.71428571428572</ele><time>2026-04-11T02:45:25.999Z</time></trkpt><trkpt lat="43.202201365370385" lon="11.48313845932702"><ele>223.0</ele><time>2026-04-11T02:45:29.999Z</time></trkpt><trkpt lat="43.202180120261" lon="11.48323385860885"><ele>225.0</ele><time>2026-04-11T02:45:33.999Z</time></trkpt><trkpt lat="43.202141150281506" lon="11.483302694812988"><ele>227.0</ele><time>2026-04-11T02:45:36.999Z</time></trkpt><trkpt lat="43.20209384961527" lon="11.483380177217978"><ele>229.0</ele><time>2026-04-11T02:45:40.999Z</time></trkpt><trkpt lat="43.20204788921322" lon="11.483450800544103"><ele>231.0</ele><time>2026-04-11T02:45:45Z</time></trkpt><trkpt lat="43.201997893539186" lon="11.483532084159238"><ele>233.0</ele><time>2026-04-11T02:45:50Z</time></trkpt><trkpt lat="43.20195045040273" lon="11.483594588075164"><ele>234.99999999999997</ele><time>2026-04-11T02:45:54Z</time></trkpt><trkpt lat="43.20190196182212" lon="11.483675384855351"><ele>236.99999999999997</ele><time>2026-04-11T02:45:59Z</time></trkpt><trkpt lat="43.20186396500406" lon="11.483750088535135"><ele>239.28571428571425</ele><time>2026-04-11T02:46:03Z</time></trkpt><trkpt lat="43.20181921582371" lon="11.483818954826674"><ele>241.57142857142856</ele><time>2026-04-11T02:46:08Z</time></trkpt><trkpt lat="43.20178255990645" lon="11.48389103798344"><ele>243.85714285714286</ele><time>2026-04-11T02:46:12Z</time></trkpt><trkpt lat="43.20177012598885" lon="11.48398036211636"><ele>246.14285714285714</ele><time>2026-04-11T02:46:17Z</time></trkpt><trkpt lat="43.20172671967746" lon="11.484055818194209"><ele>248.42857142857144</ele><time>2026-04-11T02:46:22Z</time></trkpt><trkpt lat="43.20177092119924" lon="11.484139239483982"><ele>250.71428571428575</ele><time>2026-04-11T02:46:25Z</time></trkpt><trkpt lat="43.201810299782096" lon="11.484233420810133"><ele>253.00000000000003</ele><time>2026-04-11T02:46:30Z</time></trkpt><trkpt lat="43.201842629216706" lon="11.48432679249399"><ele>253.00000000000003</ele><time>2026-04-11T02:46:35Z</time></trkpt><trkpt lat="43.20187504447387" lon="11.484404369941162"><ele>253.0</ele><time>2026-04-11T02:46:39Z</time></trkpt><trkpt lat="43.20190885180326" lon="11.48448125845881"><ele>253.00000000000003</ele><time>2026-04-11T02:46:43Z</time></trkpt><trkpt lat="43.20194812172292" lon="11.484564295644022"><ele>253.00000000000003</ele><time>2026-04-11T02:46:47Z</time></trkpt><trkpt lat="43.20198588890305" lon="11.484648222391312"><ele>253.0</ele><time>2026-04-11T02:46:52Z</time></trkpt><trkpt lat="43.20202065464453" lon="11.48473845361196"><ele>253.00000000000003</ele><time>2026-04-11T02:46:56Z</time></trkpt><trkpt lat="43.20205020133955" lon="11.484837624640639"><ele>253.00000000000003</ele><time>2026-04-11T02:47:00.999Z</time></trkpt><trkpt lat="43.20208065984958" lon="11.48493416444127"><ele>253.14285714285717</ele><time>2026-04-11T02:47:03.999Z</time></trkpt><trkpt lat="43.20209731544293" lon="11.485018607969598"><ele>253.28571428571428</ele><time>2026-04-11T02:47:06.999Z</time></trkpt><trkpt lat="43.202117221229344" lon="11.48510243605975"><ele>253.42857142857144</ele><time>2026-04-11T02:47:09.999Z</time></trkpt><trkpt lat="43.20214260004394" lon="11.485188222585087"><ele>253.57142857142858</ele><time>2026-04-11T02:47:12.999Z</time></trkpt><trkpt lat="43.20214941162421" lon="11.485274435171615"><ele>253.71428571428572</ele><time>2026-04-11T02:47:15.999Z</time></trkpt><trkpt lat="43.20216998575454" lon="11.485376649840145"><ele>253.85714285714286</ele><time>2026-04-11T02:47:19.999Z</time></trkpt><trkpt lat="43.20216148101225" lon="11.485486815397199"><ele>254.0</ele><time>2026-04-11T02:47:59Z</time></trkpt><trkpt lat="43.202186577204756" lon="11.48557313482354"><ele>254.00000000000003</ele><time>2026-04-11T02:48:03Z</time></trkpt><trkpt lat="43.20220528855238" lon="11.4856566780927"><ele>254.0</ele><time>2026-04-11T02:48:05Z</time></trkpt><trkpt lat="43.2022398966265" lon="11.485750028696806"><ele>254.0</ele><time>2026-04-11T02:48:07Z</time></trkpt><trkpt lat="43.2022783406867" lon="11.48586033186847"><ele>254.0</ele><time>2026-04-11T02:48:09Z</time></trkpt><trkpt lat="43.2023176164403" lon="11.485966969385599"><ele>254.00000000000003</ele><time>2026-04-11T02:48:11Z</time></trkpt><trkpt lat="43.20237382269552" lon="11.486072443644558"><ele>254.0</ele><time>2026-04-11T02:48:13Z</time></trkpt><trkpt lat="43.20241742725445" lon="11.48618858532442"><ele>252.79999999999998</ele><time>2026-04-11T02:48:15Z</time></trkpt><trkpt lat="43.202473665991505" lon="11.48628548903594"><ele>251.59999999999997</ele><time>2026-04-11T02:48:17Z</time></trkpt><trkpt lat="43.2025395990939" lon="11.486384643098207"><ele>250.4</ele><time>2026-04-11T02:48:19Z</time></trkpt><trkpt lat="43.20261779113588" lon="11.486488654252499"><ele>249.2</ele><time>2026-04-11T02:48:21Z</time></trkpt><trkpt lat="43.20268670750748" lon="11.4865529090081"><ele>248.0</ele><time>2026-04-11T02:48:23Z</time></trkpt><trkpt lat="43.202782192180756" lon="11.486658345892673"><ele>248.0</ele><time>2026-04-11T02:48:25Z</time></trkpt><trkpt lat="43.20282621855541" lon="11.486726315048918"><ele>248.0</ele><time>2026-04-11T02:48:26Z</time></trkpt><trkpt lat="43.20290875195491" lon="11.486808557374728"><ele>248.0</ele><time>2026-04-11T02:48:28Z</time></trkpt><trkpt lat="43.202975754707005" lon="11.486905285854728"><ele>248.0</ele><time>2026-04-11T02:48:30Z</time></trkpt><trkpt lat="43.203046441890635" lon="11.486991883894895"><ele>248.0</ele><time>2026-04-11T02:48:32Z</time></trkpt><trkpt lat="43.203124228124814" lon="11.487098071510003"><ele>248.2</ele><time>2026-04-11T02:48:34Z</time></trkpt><trkpt lat="43.203198087879144" lon="11.4871891117749"><ele>248.4</ele><time>2026-04-11T02:48:36Z</time></trkpt><trkpt lat="43.203257729162395" lon="11.487281739114307"><ele>248.59999999999997</ele><time>2026-04-11T02:48:38Z</time></trkpt><trkpt lat="43.20332072295287" lon="11.487367710814244"><ele>248.79999999999998</ele><time>2026-04-11T02:48:40Z</time></trkpt><trkpt lat="43.2033850687224" lon="11.487447846084116"><ele>249.0</ele><time>2026-04-11T02:48:42Z</time></trkpt><trkpt lat="43.203453804063926" lon="11.487516124979845"><ele>249.0</ele><time>2026-04-11T02:48:44Z</time></trkpt><trkpt lat="43.203518588884386" lon="11.487610840473577"><ele>248.99999999999997</ele><time>2026-04-11T02:48:46Z</time></trkpt><trkpt lat="43.20357886035374" lon="11.487694682300495"><ele>248.99999999999997</ele><time>2026-04-11T02:48:48Z</time></trkpt><trkpt lat="43.203636900751015" lon="11.48777691757131"><ele>249.0</ele><time>2026-04-11T02:48:50Z</time></trkpt><trkpt lat="43.203689565614646" lon="11.48789109165599"><ele>249.0</ele><time>2026-04-11T02:48:52Z</time></trkpt><trkpt lat="43.203751002872785" lon="11.487980352091716"><ele>245.75</ele><time>2026-04-11T02:48:54Z</time></trkpt><trkpt lat="43.20382094624732" lon="11.488092461239416"><ele>242.5</ele><time>2026-04-11T02:48:56Z</time></trkpt><trkpt lat="43.203888031963295" lon="11.488230542776085"><ele>239.25</ele><time>2026-04-11T02:48:57.999Z</time></trkpt><trkpt lat="43.20396216044745" lon="11.488351280978119"><ele>236.0</ele><time>2026-04-11T02:48:59.999Z</time></trkpt><trkpt lat="43.20403596407361" lon="11.488474092281447"><ele>238.4</ele><time>2026-04-11T02:49:01.999Z</time></trkpt><trkpt lat="43.204110513948145" lon="11.48859394529"><ele>240.8</ele><time>2026-04-11T02:49:03.999Z</time></trkpt><trkpt lat="43.20417755555419" lon="11.488697382882393"><ele>243.20000000000002</ele><time>2026-04-11T02:49:05.999Z</time></trkpt><trkpt lat="43.204240816282294" lon="11.488783213913186"><ele>245.60000000000002</ele><time>2026-04-11T02:49:07.999Z</time></trkpt><trkpt lat="43.2042900485387" lon="11.488876996357693"><ele>248.0</ele><time>2026-04-11T02:49:09.999Z</time></trkpt><trkpt lat="43.20434212972613" lon="11.4889496970625"><ele>248.00000000000003</ele><time>2026-04-11T02:49:12.999Z</time></trkpt><trkpt lat="43.20439853433047" lon="11.489035860477419"><ele>248.0</ele><time>2026-04-11T02:49:15.999Z</time></trkpt><trkpt lat="43.20444377356622" lon="11.489109593409301"><ele>248.0</ele><time>2026-04-11T02:49:17.999Z</time></trkpt><trkpt lat="43.20447877221189" lon="11.489187271483734"><ele>248.0</ele><time>2026-04-11T02:49:19.999Z</time></trkpt><trkpt lat="43.20451981956973" lon="11.489287442567113"><ele>248.00000000000003</ele><time>2026-04-11T02:49:21.999Z</time></trkpt><trkpt lat="43.204560116538815" lon="11.489404997397063"><ele>248.0</ele><time>2026-04-11T02:49:23.999Z</time></trkpt><trkpt lat="43.20460472940834" lon="11.489523156493153"><ele>250.4</ele><time>2026-04-11T02:49:25.999Z</time></trkpt><trkpt lat="43.20465358801924" lon="11.48964898240197"><ele>252.8</ele><time>2026-04-11T02:49:27.999Z</time></trkpt><trkpt lat="43.20467825379109" lon="11.489794829080505"><ele>255.2</ele><time>2026-04-11T02:49:29.999Z</time></trkpt><trkpt lat="43.204716786943095" lon="11.489936457232561"><ele>257.6</ele><time>2026-04-11T02:49:31.999Z</time></trkpt><trkpt lat="43.2047770068983" lon="11.490079299393827"><ele>260.0</ele><time>2026-04-11T02:49:33.999Z</time></trkpt><trkpt lat="43.20484211157098" lon="11.490241235181422"><ele>260.0</ele><time>2026-04-11T02:49:35.999Z</time></trkpt><trkpt lat="43.20488650431163" lon="11.490322666469885"><ele>260.0</ele><time>2026-04-11T02:49:36.999Z</time></trkpt><trkpt lat="43.204930948127945" lon="11.490399403623147"><ele>260.0</ele><time>2026-04-11T02:49:37.999Z</time></trkpt><trkpt lat="43.20497377354509" lon="11.490465273111948"><ele>260.0</ele><time>2026-04-11T02:49:38.999Z</time></trkpt><trkpt lat="43.205022271286644" lon="11.490522449558261"><ele>260.0</ele><time>2026-04-11T02:49:39.999Z</time></trkpt><trkpt lat="43.20510552816978" lon="11.490629171986566"><ele>260.0</ele><time>2026-04-11T02:49:41.999Z</time></trkpt><trkpt lat="43.20516848355769" lon="11.490723301148405"><ele>257.5</ele><time>2026-04-11T02:49:43.999Z</time></trkpt><trkpt lat="43.205250059700745" lon="11.490782906332422"><ele>255.0</ele><time>2026-04-11T02:49:45.999Z</time></trkpt><trkpt lat="43.20530990756176" lon="11.490834186130362"><ele>252.5</ele><time>2026-04-11T02:49:47.999Z</time></trkpt><trkpt lat="43.205386851857206" lon="11.490864986029802"><ele>250.0</ele><time>2026-04-11T02:49:50.999Z</time></trkpt><trkpt lat="43.20545307751105" lon="11.490902376645538"><ele>247.50000000000003</ele><time>2026-04-11T02:49:54Z</time></trkpt><trkpt lat="43.205530402704895" lon="11.490918671069304"><ele>245.0</ele><time>2026-04-11T02:49:57Z</time></trkpt><trkpt lat="43.20560177089332" lon="11.490926916956749"><ele>246.85714285714286</ele><time>2026-04-11T02:50:00Z</time></trkpt><trkpt lat="43.20568317515013" lon="11.490927606891917"><ele>248.71428571428572</ele><time>2026-04-11T02:50:04Z</time></trkpt><trkpt lat="43.20575381529191" lon="11.490918387524971"><ele>250.57142857142856</ele><time>2026-04-11T02:50:07Z</time></trkpt><trkpt lat="43.20581668547288" lon="11.490907558504722"><ele>252.42857142857142</ele><time>2026-04-11T02:50:10Z</time></trkpt><trkpt lat="43.20587748827636" lon="11.490872600715935"><ele>254.28571428571428</ele><time>2026-04-11T02:50:13Z</time></trkpt><trkpt lat="43.20594382916813" lon="11.490864239585239"><ele>256.1428571428571</ele><time>2026-04-11T02:50:16Z</time></trkpt><trkpt lat="43.20602833449447" lon="11.490877010919021"><ele>258.0</ele><time>2026-04-11T02:50:20Z</time></trkpt><trkpt lat="43.20609552407766" lon="11.49088546048457"><ele>257.99999999999994</ele><time>2026-04-11T02:50:23Z</time></trkpt><trkpt lat="43.20615926470428" lon="11.490895444448531"><ele>258.0</ele><time>2026-04-11T02:50:26Z</time></trkpt><trkpt lat="43.20622563892152" lon="11.490905840927397"><ele>258.0</ele><time>2026-04-11T02:50:29Z</time></trkpt><trkpt lat="43.20629225237014" lon="11.490920017319986"><ele>258.0</ele><time>2026-04-11T02:50:32Z</time></trkpt><trkpt lat="43.20635490200211" lon="11.490944894124585"><ele>258.0</ele><time>2026-04-11T02:50:35Z</time></trkpt><trkpt lat="43.206430156839815" lon="11.490987334287075"><ele>257.99999999999994</ele><time>2026-04-11T02:50:38Z</time></trkpt><trkpt lat="43.206489155340414" lon="11.491027322609751"><ele>258.0</ele><time>2026-04-11T02:50:40Z</time></trkpt><trkpt lat="43.2065498218619" lon="11.491076306381744"><ele>257.8333333333333</ele><time>2026-04-11T02:50:42Z</time></trkpt><trkpt lat="43.20661208798388" lon="11.491133965291596"><ele>257.6666666666667</ele><time>2026-04-11T02:50:44Z</time></trkpt><trkpt lat="43.20665809431471" lon="11.491236102830637"><ele>257.5</ele><time>2026-04-11T02:50:46Z</time></trkpt><trkpt lat="43.20670400475563" lon="11.491334666366413"><ele>257.33333333333337</ele><time>2026-04-11T02:50:48Z</time></trkpt><trkpt lat="43.20675167664147" lon="11.491444503365472"><ele>257.1666666666667</ele><time>2026-04-11T02:50:50Z</time></trkpt><trkpt lat="43.20681365677248" lon="11.491544671296431"><ele>257.0</ele><time>2026-04-11T02:50:52Z</time></trkpt><trkpt lat="43.20685973866636" lon="11.491664562837453"><ele>256.33333333333337</ele><time>2026-04-11T02:50:54Z</time></trkpt><trkpt lat="43.20691623558158" lon="11.49178263966508"><ele>255.66666666666669</ele><time>2026-04-11T02:50:56Z</time></trkpt><trkpt lat="43.20699365013465" lon="11.491901103791486"><ele>255.0</ele><time>2026-04-11T02:50:58Z</time></trkpt><trkpt lat="43.20703848612917" lon="11.49196904292917"><ele>254.33333333333331</ele><time>2026-04-11T02:50:59Z</time></trkpt><trkpt lat="43.20708051953762" lon="11.492056708033585"><ele>253.66666666666666</ele><time>2026-04-11T02:51:00Z</time></trkpt><trkpt lat="43.207132540967216" lon="11.492114338727689"><ele>253.0</ele><time>2026-04-11T02:51:01Z</time></trkpt><trkpt lat="43.20724529412793" lon="11.492206191047417"><ele>252.28571428571433</ele><time>2026-04-11T02:51:03Z</time></trkpt><trkpt lat="43.20730548262113" lon="11.492269778522449"><ele>251.57142857142858</ele><time>2026-04-11T02:51:04Z</time></trkpt><trkpt lat="43.20736537016885" lon="11.492327946005988"><ele>250.8571428571429</ele><time>2026-04-11T02:51:05Z</time></trkpt><trkpt lat="43.20742033427913" lon="11.492394508066136"><ele>250.14285714285717</ele><time>2026-04-11T02:51:06Z</time></trkpt><trkpt lat="43.20747851672174" lon="11.492454597708893"><ele>249.42857142857144</ele><time>2026-04-11T02:51:06.999Z</time></trkpt><trkpt lat="43.20753961233782" lon="11.49250701836616"><ele>248.71428571428572</ele><time>2026-04-11T02:51:07.999Z</time></trkpt><trkpt lat="43.207597439751964" lon="11.492563124478384"><ele>248.0</ele><time>2026-04-11T02:51:08.999Z</time></trkpt><trkpt lat="43.20765842673073" lon="11.492623891413347"><ele>248.0</ele><time>2026-04-11T02:51:09.999Z</time></trkpt><trkpt lat="43.207705949881166" lon="11.492687497514568"><ele>248.00000000000003</ele><time>2026-04-11T02:51:10.999Z</time></trkpt><trkpt lat="43.20776966165718" lon="11.492749467508068"><ele>248.0</ele><time>2026-04-11T02:51:11.999Z</time></trkpt><trkpt lat="43.207825966142586" lon="11.492811017067774"><ele>248.0</ele><time>2026-04-11T02:51:12.999Z</time></trkpt><trkpt lat="43.20787905078262" lon="11.492863283351298"><ele>248.00000000000003</ele><time>2026-04-11T02:51:13.999Z</time></trkpt><trkpt lat="43.20792675725044" lon="11.49292134044487"><ele>248.0</ele><time>2026-04-11T02:51:14.999Z</time></trkpt><trkpt lat="43.207983204530805" lon="11.492976172819436"><ele>248.0</ele><time>2026-04-11T02:51:15.999Z</time></trkpt><trkpt lat="43.20804433992679" lon="11.49305134954438"><ele>248.4</ele><time>2026-04-11T02:51:16.999Z</time></trkpt><trkpt lat="43.208141285268375" lon="11.493131714819123"><ele>248.8</ele><time>2026-04-11T02:51:18.999Z</time></trkpt><trkpt lat="43.20823276620906" lon="11.493213204083743"><ele>249.2</ele><time>2026-04-11T02:51:20.999Z</time></trkpt><trkpt lat="43.20832288058827" lon="11.493307040499127"><ele>249.6</ele><time>2026-04-11T02:51:22.999Z</time></trkpt><trkpt lat="43.20841387343851" lon="11.49337972618953"><ele>250.0</ele><time>2026-04-11T02:51:24.999Z</time></trkpt><trkpt lat="43.20850040949406" lon="11.493459452015848"><ele>249.99999999999997</ele><time>2026-04-11T02:51:26.999Z</time></trkpt><trkpt lat="43.208584602217506" lon="11.493520985066153"><ele>250.0</ele><time>2026-04-11T02:51:28.999Z</time></trkpt><trkpt lat="43.20866927022263" lon="11.493592150714342"><ele>250.0</ele><time>2026-04-11T02:51:30.999Z</time></trkpt><trkpt lat="43.208739403279544" lon="11.493662189311133"><ele>250.0</ele><time>2026-04-11T02:51:32.999Z</time></trkpt><trkpt lat="43.20878601901726" lon="11.493745059773989"><ele>249.99999999999997</ele><time>2026-04-11T02:51:34.999Z</time></trkpt><trkpt lat="43.20883844719004" lon="11.493815685562419"><ele>250.0</ele><time>2026-04-11T02:51:36.999Z</time></trkpt><trkpt lat="43.20889346221001" lon="11.493913287154259"><ele>251.28571428571428</ele><time>2026-04-11T02:51:39.999Z</time></trkpt><trkpt lat="43.20893705468942" lon="11.494005395494453"><ele>252.57142857142858</ele><time>2026-04-11T02:51:42.999Z</time></trkpt><trkpt lat="43.208958321616" lon="11.49410524040832"><ele>253.85714285714286</ele><time>2026-04-11T02:51:45.999Z</time></trkpt><trkpt lat="43.20899105676317" lon="11.494194015479868"><ele>255.14285714285714</ele><time>2026-04-11T02:51:48.999Z</time></trkpt><trkpt lat="43.209016763957415" lon="11.494276962502129"><ele>256.42857142857144</ele><time>2026-04-11T02:51:51.999Z</time></trkpt><trkpt lat="43.2090446393791" lon="11.494374697578298"><ele>257.7142857142857</ele><time>2026-04-11T02:51:54.999Z</time></trkpt><trkpt lat="43.20906791874243" lon="11.494464232360267"><ele>259.0</ele><time>2026-04-11T02:51:57.999Z</time></trkpt><trkpt lat="43.20909127555321" lon="11.494558778408216"><ele>259.3333333333333</ele><time>2026-04-11T02:52:01Z</time></trkpt><trkpt lat="43.20911195913818" lon="11.494655789099324"><ele>259.66666666666663</ele><time>2026-04-11T02:52:04Z</time></trkpt><trkpt lat="43.209132346974336" lon="11.494753436807091"><ele>260.0</ele><time>2026-04-11T02:52:07Z</time></trkpt><trkpt lat="43.20916715358694" lon="11.49484548058301"><ele>260.3333333333333</ele><time>2026-04-11T02:52:10Z</time></trkpt><trkpt lat="43.20918366600055" lon="11.494952633061844"><ele>260.6666666666667</ele><time>2026-04-11T02:52:14Z</time></trkpt><trkpt lat="43.209197501042425" lon="11.4950661090244"><ele>261.0</ele><time>2026-04-11T02:52:18Z</time></trkpt><trkpt lat="43.20921248002151" lon="11.495160054973647"><ele>261.0</ele><time>2026-04-11T02:52:22Z</time></trkpt><trkpt lat="43.209222988418205" lon="11.4952609930508"><ele>261.0</ele><time>2026-04-11T02:52:26Z</time></trkpt><trkpt lat="43.209243230410095" lon="11.495349189623424"><ele>261.0</ele><time>2026-04-11T02:52:30Z</time></trkpt><trkpt lat="43.20925341388734" lon="11.495453309123858"><ele>261.0</ele><time>2026-04-11T02:52:34Z</time></trkpt><trkpt lat="43.20928563855503" lon="11.495550632084878"><ele>261.0</ele><time>2026-04-11T02:52:38Z</time></trkpt><trkpt lat="43.209323489099035" lon="11.495646712347842"><ele>261.0</ele><time>2026-04-11T02:52:42Z</time></trkpt><trkpt lat="43.209363947395495" lon="11.495747722247978"><ele>261.3333333333333</ele><time>2026-04-11T02:52:46Z</time></trkpt><trkpt lat="43.209398006512686" lon="11.495845061239196"><ele>261.6666666666667</ele><time>2026-04-11T02:52:50Z</time></trkpt><trkpt lat="43.20942654516119" lon="11.495936844826595"><ele>262.0</ele><time>2026-04-11T02:52:53Z</time></trkpt><trkpt lat="43.20945445654184" lon="11.496025582392145"><ele>262.33333333333337</ele><time>2026-04-11T02:52:56Z</time></trkpt><trkpt lat="43.2094857471959" lon="11.49612262398827"><ele>262.6666666666667</ele><time>2026-04-11T02:52:59Z</time></trkpt><trkpt lat="43.209534206860724" lon="11.496216386632257"><ele>263.0</ele><time>2026-04-11T02:53:02Z</time></trkpt><trkpt lat="43.20957719874321" lon="11.496334798609212"><ele>263.4</ele><time>2026-04-11T02:53:05Z</time></trkpt><trkpt lat="43.20961020740012" lon="11.496432309117347"><ele>263.8</ele><time>2026-04-11T02:53:07Z</time></trkpt><trkpt lat="43.20968070218188" lon="11.496549553428315"><ele>264.2</ele><time>2026-04-11T02:53:09Z</time></trkpt><trkpt lat="43.20974872137644" lon="11.496650547689542"><ele>264.6</ele><time>2026-04-11T02:53:11Z</time></trkpt><trkpt lat="43.209837473285276" lon="11.49675553342534"><ele>265.0</ele><time>2026-04-11T02:53:13Z</time></trkpt><trkpt lat="43.20992757267313" lon="11.496808139918373"><ele>265.0</ele><time>2026-04-11T02:53:15Z</time></trkpt><trkpt lat="43.21001792573926" lon="11.496904300343802"><ele>265.0</ele><time>2026-04-11T02:53:17Z</time></trkpt><trkpt lat="43.21011158157326" lon="11.496973402002043"><ele>265.0</ele><time>2026-04-11T02:53:18.999Z</time></trkpt><trkpt lat="43.21017336459926" lon="11.496993079406142"><ele>265.0</ele><time>2026-04-11T02:53:19.999Z</time></trkpt><trkpt lat="43.21028213482843" lon="11.497080296425427"><ele>265.0</ele><time>2026-04-11T02:53:21.999Z</time></trkpt><trkpt lat="43.21034544246706" lon="11.497127534455975"><ele>264.8</ele><time>2026-04-11T02:53:22.999Z</time></trkpt><trkpt lat="43.2104406039958" lon="11.497213358267453"><ele>264.6</ele><time>2026-04-11T02:53:24.999Z</time></trkpt><trkpt lat="43.210540676573956" lon="11.497294916354292"><ele>264.4</ele><time>2026-04-11T02:53:26.999Z</time></trkpt><trkpt lat="43.21063393740703" lon="11.49735955301129"><ele>264.2</ele><time>2026-04-11T02:53:28.999Z</time></trkpt><trkpt lat="43.2107118718644" lon="11.497450859654338"><ele>264.0</ele><time>2026-04-11T02:53:30.999Z</time></trkpt><trkpt lat="43.210789079836246" lon="11.49756406403387"><ele>264.0</ele><time>2026-04-11T02:53:32.999Z</time></trkpt><trkpt lat="43.210818806054654" lon="11.497689739195387"><ele>264.0</ele><time>2026-04-11T02:53:34.999Z</time></trkpt><trkpt lat="43.21084498355178" lon="11.497832379350692"><ele>264.0</ele><time>2026-04-11T02:53:36.999Z</time></trkpt><trkpt lat="43.210867970695546" lon="11.497959245880573"><ele>264.0</ele><time>2026-04-11T02:53:38.999Z</time></trkpt><trkpt lat="43.21089139990861" lon="11.498107102119869"><ele>264.0</ele><time>2026-04-11T02:53:40.999Z</time></trkpt><trkpt lat="43.21092971316713" lon="11.498257162633914"><ele>263.0</ele><time>2026-04-11T02:53:42.999Z</time></trkpt><trkpt lat="43.210970607655504" lon="11.498400283362791"><ele>262.0</ele><time>2026-04-11T02:53:44.999Z</time></trkpt><trkpt lat="43.211051469402186" lon="11.498517922648418"><ele>261.0</ele><time>2026-04-11T02:53:46.999Z</time></trkpt><trkpt lat="43.21109660338275" lon="11.498590929360386"><ele>260.0</ele><time>2026-04-11T02:53:47.999Z</time></trkpt><trkpt lat="43.21117772436561" lon="11.498641485071273"><ele>259.0</ele><time>2026-04-11T02:53:49.999Z</time></trkpt><trkpt lat="43.21126680671266" lon="11.498683369975078"><ele>259.0</ele><time>2026-04-11T02:53:51.999Z</time></trkpt><trkpt lat="43.21136036168116" lon="11.498690571591945"><ele>259.0</ele><time>2026-04-11T02:53:53.999Z</time></trkpt><trkpt lat="43.211437401284556" lon="11.498684963424656"><ele>259.0</ele><time>2026-04-11T02:53:55.999Z</time></trkpt><trkpt lat="43.211543351706666" lon="11.498660889290631"><ele>259.0</ele><time>2026-04-11T02:53:57.999Z</time></trkpt><trkpt lat="43.21163047746368" lon="11.498654971050401"><ele>259.0</ele><time>2026-04-11T02:53:59.999Z</time></trkpt><trkpt lat="43.21172797557223" lon="11.498621020026563"><ele>257.2</ele><time>2026-04-11T02:54:01.999Z</time></trkpt><trkpt lat="43.21181724224242" lon="11.498608180186753"><ele>255.39999999999998</ele><time>2026-04-11T02:54:03.999Z</time></trkpt><trkpt lat="43.21190762292948" lon="11.498604064933435"><ele>253.6</ele><time>2026-04-11T02:54:07Z</time></trkpt><trkpt lat="43.21199336555179" lon="11.498658103161924"><ele>251.8</ele><time>2026-04-11T02:54:09Z</time></trkpt><trkpt lat="43.212063955431056" lon="11.498747451481798"><ele>250.0</ele><time>2026-04-11T02:54:11Z</time></trkpt><trkpt lat="43.2121170342253" lon="11.49884212656257"><ele>248.8</ele><time>2026-04-11T02:54:13Z</time></trkpt><trkpt lat="43.21216393692294" lon="11.498959029283096"><ele>247.6</ele><time>2026-04-11T02:54:15Z</time></trkpt><trkpt lat="43.2121912141621" lon="11.499098695327127"><ele>246.39999999999998</ele><time>2026-04-11T02:54:17Z</time></trkpt><trkpt lat="43.212204850055564" lon="11.49923121080796"><ele>245.2</ele><time>2026-04-11T02:54:19Z</time></trkpt><trkpt lat="43.212188445722596" lon="11.499346840197123"><ele>244.0</ele><time>2026-04-11T02:54:21Z</time></trkpt><trkpt lat="43.21214750670989" lon="11.49945338948587"><ele>243.99999999999997</ele><time>2026-04-11T02:54:23Z</time></trkpt><trkpt lat="43.212074944989624" lon="11.499537481220127"><ele>244.0</ele><time>2026-04-11T02:54:25Z</time></trkpt><trkpt lat="43.21197163854081" lon="11.499588940232158"><ele>244.0</ele><time>2026-04-11T02:54:27Z</time></trkpt><trkpt lat="43.21190740584994" lon="11.499617940190763"><ele>244.0</ele><time>2026-04-11T02:54:28Z</time></trkpt><trkpt lat="43.2118454897892" lon="11.49964051141294"><ele>243.99999999999997</ele><time>2026-04-11T02:54:29Z</time></trkpt><trkpt lat="43.211742969739845" lon="11.499674831863814"><ele>244.0</ele><time>2026-04-11T02:54:31Z</time></trkpt><trkpt lat="43.21165419683942" lon="11.499765059543442"><ele>241.39999999999998</ele><time>2026-04-11T02:54:33Z</time></trkpt><trkpt lat="43.211584285571334" lon="11.499877833295438"><ele>238.79999999999998</ele><time>2026-04-11T02:54:35Z</time></trkpt><trkpt lat="43.21156550683252" lon="11.500006560981076"><ele>236.20000000000002</ele><time>2026-04-11T02:54:37Z</time></trkpt><trkpt lat="43.21151358680054" lon="11.500135668960903"><ele>233.60000000000002</ele><time>2026-04-11T02:54:39Z</time></trkpt><trkpt lat="43.211487707107004" lon="11.500272145791548"><ele>231.0</ele><time>2026-04-11T02:54:41Z</time></trkpt><trkpt lat="43.21146737990042" lon="11.50042399345939"><ele>228.0</ele><time>2026-04-11T02:54:43Z</time></trkpt><trkpt lat="43.21143893399806" lon="11.500576273894008"><ele>225.0</ele><time>2026-04-11T02:54:45Z</time></trkpt><trkpt lat="43.21140798561637" lon="11.50073505978951"><ele>222.0</ele><time>2026-04-11T02:54:47Z</time></trkpt><trkpt lat="43.21135356619388" lon="11.50087270145418"><ele>219.0</ele><time>2026-04-11T02:54:49Z</time></trkpt><trkpt lat="43.211271383514344" lon="11.50098318273998"><ele>219.0</ele><time>2026-04-11T02:54:51Z</time></trkpt><trkpt lat="43.21118875793677" lon="11.501052409536493"><ele>218.99999999999997</ele><time>2026-04-11T02:54:53Z</time></trkpt><trkpt lat="43.211104928938525" lon="11.501092877594068"><ele>218.99999999999997</ele><time>2026-04-11T02:54:55Z</time></trkpt><trkpt lat="43.211025166428634" lon="11.501126553182937"><ele>219.0</ele><time>2026-04-11T02:54:57Z</time></trkpt><trkpt lat="43.2109417724543" lon="11.50118604766581"><ele>219.0</ele><time>2026-04-11T02:54:59Z</time></trkpt><trkpt lat="43.210857152902584" lon="11.501249982075262"><ele>219.16666666666666</ele><time>2026-04-11T02:55:01Z</time></trkpt><trkpt lat="43.210787740273" lon="11.501314757403872"><ele>219.33333333333331</ele><time>2026-04-11T02:55:03Z</time></trkpt><trkpt lat="43.210721883909805" lon="11.501387430341513"><ele>219.5</ele><time>2026-04-11T02:55:05Z</time></trkpt><trkpt lat="43.210663287722355" lon="11.501471646947577"><ele>219.66666666666666</ele><time>2026-04-11T02:55:07Z</time></trkpt><trkpt lat="43.21060956879989" lon="11.501570027965075"><ele>219.83333333333331</ele><time>2026-04-11T02:55:08.999Z</time></trkpt><trkpt lat="43.21054581556303" lon="11.501676887207294"><ele>220.0</ele><time>2026-04-11T02:55:10.999Z</time></trkpt><trkpt lat="43.21051561023941" lon="11.501816905082366"><ele>220.0</ele><time>2026-04-11T02:55:12.999Z</time></trkpt><trkpt lat="43.21047036652118" lon="11.50195871210142"><ele>220.0</ele><time>2026-04-11T02:55:14.999Z</time></trkpt><trkpt lat="43.210443732671465" lon="11.502038136246595"><ele>220.0</ele><time>2026-04-11T02:55:15.999Z</time></trkpt><trkpt lat="43.21039872802875" lon="11.502177353181006"><ele>220.0</ele><time>2026-04-11T02:55:17.999Z</time></trkpt><trkpt lat="43.21034367965637" lon="11.502301097861784"><ele>220.0</ele><time>2026-04-11T02:55:19.999Z</time></trkpt><trkpt lat="43.210245890226766" lon="11.502395758544214"><ele>222.0</ele><time>2026-04-11T02:55:21.999Z</time></trkpt><trkpt lat="43.21014360313207" lon="11.50250629628631"><ele>224.0</ele><time>2026-04-11T02:55:23.999Z</time></trkpt><trkpt lat="43.21008420093637" lon="11.502561661706242"><ele>226.0</ele><time>2026-04-11T02:55:24.999Z</time></trkpt><trkpt lat="43.21002652815793" lon="11.502618473791529"><ele>228.0</ele><time>2026-04-11T02:55:25.999Z</time></trkpt><trkpt lat="43.20992510590666" lon="11.502718520039098"><ele>230.0</ele><time>2026-04-11T02:55:27.999Z</time></trkpt><trkpt lat="43.209835110741714" lon="11.502804472540218"><ele>228.6</ele><time>2026-04-11T02:55:29.999Z</time></trkpt><trkpt lat="43.209746287564386" lon="11.502900994233565"><ele>227.2</ele><time>2026-04-11T02:55:31.999Z</time></trkpt><trkpt lat="43.2096477293266" lon="11.502990122710411"><ele>225.8</ele><time>2026-04-11T02:55:33.999Z</time></trkpt><trkpt lat="43.209595900352255" lon="11.503047882334887"><ele>224.4</ele><time>2026-04-11T02:55:34.999Z</time></trkpt><trkpt lat="43.209544608267386" lon="11.503103799517053"><ele>223.0</ele><time>2026-04-11T02:55:35.999Z</time></trkpt><trkpt lat="43.20945250034242" lon="11.503201120939286"><ele>222.33333333333331</ele><time>2026-04-11T02:55:37.999Z</time></trkpt><trkpt lat="43.20936889697389" lon="11.503298871707155"><ele>221.66666666666666</ele><time>2026-04-11T02:55:39.999Z</time></trkpt><trkpt lat="43.20928302408036" lon="11.503415169899446"><ele>221.0</ele><time>2026-04-11T02:55:41.999Z</time></trkpt><trkpt lat="43.209239403782604" lon="11.50348336023512"><ele>220.33333333333331</ele><time>2026-04-11T02:55:42.999Z</time></trkpt><trkpt lat="43.20919211194379" lon="11.503555248779108"><ele>219.66666666666666</ele><time>2026-04-11T02:55:43.999Z</time></trkpt><trkpt lat="43.20915461734397" lon="11.50363012115811"><ele>219.0</ele><time>2026-04-11T02:55:44.999Z</time></trkpt><trkpt lat="43.20911576656474" lon="11.503702559910602"><ele>217.16666666666666</ele><time>2026-04-11T02:55:45.999Z</time></trkpt><trkpt lat="43.209077596758924" lon="11.503779252784192"><ele>215.33333333333331</ele><time>2026-04-11T02:55:46.999Z</time></trkpt><trkpt lat="43.20903918812475" lon="11.503850279422064"><ele>213.5</ele><time>2026-04-11T02:55:47.999Z</time></trkpt><trkpt lat="43.20899828471632" lon="11.50392493085253"><ele>211.66666666666666</ele><time>2026-04-11T02:55:48.999Z</time></trkpt><trkpt lat="43.20895441220481" lon="11.503999305977205"><ele>209.83333333333331</ele><time>2026-04-11T02:55:49.999Z</time></trkpt><trkpt lat="43.20891469494974" lon="11.504075845810203"><ele>208.0</ele><time>2026-04-11T02:55:50.999Z</time></trkpt><trkpt lat="43.2088377090954" lon="11.504218644186675"><ele>208.0</ele><time>2026-04-11T02:55:52.999Z</time></trkpt><trkpt lat="43.20875406972886" lon="11.504324782529089"><ele>208.0</ele><time>2026-04-11T02:55:54.999Z</time></trkpt><trkpt lat="43.20867770646801" lon="11.504422520442542"><ele>208.0</ele><time>2026-04-11T02:55:56.999Z</time></trkpt><trkpt lat="43.20856871960274" lon="11.504495461750189"><ele>208.0</ele><time>2026-04-11T02:55:58.999Z</time></trkpt><trkpt lat="43.208459076489135" lon="11.5045383554804"><ele>208.0</ele><time>2026-04-11T02:56:00.999Z</time></trkpt><trkpt lat="43.2083425306866" lon="11.504571536809431"><ele>208.0</ele><time>2026-04-11T02:56:02.999Z</time></trkpt><trkpt lat="43.20827980066705" lon="11.504581705287437"><ele>208.0</ele><time>2026-04-11T02:56:03.999Z</time></trkpt><trkpt lat="43.20814726968801" lon="11.504583111839437"><ele>208.0</ele><time>2026-04-11T02:56:05.999Z</time></trkpt><trkpt lat="43.2080339694383" lon="11.504572363023563"><ele>208.0</ele><time>2026-04-11T02:56:07.999Z</time></trkpt><trkpt lat="43.20797003311205" lon="11.504569675203285"><ele>205.33333333333331</ele><time>2026-04-11T02:56:08.999Z</time></trkpt><trkpt lat="43.20790708178321" lon="11.504555888083495"><ele>202.66666666666666</ele><time>2026-04-11T02:56:09.999Z</time></trkpt><trkpt lat="43.20782927941038" lon="11.504520872282542"><ele>200.0</ele><time>2026-04-11T02:56:12Z</time></trkpt><trkpt lat="43.20776333785231" lon="11.504531704209311"><ele>197.33333333333331</ele><time>2026-04-11T02:56:14Z</time></trkpt><trkpt lat="43.20773680991569" lon="11.504645764598221"><ele>194.66666666666666</ele><time>2026-04-11T02:56:17Z</time></trkpt><trkpt lat="43.20777022760336" lon="11.504721068264054"><ele>192.0</ele><time>2026-04-11T02:56:19Z</time></trkpt><trkpt lat="43.20785441537346" lon="11.504769228621795"><ele>192.0</ele><time>2026-04-11T02:56:21Z</time></trkpt><trkpt lat="43.20794822497274" lon="11.504835000791905"><ele>192.0</ele><time>2026-04-11T02:56:23Z</time></trkpt><trkpt lat="43.20805371736123" lon="11.50488599139472"><ele>192.0</ele><time>2026-04-11T02:56:25Z</time></trkpt><trkpt lat="43.208163315612495" lon="11.504940340233032"><ele>192.0</ele><time>2026-04-11T02:56:27Z</time></trkpt><trkpt lat="43.20827938594624" lon="11.504990189227838"><ele>192.0</ele><time>2026-04-11T02:56:29Z</time></trkpt><trkpt lat="43.20838937985906" lon="11.505051975473764"><ele>192.0</ele><time>2026-04-11T02:56:31Z</time></trkpt><trkpt lat="43.20849750507438" lon="11.50508771022777"><ele>192.0</ele><time>2026-04-11T02:56:33Z</time></trkpt><trkpt lat="43.20856600105931" lon="11.505092784578679"><ele>192.0</ele><time>2026-04-11T02:56:34Z</time></trkpt><trkpt lat="43.20867909833956" lon="11.505100516610089"><ele>192.0</ele><time>2026-04-11T02:56:36Z</time></trkpt><trkpt lat="43.208793070026346" lon="11.505122846830028"><ele>192.0</ele><time>2026-04-11T02:56:38Z</time></trkpt><trkpt lat="43.208857866359594" lon="11.50513388536982"><ele>192.0</ele><time>2026-04-11T02:56:39Z</time></trkpt><trkpt lat="43.20895062100295" lon="11.505176101850223"><ele>192.0</ele><time>2026-04-11T02:56:41Z</time></trkpt><trkpt lat="43.20906678360895" lon="11.505165017204197"><ele>192.0</ele><time>2026-04-11T02:56:43Z</time></trkpt><trkpt lat="43.20917407456974" lon="11.50511221858677"><ele>192.0</ele><time>2026-04-11T02:56:45Z</time></trkpt><trkpt lat="43.20925142884686" lon="11.50503448042605"><ele>190.6</ele><time>2026-04-11T02:56:47Z</time></trkpt><trkpt lat="43.209325260379224" lon="11.504983246112102"><ele>189.2</ele><time>2026-04-11T02:56:49Z</time></trkpt><trkpt lat="43.2094045643029" lon="11.504929450807413"><ele>187.8</ele><time>2026-04-11T02:56:51Z</time></trkpt><trkpt lat="43.20950345002056" lon="11.50493156001264"><ele>186.4</ele><time>2026-04-11T02:56:53Z</time></trkpt><trkpt lat="43.20960880110556" lon="11.5049317441664"><ele>185.0</ele><time>2026-04-11T02:56:55Z</time></trkpt><trkpt lat="43.20970003277846" lon="11.5049704654202"><ele>185.0</ele><time>2026-04-11T02:56:57Z</time></trkpt><trkpt lat="43.209779678807124" lon="11.505024635371539"><ele>185.0</ele><time>2026-04-11T02:56:59Z</time></trkpt><trkpt lat="43.2098666665486" lon="11.505093743991877"><ele>185.0</ele><time>2026-04-11T02:57:01Z</time></trkpt><trkpt lat="43.20995737942518" lon="11.505178470917143"><ele>185.0</ele><time>2026-04-11T02:57:03Z</time></trkpt><trkpt lat="43.21004625833809" lon="11.505253563098815"><ele>185.0</ele><time>2026-04-11T02:57:05Z</time></trkpt><trkpt lat="43.210135891352934" lon="11.505351572603711"><ele>183.4</ele><time>2026-04-11T02:57:07Z</time></trkpt><trkpt lat="43.21024858323334" lon="11.505384153410716"><ele>181.8</ele><time>2026-04-11T02:57:09Z</time></trkpt><trkpt lat="43.21033556314901" lon="11.505431770621415"><ele>180.2</ele><time>2026-04-11T02:57:11Z</time></trkpt><trkpt lat="43.21044445917212" lon="11.505457203289058"><ele>178.6</ele><time>2026-04-11T02:57:13Z</time></trkpt><trkpt lat="43.210565274618084" lon="11.505482914971086"><ele>177.0</ele><time>2026-04-11T02:57:15Z</time></trkpt><trkpt lat="43.2106456753792" lon="11.505485168598344"><ele>176.5</ele><time>2026-04-11T02:57:16Z</time></trkpt><trkpt lat="43.2107102107796" lon="11.505477945104014"><ele>176.0</ele><time>2026-04-11T02:57:17Z</time></trkpt><trkpt lat="43.210788766104855" lon="11.505457626193765"><ele>175.5</ele><time>2026-04-11T02:57:18Z</time></trkpt><trkpt lat="43.21087061143938" lon="11.505430118438586"><ele>175.0</ele><time>2026-04-11T02:57:19Z</time></trkpt><trkpt lat="43.210940097968326" lon="11.505380874564077"><ele>174.5</ele><time>2026-04-11T02:57:20Z</time></trkpt><trkpt lat="43.21105661732064" lon="11.505346374584054"><ele>174.0</ele><time>2026-04-11T02:57:22Z</time></trkpt><trkpt lat="43.21116408965583" lon="11.505352262920399"><ele>174.0</ele><time>2026-04-11T02:57:24Z</time></trkpt><trkpt lat="43.211242599682166" lon="11.505410239170493"><ele>174.0</ele><time>2026-04-11T02:57:26Z</time></trkpt><trkpt lat="43.211296067315416" lon="11.505465304459172"><ele>174.0</ele><time>2026-04-11T02:57:27Z</time></trkpt><trkpt lat="43.211370518597015" lon="11.50560589406027"><ele>174.0</ele><time>2026-04-11T02:57:28.999Z</time></trkpt><trkpt lat="43.21141458793545" lon="11.50575327803173"><ele>174.0</ele><time>2026-04-11T02:57:30.999Z</time></trkpt><trkpt lat="43.21143761999304" lon="11.505834943227372"><ele>171.75</ele><time>2026-04-11T02:57:31.999Z</time></trkpt><trkpt lat="43.21148757947038" lon="11.50598662970103"><ele>169.5</ele><time>2026-04-11T02:57:33.999Z</time></trkpt><trkpt lat="43.21153530242314" lon="11.506133196618"><ele>167.25</ele><time>2026-04-11T02:57:35.999Z</time></trkpt><trkpt lat="43.21157855152418" lon="11.5062801098003"><ele>165.0</ele><time>2026-04-11T02:57:37.999Z</time></trkpt><trkpt lat="43.211619670563685" lon="11.506436726367186"><ele>165.0</ele><time>2026-04-11T02:57:39.999Z</time></trkpt><trkpt lat="43.21166354363322" lon="11.506584179605401"><ele>165.0</ele><time>2026-04-11T02:57:41.999Z</time></trkpt><trkpt lat="43.2117025511041" lon="11.5067384109006"><ele>165.0</ele><time>2026-04-11T02:57:43.999Z</time></trkpt><trkpt lat="43.21174546489321" lon="11.506884813891254"><ele>165.0</ele><time>2026-04-11T02:57:45.999Z</time></trkpt><trkpt lat="43.21179224899085" lon="11.507032260715029"><ele>164.8</ele><time>2026-04-11T02:57:47.999Z</time></trkpt><trkpt lat="43.211831516874476" lon="11.50718408918064"><ele>164.6</ele><time>2026-04-11T02:57:49.999Z</time></trkpt><trkpt lat="43.211882545056156" lon="11.5073343236029"><ele>164.39999999999998</ele><time>2026-04-11T02:57:51.999Z</time></trkpt><trkpt lat="43.21193149008665" lon="11.507485470673092"><ele>164.2</ele><time>2026-04-11T02:57:53.999Z</time></trkpt><trkpt lat="43.2119658062672" lon="11.507562364399117"><ele>164.0</ele><time>2026-04-11T02:57:54.999Z</time></trkpt><trkpt lat="43.21205605016984" lon="11.507681317633704"><ele>164.0</ele><time>2026-04-11T02:57:56.999Z</time></trkpt><trkpt lat="43.21215517684529" lon="11.50776211727052"><ele>164.0</ele><time>2026-04-11T02:57:58.999Z</time></trkpt><trkpt lat="43.212213635515134" lon="11.507801868461323"><ele>164.0</ele><time>2026-04-11T02:57:59.999Z</time></trkpt><trkpt lat="43.21227470151499" lon="11.50783523819768"><ele>164.0</ele><time>2026-04-11T02:58:00.999Z</time></trkpt><trkpt lat="43.21233931977723" lon="11.507858055632063"><ele>164.0</ele><time>2026-04-11T02:58:01.999Z</time></trkpt><trkpt lat="43.21239386074902" lon="11.50791949711097"><ele>164.0</ele><time>2026-04-11T02:58:02.999Z</time></trkpt><trkpt lat="43.21245715580533" lon="11.507947115059897"><ele>163.6</ele><time>2026-04-11T02:58:03.999Z</time></trkpt><trkpt lat="43.21254994514419" lon="11.508071327034468"><ele>163.2</ele><time>2026-04-11T02:58:05.999Z</time></trkpt><trkpt lat="43.212616837131726" lon="11.508220234486792"><ele>162.79999999999998</ele><time>2026-04-11T02:58:07.999Z</time></trkpt><trkpt lat="43.21268935063637" lon="11.508356702308475"><ele>162.39999999999998</ele><time>2026-04-11T02:58:09.999Z</time></trkpt><trkpt lat="43.21272214712046" lon="11.508433452927141"><ele>162.0</ele><time>2026-04-11T02:58:10.999Z</time></trkpt><trkpt lat="43.21275913911984" lon="11.508508368966014"><ele>162.0</ele><time>2026-04-11T02:58:11.999Z</time></trkpt><trkpt lat="43.212823655747215" lon="11.50864604934087"><ele>162.0</ele><time>2026-04-11T02:58:13.999Z</time></trkpt><trkpt lat="43.21288606465517" lon="11.508784608931023"><ele>162.0</ele><time>2026-04-11T02:58:15.999Z</time></trkpt><trkpt lat="43.2129521953602" lon="11.508922144126524"><ele>162.0</ele><time>2026-04-11T02:58:18Z</time></trkpt><trkpt lat="43.213012976374806" lon="11.50906963689758"><ele>161.8</ele><time>2026-04-11T02:58:20Z</time></trkpt><trkpt lat="43.21307552023925" lon="11.509196704550222"><ele>161.6</ele><time>2026-04-11T02:58:22Z</time></trkpt><trkpt lat="43.21313939060563" lon="11.50932388117878"><ele>161.4</ele><time>2026-04-11T02:58:24Z</time></trkpt><trkpt lat="43.21321245120271" lon="11.509441257774052"><ele>161.20000000000002</ele><time>2026-04-11T02:58:26Z</time></trkpt><trkpt lat="43.213277259388995" lon="11.509561286764253"><ele>161.0</ele><time>2026-04-11T02:58:28Z</time></trkpt><trkpt lat="43.21335784224526" lon="11.509667181388552"><ele>161.4</ele><time>2026-04-11T02:58:30Z</time></trkpt><trkpt lat="43.213445280685576" lon="11.509769439709732"><ele>161.8</ele><time>2026-04-11T02:58:32Z</time></trkpt><trkpt lat="43.21349985231739" lon="11.509816213776654"><ele>162.20000000000002</ele><time>2026-04-11T02:58:33Z</time></trkpt><trkpt lat="43.21354853780082" lon="11.509892897125049"><ele>162.60000000000002</ele><time>2026-04-11T02:58:34Z</time></trkpt><trkpt lat="43.21363172243188" lon="11.509989260669672"><ele>163.0</ele><time>2026-04-11T02:58:36Z</time></trkpt><trkpt lat="43.21371041982283" lon="11.510093930206223"><ele>163.0</ele><time>2026-04-11T02:58:38Z</time></trkpt><trkpt lat="43.21379007008626" lon="11.510202856555733"><ele>163.0</ele><time>2026-04-11T02:58:40Z</time></trkpt><trkpt lat="43.21387649189002" lon="11.510300634842714"><ele>163.0</ele><time>2026-04-11T02:58:42Z</time></trkpt><trkpt lat="43.21393786512894" lon="11.510418724416256"><ele>163.0</ele><time>2026-04-11T02:58:44Z</time></trkpt><trkpt lat="43.21398152757817" lon="11.51050331442141"><ele>163.0</ele><time>2026-04-11T02:58:46Z</time></trkpt><trkpt lat="43.21402340812636" lon="11.510620514970258"><ele>163.2</ele><time>2026-04-11T02:58:48Z</time></trkpt><trkpt lat="43.214096389206084" lon="11.510739502147283"><ele>163.4</ele><time>2026-04-11T02:58:50Z</time></trkpt><trkpt lat="43.2141522610938" lon="11.51084552817164"><ele>163.6</ele><time>2026-04-11T02:58:52Z</time></trkpt><trkpt lat="43.214215205333836" lon="11.510962442807616"><ele>163.79999999999998</ele><time>2026-04-11T02:58:54Z</time></trkpt><trkpt lat="43.214249667405696" lon="11.51108975609313"><ele>164.0</ele><time>2026-04-11T02:58:56Z</time></trkpt><trkpt lat="43.214260358980624" lon="11.511240610666377"><ele>164.33333333333331</ele><time>2026-04-11T02:58:58Z</time></trkpt><trkpt lat="43.214247872195685" lon="11.511383555664274"><ele>164.66666666666666</ele><time>2026-04-11T02:59:00Z</time></trkpt><trkpt lat="43.214218355847365" lon="11.511509836386146"><ele>165.0</ele><time>2026-04-11T02:59:02Z</time></trkpt><trkpt lat="43.21420333137834" lon="11.5116157943082"><ele>165.33333333333334</ele><time>2026-04-11T02:59:04Z</time></trkpt><trkpt lat="43.21418905384387" lon="11.511714972909482"><ele>165.66666666666669</ele><time>2026-04-11T02:59:06Z</time></trkpt><trkpt lat="43.21418091273356" lon="11.511835525967665"><ele>166.0</ele><time>2026-04-11T02:59:09Z</time></trkpt><trkpt lat="43.21421175050486" lon="11.511938998569521"><ele>166.0</ele><time>2026-04-11T02:59:12Z</time></trkpt><trkpt lat="43.214246471877296" lon="11.512044828939336"><ele>166.0</ele><time>2026-04-11T02:59:15Z</time></trkpt><trkpt lat="43.214270765420956" lon="11.512143404688322"><ele>166.0</ele><time>2026-04-11T02:59:18Z</time></trkpt><trkpt lat="43.21431965779309" lon="11.512207040203684"><ele>166.0</ele><time>2026-04-11T02:59:21Z</time></trkpt><trkpt lat="43.21436018981075" lon="11.51229304688688"><ele>166.0</ele><time>2026-04-11T02:59:24Z</time></trkpt><trkpt lat="43.21441133585266" lon="11.512352967578515"><ele>166.0</ele><time>2026-04-11T02:59:26.999Z</time></trkpt><trkpt lat="43.214472645484705" lon="11.512407082474985"><ele>166.0</ele><time>2026-04-11T02:59:29.999Z</time></trkpt><trkpt lat="43.214530316627624" lon="11.51245926667423"><ele>166.28571428571428</ele><time>2026-04-11T02:59:32.999Z</time></trkpt><trkpt lat="43.21458675188371" lon="11.512515171482352"><ele>166.57142857142858</ele><time>2026-04-11T02:59:35.999Z</time></trkpt><trkpt lat="43.21464243890608" lon="11.512570650335181"><ele>166.85714285714286</ele><time>2026-04-11T02:59:38.999Z</time></trkpt><trkpt lat="43.214708620796515" lon="11.512608508075793"><ele>167.14285714285714</ele><time>2026-04-11T02:59:41.999Z</time></trkpt><trkpt lat="43.214757047641044" lon="11.512670457732561"><ele>167.42857142857144</ele><time>2026-04-11T02:59:44.999Z</time></trkpt><trkpt lat="43.2148108892362" lon="11.512721704234357"><ele>167.71428571428572</ele><time>2026-04-11T02:59:47.999Z</time></trkpt><trkpt lat="43.21486560048002" lon="11.51277225665494"><ele>168.0</ele><time>2026-04-11T02:59:50.999Z</time></trkpt><trkpt lat="43.21492010891631" lon="11.512815882902878"><ele>169.66666666666666</ele><time>2026-04-11T02:59:53.999Z</time></trkpt><trkpt lat="43.21498088476148" lon="11.512882208086525"><ele>171.33333333333334</ele><time>2026-04-11T02:59:57.999Z</time></trkpt><trkpt lat="43.21504625953556" lon="11.512938120898658"><ele>173.0</ele><time>2026-04-11T03:00:01.999Z</time></trkpt><trkpt lat="43.21509838234459" lon="11.513003832297601"><ele>174.66666666666669</ele><time>2026-04-11T03:00:05.999Z</time></trkpt><trkpt lat="43.21516083332966" lon="11.51306991021112"><ele>176.33333333333334</ele><time>2026-04-11T03:00:09.999Z</time></trkpt><trkpt lat="43.21522240811424" lon="11.513138836373953"><ele>178.0</ele><time>2026-04-11T03:00:13.999Z</time></trkpt><trkpt lat="43.215267750473394" lon="11.51321976848197"><ele>178.33333333333334</ele><time>2026-04-11T03:00:17.999Z</time></trkpt><trkpt lat="43.2153219037211" lon="11.513301308663765"><ele>178.66666666666669</ele><time>2026-04-11T03:00:21.999Z</time></trkpt><trkpt lat="43.21537009906511" lon="11.513393072727142"><ele>179.0</ele><time>2026-04-11T03:00:26Z</time></trkpt><trkpt lat="43.21540688811108" lon="11.513478791813476"><ele>179.33333333333334</ele><time>2026-04-11T03:00:29Z</time></trkpt><trkpt lat="43.215436412350186" lon="11.513571484713207"><ele>179.66666666666666</ele><time>2026-04-11T03:00:32Z</time></trkpt><trkpt lat="43.215461245662325" lon="11.51367384813399"><ele>180.0</ele><time>2026-04-11T03:00:35Z</time></trkpt><trkpt lat="43.21549084010903" lon="11.513791049197469"><ele>180.33333333333334</ele><time>2026-04-11T03:00:38Z</time></trkpt><trkpt lat="43.21551913549394" lon="11.513868998802279"><ele>180.66666666666666</ele><time>2026-04-11T03:00:40Z</time></trkpt><trkpt lat="43.21553238718252" lon="11.51397089610661"><ele>181.0</ele><time>2026-04-11T03:00:42Z</time></trkpt><trkpt lat="43.21556505034398" lon="11.514093094301705"><ele>181.33333333333331</ele><time>2026-04-11T03:00:44Z</time></trkpt><trkpt lat="43.21560750576578" lon="11.514255038903952"><ele>181.66666666666666</ele><time>2026-04-11T03:00:46Z</time></trkpt><trkpt lat="43.21563906301454" lon="11.514340237107508"><ele>182.0</ele><time>2026-04-11T03:00:47Z</time></trkpt><trkpt lat="43.21567124946336" lon="11.514428144392614"><ele>182.33333333333331</ele><time>2026-04-11T03:00:48Z</time></trkpt><trkpt lat="43.21570658406096" lon="11.514522433480153"><ele>182.66666666666666</ele><time>2026-04-11T03:00:49Z</time></trkpt><trkpt lat="43.21574154716198" lon="11.514626604787095"><ele>183.0</ele><time>2026-04-11T03:00:50Z</time></trkpt><trkpt lat="43.21577582982083" lon="11.514729927221964"><ele>183.33333333333334</ele><time>2026-04-11T03:00:51Z</time></trkpt><trkpt lat="43.21581113543287" lon="11.51482659179057"><ele>183.66666666666669</ele><time>2026-04-11T03:00:52Z</time></trkpt><trkpt lat="43.21584425843139" lon="11.514921295973378"><ele>184.0</ele><time>2026-04-11T03:00:53Z</time></trkpt><trkpt lat="43.21587656564686" lon="11.515020606019881"><ele>182.33333333333334</ele><time>2026-04-11T03:00:54Z</time></trkpt><trkpt lat="43.21591082271785" lon="11.515128255825584"><ele>180.66666666666669</ele><time>2026-04-11T03:00:55Z</time></trkpt><trkpt lat="43.21594260216807" lon="11.515234522854339"><ele>179.0</ele><time>2026-04-11T03:00:56Z</time></trkpt><trkpt lat="43.215978559298655" lon="11.515340866967717"><ele>177.33333333333334</ele><time>2026-04-11T03:00:57Z</time></trkpt><trkpt lat="43.21601297256594" lon="11.515451319806779"><ele>175.66666666666666</ele><time>2026-04-11T03:00:58Z</time></trkpt><trkpt lat="43.216049942615754" lon="11.515563847960516"><ele>174.0</ele><time>2026-04-11T03:00:59Z</time></trkpt><trkpt lat="43.21609579845379" lon="11.515672152832432"><ele>172.79999999999998</ele><time>2026-04-11T03:01:00Z</time></trkpt><trkpt lat="43.21614670166884" lon="11.515775203607625"><ele>171.6</ele><time>2026-04-11T03:01:01Z</time></trkpt><trkpt lat="43.21619504687827" lon="11.5158824481941"><ele>170.4</ele><time>2026-04-11T03:01:02Z</time></trkpt><trkpt lat="43.216245035569685" lon="11.515985773884562"><ele>169.2</ele><time>2026-04-11T03:01:03Z</time></trkpt><trkpt lat="43.21629728183641" lon="11.51608289168952"><ele>168.0</ele><time>2026-04-11T03:01:04Z</time></trkpt><trkpt lat="43.21635108210759" lon="11.516179475093447"><ele>168.16666666666666</ele><time>2026-04-11T03:01:05Z</time></trkpt><trkpt lat="43.21640409773319" lon="11.516278315842689"><ele>168.33333333333334</ele><time>2026-04-11T03:01:06Z</time></trkpt><trkpt lat="43.21645522333458" lon="11.516371867295648"><ele>168.5</ele><time>2026-04-11T03:01:07Z</time></trkpt><trkpt lat="43.21650413110645" lon="11.516459833704584"><ele>168.66666666666669</ele><time>2026-04-11T03:01:08Z</time></trkpt><trkpt lat="43.21654953845646" lon="11.516549165177063"><ele>168.83333333333334</ele><time>2026-04-11T03:01:09Z</time></trkpt><trkpt lat="43.21658791890748" lon="11.516628924436818"><ele>169.0</ele><time>2026-04-11T03:01:10Z</time></trkpt><trkpt lat="43.216630126920286" lon="11.516709834881524"><ele>169.0</ele><time>2026-04-11T03:01:11Z</time></trkpt><trkpt lat="43.216666772717936" lon="11.516780838144415"><ele>169.0</ele><time>2026-04-11T03:01:12Z</time></trkpt><trkpt lat="43.216703855263695" lon="11.516854971699095"><ele>169.0</ele><time>2026-04-11T03:01:13Z</time></trkpt><trkpt lat="43.2167643912084" lon="11.516999525758061"><ele>169.0</ele><time>2026-04-11T03:01:15Z</time></trkpt><trkpt lat="43.21679437857022" lon="11.517080136644823"><ele>169.0</ele><time>2026-04-11T03:01:16Z</time></trkpt><trkpt lat="43.21685299666619" lon="11.517200568332424"><ele>169.0</ele><time>2026-04-11T03:01:18Z</time></trkpt><trkpt lat="43.21690103169698" lon="11.517309599432497"><ele>169.0</ele><time>2026-04-11T03:01:20Z</time></trkpt><trkpt lat="43.21694569022664" lon="11.517427008901215"><ele>169.0</ele><time>2026-04-11T03:01:22Z</time></trkpt><trkpt lat="43.21699350835655" lon="11.517536331821207"><ele>169.0</ele><time>2026-04-11T03:01:24Z</time></trkpt><trkpt lat="43.217035988860346" lon="11.517645835022758"><ele>169.0</ele><time>2026-04-11T03:01:26Z</time></trkpt><trkpt lat="43.21707910625766" lon="11.51775393630599"><ele>169.0</ele><time>2026-04-11T03:01:28Z</time></trkpt><trkpt lat="43.21710774812781" lon="11.517846406996037"><ele>169.0</ele><time>2026-04-11T03:01:30Z</time></trkpt><trkpt lat="43.217153457163626" lon="11.517944708543416"><ele>169.0</ele><time>2026-04-11T03:01:32Z</time></trkpt><trkpt lat="43.217192740330375" lon="11.518052956361545"><ele>169.0</ele><time>2026-04-11T03:01:34Z</time></trkpt><trkpt lat="43.21723951421404" lon="11.518159119085551"><ele>169.0</ele><time>2026-04-11T03:01:35.999Z</time></trkpt><trkpt lat="43.217277438476756" lon="11.518268683600462"><ele>169.0</ele><time>2026-04-11T03:01:37.999Z</time></trkpt><trkpt lat="43.217321587236874" lon="11.51838121494081"><ele>169.0</ele><time>2026-04-11T03:01:39.999Z</time></trkpt><trkpt lat="43.21736043295576" lon="11.518511262036554"><ele>169.83333333333334</ele><time>2026-04-11T03:01:41.999Z</time></trkpt><trkpt lat="43.21741169021662" lon="11.518657691454159"><ele>170.66666666666669</ele><time>2026-04-11T03:01:43.999Z</time></trkpt><trkpt lat="43.21742964177749" lon="11.5187437286542"><ele>171.5</ele><time>2026-04-11T03:01:44.999Z</time></trkpt><trkpt lat="43.217446935862185" lon="11.51882906369119"><ele>172.33333333333334</ele><time>2026-04-11T03:01:45.999Z</time></trkpt><trkpt lat="43.21745783883658" lon="11.518917289301442"><ele>173.16666666666666</ele><time>2026-04-11T03:01:46.999Z</time></trkpt><trkpt lat="43.217481131450334" lon="11.51908222831726"><ele>174.0</ele><time>2026-04-11T03:01:48.999Z</time></trkpt><trkpt lat="43.21748104412884" lon="11.519242660140733"><ele>174.0</ele><time>2026-04-11T03:01:50.999Z</time></trkpt><trkpt lat="43.2174766488882" lon="11.519380098917535"><ele>174.0</ele><time>2026-04-11T03:01:52.999Z</time></trkpt><trkpt lat="43.21746782099445" lon="11.519508479734972"><ele>174.0</ele><time>2026-04-11T03:01:54.999Z</time></trkpt><trkpt lat="43.21745822490455" lon="11.519603480475563"><ele>174.0</ele><time>2026-04-11T03:01:56.999Z</time></trkpt><trkpt lat="43.21744352926822" lon="11.519689303892642"><ele>174.0</ele><time>2026-04-11T03:01:58.999Z</time></trkpt><trkpt lat="43.21743533153702" lon="11.519777240930404"><ele>174.0</ele><time>2026-04-11T03:02:00.999Z</time></trkpt><trkpt lat="43.217426845749394" lon="11.51988183969814"><ele>174.85714285714286</ele><time>2026-04-11T03:02:03.999Z</time></trkpt><trkpt lat="43.217420357456334" lon="11.519992070706662"><ele>175.71428571428572</ele><time>2026-04-11T03:02:06.999Z</time></trkpt><trkpt lat="43.21742055230812" lon="11.520094579522583"><ele>176.57142857142856</ele><time>2026-04-11T03:02:09.999Z</time></trkpt><trkpt lat="43.21741937023254" lon="11.52019011521452"><ele>177.42857142857144</ele><time>2026-04-11T03:02:12.999Z</time></trkpt><trkpt lat="43.21741120985773" lon="11.520285034878293"><ele>178.2857142857143</ele><time>2026-04-11T03:02:15.999Z</time></trkpt><trkpt lat="43.21740590004261" lon="11.520374678974173"><ele>179.14285714285714</ele><time>2026-04-11T03:02:18.999Z</time></trkpt><trkpt lat="43.21740356071939" lon="11.520464989380793"><ele>180.0</ele><time>2026-04-11T03:02:21.999Z</time></trkpt><trkpt lat="43.217389886574274" lon="11.520551491762449"><ele>180.83333333333334</ele><time>2026-04-11T03:02:24.999Z</time></trkpt><trkpt lat="43.217390915403385" lon="11.520658938972346"><ele>181.66666666666666</ele><time>2026-04-11T03:02:28.999Z</time></trkpt><trkpt lat="43.2173999569669" lon="11.520767713817424"><ele>182.5</ele><time>2026-04-11T03:02:33Z</time></trkpt><trkpt lat="43.21741113749633" lon="11.520852850421342"><ele>183.33333333333331</ele><time>2026-04-11T03:02:36Z</time></trkpt><trkpt lat="43.21744264048508" lon="11.52094903993163"><ele>184.16666666666666</ele><time>2026-04-11T03:02:39Z</time></trkpt><trkpt lat="43.21746488632819" lon="11.52105298833956"><ele>185.0</ele><time>2026-04-11T03:02:42Z</time></trkpt><trkpt lat="43.217512246690596" lon="11.521149449585263"><ele>185.0</ele><time>2026-04-11T03:02:45Z</time></trkpt><trkpt lat="43.21755482342743" lon="11.521222768535772"><ele>185.0</ele><time>2026-04-11T03:02:47Z</time></trkpt><trkpt lat="43.21761342548674" lon="11.521280399115767"><ele>185.0</ele><time>2026-04-11T03:02:49Z</time></trkpt><trkpt lat="43.217684558908076" lon="11.521353264500442"><ele>185.0</ele><time>2026-04-11T03:02:51Z</time></trkpt><trkpt lat="43.21776752579742" lon="11.521411513435579"><ele>185.0</ele><time>2026-04-11T03:02:53Z</time></trkpt><trkpt lat="43.21785838741136" lon="11.521470023699601"><ele>185.0</ele><time>2026-04-11T03:02:55Z</time></trkpt><trkpt lat="43.21796586615342" lon="11.52152952221431"><ele>185.33333333333331</ele><time>2026-04-11T03:02:57Z</time></trkpt><trkpt lat="43.21806698334855" lon="11.521607316867092"><ele>185.66666666666666</ele><time>2026-04-11T03:02:59Z</time></trkpt><trkpt lat="43.21811957518565" lon="11.521666499715836"><ele>186.0</ele><time>2026-04-11T03:03:00Z</time></trkpt><trkpt lat="43.21815721608495" lon="11.521739679210818"><ele>186.33333333333334</ele><time>2026-04-11T03:03:01Z</time></trkpt><trkpt lat="43.21815647695757" lon="11.52183844745189"><ele>186.66666666666669</ele><time>2026-04-11T03:03:02Z</time></trkpt><trkpt lat="43.21818172291494" lon="11.521920365157508"><ele>187.0</ele><time>2026-04-11T03:03:03Z</time></trkpt><trkpt lat="43.21816316094222" lon="11.522015989140037"><ele>185.83333333333334</ele><time>2026-04-11T03:03:04Z</time></trkpt><trkpt lat="43.218168316871456" lon="11.522105763984365"><ele>184.66666666666669</ele><time>2026-04-11T03:03:05Z</time></trkpt><trkpt lat="43.21819376563827" lon="11.522284911406805"><ele>183.5</ele><time>2026-04-11T03:03:07Z</time></trkpt><trkpt lat="43.21823539412276" lon="11.522372864441381"><ele>182.33333333333334</ele><time>2026-04-11T03:03:08Z</time></trkpt><trkpt lat="43.21824813941979" lon="11.522479163188589"><ele>181.16666666666666</ele><time>2026-04-11T03:03:09Z</time></trkpt><trkpt lat="43.21827979539346" lon="11.522579400689194"><ele>180.0</ele><time>2026-04-11T03:03:10Z</time></trkpt><trkpt lat="43.218308300676995" lon="11.522678616901826"><ele>180.0</ele><time>2026-04-11T03:03:11Z</time></trkpt><trkpt lat="43.218347734763874" lon="11.522776337449297"><ele>180.0</ele><time>2026-04-11T03:03:12Z</time></trkpt><trkpt lat="43.21837877336613" lon="11.522872963965554"><ele>180.0</ele><time>2026-04-11T03:03:13Z</time></trkpt><trkpt lat="43.21840909033451" lon="11.52296241005465"><ele>180.0</ele><time>2026-04-11T03:03:14Z</time></trkpt><trkpt lat="43.21843528254789" lon="11.523055848614744"><ele>180.0</ele><time>2026-04-11T03:03:15Z</time></trkpt><trkpt lat="43.21846895503613" lon="11.523140103599305"><ele>180.0</ele><time>2026-04-11T03:03:16Z</time></trkpt><trkpt lat="43.21851137423237" lon="11.523227277239751"><ele>178.66666666666666</ele><time>2026-04-11T03:03:17Z</time></trkpt><trkpt lat="43.21855637344195" lon="11.523316649772422"><ele>177.33333333333334</ele><time>2026-04-11T03:03:18Z</time></trkpt><trkpt lat="43.21860554391176" lon="11.523409756229471"><ele>176.0</ele><time>2026-04-11T03:03:19Z</time></trkpt><trkpt lat="43.21865605993717" lon="11.523497831177917"><ele>174.66666666666669</ele><time>2026-04-11T03:03:20Z</time></trkpt><trkpt lat="43.21869949948743" lon="11.523581204480251"><ele>173.33333333333334</ele><time>2026-04-11T03:03:21Z</time></trkpt><trkpt lat="43.218747818128406" lon="11.523660316691865"><ele>172.0</ele><time>2026-04-11T03:03:22Z</time></trkpt><trkpt lat="43.21879122220646" lon="11.52373195773897"><ele>172.00000000000003</ele><time>2026-04-11T03:03:23Z</time></trkpt><trkpt lat="43.218836411506395" lon="11.523797745553484"><ele>172.0</ele><time>2026-04-11T03:03:24Z</time></trkpt><trkpt lat="43.218880023200285" lon="11.523871323906784"><ele>172.0</ele><time>2026-04-11T03:03:25Z</time></trkpt><trkpt lat="43.21892204268472" lon="11.523946155758162"><ele>172.0</ele><time>2026-04-11T03:03:26Z</time></trkpt><trkpt lat="43.2189672350551" lon="11.524027126867697"><ele>172.0</ele><time>2026-04-11T03:03:27Z</time></trkpt><trkpt lat="43.219012105400616" lon="11.524108698475917"><ele>172.00000000000003</ele><time>2026-04-11T03:03:28Z</time></trkpt><trkpt lat="43.21905705929568" lon="11.52418806333752"><ele>172.0</ele><time>2026-04-11T03:03:29Z</time></trkpt><trkpt lat="43.219106755659986" lon="11.524264312753656"><ele>172.00000000000003</ele><time>2026-04-11T03:03:30Z</time></trkpt><trkpt lat="43.21914761779959" lon="11.524340043502153"><ele>172.0</ele><time>2026-04-11T03:03:31Z</time></trkpt><trkpt lat="43.21918712962914" lon="11.524429614832648"><ele>172.0</ele><time>2026-04-11T03:03:32Z</time></trkpt><trkpt lat="43.219235773037006" lon="11.524504223917619"><ele>172.0</ele><time>2026-04-11T03:03:33Z</time></trkpt><trkpt lat="43.219281628809306" lon="11.524576746715766"><ele>172.0</ele><time>2026-04-11T03:03:34Z</time></trkpt><trkpt lat="43.219324832029244" lon="11.524648468959757"><ele>172.00000000000003</ele><time>2026-04-11T03:03:35Z</time></trkpt><trkpt lat="43.219363313014256" lon="11.524720541490959"><ele>172.0</ele><time>2026-04-11T03:03:36Z</time></trkpt><trkpt lat="43.21940889536064" lon="11.52478256064679"><ele>172.16666666666669</ele><time>2026-04-11T03:03:37Z</time></trkpt><trkpt lat="43.21948211457228" lon="11.524893762327446"><ele>172.33333333333334</ele><time>2026-04-11T03:03:38.999Z</time></trkpt><trkpt lat="43.219561921425935" lon="11.524960145061678"><ele>172.5</ele><time>2026-04-11T03:03:40.999Z</time></trkpt><trkpt lat="43.21962941977876" lon="11.525003350243487"><ele>172.66666666666666</ele><time>2026-04-11T03:03:42.999Z</time></trkpt><trkpt lat="43.2196983753136" lon="11.525034133632404"><ele>172.83333333333331</ele><time>2026-04-11T03:03:44.999Z</time></trkpt><trkpt lat="43.21979303508301" lon="11.525056066178434"><ele>173.0</ele><time>2026-04-11T03:03:47.999Z</time></trkpt><trkpt lat="43.21986726815809" lon="11.525050766499996"><ele>173.0</ele><time>2026-04-11T03:03:49.999Z</time></trkpt><trkpt lat="43.21994484165173" lon="11.52502222439426"><ele>173.0</ele><time>2026-04-11T03:03:51.999Z</time></trkpt><trkpt lat="43.220023461626994" lon="11.524986353145207"><ele>173.0</ele><time>2026-04-11T03:03:53.999Z</time></trkpt><trkpt lat="43.2200956104338" lon="11.52494937892152"><ele>173.0</ele><time>2026-04-11T03:03:55.999Z</time></trkpt><trkpt lat="43.22015008273238" lon="11.524900488810221"><ele>173.0</ele><time>2026-04-11T03:03:57.999Z</time></trkpt><trkpt lat="43.220225096517716" lon="11.524880051304725"><ele>173.0</ele><time>2026-04-11T03:03:59.999Z</time></trkpt><trkpt lat="43.2203013004427" lon="11.524844818160902"><ele>173.0</ele><time>2026-04-11T03:04:01.999Z</time></trkpt><trkpt lat="43.22039995244608" lon="11.524836494308314"><ele>173.0</ele><time>2026-04-11T03:04:03.999Z</time></trkpt><trkpt lat="43.220510141376714" lon="11.524866854633876"><ele>173.0</ele><time>2026-04-11T03:04:05.999Z</time></trkpt><trkpt lat="43.22060413383406" lon="11.524932215819014"><ele>173.0</ele><time>2026-04-11T03:04:07.999Z</time></trkpt><trkpt lat="43.220695011287624" lon="11.525009850857684"><ele>173.0</ele><time>2026-04-11T03:04:09.999Z</time></trkpt><trkpt lat="43.220786868958655" lon="11.525101631957119"><ele>174.25</ele><time>2026-04-11T03:04:11.999Z</time></trkpt><trkpt lat="43.22088913005157" lon="11.525175496623406"><ele>175.5</ele><time>2026-04-11T03:04:13.999Z</time></trkpt><trkpt lat="43.22099541050216" lon="11.52521904235915"><ele>176.75</ele><time>2026-04-11T03:04:15.999Z</time></trkpt><trkpt lat="43.22110360683548" lon="11.525257128328425"><ele>178.0</ele><time>2026-04-11T03:04:17.999Z</time></trkpt><trkpt lat="43.22122080381526" lon="11.525280808656435"><ele>178.0</ele><time>2026-04-11T03:04:19.999Z</time></trkpt><trkpt lat="43.22132209886006" lon="11.525305121253359"><ele>178.0</ele><time>2026-04-11T03:04:21.999Z</time></trkpt><trkpt lat="43.221420443835264" lon="11.525312124700111"><ele>178.0</ele><time>2026-04-11T03:04:23.999Z</time></trkpt><trkpt lat="43.22152701543209" lon="11.525335488859774"><ele>178.0</ele><time>2026-04-11T03:04:25.999Z</time></trkpt><trkpt lat="43.221629199076226" lon="11.52535718068973"><ele>178.0</ele><time>2026-04-11T03:04:27.999Z</time></trkpt><trkpt lat="43.221726628307685" lon="11.5253670779525"><ele>179.0</ele><time>2026-04-11T03:04:29.999Z</time></trkpt><trkpt lat="43.22182261968592" lon="11.525381525434774"><ele>180.0</ele><time>2026-04-11T03:04:31.999Z</time></trkpt><trkpt lat="43.22191749058816" lon="11.525405502622274"><ele>181.0</ele><time>2026-04-11T03:04:33.999Z</time></trkpt><trkpt lat="43.22199679759144" lon="11.525410530737625"><ele>182.0</ele><time>2026-04-11T03:04:36Z</time></trkpt><trkpt lat="43.22208170967449" lon="11.525417771054961"><ele>183.0</ele><time>2026-04-11T03:04:38Z</time></trkpt><trkpt lat="43.22216121231853" lon="11.525454263332445"><ele>184.0</ele><time>2026-04-11T03:04:40Z</time></trkpt><trkpt lat="43.2222569674473" lon="11.525457002122605"><ele>181.0</ele><time>2026-04-11T03:04:42Z</time></trkpt><trkpt lat="43.222350880628305" lon="11.525467117838334"><ele>178.0</ele><time>2026-04-11T03:04:44Z</time></trkpt><trkpt lat="43.222450374805824" lon="11.525479693225654"><ele>175.0</ele><time>2026-04-11T03:04:46Z</time></trkpt><trkpt lat="43.22255907963231" lon="11.525483395567155"><ele>172.0</ele><time>2026-04-11T03:04:48Z</time></trkpt><trkpt lat="43.22267963311462" lon="11.525498232607251"><ele>169.0</ele><time>2026-04-11T03:04:50Z</time></trkpt><trkpt lat="43.22278221241252" lon="11.525585170555615"><ele>169.0</ele><time>2026-04-11T03:04:52Z</time></trkpt><trkpt lat="43.222877669996016" lon="11.525670005675748"><ele>169.0</ele><time>2026-04-11T03:04:54Z</time></trkpt><trkpt lat="43.22295419913344" lon="11.52576752641109"><ele>169.0</ele><time>2026-04-11T03:04:56Z</time></trkpt><trkpt lat="43.223031510723125" lon="11.525840869098984"><ele>169.0</ele><time>2026-04-11T03:04:58Z</time></trkpt><trkpt lat="43.22309973872148" lon="11.525893702187396"><ele>169.0</ele><time>2026-04-11T03:05:00Z</time></trkpt><trkpt lat="43.223178225798954" lon="11.52594154377537"><ele>170.39999999999998</ele><time>2026-04-11T03:05:02Z</time></trkpt><trkpt lat="43.22325010853207" lon="11.525968986574071"><ele>171.8</ele><time>2026-04-11T03:05:04Z</time></trkpt><trkpt lat="43.223336293907856" lon="11.525984121940693"><ele>173.2</ele><time>2026-04-11T03:05:06Z</time></trkpt><trkpt lat="43.22342718812199" lon="11.525992427735794"><ele>174.60000000000002</ele><time>2026-04-11T03:05:08Z</time></trkpt><trkpt lat="43.22353924054098" lon="11.525976409888063"><ele>176.0</ele><time>2026-04-11T03:05:10Z</time></trkpt><trkpt lat="43.223650205184875" lon="11.525969975001418"><ele>176.0</ele><time>2026-04-11T03:05:12Z</time></trkpt><trkpt lat="43.22375437865561" lon="11.525974165079946"><ele>176.0</ele><time>2026-04-11T03:05:14Z</time></trkpt><trkpt lat="43.223858285112016" lon="11.525974458105935"><ele>176.0</ele><time>2026-04-11T03:05:16Z</time></trkpt><trkpt lat="43.22396735379087" lon="11.52596063500422"><ele>176.0</ele><time>2026-04-11T03:05:18Z</time></trkpt><trkpt lat="43.2240876454049" lon="11.525929010849623"><ele>176.0</ele><time>2026-04-11T03:05:20Z</time></trkpt><trkpt lat="43.22416363909799" lon="11.525923150162454"><ele>176.14285714285714</ele><time>2026-04-11T03:05:21Z</time></trkpt><trkpt lat="43.22423473687201" lon="11.525913683543646"><ele>176.28571428571428</ele><time>2026-04-11T03:05:22Z</time></trkpt><trkpt lat="43.2243065691785" lon="11.52590626945679"><ele>176.42857142857144</ele><time>2026-04-11T03:05:23Z</time></trkpt><trkpt lat="43.22437756366934" lon="11.52590979616716"><ele>176.57142857142856</ele><time>2026-04-11T03:05:24Z</time></trkpt><trkpt lat="43.22444609022825" lon="11.525922770410236"><ele>176.7142857142857</ele><time>2026-04-11T03:05:25Z</time></trkpt><trkpt lat="43.22451100477096" lon="11.525940823660706"><ele>176.85714285714286</ele><time>2026-04-11T03:05:26Z</time></trkpt><trkpt lat="43.224576446820684" lon="11.525978817968204"><ele>177.0</ele><time>2026-04-11T03:05:27Z</time></trkpt><trkpt lat="43.22470198648782" lon="11.526006187518982"><ele>177.0</ele><time>2026-04-11T03:05:29Z</time></trkpt><trkpt lat="43.22476600291964" lon="11.52602531815006"><ele>177.0</ele><time>2026-04-11T03:05:30Z</time></trkpt><trkpt lat="43.22488490098813" lon="11.52605929856702"><ele>177.0</ele><time>2026-04-11T03:05:32Z</time></trkpt><trkpt lat="43.22499125635679" lon="11.526093285777979"><ele>177.0</ele><time>2026-04-11T03:05:34Z</time></trkpt><trkpt lat="43.225102099952835" lon="11.526117022705627"><ele>177.0</ele><time>2026-04-11T03:05:36Z</time></trkpt><trkpt lat="43.225209748946675" lon="11.52614328911828"><ele>176.6</ele><time>2026-04-11T03:05:38Z</time></trkpt><trkpt lat="43.2253168107728" lon="11.526172231857407"><ele>176.2</ele><time>2026-04-11T03:05:40Z</time></trkpt><trkpt lat="43.22541914887346" lon="11.526195738606948"><ele>175.8</ele><time>2026-04-11T03:05:42Z</time></trkpt><trkpt lat="43.22552400857046" lon="11.52623000703884"><ele>175.4</ele><time>2026-04-11T03:05:44Z</time></trkpt><trkpt lat="43.22561984590546" lon="11.52626512777901"><ele>175.0</ele><time>2026-04-11T03:05:45.999Z</time></trkpt><trkpt lat="43.2257001737097" lon="11.526294703014912"><ele>175.0</ele><time>2026-04-11T03:05:47.999Z</time></trkpt><trkpt lat="43.22576753756722" lon="11.526330405414297"><ele>175.0</ele><time>2026-04-11T03:05:49.999Z</time></trkpt><trkpt lat="43.22583504436006" lon="11.52634870581881"><ele>175.0</ele><time>2026-04-11T03:05:51.999Z</time></trkpt><trkpt lat="43.22590088652085" lon="11.526370981407778"><ele>175.0</ele><time>2026-04-11T03:05:53.999Z</time></trkpt><trkpt lat="43.22596286346215" lon="11.526386567515383"><ele>175.0</ele><time>2026-04-11T03:05:55.999Z</time></trkpt><trkpt lat="43.226034469743766" lon="11.5264024908382"><ele>175.0</ele><time>2026-04-11T03:05:57.999Z</time></trkpt><trkpt lat="43.22612735854762" lon="11.526394957034366"><ele>175.0</ele><time>2026-04-11T03:05:59.999Z</time></trkpt><trkpt lat="43.22621913472574" lon="11.52640104917005"><ele>175.0</ele><time>2026-04-11T03:06:01.999Z</time></trkpt><trkpt lat="43.22629660599475" lon="11.526385096895037"><ele>175.0</ele><time>2026-04-11T03:06:03.999Z</time></trkpt><trkpt lat="43.22637802180028" lon="11.526393125352236"><ele>175.0</ele><time>2026-04-11T03:06:05.999Z</time></trkpt><trkpt lat="43.22646261939573" lon="11.52637472850006"><ele>175.0</ele><time>2026-04-11T03:06:07.999Z</time></trkpt><trkpt lat="43.22655778060382" lon="11.526381074059724"><ele>175.0</ele><time>2026-04-11T03:06:09.999Z</time></trkpt><trkpt lat="43.226660453897075" lon="11.52638514042825"><ele>175.0</ele><time>2026-04-11T03:06:11.999Z</time></trkpt><trkpt lat="43.22677489370985" lon="11.526382009713716"><ele>175.4</ele><time>2026-04-11T03:06:13.999Z</time></trkpt><trkpt lat="43.22687709049897" lon="11.526371353916302"><ele>175.8</ele><time>2026-04-11T03:06:15.999Z</time></trkpt><trkpt lat="43.226978967042754" lon="11.526366420353094"><ele>176.2</ele><time>2026-04-11T03:06:17.999Z</time></trkpt><trkpt lat="43.22709532013371" lon="11.526381818118793"><ele>176.6</ele><time>2026-04-11T03:06:19.999Z</time></trkpt><trkpt lat="43.22720859798935" lon="11.526421480065002"><ele>177.0</ele><time>2026-04-11T03:06:21.999Z</time></trkpt><trkpt lat="43.227298368927016" lon="11.52647075572708"><ele>176.33333333333334</ele><time>2026-04-11T03:06:23.999Z</time></trkpt><trkpt lat="43.22739317312844" lon="11.526571907050444"><ele>175.66666666666666</ele><time>2026-04-11T03:06:25.999Z</time></trkpt><trkpt lat="43.227447746453855" lon="11.52662908617025"><ele>175.0</ele><time>2026-04-11T03:06:26.999Z</time></trkpt><trkpt lat="43.22750149956559" lon="11.52668924158483"><ele>174.33333333333331</ele><time>2026-04-11T03:06:27.999Z</time></trkpt><trkpt lat="43.22755695327115" lon="11.526738662587388"><ele>173.66666666666666</ele><time>2026-04-11T03:06:28.999Z</time></trkpt><trkpt lat="43.22761327734732" lon="11.526799727524985"><ele>173.0</ele><time>2026-04-11T03:06:29.999Z</time></trkpt><trkpt lat="43.22767556009459" lon="11.526873899547647"><ele>173.0</ele><time>2026-04-11T03:06:30.999Z</time></trkpt><trkpt lat="43.22773819106515" lon="11.52693434899075"><ele>173.0</ele><time>2026-04-11T03:06:31.999Z</time></trkpt><trkpt lat="43.22780702416377" lon="11.526995875089598"><ele>173.0</ele><time>2026-04-11T03:06:32.999Z</time></trkpt><trkpt lat="43.22787103042455" lon="11.527054480598537"><ele>173.0</ele><time>2026-04-11T03:06:33.999Z</time></trkpt><trkpt lat="43.22793238877171" lon="11.52712645044027"><ele>173.0</ele><time>2026-04-11T03:06:34.999Z</time></trkpt><trkpt lat="43.22799273387997" lon="11.527173043648792"><ele>173.0</ele><time>2026-04-11T03:06:35.999Z</time></trkpt><trkpt lat="43.22806514282018" lon="11.527212151353373"><ele>172.85714285714286</ele><time>2026-04-11T03:06:36.999Z</time></trkpt><trkpt lat="43.22813082297956" lon="11.527253014229732"><ele>172.71428571428572</ele><time>2026-04-11T03:06:37.999Z</time></trkpt><trkpt lat="43.228202895730426" lon="11.5272822472664"><ele>172.57142857142858</ele><time>2026-04-11T03:06:38.999Z</time></trkpt><trkpt lat="43.228274153202356" lon="11.527317917241668"><ele>172.42857142857144</ele><time>2026-04-11T03:06:39.999Z</time></trkpt><trkpt lat="43.228341416004405" lon="11.527342939860318"><ele>172.28571428571428</ele><time>2026-04-11T03:06:40.999Z</time></trkpt><trkpt lat="43.22840723940467" lon="11.527373064177475"><ele>172.14285714285717</ele><time>2026-04-11T03:06:42Z</time></trkpt><trkpt lat="43.228478879232256" lon="11.527394233917299"><ele>172.0</ele><time>2026-04-11T03:06:43Z</time></trkpt><trkpt lat="43.22858242594581" lon="11.527460495604425"><ele>172.39999999999998</ele><time>2026-04-11T03:06:45Z</time></trkpt><trkpt lat="43.22868783451474" lon="11.527505590065328"><ele>172.79999999999998</ele><time>2026-04-11T03:06:47Z</time></trkpt><trkpt lat="43.22874202725531" lon="11.527575967583415"><ele>173.2</ele><time>2026-04-11T03:06:48Z</time></trkpt><trkpt lat="43.22884065975712" lon="11.527681398226036"><ele>173.6</ele><time>2026-04-11T03:06:50Z</time></trkpt><trkpt lat="43.22892873786498" lon="11.527776175756598"><ele>174.0</ele><time>2026-04-11T03:06:52Z</time></trkpt><trkpt lat="43.229005496836486" lon="11.527871511178482"><ele>174.0</ele><time>2026-04-11T03:06:54Z</time></trkpt><trkpt lat="43.22908364516745" lon="11.527955395004613"><ele>174.0</ele><time>2026-04-11T03:06:56Z</time></trkpt><trkpt lat="43.22914774513759" lon="11.528042854410264"><ele>174.0</ele><time>2026-04-11T03:06:58Z</time></trkpt><trkpt lat="43.229215823621516" lon="11.528108514744416"><ele>174.0</ele><time>2026-04-11T03:07:00Z</time></trkpt><trkpt lat="43.22927553481939" lon="11.528177017394668"><ele>174.0</ele><time>2026-04-11T03:07:02Z</time></trkpt><trkpt lat="43.229323937813994" lon="11.528241660815853"><ele>174.0</ele><time>2026-04-11T03:07:04Z</time></trkpt><trkpt lat="43.229376149727294" lon="11.52829662419387"><ele>174.0</ele><time>2026-04-11T03:07:06Z</time></trkpt><trkpt lat="43.22944051307149" lon="11.528376252936836"><ele>174.0</ele><time>2026-04-11T03:07:09Z</time></trkpt><trkpt lat="43.22950200703844" lon="11.528454990077565"><ele>174.0</ele><time>2026-04-11T03:07:12Z</time></trkpt><trkpt lat="43.22955158349991" lon="11.528509161379176"><ele>174.0</ele><time>2026-04-11T03:07:14Z</time></trkpt><trkpt lat="43.229605704908856" lon="11.528576672341156"><ele>174.0</ele><time>2026-04-11T03:07:17Z</time></trkpt><trkpt lat="43.22967157382531" lon="11.528641334256228"><ele>174.0</ele><time>2026-04-11T03:07:20Z</time></trkpt><trkpt lat="43.229734005853985" lon="11.528704778021607"><ele>174.5</ele><time>2026-04-11T03:07:24Z</time></trkpt><trkpt lat="43.22979206814742" lon="11.528759837466522"><ele>175.0</ele><time>2026-04-11T03:07:27Z</time></trkpt><trkpt lat="43.229858912626895" lon="11.528800583006984"><ele>175.5</ele><time>2026-04-11T03:07:30Z</time></trkpt><trkpt lat="43.23006505340065" lon="11.529030637749297"><ele>176.0</ele><time>2026-04-11T03:07:33Z</time></trkpt><trkpt lat="43.23016322614795" lon="11.529162329196378"><ele>176.0</ele><time>2026-04-11T03:07:35Z</time></trkpt><trkpt lat="43.23021810924012" lon="11.529231544839412"><ele>176.0</ele><time>2026-04-11T03:07:36Z</time></trkpt><trkpt lat="43.23027438125433" lon="11.529300121034813"><ele>176.0</ele><time>2026-04-11T03:07:37Z</time></trkpt><trkpt lat="43.230319825527836" lon="11.529376660859992"><ele>176.0</ele><time>2026-04-11T03:07:38Z</time></trkpt><trkpt lat="43.23038581928665" lon="11.52943863555538"><ele>176.0</ele><time>2026-04-11T03:07:39Z</time></trkpt><trkpt lat="43.23044092907845" lon="11.529529713355483"><ele>176.0</ele><time>2026-04-11T03:07:40Z</time></trkpt><trkpt lat="43.230503010525325" lon="11.529610023428475"><ele>175.33333333333331</ele><time>2026-04-11T03:07:41Z</time></trkpt><trkpt lat="43.230569949988855" lon="11.529686151735385"><ele>174.66666666666666</ele><time>2026-04-11T03:07:42Z</time></trkpt><trkpt lat="43.23063099452347" lon="11.529767155393595"><ele>174.0</ele><time>2026-04-11T03:07:43Z</time></trkpt><trkpt lat="43.23068423591406" lon="11.529868896952216"><ele>173.33333333333334</ele><time>2026-04-11T03:07:44Z</time></trkpt><trkpt lat="43.23074678067094" lon="11.52995390378003"><ele>172.66666666666669</ele><time>2026-04-11T03:07:45Z</time></trkpt><trkpt lat="43.2308079260684" lon="11.530037719966876"><ele>172.0</ele><time>2026-04-11T03:07:46Z</time></trkpt><trkpt lat="43.23086675050956" lon="11.53012012384354"><ele>172.0</ele><time>2026-04-11T03:07:47Z</time></trkpt><trkpt lat="43.23092911836852" lon="11.530207491452803"><ele>172.0</ele><time>2026-04-11T03:07:48Z</time></trkpt><trkpt lat="43.230988178447866" lon="11.530289937396196"><ele>172.0</ele><time>2026-04-11T03:07:49Z</time></trkpt><trkpt lat="43.231048553674135" lon="11.530372259602736"><ele>172.0</ele><time>2026-04-11T03:07:50Z</time></trkpt><trkpt lat="43.231094133415105" lon="11.530434408050482"><ele>172.0</ele><time>2026-04-11T03:07:50.999Z</time></trkpt><trkpt lat="43.23115889815975" lon="11.530529867728726"><ele>172.0</ele><time>2026-04-11T03:07:51.999Z</time></trkpt><trkpt lat="43.2312216612637" lon="11.530613069621547"><ele>171.5</ele><time>2026-04-11T03:07:52.999Z</time></trkpt><trkpt lat="43.23127157134391" lon="11.530696834181628"><ele>171.0</ele><time>2026-04-11T03:07:53.999Z</time></trkpt><trkpt lat="43.23130935810068" lon="11.530800118345056"><ele>170.5</ele><time>2026-04-11T03:07:54.999Z</time></trkpt><trkpt lat="43.23134676810315" lon="11.53089857616899"><ele>170.0</ele><time>2026-04-11T03:07:55.999Z</time></trkpt><trkpt lat="43.2313840356843" lon="11.53099256789324"><ele>169.5</ele><time>2026-04-11T03:07:56.999Z</time></trkpt><trkpt lat="43.2314009151194" lon="11.531098824759187"><ele>169.0</ele><time>2026-04-11T03:07:57.999Z</time></trkpt><trkpt lat="43.23143624927342" lon="11.5311952093072"><ele>169.0</ele><time>2026-04-11T03:07:58.999Z</time></trkpt><trkpt lat="43.23145978226414" lon="11.531295976318782"><ele>169.0</ele><time>2026-04-11T03:07:59.999Z</time></trkpt><trkpt lat="43.23147459640129" lon="11.531397053761756"><ele>169.0</ele><time>2026-04-11T03:08:00.999Z</time></trkpt><trkpt lat="43.23150137239439" lon="11.531502209124175"><ele>169.0</ele><time>2026-04-11T03:08:01.999Z</time></trkpt><trkpt lat="43.23151469662649" lon="11.531603492194314"><ele>169.0</ele><time>2026-04-11T03:08:02.999Z</time></trkpt><trkpt lat="43.231538442587954" lon="11.531707522497909"><ele>169.0</ele><time>2026-04-11T03:08:03.999Z</time></trkpt><trkpt lat="43.23155195727858" lon="11.531815182548726"><ele>169.14285714285714</ele><time>2026-04-11T03:08:04.999Z</time></trkpt><trkpt lat="43.231574044748605" lon="11.531912673948765"><ele>169.28571428571428</ele><time>2026-04-11T03:08:05.999Z</time></trkpt><trkpt lat="43.2315948298934" lon="11.532008101517656"><ele>169.42857142857144</ele><time>2026-04-11T03:08:06.999Z</time></trkpt><trkpt lat="43.23161635057922" lon="11.5321043499363"><ele>169.57142857142856</ele><time>2026-04-11T03:08:07.999Z</time></trkpt><trkpt lat="43.23163716864349" lon="11.532196027298552"><ele>169.7142857142857</ele><time>2026-04-11T03:08:08.999Z</time></trkpt><trkpt lat="43.23164873727491" lon="11.532290364472146"><ele>169.85714285714286</ele><time>2026-04-11T03:08:09.999Z</time></trkpt><trkpt lat="43.23167097224716" lon="11.53237976624757"><ele>170.0</ele><time>2026-04-11T03:08:10.999Z</time></trkpt><trkpt lat="43.23168807104133" lon="11.532468474480906"><ele>170.0</ele><time>2026-04-11T03:08:11.999Z</time></trkpt><trkpt lat="43.23171972390032" lon="11.532625194967624"><ele>170.0</ele><time>2026-04-11T03:08:13.999Z</time></trkpt><trkpt lat="43.23175563125923" lon="11.532780741782425"><ele>170.0</ele><time>2026-04-11T03:08:15.999Z</time></trkpt><trkpt lat="43.2317846053309" lon="11.532937866931844"><ele>170.0</ele><time>2026-04-11T03:08:17.999Z</time></trkpt><trkpt lat="43.231815788689914" lon="11.533093530430381"><ele>170.0</ele><time>2026-04-11T03:08:19.999Z</time></trkpt><trkpt lat="43.231847941338785" lon="11.533247048177557"><ele>170.0</ele><time>2026-04-11T03:08:21.999Z</time></trkpt><trkpt lat="43.23187276525465" lon="11.533388701059238"><ele>170.0</ele><time>2026-04-11T03:08:23.999Z</time></trkpt><trkpt lat="43.23190009997547" lon="11.533534519502313"><ele>170.0</ele><time>2026-04-11T03:08:25.999Z</time></trkpt><trkpt lat="43.23192974711885" lon="11.533683829048801"><ele>170.0</ele><time>2026-04-11T03:08:27.999Z</time></trkpt><trkpt lat="43.23197439118358" lon="11.533832544809254"><ele>169.5</ele><time>2026-04-11T03:08:29.999Z</time></trkpt><trkpt lat="43.23202867420548" lon="11.533973850308755"><ele>169.0</ele><time>2026-04-11T03:08:31.999Z</time></trkpt><trkpt lat="43.23209781910072" lon="11.534106771353136"><ele>168.5</ele><time>2026-04-11T03:08:33.999Z</time></trkpt><trkpt lat="43.2321760365239" lon="11.53423430162761"><ele>168.0</ele><time>2026-04-11T03:08:35.999Z</time></trkpt><trkpt lat="43.23226820206627" lon="11.534339118707761"><ele>168.5</ele><time>2026-04-11T03:08:37.999Z</time></trkpt><trkpt lat="43.232367706874506" lon="11.534437923971275"><ele>169.0</ele><time>2026-04-11T03:08:39.999Z</time></trkpt><trkpt lat="43.23247193784675" lon="11.534520807524986"><ele>169.5</ele><time>2026-04-11T03:08:41.999Z</time></trkpt><trkpt lat="43.23257725449626" lon="11.534597610412176"><ele>170.0</ele><time>2026-04-11T03:08:43.999Z</time></trkpt><trkpt lat="43.232682384999045" lon="11.534677026792302"><ele>170.0</ele><time>2026-04-11T03:08:45.999Z</time></trkpt><trkpt lat="43.23278119396441" lon="11.53476058039637"><ele>170.0</ele><time>2026-04-11T03:08:48Z</time></trkpt><trkpt lat="43.232885655570705" lon="11.534835328969827"><ele>170.0</ele><time>2026-04-11T03:08:50Z</time></trkpt><trkpt lat="43.23299246217741" lon="11.534915724626114"><ele>170.0</ele><time>2026-04-11T03:08:52Z</time></trkpt><trkpt lat="43.23309585768511" lon="11.534991584094968"><ele>171.0</ele><time>2026-04-11T03:08:54Z</time></trkpt><trkpt lat="43.23319971876079" lon="11.535065982459098"><ele>172.0</ele><time>2026-04-11T03:08:56Z</time></trkpt><trkpt lat="43.23330137721761" lon="11.535147587445712"><ele>173.0</ele><time>2026-04-11T03:08:58Z</time></trkpt><trkpt lat="43.23339743484849" lon="11.535233565909365"><ele>174.0</ele><time>2026-04-11T03:09:00Z</time></trkpt><trkpt lat="43.233494349851306" lon="11.535322127674485"><ele>173.0</ele><time>2026-04-11T03:09:02Z</time></trkpt><trkpt lat="43.23357513580093" lon="11.535434509871685"><ele>172.0</ele><time>2026-04-11T03:09:04Z</time></trkpt><trkpt lat="43.2336557887364" lon="11.535545057403768"><ele>171.0</ele><time>2026-04-11T03:09:06Z</time></trkpt><trkpt lat="43.23371652517648" lon="11.535671866418786"><ele>170.0</ele><time>2026-04-11T03:09:08Z</time></trkpt><trkpt lat="43.2337867650381" lon="11.53578619145202"><ele>169.0</ele><time>2026-04-11T03:09:10Z</time></trkpt><trkpt lat="43.233856768508396" lon="11.535899429952513"><ele>169.0</ele><time>2026-04-11T03:09:12Z</time></trkpt><trkpt lat="43.233918555831046" lon="11.536020530469807"><ele>169.0</ele><time>2026-04-11T03:09:14Z</time></trkpt><trkpt lat="43.23398400583997" lon="11.53613975740415"><ele>169.0</ele><time>2026-04-11T03:09:16Z</time></trkpt><trkpt lat="43.23404733386999" lon="11.536263962103703"><ele>169.0</ele><time>2026-04-11T03:09:18Z</time></trkpt><trkpt lat="43.234116968894234" lon="11.536378166418661"><ele>169.0</ele><time>2026-04-11T03:09:20Z</time></trkpt><trkpt lat="43.2341772305447" lon="11.536498873901856"><ele>169.6</ele><time>2026-04-11T03:09:22Z</time></trkpt><trkpt lat="43.234232730776775" lon="11.536621727427754"><ele>170.2</ele><time>2026-04-11T03:09:24Z</time></trkpt><trkpt lat="43.234294278004306" lon="11.53672746845981"><ele>170.79999999999998</ele><time>2026-04-11T03:09:26Z</time></trkpt><trkpt lat="43.23435524136043" lon="11.536836277113268"><ele>171.39999999999998</ele><time>2026-04-11T03:09:28Z</time></trkpt><trkpt lat="43.2344037665737" lon="11.536952063692011"><ele>172.0</ele><time>2026-04-11T03:09:30Z</time></trkpt><trkpt lat="43.23446784738167" lon="11.537066036875558"><ele>172.0</ele><time>2026-04-11T03:09:32Z</time></trkpt><trkpt lat="43.234535152274084" lon="11.537166453437433"><ele>172.0</ele><time>2026-04-11T03:09:34Z</time></trkpt><trkpt lat="43.234591952431614" lon="11.53727779120176"><ele>172.0</ele><time>2026-04-11T03:09:36Z</time></trkpt><trkpt lat="43.23464613921693" lon="11.537394518708604"><ele>172.0</ele><time>2026-04-11T03:09:38Z</time></trkpt><trkpt lat="43.23470516960946" lon="11.537509077431457"><ele>172.0</ele><time>2026-04-11T03:09:40Z</time></trkpt><trkpt lat="43.23477483167123" lon="11.537615902779951"><ele>172.39999999999998</ele><time>2026-04-11T03:09:42Z</time></trkpt><trkpt lat="43.23483187859045" lon="11.537733248757615"><ele>172.79999999999998</ele><time>2026-04-11T03:09:44Z</time></trkpt><trkpt lat="43.23488746919334" lon="11.537855973823273"><ele>173.2</ele><time>2026-04-11T03:09:46Z</time></trkpt><trkpt lat="43.234954337744554" lon="11.537976495430133"><ele>173.6</ele><time>2026-04-11T03:09:48Z</time></trkpt><trkpt lat="43.235024113080854" lon="11.53809579041232"><ele>174.0</ele><time>2026-04-11T03:09:50Z</time></trkpt><trkpt lat="43.23509377988442" lon="11.538219873586952"><ele>174.0</ele><time>2026-04-11T03:09:52Z</time></trkpt><trkpt lat="43.23516068429122" lon="11.538348746710055"><ele>174.0</ele><time>2026-04-11T03:09:54Z</time></trkpt><trkpt lat="43.23522645351231" lon="11.538472349407934"><ele>174.0</ele><time>2026-04-11T03:09:56Z</time></trkpt><trkpt lat="43.235294341081506" lon="11.53858718895224"><ele>174.0</ele><time>2026-04-11T03:09:58Z</time></trkpt><trkpt lat="43.235360042980055" lon="11.538703029438459"><ele>174.0</ele><time>2026-04-11T03:10:00Z</time></trkpt><trkpt lat="43.235428746519915" lon="11.538824878544217"><ele>173.75</ele><time>2026-04-11T03:10:02Z</time></trkpt><trkpt lat="43.235500360075" lon="11.538951544182831"><ele>173.5</ele><time>2026-04-11T03:10:03.999Z</time></trkpt><trkpt lat="43.23556357358307" lon="11.539083541928363"><ele>173.25</ele><time>2026-04-11T03:10:05.999Z</time></trkpt><trkpt lat="43.23563823707504" lon="11.539211539130152"><ele>173.0</ele><time>2026-04-11T03:10:07.999Z</time></trkpt><trkpt lat="43.23570721109722" lon="11.539335150697408"><ele>173.33333333333331</ele><time>2026-04-11T03:10:09.999Z</time></trkpt><trkpt lat="43.235772971648" lon="11.53946090394444"><ele>173.66666666666666</ele><time>2026-04-11T03:10:11.999Z</time></trkpt><trkpt lat="43.23583486630538" lon="11.539603514555324"><ele>174.0</ele><time>2026-04-11T03:10:13.999Z</time></trkpt><trkpt lat="43.23585983091996" lon="11.539683905099642"><ele>174.33333333333334</ele><time>2026-04-11T03:10:14.999Z</time></trkpt><trkpt lat="43.23587830793859" lon="11.53976799549031"><ele>174.66666666666669</ele><time>2026-04-11T03:10:15.999Z</time></trkpt><trkpt lat="43.23589079788601" lon="11.539854716226763"><ele>175.0</ele><time>2026-04-11T03:10:16.999Z</time></trkpt><trkpt lat="43.23589388734306" lon="11.539943102038862"><ele>175.0</ele><time>2026-04-11T03:10:17.999Z</time></trkpt><trkpt lat="43.23589153435777" lon="11.540029650283437"><ele>175.0</ele><time>2026-04-11T03:10:18.999Z</time></trkpt><trkpt lat="43.235880591051355" lon="11.540119694125856"><ele>175.0</ele><time>2026-04-11T03:10:19.999Z</time></trkpt><trkpt lat="43.23587713499794" lon="11.540209996997028"><ele>175.0</ele><time>2026-04-11T03:10:20.999Z</time></trkpt><trkpt lat="43.235868665339765" lon="11.540298692133584"><ele>175.0</ele><time>2026-04-11T03:10:21.999Z</time></trkpt><trkpt lat="43.235865648361546" lon="11.540388888314386"><ele>175.0</ele><time>2026-04-11T03:10:22.999Z</time></trkpt><trkpt lat="43.235861435325766" lon="11.540477056310852"><ele>175.0</ele><time>2026-04-11T03:10:23.999Z</time></trkpt><trkpt lat="43.2358596120463" lon="11.540566318424073"><ele>175.0</ele><time>2026-04-11T03:10:24.999Z</time></trkpt><trkpt lat="43.23585517533017" lon="11.540655482349859"><ele>175.0</ele><time>2026-04-11T03:10:25.999Z</time></trkpt><trkpt lat="43.23585060040881" lon="11.540743316465706"><ele>175.0</ele><time>2026-04-11T03:10:26.999Z</time></trkpt><trkpt lat="43.23584616669104" lon="11.540829650413794"><ele>175.0</ele><time>2026-04-11T03:10:27.999Z</time></trkpt><trkpt lat="43.23584008791071" lon="11.541001098159146"><ele>175.0</ele><time>2026-04-11T03:10:29.999Z</time></trkpt><trkpt lat="43.235833379105706" lon="11.541169850186874"><ele>175.0</ele><time>2026-04-11T03:10:31.999Z</time></trkpt><trkpt lat="43.23582332093382" lon="11.541336321564751"><ele>176.0</ele><time>2026-04-11T03:10:33.999Z</time></trkpt><trkpt lat="43.23581407910111" lon="11.541495403062962"><ele>177.0</ele><time>2026-04-11T03:10:35.999Z</time></trkpt><trkpt lat="43.235815417993216" lon="11.541656146685684"><ele>178.0</ele><time>2026-04-11T03:10:37.999Z</time></trkpt><trkpt lat="43.235807186328934" lon="11.541808893330593"><ele>179.0</ele><time>2026-04-11T03:10:39.999Z</time></trkpt><trkpt lat="43.235801435074954" lon="11.541960881835298"><ele>179.0</ele><time>2026-04-11T03:10:41.999Z</time></trkpt><trkpt lat="43.23579268921294" lon="11.542115810874927"><ele>179.0</ele><time>2026-04-11T03:10:43.999Z</time></trkpt><trkpt lat="43.23578339002988" lon="11.542270131611936"><ele>179.0</ele><time>2026-04-11T03:10:45.999Z</time></trkpt><trkpt lat="43.23577710674755" lon="11.542423490375391"><ele>179.0</ele><time>2026-04-11T03:10:47.999Z</time></trkpt><trkpt lat="43.23577636673931" lon="11.542580948147434"><ele>179.0</ele><time>2026-04-11T03:10:49.999Z</time></trkpt><trkpt lat="43.23577085289309" lon="11.542737079897343"><ele>179.0</ele><time>2026-04-11T03:10:51.999Z</time></trkpt><trkpt lat="43.235762385560776" lon="11.542895884578662"><ele>179.0</ele><time>2026-04-11T03:10:54Z</time></trkpt><trkpt lat="43.235753067679774" lon="11.543057557281784"><ele>179.0</ele><time>2026-04-11T03:10:56Z</time></trkpt><trkpt lat="43.23574587850186" lon="11.543224650869643"><ele>178.79999999999998</ele><time>2026-04-11T03:10:58Z</time></trkpt><trkpt lat="43.23574251417472" lon="11.543380492566515"><ele>178.6</ele><time>2026-04-11T03:11:00Z</time></trkpt><trkpt lat="43.235735016591974" lon="11.54354243064096"><ele>178.4</ele><time>2026-04-11T03:11:02Z</time></trkpt><trkpt lat="43.23573099173702" lon="11.543630679379564"><ele>178.2</ele><time>2026-04-11T03:11:03Z</time></trkpt><trkpt lat="43.23572617674061" lon="11.543803700740437"><ele>178.0</ele><time>2026-04-11T03:11:05Z</time></trkpt><trkpt lat="43.23572750892203" lon="11.543890274277045"><ele>177.83333333333334</ele><time>2026-04-11T03:11:06Z</time></trkpt><trkpt lat="43.235723472851475" lon="11.543976535407"><ele>177.66666666666669</ele><time>2026-04-11T03:11:07Z</time></trkpt><trkpt lat="43.23571153295908" lon="11.544066759391766"><ele>177.5</ele><time>2026-04-11T03:11:08Z</time></trkpt><trkpt lat="43.235709119583504" lon="11.544155790034552"><ele>177.33333333333334</ele><time>2026-04-11T03:11:09Z</time></trkpt><trkpt lat="43.23570096271831" lon="11.544328568069359"><ele>177.16666666666666</ele><time>2026-04-11T03:11:11Z</time></trkpt><trkpt lat="43.23569842013295" lon="11.544416410649378"><ele>177.0</ele><time>2026-04-11T03:11:12Z</time></trkpt><trkpt lat="43.23569511048849" lon="11.544505842376948"><ele>176.85714285714286</ele><time>2026-04-11T03:11:13Z</time></trkpt><trkpt lat="43.235691747524" lon="11.544593010456856"><ele>176.7142857142857</ele><time>2026-04-11T03:11:14Z</time></trkpt><trkpt lat="43.235689981986674" lon="11.544682350532911"><ele>176.57142857142856</ele><time>2026-04-11T03:11:15Z</time></trkpt><trkpt lat="43.23569352564011" lon="11.544771708720752"><ele>176.42857142857144</ele><time>2026-04-11T03:11:16Z</time></trkpt><trkpt lat="43.235706660401824" lon="11.544942970835317"><ele>176.28571428571428</ele><time>2026-04-11T03:11:18Z</time></trkpt><trkpt lat="43.23571626596502" lon="11.545030254841247"><ele>176.14285714285714</ele><time>2026-04-11T03:11:19Z</time></trkpt><trkpt lat="43.23573135955816" lon="11.545114278788061"><ele>176.0</ele><time>2026-04-11T03:11:20Z</time></trkpt><trkpt lat="43.235744609598214" lon="11.545199028984918"><ele>176.0</ele><time>2026-04-11T03:11:21Z</time></trkpt><trkpt lat="43.23578095578818" lon="11.545364556737413"><ele>176.0</ele><time>2026-04-11T03:11:23Z</time></trkpt><trkpt lat="43.23584358932027" lon="11.54551402107725"><ele>176.0</ele><time>2026-04-11T03:11:25Z</time></trkpt><trkpt lat="43.23588366200232" lon="11.545677181582764"><ele>176.0</ele><time>2026-04-11T03:11:27Z</time></trkpt><trkpt lat="43.23592427671766" lon="11.54575037089101"><ele>176.0</ele><time>2026-04-11T03:11:28Z</time></trkpt><trkpt lat="43.235971512936594" lon="11.54590550252273"><ele>176.0</ele><time>2026-04-11T03:11:30Z</time></trkpt><trkpt lat="43.23600492774353" lon="11.545980253114454"><ele>176.0</ele><time>2026-04-11T03:11:31Z</time></trkpt><trkpt lat="43.236071051742" lon="11.546127206666997"><ele>176.0</ele><time>2026-04-11T03:11:33Z</time></trkpt><trkpt lat="43.2360997754687" lon="11.546204131487219"><ele>176.0</ele><time>2026-04-11T03:11:34Z</time></trkpt><trkpt lat="43.23617659862135" lon="11.546335301473169"><ele>176.0</ele><time>2026-04-11T03:11:36Z</time></trkpt><trkpt lat="43.23625771413191" lon="11.546461306475575"><ele>176.5</ele><time>2026-04-11T03:11:38Z</time></trkpt><trkpt lat="43.236335963871014" lon="11.546586220837236"><ele>177.0</ele><time>2026-04-11T03:11:40Z</time></trkpt><trkpt lat="43.236420255756755" lon="11.546710108924618"><ele>177.5</ele><time>2026-04-11T03:11:42Z</time></trkpt><trkpt lat="43.23649551663294" lon="11.546833355391547"><ele>178.0</ele><time>2026-04-11T03:11:44Z</time></trkpt><trkpt lat="43.23658082119297" lon="11.54694871443484"><ele>177.2</ele><time>2026-04-11T03:11:46Z</time></trkpt><trkpt lat="43.23665866199292" lon="11.54706440419529"><ele>176.4</ele><time>2026-04-11T03:11:48Z</time></trkpt><trkpt lat="43.23674148336622" lon="11.54717604202936"><ele>175.6</ele><time>2026-04-11T03:11:50Z</time></trkpt><trkpt lat="43.23678601007973" lon="11.547239312217908"><ele>174.79999999999998</ele><time>2026-04-11T03:11:51Z</time></trkpt><trkpt lat="43.23683996444438" lon="11.54729953513377"><ele>174.0</ele><time>2026-04-11T03:11:52Z</time></trkpt><trkpt lat="43.23692965234397" lon="11.547408337921881"><ele>174.0</ele><time>2026-04-11T03:11:54Z</time></trkpt><trkpt lat="43.23702473937177" lon="11.547511942237646"><ele>174.0</ele><time>2026-04-11T03:11:56Z</time></trkpt><trkpt lat="43.23707352577743" lon="11.547566864397501"><ele>174.0</ele><time>2026-04-11T03:11:57Z</time></trkpt><trkpt lat="43.23716814607256" lon="11.547669817016015"><ele>174.0</ele><time>2026-04-11T03:11:59Z</time></trkpt><trkpt lat="43.23725987203997" lon="11.547775994606676"><ele>174.0</ele><time>2026-04-11T03:12:01Z</time></trkpt><trkpt lat="43.23735224087809" lon="11.54787497900547"><ele>174.5</ele><time>2026-04-11T03:12:03Z</time></trkpt><trkpt lat="43.237444520698396" lon="11.54797865674852"><ele>175.0</ele><time>2026-04-11T03:12:04.999Z</time></trkpt><trkpt lat="43.23753578755191" lon="11.548084446377988"><ele>175.5</ele><time>2026-04-11T03:12:06.999Z</time></trkpt><trkpt lat="43.23762851215221" lon="11.548189435866629"><ele>176.0</ele><time>2026-04-11T03:12:08.999Z</time></trkpt><trkpt lat="43.23772199956167" lon="11.54828672637261"><ele>176.0</ele><time>2026-04-11T03:12:10.999Z</time></trkpt><trkpt lat="43.23781895961638" lon="11.548388411401481"><ele>176.0</ele><time>2026-04-11T03:12:12.999Z</time></trkpt><trkpt lat="43.23791214465642" lon="11.54848645938653"><ele>176.0</ele><time>2026-04-11T03:12:14.999Z</time></trkpt><trkpt lat="43.23801260907793" lon="11.54857895213959"><ele>176.0</ele><time>2026-04-11T03:12:16.999Z</time></trkpt><trkpt lat="43.238065037814145" lon="11.548627321109228"><ele>176.0</ele><time>2026-04-11T03:12:17.999Z</time></trkpt><trkpt lat="43.23816082981789" lon="11.548721622537805"><ele>176.0</ele><time>2026-04-11T03:12:19.999Z</time></trkpt><trkpt lat="43.23825293868936" lon="11.54882076159496"><ele>176.0</ele><time>2026-04-11T03:12:21.999Z</time></trkpt><trkpt lat="43.23835629264904" lon="11.548911403805286"><ele>176.0</ele><time>2026-04-11T03:12:23.999Z</time></trkpt><trkpt lat="43.23845607658457" lon="11.548996451911256"><ele>176.0</ele><time>2026-04-11T03:12:25.999Z</time></trkpt><trkpt lat="43.238552518380374" lon="11.549081436014921"><ele>176.0</ele><time>2026-04-11T03:12:27.999Z</time></trkpt><trkpt lat="43.23865695507513" lon="11.549149554538893"><ele>176.0</ele><time>2026-04-11T03:12:29.999Z</time></trkpt><trkpt lat="43.23875953312914" lon="11.549219627520669"><ele>176.0</ele><time>2026-04-11T03:12:31.999Z</time></trkpt><trkpt lat="43.23886677823639" lon="11.54929339228862"><ele>176.0</ele><time>2026-04-11T03:12:33.999Z</time></trkpt><trkpt lat="43.23896849055386" lon="11.54937710236229"><ele>175.8</ele><time>2026-04-11T03:12:35.999Z</time></trkpt><trkpt lat="43.239078469468865" lon="11.549450676560818"><ele>175.60000000000002</ele><time>2026-04-11T03:12:37.999Z</time></trkpt><trkpt lat="43.239134325875206" lon="11.549496301917397"><ele>175.4</ele><time>2026-04-11T03:12:38.999Z</time></trkpt><trkpt lat="43.2392384481659" lon="11.549593501435707"><ele>175.2</ele><time>2026-04-11T03:12:40.999Z</time></trkpt><trkpt lat="43.239331915138614" lon="11.549709013858681"><ele>175.0</ele><time>2026-04-11T03:12:42.999Z</time></trkpt><trkpt lat="43.23938194772529" lon="11.549763208762066"><ele>175.0</ele><time>2026-04-11T03:12:43.999Z</time></trkpt><trkpt lat="43.23943217705296" lon="11.549820972196484"><ele>175.0</ele><time>2026-04-11T03:12:44.999Z</time></trkpt><trkpt lat="43.23947877385452" lon="11.54987934228427"><ele>175.0</ele><time>2026-04-11T03:12:45.999Z</time></trkpt><trkpt lat="43.239527142312916" lon="11.549940793228249"><ele>175.0</ele><time>2026-04-11T03:12:46.999Z</time></trkpt><trkpt lat="43.239570304544564" lon="11.550004756836907"><ele>175.0</ele><time>2026-04-11T03:12:47.999Z</time></trkpt><trkpt lat="43.23961587810475" lon="11.550067829647977"><ele>175.0</ele><time>2026-04-11T03:12:48.999Z</time></trkpt><trkpt lat="43.23966208138186" lon="11.550129854780522"><ele>175.0</ele><time>2026-04-11T03:12:49.999Z</time></trkpt><trkpt lat="43.239710415393844" lon="11.550189842039016"><ele>175.0</ele><time>2026-04-11T03:12:50.999Z</time></trkpt><trkpt lat="43.23975878289242" lon="11.550252361410882"><ele>175.0</ele><time>2026-04-11T03:12:51.999Z</time></trkpt><trkpt lat="43.23980634748576" lon="11.550314958178292"><ele>175.0</ele><time>2026-04-11T03:12:52.999Z</time></trkpt><trkpt lat="43.239853325209566" lon="11.550377107324392"><ele>175.0</ele><time>2026-04-11T03:12:53.999Z</time></trkpt><trkpt lat="43.239898059322236" lon="11.550443086902025"><ele>175.0</ele><time>2026-04-11T03:12:54.999Z</time></trkpt><trkpt lat="43.239945464602144" lon="11.550506345911883"><ele>175.0</ele><time>2026-04-11T03:12:55.999Z</time></trkpt><trkpt lat="43.239985089702714" lon="11.550582458693377"><ele>175.0</ele><time>2026-04-11T03:12:56.999Z</time></trkpt><trkpt lat="43.24004040935228" lon="11.55063083090936"><ele>174.66666666666669</ele><time>2026-04-11T03:12:57.999Z</time></trkpt><trkpt lat="43.240086082731594" lon="11.550707403948628"><ele>174.33333333333334</ele><time>2026-04-11T03:12:58.999Z</time></trkpt><trkpt lat="43.2401779150566" lon="11.55083304296725"><ele>174.0</ele><time>2026-04-11T03:13:01Z</time></trkpt><trkpt lat="43.24022684084075" lon="11.550898177529017"><ele>173.66666666666666</ele><time>2026-04-11T03:13:02Z</time></trkpt><trkpt lat="43.24027399934999" lon="11.550965275116434"><ele>173.33333333333331</ele><time>2026-04-11T03:13:03Z</time></trkpt><trkpt lat="43.24032169987059" lon="11.55103086256317"><ele>173.0</ele><time>2026-04-11T03:13:04Z</time></trkpt><trkpt lat="43.24036898907763" lon="11.551099364693574"><ele>173.0</ele><time>2026-04-11T03:13:05Z</time></trkpt><trkpt lat="43.240419540560026" lon="11.551163686060441"><ele>173.0</ele><time>2026-04-11T03:13:06Z</time></trkpt><trkpt lat="43.24046914518668" lon="11.551231751745838"><ele>173.0</ele><time>2026-04-11T03:13:07Z</time></trkpt><trkpt lat="43.24052081121083" lon="11.55130240676118"><ele>173.0</ele><time>2026-04-11T03:13:08Z</time></trkpt><trkpt lat="43.240614217096415" lon="11.55142660535517"><ele>173.0</ele><time>2026-04-11T03:13:10Z</time></trkpt><trkpt lat="43.24065585910152" lon="11.551493774032554"><ele>173.0</ele><time>2026-04-11T03:13:11Z</time></trkpt><trkpt lat="43.24070294200842" lon="11.551553781650394"><ele>174.2</ele><time>2026-04-11T03:13:12Z</time></trkpt><trkpt lat="43.240744480409475" lon="11.55161889993507"><ele>175.4</ele><time>2026-04-11T03:13:13Z</time></trkpt><trkpt lat="43.240804804299806" lon="11.551758324359925"><ele>176.6</ele><time>2026-04-11T03:13:15Z</time></trkpt><trkpt lat="43.24083239407335" lon="11.551908609960206"><ele>177.79999999999998</ele><time>2026-04-11T03:13:17Z</time></trkpt><trkpt lat="43.240778605761705" lon="11.552062494063067"><ele>179.0</ele><time>2026-04-11T03:13:19Z</time></trkpt><trkpt lat="43.24071627999601" lon="11.552195116427942"><ele>179.2</ele><time>2026-04-11T03:13:21Z</time></trkpt><trkpt lat="43.24065756767255" lon="11.552329665232339"><ele>179.39999999999998</ele><time>2026-04-11T03:13:23Z</time></trkpt><trkpt lat="43.24060382656105" lon="11.55245448460311"><ele>179.6</ele><time>2026-04-11T03:13:25Z</time></trkpt><trkpt lat="43.24055466570196" lon="11.55257338298688"><ele>179.8</ele><time>2026-04-11T03:13:27Z</time></trkpt><trkpt lat="43.2405094463301" lon="11.552687679164249"><ele>180.0</ele><time>2026-04-11T03:13:29Z</time></trkpt><trkpt lat="43.24044516893085" lon="11.552803372246306"><ele>178.6</ele><time>2026-04-11T03:13:31Z</time></trkpt><trkpt lat="43.240398888921625" lon="11.5528909969336"><ele>177.2</ele><time>2026-04-11T03:13:33Z</time></trkpt><trkpt lat="43.24034540490821" lon="11.552970976853409"><ele>175.8</ele><time>2026-04-11T03:13:35Z</time></trkpt><trkpt lat="43.240438791282386" lon="11.553135046983195"><ele>174.4</ele><time>2026-04-11T03:13:39Z</time></trkpt><trkpt lat="43.24051016115605" lon="11.553169056722034"><ele>173.0</ele><time>2026-04-11T03:13:41Z</time></trkpt><trkpt lat="43.24057586441477" lon="11.553216667628146"><ele>173.33333333333331</ele><time>2026-04-11T03:13:43Z</time></trkpt><trkpt lat="43.24064765279063" lon="11.553265661702717"><ele>173.66666666666666</ele><time>2026-04-11T03:13:45Z</time></trkpt><trkpt lat="43.240721779523156" lon="11.553308067775783"><ele>174.0</ele><time>2026-04-11T03:13:47Z</time></trkpt><trkpt lat="43.2407903780559" lon="11.553363306154653"><ele>174.33333333333334</ele><time>2026-04-11T03:13:49Z</time></trkpt><trkpt lat="43.24086443041752" lon="11.553402982595816"><ele>174.66666666666669</ele><time>2026-04-11T03:13:51Z</time></trkpt><trkpt lat="43.24092737172341" lon="11.5534498904973"><ele>175.0</ele><time>2026-04-11T03:13:53Z</time></trkpt><trkpt lat="43.24098209910782" lon="11.55350249758702"><ele>175.0</ele><time>2026-04-11T03:13:55Z</time></trkpt><trkpt lat="43.24103948788926" lon="11.553543376534671"><ele>175.0</ele><time>2026-04-11T03:13:57Z</time></trkpt><trkpt lat="43.24109461965123" lon="11.553587868786979"><ele>175.0</ele><time>2026-04-11T03:13:59Z</time></trkpt><trkpt lat="43.24114899034569" lon="11.553634350133379"><ele>175.0</ele><time>2026-04-11T03:14:01Z</time></trkpt><trkpt lat="43.24123361716805" lon="11.553700225716556"><ele>175.0</ele><time>2026-04-11T03:14:04Z</time></trkpt><trkpt lat="43.24129174349882" lon="11.553738470903879"><ele>175.0</ele><time>2026-04-11T03:14:06Z</time></trkpt><trkpt lat="43.24135983340327" lon="11.553776864752088"><ele>175.0</ele><time>2026-04-11T03:14:09Z</time></trkpt><trkpt lat="43.241449283185105" lon="11.553811493736148"><ele>175.5</ele><time>2026-04-11T03:14:11.999Z</time></trkpt><trkpt lat="43.24153958288614" lon="11.553811878508872"><ele>176.0</ele><time>2026-04-11T03:14:14.999Z</time></trkpt><trkpt lat="43.2416189222262" lon="11.553813351706031"><ele>176.5</ele><time>2026-04-11T03:14:17.999Z</time></trkpt><trkpt lat="43.241691859799204" lon="11.553828708451876"><ele>177.0</ele><time>2026-04-11T03:14:20.999Z</time></trkpt><trkpt lat="43.24176560645328" lon="11.553821541846853"><ele>177.5</ele><time>2026-04-11T03:14:23.999Z</time></trkpt><trkpt lat="43.24183003233775" lon="11.553822022850174"><ele>178.0</ele><time>2026-04-11T03:14:26.999Z</time></trkpt><trkpt lat="43.2419081709887" lon="11.553844143466296"><ele>178.0</ele><time>2026-04-11T03:14:30.999Z</time></trkpt><trkpt lat="43.241985804356425" lon="11.553876809976307"><ele>178.0</ele><time>2026-04-11T03:14:34.999Z</time></trkpt><trkpt lat="43.242058359236246" lon="11.553915854224577"><ele>178.0</ele><time>2026-04-11T03:14:38.999Z</time></trkpt><trkpt lat="43.24211784701385" lon="11.553958978742124"><ele>178.0</ele><time>2026-04-11T03:14:42.999Z</time></trkpt><trkpt lat="43.242186508310866" lon="11.554005395517233"><ele>178.0</ele><time>2026-04-11T03:14:46.999Z</time></trkpt><trkpt lat="43.24226111278818" lon="11.55404850960966"><ele>178.0</ele><time>2026-04-11T03:14:50.999Z</time></trkpt><trkpt lat="43.24231656657852" lon="11.554115634890323"><ele>180.66666666666669</ele><time>2026-04-11T03:14:54.999Z</time></trkpt><trkpt lat="43.24238106468815" lon="11.554169071106852"><ele>183.33333333333334</ele><time>2026-04-11T03:14:58.999Z</time></trkpt><trkpt lat="43.242448771295294" lon="11.554216666273168"><ele>186.0</ele><time>2026-04-11T03:15:02.999Z</time></trkpt><trkpt lat="43.24252624520304" lon="11.554275984118913"><ele>188.66666666666669</ele><time>2026-04-11T03:15:07Z</time></trkpt><trkpt lat="43.24259813905354" lon="11.554336510577146"><ele>191.33333333333334</ele><time>2026-04-11T03:15:11Z</time></trkpt><trkpt lat="43.242653053934674" lon="11.55438169538528"><ele>194.0</ele><time>2026-04-11T03:15:14Z</time></trkpt><trkpt lat="43.24270985076682" lon="11.554420623434622"><ele>194.0</ele><time>2026-04-11T03:15:17Z</time></trkpt><trkpt lat="43.24277398076974" lon="11.554458259245411"><ele>194.0</ele><time>2026-04-11T03:15:20Z</time></trkpt><trkpt lat="43.24283884520054" lon="11.554488853046015"><ele>194.0</ele><time>2026-04-11T03:15:23Z</time></trkpt><trkpt lat="43.242911832455846" lon="11.554510973341127"><ele>194.0</ele><time>2026-04-11T03:15:26Z</time></trkpt><trkpt lat="43.24299099249171" lon="11.554512156413836"><ele>194.0</ele><time>2026-04-11T03:15:29Z</time></trkpt><trkpt lat="43.243061288058406" lon="11.554527689775115"><ele>194.0</ele><time>2026-04-11T03:15:32Z</time></trkpt><trkpt lat="43.24314178001809" lon="11.554541080605054"><ele>194.0</ele><time>2026-04-11T03:15:35Z</time></trkpt><trkpt lat="43.24323884870241" lon="11.554530366399101"><ele>195.2</ele><time>2026-04-11T03:15:38Z</time></trkpt><trkpt lat="43.243319482215604" lon="11.55450324945557"><ele>196.39999999999998</ele><time>2026-04-11T03:15:40Z</time></trkpt><trkpt lat="43.243404941784675" lon="11.554499388522864"><ele>197.6</ele><time>2026-04-11T03:15:42Z</time></trkpt><trkpt lat="43.243502121037174" lon="11.554479833749413"><ele>198.8</ele><time>2026-04-11T03:15:44Z</time></trkpt><trkpt lat="43.24361564459656" lon="11.554471434046224"><ele>200.0</ele><time>2026-04-11T03:15:46Z</time></trkpt><trkpt lat="43.24373837407808" lon="11.554459300252427"><ele>200.00000000000003</ele><time>2026-04-11T03:15:48Z</time></trkpt><trkpt lat="43.243814005710625" lon="11.554451484971215"><ele>200.0</ele><time>2026-04-11T03:15:49Z</time></trkpt><trkpt lat="43.24387956867113" lon="11.554443517489183"><ele>200.0</ele><time>2026-04-11T03:15:50Z</time></trkpt><trkpt lat="43.24395777944076" lon="11.554429957422219"><ele>200.0</ele><time>2026-04-11T03:15:51Z</time></trkpt><trkpt lat="43.24402944210032" lon="11.554415941214856"><ele>200.0</ele><time>2026-04-11T03:15:52Z</time></trkpt><trkpt lat="43.24410315280347" lon="11.554407558602005"><ele>200.00000000000003</ele><time>2026-04-11T03:15:53Z</time></trkpt><trkpt lat="43.24418539287909" lon="11.554396181997689"><ele>200.0</ele><time>2026-04-11T03:15:54Z</time></trkpt><trkpt lat="43.2442640269404" lon="11.554384692718969"><ele>198.33333333333334</ele><time>2026-04-11T03:15:55Z</time></trkpt><trkpt lat="43.24434856573759" lon="11.554365551495842"><ele>196.66666666666669</ele><time>2026-04-11T03:15:56Z</time></trkpt><trkpt lat="43.24443642825549" lon="11.554363734487398"><ele>195.0</ele><time>2026-04-11T03:15:57Z</time></trkpt><trkpt lat="43.244513298775686" lon="11.554359108489137"><ele>193.33333333333334</ele><time>2026-04-11T03:15:58Z</time></trkpt><trkpt lat="43.244590271318316" lon="11.5543575694732"><ele>191.66666666666669</ele><time>2026-04-11T03:15:59Z</time></trkpt><trkpt lat="43.244660816217795" lon="11.554339932296187"><ele>190.0</ele><time>2026-04-11T03:16:00Z</time></trkpt><trkpt lat="43.244737733475326" lon="11.55433449816354"><ele>189.33333333333334</ele><time>2026-04-11T03:16:01Z</time></trkpt><trkpt lat="43.24480900609168" lon="11.554332847972548"><ele>188.66666666666669</ele><time>2026-04-11T03:16:02Z</time></trkpt><trkpt lat="43.244877542819594" lon="11.55432172038346"><ele>188.0</ele><time>2026-04-11T03:16:03Z</time></trkpt><trkpt lat="43.244952212517006" lon="11.554309932824978"><ele>187.33333333333334</ele><time>2026-04-11T03:16:04Z</time></trkpt><trkpt lat="43.245027999452375" lon="11.55430425986155"><ele>186.66666666666666</ele><time>2026-04-11T03:16:05Z</time></trkpt><trkpt lat="43.245109607057834" lon="11.55428849318067"><ele>186.0</ele><time>2026-04-11T03:16:06Z</time></trkpt><trkpt lat="43.24519107952305" lon="11.554275044162251"><ele>186.0</ele><time>2026-04-11T03:16:07Z</time></trkpt><trkpt lat="43.245265876667894" lon="11.554261470481604"><ele>186.0</ele><time>2026-04-11T03:16:08Z</time></trkpt><trkpt lat="43.24534298682762" lon="11.554244549319694"><ele>186.0</ele><time>2026-04-11T03:16:09Z</time></trkpt><trkpt lat="43.245419850998644" lon="11.554238346799945"><ele>186.0</ele><time>2026-04-11T03:16:10Z</time></trkpt><trkpt lat="43.24550493570964" lon="11.554223729821517"><ele>186.0</ele><time>2026-04-11T03:16:11Z</time></trkpt><trkpt lat="43.24558878015411" lon="11.554216819816245"><ele>186.0</ele><time>2026-04-11T03:16:12Z</time></trkpt><trkpt lat="43.245674138267795" lon="11.554197937633257"><ele>184.5</ele><time>2026-04-11T03:16:13Z</time></trkpt><trkpt lat="43.24575753386239" lon="11.554204880098089"><ele>183.0</ele><time>2026-04-11T03:16:14Z</time></trkpt><trkpt lat="43.24584636099647" lon="11.554192723680922"><ele>181.5</ele><time>2026-04-11T03:16:15Z</time></trkpt><trkpt lat="43.245926256064834" lon="11.554159762207851"><ele>180.0</ele><time>2026-04-11T03:16:16Z</time></trkpt><trkpt lat="43.24600138273451" lon="11.554150227121708"><ele>178.5</ele><time>2026-04-11T03:16:16.999Z</time></trkpt><trkpt lat="43.24608367709727" lon="11.554152525224687"><ele>177.0</ele><time>2026-04-11T03:16:17.999Z</time></trkpt><trkpt lat="43.24617367360712" lon="11.554134860248725"><ele>177.0</ele><time>2026-04-11T03:16:18.999Z</time></trkpt><trkpt lat="43.2462586555884" lon="11.554124809244065"><ele>177.0</ele><time>2026-04-11T03:16:19.999Z</time></trkpt><trkpt lat="43.246338736386036" lon="11.554129689046333"><ele>177.0</ele><time>2026-04-11T03:16:20.999Z</time></trkpt><trkpt lat="43.24641614899375" lon="11.554116698399167"><ele>177.0</ele><time>2026-04-11T03:16:21.999Z</time></trkpt><trkpt lat="43.24649205178638" lon="11.554123572634595"><ele>177.0</ele><time>2026-04-11T03:16:22.999Z</time></trkpt><trkpt lat="43.246558548733354" lon="11.554133500861633"><ele>177.0</ele><time>2026-04-11T03:16:23.999Z</time></trkpt><trkpt lat="43.24663510870459" lon="11.554150135795588"><ele>176.0</ele><time>2026-04-11T03:16:24.999Z</time></trkpt><trkpt lat="43.24674505380303" lon="11.554184263268535"><ele>175.0</ele><time>2026-04-11T03:16:26.999Z</time></trkpt><trkpt lat="43.24680384611572" lon="11.554218426972454"><ele>174.0</ele><time>2026-04-11T03:16:27.999Z</time></trkpt><trkpt lat="43.24690392931837" lon="11.554287165544922"><ele>173.0</ele><time>2026-04-11T03:16:29.999Z</time></trkpt><trkpt lat="43.24700018512067" lon="11.554348058783946"><ele>172.0</ele><time>2026-04-11T03:16:31.999Z</time></trkpt><trkpt lat="43.24707693731984" lon="11.554412609076232"><ele>172.00000000000003</ele><time>2026-04-11T03:16:33.999Z</time></trkpt><trkpt lat="43.24713358738698" lon="11.554450915275506"><ele>172.0</ele><time>2026-04-11T03:16:35.999Z</time></trkpt><trkpt lat="43.24720081853445" lon="11.554497144117072"><ele>172.0</ele><time>2026-04-11T03:16:37.999Z</time></trkpt><trkpt lat="43.24727046990367" lon="11.554558055278696"><ele>172.0</ele><time>2026-04-11T03:16:40.999Z</time></trkpt><trkpt lat="43.24733533753122" lon="11.554609127964742"><ele>172.0</ele><time>2026-04-11T03:16:43.999Z</time></trkpt><trkpt lat="43.247391116663955" lon="11.554651511465455"><ele>172.00000000000003</ele><time>2026-04-11T03:16:46.999Z</time></trkpt><trkpt lat="43.24746324070397" lon="11.554698882530198"><ele>172.0</ele><time>2026-04-11T03:16:50.999Z</time></trkpt><trkpt lat="43.247526621782555" lon="11.554755711156279"><ele>173.00000000000003</ele><time>2026-04-11T03:16:54.999Z</time></trkpt><trkpt lat="43.247583753716164" lon="11.554794096103603"><ele>174.0</ele><time>2026-04-11T03:16:57.999Z</time></trkpt><trkpt lat="43.247653319537086" lon="11.554832934558958"><ele>175.0</ele><time>2026-04-11T03:17:01.999Z</time></trkpt><trkpt lat="43.24772336111156" lon="11.554873781816195"><ele>176.0</ele><time>2026-04-11T03:17:05.999Z</time></trkpt><trkpt lat="43.2477798393538" lon="11.55492430154539"><ele>177.0</ele><time>2026-04-11T03:17:09.999Z</time></trkpt><trkpt lat="43.247844143338185" lon="11.554988448289775"><ele>178.00000000000003</ele><time>2026-04-11T03:17:14Z</time></trkpt><trkpt lat="43.24789474642366" lon="11.555065623769696"><ele>179.0</ele><time>2026-04-11T03:17:18Z</time></trkpt><trkpt lat="43.24792576636228" lon="11.555174383777237"><ele>179.0</ele><time>2026-04-11T03:17:22Z</time></trkpt><trkpt lat="43.247971875763255" lon="11.555243822399937"><ele>179.0</ele><time>2026-04-11T03:17:25Z</time></trkpt><trkpt lat="43.248013615549766" lon="11.555314060394064"><ele>179.0</ele><time>2026-04-11T03:17:28Z</time></trkpt><trkpt lat="43.2480564012446" lon="11.555386871693695"><ele>179.0</ele><time>2026-04-11T03:17:31Z</time></trkpt><trkpt lat="43.24810985249037" lon="11.55546547193799"><ele>179.0</ele><time>2026-04-11T03:17:34Z</time></trkpt><trkpt lat="43.248173538079136" lon="11.555544050594532"><ele>179.0</ele><time>2026-04-11T03:17:37Z</time></trkpt><trkpt lat="43.2482537710046" lon="11.555613923289208"><ele>180.33333333333331</ele><time>2026-04-11T03:17:40Z</time></trkpt><trkpt lat="43.24833025008722" lon="11.555685378417634"><ele>181.66666666666666</ele><time>2026-04-11T03:17:43Z</time></trkpt><trkpt lat="43.24841107042372" lon="11.555749687059492"><ele>183.0</ele><time>2026-04-11T03:17:46Z</time></trkpt><trkpt lat="43.24847264341681" lon="11.555792400276387"><ele>184.33333333333334</ele><time>2026-04-11T03:17:48Z</time></trkpt><trkpt lat="43.24853930308475" lon="11.555857547644948"><ele>185.66666666666669</ele><time>2026-04-11T03:17:50Z</time></trkpt><trkpt lat="43.24861439844538" lon="11.555921747188142"><ele>187.0</ele><time>2026-04-11T03:17:52Z</time></trkpt><trkpt lat="43.24870251637031" lon="11.555985731521353"><ele>187.0</ele><time>2026-04-11T03:17:54Z</time></trkpt><trkpt lat="43.24879293776311" lon="11.556066585414516"><ele>187.0</ele><time>2026-04-11T03:17:56Z</time></trkpt><trkpt lat="43.248895864413235" lon="11.556104686675654"><ele>187.0</ele><time>2026-04-11T03:17:58Z</time></trkpt><trkpt lat="43.24899480653276" lon="11.556091539878032"><ele>187.0</ele><time>2026-04-11T03:18:00Z</time></trkpt><trkpt lat="43.24908226978364" lon="11.55607819339002"><ele>187.0</ele><time>2026-04-11T03:18:02Z</time></trkpt><trkpt lat="43.249168495580825" lon="11.556085377487534"><ele>188.28571428571428</ele><time>2026-04-11T03:18:04Z</time></trkpt><trkpt lat="43.249239234201646" lon="11.556072347967904"><ele>189.57142857142858</ele><time>2026-04-11T03:18:06Z</time></trkpt><trkpt lat="43.249316683235726" lon="11.5560584028417"><ele>190.85714285714286</ele><time>2026-04-11T03:18:08Z</time></trkpt><trkpt lat="43.24938302249258" lon="11.556046649752851"><ele>192.14285714285714</ele><time>2026-04-11T03:18:10Z</time></trkpt><trkpt lat="43.24945394416217" lon="11.556034084809937"><ele>193.42857142857144</ele><time>2026-04-11T03:18:12Z</time></trkpt><trkpt lat="43.249534268640055" lon="11.556019854009776"><ele>194.71428571428572</ele><time>2026-04-11T03:18:14Z</time></trkpt><trkpt lat="43.249608169980576" lon="11.556000335691683"><ele>196.0</ele><time>2026-04-11T03:18:16Z</time></trkpt><trkpt lat="43.24969693766656" lon="11.555991002442493"><ele>195.99999999999997</ele><time>2026-04-11T03:18:18Z</time></trkpt><trkpt lat="43.24978875890563" lon="11.555977766003531"><ele>196.0</ele><time>2026-04-11T03:18:20Z</time></trkpt><trkpt lat="43.249873597816496" lon="11.5559689914147"><ele>196.0</ele><time>2026-04-11T03:18:22Z</time></trkpt><trkpt lat="43.249968549898526" lon="11.555963414641777"><ele>196.0</ele><time>2026-04-11T03:18:23.999Z</time></trkpt><trkpt lat="43.25004403192726" lon="11.555940496880119"><ele>195.99999999999997</ele><time>2026-04-11T03:18:25.999Z</time></trkpt><trkpt lat="43.250124796959824" lon="11.555895531078777"><ele>196.0</ele><time>2026-04-11T03:18:28.999Z</time></trkpt><trkpt lat="43.25018453521253" lon="11.555849787020854"><ele>196.42857142857142</ele><time>2026-04-11T03:18:31.999Z</time></trkpt><trkpt lat="43.25023801759107" lon="11.555800845150934"><ele>196.85714285714286</ele><time>2026-04-11T03:18:34.999Z</time></trkpt><trkpt lat="43.25029834372722" lon="11.555744059577492"><ele>197.28571428571428</ele><time>2026-04-11T03:18:38.999Z</time></trkpt><trkpt lat="43.25035326645007" lon="11.55566238247707"><ele>197.71428571428572</ele><time>2026-04-11T03:18:43.999Z</time></trkpt><trkpt lat="43.250416830951956" lon="11.555603088002641"><ele>198.14285714285714</ele><time>2026-04-11T03:18:48.999Z</time></trkpt><trkpt lat="43.250471905050745" lon="11.555549682344564"><ele>198.57142857142856</ele><time>2026-04-11T03:18:53.999Z</time></trkpt><trkpt lat="43.250520989173836" lon="11.555493641686397"><ele>199.0</ele><time>2026-04-11T03:18:58.999Z</time></trkpt><trkpt lat="43.25057220858592" lon="11.555440723566576"><ele>199.14285714285714</ele><time>2026-04-11T03:19:03.999Z</time></trkpt><trkpt lat="43.25063169708309" lon="11.55540046925261"><ele>199.28571428571428</ele><time>2026-04-11T03:19:08.999Z</time></trkpt><trkpt lat="43.25068129283423" lon="11.555346460065278"><ele>199.42857142857144</ele><time>2026-04-11T03:19:12.999Z</time></trkpt><trkpt lat="43.250734209578404" lon="11.55528883445479"><ele>199.57142857142856</ele><time>2026-04-11T03:19:18Z</time></trkpt><trkpt lat="43.25078290675322" lon="11.555233936348223"><ele>199.71428571428572</ele><time>2026-04-11T03:19:23Z</time></trkpt><trkpt lat="43.25083549111112" lon="11.555174154680213"><ele>199.85714285714286</ele><time>2026-04-11T03:19:28Z</time></trkpt><trkpt lat="43.25089396165254" lon="11.555111788186082"><ele>200.0</ele><time>2026-04-11T03:19:33Z</time></trkpt><trkpt lat="43.25095549518844" lon="11.555055121101766"><ele>202.14285714285717</ele><time>2026-04-11T03:19:38Z</time></trkpt><trkpt lat="43.25101325327616" lon="11.555014696278086"><ele>204.28571428571428</ele><time>2026-04-11T03:19:43Z</time></trkpt><trkpt lat="43.25107809017784" lon="11.554975612253617"><ele>206.42857142857144</ele><time>2026-04-11T03:19:48Z</time></trkpt><trkpt lat="43.25114493794016" lon="11.554942148607731"><ele>208.57142857142858</ele><time>2026-04-11T03:19:52Z</time></trkpt><trkpt lat="43.25121382196834" lon="11.554885900501755"><ele>210.71428571428572</ele><time>2026-04-11T03:19:57Z</time></trkpt><trkpt lat="43.25129459789256" lon="11.554872771398372"><ele>212.85714285714286</ele><time>2026-04-11T03:20:01Z</time></trkpt><trkpt lat="43.251365688233" lon="11.554843293359344"><ele>215.0</ele><time>2026-04-11T03:20:05Z</time></trkpt><trkpt lat="43.25143830775584" lon="11.554813983079155"><ele>214.7142857142857</ele><time>2026-04-11T03:20:09Z</time></trkpt><trkpt lat="43.25151252963034" lon="11.554786316127531"><ele>214.42857142857144</ele><time>2026-04-11T03:20:13Z</time></trkpt><trkpt lat="43.25158474617615" lon="11.554759696981927"><ele>214.14285714285714</ele><time>2026-04-11T03:20:17Z</time></trkpt><trkpt lat="43.25164786616624" lon="11.55473643083972"><ele>213.85714285714283</ele><time>2026-04-11T03:20:21Z</time></trkpt><trkpt lat="43.25170914663197" lon="11.554690558169222"><ele>213.57142857142856</ele><time>2026-04-11T03:20:25Z</time></trkpt><trkpt lat="43.251771116948035" lon="11.55466775476013"><ele>213.28571428571428</ele><time>2026-04-11T03:20:30Z</time></trkpt><trkpt lat="43.251841660838004" lon="11.554651654297619"><ele>213.0</ele><time>2026-04-11T03:20:35Z</time></trkpt><trkpt lat="43.25191527098275" lon="11.554630238055568"><ele>213.0</ele><time>2026-04-11T03:20:39.999Z</time></trkpt><trkpt lat="43.25199249687858" lon="11.554614701897234"><ele>213.0</ele><time>2026-04-11T03:20:44.999Z</time></trkpt><trkpt lat="43.252074255013646" lon="11.554602488651073"><ele>213.0</ele><time>2026-04-11T03:20:48.999Z</time></trkpt><trkpt lat="43.25215300563364" lon="11.554605195974478"><ele>213.0</ele><time>2026-04-11T03:20:51.999Z</time></trkpt><trkpt lat="43.252238424832726" lon="11.55461075765061"><ele>213.0</ele><time>2026-04-11T03:20:54.999Z</time></trkpt><trkpt lat="43.2523098990072" lon="11.554645840392778"><ele>213.0</ele><time>2026-04-11T03:20:56.999Z</time></trkpt><trkpt lat="43.252373343481764" lon="11.55465925006712"><ele>213.16666666666666</ele><time>2026-04-11T03:20:58.999Z</time></trkpt><trkpt lat="43.252465451368124" lon="11.554684655938972"><ele>213.33333333333331</ele><time>2026-04-11T03:21:01.999Z</time></trkpt><trkpt lat="43.25253752510533" lon="11.554708295735043"><ele>213.5</ele><time>2026-04-11T03:21:04.999Z</time></trkpt><trkpt lat="43.252611194502066" lon="11.554704992356335"><ele>213.66666666666666</ele><time>2026-04-11T03:21:07.999Z</time></trkpt><trkpt lat="43.25268646932295" lon="11.554706521185352"><ele>213.83333333333331</ele><time>2026-04-11T03:21:11.999Z</time></trkpt><trkpt lat="43.252753987149596" lon="11.554697962939011"><ele>214.0</ele><time>2026-04-11T03:21:15.999Z</time></trkpt><trkpt lat="43.25281959876886" lon="11.554691754088518"><ele>214.00000000000003</ele><time>2026-04-11T03:21:19.999Z</time></trkpt><trkpt lat="43.252888457239834" lon="11.554688576772492"><ele>214.0</ele><time>2026-04-11T03:21:24Z</time></trkpt><trkpt lat="43.25295225250638" lon="11.554671211462557"><ele>214.0</ele><time>2026-04-11T03:21:28Z</time></trkpt><trkpt lat="43.2530158974489" lon="11.55465171858728"><ele>214.0</ele><time>2026-04-11T03:21:32Z</time></trkpt><trkpt lat="43.253077356473014" lon="11.55462942950125"><ele>214.0</ele><time>2026-04-11T03:21:36Z</time></trkpt><trkpt lat="43.25315116095447" lon="11.554611361379871"><ele>214.00000000000003</ele><time>2026-04-11T03:21:41Z</time></trkpt><trkpt lat="43.25322024899467" lon="11.554581969255633"><ele>214.0</ele><time>2026-04-11T03:21:46Z</time></trkpt><trkpt lat="43.2532889629739" lon="11.55455474699614"><ele>216.57142857142858</ele><time>2026-04-11T03:21:52Z</time></trkpt><trkpt lat="43.25334826695679" lon="11.554514069172024"><ele>219.14285714285717</ele><time>2026-04-11T03:21:57Z</time></trkpt><trkpt lat="43.2534086961939" lon="11.554469402507005"><ele>221.71428571428572</ele><time>2026-04-11T03:22:03Z</time></trkpt><trkpt lat="43.253470943651465" lon="11.554428676645713"><ele>224.2857142857143</ele><time>2026-04-11T03:22:09Z</time></trkpt><trkpt lat="43.25353242726864" lon="11.554380383004"><ele>226.85714285714286</ele><time>2026-04-11T03:22:15Z</time></trkpt><trkpt lat="43.25358357325653" lon="11.554316975792217"><ele>229.42857142857147</ele><time>2026-04-11T03:22:20Z</time></trkpt><trkpt lat="43.25365365533983" lon="11.55427931043484"><ele>232.00000000000003</ele><time>2026-04-11T03:22:25Z</time></trkpt><trkpt lat="43.25371435410181" lon="11.554235738497393"><ele>232.00000000000003</ele><time>2026-04-11T03:22:29Z</time></trkpt><trkpt lat="43.253789578112425" lon="11.554188202429707"><ele>232.0</ele><time>2026-04-11T03:22:33Z</time></trkpt><trkpt lat="43.25384255339413" lon="11.554140165189898"><ele>232.00000000000003</ele><time>2026-04-11T03:22:36Z</time></trkpt><trkpt lat="43.253890764549396" lon="11.55407766966558"><ele>232.00000000000003</ele><time>2026-04-11T03:22:39Z</time></trkpt><trkpt lat="43.253945912119356" lon="11.553993242857265"><ele>232.0</ele><time>2026-04-11T03:22:43Z</time></trkpt><trkpt lat="43.253984777552574" lon="11.55390060647043"><ele>232.00000000000003</ele><time>2026-04-11T03:22:47Z</time></trkpt><trkpt lat="43.25401523423158" lon="11.553822878981771"><ele>232.00000000000003</ele><time>2026-04-11T03:22:50.999Z</time></trkpt><trkpt lat="43.2540392165607" lon="11.5537263398027"><ele>233.8571428571429</ele><time>2026-04-11T03:22:55.999Z</time></trkpt><trkpt lat="43.25404370699929" lon="11.55363002358965"><ele>235.71428571428572</ele><time>2026-04-11T03:23:00.999Z</time></trkpt><trkpt lat="43.254050535131285" lon="11.55353994493765"><ele>237.57142857142858</ele><time>2026-04-11T03:23:05.999Z</time></trkpt><trkpt lat="43.254053759813544" lon="11.553448223394847"><ele>239.42857142857144</ele><time>2026-04-11T03:23:10.999Z</time></trkpt><trkpt lat="43.254051818332364" lon="11.55335343622315"><ele>241.28571428571428</ele><time>2026-04-11T03:23:15.999Z</time></trkpt><trkpt lat="43.25406613343569" lon="11.553251705950647"><ele>243.14285714285714</ele><time>2026-04-11T03:23:20.999Z</time></trkpt><trkpt lat="43.254095508620914" lon="11.553164642060135"><ele>245.0</ele><time>2026-04-11T03:23:25.999Z</time></trkpt><trkpt lat="43.25413686877" lon="11.553086951115406"><ele>245.0</ele><time>2026-04-11T03:23:31Z</time></trkpt><trkpt lat="43.25418765717702" lon="11.553017947737153"><ele>245.0</ele><time>2026-04-11T03:23:36Z</time></trkpt><trkpt lat="43.254247046020716" lon="11.552964573912211"><ele>245.0</ele><time>2026-04-11T03:23:41Z</time></trkpt><trkpt lat="43.25431094400819" lon="11.55293815906685"><ele>245.0</ele><time>2026-04-11T03:23:46Z</time></trkpt><trkpt lat="43.254388577461285" lon="11.55292971022345"><ele>245.0</ele><time>2026-04-11T03:23:51Z</time></trkpt><trkpt lat="43.254455136969156" lon="11.552932710023637"><ele>245.0</ele><time>2026-04-11T03:23:55Z</time></trkpt><trkpt lat="43.25453419084968" lon="11.55292895163859"><ele>245.0</ele><time>2026-04-11T03:23:59Z</time></trkpt><trkpt lat="43.25461769663846" lon="11.552925685015248"><ele>245.00000000000003</ele><time>2026-04-11T03:24:03Z</time></trkpt><trkpt lat="43.25468046157483" lon="11.552916891750657"><ele>245.0</ele><time>2026-04-11T03:24:06Z</time></trkpt><trkpt lat="43.254746217835404" lon="11.552923637476459"><ele>245.0</ele><time>2026-04-11T03:24:09Z</time></trkpt><trkpt lat="43.254875369349996" lon="11.55293202527523"><ele>245.0</ele><time>2026-04-11T03:25:04.999Z</time></trkpt><trkpt lat="43.25496386179789" lon="11.55291517508067"><ele>245.00000000000003</ele><time>2026-04-11T03:25:07.999Z</time></trkpt><trkpt lat="43.25505921146614" lon="11.552906008159168"><ele>245.0</ele><time>2026-04-11T03:25:10.999Z</time></trkpt><trkpt lat="43.25523137641319" lon="11.552914425015011"><ele>245.6</ele><time>2026-04-11T03:25:15.999Z</time></trkpt><trkpt lat="43.255307231357776" lon="11.552910862686293"><ele>246.2</ele><time>2026-04-11T03:25:17.999Z</time></trkpt><trkpt lat="43.25538994412559" lon="11.55290852770851"><ele>246.8</ele><time>2026-04-11T03:25:19.999Z</time></trkpt><trkpt lat="43.255485287738566" lon="11.55292150548072"><ele>247.4</ele><time>2026-04-11T03:25:21.999Z</time></trkpt><trkpt lat="43.25558037635407" lon="11.552949676983241"><ele>248.0</ele><time>2026-04-11T03:25:23.999Z</time></trkpt><trkpt lat="43.25567745322676" lon="11.552992146938745"><ele>248.8</ele><time>2026-04-11T03:25:25.999Z</time></trkpt><trkpt lat="43.25576710292449" lon="11.553044989632399"><ele>249.60000000000002</ele><time>2026-04-11T03:25:27.999Z</time></trkpt><trkpt lat="43.25585723288193" lon="11.553097459512182"><ele>250.39999999999998</ele><time>2026-04-11T03:25:29.999Z</time></trkpt><trkpt lat="43.25594168339676" lon="11.553158605334835"><ele>251.2</ele><time>2026-04-11T03:25:31.999Z</time></trkpt><trkpt lat="43.256032709764746" lon="11.55322121636884"><ele>252.0</ele><time>2026-04-11T03:25:33.999Z</time></trkpt><trkpt lat="43.25612734262349" lon="11.553278545615022"><ele>252.0</ele><time>2026-04-11T03:25:36Z</time></trkpt><trkpt lat="43.25622099268544" lon="11.553345492811227"><ele>252.0</ele><time>2026-04-11T03:25:38Z</time></trkpt><trkpt lat="43.25632163783421" lon="11.553408246960386"><ele>252.0</ele><time>2026-04-11T03:25:40Z</time></trkpt><trkpt lat="43.25641908148902" lon="11.553473880351866"><ele>252.0</ele><time>2026-04-11T03:25:42Z</time></trkpt><trkpt lat="43.25651452559762" lon="11.55353178074682"><ele>252.0</ele><time>2026-04-11T03:25:44Z</time></trkpt><trkpt lat="43.25660934159497" lon="11.553608466895883"><ele>251.8</ele><time>2026-04-11T03:25:46Z</time></trkpt><trkpt lat="43.25671436517005" lon="11.553671137961288"><ele>251.6</ele><time>2026-04-11T03:25:48Z</time></trkpt><trkpt lat="43.25681952637674" lon="11.553714541428123"><ele>251.40000000000003</ele><time>2026-04-11T03:25:50Z</time></trkpt><trkpt lat="43.25692911085951" lon="11.553732261399425"><ele>251.20000000000002</ele><time>2026-04-11T03:25:52Z</time></trkpt><trkpt lat="43.257034601447806" lon="11.553725992944178"><ele>251.0</ele><time>2026-04-11T03:25:54Z</time></trkpt><trkpt lat="43.25713557399266" lon="11.553705793949746"><ele>251.0</ele><time>2026-04-11T03:25:56Z</time></trkpt><trkpt lat="43.25723775879907" lon="11.553681929112738"><ele>251.00000000000003</ele><time>2026-04-11T03:25:58Z</time></trkpt><trkpt lat="43.2573367198922" lon="11.55365543704714"><ele>251.00000000000003</ele><time>2026-04-11T03:26:00Z</time></trkpt><trkpt lat="43.2574377307624" lon="11.553620383783926"><ele>251.0</ele><time>2026-04-11T03:26:02Z</time></trkpt><trkpt lat="43.25753647248437" lon="11.553589947734295"><ele>251.0</ele><time>2026-04-11T03:26:04Z</time></trkpt><trkpt lat="43.2576393324858" lon="11.553538971007416"><ele>251.20000000000002</ele><time>2026-04-11T03:26:06Z</time></trkpt><trkpt lat="43.25774188706359" lon="11.55348075114794"><ele>251.40000000000003</ele><time>2026-04-11T03:26:08Z</time></trkpt><trkpt lat="43.257843730639834" lon="11.553427122485385"><ele>251.6</ele><time>2026-04-11T03:26:10Z</time></trkpt><trkpt lat="43.25794778701698" lon="11.553371482945444"><ele>251.8</ele><time>2026-04-11T03:26:12Z</time></trkpt><trkpt lat="43.25805152943475" lon="11.553327421484527"><ele>252.0</ele><time>2026-04-11T03:26:14Z</time></trkpt><trkpt lat="43.25816040995538" lon="11.553295102712935"><ele>252.0</ele><time>2026-04-11T03:26:16Z</time></trkpt><trkpt lat="43.258283361196625" lon="11.553262095620399"><ele>252.0</ele><time>2026-04-11T03:26:18Z</time></trkpt><trkpt lat="43.25834808284916" lon="11.5532543832561"><ele>252.0</ele><time>2026-04-11T03:26:19Z</time></trkpt><trkpt lat="43.25841606861529" lon="11.553229986365194"><ele>252.0</ele><time>2026-04-11T03:26:20Z</time></trkpt><trkpt lat="43.25849200680681" lon="11.553220653427422"><ele>252.0</ele><time>2026-04-11T03:26:21Z</time></trkpt><trkpt lat="43.25856938094724" lon="11.553199310517908"><ele>252.0</ele><time>2026-04-11T03:26:22Z</time></trkpt><trkpt lat="43.258652784944786" lon="11.553179010295018"><ele>252.0</ele><time>2026-04-11T03:26:23Z</time></trkpt><trkpt lat="43.258736467681615" lon="11.5531556149271"><ele>252.0</ele><time>2026-04-11T03:26:24Z</time></trkpt><trkpt lat="43.2588174914917" lon="11.553122884890186"><ele>252.0</ele><time>2026-04-11T03:26:25Z</time></trkpt><trkpt lat="43.25890015399755" lon="11.553083257712375"><ele>252.0</ele><time>2026-04-11T03:26:26Z</time></trkpt><trkpt lat="43.258980177845125" lon="11.553029336805672"><ele>252.0</ele><time>2026-04-11T03:26:27Z</time></trkpt><trkpt lat="43.25905564383175" lon="11.55298324812505"><ele>252.0</ele><time>2026-04-11T03:26:28Z</time></trkpt><trkpt lat="43.259123881363315" lon="11.552924945463888"><ele>251.0</ele><time>2026-04-11T03:26:29Z</time></trkpt><trkpt lat="43.25918053612432" lon="11.552864749776957"><ele>250.0</ele><time>2026-04-11T03:26:30Z</time></trkpt><trkpt lat="43.259234638930515" lon="11.552805508318515"><ele>249.0</ele><time>2026-04-11T03:26:31Z</time></trkpt><trkpt lat="43.25928320979412" lon="11.552748495787236"><ele>248.0</ele><time>2026-04-11T03:26:32Z</time></trkpt><trkpt lat="43.25936962519582" lon="11.552636214670288"><ele>247.0</ele><time>2026-04-11T03:26:34Z</time></trkpt><trkpt lat="43.25943845456044" lon="11.552511975563116"><ele>246.0</ele><time>2026-04-11T03:26:36Z</time></trkpt><trkpt lat="43.259483219305025" lon="11.552390012255522"><ele>246.0</ele><time>2026-04-11T03:26:38Z</time></trkpt><trkpt lat="43.25951246142325" lon="11.552266498001506"><ele>246.0</ele><time>2026-04-11T03:26:40Z</time></trkpt><trkpt lat="43.259535687348844" lon="11.552167096366427"><ele>246.0</ele><time>2026-04-11T03:26:42Z</time></trkpt><trkpt lat="43.259559047697884" lon="11.552075872319525"><ele>246.0</ele><time>2026-04-11T03:26:44Z</time></trkpt><trkpt lat="43.25958227537683" lon="11.551986771719422"><ele>246.0</ele><time>2026-04-11T03:26:46Z</time></trkpt><trkpt lat="43.25960292124726" lon="11.55190465700844"><ele>246.0</ele><time>2026-04-11T03:26:48Z</time></trkpt><trkpt lat="43.259625492059804" lon="11.551779008271359"><ele>246.0</ele><time>2026-04-11T03:26:51Z</time></trkpt><trkpt lat="43.259648481365275" lon="11.551697222672663"><ele>246.0</ele><time>2026-04-11T03:26:53Z</time></trkpt><trkpt lat="43.25967296388662" lon="11.551578701611861"><ele>246.0</ele><time>2026-04-11T03:26:55.999Z</time></trkpt><trkpt lat="43.25969685381258" lon="11.551469501927883"><ele>246.0</ele><time>2026-04-11T03:26:58.999Z</time></trkpt><trkpt lat="43.259740500119236" lon="11.551348058826376"><ele>246.0</ele><time>2026-04-11T03:27:01.999Z</time></trkpt><trkpt lat="43.259777967780984" lon="11.551227775224984"><ele>246.0</ele><time>2026-04-11T03:27:03.999Z</time></trkpt><trkpt lat="43.2598266843635" lon="11.551102244729162"><ele>246.4</ele><time>2026-04-11T03:27:05.999Z</time></trkpt><trkpt lat="43.25989113127617" lon="11.550965989653589"><ele>246.8</ele><time>2026-04-11T03:27:07.999Z</time></trkpt><trkpt lat="43.25995340728221" lon="11.55084602750002"><ele>247.20000000000002</ele><time>2026-04-11T03:27:09.999Z</time></trkpt><trkpt lat="43.260019255655806" lon="11.550720630104982"><ele>247.60000000000002</ele><time>2026-04-11T03:27:11.999Z</time></trkpt><trkpt lat="43.26006104038894" lon="11.5506444229164"><ele>248.0</ele><time>2026-04-11T03:27:12.999Z</time></trkpt><trkpt lat="43.260096714756195" lon="11.550556816578434"><ele>248.00000000000003</ele><time>2026-04-11T03:27:13.999Z</time></trkpt><trkpt lat="43.26013824490279" lon="11.550478739694771"><ele>248.0</ele><time>2026-04-11T03:27:14.999Z</time></trkpt><trkpt lat="43.26018938567176" lon="11.550402694018649"><ele>248.0</ele><time>2026-04-11T03:27:15.999Z</time></trkpt><trkpt lat="43.26024661283689" lon="11.55031605757105"><ele>248.0</ele><time>2026-04-11T03:27:16.999Z</time></trkpt><trkpt lat="43.260306187008446" lon="11.550231759956862"><ele>248.00000000000003</ele><time>2026-04-11T03:27:17.999Z</time></trkpt><trkpt lat="43.26038536792718" lon="11.550165790475761"><ele>248.0</ele><time>2026-04-11T03:27:18.999Z</time></trkpt><trkpt lat="43.2604448429138" lon="11.550102789139922"><ele>246.83333333333334</ele><time>2026-04-11T03:27:19.999Z</time></trkpt><trkpt lat="43.260512948788495" lon="11.550063825360084"><ele>245.66666666666669</ele><time>2026-04-11T03:27:20.999Z</time></trkpt><trkpt lat="43.26059770793958" lon="11.550025390465589"><ele>244.5</ele><time>2026-04-11T03:27:21.999Z</time></trkpt><trkpt lat="43.26069247512347" lon="11.549986628593102"><ele>243.33333333333331</ele><time>2026-04-11T03:27:22.999Z</time></trkpt><trkpt lat="43.26077757839729" lon="11.549955921889923"><ele>242.16666666666666</ele><time>2026-04-11T03:27:23.999Z</time></trkpt><trkpt lat="43.26086041390758" lon="11.549938003741703"><ele>241.0</ele><time>2026-04-11T03:27:24.999Z</time></trkpt><trkpt lat="43.260944112184845" lon="11.54993601395256"><ele>239.66666666666666</ele><time>2026-04-11T03:27:25.999Z</time></trkpt><trkpt lat="43.26101646521198" lon="11.549948637733742"><ele>238.33333333333331</ele><time>2026-04-11T03:27:26.999Z</time></trkpt><trkpt lat="43.26108066851556" lon="11.549957571033254"><ele>237.0</ele><time>2026-04-11T03:27:27.999Z</time></trkpt><trkpt lat="43.261176558378764" lon="11.549979113848588"><ele>235.66666666666669</ele><time>2026-04-11T03:27:29.999Z</time></trkpt><trkpt lat="43.261257126656844" lon="11.549989676757042"><ele>234.33333333333334</ele><time>2026-04-11T03:27:31.999Z</time></trkpt><trkpt lat="43.261338968202715" lon="11.549995436915736"><ele>233.0</ele><time>2026-04-11T03:27:33.999Z</time></trkpt><trkpt lat="43.26141081676577" lon="11.550002027253385"><ele>233.33333333333334</ele><time>2026-04-11T03:27:35.999Z</time></trkpt><trkpt lat="43.261473627277006" lon="11.549986934470807"><ele>233.66666666666669</ele><time>2026-04-11T03:27:37.999Z</time></trkpt><trkpt lat="43.261557318948995" lon="11.54995333288971"><ele>234.0</ele><time>2026-04-11T03:27:40.999Z</time></trkpt><trkpt lat="43.261645943355" lon="11.54992105503748"><ele>234.33333333333331</ele><time>2026-04-11T03:27:44Z</time></trkpt><trkpt lat="43.26172891617603" lon="11.549884262359708"><ele>234.66666666666666</ele><time>2026-04-11T03:27:47Z</time></trkpt><trkpt lat="43.261809722606856" lon="11.54984705735471"><ele>235.0</ele><time>2026-04-11T03:27:50Z</time></trkpt><trkpt lat="43.26188147475878" lon="11.549801427122285"><ele>235.0</ele><time>2026-04-11T03:27:53Z</time></trkpt><trkpt lat="43.261956644573985" lon="11.549730942370672"><ele>234.99999999999997</ele><time>2026-04-11T03:27:56Z</time></trkpt><trkpt lat="43.26201042820083" lon="11.549677338664617"><ele>235.0</ele><time>2026-04-11T03:27:58Z</time></trkpt><trkpt lat="43.262061595808966" lon="11.549624398739523"><ele>235.0</ele><time>2026-04-11T03:28:00Z</time></trkpt><trkpt lat="43.26211071146155" lon="11.549561673490528"><ele>234.99999999999997</ele><time>2026-04-11T03:28:02Z</time></trkpt><trkpt lat="43.262160984864856" lon="11.549509161272375"><ele>235.0</ele><time>2026-04-11T03:28:04Z</time></trkpt><trkpt lat="43.262233754086566" lon="11.549433407569406"><ele>235.0</ele><time>2026-04-11T03:28:07Z</time></trkpt><trkpt lat="43.262294131309446" lon="11.549354201802556"><ele>236.57142857142856</ele><time>2026-04-11T03:28:10Z</time></trkpt><trkpt lat="43.262348740559865" lon="11.549286525075948"><ele>238.1428571428571</ele><time>2026-04-11T03:28:13Z</time></trkpt><trkpt lat="43.26239715188174" lon="11.549227050020175"><ele>239.71428571428572</ele><time>2026-04-11T03:28:16Z</time></trkpt><trkpt lat="43.26244175176029" lon="11.549160144051138"><ele>241.28571428571428</ele><time>2026-04-11T03:28:19Z</time></trkpt><trkpt lat="43.26249584987787" lon="11.54910556908917"><ele>242.85714285714286</ele><time>2026-04-11T03:28:22Z</time></trkpt><trkpt lat="43.26253397662117" lon="11.549014322228253"><ele>244.42857142857144</ele><time>2026-04-11T03:28:26Z</time></trkpt><trkpt lat="43.26258336406991" lon="11.548942062693493"><ele>246.00000000000003</ele><time>2026-04-11T03:28:30Z</time></trkpt><trkpt lat="43.26262286577156" lon="11.548864215997181"><ele>246.00000000000003</ele><time>2026-04-11T03:28:34Z</time></trkpt><trkpt lat="43.26266445962388" lon="11.548779044116914"><ele>246.0</ele><time>2026-04-11T03:28:38Z</time></trkpt><trkpt lat="43.26269919741729" lon="11.548697048768965"><ele>246.00000000000003</ele><time>2026-04-11T03:28:42Z</time></trkpt><trkpt lat="43.26273958734094" lon="11.548615324762197"><ele>246.00000000000003</ele><time>2026-04-11T03:28:46Z</time></trkpt><trkpt lat="43.2627791304382" lon="11.548542031150605"><ele>246.0</ele><time>2026-04-11T03:28:50Z</time></trkpt><trkpt lat="43.26282778958121" lon="11.548461755067521"><ele>246.00000000000003</ele><time>2026-04-11T03:28:55Z</time></trkpt><trkpt lat="43.26287165283146" lon="11.548392265005013"><ele>246.00000000000003</ele><time>2026-04-11T03:29:00Z</time></trkpt><trkpt lat="43.26291603768716" lon="11.548319753020927"><ele>247.14285714285717</ele><time>2026-04-11T03:29:05Z</time></trkpt><trkpt lat="43.26296285677601" lon="11.548241767281775"><ele>248.28571428571428</ele><time>2026-04-11T03:29:10.999Z</time></trkpt><trkpt lat="43.262999009747276" lon="11.548165244250349"><ele>249.42857142857144</ele><time>2026-04-11T03:29:15.999Z</time></trkpt><trkpt lat="43.263042981642464" lon="11.548094718586842"><ele>250.57142857142858</ele><time>2026-04-11T03:29:20.999Z</time></trkpt><trkpt lat="43.26306097013124" lon="11.547993608092868"><ele>251.71428571428572</ele><time>2026-04-11T03:29:25.999Z</time></trkpt><trkpt lat="43.26309323605701" lon="11.547912426523835"><ele>252.85714285714286</ele><time>2026-04-11T03:29:30.999Z</time></trkpt><trkpt lat="43.26313176568372" lon="11.547826091698159"><ele>254.0</ele><time>2026-04-11T03:29:35.999Z</time></trkpt><trkpt lat="43.26315876741758" lon="11.547728320355581"><ele>255.66666666666669</ele><time>2026-04-11T03:29:40.999Z</time></trkpt><trkpt lat="43.26318784700232" lon="11.547635921988073"><ele>257.33333333333337</ele><time>2026-04-11T03:29:44.999Z</time></trkpt><trkpt lat="43.263241240866265" lon="11.547569170126726"><ele>259.0</ele><time>2026-04-11T03:29:49Z</time></trkpt><trkpt lat="43.2632890684519" lon="11.547486752695127"><ele>260.6666666666667</ele><time>2026-04-11T03:29:53Z</time></trkpt><trkpt lat="43.26333240953601" lon="11.547419574471848"><ele>262.3333333333333</ele><time>2026-04-11T03:29:56Z</time></trkpt><trkpt lat="43.26338872070751" lon="11.547339688369023"><ele>264.0</ele><time>2026-04-11T03:30:00Z</time></trkpt><trkpt lat="43.26345005920115" lon="11.547265413957412"><ele>264.0</ele><time>2026-04-11T03:30:04Z</time></trkpt><trkpt lat="43.263512685301684" lon="11.547198468528975"><ele>264.0</ele><time>2026-04-11T03:30:08Z</time></trkpt><trkpt lat="43.263556251342855" lon="11.547134630715439"><ele>264.0</ele><time>2026-04-11T03:30:11Z</time></trkpt><trkpt lat="43.26363540925052" lon="11.547084444740264"><ele>264.0</ele><time>2026-04-11T03:30:14Z</time></trkpt><trkpt lat="43.26369867335898" lon="11.547027116835332"><ele>264.0</ele><time>2026-04-11T03:30:16Z</time></trkpt><trkpt lat="43.26377501754552" lon="11.546956872627419"><ele>264.0</ele><time>2026-04-11T03:30:18Z</time></trkpt><trkpt lat="43.26386406499171" lon="11.546874552331087"><ele>264.0</ele><time>2026-04-11T03:30:20Z</time></trkpt><trkpt lat="43.26395786086455" lon="11.546787842270575"><ele>264.0</ele><time>2026-04-11T03:30:22Z</time></trkpt><trkpt lat="43.264059147441046" lon="11.546688575287705"><ele>264.0</ele><time>2026-04-11T03:30:24Z</time></trkpt><trkpt lat="43.26413498102102" lon="11.546609290593645"><ele>264.0</ele><time>2026-04-11T03:30:26Z</time></trkpt><trkpt lat="43.26419228374897" lon="11.546545247398708"><ele>264.0</ele><time>2026-04-11T03:30:27Z</time></trkpt><trkpt lat="43.264275388114065" lon="11.5464412730517"><ele>264.0</ele><time>2026-04-11T03:30:29Z</time></trkpt><trkpt lat="43.264332516827345" lon="11.546314152562507"><ele>264.0</ele><time>2026-04-11T03:30:31Z</time></trkpt><trkpt lat="43.26440094681482" lon="11.546216791468886"><ele>264.0</ele><time>2026-04-11T03:30:33Z</time></trkpt><trkpt lat="43.26444755396333" lon="11.546100991069999"><ele>264.0</ele><time>2026-04-11T03:30:35Z</time></trkpt><trkpt lat="43.264481509025785" lon="11.545988837181422"><ele>264.0</ele><time>2026-04-11T03:30:37Z</time></trkpt><trkpt lat="43.26449302097172" lon="11.545868118643224"><ele>266.0</ele><time>2026-04-11T03:30:39Z</time></trkpt><trkpt lat="43.26452318918091" lon="11.545759532748042"><ele>268.0</ele><time>2026-04-11T03:30:41Z</time></trkpt><trkpt lat="43.26454870876059" lon="11.545663845573893"><ele>270.0</ele><time>2026-04-11T03:30:43Z</time></trkpt><trkpt lat="43.26456741041786" lon="11.545562281404228"><ele>272.0</ele><time>2026-04-11T03:30:45Z</time></trkpt><trkpt lat="43.264585624362574" lon="11.54545990584595"><ele>274.0</ele><time>2026-04-11T03:30:47Z</time></trkpt><trkpt lat="43.264589303297605" lon="11.545334581071456"><ele>276.0</ele><time>2026-04-11T03:30:49Z</time></trkpt><trkpt lat="43.264610794099355" lon="11.545228878805444"><ele>276.2</ele><time>2026-04-11T03:30:50.999Z</time></trkpt><trkpt lat="43.26462916490562" lon="11.545107637816555"><ele>276.40000000000003</ele><time>2026-04-11T03:30:52.999Z</time></trkpt><trkpt lat="43.26466184865219" lon="11.544986431439343"><ele>276.6</ele><time>2026-04-11T03:30:54.999Z</time></trkpt><trkpt lat="43.264683528589956" lon="11.544828440727327"><ele>276.8</ele><time>2026-04-11T03:30:56.999Z</time></trkpt><trkpt lat="43.264711290571576" lon="11.544701866178618"><ele>277.0</ele><time>2026-04-11T03:30:58.999Z</time></trkpt><trkpt lat="43.264762446506495" lon="11.544566610113288"><ele>273.57142857142856</ele><time>2026-04-11T03:31:00.999Z</time></trkpt><trkpt lat="43.26479599196351" lon="11.544492238376039"><ele>270.1428571428571</ele><time>2026-04-11T03:31:01.999Z</time></trkpt><trkpt lat="43.26483968543552" lon="11.544398450452363"><ele>266.7142857142857</ele><time>2026-04-11T03:31:02.999Z</time></trkpt><trkpt lat="43.264882297126285" lon="11.544324080733388"><ele>263.2857142857143</ele><time>2026-04-11T03:31:03.999Z</time></trkpt><trkpt lat="43.264912510858004" lon="11.544241858501017"><ele>259.8571428571429</ele><time>2026-04-11T03:31:04.999Z</time></trkpt><trkpt lat="43.26496062207066" lon="11.544179297782533"><ele>256.42857142857144</ele><time>2026-04-11T03:31:05.999Z</time></trkpt><trkpt lat="43.26500577942973" lon="11.544093349561297"><ele>253.00000000000003</ele><time>2026-04-11T03:31:06.999Z</time></trkpt><trkpt lat="43.265044641164366" lon="11.543985418515305"><ele>252.99999999999997</ele><time>2026-04-11T03:31:07.999Z</time></trkpt><trkpt lat="43.265077917275164" lon="11.543877147040575"><ele>253.0</ele><time>2026-04-11T03:31:08.999Z</time></trkpt><trkpt lat="43.265120421969215" lon="11.543772717519651"><ele>253.0</ele><time>2026-04-11T03:31:09.999Z</time></trkpt><trkpt lat="43.26516391139548" lon="11.543681127519083"><ele>253.0</ele><time>2026-04-11T03:31:10.999Z</time></trkpt><trkpt lat="43.2651784025952" lon="11.54357815591567"><ele>252.99999999999997</ele><time>2026-04-11T03:31:11.999Z</time></trkpt><trkpt lat="43.26521541761499" lon="11.543473610788533"><ele>253.0</ele><time>2026-04-11T03:31:12.999Z</time></trkpt><trkpt lat="43.2652465495198" lon="11.543369905397494"><ele>251.49999999999997</ele><time>2026-04-11T03:31:13.999Z</time></trkpt><trkpt lat="43.26525139085436" lon="11.543261291435599"><ele>250.0</ele><time>2026-04-11T03:31:14.999Z</time></trkpt><trkpt lat="43.265253854813196" lon="11.543144282292653"><ele>248.5</ele><time>2026-04-11T03:31:15.999Z</time></trkpt><trkpt lat="43.26523796015933" lon="11.54303085911095"><ele>247.0</ele><time>2026-04-11T03:31:16.999Z</time></trkpt><trkpt lat="43.26521159114004" lon="11.542911435133638"><ele>245.49999999999997</ele><time>2026-04-11T03:31:17.999Z</time></trkpt><trkpt lat="43.265213646890125" lon="11.542776295355614"><ele>244.0</ele><time>2026-04-11T03:31:18.999Z</time></trkpt><trkpt lat="43.265210609573614" lon="11.542652919861967"><ele>242.83333333333331</ele><time>2026-04-11T03:31:19.999Z</time></trkpt><trkpt lat="43.26521768585287" lon="11.542540111960617"><ele>241.66666666666666</ele><time>2026-04-11T03:31:20.999Z</time></trkpt><trkpt lat="43.26523677041068" lon="11.542440000003614"><ele>240.5</ele><time>2026-04-11T03:31:21.999Z</time></trkpt><trkpt lat="43.26526393708687" lon="11.542354219095003"><ele>239.33333333333331</ele><time>2026-04-11T03:31:22.999Z</time></trkpt><trkpt lat="43.26529407674882" lon="11.542269939024415"><ele>238.16666666666666</ele><time>2026-04-11T03:31:23.999Z</time></trkpt><trkpt lat="43.26532580619026" lon="11.542141838126215"><ele>237.0</ele><time>2026-04-11T03:31:25.999Z</time></trkpt><trkpt lat="43.265378553223044" lon="11.54203850098124"><ele>236.5</ele><time>2026-04-11T03:31:27.999Z</time></trkpt><trkpt lat="43.26540680770332" lon="11.541926058594543"><ele>236.0</ele><time>2026-04-11T03:31:29.999Z</time></trkpt><trkpt lat="43.26543735440485" lon="11.54181272066004"><ele>235.5</ele><time>2026-04-11T03:31:31.999Z</time></trkpt><trkpt lat="43.265458264125996" lon="11.541699147005628"><ele>235.0</ele><time>2026-04-11T03:31:33.999Z</time></trkpt><trkpt lat="43.26548413953618" lon="11.54158234600849"><ele>234.5</ele><time>2026-04-11T03:31:35.999Z</time></trkpt><trkpt lat="43.26550138016771" lon="11.541479330183305"><ele>234.0</ele><time>2026-04-11T03:31:37.999Z</time></trkpt><trkpt lat="43.26551164871706" lon="11.541372096825821"><ele>234.0</ele><time>2026-04-11T03:31:39.999Z</time></trkpt><trkpt lat="43.2655257486204" lon="11.541271636311318"><ele>234.00000000000003</ele><time>2026-04-11T03:31:41.999Z</time></trkpt><trkpt lat="43.26553502434515" lon="11.541169752228654"><ele>234.0</ele><time>2026-04-11T03:31:43.999Z</time></trkpt><trkpt lat="43.265547589087525" lon="11.541069601535204"><ele>234.0</ele><time>2026-04-11T03:31:45.999Z</time></trkpt><trkpt lat="43.26555000989601" lon="11.540980861904897"><ele>234.00000000000003</ele><time>2026-04-11T03:31:47.999Z</time></trkpt><trkpt lat="43.26554991229808" lon="11.540888036654456"><ele>234.0</ele><time>2026-04-11T03:31:49.999Z</time></trkpt><trkpt lat="43.26555763360436" lon="11.540799339456754"><ele>234.0</ele><time>2026-04-11T03:31:51.999Z</time></trkpt><trkpt lat="43.26558688295527" lon="11.540716104163325"><ele>234.66666666666666</ele><time>2026-04-11T03:31:54Z</time></trkpt><trkpt lat="43.265600424717576" lon="11.54061675892693"><ele>235.33333333333331</ele><time>2026-04-11T03:31:56Z</time></trkpt><trkpt lat="43.265638084098164" lon="11.540523374324128"><ele>236.0</ele><time>2026-04-11T03:31:58Z</time></trkpt><trkpt lat="43.26568755731761" lon="11.540449140537214"><ele>236.66666666666666</ele><time>2026-04-11T03:32:00Z</time></trkpt><trkpt lat="43.26573240671757" lon="11.540376257482247"><ele>237.33333333333331</ele><time>2026-04-11T03:32:02Z</time></trkpt><trkpt lat="43.265803534814296" lon="11.540282590326166"><ele>238.0</ele><time>2026-04-11T03:32:04Z</time></trkpt><trkpt lat="43.26589215077185" lon="11.540154296654705"><ele>239.49999999999997</ele><time>2026-04-11T03:32:06Z</time></trkpt><trkpt lat="43.26594917330113" lon="11.540092856944188"><ele>241.0</ele><time>2026-04-11T03:32:07Z</time></trkpt><trkpt lat="43.26599878865841" lon="11.54001897460136"><ele>242.5</ele><time>2026-04-11T03:32:08Z</time></trkpt><trkpt lat="43.26604215772337" lon="11.539922054442673"><ele>244.0</ele><time>2026-04-11T03:32:09Z</time></trkpt><trkpt lat="43.26609594865952" lon="11.53984698969071"><ele>245.49999999999997</ele><time>2026-04-11T03:32:10Z</time></trkpt><trkpt lat="43.26615995729569" lon="11.539777822775003"><ele>247.0</ele><time>2026-04-11T03:32:11Z</time></trkpt><trkpt lat="43.26619942191214" lon="11.539700563337808"><ele>246.99999999999997</ele><time>2026-04-11T03:32:12Z</time></trkpt><trkpt lat="43.266246162100735" lon="11.539622931709367"><ele>247.0</ele><time>2026-04-11T03:32:13Z</time></trkpt><trkpt lat="43.26630757191012" lon="11.539534142062287"><ele>247.0</ele><time>2026-04-11T03:32:14Z</time></trkpt><trkpt lat="43.266353693804085" lon="11.539449695364203"><ele>247.0</ele><time>2026-04-11T03:32:15Z</time></trkpt><trkpt lat="43.26639761976535" lon="11.53934498223992"><ele>246.99999999999997</ele><time>2026-04-11T03:32:16Z</time></trkpt><trkpt lat="43.26645152058095" lon="11.539258056379524"><ele>247.0</ele><time>2026-04-11T03:32:17Z</time></trkpt><trkpt lat="43.266493279257446" lon="11.53917100981059"><ele>245.2</ele><time>2026-04-11T03:32:18Z</time></trkpt><trkpt lat="43.2665584356138" lon="11.539104799745447"><ele>243.39999999999998</ele><time>2026-04-11T03:32:19Z</time></trkpt><trkpt lat="43.26666808690768" lon="11.539027428903669"><ele>241.60000000000002</ele><time>2026-04-11T03:32:21Z</time></trkpt><trkpt lat="43.26676971475207" lon="11.538966427411411"><ele>239.8</ele><time>2026-04-11T03:32:23Z</time></trkpt><trkpt lat="43.26689218781506" lon="11.53891066289881"><ele>238.0</ele><time>2026-04-11T03:32:25Z</time></trkpt><trkpt lat="43.26695704396023" lon="11.538867983195898"><ele>237.99999999999997</ele><time>2026-04-11T03:32:26Z</time></trkpt><trkpt lat="43.267025415047286" lon="11.538822479839412"><ele>238.0</ele><time>2026-04-11T03:32:27Z</time></trkpt><trkpt lat="43.2670927487678" lon="11.538781979187355"><ele>238.0</ele><time>2026-04-11T03:32:28Z</time></trkpt><trkpt lat="43.26717043245931" lon="11.53874072983518"><ele>238.0</ele><time>2026-04-11T03:32:29Z</time></trkpt><trkpt lat="43.267240634208974" lon="11.538693072149893"><ele>237.99999999999997</ele><time>2026-04-11T03:32:30Z</time></trkpt><trkpt lat="43.26736706212911" lon="11.538619834520196"><ele>238.0</ele><time>2026-04-11T03:32:32Z</time></trkpt><trkpt lat="43.267437540190684" lon="11.538571721894947"><ele>237.16666666666666</ele><time>2026-04-11T03:32:33Z</time></trkpt><trkpt lat="43.26748827753639" lon="11.53851249641105"><ele>236.33333333333331</ele><time>2026-04-11T03:32:34Z</time></trkpt><trkpt lat="43.26754976347011" lon="11.538484816186696"><ele>235.5</ele><time>2026-04-11T03:32:35Z</time></trkpt><trkpt lat="43.26765493925884" lon="11.538406244886309"><ele>234.66666666666669</ele><time>2026-04-11T03:32:37Z</time></trkpt><trkpt lat="43.267755138376394" lon="11.53833304363395"><ele>233.83333333333334</ele><time>2026-04-11T03:32:39Z</time></trkpt><trkpt lat="43.26781161615918" lon="11.538289998814111"><ele>233.0</ele><time>2026-04-11T03:32:40Z</time></trkpt><trkpt lat="43.26787820407724" lon="11.538248498288217"><ele>233.00000000000003</ele><time>2026-04-11T03:32:41Z</time></trkpt><trkpt lat="43.26794512523658" lon="11.53819767414733"><ele>233.0</ele><time>2026-04-11T03:32:42Z</time></trkpt><trkpt lat="43.268017074883716" lon="11.538147628551595"><ele>233.0</ele><time>2026-04-11T03:32:43Z</time></trkpt><trkpt lat="43.2680819651461" lon="11.538098169741088"><ele>233.0</ele><time>2026-04-11T03:32:44Z</time></trkpt><trkpt lat="43.26815089397589" lon="11.538057972419832"><ele>233.00000000000003</ele><time>2026-04-11T03:32:45Z</time></trkpt><trkpt lat="43.26822003034432" lon="11.538005848649531"><ele>233.0</ele><time>2026-04-11T03:32:46Z</time></trkpt><trkpt lat="43.26828970833154" lon="11.537959557167571"><ele>230.83333333333334</ele><time>2026-04-11T03:32:47Z</time></trkpt><trkpt lat="43.2683579891239" lon="11.537910036929498"><ele>228.66666666666669</ele><time>2026-04-11T03:32:48Z</time></trkpt><trkpt lat="43.26842073364953" lon="11.537861603911951"><ele>226.5</ele><time>2026-04-11T03:32:49Z</time></trkpt><trkpt lat="43.26847921904492" lon="11.537815960075518"><ele>224.33333333333331</ele><time>2026-04-11T03:32:50Z</time></trkpt><trkpt lat="43.26853796536401" lon="11.537782234503267"><ele>222.16666666666666</ele><time>2026-04-11T03:32:51Z</time></trkpt><trkpt lat="43.26865574917463" lon="11.537721151655935"><ele>220.0</ele><time>2026-04-11T03:32:53Z</time></trkpt><trkpt lat="43.26871891919836" lon="11.537709736395335"><ele>219.49999999999997</ele><time>2026-04-11T03:32:54Z</time></trkpt><trkpt lat="43.26878466483094" lon="11.537719038315556"><ele>219.0</ele><time>2026-04-11T03:32:55Z</time></trkpt><trkpt lat="43.26885051319088" lon="11.537720087963216"><ele>218.5</ele><time>2026-04-11T03:32:56Z</time></trkpt><trkpt lat="43.26892834740167" lon="11.537749288820143"><ele>218.0</ele><time>2026-04-11T03:32:57Z</time></trkpt><trkpt lat="43.26898967652451" lon="11.537782515281732"><ele>217.49999999999997</ele><time>2026-04-11T03:32:58Z</time></trkpt><trkpt lat="43.26910934840404" lon="11.537815303210117"><ele>217.0</ele><time>2026-04-11T03:33:00Z</time></trkpt><trkpt lat="43.269177478790645" lon="11.53783067518995"><ele>215.0</ele><time>2026-04-11T03:33:01Z</time></trkpt><trkpt lat="43.2692529540006" lon="11.537841857111898"><ele>213.0</ele><time>2026-04-11T03:33:02Z</time></trkpt><trkpt lat="43.269325407504596" lon="11.537842048395822"><ele>211.0</ele><time>2026-04-11T03:33:03Z</time></trkpt><trkpt lat="43.26939884679872" lon="11.53783286020121"><ele>209.0</ele><time>2026-04-11T03:33:04Z</time></trkpt><trkpt lat="43.26946955024308" lon="11.53780993939956"><ele>207.0</ele><time>2026-04-11T03:33:05Z</time></trkpt><trkpt lat="43.26954173340086" lon="11.53778753135413"><ele>205.0</ele><time>2026-04-11T03:33:06Z</time></trkpt><trkpt lat="43.26961779089141" lon="11.537755911138222"><ele>203.0</ele><time>2026-04-11T03:33:07Z</time></trkpt><trkpt lat="43.2696954242348" lon="11.537715796263008"><ele>203.0</ele><time>2026-04-11T03:33:08Z</time></trkpt><trkpt lat="43.2697688866345" lon="11.537673801220675"><ele>203.0</ele><time>2026-04-11T03:33:09Z</time></trkpt><trkpt lat="43.26983746383964" lon="11.5376305342017"><ele>203.0</ele><time>2026-04-11T03:33:10Z</time></trkpt><trkpt lat="43.2699106400948" lon="11.537587934057902"><ele>203.0</ele><time>2026-04-11T03:33:10.999Z</time></trkpt><trkpt lat="43.269980806541945" lon="11.537562813316157"><ele>203.0</ele><time>2026-04-11T03:33:11.999Z</time></trkpt><trkpt lat="43.27004563874839" lon="11.537550357245202"><ele>203.0</ele><time>2026-04-11T03:33:12.999Z</time></trkpt><trkpt lat="43.270111483926556" lon="11.537552720721287"><ele>203.0</ele><time>2026-04-11T03:33:13.999Z</time></trkpt><trkpt lat="43.27022575547293" lon="11.537603437151326"><ele>200.4</ele><time>2026-04-11T03:33:15.999Z</time></trkpt><trkpt lat="43.270325371707" lon="11.537657632616089"><ele>197.8</ele><time>2026-04-11T03:33:17.999Z</time></trkpt><trkpt lat="43.27042954976616" lon="11.537694877909713"><ele>195.2</ele><time>2026-04-11T03:33:19.999Z</time></trkpt><trkpt lat="43.270532275996004" lon="11.537715429615165"><ele>192.6</ele><time>2026-04-11T03:33:21.999Z</time></trkpt><trkpt lat="43.27062696845813" lon="11.53773052540408"><ele>190.0</ele><time>2026-04-11T03:33:23.999Z</time></trkpt><trkpt lat="43.27071542268321" lon="11.537790439968706"><ele>189.0</ele><time>2026-04-11T03:33:25.999Z</time></trkpt><trkpt lat="43.27083385795781" lon="11.53786146929978"><ele>188.0</ele><time>2026-04-11T03:33:27.999Z</time></trkpt><trkpt lat="43.27090733547788" lon="11.537909948523197"><ele>187.0</ele><time>2026-04-11T03:33:28.999Z</time></trkpt><trkpt lat="43.27097336804372" lon="11.537966251375785"><ele>186.0</ele><time>2026-04-11T03:33:29.999Z</time></trkpt><trkpt lat="43.2710397144142" lon="11.538044064223907"><ele>185.0</ele><time>2026-04-11T03:33:30.999Z</time></trkpt><trkpt lat="43.27109271746729" lon="11.538119192116518"><ele>184.66666666666666</ele><time>2026-04-11T03:33:31.999Z</time></trkpt><trkpt lat="43.27114941065617" lon="11.53818822057417"><ele>184.33333333333331</ele><time>2026-04-11T03:33:32.999Z</time></trkpt><trkpt lat="43.2711880529601" lon="11.538268966923344"><ele>184.0</ele><time>2026-04-11T03:33:33.999Z</time></trkpt><trkpt lat="43.27123762113877" lon="11.538352779455337"><ele>183.66666666666666</ele><time>2026-04-11T03:33:34.999Z</time></trkpt><trkpt lat="43.27128794376447" lon="11.538468853597303"><ele>183.33333333333334</ele><time>2026-04-11T03:33:36.999Z</time></trkpt><trkpt lat="43.27133250363523" lon="11.538547876650316"><ele>183.0</ele><time>2026-04-11T03:33:38.999Z</time></trkpt><trkpt lat="43.2713590913947" lon="11.538626799923609"><ele>183.0</ele><time>2026-04-11T03:33:40.999Z</time></trkpt><trkpt lat="43.2713972474158" lon="11.538701252428481"><ele>183.0</ele><time>2026-04-11T03:33:42.999Z</time></trkpt><trkpt lat="43.27144229239893" lon="11.538800601739394"><ele>183.0</ele><time>2026-04-11T03:33:45.999Z</time></trkpt><trkpt lat="43.271475422926976" lon="11.538905430533289"><ele>183.0</ele><time>2026-04-11T03:33:48.999Z</time></trkpt><trkpt lat="43.27151690104552" lon="11.539000125913674"><ele>183.0</ele><time>2026-04-11T03:33:51.999Z</time></trkpt><trkpt lat="43.27154807830148" lon="11.539094676401657"><ele>183.0</ele><time>2026-04-11T03:33:54.999Z</time></trkpt><trkpt lat="43.27158387676709" lon="11.539182232054076"><ele>183.57142857142858</ele><time>2026-04-11T03:33:57.999Z</time></trkpt><trkpt lat="43.27161746017479" lon="11.539264369743439"><ele>184.14285714285717</ele><time>2026-04-11T03:34:01Z</time></trkpt><trkpt lat="43.27165353852425" lon="11.539352609593168"><ele>184.71428571428572</ele><time>2026-04-11T03:34:04Z</time></trkpt><trkpt lat="43.271701973701504" lon="11.539427892886614"><ele>185.28571428571428</ele><time>2026-04-11T03:34:07Z</time></trkpt><trkpt lat="43.271719884478316" lon="11.539514877222974"><ele>185.85714285714286</ele><time>2026-04-11T03:34:10Z</time></trkpt><trkpt lat="43.27175296449882" lon="11.539597099618703"><ele>186.42857142857142</ele><time>2026-04-11T03:34:13Z</time></trkpt><trkpt lat="43.271786735098395" lon="11.539681008820244"><ele>187.0</ele><time>2026-04-11T03:34:16Z</time></trkpt><trkpt lat="43.27181784992626" lon="11.539758319041164"><ele>187.33333333333334</ele><time>2026-04-11T03:34:19Z</time></trkpt><trkpt lat="43.27185166172469" lon="11.53984233056821"><ele>187.66666666666669</ele><time>2026-04-11T03:34:22Z</time></trkpt><trkpt lat="43.27188656018518" lon="11.539926499225281"><ele>188.0</ele><time>2026-04-11T03:34:25Z</time></trkpt><trkpt lat="43.27192596824878" lon="11.54002556347882"><ele>188.33333333333334</ele><time>2026-04-11T03:34:28Z</time></trkpt><trkpt lat="43.27196528542882" lon="11.540124496514938"><ele>188.66666666666666</ele><time>2026-04-11T03:34:31Z</time></trkpt><trkpt lat="43.272004156405" lon="11.540220530363365"><ele>189.0</ele><time>2026-04-11T03:34:34Z</time></trkpt><trkpt lat="43.27204286761601" lon="11.54031631153543"><ele>189.28571428571428</ele><time>2026-04-11T03:34:37Z</time></trkpt><trkpt lat="43.272081420043364" lon="11.54041239039665"><ele>189.57142857142856</ele><time>2026-04-11T03:34:40Z</time></trkpt><trkpt lat="43.272114847803685" lon="11.540495697497747"><ele>189.85714285714286</ele><time>2026-04-11T03:34:43Z</time></trkpt><trkpt lat="43.272158269788314" lon="11.540577977315467"><ele>190.14285714285714</ele><time>2026-04-11T03:34:46Z</time></trkpt><trkpt lat="43.272195126946954" lon="11.54066481523298"><ele>190.42857142857142</ele><time>2026-04-11T03:34:49Z</time></trkpt><trkpt lat="43.27221865377672" lon="11.540760477023637"><ele>190.71428571428572</ele><time>2026-04-11T03:34:52Z</time></trkpt><trkpt lat="43.27225180327284" lon="11.54085047199063"><ele>191.0</ele><time>2026-04-11T03:34:55Z</time></trkpt><trkpt lat="43.27228289782393" lon="11.540937408139838"><ele>191.71428571428572</ele><time>2026-04-11T03:34:58Z</time></trkpt><trkpt lat="43.272316707067226" lon="11.541032643781495"><ele>192.42857142857142</ele><time>2026-04-11T03:35:01Z</time></trkpt><trkpt lat="43.27234478099033" lon="11.54111863580104"><ele>193.14285714285714</ele><time>2026-04-11T03:35:04Z</time></trkpt><trkpt lat="43.27237247795685" lon="11.541208992406847"><ele>193.85714285714286</ele><time>2026-04-11T03:35:07Z</time></trkpt><trkpt lat="43.27239661066108" lon="11.54130302807289"><ele>194.57142857142856</ele><time>2026-04-11T03:35:11Z</time></trkpt><trkpt lat="43.27241588330058" lon="11.541388341795535"><ele>195.28571428571428</ele><time>2026-04-11T03:35:15Z</time></trkpt><trkpt lat="43.27243150206451" lon="11.541473530329881"><ele>196.0</ele><time>2026-04-11T03:35:18.999Z</time></trkpt><trkpt lat="43.27244668012508" lon="11.54157121238097"><ele>197.0</ele><time>2026-04-11T03:35:23.999Z</time></trkpt><trkpt lat="43.27245995449874" lon="11.541670942923288"><ele>198.0</ele><time>2026-04-11T03:35:28.999Z</time></trkpt><trkpt lat="43.2724720449161" lon="11.541764693147696"><ele>199.0</ele><time>2026-04-11T03:35:33.999Z</time></trkpt><trkpt lat="43.272482290858164" lon="11.541853882267539"><ele>200.0</ele><time>2026-04-11T03:35:38.999Z</time></trkpt><trkpt lat="43.272504540216985" lon="11.541946823888598"><ele>201.0</ele><time>2026-04-11T03:35:43.999Z</time></trkpt><trkpt lat="43.272512982598954" lon="11.542044292408745"><ele>202.0</ele><time>2026-04-11T03:35:48.999Z</time></trkpt><trkpt lat="43.27252084054954" lon="11.542139497378901"><ele>203.0</ele><time>2026-04-11T03:35:53.999Z</time></trkpt><trkpt lat="43.27253152491617" lon="11.542231043326378"><ele>204.14285714285714</ele><time>2026-04-11T03:35:58.999Z</time></trkpt><trkpt lat="43.27254414492374" lon="11.54231942429768"><ele>205.28571428571428</ele><time>2026-04-11T03:36:03.999Z</time></trkpt><trkpt lat="43.27255980772388" lon="11.542422602614359"><ele>206.42857142857144</ele><time>2026-04-11T03:36:10Z</time></trkpt><trkpt lat="43.27257680774438" lon="11.542509547998263"><ele>207.57142857142856</ele><time>2026-04-11T03:36:15Z</time></trkpt><trkpt lat="43.27260324252972" lon="11.54259327937226"><ele>208.71428571428572</ele><time>2026-04-11T03:36:20Z</time></trkpt><trkpt lat="43.272622971322726" lon="11.542684871717759"><ele>209.85714285714286</ele><time>2026-04-11T03:36:25Z</time></trkpt><trkpt lat="43.27264700918244" lon="11.54277076141367"><ele>211.0</ele><time>2026-04-11T03:36:30Z</time></trkpt><trkpt lat="43.2726800378882" lon="11.542855905249713"><ele>211.0</ele><time>2026-04-11T03:36:35Z</time></trkpt><trkpt lat="43.27272029041506" lon="11.542929764786676"><ele>211.0</ele><time>2026-04-11T03:36:40Z</time></trkpt><trkpt lat="43.272781356586286" lon="11.542968260729312"><ele>211.0</ele><time>2026-04-11T03:36:45Z</time></trkpt><trkpt lat="43.27284666833788" lon="11.542969949537719"><ele>211.0</ele><time>2026-04-11T03:36:50Z</time></trkpt><trkpt lat="43.27290913518361" lon="11.542946021019581"><ele>211.0</ele><time>2026-04-11T03:36:55Z</time></trkpt><trkpt lat="43.272968403223345" lon="11.542905744681468"><ele>211.0</ele><time>2026-04-11T03:37:00Z</time></trkpt><trkpt lat="43.2730302841043" lon="11.542883147643641"><ele>211.0</ele><time>2026-04-11T03:37:05Z</time></trkpt><trkpt lat="43.273100072936856" lon="11.542873638583023"><ele>214.0</ele><time>2026-04-11T03:37:10Z</time></trkpt><trkpt lat="43.27316208589126" lon="11.542896840654388"><ele>217.0</ele><time>2026-04-11T03:37:15Z</time></trkpt><trkpt lat="43.2732242419943" lon="11.542947018569993"><ele>220.0</ele><time>2026-04-11T03:37:21Z</time></trkpt><trkpt lat="43.27328145954547" lon="11.542985521768806"><ele>223.0</ele><time>2026-04-11T03:37:25.999Z</time></trkpt><trkpt lat="43.27333802235951" lon="11.543029227117206"><ele>226.0</ele><time>2026-04-11T03:37:30.999Z</time></trkpt><trkpt lat="43.27339153866209" lon="11.543080369512792"><ele>229.00000000000003</ele><time>2026-04-11T03:37:35.999Z</time></trkpt><trkpt lat="43.273443527096305" lon="11.543135536827315"><ele>232.00000000000003</ele><time>2026-04-11T03:37:40.999Z</time></trkpt><trkpt lat="43.27349416571848" lon="11.54319157336877"><ele>232.00000000000003</ele><time>2026-04-11T03:37:45.999Z</time></trkpt><trkpt lat="43.27354807822313" lon="11.543242743621745"><ele>232.0</ele><time>2026-04-11T03:37:50.999Z</time></trkpt><trkpt lat="43.27359606656751" lon="11.543301734133562"><ele>232.00000000000003</ele><time>2026-04-11T03:37:55.999Z</time></trkpt><trkpt lat="43.273638927318245" lon="11.543386928700837"><ele>232.00000000000003</ele><time>2026-04-11T03:38:00.999Z</time></trkpt><trkpt lat="43.273654547975134" lon="11.543472710047485"><ele>232.0</ele><time>2026-04-11T03:38:04.999Z</time></trkpt><trkpt lat="43.27365308266237" lon="11.543565594078238"><ele>232.00000000000003</ele><time>2026-04-11T03:38:08.999Z</time></trkpt><trkpt lat="43.27364613700998" lon="11.54365562899"><ele>232.00000000000003</ele><time>2026-04-11T03:38:13Z</time></trkpt><trkpt lat="43.27361747814267" lon="11.543734843224115"><ele>233.14285714285717</ele><time>2026-04-11T03:38:17Z</time></trkpt><trkpt lat="43.273577337104314" lon="11.543820793484427"><ele>234.28571428571428</ele><time>2026-04-11T03:38:22Z</time></trkpt><trkpt lat="43.27352678526854" lon="11.543897236602538"><ele>235.42857142857144</ele><time>2026-04-11T03:38:27Z</time></trkpt><trkpt lat="43.27347309957079" lon="11.543963617832915"><ele>236.57142857142858</ele><time>2026-04-11T03:38:32Z</time></trkpt><trkpt lat="43.2734318462688" lon="11.544034793566272"><ele>237.71428571428572</ele><time>2026-04-11T03:38:37Z</time></trkpt><trkpt lat="43.27338015400294" lon="11.544088595030631"><ele>238.85714285714286</ele><time>2026-04-11T03:38:42Z</time></trkpt><trkpt lat="43.273330662232766" lon="11.54416651545746"><ele>240.0</ele><time>2026-04-11T03:38:47Z</time></trkpt><trkpt lat="43.27328619040406" lon="11.544242419976968"><ele>240.0</ele><time>2026-04-11T03:38:52Z</time></trkpt><trkpt lat="43.273249120621045" lon="11.544329647608178"><ele>240.0</ele><time>2026-04-11T03:38:57Z</time></trkpt><trkpt lat="43.27321682897603" lon="11.54442132752971"><ele>240.0</ele><time>2026-04-11T03:39:02Z</time></trkpt><trkpt lat="43.27319695405021" lon="11.544524306481302"><ele>240.0</ele><time>2026-04-11T03:39:07Z</time></trkpt><trkpt lat="43.27318249140579" lon="11.544610995920118"><ele>240.0</ele><time>2026-04-11T03:39:11Z</time></trkpt><trkpt lat="43.273178134541524" lon="11.544703416363914"><ele>240.0</ele><time>2026-04-11T03:39:15Z</time></trkpt><trkpt lat="43.273171708275726" lon="11.544804721361867"><ele>240.0</ele><time>2026-04-11T03:39:19Z</time></trkpt><trkpt lat="43.273170308148" lon="11.54490697621045"><ele>240.71428571428572</ele><time>2026-04-11T03:39:23Z</time></trkpt><trkpt lat="43.27317301620194" lon="11.545013384823424"><ele>241.42857142857142</ele><time>2026-04-11T03:39:27Z</time></trkpt><trkpt lat="43.27316456996106" lon="11.545121906270223"><ele>242.14285714285714</ele><time>2026-04-11T03:39:30.999Z</time></trkpt><trkpt lat="43.273160875372994" lon="11.545216527024795"><ele>242.85714285714286</ele><time>2026-04-11T03:39:33.999Z</time></trkpt><trkpt lat="43.27315994067876" lon="11.54530918814547"><ele>243.57142857142856</ele><time>2026-04-11T03:39:36.999Z</time></trkpt><trkpt lat="43.27314410985256" lon="11.545400318100631"><ele>244.28571428571428</ele><time>2026-04-11T03:39:39.999Z</time></trkpt><trkpt lat="43.27314539135806" lon="11.545498402957246"><ele>245.0</ele><time>2026-04-11T03:39:42.999Z</time></trkpt><trkpt lat="43.27313397433339" lon="11.545598762011702"><ele>246.16666666666669</ele><time>2026-04-11T03:39:45.999Z</time></trkpt><trkpt lat="43.27314571690204" lon="11.545693933865836"><ele>247.33333333333334</ele><time>2026-04-11T03:39:48.999Z</time></trkpt><trkpt lat="43.27315693201333" lon="11.545790443216763"><ele>248.5</ele><time>2026-04-11T03:39:51.999Z</time></trkpt><trkpt lat="43.27317869596175" lon="11.545905070570875"><ele>249.66666666666669</ele><time>2026-04-11T03:39:55.999Z</time></trkpt><trkpt lat="43.27318822820064" lon="11.546011360123524"><ele>250.83333333333334</ele><time>2026-04-11T03:39:59.999Z</time></trkpt><trkpt lat="43.27321245769093" lon="11.546106668469735"><ele>252.0</ele><time>2026-04-11T03:40:03.999Z</time></trkpt><trkpt lat="43.27324893455845" lon="11.546193368380685"><ele>253.28571428571428</ele><time>2026-04-11T03:40:07.999Z</time></trkpt><trkpt lat="43.27327077789435" lon="11.54628668015399"><ele>254.57142857142856</ele><time>2026-04-11T03:40:11.999Z</time></trkpt><trkpt lat="43.2733013810836" lon="11.54637564456134"><ele>255.85714285714286</ele><time>2026-04-11T03:40:15.999Z</time></trkpt><trkpt lat="43.2733274920325" lon="11.546464278927383"><ele>257.1428571428571</ele><time>2026-04-11T03:40:20Z</time></trkpt><trkpt lat="43.273353990474696" lon="11.546544191841642"><ele>258.42857142857144</ele><time>2026-04-11T03:40:24Z</time></trkpt><trkpt lat="43.273392248834426" lon="11.546639726106541"><ele>259.7142857142857</ele><time>2026-04-11T03:40:29Z</time></trkpt><trkpt lat="43.273433336188816" lon="11.546729378591628"><ele>261.0</ele><time>2026-04-11T03:40:34Z</time></trkpt><trkpt lat="43.273467848321125" lon="11.546809759491737"><ele>261.0</ele><time>2026-04-11T03:40:38Z</time></trkpt><trkpt lat="43.27350630418464" lon="11.546897135881528"><ele>261.0</ele><time>2026-04-11T03:40:43Z</time></trkpt><trkpt lat="43.27355756824564" lon="11.546955494945381"><ele>261.0</ele><time>2026-04-11T03:40:47Z</time></trkpt><trkpt lat="43.27361411548814" lon="11.547011859564268"><ele>261.0</ele><time>2026-04-11T03:40:51Z</time></trkpt><trkpt lat="43.27367326592055" lon="11.547057105324363"><ele>261.0</ele><time>2026-04-11T03:40:55Z</time></trkpt><trkpt lat="43.27373882481393" lon="11.547090968149984"><ele>261.0</ele><time>2026-04-11T03:40:59Z</time></trkpt><trkpt lat="43.27380097775213" lon="11.547112607291737"><ele>261.0</ele><time>2026-04-11T03:41:03Z</time></trkpt><trkpt lat="43.27387825338328" lon="11.547129191385162"><ele>263.57142857142856</ele><time>2026-04-11T03:41:08Z</time></trkpt><trkpt lat="43.273954110324404" lon="11.547102112585145"><ele>266.1428571428571</ele><time>2026-04-11T03:41:13Z</time></trkpt><trkpt lat="43.274029036395085" lon="11.547098089668687"><ele>268.71428571428567</ele><time>2026-04-11T03:41:18Z</time></trkpt><trkpt lat="43.274105270343824" lon="11.547103925654087"><ele>271.2857142857143</ele><time>2026-04-11T03:41:23Z</time></trkpt><trkpt lat="43.27416712103832" lon="11.547127066062249"><ele>273.85714285714283</ele><time>2026-04-11T03:41:27Z</time></trkpt><trkpt lat="43.274231114339" lon="11.547120444539107"><ele>276.4285714285714</ele><time>2026-04-11T03:41:31Z</time></trkpt><trkpt lat="43.274306111911145" lon="11.547102279579398"><ele>279.0</ele><time>2026-04-11T03:41:35.999Z</time></trkpt><trkpt lat="43.27437987632642" lon="11.547075699843509"><ele>278.99999999999994</ele><time>2026-04-11T03:41:40.999Z</time></trkpt><trkpt lat="43.274455960613665" lon="11.547069297542642"><ele>279.0</ele><time>2026-04-11T03:41:45.999Z</time></trkpt><trkpt lat="43.27452833242518" lon="11.547053323851651"><ele>279.0</ele><time>2026-04-11T03:41:50.999Z</time></trkpt><trkpt lat="43.27460296722545" lon="11.547063486072231"><ele>279.0</ele><time>2026-04-11T03:41:55.999Z</time></trkpt><trkpt lat="43.27466974600923" lon="11.547104663840681"><ele>279.0</ele><time>2026-04-11T03:42:00.999Z</time></trkpt><trkpt lat="43.27472984660189" lon="11.547154439357945"><ele>278.99999999999994</ele><time>2026-04-11T03:42:05.999Z</time></trkpt><trkpt lat="43.27479646811723" lon="11.547198280169518"><ele>279.0</ele><time>2026-04-11T03:42:10.999Z</time></trkpt><trkpt lat="43.2748442187825" lon="11.547265039921038"><ele>279.99999999999994</ele><time>2026-04-11T03:42:15.999Z</time></trkpt><trkpt lat="43.27490016910558" lon="11.547312355410206"><ele>281.0</ele><time>2026-04-11T03:42:20.999Z</time></trkpt><trkpt lat="43.27495669719975" lon="11.547363047373983"><ele>282.0</ele><time>2026-04-11T03:42:26Z</time></trkpt><trkpt lat="43.27501699718708" lon="11.54740931829337"><ele>283.0</ele><time>2026-04-11T03:42:31Z</time></trkpt><trkpt lat="43.27507766659065" lon="11.547447380107794"><ele>284.0</ele><time>2026-04-11T03:42:36Z</time></trkpt><trkpt lat="43.27513482761181" lon="11.547487877375135"><ele>284.99999999999994</ele><time>2026-04-11T03:42:41Z</time></trkpt><trkpt lat="43.27518925174506" lon="11.54754031659918"><ele>286.0</ele><time>2026-04-11T03:42:46Z</time></trkpt><trkpt lat="43.27524742174315" lon="11.547596557311772"><ele>285.99999999999994</ele><time>2026-04-11T03:42:51Z</time></trkpt><trkpt lat="43.275310579480504" lon="11.547646725017021"><ele>286.0</ele><time>2026-04-11T03:42:56Z</time></trkpt><trkpt lat="43.275373706266684" lon="11.547704336960615"><ele>286.0</ele><time>2026-04-11T03:43:01Z</time></trkpt><trkpt lat="43.275429140859615" lon="11.547746400550283"><ele>286.0</ele><time>2026-04-11T03:43:05Z</time></trkpt><trkpt lat="43.27548756612839" lon="11.54781638559116"><ele>286.0</ele><time>2026-04-11T03:43:10Z</time></trkpt><trkpt lat="43.275552221140764" lon="11.547873530655725"><ele>285.99999999999994</ele><time>2026-04-11T03:43:15Z</time></trkpt><trkpt lat="43.27561279644743" lon="11.547916136959284"><ele>286.0</ele><time>2026-04-11T03:43:19Z</time></trkpt><trkpt lat="43.27568122679587" lon="11.547956592252309"><ele>288.1428571428571</ele><time>2026-04-11T03:43:23Z</time></trkpt><trkpt lat="43.27574551012372" lon="11.547997832556103"><ele>290.2857142857143</ele><time>2026-04-11T03:43:27Z</time></trkpt><trkpt lat="43.275819420975296" lon="11.548028763322918"><ele>292.42857142857144</ele><time>2026-04-11T03:43:31Z</time></trkpt><trkpt lat="43.27589602730377" lon="11.548068435908903"><ele>294.57142857142856</ele><time>2026-04-11T03:43:35Z</time></trkpt><trkpt lat="43.275954383742075" lon="11.548104008844383"><ele>296.7142857142857</ele><time>2026-04-11T03:43:38Z</time></trkpt><trkpt lat="43.27602968050232" lon="11.54812588057124"><ele>298.85714285714283</ele><time>2026-04-11T03:43:41.999Z</time></trkpt><trkpt lat="43.276092816717245" lon="11.548144351106927"><ele>301.0</ele><time>2026-04-11T03:43:45.999Z</time></trkpt><trkpt lat="43.27617325896026" lon="11.548167534341252"><ele>301.0</ele><time>2026-04-11T03:43:48.999Z</time></trkpt><trkpt lat="43.276240796560835" lon="11.548189016856025"><ele>301.0</ele><time>2026-04-11T03:43:51.999Z</time></trkpt><trkpt lat="43.27631961506156" lon="11.54822047588504"><ele>301.0</ele><time>2026-04-11T03:43:55.999Z</time></trkpt><trkpt lat="43.27640831859828" lon="11.548250849754721"><ele>301.0</ele><time>2026-04-11T03:46:02.999Z</time></trkpt><trkpt lat="43.27649020635444" lon="11.54827706361034"><ele>301.0</ele><time>2026-04-11T03:46:06.999Z</time></trkpt><trkpt lat="43.276553675530856" lon="11.548316771627366"><ele>301.0</ele><time>2026-04-11T03:46:08.999Z</time></trkpt><trkpt lat="43.27662996889853" lon="11.54837562365802"><ele>301.40000000000003</ele><time>2026-04-11T03:46:10.999Z</time></trkpt><trkpt lat="43.27671969711129" lon="11.54845256260949"><ele>301.8</ele><time>2026-04-11T03:46:12.999Z</time></trkpt><trkpt lat="43.276818311363456" lon="11.54852964125056"><ele>302.20000000000005</ele><time>2026-04-11T03:46:14.999Z</time></trkpt><trkpt lat="43.27691716198764" lon="11.54863160007829"><ele>302.6</ele><time>2026-04-11T03:46:16.999Z</time></trkpt><trkpt lat="43.27697541674574" lon="11.548685387505756"><ele>303.0</ele><time>2026-04-11T03:46:17.999Z</time></trkpt><trkpt lat="43.277035044847324" lon="11.548739637418242"><ele>303.0</ele><time>2026-04-11T03:46:18.999Z</time></trkpt><trkpt lat="43.277141357677415" lon="11.548841328388392"><ele>303.0</ele><time>2026-04-11T03:46:20.999Z</time></trkpt><trkpt lat="43.277194325223256" lon="11.548889290773536"><ele>303.0</ele><time>2026-04-11T03:46:21.999Z</time></trkpt><trkpt lat="43.27724870221008" lon="11.548941646045128"><ele>303.0</ele><time>2026-04-11T03:46:22.999Z</time></trkpt><trkpt lat="43.27731473147863" lon="11.5489865407216"><ele>303.0</ele><time>2026-04-11T03:46:23.999Z</time></trkpt><trkpt lat="43.2773733699735" lon="11.54903070758876"><ele>303.0</ele><time>2026-04-11T03:46:24.999Z</time></trkpt><trkpt lat="43.27743274947182" lon="11.549077602867658"><ele>300.6666666666667</ele><time>2026-04-11T03:46:25.999Z</time></trkpt><trkpt lat="43.277530510728006" lon="11.549187997462123"><ele>298.3333333333333</ele><time>2026-04-11T03:46:27.999Z</time></trkpt><trkpt lat="43.27759546594709" lon="11.549221257900301"><ele>296.0</ele><time>2026-04-11T03:46:28.999Z</time></trkpt><trkpt lat="43.277647020664425" lon="11.549279442464597"><ele>293.66666666666663</ele><time>2026-04-11T03:46:29.999Z</time></trkpt><trkpt lat="43.27774560068575" lon="11.549369755541719"><ele>291.3333333333333</ele><time>2026-04-11T03:46:31.999Z</time></trkpt><trkpt lat="43.277810503136884" lon="11.549397783499801"><ele>289.0</ele><time>2026-04-11T03:46:32.999Z</time></trkpt><trkpt lat="43.27787088327803" lon="11.549429399828014"><ele>289.0</ele><time>2026-04-11T03:46:33.999Z</time></trkpt><trkpt lat="43.2779430227397" lon="11.549433030566616"><ele>289.0</ele><time>2026-04-11T03:46:34.999Z</time></trkpt><trkpt lat="43.27801751453377" lon="11.549439367511638"><ele>289.0</ele><time>2026-04-11T03:46:36Z</time></trkpt><trkpt lat="43.278104132548485" lon="11.549431615306721"><ele>289.0</ele><time>2026-04-11T03:46:37Z</time></trkpt><trkpt lat="43.278196760326175" lon="11.549447456041209"><ele>289.0</ele><time>2026-04-11T03:46:38Z</time></trkpt><trkpt lat="43.278269105547544" lon="11.549442770627842"><ele>289.0</ele><time>2026-04-11T03:46:39Z</time></trkpt><trkpt lat="43.27833917486354" lon="11.549427572488016"><ele>286.0</ele><time>2026-04-11T03:46:40Z</time></trkpt><trkpt lat="43.27842411693348" lon="11.549449401240585"><ele>283.0</ele><time>2026-04-11T03:46:41Z</time></trkpt><trkpt lat="43.27851980079383" lon="11.549452136231288"><ele>280.0</ele><time>2026-04-11T03:46:42Z</time></trkpt><trkpt lat="43.278617754444966" lon="11.549454936102347"><ele>277.0</ele><time>2026-04-11T03:46:43Z</time></trkpt><trkpt lat="43.27871136421174" lon="11.549460130881874"><ele>274.0</ele><time>2026-04-11T03:46:44Z</time></trkpt><trkpt lat="43.2787970482279" lon="11.549474210649114"><ele>274.0</ele><time>2026-04-11T03:46:45Z</time></trkpt><trkpt lat="43.27887294084959" lon="11.54949980064816"><ele>274.0</ele><time>2026-04-11T03:46:46Z</time></trkpt><trkpt lat="43.27895208764435" lon="11.549541670342265"><ele>274.0</ele><time>2026-04-11T03:46:47Z</time></trkpt><trkpt lat="43.279027037707245" lon="11.549596259306627"><ele>274.0</ele><time>2026-04-11T03:46:48Z</time></trkpt><trkpt lat="43.27909217871383" lon="11.549645628448667"><ele>274.0</ele><time>2026-04-11T03:46:49Z</time></trkpt><trkpt lat="43.27916574218312" lon="11.54969976264037"><ele>274.0</ele><time>2026-04-11T03:46:50Z</time></trkpt><trkpt lat="43.27924563267478" lon="11.549757035751478"><ele>273.59999999999997</ele><time>2026-04-11T03:46:51Z</time></trkpt><trkpt lat="43.2793282078793" lon="11.54981552896707"><ele>273.2</ele><time>2026-04-11T03:46:52Z</time></trkpt><trkpt lat="43.279427034432544" lon="11.54985206982068"><ele>272.79999999999995</ele><time>2026-04-11T03:46:53Z</time></trkpt><trkpt lat="43.27951616832681" lon="11.549896743150446"><ele>272.4</ele><time>2026-04-11T03:46:54Z</time></trkpt><trkpt lat="43.27959479095946" lon="11.549930778439036"><ele>272.0</ele><time>2026-04-11T03:46:55Z</time></trkpt><trkpt lat="43.279687693553974" lon="11.549947210607417"><ele>271.5</ele><time>2026-04-11T03:46:56Z</time></trkpt><trkpt lat="43.279770473192585" lon="11.549945094112973"><ele>271.0</ele><time>2026-04-11T03:46:57Z</time></trkpt><trkpt lat="43.279846271674295" lon="11.549935875539761"><ele>270.5</ele><time>2026-04-11T03:46:58Z</time></trkpt><trkpt lat="43.279973386822014" lon="11.549904128372908"><ele>270.0</ele><time>2026-04-11T03:47:00Z</time></trkpt><trkpt lat="43.280037891673196" lon="11.549883985458747"><ele>269.5</ele><time>2026-04-11T03:47:01Z</time></trkpt><trkpt lat="43.28010821941474" lon="11.54985723958351"><ele>269.0</ele><time>2026-04-11T03:47:02Z</time></trkpt><trkpt lat="43.28017749416298" lon="11.549830484323447"><ele>269.0</ele><time>2026-04-11T03:47:03Z</time></trkpt><trkpt lat="43.28023948604246" lon="11.549794913203822"><ele>269.0</ele><time>2026-04-11T03:47:04Z</time></trkpt><trkpt lat="43.28032592073028" lon="11.54973458492021"><ele>269.0</ele><time>2026-04-11T03:47:06Z</time></trkpt><trkpt lat="43.28039582530851" lon="11.549684598963378"><ele>269.0</ele><time>2026-04-11T03:47:08Z</time></trkpt><trkpt lat="43.28045816262518" lon="11.549651690716553"><ele>269.0</ele><time>2026-04-11T03:47:10Z</time></trkpt><trkpt lat="43.280522968934754" lon="11.549594909750644"><ele>269.0</ele><time>2026-04-11T03:47:13Z</time></trkpt><trkpt lat="43.28058763443692" lon="11.549547911192544"><ele>270.7142857142857</ele><time>2026-04-11T03:47:16Z</time></trkpt><trkpt lat="43.28064226123613" lon="11.549498291140763"><ele>272.42857142857144</ele><time>2026-04-11T03:47:19Z</time></trkpt><trkpt lat="43.28069123258762" lon="11.549435081632353"><ele>274.14285714285717</ele><time>2026-04-11T03:47:22Z</time></trkpt><trkpt lat="43.28074766145552" lon="11.549365421901985"><ele>275.8571428571429</ele><time>2026-04-11T03:47:26Z</time></trkpt><trkpt lat="43.28078927439536" lon="11.549296788601174"><ele>277.57142857142856</ele><time>2026-04-11T03:47:30Z</time></trkpt><trkpt lat="43.28082959923465" lon="11.549210229753532"><ele>279.28571428571433</ele><time>2026-04-11T03:47:35Z</time></trkpt><trkpt lat="43.28087038971763" lon="11.549128426803945"><ele>281.0</ele><time>2026-04-11T03:47:40Z</time></trkpt><trkpt lat="43.280919504946" lon="11.549066088533225"><ele>281.00000000000006</ele><time>2026-04-11T03:47:45Z</time></trkpt><trkpt lat="43.280968883045134" lon="11.54900354007697"><ele>281.0</ele><time>2026-04-11T03:47:50Z</time></trkpt><trkpt lat="43.281011255402035" lon="11.548926101616935"><ele>281.0</ele><time>2026-04-11T03:47:55Z</time></trkpt><trkpt lat="43.281055449331525" lon="11.548843999504717"><ele>281.0</ele><time>2026-04-11T03:47:59.999Z</time></trkpt><trkpt lat="43.281112986521336" lon="11.5487781713859"><ele>281.0</ele><time>2026-04-11T03:48:04.999Z</time></trkpt><trkpt lat="43.28116099570345" lon="11.548715476811603"><ele>281.00000000000006</ele><time>2026-04-11T03:48:08.999Z</time></trkpt><trkpt lat="43.28121916654392" lon="11.548660179098187"><ele>281.0</ele><time>2026-04-11T03:48:13.999Z</time></trkpt><trkpt lat="43.28127079393866" lon="11.548608249378924"><ele>280.8571428571429</ele><time>2026-04-11T03:48:17.999Z</time></trkpt><trkpt lat="43.28132275867058" lon="11.548557074830985"><ele>280.7142857142857</ele><time>2026-04-11T03:48:21.999Z</time></trkpt><trkpt lat="43.281376941941545" lon="11.548501706591484"><ele>280.57142857142856</ele><time>2026-04-11T03:48:25.999Z</time></trkpt><trkpt lat="43.28142671116669" lon="11.548447072977387"><ele>280.42857142857144</ele><time>2026-04-11T03:48:29.999Z</time></trkpt><trkpt lat="43.28147639959263" lon="11.548391905237034"><ele>280.2857142857143</ele><time>2026-04-11T03:48:33.999Z</time></trkpt><trkpt lat="43.28153424946823" lon="11.548334434638322"><ele>280.14285714285717</ele><time>2026-04-11T03:48:38.999Z</time></trkpt><trkpt lat="43.281596031230016" lon="11.548273925242931"><ele>280.0</ele><time>2026-04-11T03:48:44Z</time></trkpt><trkpt lat="43.2816543348173" lon="11.548217639522141"><ele>283.0</ele><time>2026-04-11T03:48:49Z</time></trkpt><trkpt lat="43.281719268499046" lon="11.548157516452465"><ele>286.0</ele><time>2026-04-11T03:48:54Z</time></trkpt><trkpt lat="43.28178251419292" lon="11.548127529768816"><ele>289.0</ele><time>2026-04-11T03:48:58Z</time></trkpt><trkpt lat="43.28185281046712" lon="11.54814248977992"><ele>292.0</ele><time>2026-04-11T03:49:02Z</time></trkpt><trkpt lat="43.28192907010904" lon="11.548142489778744"><ele>295.0</ele><time>2026-04-11T03:49:06Z</time></trkpt><trkpt lat="43.28201042145517" lon="11.548124835386604"><ele>298.0</ele><time>2026-04-11T03:49:10Z</time></trkpt><trkpt lat="43.28208239615621" lon="11.548131998733165"><ele>301.0</ele><time>2026-04-11T03:49:14Z</time></trkpt><trkpt lat="43.28217675178984" lon="11.54813904451421"><ele>301.0</ele><time>2026-04-11T03:49:17Z</time></trkpt><trkpt lat="43.28226073047774" lon="11.5481411773083"><ele>301.0</ele><time>2026-04-11T03:49:19Z</time></trkpt><trkpt lat="43.28235256651082" lon="11.548151174108218"><ele>301.0</ele><time>2026-04-11T03:49:21Z</time></trkpt><trkpt lat="43.28245103521374" lon="11.548173416767748"><ele>301.0</ele><time>2026-04-11T03:49:23Z</time></trkpt><trkpt lat="43.28256306445959" lon="11.548177564724034"><ele>301.0</ele><time>2026-04-11T03:49:25Z</time></trkpt><trkpt lat="43.282680544195124" lon="11.548218225468501"><ele>300.66666666666663</ele><time>2026-04-11T03:49:27Z</time></trkpt><trkpt lat="43.282743823170236" lon="11.548232972830219"><ele>300.3333333333333</ele><time>2026-04-11T03:49:28Z</time></trkpt><trkpt lat="43.28280644051298" lon="11.548252994220622"><ele>300.0</ele><time>2026-04-11T03:49:29Z</time></trkpt><trkpt lat="43.28286734338192" lon="11.54829456789291"><ele>299.6666666666667</ele><time>2026-04-11T03:49:30Z</time></trkpt><trkpt lat="43.282974015773675" lon="11.548370274022698"><ele>299.33333333333337</ele><time>2026-04-11T03:49:32Z</time></trkpt><trkpt lat="43.283083951066814" lon="11.548420694864864"><ele>299.0</ele><time>2026-04-11T03:49:34Z</time></trkpt><trkpt lat="43.283169220547315" lon="11.548540896900956"><ele>299.0</ele><time>2026-04-11T03:49:36Z</time></trkpt><trkpt lat="43.2832788252984" lon="11.54861879552534"><ele>299.0</ele><time>2026-04-11T03:49:38Z</time></trkpt><trkpt lat="43.28338427427218" lon="11.548690441229533"><ele>299.0</ele><time>2026-04-11T03:49:40Z</time></trkpt><trkpt lat="43.28348179871502" lon="11.54874390828183"><ele>299.0</ele><time>2026-04-11T03:49:42Z</time></trkpt><trkpt lat="43.28354358026804" lon="11.548763729357171"><ele>299.0</ele><time>2026-04-11T03:49:43Z</time></trkpt><trkpt lat="43.28361338209661" lon="11.548788176143121"><ele>298.59999999999997</ele><time>2026-04-11T03:49:44Z</time></trkpt><trkpt lat="43.28373686191282" lon="11.54883872129619"><ele>298.2</ele><time>2026-04-11T03:49:46Z</time></trkpt><trkpt lat="43.2838568468515" lon="11.548846252715139"><ele>297.79999999999995</ele><time>2026-04-11T03:49:48Z</time></trkpt><trkpt lat="43.28391944199245" lon="11.54886077008679"><ele>297.4</ele><time>2026-04-11T03:49:49Z</time></trkpt><trkpt lat="43.28399704416059" lon="11.548860253243001"><ele>297.0</ele><time>2026-04-11T03:49:50Z</time></trkpt><trkpt lat="43.284117517672044" lon="11.54882265147286"><ele>297.0</ele><time>2026-04-11T03:49:52Z</time></trkpt><trkpt lat="43.284185230600364" lon="11.54877378751499"><ele>297.0</ele><time>2026-04-11T03:49:53Z</time></trkpt><trkpt lat="43.28424522055408" lon="11.548740452162162"><ele>297.0</ele><time>2026-04-11T03:49:54Z</time></trkpt><trkpt lat="43.284297902039" lon="11.548680183213161"><ele>297.0</ele><time>2026-04-11T03:49:55Z</time></trkpt><trkpt lat="43.28434975687379" lon="11.54861113311074"><ele>297.0</ele><time>2026-04-11T03:49:56Z</time></trkpt><trkpt lat="43.28438925201922" lon="11.548541181697134"><ele>297.0</ele><time>2026-04-11T03:49:57Z</time></trkpt><trkpt lat="43.28442936415877" lon="11.548420745156479"><ele>297.0</ele><time>2026-04-11T03:49:59Z</time></trkpt><trkpt lat="43.284496115133216" lon="11.548296139195271"><ele>296.6666666666667</ele><time>2026-04-11T03:50:01Z</time></trkpt><trkpt lat="43.28453989786844" lon="11.54816021241111"><ele>296.3333333333333</ele><time>2026-04-11T03:50:02.999Z</time></trkpt><trkpt lat="43.284580045739965" lon="11.548029867854378"><ele>296.0</ele><time>2026-04-11T03:50:04.999Z</time></trkpt><trkpt lat="43.28462496759257" lon="11.547916475816296"><ele>295.66666666666663</ele><time>2026-04-11T03:50:06.999Z</time></trkpt><trkpt lat="43.28465282890222" lon="11.547825141700393"><ele>295.3333333333333</ele><time>2026-04-11T03:50:08.999Z</time></trkpt><trkpt lat="43.28469848350194" lon="11.547751635453288"><ele>295.0</ele><time>2026-04-11T03:50:10.999Z</time></trkpt><trkpt lat="43.2847147640549" lon="11.5476439092288"><ele>293.5714285714286</ele><time>2026-04-11T03:50:12.999Z</time></trkpt><trkpt lat="43.28473258221229" lon="11.547553188696778"><ele>292.14285714285717</ele><time>2026-04-11T03:50:14.999Z</time></trkpt><trkpt lat="43.28473246326059" lon="11.54745967833696"><ele>290.7142857142857</ele><time>2026-04-11T03:50:16.999Z</time></trkpt><trkpt lat="43.284734157985355" lon="11.54737039956108"><ele>289.28571428571433</ele><time>2026-04-11T03:50:18.999Z</time></trkpt><trkpt lat="43.284732689543816" lon="11.547281159458077"><ele>287.8571428571429</ele><time>2026-04-11T03:50:20.999Z</time></trkpt><trkpt lat="43.28476560971251" lon="11.547173346685291"><ele>286.42857142857144</ele><time>2026-04-11T03:50:23.999Z</time></trkpt><trkpt lat="43.284789645382865" lon="11.547058649722727"><ele>285.0</ele><time>2026-04-11T03:50:26.999Z</time></trkpt><trkpt lat="43.28481073823995" lon="11.546955590571752"><ele>288.57142857142856</ele><time>2026-04-11T03:50:29.999Z</time></trkpt><trkpt lat="43.284866578556034" lon="11.54687974720246"><ele>292.14285714285717</ele><time>2026-04-11T03:50:32.999Z</time></trkpt><trkpt lat="43.28491633162532" lon="11.546807204582596"><ele>295.7142857142857</ele><time>2026-04-11T03:50:35.999Z</time></trkpt><trkpt lat="43.284953718016865" lon="11.546734751940733"><ele>299.2857142857143</ele><time>2026-04-11T03:50:38.999Z</time></trkpt><trkpt lat="43.28501508309857" lon="11.546679387520953"><ele>302.85714285714283</ele><time>2026-04-11T03:50:42.999Z</time></trkpt><trkpt lat="43.285080624502996" lon="11.54662946631975"><ele>306.42857142857144</ele><time>2026-04-11T03:50:45.999Z</time></trkpt><trkpt lat="43.285145418428954" lon="11.546571581443217"><ele>310.0</ele><time>2026-04-11T03:50:50Z</time></trkpt><trkpt lat="43.28523435789736" lon="11.54651382613474"><ele>310.0</ele><time>2026-04-11T03:50:54Z</time></trkpt><trkpt lat="43.28530380567541" lon="11.54648383214347"><ele>310.0</ele><time>2026-04-11T03:50:57Z</time></trkpt><trkpt lat="43.28536658061007" lon="11.546463582207672"><ele>310.0</ele><time>2026-04-11T03:51:00Z</time></trkpt><trkpt lat="43.28543392506475" lon="11.546448209158445"><ele>310.0</ele><time>2026-04-11T03:51:03Z</time></trkpt><trkpt lat="43.28549815190423" lon="11.546414623355208"><ele>310.0</ele><time>2026-04-11T03:51:05Z</time></trkpt><trkpt lat="43.28555528276971" lon="11.546374271274967"><ele>310.0</ele><time>2026-04-11T03:51:07Z</time></trkpt><trkpt lat="43.28563208917755" lon="11.546329337554416"><ele>310.0</ele><time>2026-04-11T03:51:10Z</time></trkpt><trkpt lat="43.285703108895994" lon="11.546311242833733"><ele>309.66666666666663</ele><time>2026-04-11T03:51:12Z</time></trkpt><trkpt lat="43.28576310316242" lon="11.54624566140789"><ele>309.3333333333333</ele><time>2026-04-11T03:51:14Z</time></trkpt><trkpt lat="43.28583414555163" lon="11.546207009381588"><ele>309.0</ele><time>2026-04-11T03:51:16Z</time></trkpt><trkpt lat="43.28590655222035" lon="11.546138639320775"><ele>308.6666666666667</ele><time>2026-04-11T03:51:18Z</time></trkpt><trkpt lat="43.28598733649535" lon="11.546063977063463"><ele>308.33333333333337</ele><time>2026-04-11T03:51:20Z</time></trkpt><trkpt lat="43.28607099517158" lon="11.545994398739948"><ele>308.0</ele><time>2026-04-11T03:51:22Z</time></trkpt><trkpt lat="43.28618053398895" lon="11.545899506332525"><ele>308.6666666666667</ele><time>2026-04-11T03:51:24Z</time></trkpt><trkpt lat="43.28624705689555" lon="11.54588457866971"><ele>309.33333333333337</ele><time>2026-04-11T03:51:25Z</time></trkpt><trkpt lat="43.28637604275998" lon="11.545838884393673"><ele>310.0</ele><time>2026-04-11T03:51:27Z</time></trkpt><trkpt lat="43.286436501926715" lon="11.545866760102573"><ele>310.6666666666667</ele><time>2026-04-11T03:51:28Z</time></trkpt><trkpt lat="43.286489014064024" lon="11.545928041612834"><ele>311.3333333333333</ele><time>2026-04-11T03:51:29Z</time></trkpt><trkpt lat="43.286576834682066" lon="11.545996587168307"><ele>312.0</ele><time>2026-04-11T03:51:31Z</time></trkpt><trkpt lat="43.28667637897728" lon="11.546107211284907"><ele>312.0</ele><time>2026-04-11T03:51:33Z</time></trkpt><trkpt lat="43.28679333569033" lon="11.5461766839536"><ele>312.0</ele><time>2026-04-11T03:51:35Z</time></trkpt><trkpt lat="43.28686948518175" lon="11.54616977981515"><ele>312.0</ele><time>2026-04-11T03:51:36Z</time></trkpt><trkpt lat="43.28694014638796" lon="11.546167849194152"><ele>312.0</ele><time>2026-04-11T03:51:37Z</time></trkpt><trkpt lat="43.28701050702262" lon="11.546139707694788"><ele>312.0</ele><time>2026-04-11T03:51:38Z</time></trkpt><trkpt lat="43.28707245648673" lon="11.546118034306101"><ele>312.0</ele><time>2026-04-11T03:51:39Z</time></trkpt><trkpt lat="43.287197970968606" lon="11.546045284731182"><ele>312.0</ele><time>2026-04-11T03:51:41Z</time></trkpt><trkpt lat="43.287241688695005" lon="11.545939635544874"><ele>312.0</ele><time>2026-04-11T03:51:42Z</time></trkpt><trkpt lat="43.28727211282766" lon="11.545835269072358"><ele>312.0</ele><time>2026-04-11T03:51:43Z</time></trkpt><trkpt lat="43.28729572325466" lon="11.545738555925535"><ele>312.0</ele><time>2026-04-11T03:51:44Z</time></trkpt><trkpt lat="43.28731599298645" lon="11.545636910943651"><ele>312.0</ele><time>2026-04-11T03:51:45Z</time></trkpt><trkpt lat="43.28733508313492" lon="11.545516381900564"><ele>312.0</ele><time>2026-04-11T03:51:46Z</time></trkpt><trkpt lat="43.28733730286842" lon="11.545412304775517"><ele>310.1666666666667</ele><time>2026-04-11T03:51:47Z</time></trkpt><trkpt lat="43.28736366522149" lon="11.545321124728563"><ele>308.3333333333333</ele><time>2026-04-11T03:51:48Z</time></trkpt><trkpt lat="43.287373484272294" lon="11.545218412513055"><ele>306.5</ele><time>2026-04-11T03:51:49Z</time></trkpt><trkpt lat="43.28737929349488" lon="11.54510071374862"><ele>304.66666666666663</ele><time>2026-04-11T03:51:50Z</time></trkpt><trkpt lat="43.28738381944825" lon="11.544999213564324"><ele>302.8333333333333</ele><time>2026-04-11T03:51:51Z</time></trkpt><trkpt lat="43.28738940992577" lon="11.544906570212104"><ele>301.0</ele><time>2026-04-11T03:51:52Z</time></trkpt><trkpt lat="43.28739865207016" lon="11.5448037065068"><ele>301.0</ele><time>2026-04-11T03:51:53Z</time></trkpt><trkpt lat="43.28740593097598" lon="11.544714749535185"><ele>301.0</ele><time>2026-04-11T03:51:54Z</time></trkpt><trkpt lat="43.28742036282675" lon="11.54462320424813"><ele>301.0</ele><time>2026-04-11T03:51:55Z</time></trkpt><trkpt lat="43.287440658323675" lon="11.544536004255617"><ele>301.0</ele><time>2026-04-11T03:51:56Z</time></trkpt><trkpt lat="43.28745645018024" lon="11.54444266373606"><ele>301.0</ele><time>2026-04-11T03:51:57Z</time></trkpt><trkpt lat="43.28749222044224" lon="11.544361879036368"><ele>301.0</ele><time>2026-04-11T03:51:58Z</time></trkpt><trkpt lat="43.287511771618064" lon="11.544275320368193"><ele>301.0</ele><time>2026-04-11T03:51:59Z</time></trkpt><trkpt lat="43.287539679658636" lon="11.544189619513107"><ele>300.7142857142857</ele><time>2026-04-11T03:52:00Z</time></trkpt><trkpt lat="43.28756741114728" lon="11.544099334125688"><ele>300.42857142857144</ele><time>2026-04-11T03:52:00.999Z</time></trkpt><trkpt lat="43.287598850854984" lon="11.544020467553283"><ele>300.1428571428571</ele><time>2026-04-11T03:52:01.999Z</time></trkpt><trkpt lat="43.287620187025034" lon="11.543938238074642"><ele>299.8571428571429</ele><time>2026-04-11T03:52:02.999Z</time></trkpt><trkpt lat="43.28763104085115" lon="11.543843874848989"><ele>299.57142857142856</ele><time>2026-04-11T03:52:03.999Z</time></trkpt><trkpt lat="43.287642229795544" lon="11.543742562438736"><ele>299.2857142857143</ele><time>2026-04-11T03:52:04.999Z</time></trkpt><trkpt lat="43.28763823221336" lon="11.54365277068422"><ele>299.0</ele><time>2026-04-11T03:52:05.999Z</time></trkpt><trkpt lat="43.28762305890948" lon="11.543558123276618"><ele>298.1666666666667</ele><time>2026-04-11T03:52:06.999Z</time></trkpt><trkpt lat="43.2876159728651" lon="11.543458867179366"><ele>297.33333333333337</ele><time>2026-04-11T03:52:07.999Z</time></trkpt><trkpt lat="43.287625885020525" lon="11.543358957564548"><ele>296.5</ele><time>2026-04-11T03:52:08.999Z</time></trkpt><trkpt lat="43.287637415557235" lon="11.543259061095139"><ele>295.6666666666667</ele><time>2026-04-11T03:52:09.999Z</time></trkpt><trkpt lat="43.287655071032056" lon="11.543170800507495"><ele>294.8333333333333</ele><time>2026-04-11T03:52:10.999Z</time></trkpt><trkpt lat="43.287679721918686" lon="11.543075618316761"><ele>294.0</ele><time>2026-04-11T03:52:11.999Z</time></trkpt><trkpt lat="43.28772084682375" lon="11.542921943462288"><ele>292.0</ele><time>2026-04-11T03:52:13.999Z</time></trkpt><trkpt lat="43.28774290459771" lon="11.542838677401251"><ele>290.0</ele><time>2026-04-11T03:52:14.999Z</time></trkpt><trkpt lat="43.28777920942147" lon="11.542716878214238"><ele>288.0</ele><time>2026-04-11T03:52:16.999Z</time></trkpt><trkpt lat="43.28780878283639" lon="11.54260709838946"><ele>286.0</ele><time>2026-04-11T03:52:18.999Z</time></trkpt><trkpt lat="43.28786161614422" lon="11.542519865866543"><ele>284.0</ele><time>2026-04-11T03:52:20.999Z</time></trkpt><trkpt lat="43.28790782386418" lon="11.542439063674312"><ele>282.0</ele><time>2026-04-11T03:52:22.999Z</time></trkpt><trkpt lat="43.28795392335377" lon="11.542355860136524"><ele>282.0</ele><time>2026-04-11T03:52:24.999Z</time></trkpt><trkpt lat="43.288010813631594" lon="11.542269289910072"><ele>282.0</ele><time>2026-04-11T03:52:26.999Z</time></trkpt><trkpt lat="43.28805961866656" lon="11.542164940468654"><ele>282.0</ele><time>2026-04-11T03:52:28.999Z</time></trkpt><trkpt lat="43.28811139725994" lon="11.542094930428545"><ele>282.0</ele><time>2026-04-11T03:52:30.999Z</time></trkpt><trkpt lat="43.28815190571941" lon="11.54199095783114"><ele>282.0</ele><time>2026-04-11T03:52:32.999Z</time></trkpt><trkpt lat="43.28818806284977" lon="11.541893475650577"><ele>282.0</ele><time>2026-04-11T03:52:34.999Z</time></trkpt><trkpt lat="43.28822591658043" lon="11.541799386096141"><ele>285.3333333333333</ele><time>2026-04-11T03:52:36.999Z</time></trkpt><trkpt lat="43.28825659915611" lon="11.541693821701942"><ele>288.6666666666667</ele><time>2026-04-11T03:52:38.999Z</time></trkpt><trkpt lat="43.288292863450586" lon="11.54159450862103"><ele>292.0</ele><time>2026-04-11T03:52:40.999Z</time></trkpt><trkpt lat="43.288343502454396" lon="11.541516716834186"><ele>295.33333333333337</ele><time>2026-04-11T03:52:42.999Z</time></trkpt><trkpt lat="43.28840885327711" lon="11.541443395466132"><ele>298.6666666666667</ele><time>2026-04-11T03:52:44.999Z</time></trkpt><trkpt lat="43.288481026964234" lon="11.541380540443914"><ele>302.0</ele><time>2026-04-11T03:52:46.999Z</time></trkpt><trkpt lat="43.288555713619644" lon="11.541317346510342"><ele>302.0</ele><time>2026-04-11T03:52:48.999Z</time></trkpt><trkpt lat="43.28863363663114" lon="11.541270373590947"><ele>302.0</ele><time>2026-04-11T03:52:50.999Z</time></trkpt><trkpt lat="43.2887177907987" lon="11.541241288262416"><ele>302.0</ele><time>2026-04-11T03:52:52.999Z</time></trkpt><trkpt lat="43.28879978837695" lon="11.541214479835402"><ele>302.0</ele><time>2026-04-11T03:52:55Z</time></trkpt><trkpt lat="43.28887897175377" lon="11.541187540518848"><ele>302.0</ele><time>2026-04-11T03:52:57Z</time></trkpt><trkpt lat="43.28895770025884" lon="11.541173573499293"><ele>302.0</ele><time>2026-04-11T03:52:59Z</time></trkpt><trkpt lat="43.28902351321197" lon="11.54114828057783"><ele>302.00000000000006</ele><time>2026-04-11T03:53:01Z</time></trkpt><trkpt lat="43.28908956520816" lon="11.541121748557522"><ele>302.0</ele><time>2026-04-11T03:53:03Z</time></trkpt><trkpt lat="43.28917817864549" lon="11.54110649761305"><ele>302.0</ele><time>2026-04-11T03:53:06Z</time></trkpt><trkpt lat="43.28924277651813" lon="11.541094906108324"><ele>302.0</ele><time>2026-04-11T03:53:08Z</time></trkpt><trkpt lat="43.2893175895697" lon="11.541082835351919"><ele>302.0</ele><time>2026-04-11T03:53:10Z</time></trkpt><trkpt lat="43.289389746787315" lon="11.541094063755832"><ele>302.00000000000006</ele><time>2026-04-11T03:53:12Z</time></trkpt><trkpt lat="43.2894562203237" lon="11.541125312060032"><ele>302.0</ele><time>2026-04-11T03:53:14Z</time></trkpt><trkpt lat="43.289521571818895" lon="11.541158613318286"><ele>302.0</ele><time>2026-04-11T03:53:16Z</time></trkpt><trkpt lat="43.28959657111105" lon="11.541184919363516"><ele>302.0</ele><time>2026-04-11T03:53:18Z</time></trkpt><trkpt lat="43.28966715259027" lon="11.541207506803419"><ele>302.0</ele><time>2026-04-11T03:53:20Z</time></trkpt><trkpt lat="43.28974517516268" lon="11.541226444643216"><ele>302.0</ele><time>2026-04-11T03:53:22Z</time></trkpt><trkpt lat="43.289813223334754" lon="11.54123165814155"><ele>302.0</ele><time>2026-04-11T03:53:24Z</time></trkpt><trkpt lat="43.289889595661045" lon="11.541230780918402"><ele>302.0</ele><time>2026-04-11T03:53:26Z</time></trkpt><trkpt lat="43.2899684713602" lon="11.541212350921835"><ele>302.0</ele><time>2026-04-11T03:53:28Z</time></trkpt><trkpt lat="43.29004272924995" lon="11.54121383649161"><ele>302.0</ele><time>2026-04-11T03:53:30Z</time></trkpt><trkpt lat="43.29012211098066" lon="11.541206772648184"><ele>302.0</ele><time>2026-04-11T03:53:32Z</time></trkpt><trkpt lat="43.290203578101774" lon="11.541208927986442"><ele>302.0</ele><time>2026-04-11T03:53:34Z</time></trkpt><trkpt lat="43.29029665611015" lon="11.541185100155005"><ele>302.0</ele><time>2026-04-11T03:53:36Z</time></trkpt><trkpt lat="43.2903873371323" lon="11.541208711844316"><ele>302.0</ele><time>2026-04-11T03:53:38Z</time></trkpt><trkpt lat="43.290487200124176" lon="11.54124350694648"><ele>303.33333333333337</ele><time>2026-04-11T03:53:40Z</time></trkpt><trkpt lat="43.29058910514991" lon="11.5412921945867"><ele>304.6666666666667</ele><time>2026-04-11T03:53:42Z</time></trkpt><trkpt lat="43.29069349818475" lon="11.541367914880663"><ele>306.0</ele><time>2026-04-11T03:53:44Z</time></trkpt><trkpt lat="43.29076373836933" lon="11.541375563516194"><ele>307.3333333333333</ele><time>2026-04-11T03:53:45Z</time></trkpt><trkpt lat="43.29083236576038" lon="11.54138553426862"><ele>308.66666666666663</ele><time>2026-04-11T03:53:46Z</time></trkpt><trkpt lat="43.290900983934264" lon="11.541401841567945"><ele>310.0</ele><time>2026-04-11T03:53:47Z</time></trkpt><trkpt lat="43.29100863162478" lon="11.541371769771613"><ele>310.0</ele><time>2026-04-11T03:53:49Z</time></trkpt><trkpt lat="43.29107050304843" lon="11.541345477244079"><ele>310.0</ele><time>2026-04-11T03:53:50Z</time></trkpt><trkpt lat="43.29113343707877" lon="11.541307081385643"><ele>310.0</ele><time>2026-04-11T03:53:51Z</time></trkpt><trkpt lat="43.291211101331896" lon="11.541204262210556"><ele>310.0</ele><time>2026-04-11T03:53:53Z</time></trkpt><trkpt lat="43.291282934053115" lon="11.541110087976602"><ele>310.0</ele><time>2026-04-11T03:53:55Z</time></trkpt><trkpt lat="43.29134111944253" lon="11.540997177963487"><ele>310.0</ele><time>2026-04-11T03:53:57Z</time></trkpt><trkpt lat="43.29135968204547" lon="11.540895055499076"><ele>309.0</ele><time>2026-04-11T03:53:59Z</time></trkpt><trkpt lat="43.29135167280503" lon="11.540779094823687"><ele>308.0</ele><time>2026-04-11T03:54:01Z</time></trkpt><trkpt lat="43.29134757698383" lon="11.54067604969618"><ele>307.0</ele><time>2026-04-11T03:54:03Z</time></trkpt><trkpt lat="43.29133685206808" lon="11.540572140256165"><ele>306.0</ele><time>2026-04-11T03:54:04.999Z</time></trkpt><trkpt lat="43.2913337069756" lon="11.540475124384349"><ele>305.0</ele><time>2026-04-11T03:54:06.999Z</time></trkpt><trkpt lat="43.29131568824319" lon="11.540387753988714"><ele>304.0</ele><time>2026-04-11T03:54:08.999Z</time></trkpt><trkpt lat="43.29131158252131" lon="11.540263890009234"><ele>303.66666666666663</ele><time>2026-04-11T03:54:11.999Z</time></trkpt><trkpt lat="43.291334965367525" lon="11.540174008971835"><ele>303.3333333333333</ele><time>2026-04-11T03:54:13.999Z</time></trkpt><trkpt lat="43.29133930006646" lon="11.540081451088238"><ele>303.0</ele><time>2026-04-11T03:54:15.999Z</time></trkpt><trkpt lat="43.29136694915907" lon="11.539956693065715"><ele>302.6666666666667</ele><time>2026-04-11T03:54:18.999Z</time></trkpt><trkpt lat="43.291404560177746" lon="11.539886305675811"><ele>302.33333333333337</ele><time>2026-04-11T03:54:20.999Z</time></trkpt><trkpt lat="43.29144811390668" lon="11.539767026780261"><ele>302.0</ele><time>2026-04-11T03:54:23.999Z</time></trkpt><trkpt lat="43.291475344093854" lon="11.539641678439867"><ele>302.83333333333337</ele><time>2026-04-11T03:54:26.999Z</time></trkpt><trkpt lat="43.29151150185213" lon="11.539565723585753"><ele>303.6666666666667</ele><time>2026-04-11T03:54:28.999Z</time></trkpt><trkpt lat="43.29153851774394" lon="11.539486737685676"><ele>304.5</ele><time>2026-04-11T03:54:30.999Z</time></trkpt><trkpt lat="43.29158016610146" lon="11.539373371200508"><ele>305.3333333333333</ele><time>2026-04-11T03:54:33.999Z</time></trkpt><trkpt lat="43.29161860997545" lon="11.539264847803079"><ele>306.16666666666663</ele><time>2026-04-11T03:54:36.999Z</time></trkpt><trkpt lat="43.29166061294917" lon="11.53915524737396"><ele>307.0</ele><time>2026-04-11T03:54:39.999Z</time></trkpt><trkpt lat="43.29170465575363" lon="11.539047727839662"><ele>308.66666666666663</ele><time>2026-04-11T03:54:42.999Z</time></trkpt><trkpt lat="43.2917588318287" lon="11.53894765395058"><ele>310.3333333333333</ele><time>2026-04-11T03:54:45.999Z</time></trkpt><trkpt lat="43.29181810501246" lon="11.5388671094172"><ele>312.0</ele><time>2026-04-11T03:54:48.999Z</time></trkpt><trkpt lat="43.291897465036044" lon="11.538815677171502"><ele>313.6666666666667</ele><time>2026-04-11T03:54:51.999Z</time></trkpt><trkpt lat="43.29198348379132" lon="11.538816233680693"><ele>315.33333333333337</ele><time>2026-04-11T03:54:54.999Z</time></trkpt><trkpt lat="43.29206344691877" lon="11.538824740442134"><ele>317.0</ele><time>2026-04-11T03:54:57.999Z</time></trkpt><trkpt lat="43.29215266938812" lon="11.538846327419645"><ele>317.0</ele><time>2026-04-11T03:55:01Z</time></trkpt><trkpt lat="43.29223697780749" lon="11.538879541372184"><ele>317.0</ele><time>2026-04-11T03:55:04Z</time></trkpt><trkpt lat="43.29231936524866" lon="11.53890769898401"><ele>317.0</ele><time>2026-04-11T03:55:07Z</time></trkpt><trkpt lat="43.292408168988" lon="11.538916767927006"><ele>317.0</ele><time>2026-04-11T03:55:10Z</time></trkpt><trkpt lat="43.292499559565655" lon="11.538928998800712"><ele>317.0</ele><time>2026-04-11T03:55:13Z</time></trkpt><trkpt lat="43.29256558836988" lon="11.538929642496589"><ele>317.0</ele><time>2026-04-11T03:55:15Z</time></trkpt><trkpt lat="43.29263285729211" lon="11.53892180606354"><ele>317.0</ele><time>2026-04-11T03:55:17Z</time></trkpt><trkpt lat="43.29269526931384" lon="11.53889926731092"><ele>317.0</ele><time>2026-04-11T03:55:19Z</time></trkpt><trkpt lat="43.29275531975153" lon="11.538868770960924"><ele>317.0</ele><time>2026-04-11T03:55:21Z</time></trkpt><trkpt lat="43.29283418110153" lon="11.538780397801814"><ele>317.0</ele><time>2026-04-11T03:55:24Z</time></trkpt><trkpt lat="43.292895582051095" lon="11.538743342332308"><ele>317.0</ele><time>2026-04-11T03:55:25Z</time></trkpt><trkpt lat="43.292956344045045" lon="11.538654179780993"><ele>317.0</ele><time>2026-04-11T03:55:27Z</time></trkpt><trkpt lat="43.293054999342914" lon="11.53856535756803"><ele>316.2857142857143</ele><time>2026-04-11T03:55:29Z</time></trkpt><trkpt lat="43.293107330200336" lon="11.538516696590829"><ele>315.57142857142856</ele><time>2026-04-11T03:55:30Z</time></trkpt><trkpt lat="43.29316511144676" lon="11.538465791860778"><ele>314.8571428571429</ele><time>2026-04-11T03:55:31Z</time></trkpt><trkpt lat="43.2932226101524" lon="11.538411434680462"><ele>314.1428571428571</ele><time>2026-04-11T03:55:32Z</time></trkpt><trkpt lat="43.29328143961415" lon="11.538357454127262"><ele>313.4285714285714</ele><time>2026-04-11T03:55:33Z</time></trkpt><trkpt lat="43.293346471782456" lon="11.538309648368871"><ele>312.7142857142857</ele><time>2026-04-11T03:55:34Z</time></trkpt><trkpt lat="43.29340994148791" lon="11.538252211527462"><ele>312.0</ele><time>2026-04-11T03:55:35Z</time></trkpt><trkpt lat="43.29348198041143" lon="11.538193778433689"><ele>312.0</ele><time>2026-04-11T03:55:36Z</time></trkpt><trkpt lat="43.29355678444585" lon="11.538119129263231"><ele>312.0</ele><time>2026-04-11T03:55:37Z</time></trkpt><trkpt lat="43.29363393618074" lon="11.538068339095057"><ele>312.0</ele><time>2026-04-11T03:55:38Z</time></trkpt><trkpt lat="43.29369987528036" lon="11.537991478456988"><ele>312.0</ele><time>2026-04-11T03:55:39Z</time></trkpt><trkpt lat="43.293776703979326" lon="11.537938238636794"><ele>312.0</ele><time>2026-04-11T03:55:40Z</time></trkpt><trkpt lat="43.29383750348532" lon="11.537858450417607"><ele>312.0</ele><time>2026-04-11T03:55:41Z</time></trkpt><trkpt lat="43.293904946312786" lon="11.537823996270946"><ele>312.1666666666667</ele><time>2026-04-11T03:55:42Z</time></trkpt><trkpt lat="43.29396503374483" lon="11.537764322914013"><ele>312.3333333333333</ele><time>2026-04-11T03:55:43Z</time></trkpt><trkpt lat="43.294015529879395" lon="11.537688103394892"><ele>312.5</ele><time>2026-04-11T03:55:44Z</time></trkpt><trkpt lat="43.294074464705744" lon="11.537647630074844"><ele>312.66666666666663</ele><time>2026-04-11T03:55:45Z</time></trkpt><trkpt lat="43.294120816058985" lon="11.537584221910105"><ele>312.8333333333333</ele><time>2026-04-11T03:55:46Z</time></trkpt><trkpt lat="43.294207784642545" lon="11.53748194432585"><ele>313.0</ele><time>2026-04-11T03:55:48Z</time></trkpt><trkpt lat="43.29427805486197" lon="11.53738945642356"><ele>313.0</ele><time>2026-04-11T03:55:50Z</time></trkpt><trkpt lat="43.29432894221412" lon="11.537297850483442"><ele>313.0</ele><time>2026-04-11T03:55:52Z</time></trkpt><trkpt lat="43.29438169750529" lon="11.537242181380714"><ele>313.0</ele><time>2026-04-11T03:55:54Z</time></trkpt><trkpt lat="43.29444843285781" lon="11.537171889147103"><ele>313.0</ele><time>2026-04-11T03:55:57Z</time></trkpt><trkpt lat="43.29450804975193" lon="11.537107790312946"><ele>313.0</ele><time>2026-04-11T03:56:00Z</time></trkpt><trkpt lat="43.29457440539072" lon="11.537048784338904"><ele>313.0</ele><time>2026-04-11T03:56:03Z</time></trkpt><trkpt lat="43.29465282008056" lon="11.537007525485775"><ele>311.8</ele><time>2026-04-11T03:56:05.999Z</time></trkpt><trkpt lat="43.29473327666613" lon="11.536951189654273"><ele>310.6</ele><time>2026-04-11T03:56:08.999Z</time></trkpt><trkpt lat="43.29482308945311" lon="11.536899810265131"><ele>309.4</ele><time>2026-04-11T03:56:11.999Z</time></trkpt><trkpt lat="43.29488034536918" lon="11.536859305879432"><ele>308.2</ele><time>2026-04-11T03:56:14.999Z</time></trkpt><trkpt lat="43.29499889454694" lon="11.536819081280479"><ele>307.0</ele><time>2026-04-11T03:56:15.999Z</time></trkpt><trkpt lat="43.29511625103531" lon="11.536800024706798"><ele>306.99999999999994</ele><time>2026-04-11T03:56:17.999Z</time></trkpt><trkpt lat="43.29518077390365" lon="11.536778270195999"><ele>307.0</ele><time>2026-04-11T03:56:18.999Z</time></trkpt><trkpt lat="43.295243641919285" lon="11.536782795839153"><ele>307.0</ele><time>2026-04-11T03:56:19.999Z</time></trkpt><trkpt lat="43.29531066740946" lon="11.536771394329014"><ele>307.0</ele><time>2026-04-11T03:56:20.999Z</time></trkpt><trkpt lat="43.2953690911668" lon="11.536707565787967"><ele>307.0</ele><time>2026-04-11T03:56:21.999Z</time></trkpt><trkpt lat="43.295426978798744" lon="11.536660692801949"><ele>306.99999999999994</ele><time>2026-04-11T03:56:22.999Z</time></trkpt><trkpt lat="43.29548322422297" lon="11.536599733092432"><ele>307.0</ele><time>2026-04-11T03:56:23.999Z</time></trkpt><trkpt lat="43.29554187062644" lon="11.536470996585646"><ele>307.0</ele><time>2026-04-11T03:56:25.999Z</time></trkpt><trkpt lat="43.295584460060304" lon="11.536335615746776"><ele>307.0</ele><time>2026-04-11T03:56:27.999Z</time></trkpt><trkpt lat="43.295633707585914" lon="11.536207305029373"><ele>307.0</ele><time>2026-04-11T03:56:29.999Z</time></trkpt><trkpt lat="43.295670989229" lon="11.53608399457084"><ele>307.0</ele><time>2026-04-11T03:56:31.999Z</time></trkpt><trkpt lat="43.295722695208404" lon="11.535984305066398"><ele>307.0</ele><time>2026-04-11T03:56:33.999Z</time></trkpt><trkpt lat="43.29574785717539" lon="11.535881629119077"><ele>309.66666666666663</ele><time>2026-04-11T03:56:35.999Z</time></trkpt><trkpt lat="43.29577202712553" lon="11.535775816614457"><ele>312.3333333333333</ele><time>2026-04-11T03:56:38.999Z</time></trkpt><trkpt lat="43.29579823059995" lon="11.535671729504164"><ele>315.0</ele><time>2026-04-11T03:56:41.999Z</time></trkpt><trkpt lat="43.29580622765298" lon="11.535560403916914"><ele>317.6666666666667</ele><time>2026-04-11T03:56:45.999Z</time></trkpt><trkpt lat="43.29580962836611" lon="11.535460549788507"><ele>320.33333333333337</ele><time>2026-04-11T03:56:49.999Z</time></trkpt><trkpt lat="43.29582764233417" lon="11.535363169578021"><ele>323.0</ele><time>2026-04-11T03:56:53.999Z</time></trkpt><trkpt lat="43.295820679950886" lon="11.535261718356507"><ele>323.5714285714286</ele><time>2026-04-11T03:56:57.999Z</time></trkpt><trkpt lat="43.295845796066914" lon="11.535170288379618"><ele>324.14285714285717</ele><time>2026-04-11T03:57:01.999Z</time></trkpt><trkpt lat="43.29583956849737" lon="11.535060247641917"><ele>324.7142857142857</ele><time>2026-04-11T03:57:06Z</time></trkpt><trkpt lat="43.29585013630614" lon="11.534974737405578"><ele>325.28571428571433</ele><time>2026-04-11T03:57:09Z</time></trkpt><trkpt lat="43.2958475874824" lon="11.534876000246841"><ele>325.8571428571429</ele><time>2026-04-11T03:57:13Z</time></trkpt><trkpt lat="43.29583157737074" lon="11.534791654828783"><ele>326.42857142857144</ele><time>2026-04-11T03:57:16Z</time></trkpt><trkpt lat="43.29580037119101" lon="11.53469661879856"><ele>327.0</ele><time>2026-04-11T03:57:20Z</time></trkpt><trkpt lat="43.295735096390494" lon="11.534630360435301"><ele>327.0</ele><time>2026-04-11T03:57:24Z</time></trkpt><trkpt lat="43.29566217324133" lon="11.534578235645956"><ele>327.0</ele><time>2026-04-11T03:57:28Z</time></trkpt><trkpt lat="43.29558991825511" lon="11.534520838612163"><ele>327.0</ele><time>2026-04-11T03:57:32Z</time></trkpt><trkpt lat="43.29551919769572" lon="11.534465392271793"><ele>327.0</ele><time>2026-04-11T03:57:36Z</time></trkpt><trkpt lat="43.29544916526803" lon="11.534407665115243"><ele>327.0</ele><time>2026-04-11T03:57:40Z</time></trkpt><trkpt lat="43.29539032083229" lon="11.53436101809889"><ele>327.0</ele><time>2026-04-11T03:57:43Z</time></trkpt><trkpt lat="43.29532866198745" lon="11.534308464696428"><ele>327.5</ele><time>2026-04-11T03:57:46Z</time></trkpt><trkpt lat="43.29527043197974" lon="11.534233769621022"><ele>328.0</ele><time>2026-04-11T03:57:49Z</time></trkpt><trkpt lat="43.29521075644765" lon="11.534153251741426"><ele>328.5</ele><time>2026-04-11T03:57:52Z</time></trkpt><trkpt lat="43.295167871756185" lon="11.534083380516805"><ele>329.0</ele><time>2026-04-11T03:57:54Z</time></trkpt><trkpt lat="43.2951110603415" lon="11.533991666664964"><ele>329.5</ele><time>2026-04-11T03:57:56Z</time></trkpt><trkpt lat="43.29503669022834" lon="11.533902899662554"><ele>330.0</ele><time>2026-04-11T03:57:58Z</time></trkpt><trkpt lat="43.294977407169654" lon="11.533872368348296"><ele>330.0</ele><time>2026-04-11T03:57:59Z</time></trkpt><trkpt lat="43.294873483515644" lon="11.533814455648969"><ele>330.0</ele><time>2026-04-11T03:58:01Z</time></trkpt><trkpt lat="43.294751217784075" lon="11.53375899958342"><ele>330.0</ele><time>2026-04-11T03:58:03Z</time></trkpt><trkpt lat="43.294640720909285" lon="11.533690560255554"><ele>330.0</ele><time>2026-04-11T03:58:05Z</time></trkpt><trkpt lat="43.29454266963079" lon="11.53359190225172"><ele>328.8333333333333</ele><time>2026-04-11T03:58:07Z</time></trkpt><trkpt lat="43.29448542614708" lon="11.533460503771849"><ele>327.6666666666667</ele><time>2026-04-11T03:58:09Z</time></trkpt><trkpt lat="43.29448229671287" lon="11.533369296944478"><ele>326.5</ele><time>2026-04-11T03:58:10Z</time></trkpt><trkpt lat="43.294471661255564" lon="11.53328161942706"><ele>325.33333333333337</ele><time>2026-04-11T03:58:10.999Z</time></trkpt><trkpt lat="43.29447897689963" lon="11.533188380977776"><ele>324.1666666666667</ele><time>2026-04-11T03:58:11.999Z</time></trkpt><trkpt lat="43.294478480017176" lon="11.533098236037246"><ele>323.0</ele><time>2026-04-11T03:58:12.999Z</time></trkpt><trkpt lat="43.29449692229333" lon="11.532975539915586"><ele>323.28571428571433</ele><time>2026-04-11T03:58:13.999Z</time></trkpt><trkpt lat="43.294493717967335" lon="11.53286788412738"><ele>323.57142857142856</ele><time>2026-04-11T03:58:14.999Z</time></trkpt><trkpt lat="43.29449244435002" lon="11.532773486198394"><ele>323.8571428571429</ele><time>2026-04-11T03:58:15.999Z</time></trkpt><trkpt lat="43.29448755466576" lon="11.532670519436019"><ele>324.14285714285717</ele><time>2026-04-11T03:58:16.999Z</time></trkpt><trkpt lat="43.29450823349746" lon="11.532568220822911"><ele>324.42857142857144</ele><time>2026-04-11T03:58:17.999Z</time></trkpt><trkpt lat="43.29452084171162" lon="11.53246430056487"><ele>324.7142857142857</ele><time>2026-04-11T03:58:18.999Z</time></trkpt><trkpt lat="43.294534015009454" lon="11.53236626036484"><ele>325.0</ele><time>2026-04-11T03:58:19.999Z</time></trkpt><trkpt lat="43.29457067120594" lon="11.532259505001116"><ele>325.0</ele><time>2026-04-11T03:58:20.999Z</time></trkpt><trkpt lat="43.29459520980944" lon="11.532149010917626"><ele>325.0</ele><time>2026-04-11T03:58:21.999Z</time></trkpt><trkpt lat="43.2946225193126" lon="11.532047200252894"><ele>325.0</ele><time>2026-04-11T03:58:22.999Z</time></trkpt><trkpt lat="43.294654128550576" lon="11.531926165615321"><ele>325.0</ele><time>2026-04-11T03:58:23.999Z</time></trkpt><trkpt lat="43.29469515478043" lon="11.531824422568702"><ele>325.0</ele><time>2026-04-11T03:58:24.999Z</time></trkpt><trkpt lat="43.29474466300628" lon="11.531730363498763"><ele>325.0</ele><time>2026-04-11T03:58:25.999Z</time></trkpt><trkpt lat="43.294796773464206" lon="11.531634320287022"><ele>324.16666666666663</ele><time>2026-04-11T03:58:26.999Z</time></trkpt><trkpt lat="43.294848702989476" lon="11.53154369616232"><ele>323.3333333333333</ele><time>2026-04-11T03:58:27.999Z</time></trkpt><trkpt lat="43.294897276014446" lon="11.53144797075401"><ele>322.5</ele><time>2026-04-11T03:58:28.999Z</time></trkpt><trkpt lat="43.29494861341855" lon="11.53135962438921"><ele>321.6666666666667</ele><time>2026-04-11T03:58:29.999Z</time></trkpt><trkpt lat="43.294991922303076" lon="11.531257906998254"><ele>320.83333333333337</ele><time>2026-04-11T03:58:30.999Z</time></trkpt><trkpt lat="43.29504916864989" lon="11.531175671308437"><ele>320.0</ele><time>2026-04-11T03:58:31.999Z</time></trkpt><trkpt lat="43.29510295521289" lon="11.531117061918106"><ele>320.0</ele><time>2026-04-11T03:58:32.999Z</time></trkpt><trkpt lat="43.29515226801493" lon="11.531040180945144"><ele>320.0</ele><time>2026-04-11T03:58:33.999Z</time></trkpt><trkpt lat="43.29521663755304" lon="11.530960220979724"><ele>320.0</ele><time>2026-04-11T03:58:34.999Z</time></trkpt><trkpt lat="43.29529128540969" lon="11.530883088359271"><ele>320.0</ele><time>2026-04-11T03:58:35.999Z</time></trkpt><trkpt lat="43.29537543871759" lon="11.530834957918195"><ele>320.0</ele><time>2026-04-11T03:58:36.999Z</time></trkpt><trkpt lat="43.295447731835075" lon="11.53078263327216"><ele>320.0</ele><time>2026-04-11T03:58:37.999Z</time></trkpt><trkpt lat="43.29551648859195" lon="11.530720301200466"><ele>317.5</ele><time>2026-04-11T03:58:38.999Z</time></trkpt><trkpt lat="43.295600983057355" lon="11.530662120598238"><ele>315.0</ele><time>2026-04-11T03:58:39.999Z</time></trkpt><trkpt lat="43.29567980270737" lon="11.530614704046775"><ele>312.5</ele><time>2026-04-11T03:58:40.999Z</time></trkpt><trkpt lat="43.29575238783778" lon="11.53057922035541"><ele>310.0</ele><time>2026-04-11T03:58:41.999Z</time></trkpt><trkpt lat="43.29583127682189" lon="11.530561056789038"><ele>307.5</ele><time>2026-04-11T03:58:42.999Z</time></trkpt><trkpt lat="43.29590579752634" lon="11.53051553918639"><ele>305.0</ele><time>2026-04-11T03:58:43.999Z</time></trkpt><trkpt lat="43.29598509670894" lon="11.53048060517292"><ele>305.0</ele><time>2026-04-11T03:58:44.999Z</time></trkpt><trkpt lat="43.296060254049436" lon="11.53045941156418"><ele>305.0</ele><time>2026-04-11T03:58:45.999Z</time></trkpt><trkpt lat="43.29613761172866" lon="11.530448484464634"><ele>305.0</ele><time>2026-04-11T03:58:46.999Z</time></trkpt><trkpt lat="43.296204316259" lon="11.530408332086143"><ele>305.0</ele><time>2026-04-11T03:58:47.999Z</time></trkpt><trkpt lat="43.29626968670775" lon="11.53037048176096"><ele>305.0</ele><time>2026-04-11T03:58:48.999Z</time></trkpt><trkpt lat="43.29634403639788" lon="11.530335537283252"><ele>305.0</ele><time>2026-04-11T03:58:49.999Z</time></trkpt><trkpt lat="43.296418831411295" lon="11.530308365363112"><ele>303.5</ele><time>2026-04-11T03:58:50.999Z</time></trkpt><trkpt lat="43.296485202037715" lon="11.530278189592455"><ele>302.0</ele><time>2026-04-11T03:58:51.999Z</time></trkpt><trkpt lat="43.29654241218672" lon="11.530240497313113"><ele>300.5</ele><time>2026-04-11T03:58:52.999Z</time></trkpt><trkpt lat="43.2966237927163" lon="11.530145430502529"><ele>299.0</ele><time>2026-04-11T03:58:54.999Z</time></trkpt><trkpt lat="43.2966645934423" lon="11.530003419002433"><ele>297.5</ele><time>2026-04-11T03:58:56.999Z</time></trkpt><trkpt lat="43.2966502569976" lon="11.529914692826422"><ele>296.0</ele><time>2026-04-11T03:58:57.999Z</time></trkpt><trkpt lat="43.296603028164874" lon="11.529836029082816"><ele>296.0</ele><time>2026-04-11T03:58:58.999Z</time></trkpt><trkpt lat="43.29654403478304" lon="11.529775271656597"><ele>296.0</ele><time>2026-04-11T03:58:59.999Z</time></trkpt><trkpt lat="43.296474479535874" lon="11.52975521573827"><ele>296.0</ele><time>2026-04-11T03:59:00.999Z</time></trkpt><trkpt lat="43.29640469171644" lon="11.529725063243967"><ele>296.0</ele><time>2026-04-11T03:59:01.999Z</time></trkpt><trkpt lat="43.29634118779034" lon="11.529670032402828"><ele>296.0</ele><time>2026-04-11T03:59:02.999Z</time></trkpt><trkpt lat="43.29627136183919" lon="11.529637729185215"><ele>296.0</ele><time>2026-04-11T03:59:03.999Z</time></trkpt><trkpt lat="43.296196999347174" lon="11.529608102940959"><ele>296.0</ele><time>2026-04-11T03:59:04.999Z</time></trkpt><trkpt lat="43.29612230357858" lon="11.529590660375328"><ele>295.6666666666667</ele><time>2026-04-11T03:59:05.999Z</time></trkpt><trkpt lat="43.29604089103034" lon="11.529607507091844"><ele>295.33333333333337</ele><time>2026-04-11T03:59:06.999Z</time></trkpt><trkpt lat="43.29596747269216" lon="11.529596903218787"><ele>295.0</ele><time>2026-04-11T03:59:07.999Z</time></trkpt><trkpt lat="43.29589469945525" lon="11.529562991152268"><ele>294.6666666666667</ele><time>2026-04-11T03:59:08.999Z</time></trkpt><trkpt lat="43.295832621048575" lon="11.529499283278874"><ele>294.3333333333333</ele><time>2026-04-11T03:59:09.999Z</time></trkpt><trkpt lat="43.295766828595056" lon="11.52944160191155"><ele>294.0</ele><time>2026-04-11T03:59:10.999Z</time></trkpt><trkpt lat="43.29570185016761" lon="11.529392408093448"><ele>294.0</ele><time>2026-04-11T03:59:12Z</time></trkpt><trkpt lat="43.2956399800068" lon="11.529329827637499"><ele>294.0</ele><time>2026-04-11T03:59:13Z</time></trkpt><trkpt lat="43.29556423488371" lon="11.52931159574626"><ele>294.0</ele><time>2026-04-11T03:59:14Z</time></trkpt><trkpt lat="43.29550206113337" lon="11.529288224314723"><ele>294.0</ele><time>2026-04-11T03:59:15Z</time></trkpt><trkpt lat="43.29539566063809" lon="11.529249581232326"><ele>294.0</ele><time>2026-04-11T03:59:17Z</time></trkpt><trkpt lat="43.29532030837676" lon="11.529165709198264"><ele>294.0</ele><time>2026-04-11T03:59:19Z</time></trkpt><trkpt lat="43.29532155197975" lon="11.529000581688134"><ele>294.0</ele><time>2026-04-11T03:59:21Z</time></trkpt><trkpt lat="43.295411157849735" lon="11.528890669867614"><ele>294.0</ele><time>2026-04-11T03:59:23Z</time></trkpt><trkpt lat="43.29551915796918" lon="11.528821035099158"><ele>294.0</ele><time>2026-04-11T03:59:25Z</time></trkpt><trkpt lat="43.29561302532923" lon="11.528754901856866"><ele>294.0</ele><time>2026-04-11T03:59:27Z</time></trkpt><trkpt lat="43.29570925123226" lon="11.528642915381054"><ele>293.6666666666667</ele><time>2026-04-11T03:59:29Z</time></trkpt><trkpt lat="43.29580423236001" lon="11.528541269973065"><ele>293.3333333333333</ele><time>2026-04-11T03:59:31Z</time></trkpt><trkpt lat="43.295846245003716" lon="11.52846753091679"><ele>293.0</ele><time>2026-04-11T03:59:32Z</time></trkpt><trkpt lat="43.29587932303111" lon="11.52838131081935"><ele>292.66666666666663</ele><time>2026-04-11T03:59:33Z</time></trkpt><trkpt lat="43.29590639879493" lon="11.528286523628283"><ele>292.3333333333333</ele><time>2026-04-11T03:59:34Z</time></trkpt><trkpt lat="43.29592060375268" lon="11.528186384326125"><ele>292.0</ele><time>2026-04-11T03:59:35Z</time></trkpt><trkpt lat="43.29593513684323" lon="11.52807510817993"><ele>292.0</ele><time>2026-04-11T03:59:36Z</time></trkpt><trkpt lat="43.29593587616625" lon="11.52796815804134"><ele>292.0</ele><time>2026-04-11T03:59:37Z</time></trkpt><trkpt lat="43.29595596308038" lon="11.527860526427297"><ele>292.0</ele><time>2026-04-11T03:59:38Z</time></trkpt><trkpt lat="43.29596474080741" lon="11.527763301968264"><ele>292.0</ele><time>2026-04-11T03:59:39Z</time></trkpt><trkpt lat="43.295986927916005" lon="11.527664473566796"><ele>292.0</ele><time>2026-04-11T03:59:40Z</time></trkpt><trkpt lat="43.295996551015584" lon="11.527564636616829"><ele>292.0</ele><time>2026-04-11T03:59:41Z</time></trkpt><trkpt lat="43.296012967192105" lon="11.527466293681213"><ele>292.0</ele><time>2026-04-11T03:59:42Z</time></trkpt><trkpt lat="43.29602190083491" lon="11.527365479906743"><ele>292.0</ele><time>2026-04-11T03:59:43Z</time></trkpt><trkpt lat="43.29602908799214" lon="11.527271656622919"><ele>292.0</ele><time>2026-04-11T03:59:44Z</time></trkpt><trkpt lat="43.296050959593536" lon="11.527170066604972"><ele>292.0</ele><time>2026-04-11T03:59:45Z</time></trkpt><trkpt lat="43.29608968096869" lon="11.527060750889156"><ele>292.0</ele><time>2026-04-11T03:59:46Z</time></trkpt><trkpt lat="43.29614116344482" lon="11.52698679400911"><ele>292.0</ele><time>2026-04-11T03:59:47Z</time></trkpt><trkpt lat="43.29620115313675" lon="11.526871849119622"><ele>291.4</ele><time>2026-04-11T03:59:49Z</time></trkpt><trkpt lat="43.29627775024608" lon="11.526752108755943"><ele>290.79999999999995</ele><time>2026-04-11T03:59:51Z</time></trkpt><trkpt lat="43.296308493181066" lon="11.526673472576178"><ele>290.2</ele><time>2026-04-11T03:59:52Z</time></trkpt><trkpt lat="43.296376965551616" lon="11.526562434104221"><ele>289.59999999999997</ele><time>2026-04-11T03:59:54Z</time></trkpt><trkpt lat="43.296442282888776" lon="11.526475826806251"><ele>289.0</ele><time>2026-04-11T03:59:56Z</time></trkpt><trkpt lat="43.29649882907242" lon="11.526389303593303"><ele>289.0</ele><time>2026-04-11T03:59:58Z</time></trkpt><trkpt lat="43.29655152069762" lon="11.526304395747797"><ele>289.0</ele><time>2026-04-11T04:00:00Z</time></trkpt><trkpt lat="43.29662444544412" lon="11.526240795838923"><ele>289.0</ele><time>2026-04-11T04:00:02Z</time></trkpt><trkpt lat="43.29668761595978" lon="11.52616877054321"><ele>289.0</ele><time>2026-04-11T04:00:04Z</time></trkpt><trkpt lat="43.29676404659496" lon="11.526068535589822"><ele>289.0</ele><time>2026-04-11T04:00:07Z</time></trkpt><trkpt lat="43.296799909176016" lon="11.52597842009951"><ele>289.0</ele><time>2026-04-11T04:00:09Z</time></trkpt><trkpt lat="43.29680956911336" lon="11.52588027351574"><ele>289.0</ele><time>2026-04-11T04:00:11Z</time></trkpt><trkpt lat="43.296800697255236" lon="11.525776541358518"><ele>289.0</ele><time>2026-04-11T04:00:13Z</time></trkpt><trkpt lat="43.296783865502704" lon="11.525680958024127"><ele>289.0</ele><time>2026-04-11T04:00:15Z</time></trkpt><trkpt lat="43.29676643671223" lon="11.52557806715912"><ele>289.0</ele><time>2026-04-11T04:00:17Z</time></trkpt><trkpt lat="43.29675615659245" lon="11.525473384345391"><ele>289.0</ele><time>2026-04-11T04:00:19Z</time></trkpt><trkpt lat="43.296766539807436" lon="11.525364507910087"><ele>289.0</ele><time>2026-04-11T04:00:21Z</time></trkpt><trkpt lat="43.2967820284092" lon="11.525262511472823"><ele>289.42857142857144</ele><time>2026-04-11T04:00:23Z</time></trkpt><trkpt lat="43.29680225481878" lon="11.525166007667114"><ele>289.85714285714283</ele><time>2026-04-11T04:00:25Z</time></trkpt><trkpt lat="43.29681442796209" lon="11.525065432760446"><ele>290.2857142857143</ele><time>2026-04-11T04:00:27Z</time></trkpt><trkpt lat="43.29680032656078" lon="11.524968423409959"><ele>290.7142857142857</ele><time>2026-04-11T04:00:29Z</time></trkpt><trkpt lat="43.29677389529137" lon="11.524872399224309"><ele>291.14285714285717</ele><time>2026-04-11T04:00:30.999Z</time></trkpt><trkpt lat="43.29672956464179" lon="11.524777523269405"><ele>291.57142857142856</ele><time>2026-04-11T04:00:32.999Z</time></trkpt><trkpt lat="43.2966974181287" lon="11.524696094699978"><ele>292.0</ele><time>2026-04-11T04:00:34.999Z</time></trkpt><trkpt lat="43.29665666799589" lon="11.52461378033956"><ele>293.42857142857144</ele><time>2026-04-11T04:00:36.999Z</time></trkpt><trkpt lat="43.29663518554876" lon="11.524518300715535"><ele>294.8571428571429</ele><time>2026-04-11T04:00:38.999Z</time></trkpt><trkpt lat="43.29661274466347" lon="11.524434827619789"><ele>296.28571428571433</ele><time>2026-04-11T04:00:40.999Z</time></trkpt><trkpt lat="43.296600788684344" lon="11.524345861282928"><ele>297.7142857142857</ele><time>2026-04-11T04:00:42.999Z</time></trkpt><trkpt lat="43.296591775358884" lon="11.524255294400843"><ele>299.14285714285717</ele><time>2026-04-11T04:00:44.999Z</time></trkpt><trkpt lat="43.296583621703334" lon="11.524164940759498"><ele>300.5714285714286</ele><time>2026-04-11T04:00:46.999Z</time></trkpt><trkpt lat="43.29657352529853" lon="11.524035444663912"><ele>302.0</ele><time>2026-04-11T04:00:49.999Z</time></trkpt><trkpt lat="43.29655749314461" lon="11.523945025721039"><ele>302.0</ele><time>2026-04-11T04:00:51.999Z</time></trkpt><trkpt lat="43.29653873647373" lon="11.523833462465511"><ele>302.0</ele><time>2026-04-11T04:00:54.999Z</time></trkpt><trkpt lat="43.296519013514306" lon="11.52374381884589"><ele>302.0</ele><time>2026-04-11T04:00:56.999Z</time></trkpt><trkpt lat="43.29650014668583" lon="11.523621890471933"><ele>302.0</ele><time>2026-04-11T04:00:59.999Z</time></trkpt><trkpt lat="43.296481531144515" lon="11.52352995630875"><ele>302.0</ele><time>2026-04-11T04:01:01.999Z</time></trkpt><trkpt lat="43.29647015459328" lon="11.523433209120409"><ele>302.0</ele><time>2026-04-11T04:01:03.999Z</time></trkpt><trkpt lat="43.29646421770866" lon="11.523333779054523"><ele>302.8</ele><time>2026-04-11T04:01:05.999Z</time></trkpt><trkpt lat="43.29646145695251" lon="11.523224037863843"><ele>303.6</ele><time>2026-04-11T04:01:07.999Z</time></trkpt><trkpt lat="43.29645523168804" lon="11.523098460366343"><ele>304.40000000000003</ele><time>2026-04-11T04:01:09.999Z</time></trkpt><trkpt lat="43.29645317218919" lon="11.522964612793155"><ele>305.2</ele><time>2026-04-11T04:01:11.999Z</time></trkpt><trkpt lat="43.296455636856834" lon="11.522818214213574"><ele>306.0</ele><time>2026-04-11T04:01:13.999Z</time></trkpt><trkpt lat="43.29647461287676" lon="11.522677179921276"><ele>306.0</ele><time>2026-04-11T04:01:15.999Z</time></trkpt><trkpt lat="43.2965184384293" lon="11.522527093986845"><ele>306.0</ele><time>2026-04-11T04:01:18Z</time></trkpt><trkpt lat="43.29658367958126" lon="11.52240270632526"><ele>306.0</ele><time>2026-04-11T04:01:20Z</time></trkpt><trkpt lat="43.29665369728297" lon="11.522265115066727"><ele>306.0</ele><time>2026-04-11T04:01:22Z</time></trkpt><trkpt lat="43.29671128502805" lon="11.522126236434051"><ele>303.5</ele><time>2026-04-11T04:01:24Z</time></trkpt><trkpt lat="43.29673141896708" lon="11.521973888044862"><ele>301.0</ele><time>2026-04-11T04:01:26Z</time></trkpt><trkpt lat="43.296742951697944" lon="11.521827697465172"><ele>298.5</ele><time>2026-04-11T04:01:28Z</time></trkpt><trkpt lat="43.29678214254596" lon="11.521675247864506"><ele>296.0</ele><time>2026-04-11T04:01:30Z</time></trkpt><trkpt lat="43.296867883243515" lon="11.521555435740293"><ele>296.0</ele><time>2026-04-11T04:01:32Z</time></trkpt><trkpt lat="43.296971724950325" lon="11.521483257667551"><ele>296.0</ele><time>2026-04-11T04:01:34Z</time></trkpt><trkpt lat="43.29706932636811" lon="11.521431631591849"><ele>296.0</ele><time>2026-04-11T04:01:36Z</time></trkpt><trkpt lat="43.29714354830007" lon="11.521409773610598"><ele>296.0</ele><time>2026-04-11T04:04:05Z</time></trkpt><trkpt lat="43.297197800537624" lon="11.521365885210685"><ele>296.0</ele><time>2026-04-11T04:04:08Z</time></trkpt><trkpt lat="43.29727054426036" lon="11.52136610220424"><ele>296.0</ele><time>2026-04-11T04:04:10Z</time></trkpt><trkpt lat="43.297353313332636" lon="11.521331430750445"><ele>297.6</ele><time>2026-04-11T04:04:12Z</time></trkpt><trkpt lat="43.297454695666495" lon="11.521348559833987"><ele>299.20000000000005</ele><time>2026-04-11T04:04:14Z</time></trkpt><trkpt lat="43.297549239295115" lon="11.521383848707769"><ele>300.79999999999995</ele><time>2026-04-11T04:04:16Z</time></trkpt><trkpt lat="43.29762626071335" lon="11.52145640148441"><ele>302.4</ele><time>2026-04-11T04:04:18Z</time></trkpt><trkpt lat="43.297708410212124" lon="11.521542637921849"><ele>304.0</ele><time>2026-04-11T04:04:20Z</time></trkpt><trkpt lat="43.29779413342254" lon="11.52163261152228"><ele>304.0</ele><time>2026-04-11T04:04:22Z</time></trkpt><trkpt lat="43.297886083716506" lon="11.521738132377987"><ele>304.0</ele><time>2026-04-11T04:04:24Z</time></trkpt><trkpt lat="43.297970752529125" lon="11.521848452357123"><ele>304.0</ele><time>2026-04-11T04:04:26Z</time></trkpt><trkpt lat="43.29802389007296" lon="11.521905021611541"><ele>304.0</ele><time>2026-04-11T04:04:27Z</time></trkpt><trkpt lat="43.298072744351046" lon="11.522053803927104"><ele>304.0</ele><time>2026-04-11T04:04:29Z</time></trkpt><trkpt lat="43.29814527234152" lon="11.522179104653008"><ele>304.2</ele><time>2026-04-11T04:04:31Z</time></trkpt><trkpt lat="43.29823222831271" lon="11.522294679279353"><ele>304.4</ele><time>2026-04-11T04:04:32.999Z</time></trkpt><trkpt lat="43.298349723550906" lon="11.522347411463025"><ele>304.6</ele><time>2026-04-11T04:04:34.999Z</time></trkpt><trkpt lat="43.29841560413419" lon="11.522332790784457"><ele>304.8</ele><time>2026-04-11T04:04:35.999Z</time></trkpt><trkpt lat="43.298478260324146" lon="11.522311043976712"><ele>305.0</ele><time>2026-04-11T04:04:36.999Z</time></trkpt><trkpt lat="43.29858687818973" lon="11.522247188233939"><ele>305.0</ele><time>2026-04-11T04:04:38.999Z</time></trkpt><trkpt lat="43.29865571020035" lon="11.522249370364975"><ele>305.0</ele><time>2026-04-11T04:04:39.999Z</time></trkpt><trkpt lat="43.29871408270143" lon="11.522295455177723"><ele>305.0</ele><time>2026-04-11T04:04:40.999Z</time></trkpt><trkpt lat="43.29877381819117" lon="11.52235596975847"><ele>305.0</ele><time>2026-04-11T04:04:41.999Z</time></trkpt><trkpt lat="43.29882498860476" lon="11.522427337758561"><ele>305.0</ele><time>2026-04-11T04:04:42.999Z</time></trkpt><trkpt lat="43.29888110239914" lon="11.522492449297664"><ele>305.0</ele><time>2026-04-11T04:04:43.999Z</time></trkpt><trkpt lat="43.29894897934647" lon="11.522535812875175"><ele>305.0</ele><time>2026-04-11T04:04:44.999Z</time></trkpt><trkpt lat="43.29901951156291" lon="11.522559344763602"><ele>303.83333333333337</ele><time>2026-04-11T04:04:45.999Z</time></trkpt><trkpt lat="43.299094425382194" lon="11.522553367293105"><ele>302.6666666666667</ele><time>2026-04-11T04:04:46.999Z</time></trkpt><trkpt lat="43.299169027557475" lon="11.522546320640327"><ele>301.5</ele><time>2026-04-11T04:04:47.999Z</time></trkpt><trkpt lat="43.29924706455423" lon="11.522539605037613"><ele>300.3333333333333</ele><time>2026-04-11T04:04:48.999Z</time></trkpt><trkpt lat="43.29932063900376" lon="11.522524031789002"><ele>299.16666666666663</ele><time>2026-04-11T04:04:49.999Z</time></trkpt><trkpt lat="43.29939461594263" lon="11.522511240339448"><ele>298.0</ele><time>2026-04-11T04:04:50.999Z</time></trkpt><trkpt lat="43.29951391980729" lon="11.522468246020255"><ele>298.0</ele><time>2026-04-11T04:04:52.999Z</time></trkpt><trkpt lat="43.299564437771295" lon="11.522400606060787"><ele>298.0</ele><time>2026-04-11T04:04:53.999Z</time></trkpt><trkpt lat="43.29961299670953" lon="11.522345375819611"><ele>298.0</ele><time>2026-04-11T04:04:54.999Z</time></trkpt><trkpt lat="43.299675403697215" lon="11.522318382744142"><ele>298.0</ele><time>2026-04-11T04:04:55.999Z</time></trkpt><trkpt lat="43.29974745567949" lon="11.52226315903975"><ele>298.0</ele><time>2026-04-11T04:04:56.999Z</time></trkpt><trkpt lat="43.29983952862711" lon="11.522249600188458"><ele>298.0</ele><time>2026-04-11T04:04:57.999Z</time></trkpt><trkpt lat="43.29994759427608" lon="11.522237849028464"><ele>298.16666666666663</ele><time>2026-04-11T04:04:58.999Z</time></trkpt><trkpt lat="43.300037633123765" lon="11.52222871143193"><ele>298.3333333333333</ele><time>2026-04-11T04:04:59.999Z</time></trkpt><trkpt lat="43.30012317074251" lon="11.52226163131607"><ele>298.5</ele><time>2026-04-11T04:05:00.999Z</time></trkpt><trkpt lat="43.30019970334431" lon="11.522280908914784"><ele>298.6666666666667</ele><time>2026-04-11T04:05:01.999Z</time></trkpt><trkpt lat="43.300276723766764" lon="11.522304127649923"><ele>298.83333333333337</ele><time>2026-04-11T04:05:02.999Z</time></trkpt><trkpt lat="43.30038560856852" lon="11.52234723694147"><ele>299.0</ele><time>2026-04-11T04:05:04.999Z</time></trkpt><trkpt lat="43.3004493091429" lon="11.522387229724124"><ele>299.0</ele><time>2026-04-11T04:05:06.999Z</time></trkpt><trkpt lat="43.30051613356604" lon="11.52242432949446"><ele>299.0</ele><time>2026-04-11T04:05:08.999Z</time></trkpt><trkpt lat="43.30060009212435" lon="11.522468405007652"><ele>299.0</ele><time>2026-04-11T04:05:11.999Z</time></trkpt><trkpt lat="43.30068334918371" lon="11.522512623874269"><ele>299.0</ele><time>2026-04-11T04:05:14.999Z</time></trkpt><trkpt lat="43.300777893068954" lon="11.522534094705684"><ele>299.0</ele><time>2026-04-11T04:05:17.999Z</time></trkpt><trkpt lat="43.30084473712827" lon="11.522537107415255"><ele>299.0</ele><time>2026-04-11T04:05:19.999Z</time></trkpt><trkpt lat="43.30091418252195" lon="11.522552074900153"><ele>298.1666666666667</ele><time>2026-04-11T04:05:21.999Z</time></trkpt><trkpt lat="43.300981223332336" lon="11.522580313154489"><ele>297.33333333333337</ele><time>2026-04-11T04:05:23.999Z</time></trkpt><trkpt lat="43.301043610808414" lon="11.522605516908262"><ele>296.5</ele><time>2026-04-11T04:05:25.999Z</time></trkpt><trkpt lat="43.30113154503905" lon="11.522640255794023"><ele>295.6666666666667</ele><time>2026-04-11T04:05:28.999Z</time></trkpt><trkpt lat="43.301221849797564" lon="11.522694040447423"><ele>294.8333333333333</ele><time>2026-04-11T04:05:32Z</time></trkpt><trkpt lat="43.30128062883064" lon="11.522736974334"><ele>294.0</ele><time>2026-04-11T04:05:34Z</time></trkpt><trkpt lat="43.30134237886763" lon="11.52278192358901"><ele>294.0</ele><time>2026-04-11T04:05:36Z</time></trkpt><trkpt lat="43.30140254717217" lon="11.522824141496606"><ele>294.0</ele><time>2026-04-11T04:05:38Z</time></trkpt><trkpt lat="43.301467843072444" lon="11.52285519509101"><ele>294.0</ele><time>2026-04-11T04:05:40Z</time></trkpt><trkpt lat="43.30155151883361" lon="11.522874337477013"><ele>294.0</ele><time>2026-04-11T04:05:42Z</time></trkpt><trkpt lat="43.30163302979349" lon="11.52289357000538"><ele>294.0</ele><time>2026-04-11T04:05:44Z</time></trkpt><trkpt lat="43.30172783816588" lon="11.522896165038349"><ele>294.0</ele><time>2026-04-11T04:05:46Z</time></trkpt><trkpt lat="43.301811206251664" lon="11.522902485799161"><ele>293.59999999999997</ele><time>2026-04-11T04:05:48Z</time></trkpt><trkpt lat="43.30190127824454" lon="11.522927597483605"><ele>293.2</ele><time>2026-04-11T04:05:50Z</time></trkpt><trkpt lat="43.30199076864551" lon="11.522936589921349"><ele>292.79999999999995</ele><time>2026-04-11T04:05:52Z</time></trkpt><trkpt lat="43.30208615949808" lon="11.522942568754983"><ele>292.4</ele><time>2026-04-11T04:05:54Z</time></trkpt><trkpt lat="43.302176060558196" lon="11.52292459093944"><ele>292.0</ele><time>2026-04-11T04:05:56Z</time></trkpt><trkpt lat="43.30227332025425" lon="11.5228904641347"><ele>292.0</ele><time>2026-04-11T04:05:58Z</time></trkpt><trkpt lat="43.30237635929423" lon="11.52286866077977"><ele>292.0</ele><time>2026-04-11T04:06:00Z</time></trkpt><trkpt lat="43.302477337757566" lon="11.522809961075296"><ele>292.0</ele><time>2026-04-11T04:06:02Z</time></trkpt><trkpt lat="43.30258595460837" lon="11.522753234089597"><ele>292.0</ele><time>2026-04-11T04:06:04Z</time></trkpt><trkpt lat="43.30264975836896" lon="11.522750277944148"><ele>292.0</ele><time>2026-04-11T04:06:05Z</time></trkpt><trkpt lat="43.30277120793808" lon="11.522718178876888"><ele>292.0</ele><time>2026-04-11T04:06:07Z</time></trkpt><trkpt lat="43.30288276273814" lon="11.522703410150221"><ele>292.0</ele><time>2026-04-11T04:06:09Z</time></trkpt><trkpt lat="43.30298907356082" lon="11.522695511124208"><ele>292.0</ele><time>2026-04-11T04:06:11Z</time></trkpt><trkpt lat="43.303082069086685" lon="11.522702920494142"><ele>292.0</ele><time>2026-04-11T04:06:13Z</time></trkpt><trkpt lat="43.3031899158273" lon="11.522716985273853"><ele>292.0</ele><time>2026-04-11T04:06:15Z</time></trkpt><trkpt lat="43.30328395809818" lon="11.522761948114425"><ele>291.4</ele><time>2026-04-11T04:06:17Z</time></trkpt><trkpt lat="43.30337000820412" lon="11.52283164000889"><ele>290.79999999999995</ele><time>2026-04-11T04:06:19Z</time></trkpt><trkpt lat="43.30344181578501" lon="11.522931322493806"><ele>290.2</ele><time>2026-04-11T04:06:21Z</time></trkpt><trkpt lat="43.303501733985144" lon="11.52303091409194"><ele>289.59999999999997</ele><time>2026-04-11T04:06:23Z</time></trkpt><trkpt lat="43.30354645791236" lon="11.523137180379045"><ele>289.0</ele><time>2026-04-11T04:06:25Z</time></trkpt><trkpt lat="43.303609396044976" lon="11.523240999652232"><ele>290.0</ele><time>2026-04-11T04:06:27Z</time></trkpt><trkpt lat="43.30367385986234" lon="11.52335380863857"><ele>291.0</ele><time>2026-04-11T04:06:29Z</time></trkpt><trkpt lat="43.30372863536005" lon="11.523460007353131"><ele>292.0</ele><time>2026-04-11T04:06:31Z</time></trkpt><trkpt lat="43.30379383088765" lon="11.523589970380783"><ele>293.0</ele><time>2026-04-11T04:06:33Z</time></trkpt><trkpt lat="43.303874509823764" lon="11.523704519802708"><ele>294.0</ele><time>2026-04-11T04:06:35Z</time></trkpt><trkpt lat="43.303962259768355" lon="11.523813338971486"><ele>294.0</ele><time>2026-04-11T04:06:37Z</time></trkpt><trkpt lat="43.30407074369516" lon="11.523883072667605"><ele>294.0</ele><time>2026-04-11T04:06:39Z</time></trkpt><trkpt lat="43.30418797072227" lon="11.523888076672021"><ele>294.0</ele><time>2026-04-11T04:06:41Z</time></trkpt><trkpt lat="43.304252964029814" lon="11.523862955982228"><ele>294.0</ele><time>2026-04-11T04:06:42Z</time></trkpt><trkpt lat="43.304341137965174" lon="11.523813416406345"><ele>294.0</ele><time>2026-04-11T04:06:43.999Z</time></trkpt><trkpt lat="43.30440037968811" lon="11.523746101268353"><ele>294.0</ele><time>2026-04-11T04:06:45.999Z</time></trkpt><trkpt lat="43.30445996576238" lon="11.523662841865283"><ele>294.0</ele><time>2026-04-11T04:06:48.999Z</time></trkpt><trkpt lat="43.304516380816935" lon="11.523582323581053"><ele>294.0</ele><time>2026-04-11T04:06:51.999Z</time></trkpt><trkpt lat="43.30457149031692" lon="11.523484878438133"><ele>294.0</ele><time>2026-04-11T04:06:54.999Z</time></trkpt><trkpt lat="43.304625172990676" lon="11.523426411974848"><ele>294.0</ele><time>2026-04-11T04:06:56.999Z</time></trkpt><trkpt lat="43.304655337080774" lon="11.523349897813906"><ele>294.0</ele><time>2026-04-11T04:06:58.999Z</time></trkpt><trkpt lat="43.30473803806882" lon="11.523284460372775"><ele>296.0</ele><time>2026-04-11T04:07:01.999Z</time></trkpt><trkpt lat="43.30481301459146" lon="11.523228936209113"><ele>298.0</ele><time>2026-04-11T04:07:04.999Z</time></trkpt><trkpt lat="43.30487633988689" lon="11.52318280992117"><ele>300.0</ele><time>2026-04-11T04:07:06.999Z</time></trkpt><trkpt lat="43.30495085007858" lon="11.523128050732343"><ele>302.0</ele><time>2026-04-11T04:07:09.999Z</time></trkpt><trkpt lat="43.30502768998352" lon="11.52307582925012"><ele>304.0</ele><time>2026-04-11T04:07:12.999Z</time></trkpt><trkpt lat="43.30509980588827" lon="11.523022644409913"><ele>306.0</ele><time>2026-04-11T04:07:15.999Z</time></trkpt><trkpt lat="43.3051700759698" lon="11.522982122190895"><ele>306.0</ele><time>2026-04-11T04:07:18.999Z</time></trkpt><trkpt lat="43.30523821914302" lon="11.522941892512122"><ele>306.0</ele><time>2026-04-11T04:07:21.999Z</time></trkpt><trkpt lat="43.305310079189695" lon="11.522930248079458"><ele>306.0</ele><time>2026-04-11T04:07:25.999Z</time></trkpt><trkpt lat="43.3053701168095" lon="11.522901339573401"><ele>306.0</ele><time>2026-04-11T04:07:28.999Z</time></trkpt><trkpt lat="43.30542793835493" lon="11.522864379922172"><ele>306.0</ele><time>2026-04-11T04:07:32.999Z</time></trkpt><trkpt lat="43.305489255756996" lon="11.52284169203665"><ele>306.0</ele><time>2026-04-11T04:07:37Z</time></trkpt><trkpt lat="43.30555501359341" lon="11.52280658404545"><ele>306.0</ele><time>2026-04-11T04:07:41Z</time></trkpt><trkpt lat="43.30562738619459" lon="11.522805021723675"><ele>307.1428571428571</ele><time>2026-04-11T04:07:45Z</time></trkpt><trkpt lat="43.3057101481118" lon="11.522787982667568"><ele>308.2857142857143</ele><time>2026-04-11T04:07:49Z</time></trkpt><trkpt lat="43.30577407999755" lon="11.522806001312725"><ele>309.42857142857144</ele><time>2026-04-11T04:07:52Z</time></trkpt><trkpt lat="43.30585374493214" lon="11.522849586016886"><ele>310.57142857142856</ele><time>2026-04-11T04:07:56Z</time></trkpt><trkpt lat="43.30592016530305" lon="11.522878378212289"><ele>311.7142857142857</ele><time>2026-04-11T04:07:59Z</time></trkpt><trkpt lat="43.3059801918763" lon="11.522906423407061"><ele>312.85714285714283</ele><time>2026-04-11T04:08:02Z</time></trkpt><trkpt lat="43.30605387583039" lon="11.52293977722391"><ele>314.0</ele><time>2026-04-11T04:08:05Z</time></trkpt><trkpt lat="43.30612709143587" lon="11.522969696063717"><ele>314.57142857142856</ele><time>2026-04-11T04:08:08Z</time></trkpt><trkpt lat="43.30618805787082" lon="11.522993526521091"><ele>315.1428571428571</ele><time>2026-04-11T04:08:11Z</time></trkpt><trkpt lat="43.30625734163596" lon="11.523010213131277"><ele>315.71428571428567</ele><time>2026-04-11T04:08:15Z</time></trkpt><trkpt lat="43.30633642391426" lon="11.523028618475912"><ele>316.2857142857143</ele><time>2026-04-11T04:08:19Z</time></trkpt><trkpt lat="43.306407653150615" lon="11.52301948959461"><ele>316.8571428571429</ele><time>2026-04-11T04:08:23Z</time></trkpt><trkpt lat="43.30648145655015" lon="11.523042563073837"><ele>317.4285714285714</ele><time>2026-04-11T04:08:26Z</time></trkpt><trkpt lat="43.30654567628611" lon="11.523052187742705"><ele>318.0</ele><time>2026-04-11T04:08:29Z</time></trkpt><trkpt lat="43.306610869346564" lon="11.523061035925656"><ele>319.0</ele><time>2026-04-11T04:08:33Z</time></trkpt><trkpt lat="43.30667592198762" lon="11.523064317813576"><ele>320.0</ele><time>2026-04-11T04:08:36Z</time></trkpt><trkpt lat="43.30675628643428" lon="11.523066976721458"><ele>321.0</ele><time>2026-04-11T04:08:40Z</time></trkpt><trkpt lat="43.30682873090695" lon="11.523086024569018"><ele>322.0</ele><time>2026-04-11T04:08:43Z</time></trkpt><trkpt lat="43.30690309767511" lon="11.523083292613698"><ele>323.0</ele><time>2026-04-11T04:08:46.999Z</time></trkpt><trkpt lat="43.306991453418945" lon="11.523090214591777"><ele>324.0</ele><time>2026-04-11T04:08:50.999Z</time></trkpt><trkpt lat="43.30705472444499" lon="11.523084718788477"><ele>325.0</ele><time>2026-04-11T04:08:53.999Z</time></trkpt><trkpt lat="43.30713368549184" lon="11.52308952778728"><ele>325.0</ele><time>2026-04-11T04:08:56.999Z</time></trkpt><trkpt lat="43.30722546941339" lon="11.523077379180414"><ele>325.0</ele><time>2026-04-11T04:08:59.999Z</time></trkpt><trkpt lat="43.307309304956576" lon="11.523085258241892"><ele>325.0</ele><time>2026-04-11T04:09:02.999Z</time></trkpt><trkpt lat="43.30739322572288" lon="11.52313353241004"><ele>325.0</ele><time>2026-04-11T04:09:05.999Z</time></trkpt><trkpt lat="43.30748045330405" lon="11.52318181897451"><ele>325.0</ele><time>2026-04-11T04:09:08.999Z</time></trkpt><trkpt lat="43.30754757408202" lon="11.523260867901541"><ele>325.1428571428571</ele><time>2026-04-11T04:09:11.999Z</time></trkpt><trkpt lat="43.307597006027265" lon="11.523318758053266"><ele>325.28571428571433</ele><time>2026-04-11T04:09:13.999Z</time></trkpt><trkpt lat="43.307640043672656" lon="11.523384549955917"><ele>325.42857142857144</ele><time>2026-04-11T04:09:15.999Z</time></trkpt><trkpt lat="43.30771487333723" lon="11.523421902882603"><ele>325.57142857142856</ele><time>2026-04-11T04:09:17.999Z</time></trkpt><trkpt lat="43.30777306732866" lon="11.523495665422923"><ele>325.71428571428567</ele><time>2026-04-11T04:09:19.999Z</time></trkpt><trkpt lat="43.30784172027057" lon="11.523549092923634"><ele>325.8571428571429</ele><time>2026-04-11T04:09:21.999Z</time></trkpt><trkpt lat="43.30791076021731" lon="11.523604871088766"><ele>326.0</ele><time>2026-04-11T04:09:23.999Z</time></trkpt><trkpt lat="43.30798093039714" lon="11.523662628625118"><ele>326.0</ele><time>2026-04-11T04:09:25.999Z</time></trkpt><trkpt lat="43.308047901381805" lon="11.523707976597654"><ele>326.0</ele><time>2026-04-11T04:09:27.999Z</time></trkpt><trkpt lat="43.30811232993086" lon="11.52376760960615"><ele>326.0</ele><time>2026-04-11T04:09:29.999Z</time></trkpt><trkpt lat="43.30818538041661" lon="11.523813446186265"><ele>326.0</ele><time>2026-04-11T04:09:31.999Z</time></trkpt><trkpt lat="43.30825911280302" lon="11.52385787097416"><ele>326.0</ele><time>2026-04-11T04:09:33.999Z</time></trkpt><trkpt lat="43.30832812292639" lon="11.523907506443106"><ele>326.0</ele><time>2026-04-11T04:09:35.999Z</time></trkpt><trkpt lat="43.308398836149735" lon="11.523964257408085"><ele>326.0</ele><time>2026-04-11T04:09:37.999Z</time></trkpt><trkpt lat="43.30846327424403" lon="11.524046646558423"><ele>326.0</ele><time>2026-04-11T04:09:39.999Z</time></trkpt><trkpt lat="43.30854322757975" lon="11.524144852794935"><ele>326.0</ele><time>2026-04-11T04:09:42Z</time></trkpt><trkpt lat="43.30858799104547" lon="11.524247189755172"><ele>326.0</ele><time>2026-04-11T04:09:44Z</time></trkpt><trkpt lat="43.308647296468614" lon="11.524344218743524"><ele>326.0</ele><time>2026-04-11T04:09:46Z</time></trkpt><trkpt lat="43.308714897392335" lon="11.52443848009534"><ele>326.0</ele><time>2026-04-11T04:09:49Z</time></trkpt><trkpt lat="43.308853408305616" lon="11.524317399567908"><ele>326.0</ele><time>2026-04-11T04:09:51Z</time></trkpt><trkpt lat="43.308876365543505" lon="11.524223032904148"><ele>326.0</ele><time>2026-04-11T04:09:52Z</time></trkpt><trkpt lat="43.30889580532291" lon="11.524126601973773"><ele>326.0</ele><time>2026-04-11T04:09:53Z</time></trkpt><trkpt lat="43.308911608530906" lon="11.524042057678875"><ele>326.0</ele><time>2026-04-11T04:09:54Z</time></trkpt><trkpt lat="43.30891033960769" lon="11.523944926127633"><ele>326.0</ele><time>2026-04-11T04:09:55Z</time></trkpt><trkpt lat="43.308917584464204" lon="11.523856224754637"><ele>326.14285714285717</ele><time>2026-04-11T04:09:56Z</time></trkpt><trkpt lat="43.30891565259088" lon="11.523761138914692"><ele>326.2857142857143</ele><time>2026-04-11T04:09:57Z</time></trkpt><trkpt lat="43.30891230261422" lon="11.523664126640481"><ele>326.42857142857144</ele><time>2026-04-11T04:09:58Z</time></trkpt><trkpt lat="43.30889714635101" lon="11.523566130382932"><ele>326.57142857142856</ele><time>2026-04-11T04:09:59Z</time></trkpt><trkpt lat="43.30886327348227" lon="11.523480019122944"><ele>326.7142857142857</ele><time>2026-04-11T04:10:00Z</time></trkpt><trkpt lat="43.30884952112637" lon="11.52338748592108"><ele>326.85714285714283</ele><time>2026-04-11T04:10:01Z</time></trkpt><trkpt lat="43.3088629239648" lon="11.523285781732394"><ele>327.0</ele><time>2026-04-11T04:10:02Z</time></trkpt><trkpt lat="43.30890744781065" lon="11.523189146081213"><ele>325.1666666666667</ele><time>2026-04-11T04:10:03Z</time></trkpt><trkpt lat="43.30895434458596" lon="11.523077047142047"><ele>323.3333333333333</ele><time>2026-04-11T04:10:04Z</time></trkpt><trkpt lat="43.30901335675214" lon="11.523014382690281"><ele>321.5</ele><time>2026-04-11T04:10:05Z</time></trkpt><trkpt lat="43.309082256951015" lon="11.522957590783905"><ele>319.66666666666663</ele><time>2026-04-11T04:10:06Z</time></trkpt><trkpt lat="43.30915179453541" lon="11.52288172045113"><ele>317.8333333333333</ele><time>2026-04-11T04:10:07Z</time></trkpt><trkpt lat="43.309229378261904" lon="11.522827974689648"><ele>316.0</ele><time>2026-04-11T04:10:08Z</time></trkpt><trkpt lat="43.30931393997419" lon="11.522761556351313"><ele>314.8</ele><time>2026-04-11T04:10:09Z</time></trkpt><trkpt lat="43.30940184246186" lon="11.522704650850631"><ele>313.6</ele><time>2026-04-11T04:10:10Z</time></trkpt><trkpt lat="43.30949102178636" lon="11.522648382399286"><ele>312.4</ele><time>2026-04-11T04:10:11Z</time></trkpt><trkpt lat="43.309576446331796" lon="11.52259015798413"><ele>311.2</ele><time>2026-04-11T04:10:12Z</time></trkpt><trkpt lat="43.309657815092585" lon="11.522519589701616"><ele>310.0</ele><time>2026-04-11T04:10:13Z</time></trkpt><trkpt lat="43.309727074145265" lon="11.522433977189955"><ele>309.4</ele><time>2026-04-11T04:10:14Z</time></trkpt><trkpt lat="43.30978556346246" lon="11.52233270153738"><ele>308.8</ele><time>2026-04-11T04:10:15Z</time></trkpt><trkpt lat="43.30982839681916" lon="11.522215844148548"><ele>308.2</ele><time>2026-04-11T04:10:16Z</time></trkpt><trkpt lat="43.30986321096982" lon="11.522101240274186"><ele>307.6</ele><time>2026-04-11T04:10:17Z</time></trkpt><trkpt lat="43.3098790995611" lon="11.521979463841584"><ele>307.0</ele><time>2026-04-11T04:10:18Z</time></trkpt><trkpt lat="43.30988255599643" lon="11.521859112982227"><ele>306.6</ele><time>2026-04-11T04:10:19Z</time></trkpt><trkpt lat="43.30986777851565" lon="11.521734879306699"><ele>306.2</ele><time>2026-04-11T04:10:20Z</time></trkpt><trkpt lat="43.30984106071587" lon="11.521619953849493"><ele>305.8</ele><time>2026-04-11T04:10:21Z</time></trkpt><trkpt lat="43.30980688892792" lon="11.52150272687731"><ele>305.4</ele><time>2026-04-11T04:10:22Z</time></trkpt><trkpt lat="43.30976989176071" lon="11.521379663008082"><ele>305.0</ele><time>2026-04-11T04:10:23Z</time></trkpt><trkpt lat="43.30974149949972" lon="11.521258328635959"><ele>301.6</ele><time>2026-04-11T04:10:24Z</time></trkpt><trkpt lat="43.309720555906004" lon="11.521124067861466"><ele>298.2</ele><time>2026-04-11T04:10:25Z</time></trkpt><trkpt lat="43.30971135124152" lon="11.520982313801754"><ele>294.8</ele><time>2026-04-11T04:10:26Z</time></trkpt><trkpt lat="43.30970286799777" lon="11.520838141291822"><ele>291.4</ele><time>2026-04-11T04:10:27Z</time></trkpt><trkpt lat="43.30969782456907" lon="11.5206937338433"><ele>288.0</ele><time>2026-04-11T04:10:28Z</time></trkpt><trkpt lat="43.30968747248284" lon="11.520543874450762"><ele>289.6</ele><time>2026-04-11T04:10:29Z</time></trkpt><trkpt lat="43.30967991795921" lon="11.520392213719479"><ele>291.20000000000005</ele><time>2026-04-11T04:10:30Z</time></trkpt><trkpt lat="43.30967231828368" lon="11.520239239214332"><ele>292.8</ele><time>2026-04-11T04:10:31Z</time></trkpt><trkpt lat="43.309662377184274" lon="11.520091853124326"><ele>294.40000000000003</ele><time>2026-04-11T04:10:32Z</time></trkpt><trkpt lat="43.30964841457769" lon="11.519948122517333"><ele>296.0</ele><time>2026-04-11T04:10:33Z</time></trkpt><trkpt lat="43.309656390897274" lon="11.519801663797244"><ele>296.0</ele><time>2026-04-11T04:10:34Z</time></trkpt><trkpt lat="43.30970318938507" lon="11.519653784635205"><ele>296.0</ele><time>2026-04-11T04:10:35Z</time></trkpt><trkpt lat="43.30974807398893" lon="11.519522000222992"><ele>296.0</ele><time>2026-04-11T04:10:36Z</time></trkpt><trkpt lat="43.309795287111726" lon="11.519396604447456"><ele>296.0</ele><time>2026-04-11T04:10:37Z</time></trkpt><trkpt lat="43.30983875418129" lon="11.519273487445124"><ele>296.0</ele><time>2026-04-11T04:10:38Z</time></trkpt><trkpt lat="43.309880647356515" lon="11.519153783912248"><ele>296.0</ele><time>2026-04-11T04:10:39Z</time></trkpt><trkpt lat="43.30991481939286" lon="11.519044124895023"><ele>296.0</ele><time>2026-04-11T04:10:40Z</time></trkpt><trkpt lat="43.30993856763303" lon="11.518929242882386"><ele>296.0</ele><time>2026-04-11T04:10:41Z</time></trkpt><trkpt lat="43.30995223299168" lon="11.518809604165083"><ele>296.0</ele><time>2026-04-11T04:10:42Z</time></trkpt><trkpt lat="43.309956963357" lon="11.51869373495721"><ele>296.0</ele><time>2026-04-11T04:10:43Z</time></trkpt><trkpt lat="43.309951335385044" lon="11.518575904451456"><ele>296.0</ele><time>2026-04-11T04:10:44Z</time></trkpt><trkpt lat="43.30993311710895" lon="11.51845947052548"><ele>295.83333333333337</ele><time>2026-04-11T04:10:45Z</time></trkpt><trkpt lat="43.30990933664721" lon="11.51834648028864"><ele>295.6666666666667</ele><time>2026-04-11T04:10:46Z</time></trkpt><trkpt lat="43.309873707077465" lon="11.518238993607183"><ele>295.5</ele><time>2026-04-11T04:10:47Z</time></trkpt><trkpt lat="43.309832206548" lon="11.518133933442474"><ele>295.3333333333333</ele><time>2026-04-11T04:10:48Z</time></trkpt><trkpt lat="43.30979034207522" lon="11.518032233094315"><ele>295.16666666666663</ele><time>2026-04-11T04:10:49Z</time></trkpt><trkpt lat="43.30975544305203" lon="11.517925495435863"><ele>295.0</ele><time>2026-04-11T04:10:50Z</time></trkpt><trkpt lat="43.30970697661463" lon="11.517826229847776"><ele>294.16666666666663</ele><time>2026-04-11T04:10:50.999Z</time></trkpt><trkpt lat="43.30965028331975" lon="11.517736346849619"><ele>293.3333333333333</ele><time>2026-04-11T04:10:51.999Z</time></trkpt><trkpt lat="43.30958708640513" lon="11.517655679512032"><ele>292.5</ele><time>2026-04-11T04:10:52.999Z</time></trkpt><trkpt lat="43.30951875336992" lon="11.517575024543008"><ele>291.6666666666667</ele><time>2026-04-11T04:10:53.999Z</time></trkpt><trkpt lat="43.30945089830173" lon="11.517493621708095"><ele>290.83333333333337</ele><time>2026-04-11T04:10:54.999Z</time></trkpt><trkpt lat="43.30938441274622" lon="11.517410795075945"><ele>290.0</ele><time>2026-04-11T04:10:55.999Z</time></trkpt><trkpt lat="43.309314362335094" lon="11.517334004550046"><ele>290.0</ele><time>2026-04-11T04:10:56.999Z</time></trkpt><trkpt lat="43.30925877951977" lon="11.517243538502044"><ele>290.0</ele><time>2026-04-11T04:10:57.999Z</time></trkpt><trkpt lat="43.30921904914682" lon="11.517144235771118"><ele>290.0</ele><time>2026-04-11T04:10:58.999Z</time></trkpt><trkpt lat="43.30918947497588" lon="11.517042082223293"><ele>290.0</ele><time>2026-04-11T04:10:59.999Z</time></trkpt><trkpt lat="43.30917337278153" lon="11.516933748444673"><ele>290.0</ele><time>2026-04-11T04:11:00.999Z</time></trkpt><trkpt lat="43.30917430986171" lon="11.516841808608161"><ele>290.0</ele><time>2026-04-11T04:11:01.999Z</time></trkpt><trkpt lat="43.309186563846005" lon="11.516746466850922"><ele>290.57142857142856</ele><time>2026-04-11T04:11:02.999Z</time></trkpt><trkpt lat="43.30920808742556" lon="11.51665252881875"><ele>291.14285714285717</ele><time>2026-04-11T04:11:03.999Z</time></trkpt><trkpt lat="43.30926033459998" lon="11.516581995112357"><ele>291.7142857142857</ele><time>2026-04-11T04:11:04.999Z</time></trkpt><trkpt lat="43.30930616149263" lon="11.516519736401726"><ele>292.2857142857143</ele><time>2026-04-11T04:11:05.999Z</time></trkpt><trkpt lat="43.30934473851058" lon="11.516449474229981"><ele>292.8571428571429</ele><time>2026-04-11T04:11:06.999Z</time></trkpt><trkpt lat="43.309398122869126" lon="11.516392935209756"><ele>293.42857142857144</ele><time>2026-04-11T04:11:07.999Z</time></trkpt><trkpt lat="43.309445318578" lon="11.516331917797656"><ele>294.0</ele><time>2026-04-11T04:11:08.999Z</time></trkpt><trkpt lat="43.309493367181" lon="11.516270903465115"><ele>294.57142857142856</ele><time>2026-04-11T04:11:09.999Z</time></trkpt><trkpt lat="43.30954178052818" lon="11.5162091009109"><ele>295.1428571428571</ele><time>2026-04-11T04:11:10.999Z</time></trkpt><trkpt lat="43.309594206909374" lon="11.51613965301866"><ele>295.7142857142857</ele><time>2026-04-11T04:11:11.999Z</time></trkpt><trkpt lat="43.30964722872959" lon="11.51607194526341"><ele>296.2857142857143</ele><time>2026-04-11T04:11:12.999Z</time></trkpt><trkpt lat="43.30970045897487" lon="11.516001360598587"><ele>296.85714285714283</ele><time>2026-04-11T04:11:13.999Z</time></trkpt><trkpt lat="43.309755360543896" lon="11.515930748428225"><ele>297.42857142857144</ele><time>2026-04-11T04:11:14.999Z</time></trkpt><trkpt lat="43.30981336093489" lon="11.515858475526185"><ele>298.0</ele><time>2026-04-11T04:11:15.999Z</time></trkpt><trkpt lat="43.30987084538176" lon="11.515785559281705"><ele>296.5</ele><time>2026-04-11T04:11:16.999Z</time></trkpt><trkpt lat="43.30993381058603" lon="11.515710830446782"><ele>295.0</ele><time>2026-04-11T04:11:17.999Z</time></trkpt><trkpt lat="43.3099991265736" lon="11.515639533198872"><ele>293.5</ele><time>2026-04-11T04:11:18.999Z</time></trkpt><trkpt lat="43.31006681643166" lon="11.515564869487127"><ele>292.0</ele><time>2026-04-11T04:11:19.999Z</time></trkpt><trkpt lat="43.31013786056715" lon="11.515498546919252"><ele>290.5</ele><time>2026-04-11T04:11:20.999Z</time></trkpt><trkpt lat="43.310224858243465" lon="11.515434965241193"><ele>289.0</ele><time>2026-04-11T04:11:21.999Z</time></trkpt><trkpt lat="43.310316239303226" lon="11.515407900199829"><ele>287.8</ele><time>2026-04-11T04:11:22.999Z</time></trkpt><trkpt lat="43.31040483526384" lon="11.515368082373474"><ele>286.59999999999997</ele><time>2026-04-11T04:11:23.999Z</time></trkpt><trkpt lat="43.31049419668472" lon="11.515332145793998"><ele>285.4</ele><time>2026-04-11T04:11:24.999Z</time></trkpt><trkpt lat="43.31058552470999" lon="11.515285099482526"><ele>284.2</ele><time>2026-04-11T04:11:25.999Z</time></trkpt><trkpt lat="43.31068886122706" lon="11.51525098369027"><ele>283.0</ele><time>2026-04-11T04:11:26.999Z</time></trkpt><trkpt lat="43.31078104502308" lon="11.515229081238637"><ele>283.0</ele><time>2026-04-11T04:11:27.999Z</time></trkpt><trkpt lat="43.31087313531665" lon="11.515209725367463"><ele>283.0</ele><time>2026-04-11T04:11:28.999Z</time></trkpt><trkpt lat="43.31095918175827" lon="11.51518340255822"><ele>283.0</ele><time>2026-04-11T04:11:29.999Z</time></trkpt><trkpt lat="43.31104831635939" lon="11.5151684599563"><ele>283.0</ele><time>2026-04-11T04:11:30.999Z</time></trkpt><trkpt lat="43.31113277326073" lon="11.515160122430522"><ele>283.0</ele><time>2026-04-11T04:11:31.999Z</time></trkpt><trkpt lat="43.3112113392533" lon="11.515162259377705"><ele>283.0</ele><time>2026-04-11T04:11:32.999Z</time></trkpt><trkpt lat="43.31129132049423" lon="11.515159182672859"><ele>283.0</ele><time>2026-04-11T04:11:33.999Z</time></trkpt><trkpt lat="43.31136148223142" lon="11.515158356652458"><ele>283.0</ele><time>2026-04-11T04:11:34.999Z</time></trkpt><trkpt lat="43.31142901810053" lon="11.515155908589165"><ele>283.0</ele><time>2026-04-11T04:11:35.999Z</time></trkpt><trkpt lat="43.31149993658495" lon="11.5151781321362"><ele>283.0</ele><time>2026-04-11T04:11:36.999Z</time></trkpt><trkpt lat="43.311618047697806" lon="11.515179501537972"><ele>283.0</ele><time>2026-04-11T04:11:38.999Z</time></trkpt><trkpt lat="43.31172518401584" lon="11.515160957494924"><ele>283.0</ele><time>2026-04-11T04:11:40.999Z</time></trkpt><trkpt lat="43.31181723647965" lon="11.515145224012844"><ele>284.3333333333333</ele><time>2026-04-11T04:11:42.999Z</time></trkpt><trkpt lat="43.31189752253488" lon="11.5151244964775"><ele>285.66666666666663</ele><time>2026-04-11T04:11:44.999Z</time></trkpt><trkpt lat="43.31196252664114" lon="11.515084676432357"><ele>287.0</ele><time>2026-04-11T04:11:46.999Z</time></trkpt><trkpt lat="43.31201863158666" lon="11.515030421841304"><ele>288.3333333333333</ele><time>2026-04-11T04:11:49Z</time></trkpt><trkpt lat="43.31206386817266" lon="11.514962772716322"><ele>289.6666666666667</ele><time>2026-04-11T04:11:51Z</time></trkpt><trkpt lat="43.312127775604104" lon="11.514870414940885"><ele>291.0</ele><time>2026-04-11T04:11:54Z</time></trkpt><trkpt lat="43.312172861540446" lon="11.514762360591453"><ele>291.0</ele><time>2026-04-11T04:11:57Z</time></trkpt><trkpt lat="43.31220637438447" lon="11.51468759142775"><ele>291.0</ele><time>2026-04-11T04:11:59Z</time></trkpt><trkpt lat="43.312253289257605" lon="11.51457996277798"><ele>291.0</ele><time>2026-04-11T04:12:02Z</time></trkpt><trkpt lat="43.312307200917154" lon="11.514487377737737"><ele>291.0</ele><time>2026-04-11T04:12:05Z</time></trkpt><trkpt lat="43.312360633525394" lon="11.514382051474156"><ele>291.0</ele><time>2026-04-11T04:12:08Z</time></trkpt><trkpt lat="43.31242369099822" lon="11.514292679693225"><ele>291.0</ele><time>2026-04-11T04:12:11Z</time></trkpt><trkpt lat="43.31248147898165" lon="11.514196486753866"><ele>292.0</ele><time>2026-04-11T04:12:14Z</time></trkpt><trkpt lat="43.312560459939704" lon="11.514120387491152"><ele>293.0</ele><time>2026-04-11T04:12:17Z</time></trkpt><trkpt lat="43.31262266991647" lon="11.514063733469273"><ele>294.0</ele><time>2026-04-11T04:12:19Z</time></trkpt><trkpt lat="43.31269463594441" lon="11.51401088235203"><ele>295.0</ele><time>2026-04-11T04:12:21Z</time></trkpt><trkpt lat="43.31276734811688" lon="11.513961082378458"><ele>296.0</ele><time>2026-04-11T04:12:23Z</time></trkpt><trkpt lat="43.3128434795743" lon="11.513910096044729"><ele>297.0</ele><time>2026-04-11T04:12:25Z</time></trkpt><trkpt lat="43.3129122985906" lon="11.513869792335688"><ele>297.0</ele><time>2026-04-11T04:12:27Z</time></trkpt><trkpt lat="43.312980076814185" lon="11.513844825704227"><ele>297.0</ele><time>2026-04-11T04:12:29Z</time></trkpt><trkpt lat="43.31304609583891" lon="11.51383163037565"><ele>297.0</ele><time>2026-04-11T04:12:31Z</time></trkpt><trkpt lat="43.31312703539205" lon="11.513830730684209"><ele>297.0</ele><time>2026-04-11T04:12:34Z</time></trkpt><trkpt lat="43.31320279688916" lon="11.51383550770999"><ele>297.0</ele><time>2026-04-11T04:12:37Z</time></trkpt><trkpt lat="43.3132798559389" lon="11.513853612638924"><ele>297.0</ele><time>2026-04-11T04:12:40Z</time></trkpt><trkpt lat="43.3133568171762" lon="11.51387596609886"><ele>297.2857142857143</ele><time>2026-04-11T04:12:43Z</time></trkpt><trkpt lat="43.31342650403641" lon="11.513906000964383"><ele>297.5714285714286</ele><time>2026-04-11T04:12:46Z</time></trkpt><trkpt lat="43.3134982051926" lon="11.513968818240201"><ele>297.8571428571429</ele><time>2026-04-11T04:12:49Z</time></trkpt><trkpt lat="43.313554757238336" lon="11.514008435085364"><ele>298.14285714285717</ele><time>2026-04-11T04:12:51Z</time></trkpt><trkpt lat="43.31361141025124" lon="11.514057279467133"><ele>298.42857142857144</ele><time>2026-04-11T04:12:53Z</time></trkpt><trkpt lat="43.313669083565976" lon="11.514103550507038"><ele>298.7142857142857</ele><time>2026-04-11T04:12:55Z</time></trkpt><trkpt lat="43.31372541866911" lon="11.51415520726219"><ele>299.0</ele><time>2026-04-11T04:12:57Z</time></trkpt><trkpt lat="43.3137862612967" lon="11.514210212776819"><ele>299.0</ele><time>2026-04-11T04:12:58.999Z</time></trkpt><trkpt lat="43.31384333442556" lon="11.514271065422186"><ele>299.0</ele><time>2026-04-11T04:13:00.999Z</time></trkpt><trkpt lat="43.31389847834122" lon="11.5143495139296"><ele>299.0</ele><time>2026-04-11T04:13:02.999Z</time></trkpt><trkpt lat="43.31395642101065" lon="11.514430100877338"><ele>299.0</ele><time>2026-04-11T04:13:04.999Z</time></trkpt><trkpt lat="43.31401534839145" lon="11.514509184493068"><ele>299.0</ele><time>2026-04-11T04:13:06.999Z</time></trkpt><trkpt lat="43.31407874404094" lon="11.51458681662076"><ele>299.0</ele><time>2026-04-11T04:13:08.999Z</time></trkpt><trkpt lat="43.31416319313145" lon="11.514646598306527"><ele>299.0</ele><time>2026-04-11T04:13:10.999Z</time></trkpt><trkpt lat="43.31426573537214" lon="11.51466656076057"><ele>299.0</ele><time>2026-04-11T04:13:12.999Z</time></trkpt><trkpt lat="43.31436990919802" lon="11.514632581402298"><ele>299.0</ele><time>2026-04-11T04:13:14.999Z</time></trkpt><trkpt lat="43.314463224370236" lon="11.51455492542952"><ele>299.0</ele><time>2026-04-11T04:13:16.999Z</time></trkpt><trkpt lat="43.314553849362504" lon="11.514462728686505"><ele>299.0</ele><time>2026-04-11T04:13:18.999Z</time></trkpt><trkpt lat="43.31462285405107" lon="11.514331775431394"><ele>299.1666666666667</ele><time>2026-04-11T04:13:20.999Z</time></trkpt><trkpt lat="43.31468679793073" lon="11.514189302036556"><ele>299.33333333333337</ele><time>2026-04-11T04:13:22.999Z</time></trkpt><trkpt lat="43.31471595371849" lon="11.514112610492948"><ele>299.5</ele><time>2026-04-11T04:13:23.999Z</time></trkpt><trkpt lat="43.31475474490228" lon="11.514040094641205"><ele>299.6666666666667</ele><time>2026-04-11T04:13:24.999Z</time></trkpt><trkpt lat="43.314808493009096" lon="11.513978879788988"><ele>299.8333333333333</ele><time>2026-04-11T04:13:25.999Z</time></trkpt><trkpt lat="43.314871950053984" lon="11.513932969580434"><ele>300.0</ele><time>2026-04-11T04:13:26.999Z</time></trkpt><trkpt lat="43.31494473586382" lon="11.513900675409655"><ele>300.6666666666667</ele><time>2026-04-11T04:13:27.999Z</time></trkpt><trkpt lat="43.315021820287605" lon="11.513881079037986"><ele>301.3333333333333</ele><time>2026-04-11T04:13:28.999Z</time></trkpt><trkpt lat="43.315100684720136" lon="11.51387275032337"><ele>302.0</ele><time>2026-04-11T04:13:29.999Z</time></trkpt><trkpt lat="43.31518071407673" lon="11.513871353819248"><ele>302.66666666666663</ele><time>2026-04-11T04:13:30.999Z</time></trkpt><trkpt lat="43.31525846898436" lon="11.51386940052058"><ele>303.3333333333333</ele><time>2026-04-11T04:13:31.999Z</time></trkpt><trkpt lat="43.31533564368502" lon="11.513873976453596"><ele>304.0</ele><time>2026-04-11T04:13:32.999Z</time></trkpt><trkpt lat="43.31541018846331" lon="11.513898848642949"><ele>304.0</ele><time>2026-04-11T04:13:33.999Z</time></trkpt><trkpt lat="43.315475816243875" lon="11.513954301270557"><ele>304.0</ele><time>2026-04-11T04:13:34.999Z</time></trkpt><trkpt lat="43.31553071198515" lon="11.514032467155666"><ele>304.0</ele><time>2026-04-11T04:13:35.999Z</time></trkpt><trkpt lat="43.31555012876083" lon="11.51412663421737"><ele>304.0</ele><time>2026-04-11T04:13:36.999Z</time></trkpt><trkpt lat="43.31555310149117" lon="11.514216264905679"><ele>304.0</ele><time>2026-04-11T04:13:37.999Z</time></trkpt><trkpt lat="43.315578506121255" lon="11.514368821709123"><ele>304.0</ele><time>2026-04-11T04:13:39.999Z</time></trkpt><trkpt lat="43.315586896589004" lon="11.514517741371838"><ele>303.0</ele><time>2026-04-11T04:13:41.999Z</time></trkpt><trkpt lat="43.31560325565972" lon="11.514659600341655"><ele>302.0</ele><time>2026-04-11T04:13:43.999Z</time></trkpt><trkpt lat="43.31563412638862" lon="11.514792334045934"><ele>301.0</ele><time>2026-04-11T04:13:45.999Z</time></trkpt><trkpt lat="43.31567847728114" lon="11.51492097605114"><ele>300.0</ele><time>2026-04-11T04:13:47.999Z</time></trkpt><trkpt lat="43.31574103190049" lon="11.515038261799026"><ele>299.0</ele><time>2026-04-11T04:13:49.999Z</time></trkpt><trkpt lat="43.31580690302775" lon="11.51514126567093"><ele>299.0</ele><time>2026-04-11T04:13:51.999Z</time></trkpt><trkpt lat="43.315890420227355" lon="11.515213734058728"><ele>299.0</ele><time>2026-04-11T04:13:54Z</time></trkpt><trkpt lat="43.31598293336657" lon="11.515266451110145"><ele>299.0</ele><time>2026-04-11T04:13:56Z</time></trkpt><trkpt lat="43.316085339559905" lon="11.515288184487861"><ele>299.0</ele><time>2026-04-11T04:13:58Z</time></trkpt><trkpt lat="43.31618779910977" lon="11.515285142857433"><ele>299.0</ele><time>2026-04-11T04:14:00Z</time></trkpt><trkpt lat="43.31629187005291" lon="11.51526238060302"><ele>299.0</ele><time>2026-04-11T04:14:02Z</time></trkpt><trkpt lat="43.316401577439656" lon="11.515232282760858"><ele>299.0</ele><time>2026-04-11T04:14:04Z</time></trkpt><trkpt lat="43.31651076880797" lon="11.515193758581285"><ele>299.0</ele><time>2026-04-11T04:14:06Z</time></trkpt><trkpt lat="43.316618356355725" lon="11.515151216086894"><ele>299.0</ele><time>2026-04-11T04:14:08Z</time></trkpt><trkpt lat="43.31672547522729" lon="11.515105108326447"><ele>299.0</ele><time>2026-04-11T04:14:10Z</time></trkpt><trkpt lat="43.31683522711534" lon="11.515057676308796"><ele>299.25</ele><time>2026-04-11T04:14:12Z</time></trkpt><trkpt lat="43.31694703592987" lon="11.515003070162269"><ele>299.5</ele><time>2026-04-11T04:14:14Z</time></trkpt><trkpt lat="43.31705938503727" lon="11.514953867496065"><ele>299.75</ele><time>2026-04-11T04:14:16Z</time></trkpt><trkpt lat="43.31717231853266" lon="11.514909515442147"><ele>300.0</ele><time>2026-04-11T04:14:18Z</time></trkpt><trkpt lat="43.31728217474384" lon="11.514861813425371"><ele>300.25</ele><time>2026-04-11T04:14:20Z</time></trkpt><trkpt lat="43.317386366670625" lon="11.514793497751048"><ele>300.5</ele><time>2026-04-11T04:14:22Z</time></trkpt><trkpt lat="43.3174752702642" lon="11.514693060829595"><ele>300.75</ele><time>2026-04-11T04:14:24Z</time></trkpt><trkpt lat="43.317546948159986" lon="11.514563955828432"><ele>301.0</ele><time>2026-04-11T04:14:26Z</time></trkpt><trkpt lat="43.3176059974166" lon="11.514416100021416"><ele>301.0</ele><time>2026-04-11T04:14:28Z</time></trkpt><trkpt lat="43.317653261310674" lon="11.514255270675498"><ele>301.0</ele><time>2026-04-11T04:14:30Z</time></trkpt><trkpt lat="43.31767205078748" lon="11.51416868533517"><ele>301.0</ele><time>2026-04-11T04:14:31Z</time></trkpt><trkpt lat="43.31769135695532" lon="11.514079762934694"><ele>301.0</ele><time>2026-04-11T04:14:32Z</time></trkpt><trkpt lat="43.31770869104752" lon="11.513991740514273"><ele>301.0</ele><time>2026-04-11T04:14:33Z</time></trkpt><trkpt lat="43.317722723628286" lon="11.513902175179059"><ele>301.0</ele><time>2026-04-11T04:14:34Z</time></trkpt><trkpt lat="43.31774012992612" lon="11.513813424692094"><ele>300.57142857142856</ele><time>2026-04-11T04:14:35Z</time></trkpt><trkpt lat="43.317769919604466" lon="11.513731143553485"><ele>300.1428571428571</ele><time>2026-04-11T04:14:36Z</time></trkpt><trkpt lat="43.31780677634817" lon="11.513650020181489"><ele>299.7142857142857</ele><time>2026-04-11T04:14:37Z</time></trkpt><trkpt lat="43.31785548656755" lon="11.513574116342891"><ele>299.2857142857143</ele><time>2026-04-11T04:14:38Z</time></trkpt><trkpt lat="43.31791221900887" lon="11.513514686987676"><ele>298.85714285714283</ele><time>2026-04-11T04:14:39Z</time></trkpt><trkpt lat="43.31797768909289" lon="11.513471156208647"><ele>298.42857142857144</ele><time>2026-04-11T04:14:40Z</time></trkpt><trkpt lat="43.318047124864194" lon="11.513439340576955"><ele>298.0</ele><time>2026-04-11T04:14:41Z</time></trkpt><trkpt lat="43.31811798466975" lon="11.513409664711507"><ele>298.0</ele><time>2026-04-11T04:14:42Z</time></trkpt><trkpt lat="43.31819224699619" lon="11.513388966364266"><ele>298.0</ele><time>2026-04-11T04:14:43Z</time></trkpt><trkpt lat="43.31826877246867" lon="11.513379629355912"><ele>298.0</ele><time>2026-04-11T04:14:44Z</time></trkpt><trkpt lat="43.31834353695851" lon="11.513381097138774"><ele>298.0</ele><time>2026-04-11T04:14:45Z</time></trkpt><trkpt lat="43.31841854019122" lon="11.51339848662538"><ele>298.0</ele><time>2026-04-11T04:14:46Z</time></trkpt><trkpt lat="43.31848744197567" lon="11.513423436549484"><ele>298.0</ele><time>2026-04-11T04:14:47Z</time></trkpt><trkpt lat="43.31855507277222" lon="11.513466984697681"><ele>298.0</ele><time>2026-04-11T04:14:48Z</time></trkpt><trkpt lat="43.31861444903697" lon="11.513516482866198"><ele>298.0</ele><time>2026-04-11T04:14:49Z</time></trkpt><trkpt lat="43.318668633176806" lon="11.513578229652081"><ele>298.0</ele><time>2026-04-11T04:14:50Z</time></trkpt><trkpt lat="43.31870622056266" lon="11.51365831433265"><ele>298.0</ele><time>2026-04-11T04:14:51Z</time></trkpt><trkpt lat="43.31873351524448" lon="11.513748420370929"><ele>298.0</ele><time>2026-04-11T04:14:52Z</time></trkpt><trkpt lat="43.31874758181779" lon="11.513843485377016"><ele>298.0</ele><time>2026-04-11T04:14:53Z</time></trkpt><trkpt lat="43.31875383296166" lon="11.513938653594112"><ele>298.0</ele><time>2026-04-11T04:14:54Z</time></trkpt><trkpt lat="43.31874650771813" lon="11.514034974970626"><ele>298.0</ele><time>2026-04-11T04:14:55Z</time></trkpt><trkpt lat="43.31873019281231" lon="11.514134140269428"><ele>298.0</ele><time>2026-04-11T04:14:56Z</time></trkpt><trkpt lat="43.31870657204267" lon="11.514231541598592"><ele>298.0</ele><time>2026-04-11T04:14:57Z</time></trkpt><trkpt lat="43.318666052302596" lon="11.51431852912957"><ele>298.0</ele><time>2026-04-11T04:14:58Z</time></trkpt><trkpt lat="43.31861470469541" lon="11.514402514925324"><ele>298.0</ele><time>2026-04-11T04:14:59Z</time></trkpt><trkpt lat="43.31855744559093" lon="11.5144759273166"><ele>298.0</ele><time>2026-04-11T04:15:00Z</time></trkpt><trkpt lat="43.31849483829282" lon="11.514538883213786"><ele>298.0</ele><time>2026-04-11T04:15:00.999Z</time></trkpt><trkpt lat="43.31842902595412" lon="11.514597614237866"><ele>298.0</ele><time>2026-04-11T04:15:01.999Z</time></trkpt><trkpt lat="43.31837088241571" lon="11.51466499312956"><ele>298.0</ele><time>2026-04-11T04:15:02.999Z</time></trkpt><trkpt lat="43.318333277407916" lon="11.51474845613539"><ele>298.0</ele><time>2026-04-11T04:15:03.999Z</time></trkpt><trkpt lat="43.31832743559178" lon="11.514838337211993"><ele>298.0</ele><time>2026-04-11T04:15:04.999Z</time></trkpt><trkpt lat="43.31837163018789" lon="11.515004183584908"><ele>298.0</ele><time>2026-04-11T04:15:06.999Z</time></trkpt><trkpt lat="43.31843105323147" lon="11.515048367243049"><ele>298.0</ele><time>2026-04-11T04:15:07.999Z</time></trkpt><trkpt lat="43.31851612295885" lon="11.515015721279473"><ele>298.0</ele><time>2026-04-11T04:15:08.999Z</time></trkpt><trkpt lat="43.318572520292534" lon="11.514953502253897"><ele>298.0</ele><time>2026-04-11T04:15:09.999Z</time></trkpt><trkpt lat="43.31859959588361" lon="11.514837685866668"><ele>298.0</ele><time>2026-04-11T04:15:10.999Z</time></trkpt><trkpt lat="43.31868258751929" lon="11.51471017067853"><ele>298.0</ele><time>2026-04-11T04:15:12.999Z</time></trkpt><trkpt lat="43.31872916634361" lon="11.5146445768608"><ele>298.0</ele><time>2026-04-11T04:15:13.999Z</time></trkpt><trkpt lat="43.31881681135925" lon="11.514524115911676"><ele>298.2857142857143</ele><time>2026-04-11T04:15:15.999Z</time></trkpt><trkpt lat="43.318859030784644" lon="11.514454944136212"><ele>298.57142857142856</ele><time>2026-04-11T04:15:16.999Z</time></trkpt><trkpt lat="43.31890145171455" lon="11.514382000831842"><ele>298.85714285714283</ele><time>2026-04-11T04:15:17.999Z</time></trkpt><trkpt lat="43.31893751998366" lon="11.514307494535148"><ele>299.1428571428571</ele><time>2026-04-11T04:15:18.999Z</time></trkpt><trkpt lat="43.318966054568286" lon="11.514221777981316"><ele>299.42857142857144</ele><time>2026-04-11T04:15:19.999Z</time></trkpt><trkpt lat="43.31898784915777" lon="11.514138802559145"><ele>299.71428571428567</ele><time>2026-04-11T04:15:20.999Z</time></trkpt><trkpt lat="43.31899909705723" lon="11.514046814336531"><ele>300.0</ele><time>2026-04-11T04:15:21.999Z</time></trkpt><trkpt lat="43.318999831087375" lon="11.513953686326843"><ele>298.8333333333333</ele><time>2026-04-11T04:15:22.999Z</time></trkpt><trkpt lat="43.31899835051444" lon="11.513864057754068"><ele>297.6666666666667</ele><time>2026-04-11T04:15:23.999Z</time></trkpt><trkpt lat="43.318995046098166" lon="11.51376659005759"><ele>296.5</ele><time>2026-04-11T04:15:24.999Z</time></trkpt><trkpt lat="43.31899331948603" lon="11.513666599329774"><ele>295.33333333333337</ele><time>2026-04-11T04:15:25.999Z</time></trkpt><trkpt lat="43.31899336297574" lon="11.513558734711866"><ele>294.1666666666667</ele><time>2026-04-11T04:15:26.999Z</time></trkpt><trkpt lat="43.318995248726736" lon="11.513447541025831"><ele>293.0</ele><time>2026-04-11T04:15:27.999Z</time></trkpt><trkpt lat="43.31901419168988" lon="11.51333131409328"><ele>292.4</ele><time>2026-04-11T04:15:28.999Z</time></trkpt><trkpt lat="43.31905230805413" lon="11.513221256201957"><ele>291.8</ele><time>2026-04-11T04:15:29.999Z</time></trkpt><trkpt lat="43.31910382467549" lon="11.513106043433078"><ele>291.2</ele><time>2026-04-11T04:15:30.999Z</time></trkpt><trkpt lat="43.31915836338222" lon="11.513005659866758"><ele>290.6</ele><time>2026-04-11T04:15:31.999Z</time></trkpt><trkpt lat="43.31921464120361" lon="11.512880392106215"><ele>290.0</ele><time>2026-04-11T04:15:32.999Z</time></trkpt><trkpt lat="43.31925034230195" lon="11.512733680872872"><ele>287.75</ele><time>2026-04-11T04:15:33.999Z</time></trkpt><trkpt lat="43.31926397586261" lon="11.51256342757347"><ele>285.5</ele><time>2026-04-11T04:15:34.999Z</time></trkpt><trkpt lat="43.319260391230735" lon="11.512385819102976"><ele>283.25</ele><time>2026-04-11T04:15:35.999Z</time></trkpt><trkpt lat="43.31925760600704" lon="11.512201487633913"><ele>281.0</ele><time>2026-04-11T04:15:36.999Z</time></trkpt><trkpt lat="43.31924730179166" lon="11.512018501798167"><ele>279.0</ele><time>2026-04-11T04:15:37.999Z</time></trkpt><trkpt lat="43.31922516771552" lon="11.5118345645929"><ele>277.0</ele><time>2026-04-11T04:15:38.999Z</time></trkpt><trkpt lat="43.31919711860332" lon="11.511666097969197"><ele>275.0</ele><time>2026-04-11T04:15:39.999Z</time></trkpt><trkpt lat="43.31917036487424" lon="11.51151004681663"><ele>273.0</ele><time>2026-04-11T04:15:40.999Z</time></trkpt><trkpt lat="43.31914189976402" lon="11.511356666398756"><ele>270.75</ele><time>2026-04-11T04:15:41.999Z</time></trkpt><trkpt lat="43.31911950791707" lon="11.511201552524764"><ele>268.5</ele><time>2026-04-11T04:15:42.999Z</time></trkpt><trkpt lat="43.31911254317274" lon="11.51104304856618"><ele>266.25</ele><time>2026-04-11T04:15:43.999Z</time></trkpt><trkpt lat="43.31912515278249" lon="11.510885936706208"><ele>264.0</ele><time>2026-04-11T04:15:44.999Z</time></trkpt><trkpt lat="43.31914853735081" lon="11.510736068724736"><ele>264.0</ele><time>2026-04-11T04:15:45.999Z</time></trkpt><trkpt lat="43.31918889275679" lon="11.510597049469089"><ele>264.0</ele><time>2026-04-11T04:15:46.999Z</time></trkpt><trkpt lat="43.31924873978149" lon="11.510457390284206"><ele>264.0</ele><time>2026-04-11T04:15:47.999Z</time></trkpt><trkpt lat="43.31932840774077" lon="11.510325180020752"><ele>264.0</ele><time>2026-04-11T04:15:48.999Z</time></trkpt><trkpt lat="43.31941032112991" lon="11.510192006767975"><ele>261.5</ele><time>2026-04-11T04:15:49.999Z</time></trkpt><trkpt lat="43.319495578890276" lon="11.510064719698011"><ele>259.0</ele><time>2026-04-11T04:15:50.999Z</time></trkpt><trkpt lat="43.319571418689875" lon="11.509931946370756"><ele>256.5</ele><time>2026-04-11T04:15:51.999Z</time></trkpt><trkpt lat="43.31964407180084" lon="11.509802908434906"><ele>254.0</ele><time>2026-04-11T04:15:52.999Z</time></trkpt><trkpt lat="43.319710113217226" lon="11.509665140086604"><ele>252.25</ele><time>2026-04-11T04:15:53.999Z</time></trkpt><trkpt lat="43.31976168683823" lon="11.509518559960892"><ele>250.5</ele><time>2026-04-11T04:15:54.999Z</time></trkpt><trkpt lat="43.319799172224506" lon="11.509361745046407"><ele>248.75</ele><time>2026-04-11T04:15:55.999Z</time></trkpt><trkpt lat="43.31983671904254" lon="11.509201321499551"><ele>247.0</ele><time>2026-04-11T04:15:56.999Z</time></trkpt><trkpt lat="43.31985865991439" lon="11.509032770863298"><ele>247.0</ele><time>2026-04-11T04:15:57.999Z</time></trkpt><trkpt lat="43.31987592688837" lon="11.508867950891691"><ele>247.0</ele><time>2026-04-11T04:15:58.999Z</time></trkpt><trkpt lat="43.31988260595842" lon="11.508705722263562"><ele>247.0</ele><time>2026-04-11T04:16:00Z</time></trkpt><trkpt lat="43.31987689221594" lon="11.508548956049735"><ele>247.0</ele><time>2026-04-11T04:16:01Z</time></trkpt><trkpt lat="43.31986377874585" lon="11.50839084969078"><ele>247.0</ele><time>2026-04-11T04:16:02Z</time></trkpt><trkpt lat="43.31984870952148" lon="11.508233629134631"><ele>247.0</ele><time>2026-04-11T04:16:03Z</time></trkpt><trkpt lat="43.31983547305131" lon="11.508081703561217"><ele>247.0</ele><time>2026-04-11T04:16:04Z</time></trkpt><trkpt lat="43.31981779325009" lon="11.507934662786884"><ele>247.0</ele><time>2026-04-11T04:16:05Z</time></trkpt><trkpt lat="43.31980700972444" lon="11.507790036589553"><ele>247.0</ele><time>2026-04-11T04:16:06Z</time></trkpt><trkpt lat="43.31979270837855" lon="11.507652549893063"><ele>246.8</ele><time>2026-04-11T04:16:07Z</time></trkpt><trkpt lat="43.31977757829494" lon="11.507520796390075"><ele>246.6</ele><time>2026-04-11T04:16:08Z</time></trkpt><trkpt lat="43.3197680563069" lon="11.507385185136027"><ele>246.40000000000003</ele><time>2026-04-11T04:16:09Z</time></trkpt><trkpt lat="43.319754758348374" lon="11.507257471901482"><ele>246.20000000000002</ele><time>2026-04-11T04:16:10Z</time></trkpt><trkpt lat="43.31974397330114" lon="11.50713072575599"><ele>246.0</ele><time>2026-04-11T04:16:11Z</time></trkpt><trkpt lat="43.31973522390065" lon="11.507015239705396"><ele>248.16666666666666</ele><time>2026-04-11T04:16:12Z</time></trkpt><trkpt lat="43.31972336859544" lon="11.506901165775105"><ele>250.33333333333331</ele><time>2026-04-11T04:16:13Z</time></trkpt><trkpt lat="43.31971141650555" lon="11.506791794132639"><ele>252.5</ele><time>2026-04-11T04:16:14Z</time></trkpt><trkpt lat="43.31970191248223" lon="11.5066868542202"><ele>254.66666666666666</ele><time>2026-04-11T04:16:15Z</time></trkpt><trkpt lat="43.31968994191686" lon="11.506588861594757"><ele>256.8333333333333</ele><time>2026-04-11T04:16:16Z</time></trkpt><trkpt lat="43.31968233324387" lon="11.506495128551371"><ele>259.0</ele><time>2026-04-11T04:16:17Z</time></trkpt><trkpt lat="43.31968025716974" lon="11.506402192007616"><ele>258.8</ele><time>2026-04-11T04:16:18Z</time></trkpt><trkpt lat="43.31970921456297" lon="11.506243959223648"><ele>258.59999999999997</ele><time>2026-04-11T04:16:20Z</time></trkpt><trkpt lat="43.31976909552918" lon="11.50612431299548"><ele>258.4</ele><time>2026-04-11T04:16:22Z</time></trkpt><trkpt lat="43.31985430324081" lon="11.506079799350633"><ele>258.2</ele><time>2026-04-11T04:16:24Z</time></trkpt><trkpt lat="43.31992903559357" lon="11.50604892602245"><ele>258.0</ele><time>2026-04-11T04:16:26Z</time></trkpt><trkpt lat="43.31999542041335" lon="11.50602531986118"><ele>255.66666666666666</ele><time>2026-04-11T04:16:28Z</time></trkpt><trkpt lat="43.32007290716408" lon="11.50597414220834"><ele>253.33333333333331</ele><time>2026-04-11T04:16:30Z</time></trkpt><trkpt lat="43.32015630452829" lon="11.505942053249322"><ele>251.0</ele><time>2026-04-11T04:16:32Z</time></trkpt><trkpt lat="43.320235930509085" lon="11.505909397835685"><ele>248.66666666666666</ele><time>2026-04-11T04:16:34Z</time></trkpt><trkpt lat="43.32032472185105" lon="11.505900244742138"><ele>246.33333333333331</ele><time>2026-04-11T04:16:36Z</time></trkpt><trkpt lat="43.3204152776905" lon="11.50586564137831"><ele>244.0</ele><time>2026-04-11T04:16:38Z</time></trkpt><trkpt lat="43.32050289388782" lon="11.505832161319944"><ele>244.6</ele><time>2026-04-11T04:16:40Z</time></trkpt><trkpt lat="43.32059796898388" lon="11.505795831053495"><ele>245.2</ele><time>2026-04-11T04:16:42Z</time></trkpt><trkpt lat="43.320697968259225" lon="11.505758052349476"><ele>245.79999999999998</ele><time>2026-04-11T04:16:44Z</time></trkpt><trkpt lat="43.320798162603474" lon="11.505707752283701"><ele>246.39999999999998</ele><time>2026-04-11T04:16:46Z</time></trkpt><trkpt lat="43.32089601283761" lon="11.50567824366582"><ele>247.0</ele><time>2026-04-11T04:16:48Z</time></trkpt><trkpt lat="43.32099412796591" lon="11.505666974051776"><ele>246.99999999999997</ele><time>2026-04-11T04:16:50Z</time></trkpt><trkpt lat="43.321085469826905" lon="11.505669229530763"><ele>247.0</ele><time>2026-04-11T04:16:52Z</time></trkpt><trkpt lat="43.321173891697384" lon="11.505690914059688"><ele>247.0</ele><time>2026-04-11T04:16:54Z</time></trkpt><trkpt lat="43.321250684878876" lon="11.505725413490806"><ele>247.0</ele><time>2026-04-11T04:16:56Z</time></trkpt><trkpt lat="43.321313767038866" lon="11.505767580470156"><ele>246.99999999999997</ele><time>2026-04-11T04:16:57.999Z</time></trkpt><trkpt lat="43.3213696875278" lon="11.505808411253229"><ele>247.0</ele><time>2026-04-11T04:16:59.999Z</time></trkpt><trkpt lat="43.32144270234158" lon="11.505868129233791"><ele>248.14285714285717</ele><time>2026-04-11T04:17:02.999Z</time></trkpt><trkpt lat="43.32150121015335" lon="11.505939152678936"><ele>249.28571428571428</ele><time>2026-04-11T04:17:05.999Z</time></trkpt><trkpt lat="43.32155062232524" lon="11.506014554895046"><ele>250.42857142857144</ele><time>2026-04-11T04:17:08.999Z</time></trkpt><trkpt lat="43.32159738709943" lon="11.50608823228341"><ele>251.57142857142858</ele><time>2026-04-11T04:17:11.999Z</time></trkpt><trkpt lat="43.321640062150145" lon="11.506157261394295"><ele>252.71428571428572</ele><time>2026-04-11T04:17:14.999Z</time></trkpt><trkpt lat="43.321687402284475" lon="11.506229146971249"><ele>253.85714285714286</ele><time>2026-04-11T04:17:17.999Z</time></trkpt><trkpt lat="43.32173304068564" lon="11.506292071064827"><ele>255.0</ele><time>2026-04-11T04:17:20.999Z</time></trkpt><trkpt lat="43.32178003455688" lon="11.506356734208522"><ele>255.0</ele><time>2026-04-11T04:17:23.999Z</time></trkpt><trkpt lat="43.321826290994586" lon="11.506416361432784"><ele>255.0</ele><time>2026-04-11T04:17:26.999Z</time></trkpt><trkpt lat="43.32188244705631" lon="11.506495787915872"><ele>255.0</ele><time>2026-04-11T04:17:30.999Z</time></trkpt><trkpt lat="43.32194455636321" lon="11.506567220912249"><ele>255.0</ele><time>2026-04-11T04:17:34.999Z</time></trkpt><trkpt lat="43.32199395151342" lon="11.506649121298508"><ele>255.0</ele><time>2026-04-11T04:17:38.999Z</time></trkpt><trkpt lat="43.3220464444559" lon="11.506727604091568"><ele>255.0</ele><time>2026-04-11T04:17:42.999Z</time></trkpt><trkpt lat="43.32209978623154" lon="11.506810678872618"><ele>255.0</ele><time>2026-04-11T04:17:46.999Z</time></trkpt><trkpt lat="43.322154067706485" lon="11.506894438586615"><ele>255.0</ele><time>2026-04-11T04:17:50.999Z</time></trkpt><trkpt lat="43.322208053267936" lon="11.506971770810061"><ele>255.0</ele><time>2026-04-11T04:17:54.999Z</time></trkpt><trkpt lat="43.322265596159724" lon="11.507044958865487"><ele>255.0</ele><time>2026-04-11T04:17:58.999Z</time></trkpt><trkpt lat="43.32232063410944" lon="11.507117433659655"><ele>255.0</ele><time>2026-04-11T04:18:02.999Z</time></trkpt><trkpt lat="43.32237180473571" lon="11.507191662626742"><ele>255.0</ele><time>2026-04-11T04:18:07Z</time></trkpt><trkpt lat="43.32242285810146" lon="11.507275177222134"><ele>257.0</ele><time>2026-04-11T04:18:11Z</time></trkpt><trkpt lat="43.322473841877425" lon="11.507359695289876"><ele>259.0</ele><time>2026-04-11T04:18:15Z</time></trkpt><trkpt lat="43.32253406832205" lon="11.507434271854178"><ele>261.0</ele><time>2026-04-11T04:18:19Z</time></trkpt><trkpt lat="43.32258609712076" lon="11.507511824984343"><ele>263.0</ele><time>2026-04-11T04:18:23Z</time></trkpt><trkpt lat="43.32265367202881" lon="11.507570963867998"><ele>265.0</ele><time>2026-04-11T04:18:27Z</time></trkpt><trkpt lat="43.322712255291506" lon="11.50760974630228"><ele>267.0</ele><time>2026-04-11T04:18:30Z</time></trkpt><trkpt lat="43.32277124802621" lon="11.507644980776544"><ele>269.0</ele><time>2026-04-11T04:18:33Z</time></trkpt><trkpt lat="43.32284640673519" lon="11.507662781840054"><ele>269.0</ele><time>2026-04-11T04:18:36Z</time></trkpt><trkpt lat="43.32292397532679" lon="11.50766775243564"><ele>269.0</ele><time>2026-04-11T04:18:39Z</time></trkpt><trkpt lat="43.32300214663593" lon="11.507666794940137"><ele>269.0</ele><time>2026-04-11T04:18:42Z</time></trkpt><trkpt lat="43.32306962473183" lon="11.507673451810737"><ele>269.0</ele><time>2026-04-11T04:18:45Z</time></trkpt><trkpt lat="43.32313984043652" lon="11.50767086194306"><ele>269.0</ele><time>2026-04-11T04:18:48Z</time></trkpt><trkpt lat="43.32320925234635" lon="11.507665956738851"><ele>269.0</ele><time>2026-04-11T04:18:51Z</time></trkpt><trkpt lat="43.32328368665311" lon="11.507665060527263"><ele>269.0</ele><time>2026-04-11T04:18:54Z</time></trkpt><trkpt lat="43.3233550345913" lon="11.507669167253175"><ele>269.8571428571429</ele><time>2026-04-11T04:18:57Z</time></trkpt><trkpt lat="43.32342415862971" lon="11.507665556930448"><ele>270.7142857142857</ele><time>2026-04-11T04:19:00Z</time></trkpt><trkpt lat="43.32349163344371" lon="11.507668552458613"><ele>271.57142857142856</ele><time>2026-04-11T04:19:03Z</time></trkpt><trkpt lat="43.32356219836961" lon="11.507675905000669"><ele>272.42857142857144</ele><time>2026-04-11T04:19:06Z</time></trkpt><trkpt lat="43.323632249115754" lon="11.507689025440673"><ele>273.2857142857143</ele><time>2026-04-11T04:19:09Z</time></trkpt><trkpt lat="43.32370186999934" lon="11.507703382742882"><ele>274.14285714285717</ele><time>2026-04-11T04:19:12Z</time></trkpt><trkpt lat="43.323767433898375" lon="11.50773246358102"><ele>275.0</ele><time>2026-04-11T04:19:15Z</time></trkpt><trkpt lat="43.32382980221501" lon="11.507771448714307"><ele>275.0</ele><time>2026-04-11T04:19:18Z</time></trkpt><trkpt lat="43.323885445001636" lon="11.507817485087228"><ele>275.0</ele><time>2026-04-11T04:19:20.999Z</time></trkpt><trkpt lat="43.32394111424943" lon="11.507864372618702"><ele>275.0</ele><time>2026-04-11T04:19:23.999Z</time></trkpt><trkpt lat="43.32399226217077" lon="11.50792563646326"><ele>275.0</ele><time>2026-04-11T04:19:26.999Z</time></trkpt><trkpt lat="43.32403723386743" lon="11.507994299987196"><ele>275.0</ele><time>2026-04-11T04:19:29.999Z</time></trkpt><trkpt lat="43.32407759401508" lon="11.508071852641288"><ele>275.0</ele><time>2026-04-11T04:19:32.999Z</time></trkpt><trkpt lat="43.324109831388014" lon="11.508154719521444"><ele>275.0</ele><time>2026-04-11T04:19:35.999Z</time></trkpt><trkpt lat="43.32414620242762" lon="11.508234195286805"><ele>276.5</ele><time>2026-04-11T04:19:38.999Z</time></trkpt><trkpt lat="43.324186711482284" lon="11.508319421464988"><ele>278.0</ele><time>2026-04-11T04:19:41.999Z</time></trkpt><trkpt lat="43.32422573807031" lon="11.508406837091806"><ele>279.5</ele><time>2026-04-11T04:19:44.999Z</time></trkpt><trkpt lat="43.324257098115694" lon="11.50850376566217"><ele>281.0</ele><time>2026-04-11T04:19:47.999Z</time></trkpt><trkpt lat="43.32429068180382" lon="11.508592289469513"><ele>282.5</ele><time>2026-04-11T04:19:50.999Z</time></trkpt><trkpt lat="43.3243264780407" lon="11.50869176987088"><ele>284.0</ele><time>2026-04-11T04:19:53.999Z</time></trkpt><trkpt lat="43.32436079388456" lon="11.508795237489469"><ele>285.33333333333337</ele><time>2026-04-11T04:19:56.999Z</time></trkpt><trkpt lat="43.32440091807457" lon="11.508887717593023"><ele>286.6666666666667</ele><time>2026-04-11T04:19:59.999Z</time></trkpt><trkpt lat="43.324445943983584" lon="11.508994257171924"><ele>288.0</ele><time>2026-04-11T04:20:02.999Z</time></trkpt><trkpt lat="43.32449174956246" lon="11.50909222134373"><ele>289.3333333333333</ele><time>2026-04-11T04:20:05.999Z</time></trkpt><trkpt lat="43.324529792131194" lon="11.509187157316894"><ele>290.66666666666663</ele><time>2026-04-11T04:20:08.999Z</time></trkpt><trkpt lat="43.324577304200524" lon="11.509270623205792"><ele>292.0</ele><time>2026-04-11T04:20:12Z</time></trkpt><trkpt lat="43.324624823734155" lon="11.509351465602563"><ele>292.0</ele><time>2026-04-11T04:20:15Z</time></trkpt><trkpt lat="43.32468877596179" lon="11.509418446478104"><ele>292.0</ele><time>2026-04-11T04:20:18Z</time></trkpt><trkpt lat="43.32476131053638" lon="11.509475217066031"><ele>292.0</ele><time>2026-04-11T04:20:21Z</time></trkpt><trkpt lat="43.32483909685571" lon="11.509515722752955"><ele>292.0</ele><time>2026-04-11T04:20:24Z</time></trkpt><trkpt lat="43.324923768743645" lon="11.509540571799935"><ele>292.0</ele><time>2026-04-11T04:20:27Z</time></trkpt><trkpt lat="43.32501515652656" lon="11.50954179925766"><ele>292.0</ele><time>2026-04-11T04:20:30Z</time></trkpt><trkpt lat="43.325100405012215" lon="11.509536236088286"><ele>291.66666666666663</ele><time>2026-04-11T04:20:33Z</time></trkpt><trkpt lat="43.32518839961559" lon="11.509509043492127"><ele>291.3333333333333</ele><time>2026-04-11T04:20:36Z</time></trkpt><trkpt lat="43.3252722717324" lon="11.509483211164584"><ele>291.0</ele><time>2026-04-11T04:20:39Z</time></trkpt><trkpt lat="43.32536381784184" lon="11.509438976233472"><ele>290.6666666666667</ele><time>2026-04-11T04:20:42Z</time></trkpt><trkpt lat="43.32543237066999" lon="11.509406062296103"><ele>290.33333333333337</ele><time>2026-04-11T04:20:44Z</time></trkpt><trkpt lat="43.3255009327171" lon="11.509383073443791"><ele>290.0</ele><time>2026-04-11T04:20:46Z</time></trkpt><trkpt lat="43.325566825230396" lon="11.509356348838882"><ele>290.0</ele><time>2026-04-11T04:20:48Z</time></trkpt><trkpt lat="43.325636862039964" lon="11.509326046041432"><ele>290.0</ele><time>2026-04-11T04:20:50Z</time></trkpt><trkpt lat="43.32570572477346" lon="11.509299790556264"><ele>290.0</ele><time>2026-04-11T04:20:52Z</time></trkpt><trkpt lat="43.325776282115555" lon="11.509267362032613"><ele>290.0</ele><time>2026-04-11T04:20:54Z</time></trkpt><trkpt lat="43.32584480451653" lon="11.509235046821745"><ele>290.0</ele><time>2026-04-11T04:20:56Z</time></trkpt><trkpt lat="43.32591546719046" lon="11.509199467411863"><ele>290.0</ele><time>2026-04-11T04:20:58Z</time></trkpt><trkpt lat="43.32599135042205" lon="11.509171965109276"><ele>290.0</ele><time>2026-04-11T04:21:00Z</time></trkpt><trkpt lat="43.32606512685432" lon="11.509133032149132"><ele>290.0</ele><time>2026-04-11T04:21:02Z</time></trkpt><trkpt lat="43.326142513823235" lon="11.509096465823534"><ele>290.0</ele><time>2026-04-11T04:21:04Z</time></trkpt><trkpt lat="43.326219243758445" lon="11.50906235599527"><ele>290.0</ele><time>2026-04-11T04:21:06Z</time></trkpt><trkpt lat="43.32629714084038" lon="11.509022411505933"><ele>290.0</ele><time>2026-04-11T04:21:08Z</time></trkpt><trkpt lat="43.3263733047723" lon="11.508983072111889"><ele>290.0</ele><time>2026-04-11T04:21:10Z</time></trkpt><trkpt lat="43.32645248118139" lon="11.508938821801928"><ele>290.0</ele><time>2026-04-11T04:21:12Z</time></trkpt><trkpt lat="43.32652902422479" lon="11.508899753430605"><ele>290.5</ele><time>2026-04-11T04:21:14Z</time></trkpt><trkpt lat="43.326606366872504" lon="11.508859806491651"><ele>291.0</ele><time>2026-04-11T04:21:16Z</time></trkpt><trkpt lat="43.32668094528268" lon="11.508815411231764"><ele>291.5</ele><time>2026-04-11T04:21:18Z</time></trkpt><trkpt lat="43.32675504286586" lon="11.50877508069699"><ele>292.0</ele><time>2026-04-11T04:21:20Z</time></trkpt><trkpt lat="43.32682967530432" lon="11.508729288105796"><ele>292.5</ele><time>2026-04-11T04:21:22Z</time></trkpt><trkpt lat="43.32690205126709" lon="11.508692975941353"><ele>293.0</ele><time>2026-04-11T04:21:24Z</time></trkpt><trkpt lat="43.326973940897524" lon="11.508647923932955"><ele>293.33333333333337</ele><time>2026-04-11T04:21:26Z</time></trkpt><trkpt lat="43.32704561963555" lon="11.508604031900752"><ele>293.6666666666667</ele><time>2026-04-11T04:21:27.999Z</time></trkpt><trkpt lat="43.32711580481677" lon="11.508559378662722"><ele>294.0</ele><time>2026-04-11T04:21:29.999Z</time></trkpt><trkpt lat="43.32718334039478" lon="11.508509738928886"><ele>294.3333333333333</ele><time>2026-04-11T04:21:31.999Z</time></trkpt><trkpt lat="43.32725216640736" lon="11.50846661098769"><ele>294.66666666666663</ele><time>2026-04-11T04:21:33.999Z</time></trkpt><trkpt lat="43.32731949660478" lon="11.508424378131766"><ele>295.0</ele><time>2026-04-11T04:21:35.999Z</time></trkpt><trkpt lat="43.327387769186345" lon="11.508380723589887"><ele>295.5714285714286</ele><time>2026-04-11T04:21:37.999Z</time></trkpt><trkpt lat="43.32745385939519" lon="11.508334568786474"><ele>296.14285714285717</ele><time>2026-04-11T04:21:39.999Z</time></trkpt><trkpt lat="43.32751982176094" lon="11.508292610709512"><ele>296.7142857142857</ele><time>2026-04-11T04:21:41.999Z</time></trkpt><trkpt lat="43.32758034511278" lon="11.508247758625602"><ele>297.28571428571433</ele><time>2026-04-11T04:21:43.999Z</time></trkpt><trkpt lat="43.32764694329772" lon="11.50820505853292"><ele>297.8571428571429</ele><time>2026-04-11T04:21:45.999Z</time></trkpt><trkpt lat="43.327710807326106" lon="11.508170804436423"><ele>298.42857142857144</ele><time>2026-04-11T04:21:47.999Z</time></trkpt><trkpt lat="43.32777038908831" lon="11.508132634646287"><ele>299.0</ele><time>2026-04-11T04:21:49.999Z</time></trkpt><trkpt lat="43.327833619411045" lon="11.508088187933684"><ele>299.0</ele><time>2026-04-11T04:21:51.999Z</time></trkpt><trkpt lat="43.327897212133834" lon="11.508054300982192"><ele>299.0</ele><time>2026-04-11T04:21:53.999Z</time></trkpt><trkpt lat="43.327962867582166" lon="11.508001204941271"><ele>299.0</ele><time>2026-04-11T04:21:55.999Z</time></trkpt><trkpt lat="43.328029424695515" lon="11.50796041111669"><ele>299.0</ele><time>2026-04-11T04:21:57.999Z</time></trkpt><trkpt lat="43.32809448336376" lon="11.507911002255709"><ele>299.0</ele><time>2026-04-11T04:21:59.999Z</time></trkpt><trkpt lat="43.328162085867916" lon="11.507872609022032"><ele>299.0</ele><time>2026-04-11T04:22:01.999Z</time></trkpt><trkpt lat="43.32822217639253" lon="11.507832096914113"><ele>299.0</ele><time>2026-04-11T04:22:03.999Z</time></trkpt><trkpt lat="43.32828833858596" lon="11.50778644837835"><ele>299.57142857142856</ele><time>2026-04-11T04:22:05.999Z</time></trkpt><trkpt lat="43.32835298962395" lon="11.507747648733659"><ele>300.14285714285717</ele><time>2026-04-11T04:22:07.999Z</time></trkpt><trkpt lat="43.32841970171734" lon="11.507707728863492"><ele>300.7142857142857</ele><time>2026-04-11T04:22:09.999Z</time></trkpt><trkpt lat="43.32848679609028" lon="11.507667770599554"><ele>301.2857142857143</ele><time>2026-04-11T04:22:11.999Z</time></trkpt><trkpt lat="43.32855398350626" lon="11.507623974966203"><ele>301.85714285714283</ele><time>2026-04-11T04:22:13.999Z</time></trkpt><trkpt lat="43.3286190629654" lon="11.507593303013179"><ele>302.42857142857144</ele><time>2026-04-11T04:22:15.999Z</time></trkpt><trkpt lat="43.328682028144854" lon="11.507549099712662"><ele>303.0</ele><time>2026-04-11T04:22:18Z</time></trkpt><trkpt lat="43.32874178451815" lon="11.50751003827169"><ele>303.0</ele><time>2026-04-11T04:22:20Z</time></trkpt><trkpt lat="43.32880428349383" lon="11.507469179207071"><ele>303.0</ele><time>2026-04-11T04:22:22Z</time></trkpt><trkpt lat="43.32886886393899" lon="11.507424602795465"><ele>303.0</ele><time>2026-04-11T04:22:24Z</time></trkpt><trkpt lat="43.32893406581985" lon="11.507385643493496"><ele>303.0</ele><time>2026-04-11T04:22:26Z</time></trkpt><trkpt lat="43.32899521377867" lon="11.5073539559527"><ele>303.0</ele><time>2026-04-11T04:22:28Z</time></trkpt><trkpt lat="43.329058889359096" lon="11.507324663299494"><ele>303.0</ele><time>2026-04-11T04:22:30Z</time></trkpt><trkpt lat="43.329123893562155" lon="11.5072986519467"><ele>303.0</ele><time>2026-04-11T04:22:32Z</time></trkpt><trkpt lat="43.329190713585284" lon="11.507271759151134"><ele>303.57142857142856</ele><time>2026-04-11T04:22:34Z</time></trkpt><trkpt lat="43.32925864078641" lon="11.507242811895235"><ele>304.1428571428571</ele><time>2026-04-11T04:22:36Z</time></trkpt><trkpt lat="43.329322948285935" lon="11.507220581334689"><ele>304.71428571428567</ele><time>2026-04-11T04:22:38Z</time></trkpt><trkpt lat="43.32939192437428" lon="11.507201259095433"><ele>305.2857142857143</ele><time>2026-04-11T04:22:40Z</time></trkpt><trkpt lat="43.32945948844756" lon="11.507181655980188"><ele>305.85714285714283</ele><time>2026-04-11T04:22:42Z</time></trkpt><trkpt lat="43.32952966327543" lon="11.507169869505093"><ele>306.4285714285714</ele><time>2026-04-11T04:22:44Z</time></trkpt><trkpt lat="43.329604804386605" lon="11.507152822269992"><ele>307.0</ele><time>2026-04-11T04:22:46Z</time></trkpt><trkpt lat="43.329683107284694" lon="11.5071383294721"><ele>307.0</ele><time>2026-04-11T04:22:48Z</time></trkpt><trkpt lat="43.32976150461288" lon="11.507125166321895"><ele>307.0</ele><time>2026-04-11T04:22:50Z</time></trkpt><trkpt lat="43.32983759524441" lon="11.507104130209024"><ele>307.0</ele><time>2026-04-11T04:22:52Z</time></trkpt><trkpt lat="43.32991541163115" lon="11.507089946335652"><ele>307.0</ele><time>2026-04-11T04:22:54Z</time></trkpt><trkpt lat="43.329998098232664" lon="11.507073815770479"><ele>307.0</ele><time>2026-04-11T04:22:56Z</time></trkpt><trkpt lat="43.33007838349968" lon="11.507061853224412"><ele>307.0</ele><time>2026-04-11T04:22:58Z</time></trkpt><trkpt lat="43.33015989667356" lon="11.507048265685473"><ele>307.0</ele><time>2026-04-11T04:23:00Z</time></trkpt><trkpt lat="43.33023981307399" lon="11.50703068644334"><ele>307.0</ele><time>2026-04-11T04:23:02Z</time></trkpt><trkpt lat="43.33031788816639" lon="11.50701354226659"><ele>307.0</ele><time>2026-04-11T04:23:04Z</time></trkpt><trkpt lat="43.33039919733669" lon="11.507001168238347"><ele>307.0</ele><time>2026-04-11T04:23:06Z</time></trkpt><trkpt lat="43.33048069059794" lon="11.506986039000077"><ele>307.0</ele><time>2026-04-11T04:23:08Z</time></trkpt><trkpt lat="43.33056498248745" lon="11.506966747269063"><ele>307.0</ele><time>2026-04-11T04:23:10Z</time></trkpt><trkpt lat="43.33064792194707" lon="11.506947886607895"><ele>307.66666666666663</ele><time>2026-04-11T04:23:12Z</time></trkpt><trkpt lat="43.330731626096046" lon="11.506930028131919"><ele>308.3333333333333</ele><time>2026-04-11T04:23:14Z</time></trkpt><trkpt lat="43.33081558618587" lon="11.506916512923029"><ele>309.0</ele><time>2026-04-11T04:23:16Z</time></trkpt><trkpt lat="43.33089475402448" lon="11.50689366028524"><ele>309.6666666666667</ele><time>2026-04-11T04:23:18Z</time></trkpt><trkpt lat="43.33097622195307" lon="11.506873594374456"><ele>310.33333333333337</ele><time>2026-04-11T04:23:20Z</time></trkpt><trkpt lat="43.33105543543919" lon="11.50686009752033"><ele>311.0</ele><time>2026-04-11T04:23:21.999Z</time></trkpt><trkpt lat="43.331137379307435" lon="11.506844975442688"><ele>311.0</ele><time>2026-04-11T04:23:23.999Z</time></trkpt><trkpt lat="43.331218710978995" lon="11.506823198506309"><ele>311.0</ele><time>2026-04-11T04:23:25.999Z</time></trkpt><trkpt lat="43.33129840981615" lon="11.50679322877924"><ele>311.0</ele><time>2026-04-11T04:23:27.999Z</time></trkpt><trkpt lat="43.33137691860308" lon="11.506747665992407"><ele>311.0</ele><time>2026-04-11T04:23:29.999Z</time></trkpt><trkpt lat="43.33145443982659" lon="11.50670701319549"><ele>311.0</ele><time>2026-04-11T04:23:31.999Z</time></trkpt><trkpt lat="43.331530529604365" lon="11.506659562453619"><ele>311.0</ele><time>2026-04-11T04:23:33.999Z</time></trkpt><trkpt lat="43.33160353240882" lon="11.506612719057909"><ele>311.5</ele><time>2026-04-11T04:23:35.999Z</time></trkpt><trkpt lat="43.33167463665504" lon="11.506567128818121"><ele>312.0</ele><time>2026-04-11T04:23:37.999Z</time></trkpt><trkpt lat="43.33174751480796" lon="11.50651808294372"><ele>312.5</ele><time>2026-04-11T04:23:39.999Z</time></trkpt><trkpt lat="43.33182365702068" lon="11.506466838621488"><ele>313.0</ele><time>2026-04-11T04:23:41.999Z</time></trkpt><trkpt lat="43.33189823374832" lon="11.506413849192423"><ele>313.5</ele><time>2026-04-11T04:23:43.999Z</time></trkpt><trkpt lat="43.3319775471429" lon="11.506364803745134"><ele>314.0</ele><time>2026-04-11T04:23:45.999Z</time></trkpt><trkpt lat="43.33205572543052" lon="11.50631457245515"><ele>314.0</ele><time>2026-04-11T04:23:47.999Z</time></trkpt><trkpt lat="43.33213385270749" lon="11.506260083458265"><ele>314.0</ele><time>2026-04-11T04:23:49.999Z</time></trkpt><trkpt lat="43.33221293592995" lon="11.506204909036484"><ele>314.0</ele><time>2026-04-11T04:23:51.999Z</time></trkpt><trkpt lat="43.33229387541721" lon="11.506150908955588"><ele>314.0</ele><time>2026-04-11T04:23:53.999Z</time></trkpt><trkpt lat="43.33237517110865" lon="11.506100462343708"><ele>314.0</ele><time>2026-04-11T04:23:55.999Z</time></trkpt><trkpt lat="43.33245463391827" lon="11.506046174475443"><ele>314.0</ele><time>2026-04-11T04:23:57.999Z</time></trkpt><trkpt lat="43.332538253136356" lon="11.505998785213645"><ele>314.4</ele><time>2026-04-11T04:23:59.999Z</time></trkpt><trkpt lat="43.332624646119974" lon="11.50595396305241"><ele>314.79999999999995</ele><time>2026-04-11T04:24:01.999Z</time></trkpt><trkpt lat="43.33271346575762" lon="11.50592010159848"><ele>315.20000000000005</ele><time>2026-04-11T04:24:03.999Z</time></trkpt><trkpt lat="43.33280320852172" lon="11.505889472751035"><ele>315.6</ele><time>2026-04-11T04:24:05.999Z</time></trkpt><trkpt lat="43.332893851292575" lon="11.505856626080586"><ele>316.0</ele><time>2026-04-11T04:24:07.999Z</time></trkpt><trkpt lat="43.33298432940379" lon="11.505832987182183"><ele>316.0</ele><time>2026-04-11T04:24:09.999Z</time></trkpt><trkpt lat="43.3330758857183" lon="11.505815975968513"><ele>316.0</ele><time>2026-04-11T04:24:11.999Z</time></trkpt><trkpt lat="43.33316287985366" lon="11.50579375527518"><ele>316.0</ele><time>2026-04-11T04:24:13.999Z</time></trkpt><trkpt lat="43.333249514669404" lon="11.505774705480826"><ele>316.0</ele><time>2026-04-11T04:24:15.999Z</time></trkpt><trkpt lat="43.333337921583386" lon="11.505759003377785"><ele>316.0</ele><time>2026-04-11T04:24:17.999Z</time></trkpt><trkpt lat="43.33343027749256" lon="11.505739388990282"><ele>316.0</ele><time>2026-04-11T04:24:19.999Z</time></trkpt><trkpt lat="43.33350685073006" lon="11.505722536991783"><ele>316.0</ele><time>2026-04-11T04:24:21.999Z</time></trkpt><trkpt lat="43.33358253690171" lon="11.505710197322175"><ele>316.0</ele><time>2026-04-11T04:24:24Z</time></trkpt><trkpt lat="43.33366723496246" lon="11.505698211807836"><ele>316.0</ele><time>2026-04-11T04:24:26Z</time></trkpt><trkpt lat="43.33375708846171" lon="11.505677422868612"><ele>316.0</ele><time>2026-04-11T04:24:28Z</time></trkpt><trkpt lat="43.333846886331386" lon="11.50565033564231"><ele>316.0</ele><time>2026-04-11T04:24:30Z</time></trkpt><trkpt lat="43.33393716552885" lon="11.505630038448523"><ele>315.8333333333333</ele><time>2026-04-11T04:24:32Z</time></trkpt><trkpt lat="43.33402687096797" lon="11.505623572068574"><ele>315.66666666666663</ele><time>2026-04-11T04:24:34Z</time></trkpt><trkpt lat="43.334112826002794" lon="11.505618747570875"><ele>315.5</ele><time>2026-04-11T04:24:36Z</time></trkpt><trkpt lat="43.334205538029146" lon="11.505591095814676"><ele>315.3333333333333</ele><time>2026-04-11T04:24:38Z</time></trkpt><trkpt lat="43.334294740502955" lon="11.505568798526374"><ele>315.1666666666667</ele><time>2026-04-11T04:24:40Z</time></trkpt><trkpt lat="43.33437249220845" lon="11.505556830305629"><ele>315.0</ele><time>2026-04-11T04:24:42Z</time></trkpt><trkpt lat="43.33444181436291" lon="11.505551438346743"><ele>315.0</ele><time>2026-04-11T04:24:44Z</time></trkpt><trkpt lat="43.33451047298046" lon="11.505543293066678"><ele>315.0</ele><time>2026-04-11T04:24:46Z</time></trkpt><trkpt lat="43.334597935624416" lon="11.50551555145973"><ele>315.0</ele><time>2026-04-11T04:24:49Z</time></trkpt><trkpt lat="43.33466750871758" lon="11.505511345994222"><ele>315.0</ele><time>2026-04-11T04:24:51Z</time></trkpt><trkpt lat="43.334748962594844" lon="11.505492895281987"><ele>315.0</ele><time>2026-04-11T04:24:53Z</time></trkpt><trkpt lat="43.33483585937412" lon="11.505479550921862"><ele>315.0</ele><time>2026-04-11T04:24:55Z</time></trkpt><trkpt lat="43.33492597815643" lon="11.505453712505062"><ele>314.8</ele><time>2026-04-11T04:24:57Z</time></trkpt><trkpt lat="43.33501066359298" lon="11.505439719600282"><ele>314.6</ele><time>2026-04-11T04:24:59Z</time></trkpt><trkpt lat="43.33510072054543" lon="11.505419198478243"><ele>314.4</ele><time>2026-04-11T04:25:01Z</time></trkpt><trkpt lat="43.33519689211397" lon="11.505393726378578"><ele>314.2</ele><time>2026-04-11T04:25:03Z</time></trkpt><trkpt lat="43.33529362605804" lon="11.505375765924281"><ele>314.0</ele><time>2026-04-11T04:25:05Z</time></trkpt><trkpt lat="43.33539097652345" lon="11.505355471362805"><ele>314.8</ele><time>2026-04-11T04:25:07Z</time></trkpt><trkpt lat="43.335485361813284" lon="11.505329693781993"><ele>315.59999999999997</ele><time>2026-04-11T04:25:09Z</time></trkpt><trkpt lat="43.335582767686105" lon="11.505306249422258"><ele>316.4</ele><time>2026-04-11T04:25:11Z</time></trkpt><trkpt lat="43.33568089435804" lon="11.505280307899575"><ele>317.2</ele><time>2026-04-11T04:25:13Z</time></trkpt><trkpt lat="43.33577576806511" lon="11.505280232508264"><ele>318.0</ele><time>2026-04-11T04:25:15Z</time></trkpt><trkpt lat="43.335871322369826" lon="11.50526108199365"><ele>318.0</ele><time>2026-04-11T04:25:17Z</time></trkpt><trkpt lat="43.335967279544874" lon="11.505241770580316"><ele>318.0</ele><time>2026-04-11T04:25:19Z</time></trkpt><trkpt lat="43.33605977954451" lon="11.505222663254695"><ele>318.0</ele><time>2026-04-11T04:25:21Z</time></trkpt><trkpt lat="43.336150241009804" lon="11.505190438149052"><ele>318.0</ele><time>2026-04-11T04:25:23Z</time></trkpt><trkpt lat="43.336244707668904" lon="11.505183646787563"><ele>318.0</ele><time>2026-04-11T04:25:25Z</time></trkpt><trkpt lat="43.336333146127295" lon="11.505170716740588"><ele>319.0</ele><time>2026-04-11T04:25:27Z</time></trkpt><trkpt lat="43.3364287438368" lon="11.505157845240094"><ele>320.0</ele><time>2026-04-11T04:25:29Z</time></trkpt><trkpt lat="43.33651517554105" lon="11.505136469424897"><ele>321.0</ele><time>2026-04-11T04:25:31Z</time></trkpt><trkpt lat="43.336597669216175" lon="11.505120826213938"><ele>322.0</ele><time>2026-04-11T04:25:32.999Z</time></trkpt><trkpt lat="43.33667958432483" lon="11.505106347060584"><ele>323.0</ele><time>2026-04-11T04:25:34.999Z</time></trkpt><trkpt lat="43.33676225872418" lon="11.505092103349137"><ele>324.0</ele><time>2026-04-11T04:25:36.999Z</time></trkpt><trkpt lat="43.3368462995803" lon="11.505087440424276"><ele>324.0</ele><time>2026-04-11T04:25:38.999Z</time></trkpt><trkpt lat="43.336932270558" lon="11.505092968716356"><ele>324.0</ele><time>2026-04-11T04:25:40.999Z</time></trkpt><trkpt lat="43.33701779884839" lon="11.505106455856334"><ele>324.0</ele><time>2026-04-11T04:25:42.999Z</time></trkpt><trkpt lat="43.33710074460828" lon="11.50512306463742"><ele>324.0</ele><time>2026-04-11T04:25:44.999Z</time></trkpt><trkpt lat="43.33718377048399" lon="11.50515095170799"><ele>324.0</ele><time>2026-04-11T04:25:46.999Z</time></trkpt><trkpt lat="43.337263197537325" lon="11.505180053546656"><ele>324.0</ele><time>2026-04-11T04:25:48.999Z</time></trkpt><trkpt lat="43.33733714986942" lon="11.505213644497404"><ele>324.1666666666667</ele><time>2026-04-11T04:25:50.999Z</time></trkpt><trkpt lat="43.337412833611" lon="11.505254016691518"><ele>324.3333333333333</ele><time>2026-04-11T04:25:52.999Z</time></trkpt><trkpt lat="43.337486420216074" lon="11.505297445428429"><ele>324.5</ele><time>2026-04-11T04:25:54.999Z</time></trkpt><trkpt lat="43.3375580358697" lon="11.505340705144564"><ele>324.66666666666663</ele><time>2026-04-11T04:25:56.999Z</time></trkpt><trkpt lat="43.3376314541087" lon="11.505383995527295"><ele>324.8333333333333</ele><time>2026-04-11T04:25:58.999Z</time></trkpt><trkpt lat="43.33769937005476" lon="11.505429713196843"><ele>325.0</ele><time>2026-04-11T04:26:00.999Z</time></trkpt><trkpt lat="43.337767056982386" lon="11.505477769541637"><ele>325.66666666666663</ele><time>2026-04-11T04:26:02.999Z</time></trkpt><trkpt lat="43.33783544627129" lon="11.505526775647416"><ele>326.3333333333333</ele><time>2026-04-11T04:26:04.999Z</time></trkpt><trkpt lat="43.33790448263346" lon="11.505572818380475"><ele>327.0</ele><time>2026-04-11T04:26:06.999Z</time></trkpt><trkpt lat="43.33797281589028" lon="11.505616058749865"><ele>327.6666666666667</ele><time>2026-04-11T04:26:08.999Z</time></trkpt><trkpt lat="43.338039722365416" lon="11.505666997497837"><ele>328.33333333333337</ele><time>2026-04-11T04:26:10.999Z</time></trkpt><trkpt lat="43.33810636786564" lon="11.505709129788077"><ele>329.0</ele><time>2026-04-11T04:26:12.999Z</time></trkpt><trkpt lat="43.33817219091318" lon="11.505753375109334"><ele>329.5</ele><time>2026-04-11T04:26:14.999Z</time></trkpt><trkpt lat="43.33823966549882" lon="11.505784960416932"><ele>330.0</ele><time>2026-04-11T04:26:16.999Z</time></trkpt><trkpt lat="43.33829956962855" lon="11.505817961693056"><ele>330.5</ele><time>2026-04-11T04:26:18.999Z</time></trkpt><trkpt lat="43.33838652898692" lon="11.505861669301451"><ele>331.0</ele><time>2026-04-11T04:26:21.999Z</time></trkpt><trkpt lat="43.338472331477654" lon="11.505897597865523"><ele>331.5</ele><time>2026-04-11T04:26:24.999Z</time></trkpt><trkpt lat="43.338538919526485" lon="11.505909666802985"><ele>332.0</ele><time>2026-04-11T04:26:26.999Z</time></trkpt><trkpt lat="43.33863400426273" lon="11.50591849005652"><ele>332.0</ele><time>2026-04-11T04:26:30Z</time></trkpt><trkpt lat="43.33869739217017" lon="11.505927690980197"><ele>332.0</ele><time>2026-04-11T04:26:32Z</time></trkpt><trkpt lat="43.33876811954433" lon="11.505926885168787"><ele>332.0</ele><time>2026-04-11T04:26:34Z</time></trkpt><trkpt lat="43.338836696613185" lon="11.505923055985004"><ele>332.0</ele><time>2026-04-11T04:26:36Z</time></trkpt><trkpt lat="43.33890300301664" lon="11.505918454777703"><ele>332.0</ele><time>2026-04-11T04:26:38Z</time></trkpt><trkpt lat="43.33896840130671" lon="11.505908474361176"><ele>332.0</ele><time>2026-04-11T04:26:40Z</time></trkpt><trkpt lat="43.339032031649396" lon="11.505899560314923"><ele>332.0</ele><time>2026-04-11T04:26:42Z</time></trkpt><trkpt lat="43.339097050504826" lon="11.505879522245204"><ele>332.7142857142857</ele><time>2026-04-11T04:26:44Z</time></trkpt><trkpt lat="43.33918904433483" lon="11.505843504863186"><ele>333.42857142857144</ele><time>2026-04-11T04:26:47Z</time></trkpt><trkpt lat="43.339254980584826" lon="11.505818676320393"><ele>334.14285714285717</ele><time>2026-04-11T04:26:49Z</time></trkpt><trkpt lat="43.33932031543876" lon="11.505791363764017"><ele>334.8571428571429</ele><time>2026-04-11T04:26:51Z</time></trkpt><trkpt lat="43.339389365246355" lon="11.505762473130353"><ele>335.57142857142856</ele><time>2026-04-11T04:26:53Z</time></trkpt><trkpt lat="43.33945964878123" lon="11.505739519752362"><ele>336.28571428571433</ele><time>2026-04-11T04:26:55Z</time></trkpt><trkpt lat="43.33952843741463" lon="11.505708706929443"><ele>337.0</ele><time>2026-04-11T04:26:57Z</time></trkpt><trkpt lat="43.33960281946965" lon="11.505677330986234"><ele>337.0</ele><time>2026-04-11T04:26:59Z</time></trkpt><trkpt lat="43.33967589493054" lon="11.50564985652312"><ele>337.0</ele><time>2026-04-11T04:27:01Z</time></trkpt><trkpt lat="43.33975291639125" lon="11.505623236844116"><ele>337.0</ele><time>2026-04-11T04:27:03Z</time></trkpt><trkpt lat="43.339828164461274" lon="11.505596805383215"><ele>337.0</ele><time>2026-04-11T04:27:05Z</time></trkpt><trkpt lat="43.33990761038053" lon="11.505564642193269"><ele>337.0</ele><time>2026-04-11T04:27:07Z</time></trkpt><trkpt lat="43.33999189443057" lon="11.505535240380222"><ele>337.0</ele><time>2026-04-11T04:27:09Z</time></trkpt><trkpt lat="43.34007696140048" lon="11.505506212381059"><ele>336.8</ele><time>2026-04-11T04:27:11Z</time></trkpt><trkpt lat="43.34015880797317" lon="11.505479008523535"><ele>336.6</ele><time>2026-04-11T04:27:13Z</time></trkpt><trkpt lat="43.340240083466455" lon="11.505454849357184"><ele>336.40000000000003</ele><time>2026-04-11T04:27:15Z</time></trkpt><trkpt lat="43.3403298638891" lon="11.505416666494169"><ele>336.20000000000005</ele><time>2026-04-11T04:27:17Z</time></trkpt><trkpt lat="43.34042078575521" lon="11.505387206747832"><ele>336.0</ele><time>2026-04-11T04:27:19Z</time></trkpt><trkpt lat="43.34051920345785" lon="11.505362041461954"><ele>335.8</ele><time>2026-04-11T04:27:21Z</time></trkpt><trkpt lat="43.34061841139067" lon="11.505365819721815"><ele>335.6</ele><time>2026-04-11T04:27:23Z</time></trkpt><trkpt lat="43.340715893785074" lon="11.505405872344005"><ele>335.4</ele><time>2026-04-11T04:27:25Z</time></trkpt><trkpt lat="43.340804174381454" lon="11.505419529828911"><ele>335.2</ele><time>2026-04-11T04:27:27Z</time></trkpt><trkpt lat="43.34085440557169" lon="11.505346055147552"><ele>335.0</ele><time>2026-04-11T04:27:28Z</time></trkpt><trkpt lat="43.34093069275125" lon="11.505253988686574"><ele>335.0</ele><time>2026-04-11T04:27:30Z</time></trkpt><trkpt lat="43.34102197791119" lon="11.505204315327502"><ele>335.0</ele><time>2026-04-11T04:27:32Z</time></trkpt><trkpt lat="43.341114987799976" lon="11.505168204619112"><ele>335.0</ele><time>2026-04-11T04:27:34Z</time></trkpt><trkpt lat="43.341213313595595" lon="11.5051283502308"><ele>335.0</ele><time>2026-04-11T04:27:36Z</time></trkpt><trkpt lat="43.34131217855055" lon="11.505093074363089"><ele>335.0</ele><time>2026-04-11T04:27:38Z</time></trkpt><trkpt lat="43.34141041306472" lon="11.505061109782211"><ele>335.0</ele><time>2026-04-11T04:27:40Z</time></trkpt><trkpt lat="43.341506081939286" lon="11.50504133552016"><ele>335.0</ele><time>2026-04-11T04:27:42Z</time></trkpt><trkpt lat="43.34160494744429" lon="11.505017222052716"><ele>335.0</ele><time>2026-04-11T04:27:44Z</time></trkpt><trkpt lat="43.34169902152657" lon="11.505003604819281"><ele>335.0</ele><time>2026-04-11T04:27:46Z</time></trkpt><trkpt lat="43.34179139284462" lon="11.504978520568137"><ele>335.0</ele><time>2026-04-11T04:27:48Z</time></trkpt><trkpt lat="43.34188613139218" lon="11.504958644850475"><ele>335.0</ele><time>2026-04-11T04:27:50Z</time></trkpt><trkpt lat="43.34197581002967" lon="11.504939435872341"><ele>335.0</ele><time>2026-04-11T04:27:51.999Z</time></trkpt><trkpt lat="43.34206184731987" lon="11.504938492748131"><ele>335.0</ele><time>2026-04-11T04:27:53.999Z</time></trkpt><trkpt lat="43.342155889552984" lon="11.50492072813922"><ele>335.0</ele><time>2026-04-11T04:27:55.999Z</time></trkpt><trkpt lat="43.34223697759204" lon="11.504884747824066"><ele>335.0</ele><time>2026-04-11T04:27:57.999Z</time></trkpt><trkpt lat="43.342332037675" lon="11.504886154798628"><ele>335.6</ele><time>2026-04-11T04:27:59.999Z</time></trkpt><trkpt lat="43.34242992109954" lon="11.504868467217136"><ele>336.2</ele><time>2026-04-11T04:28:01.999Z</time></trkpt><trkpt lat="43.34253242099782" lon="11.504850535511872"><ele>336.79999999999995</ele><time>2026-04-11T04:28:03.999Z</time></trkpt><trkpt lat="43.34262016844596" lon="11.504833636962223"><ele>337.4</ele><time>2026-04-11T04:28:05.999Z</time></trkpt><trkpt lat="43.3427154370241" lon="11.504795638120537"><ele>338.0</ele><time>2026-04-11T04:28:07.999Z</time></trkpt><trkpt lat="43.34281129734148" lon="11.50478117589611"><ele>338.0</ele><time>2026-04-11T04:28:09.999Z</time></trkpt><trkpt lat="43.3429053801139" lon="11.504766310839942"><ele>338.0</ele><time>2026-04-11T04:28:11.999Z</time></trkpt><trkpt lat="43.34299656063146" lon="11.504753866998705"><ele>338.0</ele><time>2026-04-11T04:28:13.999Z</time></trkpt><trkpt lat="43.34310005164216" lon="11.50472624253158"><ele>338.0</ele><time>2026-04-11T04:28:15.999Z</time></trkpt><trkpt lat="43.343196750136826" lon="11.504709449787644"><ele>338.0</ele><time>2026-04-11T04:28:17.999Z</time></trkpt><trkpt lat="43.34329812547467" lon="11.504689341694322"><ele>338.0</ele><time>2026-04-11T04:28:19.999Z</time></trkpt><trkpt lat="43.34339294032543" lon="11.504676713202016"><ele>338.0</ele><time>2026-04-11T04:28:21.999Z</time></trkpt><trkpt lat="43.34350519157012" lon="11.504655240915458"><ele>338.0</ele><time>2026-04-11T04:28:23.999Z</time></trkpt><trkpt lat="43.34361095402796" lon="11.504634041663696"><ele>338.0</ele><time>2026-04-11T04:28:25.999Z</time></trkpt><trkpt lat="43.34371849983411" lon="11.504614931350828"><ele>338.0</ele><time>2026-04-11T04:28:27.999Z</time></trkpt><trkpt lat="43.343822544344974" lon="11.50459480466997"><ele>337.59999999999997</ele><time>2026-04-11T04:28:29.999Z</time></trkpt><trkpt lat="43.3439293770617" lon="11.504571001064825"><ele>337.2</ele><time>2026-04-11T04:28:31.999Z</time></trkpt><trkpt lat="43.34403301846824" lon="11.504551301571157"><ele>336.8</ele><time>2026-04-11T04:28:33.999Z</time></trkpt><trkpt lat="43.34413927230982" lon="11.504535783931567"><ele>336.4</ele><time>2026-04-11T04:28:36Z</time></trkpt><trkpt lat="43.34424614425272" lon="11.5045118457625"><ele>336.0</ele><time>2026-04-11T04:28:38Z</time></trkpt><trkpt lat="43.34434594101963" lon="11.504494237787762"><ele>336.0</ele><time>2026-04-11T04:28:40Z</time></trkpt><trkpt lat="43.34444734801246" lon="11.50447975236211"><ele>336.0</ele><time>2026-04-11T04:28:42Z</time></trkpt><trkpt lat="43.34454484797779" lon="11.50446795634962"><ele>336.0</ele><time>2026-04-11T04:28:44Z</time></trkpt><trkpt lat="43.344631435166576" lon="11.504475089270574"><ele>336.0</ele><time>2026-04-11T04:28:46Z</time></trkpt><trkpt lat="43.34470684536092" lon="11.50447700880364"><ele>336.0</ele><time>2026-04-11T04:28:48Z</time></trkpt><trkpt lat="43.34478557661015" lon="11.504362935010413"><ele>337.4</ele><time>2026-04-11T04:28:49Z</time></trkpt><trkpt lat="43.34483810803634" lon="11.504240562611647"><ele>338.8</ele><time>2026-04-11T04:28:51Z</time></trkpt><trkpt lat="43.34489521229408" lon="11.504116342078843"><ele>340.2</ele><time>2026-04-11T04:28:53Z</time></trkpt><trkpt lat="43.344943510787786" lon="11.503981757977284"><ele>341.59999999999997</ele><time>2026-04-11T04:28:55Z</time></trkpt><trkpt lat="43.344999873381944" lon="11.50387510343487"><ele>343.0</ele><time>2026-04-11T04:28:57Z</time></trkpt><trkpt lat="43.34503596866836" lon="11.503751281074692"><ele>343.0</ele><time>2026-04-11T04:28:59Z</time></trkpt><trkpt lat="43.34507641455434" lon="11.503636272799463"><ele>343.0</ele><time>2026-04-11T04:29:01Z</time></trkpt><trkpt lat="43.34509549024895" lon="11.503509832714686"><ele>343.0</ele><time>2026-04-11T04:29:03Z</time></trkpt><trkpt lat="43.34502849065096" lon="11.503449277665588"><ele>343.0</ele><time>2026-04-11T04:29:04Z</time></trkpt><trkpt lat="43.34497322675287" lon="11.503323299841206"><ele>343.0</ele><time>2026-04-11T04:29:06Z</time></trkpt><trkpt lat="43.34492940805138" lon="11.503200727775578"><ele>343.0</ele><time>2026-04-11T04:29:08Z</time></trkpt><trkpt lat="43.34491222868991" lon="11.503068073452448"><ele>343.0</ele><time>2026-04-11T04:29:10Z</time></trkpt><trkpt lat="43.34491795175294" lon="11.502933550255934"><ele>343.0</ele><time>2026-04-11T04:29:12Z</time></trkpt><trkpt lat="43.34493324529034" lon="11.502796991459398"><ele>343.0</ele><time>2026-04-11T04:29:14Z</time></trkpt><trkpt lat="43.344959778671694" lon="11.502651249724439"><ele>343.0</ele><time>2026-04-11T04:29:16Z</time></trkpt><trkpt lat="43.34501179569915" lon="11.502502377675174"><ele>343.14285714285717</ele><time>2026-04-11T04:29:18Z</time></trkpt><trkpt lat="43.34504090222561" lon="11.50241962365724"><ele>343.2857142857143</ele><time>2026-04-11T04:29:19Z</time></trkpt><trkpt lat="43.345068948533324" lon="11.502338582272296"><ele>343.42857142857144</ele><time>2026-04-11T04:29:20Z</time></trkpt><trkpt lat="43.34510116827342" lon="11.50224933177464"><ele>343.57142857142856</ele><time>2026-04-11T04:29:21Z</time></trkpt><trkpt lat="43.34512534155295" lon="11.50215598778393"><ele>343.7142857142857</ele><time>2026-04-11T04:29:22Z</time></trkpt><trkpt lat="43.345153362188476" lon="11.502064353324954"><ele>343.8571428571429</ele><time>2026-04-11T04:29:23Z</time></trkpt><trkpt lat="43.34518524485753" lon="11.501967126780782"><ele>344.0</ele><time>2026-04-11T04:29:24Z</time></trkpt><trkpt lat="43.34521122680413" lon="11.501870407079718"><ele>342.8571428571429</ele><time>2026-04-11T04:29:25Z</time></trkpt><trkpt lat="43.345223679496215" lon="11.501771147838452"><ele>341.7142857142857</ele><time>2026-04-11T04:29:26Z</time></trkpt><trkpt lat="43.34523044729098" lon="11.501673805310052"><ele>340.57142857142856</ele><time>2026-04-11T04:29:27Z</time></trkpt><trkpt lat="43.345233177664326" lon="11.501577440520231"><ele>339.42857142857144</ele><time>2026-04-11T04:29:28Z</time></trkpt><trkpt lat="43.34522441784357" lon="11.501486473140595"><ele>338.2857142857143</ele><time>2026-04-11T04:29:29Z</time></trkpt><trkpt lat="43.345186012754176" lon="11.501398670943715"><ele>337.14285714285717</ele><time>2026-04-11T04:29:30Z</time></trkpt><trkpt lat="43.345174237246404" lon="11.50130722850636"><ele>336.0</ele><time>2026-04-11T04:29:31Z</time></trkpt><trkpt lat="43.34513525380109" lon="11.501224671058976"><ele>335.8333333333333</ele><time>2026-04-11T04:29:32Z</time></trkpt><trkpt lat="43.345079105923595" lon="11.501087522491348"><ele>335.6666666666667</ele><time>2026-04-11T04:29:34Z</time></trkpt><trkpt lat="43.34502325308523" lon="11.500994548717083"><ele>335.5</ele><time>2026-04-11T04:29:36Z</time></trkpt><trkpt lat="43.344986088270176" lon="11.500901258584904"><ele>335.33333333333337</ele><time>2026-04-11T04:29:38Z</time></trkpt><trkpt lat="43.34495033398396" lon="11.500807345321142"><ele>335.1666666666667</ele><time>2026-04-11T04:29:40Z</time></trkpt><trkpt lat="43.344962326124744" lon="11.500698647976815"><ele>335.0</ele><time>2026-04-11T04:29:42Z</time></trkpt><trkpt lat="43.345009386395205" lon="11.50063275739143"><ele>335.0</ele><time>2026-04-11T04:29:44Z</time></trkpt><trkpt lat="43.345060255476234" lon="11.500569022965706"><ele>335.0</ele><time>2026-04-11T04:29:48Z</time></trkpt><trkpt lat="43.34504047547062" lon="11.500424221408734"><ele>335.0</ele><time>2026-04-11T04:29:52.999Z</time></trkpt><trkpt lat="43.34500492336811" lon="11.500351037554301"><ele>335.0</ele><time>2026-04-11T04:29:54.999Z</time></trkpt><trkpt lat="43.344959695318856" lon="11.500257071160872"><ele>335.0</ele><time>2026-04-11T04:29:56.999Z</time></trkpt><trkpt lat="43.3449268901647" lon="11.500130824204753"><ele>335.0</ele><time>2026-04-11T04:29:58.999Z</time></trkpt><trkpt lat="43.34487231262301" lon="11.500003553123264"><ele>335.0</ele><time>2026-04-11T04:30:00.999Z</time></trkpt><trkpt lat="43.344814208405744" lon="11.49986838823603"><ele>335.0</ele><time>2026-04-11T04:30:02.999Z</time></trkpt><trkpt lat="43.344770728853405" lon="11.499727517109772"><ele>335.0</ele><time>2026-04-11T04:30:04.999Z</time></trkpt><trkpt lat="43.34471935973389" lon="11.49958703718075"><ele>335.0</ele><time>2026-04-11T04:30:06.999Z</time></trkpt><trkpt lat="43.34466697887916" lon="11.4994485221256"><ele>335.25</ele><time>2026-04-11T04:30:08.999Z</time></trkpt><trkpt lat="43.344602555344714" lon="11.499322585978467"><ele>335.5</ele><time>2026-04-11T04:30:10.999Z</time></trkpt><trkpt lat="43.344567500913556" lon="11.499177921273294"><ele>335.75</ele><time>2026-04-11T04:30:12.999Z</time></trkpt><trkpt lat="43.344513030424714" lon="11.499046999067435"><ele>336.0</ele><time>2026-04-11T04:30:14.999Z</time></trkpt><trkpt lat="43.34446451269219" lon="11.498892853764689"><ele>336.0</ele><time>2026-04-11T04:30:16.999Z</time></trkpt><trkpt lat="43.34443945864099" lon="11.498809930700087"><ele>336.0</ele><time>2026-04-11T04:30:17.999Z</time></trkpt><trkpt lat="43.344411199758035" lon="11.498731780122396"><ele>336.0</ele><time>2026-04-11T04:30:18.999Z</time></trkpt><trkpt lat="43.34438354489697" lon="11.498586966328126"><ele>336.0</ele><time>2026-04-11T04:30:20.999Z</time></trkpt><trkpt lat="43.34435447280899" lon="11.49850891881199"><ele>336.0</ele><time>2026-04-11T04:30:21.999Z</time></trkpt><trkpt lat="43.34432960979639" lon="11.498428895243713"><ele>336.0</ele><time>2026-04-11T04:30:22.999Z</time></trkpt><trkpt lat="43.344271898766614" lon="11.49827364435971"><ele>336.20000000000005</ele><time>2026-04-11T04:30:24.999Z</time></trkpt><trkpt lat="43.344250249629134" lon="11.498191756034513"><ele>336.40000000000003</ele><time>2026-04-11T04:30:25.999Z</time></trkpt><trkpt lat="43.34419835662193" lon="11.498041089094857"><ele>336.6</ele><time>2026-04-11T04:30:27.999Z</time></trkpt><trkpt lat="43.344145304087256" lon="11.497883951858611"><ele>336.8</ele><time>2026-04-11T04:30:29.999Z</time></trkpt><trkpt lat="43.34411518076369" lon="11.49780524230493"><ele>337.0</ele><time>2026-04-11T04:30:30.999Z</time></trkpt><trkpt lat="43.34405926963281" lon="11.497651926582694"><ele>337.0</ele><time>2026-04-11T04:30:32.999Z</time></trkpt><trkpt lat="43.3440300720962" lon="11.497568048383666"><ele>337.0</ele><time>2026-04-11T04:30:33.999Z</time></trkpt><trkpt lat="43.343970829687315" lon="11.497422864935633"><ele>337.0</ele><time>2026-04-11T04:30:35.999Z</time></trkpt><trkpt lat="43.34391435995586" lon="11.497280103175513"><ele>337.0</ele><time>2026-04-11T04:30:37.999Z</time></trkpt><trkpt lat="43.34386311779592" lon="11.497138793670466"><ele>337.0</ele><time>2026-04-11T04:30:39.999Z</time></trkpt><trkpt lat="43.34379184204883" lon="11.497023743094012"><ele>336.40000000000003</ele><time>2026-04-11T04:30:42Z</time></trkpt><trkpt lat="43.343710644762695" lon="11.496915543590571"><ele>335.8</ele><time>2026-04-11T04:30:44Z</time></trkpt><trkpt lat="43.343619634660485" lon="11.496810011641735"><ele>335.2</ele><time>2026-04-11T04:30:46Z</time></trkpt><trkpt lat="43.34352403269231" lon="11.49669984046195"><ele>334.6</ele><time>2026-04-11T04:30:48Z</time></trkpt><trkpt lat="43.34346865398398" lon="11.496637581060595"><ele>334.0</ele><time>2026-04-11T04:30:49Z</time></trkpt><trkpt lat="43.34342807018522" lon="11.496571347538017"><ele>334.0</ele><time>2026-04-11T04:30:50Z</time></trkpt><trkpt lat="43.34338237524201" lon="11.496510663330799"><ele>334.0</ele><time>2026-04-11T04:30:51Z</time></trkpt><trkpt lat="43.343322999503414" lon="11.496460325349878"><ele>334.0</ele><time>2026-04-11T04:30:52Z</time></trkpt><trkpt lat="43.34324260300975" lon="11.496344893517525"><ele>334.0</ele><time>2026-04-11T04:30:54Z</time></trkpt><trkpt lat="43.34318887697104" lon="11.496291254683927"><ele>334.0</ele><time>2026-04-11T04:30:55Z</time></trkpt><trkpt lat="43.34313867087783" lon="11.49622598455562"><ele>334.0</ele><time>2026-04-11T04:30:56Z</time></trkpt><trkpt lat="43.34308648992095" lon="11.49616714322967"><ele>333.57142857142856</ele><time>2026-04-11T04:30:57Z</time></trkpt><trkpt lat="43.343027147874" lon="11.496107704665835"><ele>333.14285714285717</ele><time>2026-04-11T04:30:58Z</time></trkpt><trkpt lat="43.342976624846834" lon="11.49604383967271"><ele>332.7142857142857</ele><time>2026-04-11T04:30:59Z</time></trkpt><trkpt lat="43.342932113652026" lon="11.495964574567855"><ele>332.2857142857143</ele><time>2026-04-11T04:31:00Z</time></trkpt><trkpt lat="43.342882526724296" lon="11.495903556421451"><ele>331.85714285714283</ele><time>2026-04-11T04:31:01Z</time></trkpt><trkpt lat="43.342823610928434" lon="11.495831058772263"><ele>331.42857142857144</ele><time>2026-04-11T04:31:02Z</time></trkpt><trkpt lat="43.34276362237229" lon="11.49575724099"><ele>331.0</ele><time>2026-04-11T04:31:03Z</time></trkpt><trkpt lat="43.342703212653866" lon="11.495682905122937"><ele>331.0</ele><time>2026-04-11T04:31:04Z</time></trkpt><trkpt lat="43.34263013001516" lon="11.495623229287752"><ele>331.0</ele><time>2026-04-11T04:31:05Z</time></trkpt><trkpt lat="43.342578528030494" lon="11.495528089339869"><ele>331.0</ele><time>2026-04-11T04:31:06Z</time></trkpt><trkpt lat="43.34250289941444" lon="11.495452584612467"><ele>331.0</ele><time>2026-04-11T04:31:07Z</time></trkpt><trkpt lat="43.3424327574156" lon="11.495368167265221"><ele>331.0</ele><time>2026-04-11T04:31:08Z</time></trkpt><trkpt lat="43.34235722874288" lon="11.495283273816048"><ele>329.4</ele><time>2026-04-11T04:31:09Z</time></trkpt><trkpt lat="43.34227451702728" lon="11.495196745591668"><ele>327.8</ele><time>2026-04-11T04:31:10Z</time></trkpt><trkpt lat="43.34220442685983" lon="11.495098328449115"><ele>326.2</ele><time>2026-04-11T04:31:11Z</time></trkpt><trkpt lat="43.34212226665237" lon="11.4950034347823"><ele>324.59999999999997</ele><time>2026-04-11T04:31:12Z</time></trkpt><trkpt lat="43.342044251148636" lon="11.494912614045269"><ele>323.0</ele><time>2026-04-11T04:31:13Z</time></trkpt><trkpt lat="43.341960430530044" lon="11.494819386855252"><ele>321.59999999999997</ele><time>2026-04-11T04:31:14Z</time></trkpt><trkpt lat="43.34187690600812" lon="11.4947239067773"><ele>320.2</ele><time>2026-04-11T04:31:15Z</time></trkpt><trkpt lat="43.34179248181688" lon="11.494624021571914"><ele>318.8</ele><time>2026-04-11T04:31:16Z</time></trkpt><trkpt lat="43.34170760181596" lon="11.494528836823978"><ele>317.4</ele><time>2026-04-11T04:31:17Z</time></trkpt><trkpt lat="43.34162622297454" lon="11.494430508007264"><ele>316.0</ele><time>2026-04-11T04:31:18Z</time></trkpt><trkpt lat="43.34154695937607" lon="11.494330542200215"><ele>315.40000000000003</ele><time>2026-04-11T04:31:19Z</time></trkpt><trkpt lat="43.34146798651497" lon="11.494228449868206"><ele>314.8</ele><time>2026-04-11T04:31:20Z</time></trkpt><trkpt lat="43.34138912128765" lon="11.49413297845973"><ele>314.20000000000005</ele><time>2026-04-11T04:31:21Z</time></trkpt><trkpt lat="43.34131326386677" lon="11.494045147472576"><ele>313.6</ele><time>2026-04-11T04:31:22Z</time></trkpt><trkpt lat="43.34123753111912" lon="11.493956605864886"><ele>313.0</ele><time>2026-04-11T04:31:23Z</time></trkpt><trkpt lat="43.34116069630208" lon="11.493870549660457"><ele>312.4</ele><time>2026-04-11T04:31:24Z</time></trkpt><trkpt lat="43.34108590555919" lon="11.493781145373207"><ele>311.8</ele><time>2026-04-11T04:31:25Z</time></trkpt><trkpt lat="43.34101952282665" lon="11.493694347603002"><ele>311.2</ele><time>2026-04-11T04:31:26Z</time></trkpt><trkpt lat="43.34095028725548" lon="11.493607721979549"><ele>310.6</ele><time>2026-04-11T04:31:27Z</time></trkpt><trkpt lat="43.34087883259805" lon="11.49352283016089"><ele>310.0</ele><time>2026-04-11T04:31:28Z</time></trkpt><trkpt lat="43.340811079751425" lon="11.493441433706266"><ele>310.0</ele><time>2026-04-11T04:31:29Z</time></trkpt><trkpt lat="43.340737914496486" lon="11.493360997701158"><ele>310.0</ele><time>2026-04-11T04:31:30Z</time></trkpt><trkpt lat="43.34066775587147" lon="11.493281154951196"><ele>310.0</ele><time>2026-04-11T04:31:31Z</time></trkpt><trkpt lat="43.34059829594889" lon="11.493200427669114"><ele>310.0</ele><time>2026-04-11T04:31:32Z</time></trkpt><trkpt lat="43.340531893062014" lon="11.4931213144818"><ele>310.0</ele><time>2026-04-11T04:31:33Z</time></trkpt><trkpt lat="43.340463889450305" lon="11.493036964636469"><ele>310.0</ele><time>2026-04-11T04:31:34Z</time></trkpt><trkpt lat="43.34039748219093" lon="11.492946905125253"><ele>310.0</ele><time>2026-04-11T04:31:35Z</time></trkpt><trkpt lat="43.3403306795038" lon="11.492851552628577"><ele>310.0</ele><time>2026-04-11T04:31:36Z</time></trkpt><trkpt lat="43.34026051481045" lon="11.492758037331386"><ele>310.0</ele><time>2026-04-11T04:31:37Z</time></trkpt><trkpt lat="43.340186249419176" lon="11.492667589000039"><ele>310.0</ele><time>2026-04-11T04:31:38Z</time></trkpt><trkpt lat="43.34012129121105" lon="11.492577040058746"><ele>310.2</ele><time>2026-04-11T04:31:39Z</time></trkpt><trkpt lat="43.34005365669389" lon="11.492486606272578"><ele>310.4</ele><time>2026-04-11T04:31:40Z</time></trkpt><trkpt lat="43.33998787073298" lon="11.492391081632162"><ele>310.6</ele><time>2026-04-11T04:31:41Z</time></trkpt><trkpt lat="43.33992210461028" lon="11.492294389004453"><ele>310.8</ele><time>2026-04-11T04:31:42Z</time></trkpt><trkpt lat="43.33985922467876" lon="11.492195364272256"><ele>311.0</ele><time>2026-04-11T04:31:43Z</time></trkpt><trkpt lat="43.339792409597365" lon="11.492093688237656"><ele>310.2</ele><time>2026-04-11T04:31:44Z</time></trkpt><trkpt lat="43.33972673409891" lon="11.491991466741998"><ele>309.40000000000003</ele><time>2026-04-11T04:31:45Z</time></trkpt><trkpt lat="43.33966401947753" lon="11.491885286120075"><ele>308.6</ele><time>2026-04-11T04:31:46Z</time></trkpt><trkpt lat="43.33959985956831" lon="11.491783894938523"><ele>307.8</ele><time>2026-04-11T04:31:47Z</time></trkpt><trkpt lat="43.33953392268277" lon="11.491681560684027"><ele>307.0</ele><time>2026-04-11T04:31:48Z</time></trkpt><trkpt lat="43.33946734846372" lon="11.491579414224462"><ele>307.0</ele><time>2026-04-11T04:31:49Z</time></trkpt><trkpt lat="43.339404592205305" lon="11.491479458468302"><ele>307.0</ele><time>2026-04-11T04:31:50Z</time></trkpt><trkpt lat="43.339338524166166" lon="11.49138009130589"><ele>307.0</ele><time>2026-04-11T04:31:51Z</time></trkpt><trkpt lat="43.339273559465425" lon="11.491283683225555"><ele>307.0</ele><time>2026-04-11T04:31:52Z</time></trkpt><trkpt lat="43.339212660062095" lon="11.491181309682002"><ele>307.0</ele><time>2026-04-11T04:31:53Z</time></trkpt><trkpt lat="43.33914464937768" lon="11.49108578795164"><ele>306.8</ele><time>2026-04-11T04:31:54Z</time></trkpt><trkpt lat="43.339076115951265" lon="11.490995824427515"><ele>306.6</ele><time>2026-04-11T04:31:55Z</time></trkpt><trkpt lat="43.33900319055431" lon="11.490910470679278"><ele>306.40000000000003</ele><time>2026-04-11T04:31:56Z</time></trkpt><trkpt lat="43.33892491474079" lon="11.490826014871429"><ele>306.2</ele><time>2026-04-11T04:31:57Z</time></trkpt><trkpt lat="43.33884603317472" lon="11.490746468927439"><ele>306.0</ele><time>2026-04-11T04:31:58Z</time></trkpt><trkpt lat="43.33876577769034" lon="11.490662351784291"><ele>305.40000000000003</ele><time>2026-04-11T04:31:59Z</time></trkpt><trkpt lat="43.33868945021682" lon="11.490578344581797"><ele>304.8</ele><time>2026-04-11T04:32:00Z</time></trkpt><trkpt lat="43.33861426071714" lon="11.490496720013079"><ele>304.20000000000005</ele><time>2026-04-11T04:32:00.999Z</time></trkpt><trkpt lat="43.33853572239531" lon="11.490416063994026"><ele>303.6</ele><time>2026-04-11T04:32:01.999Z</time></trkpt><trkpt lat="43.338468714285845" lon="11.490336534611034"><ele>303.0</ele><time>2026-04-11T04:32:02.999Z</time></trkpt><trkpt lat="43.33840115248133" lon="11.49025482264249"><ele>303.0</ele><time>2026-04-11T04:32:03.999Z</time></trkpt><trkpt lat="43.338319525023664" lon="11.490174162309115"><ele>303.0</ele><time>2026-04-11T04:32:04.999Z</time></trkpt><trkpt lat="43.33825072130051" lon="11.490096124355194"><ele>303.0</ele><time>2026-04-11T04:32:05.999Z</time></trkpt><trkpt lat="43.33817484203026" lon="11.490023379246752"><ele>303.0</ele><time>2026-04-11T04:32:06.999Z</time></trkpt><trkpt lat="43.33808208309448" lon="11.48994021751507"><ele>303.0</ele><time>2026-04-11T04:32:07.999Z</time></trkpt><trkpt lat="43.337996740054315" lon="11.489860084131424"><ele>302.0</ele><time>2026-04-11T04:32:08.999Z</time></trkpt><trkpt lat="43.33791749100848" lon="11.48977876436888"><ele>301.0</ele><time>2026-04-11T04:32:09.999Z</time></trkpt><trkpt lat="43.33784001808173" lon="11.489696965242386"><ele>300.0</ele><time>2026-04-11T04:32:10.999Z</time></trkpt><trkpt lat="43.33776156414158" lon="11.489614453745487"><ele>299.0</ele><time>2026-04-11T04:32:11.999Z</time></trkpt><trkpt lat="43.3376833004938" lon="11.489534544280131"><ele>298.0</ele><time>2026-04-11T04:32:12.999Z</time></trkpt><trkpt lat="43.337603795975454" lon="11.48945638681398"><ele>297.8</ele><time>2026-04-11T04:32:13.999Z</time></trkpt><trkpt lat="43.33752281981151" lon="11.489375865712873"><ele>297.6</ele><time>2026-04-11T04:32:14.999Z</time></trkpt><trkpt lat="43.337445015023825" lon="11.489291220877"><ele>297.4</ele><time>2026-04-11T04:32:15.999Z</time></trkpt><trkpt lat="43.337368417779736" lon="11.489210601145592"><ele>297.2</ele><time>2026-04-11T04:32:16.999Z</time></trkpt><trkpt lat="43.337290531528055" lon="11.489132799579638"><ele>297.0</ele><time>2026-04-11T04:32:17.999Z</time></trkpt><trkpt lat="43.33721159439909" lon="11.48905468361198"><ele>297.4</ele><time>2026-04-11T04:32:18.999Z</time></trkpt><trkpt lat="43.3371323914187" lon="11.488982961295317"><ele>297.79999999999995</ele><time>2026-04-11T04:32:19.999Z</time></trkpt><trkpt lat="43.33705192380647" lon="11.488916876921245"><ele>298.2</ele><time>2026-04-11T04:32:20.999Z</time></trkpt><trkpt lat="43.33696320081158" lon="11.488858845664085"><ele>298.59999999999997</ele><time>2026-04-11T04:32:21.999Z</time></trkpt><trkpt lat="43.33686673998017" lon="11.488818542771545"><ele>299.0</ele><time>2026-04-11T04:32:22.999Z</time></trkpt><trkpt lat="43.33677688887622" lon="11.488777391059735"><ele>299.0</ele><time>2026-04-11T04:32:23.999Z</time></trkpt><trkpt lat="43.3366886769661" lon="11.488727209106006"><ele>299.0</ele><time>2026-04-11T04:32:24.999Z</time></trkpt><trkpt lat="43.33660082964905" lon="11.488670599218217"><ele>299.0</ele><time>2026-04-11T04:32:25.999Z</time></trkpt><trkpt lat="43.33651712863483" lon="11.488596911674243"><ele>299.0</ele><time>2026-04-11T04:32:26.999Z</time></trkpt><trkpt lat="43.33643990166983" lon="11.488510042978458"><ele>299.0</ele><time>2026-04-11T04:32:27.999Z</time></trkpt><trkpt lat="43.336376576228375" lon="11.488410199320608"><ele>299.0</ele><time>2026-04-11T04:32:28.999Z</time></trkpt><trkpt lat="43.33631919750437" lon="11.488301479251557"><ele>299.0</ele><time>2026-04-11T04:32:29.999Z</time></trkpt><trkpt lat="43.3362670627531" lon="11.488187277156072"><ele>299.0</ele><time>2026-04-11T04:32:30.999Z</time></trkpt><trkpt lat="43.336206142837426" lon="11.488081077501514"><ele>299.0</ele><time>2026-04-11T04:32:31.999Z</time></trkpt><trkpt lat="43.33614038777289" lon="11.487984934791957"><ele>299.0</ele><time>2026-04-11T04:32:32.999Z</time></trkpt><trkpt lat="43.3360624351646" lon="11.487896303331922"><ele>297.4</ele><time>2026-04-11T04:32:33.999Z</time></trkpt><trkpt lat="43.33598724542735" lon="11.487810582621842"><ele>295.79999999999995</ele><time>2026-04-11T04:32:34.999Z</time></trkpt><trkpt lat="43.335912435403436" lon="11.48772360425718"><ele>294.20000000000005</ele><time>2026-04-11T04:32:35.999Z</time></trkpt><trkpt lat="43.33583854842042" lon="11.48763167350433"><ele>292.6</ele><time>2026-04-11T04:32:36.999Z</time></trkpt><trkpt lat="43.33576272650015" lon="11.487548444352173"><ele>291.0</ele><time>2026-04-11T04:32:37.999Z</time></trkpt><trkpt lat="43.33569215153757" lon="11.487456182861933"><ele>291.0</ele><time>2026-04-11T04:32:38.999Z</time></trkpt><trkpt lat="43.335624508428744" lon="11.48735490749662"><ele>291.0</ele><time>2026-04-11T04:32:39.999Z</time></trkpt><trkpt lat="43.33555893655233" lon="11.487247708222496"><ele>291.0</ele><time>2026-04-11T04:32:40.999Z</time></trkpt><trkpt lat="43.33550642227194" lon="11.487129314826605"><ele>291.0</ele><time>2026-04-11T04:32:41.999Z</time></trkpt><trkpt lat="43.33545849150905" lon="11.487005190122622"><ele>291.0</ele><time>2026-04-11T04:32:42.999Z</time></trkpt><trkpt lat="43.33540982036455" lon="11.48688172725398"><ele>291.6</ele><time>2026-04-11T04:32:43.999Z</time></trkpt><trkpt lat="43.33535389679939" lon="11.486760282528138"><ele>292.20000000000005</ele><time>2026-04-11T04:32:44.999Z</time></trkpt><trkpt lat="43.33530270087518" lon="11.48663395631093"><ele>292.79999999999995</ele><time>2026-04-11T04:32:45.999Z</time></trkpt><trkpt lat="43.335249095376604" lon="11.486507220338565"><ele>293.4</ele><time>2026-04-11T04:32:46.999Z</time></trkpt><trkpt lat="43.33519506132663" lon="11.486372010190765"><ele>294.0</ele><time>2026-04-11T04:32:48Z</time></trkpt><trkpt lat="43.33514091327112" lon="11.486241831159294"><ele>291.75</ele><time>2026-04-11T04:32:49Z</time></trkpt><trkpt lat="43.33508738516092" lon="11.486108561563853"><ele>289.5</ele><time>2026-04-11T04:32:50Z</time></trkpt><trkpt lat="43.335037307987314" lon="11.485972992053211"><ele>287.25</ele><time>2026-04-11T04:32:51Z</time></trkpt><trkpt lat="43.33499456284171" lon="11.485826846731534"><ele>285.0</ele><time>2026-04-11T04:32:52Z</time></trkpt><trkpt lat="43.334957190386795" lon="11.485676230718145"><ele>285.0</ele><time>2026-04-11T04:32:53Z</time></trkpt><trkpt lat="43.334922836577476" lon="11.48551885779806"><ele>285.0</ele><time>2026-04-11T04:32:54Z</time></trkpt><trkpt lat="43.334901084953266" lon="11.485357097792392"><ele>285.0</ele><time>2026-04-11T04:32:55Z</time></trkpt><trkpt lat="43.33488655506019" lon="11.48519246219277"><ele>285.0</ele><time>2026-04-11T04:32:56Z</time></trkpt><trkpt lat="43.33485871171075" lon="11.485031909807182"><ele>283.5</ele><time>2026-04-11T04:32:57Z</time></trkpt><trkpt lat="43.33483059913741" lon="11.484865757303849"><ele>282.0</ele><time>2026-04-11T04:32:58Z</time></trkpt><trkpt lat="43.33482227727426" lon="11.484704347833475"><ele>280.5</ele><time>2026-04-11T04:32:59Z</time></trkpt><trkpt lat="43.334801786356785" lon="11.484542783067518"><ele>279.0</ele><time>2026-04-11T04:33:00Z</time></trkpt><trkpt lat="43.33477829321192" lon="11.484391414033116"><ele>278.2</ele><time>2026-04-11T04:33:01Z</time></trkpt><trkpt lat="43.3347625901874" lon="11.484239160145608"><ele>277.4</ele><time>2026-04-11T04:33:02Z</time></trkpt><trkpt lat="43.33476091061404" lon="11.484087634090919"><ele>276.6</ele><time>2026-04-11T04:33:03Z</time></trkpt><trkpt lat="43.334747788091086" lon="11.483944499909805"><ele>275.8</ele><time>2026-04-11T04:33:04Z</time></trkpt><trkpt lat="43.33473428778186" lon="11.483800737533294"><ele>275.0</ele><time>2026-04-11T04:33:05Z</time></trkpt><trkpt lat="43.334724303975804" lon="11.48365773181937"><ele>276.8</ele><time>2026-04-11T04:33:06Z</time></trkpt><trkpt lat="43.33470764279055" lon="11.483514322162147"><ele>278.6</ele><time>2026-04-11T04:33:07Z</time></trkpt><trkpt lat="43.33469697753579" lon="11.483377006010015"><ele>280.4</ele><time>2026-04-11T04:33:08Z</time></trkpt><trkpt lat="43.334686562214785" lon="11.483241240153582"><ele>282.2</ele><time>2026-04-11T04:33:09Z</time></trkpt><trkpt lat="43.334672526055684" lon="11.483102158530253"><ele>284.0</ele><time>2026-04-11T04:33:10Z</time></trkpt><trkpt lat="43.33465417194164" lon="11.482960381107372"><ele>283.4</ele><time>2026-04-11T04:33:11Z</time></trkpt><trkpt lat="43.33463911883661" lon="11.482830521619658"><ele>282.79999999999995</ele><time>2026-04-11T04:33:12Z</time></trkpt><trkpt lat="43.334621085738284" lon="11.482703595734673"><ele>282.20000000000005</ele><time>2026-04-11T04:33:13Z</time></trkpt><trkpt lat="43.334605698880566" lon="11.482560547833684"><ele>281.6</ele><time>2026-04-11T04:33:14Z</time></trkpt><trkpt lat="43.334589073142496" lon="11.482438406118936"><ele>281.0</ele><time>2026-04-11T04:33:15Z</time></trkpt><trkpt lat="43.334567981926206" lon="11.482307627184873"><ele>281.0</ele><time>2026-04-11T04:33:16Z</time></trkpt><trkpt lat="43.33457101284765" lon="11.482188925143172"><ele>281.0</ele><time>2026-04-11T04:33:17Z</time></trkpt><trkpt lat="43.3345817578102" lon="11.482068998548987"><ele>281.0</ele><time>2026-04-11T04:33:18Z</time></trkpt><trkpt lat="43.33460092748275" lon="11.481955343906376"><ele>281.0</ele><time>2026-04-11T04:33:19Z</time></trkpt><trkpt lat="43.334658711713935" lon="11.48186458472165"><ele>281.0</ele><time>2026-04-11T04:33:20Z</time></trkpt><trkpt lat="43.33471233578245" lon="11.48177815721378"><ele>281.0</ele><time>2026-04-11T04:33:21Z</time></trkpt><trkpt lat="43.33476273967368" lon="11.481683767921924"><ele>280.6666666666667</ele><time>2026-04-11T04:33:22Z</time></trkpt><trkpt lat="43.33480858636271" lon="11.481603703591144"><ele>280.33333333333337</ele><time>2026-04-11T04:33:23Z</time></trkpt><trkpt lat="43.33485680506925" lon="11.481520227079777"><ele>280.0</ele><time>2026-04-11T04:33:24Z</time></trkpt><trkpt lat="43.33490549493489" lon="11.481435934637304"><ele>279.6666666666667</ele><time>2026-04-11T04:33:25Z</time></trkpt><trkpt lat="43.33495102331684" lon="11.481357115640945"><ele>279.3333333333333</ele><time>2026-04-11T04:33:26Z</time></trkpt><trkpt lat="43.33499592707268" lon="11.481279377850118"><ele>279.0</ele><time>2026-04-11T04:33:27Z</time></trkpt><trkpt lat="43.33507864772658" lon="11.481138779938426"><ele>279.0</ele><time>2026-04-11T04:33:29Z</time></trkpt><trkpt lat="43.33511383866459" lon="11.481063396478149"><ele>279.0</ele><time>2026-04-11T04:33:30Z</time></trkpt><trkpt lat="43.335154802107354" lon="11.480994037059963"><ele>279.0</ele><time>2026-04-11T04:33:31Z</time></trkpt><trkpt lat="43.3352037051262" lon="11.480923711310762"><ele>279.0</ele><time>2026-04-11T04:33:32Z</time></trkpt><trkpt lat="43.33527682803614" lon="11.48079126181051"><ele>279.0</ele><time>2026-04-11T04:33:34Z</time></trkpt><trkpt lat="43.335359713361925" lon="11.480691847915429"><ele>279.0</ele><time>2026-04-11T04:33:36Z</time></trkpt><trkpt lat="43.3354334726399" lon="11.480579479517983"><ele>278.99999999999994</ele><time>2026-04-11T04:33:38Z</time></trkpt><trkpt lat="43.33548128650641" lon="11.480520512355104"><ele>279.0</ele><time>2026-04-11T04:33:42Z</time></trkpt><trkpt lat="43.3355332549795" lon="11.480440491564247"><ele>279.0</ele><time>2026-04-11T04:34:03.999Z</time></trkpt><trkpt lat="43.33546643181694" lon="11.480443659962049"><ele>279.0</ele><time>2026-04-11T04:34:08.999Z</time></trkpt><trkpt lat="43.33544290626483" lon="11.480359222495059"><ele>279.0</ele><time>2026-04-11T04:34:14.999Z</time></trkpt><trkpt lat="43.33546334757839" lon="11.480275185375815"><ele>278.99999999999994</ele><time>2026-04-11T04:34:18.999Z</time></trkpt><trkpt lat="43.33548550866889" lon="11.480173228008903"><ele>279.0</ele><time>2026-04-11T04:34:21.999Z</time></trkpt><trkpt lat="43.33550506064442" lon="11.480073040430993"><ele>279.1666666666667</ele><time>2026-04-11T04:34:23.999Z</time></trkpt><trkpt lat="43.33552455357118" lon="11.479968362653063"><ele>279.3333333333333</ele><time>2026-04-11T04:34:25.999Z</time></trkpt><trkpt lat="43.33554331445414" lon="11.479861107111535"><ele>279.5</ele><time>2026-04-11T04:34:27.999Z</time></trkpt><trkpt lat="43.33556883127046" lon="11.479739943556236"><ele>279.66666666666663</ele><time>2026-04-11T04:34:29.999Z</time></trkpt><trkpt lat="43.335593799228015" lon="11.479635305698173"><ele>279.8333333333333</ele><time>2026-04-11T04:34:31.999Z</time></trkpt><trkpt lat="43.33563327592866" lon="11.479526159664447"><ele>280.0</ele><time>2026-04-11T04:34:33.999Z</time></trkpt><trkpt lat="43.33567442281845" lon="11.479400581828632"><ele>279.6</ele><time>2026-04-11T04:34:35.999Z</time></trkpt><trkpt lat="43.33572191278193" lon="11.479275056978596"><ele>279.2</ele><time>2026-04-11T04:34:37.999Z</time></trkpt><trkpt lat="43.335780423767446" lon="11.479140973049843"><ele>278.8</ele><time>2026-04-11T04:34:39.999Z</time></trkpt><trkpt lat="43.335824679676726" lon="11.478993362903067"><ele>278.4</ele><time>2026-04-11T04:34:41.999Z</time></trkpt><trkpt lat="43.33586668725823" lon="11.478845314106927"><ele>278.0</ele><time>2026-04-11T04:34:43.999Z</time></trkpt><trkpt lat="43.33590131094526" lon="11.478769294429586"><ele>277.33333333333337</ele><time>2026-04-11T04:34:44.999Z</time></trkpt><trkpt lat="43.33592620238979" lon="11.478687874662503"><ele>276.6666666666667</ele><time>2026-04-11T04:34:45.999Z</time></trkpt><trkpt lat="43.33593667465563" lon="11.478601308484945"><ele>276.0</ele><time>2026-04-11T04:34:46.999Z</time></trkpt><trkpt lat="43.33596087826889" lon="11.478520941606421"><ele>275.3333333333333</ele><time>2026-04-11T04:34:47.999Z</time></trkpt><trkpt lat="43.33602099921399" lon="11.478370749448644"><ele>274.66666666666663</ele><time>2026-04-11T04:34:49.999Z</time></trkpt><trkpt lat="43.33602436574018" lon="11.478276423638295"><ele>274.0</ele><time>2026-04-11T04:34:50.999Z</time></trkpt><trkpt lat="43.33603919404259" lon="11.478188581541222"><ele>274.00000000000006</ele><time>2026-04-11T04:34:51.999Z</time></trkpt><trkpt lat="43.3360458110128" lon="11.478100137238654"><ele>274.0</ele><time>2026-04-11T04:34:52.999Z</time></trkpt><trkpt lat="43.33604914778045" lon="11.478012659243099"><ele>274.0</ele><time>2026-04-11T04:34:54Z</time></trkpt><trkpt lat="43.33604340640211" lon="11.477923206124567"><ele>274.0</ele><time>2026-04-11T04:34:55Z</time></trkpt><trkpt lat="43.336036398512654" lon="11.477835164838744"><ele>274.0</ele><time>2026-04-11T04:34:56Z</time></trkpt><trkpt lat="43.33600514564792" lon="11.47767039917919"><ele>274.00000000000006</ele><time>2026-04-11T04:34:58Z</time></trkpt><trkpt lat="43.33598197817436" lon="11.477587962582207"><ele>274.0</ele><time>2026-04-11T04:34:59Z</time></trkpt><trkpt lat="43.335943498971055" lon="11.47743121183858"><ele>274.0</ele><time>2026-04-11T04:35:01Z</time></trkpt><trkpt lat="43.335893723924315" lon="11.477280620959052"><ele>274.0</ele><time>2026-04-11T04:35:03Z</time></trkpt><trkpt lat="43.33584251291332" lon="11.477131130639359"><ele>274.0</ele><time>2026-04-11T04:35:05Z</time></trkpt><trkpt lat="43.335793107222145" lon="11.47698463166682"><ele>274.0</ele><time>2026-04-11T04:35:07Z</time></trkpt><trkpt lat="43.33574509537426" lon="11.476834160155208"><ele>273.59999999999997</ele><time>2026-04-11T04:35:09Z</time></trkpt><trkpt lat="43.335702850400686" lon="11.476697481501125"><ele>273.2</ele><time>2026-04-11T04:35:11Z</time></trkpt><trkpt lat="43.335658218122866" lon="11.476586771508426"><ele>272.79999999999995</ele><time>2026-04-11T04:35:13Z</time></trkpt><trkpt lat="43.335625130241766" lon="11.476483608896135"><ele>272.4</ele><time>2026-04-11T04:35:15Z</time></trkpt><trkpt lat="43.33558438025881" lon="11.47638007810627"><ele>272.0</ele><time>2026-04-11T04:35:17Z</time></trkpt><trkpt lat="43.33552975030519" lon="11.4762711289508"><ele>272.5</ele><time>2026-04-11T04:35:19Z</time></trkpt><trkpt lat="43.33547452335574" lon="11.476133072068253"><ele>273.0</ele><time>2026-04-11T04:35:21Z</time></trkpt><trkpt lat="43.33541136429823" lon="11.475983605582067"><ele>273.5</ele><time>2026-04-11T04:35:23Z</time></trkpt><trkpt lat="43.3353786864242" lon="11.475900665573768"><ele>274.0</ele><time>2026-04-11T04:35:24Z</time></trkpt><trkpt lat="43.33534711731814" lon="11.475820465578064"><ele>274.5</ele><time>2026-04-11T04:35:25Z</time></trkpt><trkpt lat="43.33531577096022" lon="11.475736457004109"><ele>275.0</ele><time>2026-04-11T04:35:26Z</time></trkpt><trkpt lat="43.33527780570158" lon="11.475657159176702"><ele>275.0</ele><time>2026-04-11T04:35:27Z</time></trkpt><trkpt lat="43.335243528707146" lon="11.475572562668184"><ele>275.0</ele><time>2026-04-11T04:35:28Z</time></trkpt><trkpt lat="43.33521319401418" lon="11.475492381938654"><ele>275.0</ele><time>2026-04-11T04:35:29Z</time></trkpt><trkpt lat="43.335179251260264" lon="11.475407644725347"><ele>275.0</ele><time>2026-04-11T04:35:30Z</time></trkpt><trkpt lat="43.335148258765145" lon="11.475322947469834"><ele>275.0</ele><time>2026-04-11T04:35:31Z</time></trkpt><trkpt lat="43.33511964721268" lon="11.475234521214999"><ele>275.0</ele><time>2026-04-11T04:35:32Z</time></trkpt><trkpt lat="43.3350971789273" lon="11.475142424591445"><ele>275.0</ele><time>2026-04-11T04:35:33Z</time></trkpt><trkpt lat="43.33506895849625" lon="11.475051919894112"><ele>274.7142857142857</ele><time>2026-04-11T04:35:34Z</time></trkpt><trkpt lat="43.33503813599142" lon="11.474961086879109"><ele>274.42857142857144</ele><time>2026-04-11T04:35:35Z</time></trkpt><trkpt lat="43.335017981473165" lon="11.474868013228454"><ele>274.1428571428571</ele><time>2026-04-11T04:35:36Z</time></trkpt><trkpt lat="43.33499743965598" lon="11.474771563355613"><ele>273.8571428571429</ele><time>2026-04-11T04:35:37Z</time></trkpt><trkpt lat="43.33497710113627" lon="11.474675493998479"><ele>273.57142857142856</ele><time>2026-04-11T04:35:38Z</time></trkpt><trkpt lat="43.33497435033297" lon="11.474580018610638"><ele>273.2857142857143</ele><time>2026-04-11T04:35:39Z</time></trkpt><trkpt lat="43.33496450167731" lon="11.474488720073587"><ele>273.0</ele><time>2026-04-11T04:35:40Z</time></trkpt><trkpt lat="43.334957204073746" lon="11.474391449536386"><ele>272.85714285714283</ele><time>2026-04-11T04:35:41Z</time></trkpt><trkpt lat="43.33494793128468" lon="11.474299372804694"><ele>272.7142857142857</ele><time>2026-04-11T04:35:42Z</time></trkpt><trkpt lat="43.33493553296809" lon="11.474201520739552"><ele>272.57142857142856</ele><time>2026-04-11T04:35:43Z</time></trkpt><trkpt lat="43.33492886516557" lon="11.474109692019663"><ele>272.42857142857144</ele><time>2026-04-11T04:35:44Z</time></trkpt><trkpt lat="43.334921574264825" lon="11.47401797420323"><ele>272.2857142857143</ele><time>2026-04-11T04:35:45Z</time></trkpt><trkpt lat="43.33491107724234" lon="11.47392443405121"><ele>272.1428571428571</ele><time>2026-04-11T04:35:46Z</time></trkpt><trkpt lat="43.33490252690417" lon="11.473833496883971"><ele>272.0</ele><time>2026-04-11T04:35:47Z</time></trkpt><trkpt lat="43.33489115351481" lon="11.473738204238519"><ele>271.71428571428567</ele><time>2026-04-11T04:35:48Z</time></trkpt><trkpt lat="43.33487793665315" lon="11.473646611001564"><ele>271.42857142857144</ele><time>2026-04-11T04:35:49Z</time></trkpt><trkpt lat="43.334869306193674" lon="11.473552140684918"><ele>271.1428571428571</ele><time>2026-04-11T04:35:50Z</time></trkpt><trkpt lat="43.33486522595552" lon="11.473459240433323"><ele>270.85714285714283</ele><time>2026-04-11T04:35:51Z</time></trkpt><trkpt lat="43.334859049388605" lon="11.473366949571613"><ele>270.57142857142856</ele><time>2026-04-11T04:35:52Z</time></trkpt><trkpt lat="43.33485233065343" lon="11.473274602759862"><ele>270.2857142857143</ele><time>2026-04-11T04:35:53Z</time></trkpt><trkpt lat="43.3348475873011" lon="11.47318097600254"><ele>270.0</ele><time>2026-04-11T04:35:54Z</time></trkpt><trkpt lat="43.334853697702705" lon="11.47308492844055"><ele>270.0</ele><time>2026-04-11T04:35:55Z</time></trkpt><trkpt lat="43.334869994185055" lon="11.472980876020813"><ele>270.0</ele><time>2026-04-11T04:35:56Z</time></trkpt><trkpt lat="43.33488737832281" lon="11.472870031451526"><ele>270.0</ele><time>2026-04-11T04:35:57Z</time></trkpt><trkpt lat="43.334906403228054" lon="11.4727636033822"><ele>270.0</ele><time>2026-04-11T04:35:58Z</time></trkpt><trkpt lat="43.334928211367505" lon="11.472663818197484"><ele>270.0</ele><time>2026-04-11T04:35:59Z</time></trkpt><trkpt lat="43.334949657636805" lon="11.47256469799938"><ele>270.0</ele><time>2026-04-11T04:36:00Z</time></trkpt><trkpt lat="43.33497439241283" lon="11.472470303525217"><ele>270.1666666666667</ele><time>2026-04-11T04:36:01Z</time></trkpt><trkpt lat="43.33500071543284" lon="11.47237550815954"><ele>270.3333333333333</ele><time>2026-04-11T04:36:02Z</time></trkpt><trkpt lat="43.33503896726828" lon="11.472273430141021"><ele>270.5</ele><time>2026-04-11T04:36:03Z</time></trkpt><trkpt lat="43.335063968359925" lon="11.472180276111606"><ele>270.66666666666663</ele><time>2026-04-11T04:36:03.999Z</time></trkpt><trkpt lat="43.335099523411124" lon="11.472085756282734"><ele>270.8333333333333</ele><time>2026-04-11T04:36:04.999Z</time></trkpt><trkpt lat="43.33514078173306" lon="11.471984338632723"><ele>271.0</ele><time>2026-04-11T04:36:05.999Z</time></trkpt><trkpt lat="43.33517608785988" lon="11.471876004891664"><ele>270.2</ele><time>2026-04-11T04:36:06.999Z</time></trkpt><trkpt lat="43.3352126433037" lon="11.471768824433045"><ele>269.40000000000003</ele><time>2026-04-11T04:36:07.999Z</time></trkpt><trkpt lat="43.33526953352435" lon="11.471659082460436"><ele>268.6</ele><time>2026-04-11T04:36:08.999Z</time></trkpt><trkpt lat="43.33531666395919" lon="11.47152104037181"><ele>267.8</ele><time>2026-04-11T04:36:09.999Z</time></trkpt><trkpt lat="43.3353810671644" lon="11.471396314678278"><ele>267.0</ele><time>2026-04-11T04:36:10.999Z</time></trkpt><trkpt lat="43.33544731627251" lon="11.471265421248088"><ele>265.75</ele><time>2026-04-11T04:36:11.999Z</time></trkpt><trkpt lat="43.3355102668957" lon="11.471116191504654"><ele>264.5</ele><time>2026-04-11T04:36:12.999Z</time></trkpt><trkpt lat="43.33556940408437" lon="11.47096235576987"><ele>263.25</ele><time>2026-04-11T04:36:13.999Z</time></trkpt><trkpt lat="43.33563817455311" lon="11.47082588191779"><ele>262.0</ele><time>2026-04-11T04:36:14.999Z</time></trkpt><trkpt lat="43.33568995527681" lon="11.470678733504547"><ele>262.0</ele><time>2026-04-11T04:36:15.999Z</time></trkpt><trkpt lat="43.335735712215836" lon="11.470539389369192"><ele>262.0</ele><time>2026-04-11T04:36:16.999Z</time></trkpt><trkpt lat="43.33577588177462" lon="11.47039447610133"><ele>262.0</ele><time>2026-04-11T04:36:17.999Z</time></trkpt><trkpt lat="43.335797982287794" lon="11.470246068030594"><ele>262.0</ele><time>2026-04-11T04:36:18.999Z</time></trkpt><trkpt lat="43.33580147194051" lon="11.470105822332442"><ele>262.0</ele><time>2026-04-11T04:36:19.999Z</time></trkpt><trkpt lat="43.33578754920176" lon="11.469970744137111"><ele>261.3333333333333</ele><time>2026-04-11T04:36:20.999Z</time></trkpt><trkpt lat="43.33577811233706" lon="11.469848014300927"><ele>260.66666666666663</ele><time>2026-04-11T04:36:21.999Z</time></trkpt><trkpt lat="43.3357548684917" lon="11.469734524918339"><ele>260.0</ele><time>2026-04-11T04:36:22.999Z</time></trkpt><trkpt lat="43.33572350652603" lon="11.469619521484935"><ele>259.3333333333333</ele><time>2026-04-11T04:36:23.999Z</time></trkpt><trkpt lat="43.335695491260815" lon="11.469512645544267"><ele>258.6666666666667</ele><time>2026-04-11T04:36:24.999Z</time></trkpt><trkpt lat="43.335665166535755" lon="11.469409923353238"><ele>258.0</ele><time>2026-04-11T04:36:25.999Z</time></trkpt><trkpt lat="43.33563256206254" lon="11.46930831109051"><ele>257.99999999999994</ele><time>2026-04-11T04:36:26.999Z</time></trkpt><trkpt lat="43.33559467528475" lon="11.469213948577464"><ele>258.0</ele><time>2026-04-11T04:36:27.999Z</time></trkpt><trkpt lat="43.335555560658186" lon="11.469122632549235"><ele>258.0</ele><time>2026-04-11T04:36:28.999Z</time></trkpt><trkpt lat="43.335515800041364" lon="11.469035293422111"><ele>258.0</ele><time>2026-04-11T04:36:29.999Z</time></trkpt><trkpt lat="43.33547904616922" lon="11.468955003532072"><ele>258.0</ele><time>2026-04-11T04:36:30.999Z</time></trkpt><trkpt lat="43.335434827951396" lon="11.468876034122616"><ele>257.99999999999994</ele><time>2026-04-11T04:36:31.999Z</time></trkpt><trkpt lat="43.33538100930051" lon="11.468800386344553"><ele>258.0</ele><time>2026-04-11T04:36:32.999Z</time></trkpt><trkpt lat="43.33532365521641" lon="11.468724306601528"><ele>257.6666666666667</ele><time>2026-04-11T04:36:33.999Z</time></trkpt><trkpt lat="43.3352662928699" lon="11.468640359384834"><ele>257.3333333333333</ele><time>2026-04-11T04:36:34.999Z</time></trkpt><trkpt lat="43.33521222785094" lon="11.468552774951293"><ele>257.0</ele><time>2026-04-11T04:36:35.999Z</time></trkpt><trkpt lat="43.335153845889664" lon="11.468465535350653"><ele>256.66666666666663</ele><time>2026-04-11T04:36:36.999Z</time></trkpt><trkpt lat="43.33509707340001" lon="11.468373665914596"><ele>256.3333333333333</ele><time>2026-04-11T04:36:37.999Z</time></trkpt><trkpt lat="43.33504741606731" lon="11.468275491249702"><ele>256.0</ele><time>2026-04-11T04:36:38.999Z</time></trkpt><trkpt lat="43.33499603244458" lon="11.468181755488015"><ele>255.99999999999997</ele><time>2026-04-11T04:36:39.999Z</time></trkpt><trkpt lat="43.33495230639832" lon="11.468080480389945"><ele>256.0</ele><time>2026-04-11T04:36:40.999Z</time></trkpt><trkpt lat="43.33491541081869" lon="11.467970082446287"><ele>256.0</ele><time>2026-04-11T04:36:41.999Z</time></trkpt><trkpt lat="43.33487487032215" lon="11.467855465215317"><ele>256.0</ele><time>2026-04-11T04:36:42.999Z</time></trkpt><trkpt lat="43.334833175305846" lon="11.467756730599218"><ele>255.99999999999997</ele><time>2026-04-11T04:36:43.999Z</time></trkpt><trkpt lat="43.33481009579745" lon="11.46762709132179"><ele>256.0</ele><time>2026-04-11T04:36:44.999Z</time></trkpt><trkpt lat="43.33479461854736" lon="11.467500162902306"><ele>256.16666666666663</ele><time>2026-04-11T04:36:45.999Z</time></trkpt><trkpt lat="43.334786031998604" lon="11.467382246093987"><ele>256.3333333333333</ele><time>2026-04-11T04:36:46.999Z</time></trkpt><trkpt lat="43.33478807578646" lon="11.467271824947735"><ele>256.5</ele><time>2026-04-11T04:36:47.999Z</time></trkpt><trkpt lat="43.33477039918185" lon="11.467157227121135"><ele>256.6666666666667</ele><time>2026-04-11T04:36:48.999Z</time></trkpt><trkpt lat="43.33475287336174" lon="11.467037150762561"><ele>256.83333333333337</ele><time>2026-04-11T04:36:49.999Z</time></trkpt><trkpt lat="43.33474085849604" lon="11.466905604265502"><ele>257.0</ele><time>2026-04-11T04:36:50.999Z</time></trkpt><trkpt lat="43.334730480965995" lon="11.466769708680348"><ele>255.39999999999998</ele><time>2026-04-11T04:36:51.999Z</time></trkpt><trkpt lat="43.33472905122385" lon="11.466622897742738"><ele>253.79999999999998</ele><time>2026-04-11T04:36:52.999Z</time></trkpt><trkpt lat="43.33472907582623" lon="11.466488002143437"><ele>252.2</ele><time>2026-04-11T04:36:53.999Z</time></trkpt><trkpt lat="43.33473535530537" lon="11.466357216596109"><ele>250.6</ele><time>2026-04-11T04:36:54.999Z</time></trkpt><trkpt lat="43.33475620512936" lon="11.466225661299623"><ele>249.0</ele><time>2026-04-11T04:36:55.999Z</time></trkpt><trkpt lat="43.334784268468894" lon="11.466099388882295"><ele>248.39999999999998</ele><time>2026-04-11T04:36:56.999Z</time></trkpt><trkpt lat="43.334825508302096" lon="11.465973718029733"><ele>247.79999999999998</ele><time>2026-04-11T04:36:57.999Z</time></trkpt><trkpt lat="43.33486393112238" lon="11.465857828332464"><ele>247.20000000000002</ele><time>2026-04-11T04:36:58.999Z</time></trkpt><trkpt lat="43.33490406260218" lon="11.465739371765405"><ele>246.60000000000002</ele><time>2026-04-11T04:37:00Z</time></trkpt><trkpt lat="43.33493807088315" lon="11.465609753964761"><ele>246.0</ele><time>2026-04-11T04:37:01Z</time></trkpt><trkpt lat="43.33496890076083" lon="11.465482401217121"><ele>245.8</ele><time>2026-04-11T04:37:02Z</time></trkpt><trkpt lat="43.335000072729976" lon="11.465360915322913"><ele>245.60000000000002</ele><time>2026-04-11T04:37:03Z</time></trkpt><trkpt lat="43.335024538757146" lon="11.465232189956634"><ele>245.4</ele><time>2026-04-11T04:37:04Z</time></trkpt><trkpt lat="43.33505657306429" lon="11.465110326555036"><ele>245.2</ele><time>2026-04-11T04:37:05Z</time></trkpt><trkpt lat="43.33508262431569" lon="11.464990316250796"><ele>245.0</ele><time>2026-04-11T04:37:06Z</time></trkpt><trkpt lat="43.33511548747947" lon="11.464869910156551"><ele>245.0</ele><time>2026-04-11T04:37:07Z</time></trkpt><trkpt lat="43.33515691036036" lon="11.464751293625886"><ele>245.0</ele><time>2026-04-11T04:37:08Z</time></trkpt><trkpt lat="43.33518677358487" lon="11.464635629424171"><ele>245.0</ele><time>2026-04-11T04:37:09Z</time></trkpt><trkpt lat="43.335216473688895" lon="11.464512592488392"><ele>245.0</ele><time>2026-04-11T04:37:10Z</time></trkpt><trkpt lat="43.33524846767146" lon="11.464393495479877"><ele>245.0</ele><time>2026-04-11T04:37:11Z</time></trkpt><trkpt lat="43.33527755009073" lon="11.464289430315613"><ele>244.33333333333334</ele><time>2026-04-11T04:37:12Z</time></trkpt><trkpt lat="43.33530685852311" lon="11.464177038003658"><ele>243.66666666666669</ele><time>2026-04-11T04:37:13Z</time></trkpt><trkpt lat="43.33533437926744" lon="11.464071394757742"><ele>243.0</ele><time>2026-04-11T04:37:14Z</time></trkpt><trkpt lat="43.33536527958796" lon="11.463966947360015"><ele>242.33333333333331</ele><time>2026-04-11T04:37:15Z</time></trkpt><trkpt lat="43.33539879023025" lon="11.463865257714803"><ele>241.66666666666666</ele><time>2026-04-11T04:37:16Z</time></trkpt><trkpt lat="43.33543265444792" lon="11.463765679046999"><ele>241.0</ele><time>2026-04-11T04:37:17Z</time></trkpt><trkpt lat="43.33546421570326" lon="11.463666068957217"><ele>240.99999999999997</ele><time>2026-04-11T04:37:18Z</time></trkpt><trkpt lat="43.33549543068563" lon="11.463570598449174"><ele>241.0</ele><time>2026-04-11T04:37:19Z</time></trkpt><trkpt lat="43.335524911681105" lon="11.463476428677001"><ele>241.0</ele><time>2026-04-11T04:37:20Z</time></trkpt><trkpt lat="43.33556019148609" lon="11.463395129341496"><ele>241.0</ele><time>2026-04-11T04:37:21Z</time></trkpt><trkpt lat="43.335590143800154" lon="11.46331176876185"><ele>240.99999999999997</ele><time>2026-04-11T04:37:22Z</time></trkpt><trkpt lat="43.335623788244654" lon="11.463237732631894"><ele>241.0</ele><time>2026-04-11T04:37:23Z</time></trkpt><trkpt lat="43.335674850574556" lon="11.46308946282766"><ele>240.16666666666666</ele><time>2026-04-11T04:37:25Z</time></trkpt><trkpt lat="43.33572451287955" lon="11.462959364355843"><ele>239.33333333333331</ele><time>2026-04-11T04:37:27Z</time></trkpt><trkpt lat="43.33577025568477" lon="11.462829042733249"><ele>238.5</ele><time>2026-04-11T04:37:29Z</time></trkpt><trkpt lat="43.335808998092574" lon="11.462729308919934"><ele>237.66666666666669</ele><time>2026-04-11T04:37:31Z</time></trkpt><trkpt lat="43.335830413986784" lon="11.46263368238311"><ele>236.83333333333334</ele><time>2026-04-11T04:37:33Z</time></trkpt><trkpt lat="43.335865136653304" lon="11.462546010749145"><ele>236.0</ele><time>2026-04-11T04:37:35Z</time></trkpt><trkpt lat="43.335883886065304" lon="11.46246332651612"><ele>237.83333333333334</ele><time>2026-04-11T04:37:37Z</time></trkpt><trkpt lat="43.33590373426655" lon="11.462350040407372"><ele>239.66666666666669</ele><time>2026-04-11T04:37:40Z</time></trkpt><trkpt lat="43.33591607731059" lon="11.462262492457146"><ele>241.5</ele><time>2026-04-11T04:37:42Z</time></trkpt><trkpt lat="43.335918858959836" lon="11.462148129036688"><ele>243.33333333333331</ele><time>2026-04-11T04:37:44Z</time></trkpt><trkpt lat="43.335935738790745" lon="11.462003172202905"><ele>245.16666666666666</ele><time>2026-04-11T04:37:46Z</time></trkpt><trkpt lat="43.33594540178069" lon="11.46191142269015"><ele>247.0</ele><time>2026-04-11T04:37:47Z</time></trkpt><trkpt lat="43.33595362743832" lon="11.461812304769179"><ele>247.33333333333331</ele><time>2026-04-11T04:37:48Z</time></trkpt><trkpt lat="43.33595342606699" lon="11.461700494409051"><ele>247.66666666666666</ele><time>2026-04-11T04:37:49Z</time></trkpt><trkpt lat="43.335949430515456" lon="11.461586225044435"><ele>248.0</ele><time>2026-04-11T04:37:50Z</time></trkpt><trkpt lat="43.33595260531945" lon="11.461468391964512"><ele>248.33333333333331</ele><time>2026-04-11T04:37:51Z</time></trkpt><trkpt lat="43.335954729437624" lon="11.461343909766498"><ele>248.66666666666666</ele><time>2026-04-11T04:37:52Z</time></trkpt><trkpt lat="43.33595574300285" lon="11.461227273788001"><ele>249.0</ele><time>2026-04-11T04:37:53Z</time></trkpt><trkpt lat="43.33595984711515" lon="11.461115668624833"><ele>248.33333333333334</ele><time>2026-04-11T04:37:54Z</time></trkpt><trkpt lat="43.3359681361197" lon="11.461012163853882"><ele>247.66666666666669</ele><time>2026-04-11T04:37:55Z</time></trkpt><trkpt lat="43.33597959608958" lon="11.460905245615278"><ele>247.0</ele><time>2026-04-11T04:37:56Z</time></trkpt><trkpt lat="43.33598329622778" lon="11.460795721006505"><ele>246.33333333333334</ele><time>2026-04-11T04:37:57Z</time></trkpt><trkpt lat="43.33600894454076" lon="11.460693970826837"><ele>245.66666666666669</ele><time>2026-04-11T04:37:58Z</time></trkpt><trkpt lat="43.33602070249244" lon="11.460592273471308"><ele>245.0</ele><time>2026-04-11T04:37:59Z</time></trkpt><trkpt lat="43.33603294402004" lon="11.460489751828982"><ele>244.50000000000003</ele><time>2026-04-11T04:38:00Z</time></trkpt><trkpt lat="43.33603707355133" lon="11.460376682830193"><ele>244.0</ele><time>2026-04-11T04:38:01Z</time></trkpt><trkpt lat="43.33604691412361" lon="11.460273932919389"><ele>243.5</ele><time>2026-04-11T04:38:02Z</time></trkpt><trkpt lat="43.336062486820815" lon="11.460158206329295"><ele>243.0</ele><time>2026-04-11T04:38:03Z</time></trkpt><trkpt lat="43.336089309572365" lon="11.46004861222229"><ele>242.50000000000003</ele><time>2026-04-11T04:38:04Z</time></trkpt><trkpt lat="43.33609425339505" lon="11.459926029666905"><ele>242.0</ele><time>2026-04-11T04:38:05Z</time></trkpt><trkpt lat="43.336098136429484" lon="11.459803651115253"><ele>242.00000000000003</ele><time>2026-04-11T04:38:06Z</time></trkpt><trkpt lat="43.33610421136125" lon="11.45968402380002"><ele>242.0</ele><time>2026-04-11T04:38:07Z</time></trkpt><trkpt lat="43.3361019599329" lon="11.459566997281541"><ele>242.0</ele><time>2026-04-11T04:38:08Z</time></trkpt><trkpt lat="43.33609456629258" lon="11.459455901859185"><ele>242.0</ele><time>2026-04-11T04:38:09Z</time></trkpt><trkpt lat="43.33608807324863" lon="11.459339133267054"><ele>242.00000000000003</ele><time>2026-04-11T04:38:10Z</time></trkpt><trkpt lat="43.336073242521685" lon="11.4592296061396"><ele>242.0</ele><time>2026-04-11T04:38:11Z</time></trkpt><trkpt lat="43.33604601189035" lon="11.459123530800749"><ele>242.00000000000003</ele><time>2026-04-11T04:38:12Z</time></trkpt><trkpt lat="43.33603666145245" lon="11.459014150601394"><ele>242.0</ele><time>2026-04-11T04:38:13Z</time></trkpt><trkpt lat="43.33602155721854" lon="11.458905059098813"><ele>242.0</ele><time>2026-04-11T04:38:14Z</time></trkpt><trkpt lat="43.33602152761118" lon="11.458790715099225"><ele>242.0</ele><time>2026-04-11T04:38:15Z</time></trkpt><trkpt lat="43.336045173562944" lon="11.458684153483647"><ele>242.00000000000003</ele><time>2026-04-11T04:38:16Z</time></trkpt><trkpt lat="43.33608856135432" lon="11.458591439103428"><ele>242.0</ele><time>2026-04-11T04:38:17Z</time></trkpt><trkpt lat="43.33611539699312" lon="11.45848201160369"><ele>242.00000000000003</ele><time>2026-04-11T04:38:18Z</time></trkpt><trkpt lat="43.33615227730246" lon="11.458391575663713"><ele>242.0</ele><time>2026-04-11T04:38:18.999Z</time></trkpt><trkpt lat="43.336182015449324" lon="11.458299777163264"><ele>242.0</ele><time>2026-04-11T04:38:19.999Z</time></trkpt><trkpt lat="43.33619621638362" lon="11.458210930583293"><ele>242.0</ele><time>2026-04-11T04:38:20.999Z</time></trkpt><trkpt lat="43.33620515542122" lon="11.45812266404738"><ele>242.00000000000003</ele><time>2026-04-11T04:38:21.999Z</time></trkpt><trkpt lat="43.33625098090488" lon="11.457952077535566"><ele>242.0</ele><time>2026-04-11T04:38:23.999Z</time></trkpt><trkpt lat="43.33626737318213" lon="11.457858484078592"><ele>242.00000000000003</ele><time>2026-04-11T04:38:24.999Z</time></trkpt><trkpt lat="43.33628449813336" lon="11.457760707365205"><ele>242.0</ele><time>2026-04-11T04:38:25.999Z</time></trkpt><trkpt lat="43.33628766246452" lon="11.457659981310888"><ele>242.0</ele><time>2026-04-11T04:38:26.999Z</time></trkpt><trkpt lat="43.33631462210529" lon="11.45756199163289"><ele>242.0</ele><time>2026-04-11T04:38:27.999Z</time></trkpt><trkpt lat="43.33633659753177" lon="11.457465500671542"><ele>242.00000000000003</ele><time>2026-04-11T04:38:28.999Z</time></trkpt><trkpt lat="43.33635054379493" lon="11.45735724768992"><ele>242.0</ele><time>2026-04-11T04:38:29.999Z</time></trkpt><trkpt lat="43.33636514567816" lon="11.457243759959088"><ele>242.00000000000003</ele><time>2026-04-11T04:38:30.999Z</time></trkpt><trkpt lat="43.33637619693071" lon="11.457132449977447"><ele>242.0</ele><time>2026-04-11T04:38:31.999Z</time></trkpt><trkpt lat="43.33637370035996" lon="11.457015326886918"><ele>242.0</ele><time>2026-04-11T04:38:32.999Z</time></trkpt><trkpt lat="43.33636519660252" lon="11.456894547425486"><ele>242.0</ele><time>2026-04-11T04:38:33.999Z</time></trkpt><trkpt lat="43.336359748507576" lon="11.456776592348442"><ele>242.00000000000003</ele><time>2026-04-11T04:38:34.999Z</time></trkpt><trkpt lat="43.336338408492814" lon="11.456660219322073"><ele>242.0</ele><time>2026-04-11T04:38:35.999Z</time></trkpt><trkpt lat="43.33634086861899" lon="11.456542945952672"><ele>241.00000000000003</ele><time>2026-04-11T04:38:36.999Z</time></trkpt><trkpt lat="43.336332478204454" lon="11.456434402948043"><ele>240.0</ele><time>2026-04-11T04:38:37.999Z</time></trkpt><trkpt lat="43.336329351142716" lon="11.456327406275093"><ele>239.0</ele><time>2026-04-11T04:38:38.999Z</time></trkpt><trkpt lat="43.33633257093784" lon="11.456224903791064"><ele>238.0</ele><time>2026-04-11T04:38:39.999Z</time></trkpt><trkpt lat="43.33635678708883" lon="11.456128075942887"><ele>237.00000000000003</ele><time>2026-04-11T04:38:40.999Z</time></trkpt><trkpt lat="43.33637376180638" lon="11.456030587444568"><ele>236.0</ele><time>2026-04-11T04:38:41.999Z</time></trkpt><trkpt lat="43.336398630249306" lon="11.455939302133574"><ele>235.50000000000003</ele><time>2026-04-11T04:38:42.999Z</time></trkpt><trkpt lat="43.336433348077584" lon="11.4558398528935"><ele>235.0</ele><time>2026-04-11T04:38:43.999Z</time></trkpt><trkpt lat="43.33647297688195" lon="11.45573947551558"><ele>234.5</ele><time>2026-04-11T04:38:44.999Z</time></trkpt><trkpt lat="43.336509777088814" lon="11.455633903700038"><ele>234.0</ele><time>2026-04-11T04:38:45.999Z</time></trkpt><trkpt lat="43.33653868254766" lon="11.455529020420416"><ele>233.50000000000003</ele><time>2026-04-11T04:38:46.999Z</time></trkpt><trkpt lat="43.33657942855385" lon="11.45544029660305"><ele>233.0</ele><time>2026-04-11T04:38:47.999Z</time></trkpt><trkpt lat="43.33660671730815" lon="11.455339845535821"><ele>232.66666666666669</ele><time>2026-04-11T04:38:48.999Z</time></trkpt><trkpt lat="43.336638582104776" lon="11.455242218984017"><ele>232.33333333333334</ele><time>2026-04-11T04:38:49.999Z</time></trkpt><trkpt lat="43.336674746279336" lon="11.455143486203362"><ele>232.0</ele><time>2026-04-11T04:38:50.999Z</time></trkpt><trkpt lat="43.33670763680185" lon="11.455044594601498"><ele>231.66666666666669</ele><time>2026-04-11T04:38:51.999Z</time></trkpt><trkpt lat="43.33673785381834" lon="11.454954224946574"><ele>231.33333333333334</ele><time>2026-04-11T04:38:52.999Z</time></trkpt><trkpt lat="43.33677420612356" lon="11.45487300641815"><ele>231.0</ele><time>2026-04-11T04:38:53.999Z</time></trkpt><trkpt lat="43.336802182917566" lon="11.454777521117107"><ele>231.0</ele><time>2026-04-11T04:38:54.999Z</time></trkpt><trkpt lat="43.33681247066345" lon="11.454686932726792"><ele>231.0</ele><time>2026-04-11T04:38:55.999Z</time></trkpt><trkpt lat="43.33683496915491" lon="11.454593820558838"><ele>231.0</ele><time>2026-04-11T04:38:56.999Z</time></trkpt><trkpt lat="43.3368425331765" lon="11.454495324083773"><ele>231.0</ele><time>2026-04-11T04:38:57.999Z</time></trkpt><trkpt lat="43.336843453781114" lon="11.454398883926032"><ele>231.0</ele><time>2026-04-11T04:38:58.999Z</time></trkpt><trkpt lat="43.33682867160296" lon="11.45431094620167"><ele>231.0</ele><time>2026-04-11T04:38:59.999Z</time></trkpt><trkpt lat="43.33684420128543" lon="11.45421653293705"><ele>231.0</ele><time>2026-04-11T04:39:00.999Z</time></trkpt><trkpt lat="43.33684494647084" lon="11.454119992786127"><ele>231.0</ele><time>2026-04-11T04:39:01.999Z</time></trkpt><trkpt lat="43.336859425653145" lon="11.454024559826836"><ele>231.0</ele><time>2026-04-11T04:39:02.999Z</time></trkpt><trkpt lat="43.33686602337451" lon="11.453927287202717"><ele>231.0</ele><time>2026-04-11T04:39:03.999Z</time></trkpt><trkpt lat="43.3368750238342" lon="11.453834336533257"><ele>231.0</ele><time>2026-04-11T04:39:04.999Z</time></trkpt><trkpt lat="43.33688209577077" lon="11.45373025160463"><ele>231.0</ele><time>2026-04-11T04:39:06Z</time></trkpt><trkpt lat="43.336884097657155" lon="11.453629819145888"><ele>231.0</ele><time>2026-04-11T04:39:07Z</time></trkpt><trkpt lat="43.33687963740008" lon="11.453525777660397"><ele>231.0</ele><time>2026-04-11T04:39:08Z</time></trkpt><trkpt lat="43.336869921848795" lon="11.453423212838562"><ele>231.0</ele><time>2026-04-11T04:39:09Z</time></trkpt><trkpt lat="43.33684028136336" lon="11.453322528312963"><ele>231.0</ele><time>2026-04-11T04:39:10Z</time></trkpt><trkpt lat="43.33680227460696" lon="11.453209518804087"><ele>231.0</ele><time>2026-04-11T04:39:11Z</time></trkpt><trkpt lat="43.33676245419265" lon="11.453099512045913"><ele>231.0</ele><time>2026-04-11T04:39:12Z</time></trkpt><trkpt lat="43.336716255118674" lon="11.452991854017187"><ele>231.0</ele><time>2026-04-11T04:39:13Z</time></trkpt><trkpt lat="43.33667503845209" lon="11.45288413600969"><ele>231.0</ele><time>2026-04-11T04:39:14Z</time></trkpt><trkpt lat="43.33663206085154" lon="11.452778485084638"><ele>230.60000000000002</ele><time>2026-04-11T04:39:15Z</time></trkpt><trkpt lat="43.33659077984504" lon="11.452670566511975"><ele>230.20000000000002</ele><time>2026-04-11T04:39:16Z</time></trkpt><trkpt lat="43.33655159179429" lon="11.452566639526886"><ele>229.79999999999998</ele><time>2026-04-11T04:39:17Z</time></trkpt><trkpt lat="43.33651409800334" lon="11.452449866343075"><ele>229.39999999999998</ele><time>2026-04-11T04:39:18Z</time></trkpt><trkpt lat="43.33646940103555" lon="11.452336878715526"><ele>229.0</ele><time>2026-04-11T04:39:19Z</time></trkpt><trkpt lat="43.33642140600453" lon="11.452222782397348"><ele>227.39999999999998</ele><time>2026-04-11T04:39:20Z</time></trkpt><trkpt lat="43.33636881200677" lon="11.452101993340472"><ele>225.79999999999998</ele><time>2026-04-11T04:39:21Z</time></trkpt><trkpt lat="43.33632157276041" lon="11.451977981860475"><ele>224.20000000000002</ele><time>2026-04-11T04:39:22Z</time></trkpt><trkpt lat="43.336271188830246" lon="11.451847935639913"><ele>222.60000000000002</ele><time>2026-04-11T04:39:23Z</time></trkpt><trkpt lat="43.336218767956574" lon="11.451721758408038"><ele>221.0</ele><time>2026-04-11T04:39:24Z</time></trkpt><trkpt lat="43.33616884562807" lon="11.451600284063465"><ele>221.0</ele><time>2026-04-11T04:39:25Z</time></trkpt><trkpt lat="43.336125921120136" lon="11.451487336708182"><ele>221.00000000000003</ele><time>2026-04-11T04:39:26Z</time></trkpt><trkpt lat="43.336083640106" lon="11.451385255327189"><ele>221.00000000000003</ele><time>2026-04-11T04:39:27Z</time></trkpt><trkpt lat="43.33602567958237" lon="11.451288881822224"><ele>221.0</ele><time>2026-04-11T04:39:28Z</time></trkpt><trkpt lat="43.335941797975714" lon="11.451207059037209"><ele>221.0</ele><time>2026-04-11T04:39:29Z</time></trkpt><trkpt lat="43.3358472747576" lon="11.451138815017051"><ele>220.8</ele><time>2026-04-11T04:39:30Z</time></trkpt><trkpt lat="43.33574522942837" lon="11.451081341916536"><ele>220.60000000000002</ele><time>2026-04-11T04:39:31Z</time></trkpt><trkpt lat="43.335658326434945" lon="11.451022880424334"><ele>220.4</ele><time>2026-04-11T04:39:32Z</time></trkpt><trkpt lat="43.33557438456727" lon="11.450966927189505"><ele>220.2</ele><time>2026-04-11T04:39:33Z</time></trkpt><trkpt lat="43.33550243942525" lon="11.450919863712462"><ele>220.0</ele><time>2026-04-11T04:39:34Z</time></trkpt><trkpt lat="43.33544564621476" lon="11.450852028232065"><ele>218.66666666666666</ele><time>2026-04-11T04:39:35Z</time></trkpt><trkpt lat="43.33541545354907" lon="11.45075972193012"><ele>217.33333333333331</ele><time>2026-04-11T04:39:36Z</time></trkpt><trkpt lat="43.33540759919614" lon="11.450660698037622"><ele>216.0</ele><time>2026-04-11T04:39:37Z</time></trkpt><trkpt lat="43.33544650156948" lon="11.450554526045005"><ele>214.66666666666669</ele><time>2026-04-11T04:39:38Z</time></trkpt><trkpt lat="43.33550712826484" lon="11.450461543068668"><ele>213.33333333333334</ele><time>2026-04-11T04:39:39Z</time></trkpt><trkpt lat="43.33555898805172" lon="11.450372958780527"><ele>212.0</ele><time>2026-04-11T04:39:40Z</time></trkpt><trkpt lat="43.33561806837299" lon="11.450282722563895"><ele>212.0</ele><time>2026-04-11T04:39:41Z</time></trkpt><trkpt lat="43.33568151934031" lon="11.45018512849706"><ele>212.0</ele><time>2026-04-11T04:39:42Z</time></trkpt><trkpt lat="43.33574806385481" lon="11.450093493027023"><ele>212.0</ele><time>2026-04-11T04:39:43Z</time></trkpt><trkpt lat="43.335837496309246" lon="11.45002165437272"><ele>212.0</ele><time>2026-04-11T04:39:44Z</time></trkpt><trkpt lat="43.33592503914478" lon="11.449953797013912"><ele>212.0</ele><time>2026-04-11T04:39:45Z</time></trkpt><trkpt lat="43.33601143445914" lon="11.449917681422887"><ele>212.00000000000003</ele><time>2026-04-11T04:39:46Z</time></trkpt><trkpt lat="43.336091763682774" lon="11.449927937638451"><ele>212.0</ele><time>2026-04-11T04:39:47Z</time></trkpt><trkpt lat="43.33617265043623" lon="11.449920405156991"><ele>212.0</ele><time>2026-04-11T04:39:48Z</time></trkpt><trkpt lat="43.33624136602192" lon="11.44993127490209"><ele>212.0</ele><time>2026-04-11T04:39:49Z</time></trkpt><trkpt lat="43.33632222928523" lon="11.449918130858324"><ele>212.00000000000003</ele><time>2026-04-11T04:39:50Z</time></trkpt><trkpt lat="43.3364050399419" lon="11.449827150766515"><ele>212.0</ele><time>2026-04-11T04:39:51Z</time></trkpt><trkpt lat="43.33642298329192" lon="11.449667827251144"><ele>211.66666666666669</ele><time>2026-04-11T04:39:52Z</time></trkpt><trkpt lat="43.33644067590606" lon="11.449548084370699"><ele>211.33333333333334</ele><time>2026-04-11T04:39:53Z</time></trkpt><trkpt lat="43.33646841714071" lon="11.44945384565626"><ele>211.0</ele><time>2026-04-11T04:39:54Z</time></trkpt><trkpt lat="43.33648468015243" lon="11.44934188238899"><ele>210.66666666666669</ele><time>2026-04-11T04:39:55Z</time></trkpt><trkpt lat="43.336498726346186" lon="11.449225323898657"><ele>210.33333333333334</ele><time>2026-04-11T04:39:56Z</time></trkpt><trkpt lat="43.336494437856594" lon="11.449111273849338"><ele>210.0</ele><time>2026-04-11T04:39:57Z</time></trkpt><trkpt lat="43.33650179479085" lon="11.44900349589187"><ele>210.0</ele><time>2026-04-11T04:39:58Z</time></trkpt><trkpt lat="43.33648709229264" lon="11.448892029157447"><ele>210.0</ele><time>2026-04-11T04:39:59Z</time></trkpt><trkpt lat="43.33645692229778" lon="11.448777411304025"><ele>210.0</ele><time>2026-04-11T04:40:00Z</time></trkpt><trkpt lat="43.33641935114893" lon="11.448677359517252"><ele>210.0</ele><time>2026-04-11T04:40:01Z</time></trkpt><trkpt lat="43.336378348342244" lon="11.448588313606534"><ele>210.0</ele><time>2026-04-11T04:40:02Z</time></trkpt><trkpt lat="43.33633818042629" lon="11.448497009401956"><ele>210.0</ele><time>2026-04-11T04:40:03Z</time></trkpt><trkpt lat="43.336291603313164" lon="11.44840808863175"><ele>209.5</ele><time>2026-04-11T04:40:04Z</time></trkpt><trkpt lat="43.33624791106489" lon="11.448328156179228"><ele>209.0</ele><time>2026-04-11T04:40:05Z</time></trkpt><trkpt lat="43.33620954665483" lon="11.44825484013171"><ele>208.5</ele><time>2026-04-11T04:40:06Z</time></trkpt><trkpt lat="43.33614540585331" lon="11.448113899405115"><ele>208.0</ele><time>2026-04-11T04:40:08Z</time></trkpt><trkpt lat="43.33612540228287" lon="11.448025839087597"><ele>207.5</ele><time>2026-04-11T04:40:09Z</time></trkpt><trkpt lat="43.33614821411465" lon="11.44792750504892"><ele>207.0</ele><time>2026-04-11T04:40:10Z</time></trkpt><trkpt lat="43.336184042866876" lon="11.447836805047855"><ele>207.00000000000003</ele><time>2026-04-11T04:40:11Z</time></trkpt><trkpt lat="43.336209102134056" lon="11.447739858884326"><ele>207.0</ele><time>2026-04-11T04:40:12Z</time></trkpt><trkpt lat="43.336247461194944" lon="11.4476637224353"><ele>207.0</ele><time>2026-04-11T04:40:12.999Z</time></trkpt><trkpt lat="43.33628414618414" lon="11.447581637715176"><ele>207.0</ele><time>2026-04-11T04:40:13.999Z</time></trkpt><trkpt lat="43.336336608919" lon="11.447513088131753"><ele>207.0</ele><time>2026-04-11T04:40:14.999Z</time></trkpt><trkpt lat="43.33637521666376" lon="11.447435463022176"><ele>207.00000000000003</ele><time>2026-04-11T04:40:15.999Z</time></trkpt><trkpt lat="43.33640581978838" lon="11.447343311439894"><ele>207.0</ele><time>2026-04-11T04:40:16.999Z</time></trkpt><trkpt lat="43.33643461670525" lon="11.44725502092984"><ele>207.16666666666666</ele><time>2026-04-11T04:40:17.999Z</time></trkpt><trkpt lat="43.336458849030144" lon="11.447167134433222"><ele>207.33333333333331</ele><time>2026-04-11T04:40:18.999Z</time></trkpt><trkpt lat="43.33647691365727" lon="11.447082603298353"><ele>207.5</ele><time>2026-04-11T04:40:19.999Z</time></trkpt><trkpt lat="43.336485286020306" lon="11.446990476080908"><ele>207.66666666666666</ele><time>2026-04-11T04:40:20.999Z</time></trkpt><trkpt lat="43.33647265980333" lon="11.446821568799653"><ele>207.83333333333331</ele><time>2026-04-11T04:40:22.999Z</time></trkpt><trkpt lat="43.33645481574337" lon="11.446676817529106"><ele>208.0</ele><time>2026-04-11T04:40:24.999Z</time></trkpt><trkpt lat="43.33642797885134" lon="11.446553885561963"><ele>207.99999999999997</ele><time>2026-04-11T04:40:26.999Z</time></trkpt><trkpt lat="43.33639889427574" lon="11.446432993147651"><ele>208.0</ele><time>2026-04-11T04:40:28.999Z</time></trkpt><trkpt lat="43.33637209927933" lon="11.446327373503298"><ele>208.0</ele><time>2026-04-11T04:40:30.999Z</time></trkpt><trkpt lat="43.33634702042962" lon="11.446215791243581"><ele>208.0</ele><time>2026-04-11T04:40:32.999Z</time></trkpt><trkpt lat="43.33631564117064" lon="11.446103075684311"><ele>207.99999999999997</ele><time>2026-04-11T04:40:34.999Z</time></trkpt><trkpt lat="43.33629866369137" lon="11.445989041121509"><ele>208.0</ele><time>2026-04-11T04:40:36.999Z</time></trkpt><trkpt lat="43.33627763230808" lon="11.445889788061747"><ele>208.99999999999997</ele><time>2026-04-11T04:40:38.999Z</time></trkpt><trkpt lat="43.33625519365892" lon="11.445794598457349"><ele>210.0</ele><time>2026-04-11T04:40:40.999Z</time></trkpt><trkpt lat="43.33621798669663" lon="11.445683349794324"><ele>211.0</ele><time>2026-04-11T04:40:43.999Z</time></trkpt><trkpt lat="43.3361872796274" lon="11.445574656755188"><ele>212.0</ele><time>2026-04-11T04:40:46.999Z</time></trkpt><trkpt lat="43.33615569739253" lon="11.445475940262753"><ele>212.99999999999997</ele><time>2026-04-11T04:40:49.999Z</time></trkpt><trkpt lat="43.33610677923863" lon="11.445377267731203"><ele>214.0</ele><time>2026-04-11T04:40:52.999Z</time></trkpt><trkpt lat="43.33605939161157" lon="11.445264593189544"><ele>215.16666666666666</ele><time>2026-04-11T04:40:55.999Z</time></trkpt><trkpt lat="43.336024239241866" lon="11.445168823707862"><ele>216.33333333333331</ele><time>2026-04-11T04:40:59.999Z</time></trkpt><trkpt lat="43.33598324187391" lon="11.445078569765313"><ele>217.5</ele><time>2026-04-11T04:41:02.999Z</time></trkpt><trkpt lat="43.335930367423124" lon="11.444971042152687"><ele>218.66666666666669</ele><time>2026-04-11T04:41:04.999Z</time></trkpt><trkpt lat="43.33588655279103" lon="11.444895455317136"><ele>219.83333333333334</ele><time>2026-04-11T04:41:06.999Z</time></trkpt><trkpt lat="43.33585032496685" lon="11.444817749233332"><ele>221.0</ele><time>2026-04-11T04:41:08.999Z</time></trkpt><trkpt lat="43.33581276092881" lon="11.444738758922488"><ele>221.00000000000003</ele><time>2026-04-11T04:41:10.999Z</time></trkpt><trkpt lat="43.335777045754064" lon="11.444652786153219"><ele>221.0</ele><time>2026-04-11T04:41:13Z</time></trkpt><trkpt lat="43.33573838285228" lon="11.444576258993264"><ele>221.0</ele><time>2026-04-11T04:41:15Z</time></trkpt><trkpt lat="43.33570129927969" lon="11.444494341089598"><ele>221.0</ele><time>2026-04-11T04:41:17Z</time></trkpt><trkpt lat="43.33565403295136" lon="11.444421043881155"><ele>221.00000000000003</ele><time>2026-04-11T04:41:19Z</time></trkpt><trkpt lat="43.33559981145545" lon="11.444315017702824"><ele>221.0</ele><time>2026-04-11T04:41:22Z</time></trkpt><trkpt lat="43.33554463007047" lon="11.444216519438815"><ele>221.00000000000003</ele><time>2026-04-11T04:41:25Z</time></trkpt><trkpt lat="43.33548834445707" lon="11.444124876654163"><ele>221.0</ele><time>2026-04-11T04:41:28Z</time></trkpt><trkpt lat="43.33543483217049" lon="11.444029101507857"><ele>221.0</ele><time>2026-04-11T04:41:31Z</time></trkpt><trkpt lat="43.33539926495104" lon="11.443956945201641"><ele>221.0</ele><time>2026-04-11T04:41:33Z</time></trkpt><trkpt lat="43.33534993521736" lon="11.443858095211219"><ele>221.00000000000003</ele><time>2026-04-11T04:41:36Z</time></trkpt><trkpt lat="43.33529198421675" lon="11.443758785428063"><ele>221.0</ele><time>2026-04-11T04:41:39Z</time></trkpt><trkpt lat="43.33523589734714" lon="11.443664502694077"><ele>221.00000000000003</ele><time>2026-04-11T04:41:42Z</time></trkpt><trkpt lat="43.335190728181985" lon="11.443561756623769"><ele>221.0</ele><time>2026-04-11T04:41:45Z</time></trkpt><trkpt lat="43.335154487939555" lon="11.443454157648526"><ele>221.0</ele><time>2026-04-11T04:41:47Z</time></trkpt><trkpt lat="43.33512107765136" lon="11.443312045990938"><ele>221.0</ele><time>2026-04-11T04:41:49Z</time></trkpt><trkpt lat="43.335106598301465" lon="11.443226666730551"><ele>221.00000000000003</ele><time>2026-04-11T04:41:50Z</time></trkpt><trkpt lat="43.33512478461527" lon="11.443124822690281"><ele>221.0</ele><time>2026-04-11T04:41:51Z</time></trkpt><trkpt lat="43.335132226085506" lon="11.443022279202328"><ele>219.20000000000002</ele><time>2026-04-11T04:41:52Z</time></trkpt><trkpt lat="43.33514517259542" lon="11.442901450057471"><ele>217.40000000000003</ele><time>2026-04-11T04:41:53Z</time></trkpt><trkpt lat="43.33517524701277" lon="11.442774506478429"><ele>215.6</ele><time>2026-04-11T04:41:54Z</time></trkpt><trkpt lat="43.335214057987905" lon="11.442631792533062"><ele>213.8</ele><time>2026-04-11T04:41:55Z</time></trkpt><trkpt lat="43.33524330024026" lon="11.442484009397543"><ele>212.0</ele><time>2026-04-11T04:41:56Z</time></trkpt><trkpt lat="43.33527332533707" lon="11.442338916280528"><ele>212.0</ele><time>2026-04-11T04:41:57Z</time></trkpt><trkpt lat="43.33531537380015" lon="11.442188104231352"><ele>212.0</ele><time>2026-04-11T04:41:58Z</time></trkpt><trkpt lat="43.33532499893768" lon="11.442035386386475"><ele>212.0</ele><time>2026-04-11T04:41:59Z</time></trkpt><trkpt lat="43.335320606219156" lon="11.44188712670691"><ele>212.0</ele><time>2026-04-11T04:42:00Z</time></trkpt><trkpt lat="43.335291005497325" lon="11.44174337572014"><ele>212.0</ele><time>2026-04-11T04:42:01Z</time></trkpt><trkpt lat="43.335223369926844" lon="11.44163277461508"><ele>212.00000000000003</ele><time>2026-04-11T04:42:02Z</time></trkpt><trkpt lat="43.33519594359175" lon="11.441513105368966"><ele>212.0</ele><time>2026-04-11T04:42:03Z</time></trkpt><trkpt lat="43.33516149345243" lon="11.441406969026325"><ele>212.0</ele><time>2026-04-11T04:42:04Z</time></trkpt><trkpt lat="43.33513424084754" lon="11.44130721355002"><ele>212.0</ele><time>2026-04-11T04:42:05Z</time></trkpt><trkpt lat="43.335129806595056" lon="11.441214047451592"><ele>212.00000000000003</ele><time>2026-04-11T04:42:06Z</time></trkpt><trkpt lat="43.33513424603213" lon="11.441057727365415"><ele>212.0</ele><time>2026-04-11T04:42:08Z</time></trkpt><trkpt lat="43.335143406938776" lon="11.44093047232313"><ele>213.16666666666669</ele><time>2026-04-11T04:42:10Z</time></trkpt><trkpt lat="43.33515013899701" lon="11.440806252090134"><ele>214.33333333333334</ele><time>2026-04-11T04:42:12Z</time></trkpt><trkpt lat="43.33513406804036" lon="11.440702312326533"><ele>215.5</ele><time>2026-04-11T04:42:14Z</time></trkpt><trkpt lat="43.33514176003762" lon="11.440610346364199"><ele>216.66666666666669</ele><time>2026-04-11T04:42:16Z</time></trkpt><trkpt lat="43.33512945822525" lon="11.440489234961255"><ele>217.83333333333334</ele><time>2026-04-11T04:42:19Z</time></trkpt><trkpt lat="43.33511116354798" lon="11.440379242275904"><ele>219.0</ele><time>2026-04-11T04:42:22Z</time></trkpt><trkpt lat="43.33509051254306" lon="11.440292266578298"><ele>219.85714285714286</ele><time>2026-04-11T04:42:25Z</time></trkpt><trkpt lat="43.33506107249276" lon="11.440185409998831"><ele>220.71428571428572</ele><time>2026-04-11T04:42:28.999Z</time></trkpt><trkpt lat="43.33503657444568" lon="11.440104428556369"><ele>221.57142857142858</ele><time>2026-04-11T04:42:32.999Z</time></trkpt><trkpt lat="43.33500926214335" lon="11.440016696264596"><ele>222.42857142857144</ele><time>2026-04-11T04:42:36.999Z</time></trkpt><trkpt lat="43.33498341754435" lon="11.439937312335989"><ele>223.28571428571428</ele><time>2026-04-11T04:42:40.999Z</time></trkpt><trkpt lat="43.334956626752835" lon="11.439858628378794"><ele>224.14285714285717</ele><time>2026-04-11T04:42:44.999Z</time></trkpt><trkpt lat="43.33492537443079" lon="11.439772568876949"><ele>225.00000000000003</ele><time>2026-04-11T04:42:48.999Z</time></trkpt><trkpt lat="43.33488651762904" lon="11.439673602197198"><ele>224.83333333333334</ele><time>2026-04-11T04:42:53.999Z</time></trkpt><trkpt lat="43.33484578610287" lon="11.439584683123824"><ele>224.66666666666669</ele><time>2026-04-11T04:42:57.999Z</time></trkpt><trkpt lat="43.33478941269735" lon="11.439542066679673"><ele>224.5</ele><time>2026-04-11T04:43:00.999Z</time></trkpt><trkpt lat="43.33474323082844" lon="11.43944738274302"><ele>224.33333333333334</ele><time>2026-04-11T04:43:04.999Z</time></trkpt><trkpt lat="43.3347106207549" lon="11.439354384124771"><ele>224.16666666666669</ele><time>2026-04-11T04:43:07.999Z</time></trkpt><trkpt lat="43.33465859340785" lon="11.439257173540987"><ele>224.0</ele><time>2026-04-11T04:43:12.999Z</time></trkpt><trkpt lat="43.33460842398821" lon="11.439184739494586"><ele>225.33333333333334</ele><time>2026-04-11T04:43:15.999Z</time></trkpt><trkpt lat="43.33456882589919" lon="11.439104338585151"><ele>226.66666666666669</ele><time>2026-04-11T04:43:20Z</time></trkpt><trkpt lat="43.334511080662175" lon="11.439003442912494"><ele>228.0</ele><time>2026-04-11T04:43:24Z</time></trkpt><trkpt lat="43.33447345668799" lon="11.438933958526153"><ele>229.33333333333331</ele><time>2026-04-11T04:43:27Z</time></trkpt><trkpt lat="43.33443025299108" lon="11.438854906122224"><ele>230.66666666666666</ele><time>2026-04-11T04:43:30Z</time></trkpt><trkpt lat="43.33436897979551" lon="11.438785850384864"><ele>232.0</ele><time>2026-04-11T04:43:33Z</time></trkpt><trkpt lat="43.33429718948337" lon="11.438748524482731"><ele>231.99999999999997</ele><time>2026-04-11T04:43:36Z</time></trkpt><trkpt lat="43.33421613734234" lon="11.43871426993119"><ele>232.0</ele><time>2026-04-11T04:43:39Z</time></trkpt><trkpt lat="43.33413153617556" lon="11.438687984064053"><ele>232.0</ele><time>2026-04-11T04:43:42Z</time></trkpt><trkpt lat="43.33404903785486" lon="11.438649784571115"><ele>232.0</ele><time>2026-04-11T04:43:45Z</time></trkpt><trkpt lat="43.333976593903806" lon="11.438599917383925"><ele>231.99999999999997</ele><time>2026-04-11T04:43:48Z</time></trkpt><trkpt lat="43.33391629253403" lon="11.438543926045499"><ele>232.0</ele><time>2026-04-11T04:43:51Z</time></trkpt><trkpt lat="43.33386527751559" lon="11.438480529340088"><ele>232.5714285714286</ele><time>2026-04-11T04:43:54Z</time></trkpt><trkpt lat="43.33381276230443" lon="11.438407045521608"><ele>233.14285714285717</ele><time>2026-04-11T04:43:57Z</time></trkpt><trkpt lat="43.33375978806064" lon="11.438324002933221"><ele>233.71428571428572</ele><time>2026-04-11T04:44:00Z</time></trkpt><trkpt lat="43.333716410914036" lon="11.43823369943354"><ele>234.2857142857143</ele><time>2026-04-11T04:44:03Z</time></trkpt><trkpt lat="43.33368522831617" lon="11.438143956139843"><ele>234.8571428571429</ele><time>2026-04-11T04:44:06Z</time></trkpt><trkpt lat="43.33366756246282" lon="11.438048514791499"><ele>235.42857142857142</ele><time>2026-04-11T04:44:09Z</time></trkpt><trkpt lat="43.33365011959987" lon="11.437961504914767"><ele>236.0</ele><time>2026-04-11T04:44:12Z</time></trkpt><trkpt lat="43.33364257820013" lon="11.4378684977588"><ele>236.66666666666669</ele><time>2026-04-11T04:44:15Z</time></trkpt><trkpt lat="43.33363433246962" lon="11.437774358095162"><ele>237.33333333333334</ele><time>2026-04-11T04:44:18Z</time></trkpt><trkpt lat="43.33363446723855" lon="11.437665443774039"><ele>238.0</ele><time>2026-04-11T04:44:22Z</time></trkpt><trkpt lat="43.33363813912651" lon="11.437558488574602"><ele>238.66666666666669</ele><time>2026-04-11T04:44:26Z</time></trkpt><trkpt lat="43.33363500190589" lon="11.437454281493393"><ele>239.33333333333334</ele><time>2026-04-11T04:44:30Z</time></trkpt><trkpt lat="43.33363424176346" lon="11.437342995284464"><ele>240.0</ele><time>2026-04-11T04:44:33.999Z</time></trkpt><trkpt lat="43.33363129030551" lon="11.437240610515998"><ele>240.5</ele><time>2026-04-11T04:44:37.999Z</time></trkpt><trkpt lat="43.33363413273713" lon="11.437126527436885"><ele>241.0</ele><time>2026-04-11T04:44:41.999Z</time></trkpt><trkpt lat="43.333618094998705" lon="11.43703928091138"><ele>241.5</ele><time>2026-04-11T04:44:44.999Z</time></trkpt><trkpt lat="43.33359973626844" lon="11.436935867990865"><ele>242.0</ele><time>2026-04-11T04:44:47.999Z</time></trkpt><trkpt lat="43.333583521517376" lon="11.436826742297955"><ele>242.5</ele><time>2026-04-11T04:44:50.999Z</time></trkpt><trkpt lat="43.33356441641514" lon="11.436707675722722"><ele>243.0</ele><time>2026-04-11T04:44:53.999Z</time></trkpt><trkpt lat="43.3335486307039" lon="11.436620213220642"><ele>243.0</ele><time>2026-04-11T04:44:55.999Z</time></trkpt><trkpt lat="43.333543929089565" lon="11.436527239608774"><ele>243.0</ele><time>2026-04-11T04:44:57.999Z</time></trkpt><trkpt lat="43.333530608024965" lon="11.4364314590015"><ele>243.0</ele><time>2026-04-11T04:44:59.999Z</time></trkpt><trkpt lat="43.33352419995859" lon="11.436324602254043"><ele>243.0</ele><time>2026-04-11T04:45:01.999Z</time></trkpt><trkpt lat="43.333518729993806" lon="11.436215109595306"><ele>243.0</ele><time>2026-04-11T04:45:03.999Z</time></trkpt><trkpt lat="43.33350953910752" lon="11.43609295322413"><ele>243.0</ele><time>2026-04-11T04:45:05.999Z</time></trkpt><trkpt lat="43.333506243770444" lon="11.435964699077118"><ele>242.8</ele><time>2026-04-11T04:45:07.999Z</time></trkpt><trkpt lat="43.33348617402274" lon="11.435831118882799"><ele>242.60000000000002</ele><time>2026-04-11T04:45:09.999Z</time></trkpt><trkpt lat="43.333485201648706" lon="11.435695655894529"><ele>242.39999999999998</ele><time>2026-04-11T04:45:11.999Z</time></trkpt><trkpt lat="43.3335106436648" lon="11.435581536879658"><ele>242.2</ele><time>2026-04-11T04:45:13.999Z</time></trkpt><trkpt lat="43.33354362494351" lon="11.435459101738436"><ele>242.0</ele><time>2026-04-11T04:45:15.999Z</time></trkpt><trkpt lat="43.33358848206078" lon="11.435363202633962"><ele>241.50000000000003</ele><time>2026-04-11T04:45:17.999Z</time></trkpt><trkpt lat="43.333635744838055" lon="11.435250087834238"><ele>241.0</ele><time>2026-04-11T04:45:19.999Z</time></trkpt><trkpt lat="43.33367855724329" lon="11.43514063872144"><ele>240.5</ele><time>2026-04-11T04:45:21.999Z</time></trkpt><trkpt lat="43.33371958933301" lon="11.43503202350348"><ele>240.0</ele><time>2026-04-11T04:45:24Z</time></trkpt><trkpt lat="43.333748849715946" lon="11.434929085545503"><ele>239.50000000000003</ele><time>2026-04-11T04:45:26Z</time></trkpt><trkpt lat="43.33377318627078" lon="11.434809157316856"><ele>239.0</ele><time>2026-04-11T04:45:28Z</time></trkpt><trkpt lat="43.33380054132538" lon="11.434703732835812"><ele>239.5714285714286</ele><time>2026-04-11T04:45:30Z</time></trkpt><trkpt lat="43.333829113178346" lon="11.434591927212015"><ele>240.14285714285717</ele><time>2026-04-11T04:45:32Z</time></trkpt><trkpt lat="43.333856492016615" lon="11.434490609248217"><ele>240.71428571428572</ele><time>2026-04-11T04:45:34Z</time></trkpt><trkpt lat="43.333872316444605" lon="11.434395623354572"><ele>241.2857142857143</ele><time>2026-04-11T04:45:36Z</time></trkpt><trkpt lat="43.33388612933318" lon="11.43430479891601"><ele>241.8571428571429</ele><time>2026-04-11T04:45:38Z</time></trkpt><trkpt lat="43.33388950699301" lon="11.43421347418409"><ele>242.42857142857142</ele><time>2026-04-11T04:45:40Z</time></trkpt><trkpt lat="43.333881590817064" lon="11.434120134760892"><ele>243.0</ele><time>2026-04-11T04:45:42Z</time></trkpt><trkpt lat="43.333861572799975" lon="11.434037066080595"><ele>243.0</ele><time>2026-04-11T04:45:44Z</time></trkpt><trkpt lat="43.33383728207352" lon="11.433952558813633"><ele>243.0</ele><time>2026-04-11T04:45:46Z</time></trkpt><trkpt lat="43.33380342428563" lon="11.433875428800633"><ele>243.0</ele><time>2026-04-11T04:45:48Z</time></trkpt><trkpt lat="43.33377014215279" lon="11.433800442824733"><ele>243.0</ele><time>2026-04-11T04:45:50Z</time></trkpt><trkpt lat="43.3337323427712" lon="11.433729193754585"><ele>243.0</ele><time>2026-04-11T04:45:52Z</time></trkpt><trkpt lat="43.33368874114672" lon="11.433623911421966"><ele>243.0</ele><time>2026-04-11T04:45:55Z</time></trkpt><trkpt lat="43.33363840602395" lon="11.433521135172434"><ele>243.0</ele><time>2026-04-11T04:45:58Z</time></trkpt><trkpt lat="43.33360156082795" lon="11.433447824641714"><ele>244.16666666666666</ele><time>2026-04-11T04:46:00Z</time></trkpt><trkpt lat="43.33355208392782" lon="11.433343502990725"><ele>245.33333333333331</ele><time>2026-04-11T04:46:03Z</time></trkpt><trkpt lat="43.33360500372025" lon="11.433246396780754"><ele>246.5</ele><time>2026-04-11T04:46:06Z</time></trkpt><trkpt lat="43.33366983586526" lon="11.43320613727963"><ele>247.66666666666666</ele><time>2026-04-11T04:46:08Z</time></trkpt><trkpt lat="43.33373285471137" lon="11.433174752528974"><ele>248.83333333333331</ele><time>2026-04-11T04:46:10Z</time></trkpt><trkpt lat="43.33379752623744" lon="11.433139177837084"><ele>250.0</ele><time>2026-04-11T04:46:12Z</time></trkpt><trkpt lat="43.33386064721737" lon="11.433101554918135"><ele>249.99999999999997</ele><time>2026-04-11T04:46:14Z</time></trkpt><trkpt lat="43.33392370951091" lon="11.433064136946484"><ele>250.0</ele><time>2026-04-11T04:46:16Z</time></trkpt><trkpt lat="43.33399167996277" lon="11.433027779679628"><ele>250.0</ele><time>2026-04-11T04:46:18Z</time></trkpt><trkpt lat="43.33406361359489" lon="11.432988571591078"><ele>250.0</ele><time>2026-04-11T04:46:20Z</time></trkpt><trkpt lat="43.334133991915294" lon="11.4329482553801"><ele>249.99999999999997</ele><time>2026-04-11T04:46:22Z</time></trkpt><trkpt lat="43.334208858762565" lon="11.432912659733946"><ele>250.0</ele><time>2026-04-11T04:46:24Z</time></trkpt><trkpt lat="43.33428052605094" lon="11.432872598812098"><ele>250.16666666666666</ele><time>2026-04-11T04:46:26Z</time></trkpt><trkpt lat="43.334354152140605" lon="11.432832781071186"><ele>250.33333333333331</ele><time>2026-04-11T04:46:28Z</time></trkpt><trkpt lat="43.33442796798362" lon="11.432793611592073"><ele>250.5</ele><time>2026-04-11T04:46:30Z</time></trkpt><trkpt lat="43.3345060368904" lon="11.432754276679274"><ele>250.66666666666669</ele><time>2026-04-11T04:46:32Z</time></trkpt><trkpt lat="43.33458634983819" lon="11.432708894696598"><ele>250.83333333333334</ele><time>2026-04-11T04:46:33.999Z</time></trkpt><trkpt lat="43.33466751412364" lon="11.432663412200329"><ele>251.0</ele><time>2026-04-11T04:46:35.999Z</time></trkpt><trkpt lat="43.33474693632725" lon="11.432619530370301"><ele>251.16666666666669</ele><time>2026-04-11T04:46:37.999Z</time></trkpt><trkpt lat="43.33482531695677" lon="11.432571249729275"><ele>251.33333333333334</ele><time>2026-04-11T04:46:39.999Z</time></trkpt><trkpt lat="43.33490123496585" lon="11.432525310629412"><ele>251.5</ele><time>2026-04-11T04:46:41.999Z</time></trkpt><trkpt lat="43.33498301677034" lon="11.432483865215902"><ele>251.66666666666669</ele><time>2026-04-11T04:46:43.999Z</time></trkpt><trkpt lat="43.33506200048782" lon="11.432443018268387"><ele>251.83333333333334</ele><time>2026-04-11T04:46:45.999Z</time></trkpt><trkpt lat="43.335140694789864" lon="11.432398500501394"><ele>252.0</ele><time>2026-04-11T04:46:47.999Z</time></trkpt><trkpt lat="43.33521928006707" lon="11.432353911330178"><ele>252.0</ele><time>2026-04-11T04:46:49.999Z</time></trkpt><trkpt lat="43.33529689895658" lon="11.432307359295166"><ele>252.0</ele><time>2026-04-11T04:46:51.999Z</time></trkpt><trkpt lat="43.335375998064876" lon="11.432262602942465"><ele>252.0</ele><time>2026-04-11T04:46:53.999Z</time></trkpt><trkpt lat="43.33545449628766" lon="11.43221751285404"><ele>252.0</ele><time>2026-04-11T04:46:55.999Z</time></trkpt><trkpt lat="43.335534095211784" lon="11.43217446554836"><ele>252.0</ele><time>2026-04-11T04:46:57.999Z</time></trkpt><trkpt lat="43.33561401719802" lon="11.432132298159877"><ele>252.0</ele><time>2026-04-11T04:46:59.999Z</time></trkpt><trkpt lat="43.33569492208392" lon="11.432090458649345"><ele>252.8</ele><time>2026-04-11T04:47:01.999Z</time></trkpt><trkpt lat="43.335775887709126" lon="11.432043142007705"><ele>253.6</ele><time>2026-04-11T04:47:03.999Z</time></trkpt><trkpt lat="43.335858050687754" lon="11.431995125312804"><ele>254.40000000000003</ele><time>2026-04-11T04:47:05.999Z</time></trkpt><trkpt lat="43.33594756184713" lon="11.431948253113552"><ele>255.20000000000002</ele><time>2026-04-11T04:47:07.999Z</time></trkpt><trkpt lat="43.33603736776349" lon="11.431896794917906"><ele>256.0</ele><time>2026-04-11T04:47:09.999Z</time></trkpt><trkpt lat="43.336133285730895" lon="11.431846443253292"><ele>256.0</ele><time>2026-04-11T04:47:11.999Z</time></trkpt><trkpt lat="43.33622654889051" lon="11.431790458265395"><ele>256.0</ele><time>2026-04-11T04:47:13.999Z</time></trkpt><trkpt lat="43.33632950566759" lon="11.431735241127647"><ele>256.0</ele><time>2026-04-11T04:47:15.999Z</time></trkpt><trkpt lat="43.336442107430344" lon="11.431672989163781"><ele>256.0</ele><time>2026-04-11T04:47:17.999Z</time></trkpt><trkpt lat="43.33655692731019" lon="11.431613381238446"><ele>255.42857142857142</ele><time>2026-04-11T04:47:19.999Z</time></trkpt><trkpt lat="43.336616172989956" lon="11.431579193896305"><ele>254.85714285714283</ele><time>2026-04-11T04:47:20.999Z</time></trkpt><trkpt lat="43.336675942053986" lon="11.431549329412565"><ele>254.28571428571428</ele><time>2026-04-11T04:47:21.999Z</time></trkpt><trkpt lat="43.336739444045854" lon="11.431517325197689"><ele>253.71428571428572</ele><time>2026-04-11T04:47:22.999Z</time></trkpt><trkpt lat="43.33680178093747" lon="11.431487139755633"><ele>253.14285714285714</ele><time>2026-04-11T04:47:23.999Z</time></trkpt><trkpt lat="43.33686346347002" lon="11.431460676369763"><ele>252.57142857142856</ele><time>2026-04-11T04:47:24.999Z</time></trkpt><trkpt lat="43.33692790667438" lon="11.43143556238344"><ele>252.0</ele><time>2026-04-11T04:47:25.999Z</time></trkpt><trkpt lat="43.336992137989164" lon="11.431413184774208"><ele>252.0</ele><time>2026-04-11T04:47:26.999Z</time></trkpt><trkpt lat="43.337115117294516" lon="11.431390437549215"><ele>252.0</ele><time>2026-04-11T04:47:28.999Z</time></trkpt><trkpt lat="43.33717946131966" lon="11.431392618602679"><ele>252.0</ele><time>2026-04-11T04:47:30Z</time></trkpt><trkpt lat="43.33730254581632" lon="11.431400785960768"><ele>252.0</ele><time>2026-04-11T04:47:32Z</time></trkpt><trkpt lat="43.33742418356138" lon="11.431398011113407"><ele>252.0</ele><time>2026-04-11T04:47:34Z</time></trkpt><trkpt lat="43.33754228936796" lon="11.431394179712674"><ele>251.0</ele><time>2026-04-11T04:47:36Z</time></trkpt><trkpt lat="43.33766211098432" lon="11.431394518716365"><ele>250.0</ele><time>2026-04-11T04:47:38Z</time></trkpt><trkpt lat="43.3377819789783" lon="11.43140250390943"><ele>249.0</ele><time>2026-04-11T04:47:40Z</time></trkpt><trkpt lat="43.337898757277685" lon="11.431399457358996"><ele>248.0</ele><time>2026-04-11T04:47:42Z</time></trkpt><trkpt lat="43.33801361951521" lon="11.431409117140532"><ele>248.5</ele><time>2026-04-11T04:47:44Z</time></trkpt><trkpt lat="43.338129329933025" lon="11.43142248271979"><ele>249.0</ele><time>2026-04-11T04:47:46Z</time></trkpt><trkpt lat="43.33824735531907" lon="11.431447203910617"><ele>249.5</ele><time>2026-04-11T04:47:48Z</time></trkpt><trkpt lat="43.33836167187799" lon="11.431499261658777"><ele>250.0</ele><time>2026-04-11T04:47:50Z</time></trkpt><trkpt lat="43.338466528939406" lon="11.431574612476037"><ele>250.0</ele><time>2026-04-11T04:47:52Z</time></trkpt><trkpt lat="43.33855758005219" lon="11.431662387286975"><ele>250.0</ele><time>2026-04-11T04:47:54Z</time></trkpt><trkpt lat="43.33864312929998" lon="11.431752751911386"><ele>250.0</ele><time>2026-04-11T04:47:56Z</time></trkpt><trkpt lat="43.33872535042042" lon="11.431848162941948"><ele>250.0</ele><time>2026-04-11T04:47:58Z</time></trkpt><trkpt lat="43.33880908043628" lon="11.431945121655305"><ele>250.0</ele><time>2026-04-11T04:48:00Z</time></trkpt><trkpt lat="43.33889393999946" lon="11.43204469924031"><ele>250.0</ele><time>2026-04-11T04:48:02Z</time></trkpt><trkpt lat="43.33897845005203" lon="11.432143301599387"><ele>250.0</ele><time>2026-04-11T04:48:04Z</time></trkpt><trkpt lat="43.33906098177499" lon="11.432241649108871"><ele>250.0</ele><time>2026-04-11T04:48:06Z</time></trkpt><trkpt lat="43.33914352019413" lon="11.432339162613717"><ele>250.0</ele><time>2026-04-11T04:48:08Z</time></trkpt><trkpt lat="43.33922775005968" lon="11.43244552224886"><ele>250.0</ele><time>2026-04-11T04:48:10Z</time></trkpt><trkpt lat="43.33930756008152" lon="11.432566147494509"><ele>249.99999999999997</ele><time>2026-04-11T04:48:12Z</time></trkpt><trkpt lat="43.33938102111859" lon="11.432701147592814"><ele>250.0</ele><time>2026-04-11T04:48:14Z</time></trkpt><trkpt lat="43.33941982168243" lon="11.432771763933404"><ele>250.0</ele><time>2026-04-11T04:48:15Z</time></trkpt><trkpt lat="43.339456897514204" lon="11.432845951254269"><ele>250.0</ele><time>2026-04-11T04:48:16Z</time></trkpt><trkpt lat="43.33949312123542" lon="11.432921664086626"><ele>249.99999999999997</ele><time>2026-04-11T04:48:17Z</time></trkpt><trkpt lat="43.33952817309402" lon="11.432999177108906"><ele>250.0</ele><time>2026-04-11T04:48:18Z</time></trkpt><trkpt lat="43.33956083342757" lon="11.433078054876578"><ele>249.85714285714283</ele><time>2026-04-11T04:48:19Z</time></trkpt><trkpt lat="43.339593906551634" lon="11.433158259587955"><ele>249.71428571428572</ele><time>2026-04-11T04:48:20Z</time></trkpt><trkpt lat="43.33962768165619" lon="11.433239892679895"><ele>249.57142857142856</ele><time>2026-04-11T04:48:21Z</time></trkpt><trkpt lat="43.33966342484321" lon="11.433321981843738"><ele>249.42857142857142</ele><time>2026-04-11T04:48:22Z</time></trkpt><trkpt lat="43.33969720043231" lon="11.433404652818826"><ele>249.28571428571428</ele><time>2026-04-11T04:48:23Z</time></trkpt><trkpt lat="43.33973110365901" lon="11.433487261374006"><ele>249.14285714285714</ele><time>2026-04-11T04:48:24Z</time></trkpt><trkpt lat="43.33976280804259" lon="11.433573866679733"><ele>249.0</ele><time>2026-04-11T04:48:25Z</time></trkpt><trkpt lat="43.33979461665776" lon="11.433661075175344"><ele>249.0</ele><time>2026-04-11T04:48:26Z</time></trkpt><trkpt lat="43.33982788397456" lon="11.433745952572762"><ele>248.99999999999997</ele><time>2026-04-11T04:48:27Z</time></trkpt><trkpt lat="43.33986284204436" lon="11.433828855301156"><ele>249.0</ele><time>2026-04-11T04:48:28Z</time></trkpt><trkpt lat="43.33990090817962" lon="11.433913851808127"><ele>249.0</ele><time>2026-04-11T04:48:29Z</time></trkpt><trkpt lat="43.33993750144572" lon="11.433993510092924"><ele>248.99999999999997</ele><time>2026-04-11T04:48:30Z</time></trkpt><trkpt lat="43.33997806663172" lon="11.434072292545094"><ele>249.0</ele><time>2026-04-11T04:48:31Z</time></trkpt><trkpt lat="43.340018981648576" lon="11.434157391171068"><ele>249.0</ele><time>2026-04-11T04:48:32Z</time></trkpt><trkpt lat="43.34006026196662" lon="11.434242243804052"><ele>249.0</ele><time>2026-04-11T04:48:32.999Z</time></trkpt><trkpt lat="43.34009992731768" lon="11.434325279624979"><ele>248.99999999999997</ele><time>2026-04-11T04:48:33.999Z</time></trkpt><trkpt lat="43.340144557473046" lon="11.434406504464327"><ele>249.0</ele><time>2026-04-11T04:48:34.999Z</time></trkpt><trkpt lat="43.340196610844856" lon="11.434479026273783"><ele>249.0</ele><time>2026-04-11T04:48:35.999Z</time></trkpt><trkpt lat="43.3402517357887" lon="11.434543700391734"><ele>248.99999999999997</ele><time>2026-04-11T04:48:36.999Z</time></trkpt><trkpt lat="43.34031866620832" lon="11.434595714249497"><ele>249.0</ele><time>2026-04-11T04:48:37.999Z</time></trkpt><trkpt lat="43.340387090894374" lon="11.434633322608493"><ele>249.0</ele><time>2026-04-11T04:48:38.999Z</time></trkpt><trkpt lat="43.34046260154536" lon="11.434648252776176"><ele>248.83333333333334</ele><time>2026-04-11T04:48:39.999Z</time></trkpt><trkpt lat="43.340540971116816" lon="11.434654485786897"><ele>248.66666666666669</ele><time>2026-04-11T04:48:40.999Z</time></trkpt><trkpt lat="43.34061613476505" lon="11.434652143576221"><ele>248.5</ele><time>2026-04-11T04:48:41.999Z</time></trkpt><trkpt lat="43.34068999304191" lon="11.434638838198627"><ele>248.33333333333334</ele><time>2026-04-11T04:48:42.999Z</time></trkpt><trkpt lat="43.34076086224275" lon="11.4346107388151"><ele>248.16666666666669</ele><time>2026-04-11T04:48:43.999Z</time></trkpt><trkpt lat="43.340834515936535" lon="11.434583465834429"><ele>248.0</ele><time>2026-04-11T04:48:44.999Z</time></trkpt><trkpt lat="43.34090951040217" lon="11.434555139218723"><ele>247.50000000000003</ele><time>2026-04-11T04:48:45.999Z</time></trkpt><trkpt lat="43.34098289586356" lon="11.434531937769147"><ele>247.0</ele><time>2026-04-11T04:48:46.999Z</time></trkpt><trkpt lat="43.34105874344161" lon="11.434511884320392"><ele>246.5</ele><time>2026-04-11T04:48:47.999Z</time></trkpt><trkpt lat="43.34113283327518" lon="11.434486130372663"><ele>246.0</ele><time>2026-04-11T04:48:48.999Z</time></trkpt><trkpt lat="43.341208072209525" lon="11.434460529204623"><ele>245.50000000000003</ele><time>2026-04-11T04:48:49.999Z</time></trkpt><trkpt lat="43.34128276122438" lon="11.434431852062502"><ele>245.0</ele><time>2026-04-11T04:48:50.999Z</time></trkpt><trkpt lat="43.34135754441172" lon="11.434407466460256"><ele>245.14285714285714</ele><time>2026-04-11T04:48:51.999Z</time></trkpt><trkpt lat="43.34143128595159" lon="11.434387357751797"><ele>245.28571428571428</ele><time>2026-04-11T04:48:52.999Z</time></trkpt><trkpt lat="43.34150448984564" lon="11.434360605988358"><ele>245.42857142857144</ele><time>2026-04-11T04:48:53.999Z</time></trkpt><trkpt lat="43.34157791343229" lon="11.434333627180095"><ele>245.57142857142858</ele><time>2026-04-11T04:48:54.999Z</time></trkpt><trkpt lat="43.34164795813089" lon="11.434309446566344"><ele>245.71428571428572</ele><time>2026-04-11T04:48:55.999Z</time></trkpt><trkpt lat="43.34171809875336" lon="11.434289082123637"><ele>245.8571428571429</ele><time>2026-04-11T04:48:56.999Z</time></trkpt><trkpt lat="43.34178686457666" lon="11.434266583175704"><ele>246.00000000000003</ele><time>2026-04-11T04:48:57.999Z</time></trkpt><trkpt lat="43.34185432842748" lon="11.4342443097389"><ele>246.00000000000003</ele><time>2026-04-11T04:48:58.999Z</time></trkpt><trkpt lat="43.34192221148425" lon="11.434221334439384"><ele>246.0</ele><time>2026-04-11T04:48:59.999Z</time></trkpt><trkpt lat="43.34198624155363" lon="11.434196126800115"><ele>246.00000000000003</ele><time>2026-04-11T04:49:00.999Z</time></trkpt><trkpt lat="43.34205114008663" lon="11.434168841222812"><ele>246.00000000000003</ele><time>2026-04-11T04:49:01.999Z</time></trkpt><trkpt lat="43.34211444551402" lon="11.434147819561048"><ele>246.0</ele><time>2026-04-11T04:49:02.999Z</time></trkpt><trkpt lat="43.34217817518281" lon="11.434125925787978"><ele>246.00000000000003</ele><time>2026-04-11T04:49:03.999Z</time></trkpt><trkpt lat="43.34224068791662" lon="11.434110073456898"><ele>246.00000000000003</ele><time>2026-04-11T04:49:04.999Z</time></trkpt><trkpt lat="43.342302809166604" lon="11.434089348790016"><ele>246.25</ele><time>2026-04-11T04:49:05.999Z</time></trkpt><trkpt lat="43.342421169662735" lon="11.434048409196524"><ele>246.5</ele><time>2026-04-11T04:49:07.999Z</time></trkpt><trkpt lat="43.34253573353441" lon="11.434007537590707"><ele>246.75</ele><time>2026-04-11T04:49:09.999Z</time></trkpt><trkpt lat="43.342644291924564" lon="11.433978342340165"><ele>247.0</ele><time>2026-04-11T04:49:11.999Z</time></trkpt><trkpt lat="43.34274611155864" lon="11.43394671370248"><ele>246.99999999999997</ele><time>2026-04-11T04:49:13.999Z</time></trkpt><trkpt lat="43.342840764677966" lon="11.43391710716808"><ele>247.0</ele><time>2026-04-11T04:49:15.999Z</time></trkpt><trkpt lat="43.34292880763715" lon="11.433893263359842"><ele>247.0</ele><time>2026-04-11T04:49:17.999Z</time></trkpt><trkpt lat="43.343010214818904" lon="11.433874398325768"><ele>247.0</ele><time>2026-04-11T04:49:19.999Z</time></trkpt><trkpt lat="43.34308284185242" lon="11.433870606242138"><ele>246.99999999999997</ele><time>2026-04-11T04:49:21.999Z</time></trkpt><trkpt lat="43.34315019098007" lon="11.433877523058468"><ele>247.0</ele><time>2026-04-11T04:49:23.999Z</time></trkpt><trkpt lat="43.34323858911569" lon="11.433913504642872"><ele>247.83333333333331</ele><time>2026-04-11T04:49:26.999Z</time></trkpt><trkpt lat="43.34331859721126" lon="11.433967109632183"><ele>248.66666666666666</ele><time>2026-04-11T04:49:29.999Z</time></trkpt><trkpt lat="43.34338121254524" lon="11.434046923268376"><ele>249.5</ele><time>2026-04-11T04:49:32.999Z</time></trkpt><trkpt lat="43.34344351426758" lon="11.434120207217203"><ele>250.33333333333331</ele><time>2026-04-11T04:49:36Z</time></trkpt><trkpt lat="43.34350024315449" lon="11.43420206478263"><ele>251.16666666666666</ele><time>2026-04-11T04:49:39Z</time></trkpt><trkpt lat="43.34356377371931" lon="11.434270291053364"><ele>252.0</ele><time>2026-04-11T04:49:42Z</time></trkpt><trkpt lat="43.34361990100954" lon="11.434354523226858"><ele>252.0</ele><time>2026-04-11T04:49:45Z</time></trkpt><trkpt lat="43.34366940378673" lon="11.434437604092398"><ele>252.0</ele><time>2026-04-11T04:49:48Z</time></trkpt><trkpt lat="43.343729612546724" lon="11.434514291377507"><ele>252.0</ele><time>2026-04-11T04:49:51Z</time></trkpt><trkpt lat="43.34377666206551" lon="11.434601302453027"><ele>252.0</ele><time>2026-04-11T04:49:54Z</time></trkpt><trkpt lat="43.34382340720871" lon="11.434680845473718"><ele>252.0</ele><time>2026-04-11T04:49:57Z</time></trkpt><trkpt lat="43.34387064426185" lon="11.434757263738298"><ele>252.0</ele><time>2026-04-11T04:50:00Z</time></trkpt><trkpt lat="43.34392727482466" lon="11.43483586640656"><ele>253.0</ele><time>2026-04-11T04:50:03Z</time></trkpt><trkpt lat="43.34398517443007" lon="11.434919019673078"><ele>254.0</ele><time>2026-04-11T04:50:06Z</time></trkpt><trkpt lat="43.344046629354985" lon="11.434998743660497"><ele>255.0</ele><time>2026-04-11T04:50:09Z</time></trkpt><trkpt lat="43.34411426499882" lon="11.435069910987638"><ele>256.0</ele><time>2026-04-11T04:50:12Z</time></trkpt><trkpt lat="43.34418218548062" lon="11.435145600417385"><ele>257.0</ele><time>2026-04-11T04:50:15Z</time></trkpt><trkpt lat="43.34425224565713" lon="11.43522180836409"><ele>258.0</ele><time>2026-04-11T04:50:18Z</time></trkpt><trkpt lat="43.34432369640271" lon="11.435295113033169"><ele>257.99999999999994</ele><time>2026-04-11T04:50:21Z</time></trkpt><trkpt lat="43.34439906305139" lon="11.435365835119763"><ele>258.0</ele><time>2026-04-11T04:50:24Z</time></trkpt><trkpt lat="43.34446855455669" lon="11.4354468402583"><ele>258.0</ele><time>2026-04-11T04:50:27Z</time></trkpt><trkpt lat="43.34452460305866" lon="11.435494361768848"><ele>258.0</ele><time>2026-04-11T04:50:29Z</time></trkpt><trkpt lat="43.344582072288375" lon="11.43553736010037"><ele>258.0</ele><time>2026-04-11T04:50:31Z</time></trkpt><trkpt lat="43.34463955126689" lon="11.435573692758963"><ele>257.99999999999994</ele><time>2026-04-11T04:50:33Z</time></trkpt><trkpt lat="43.344701813066315" lon="11.435597059257047"><ele>258.0</ele><time>2026-04-11T04:50:35Z</time></trkpt><trkpt lat="43.34479709220788" lon="11.435620937136873"><ele>258.4285714285714</ele><time>2026-04-11T04:50:38Z</time></trkpt><trkpt lat="43.344864546334996" lon="11.435627868546447"><ele>258.85714285714283</ele><time>2026-04-11T04:50:40Z</time></trkpt><trkpt lat="43.34493861871906" lon="11.435633595042791"><ele>259.2857142857143</ele><time>2026-04-11T04:50:42Z</time></trkpt><trkpt lat="43.34500997277921" lon="11.435640080667756"><ele>259.71428571428567</ele><time>2026-04-11T04:50:44Z</time></trkpt><trkpt lat="43.34507997966719" lon="11.435640281691047"><ele>260.1428571428571</ele><time>2026-04-11T04:50:46Z</time></trkpt><trkpt lat="43.345151241649994" lon="11.4356395455376"><ele>260.57142857142856</ele><time>2026-04-11T04:50:47.999Z</time></trkpt><trkpt lat="43.34522689945822" lon="11.435641123844315"><ele>261.0</ele><time>2026-04-11T04:50:49.999Z</time></trkpt><trkpt lat="43.345299154646625" lon="11.435639193765065"><ele>261.0</ele><time>2026-04-11T04:50:51.999Z</time></trkpt><trkpt lat="43.34537581287983" lon="11.435641530880236"><ele>261.0</ele><time>2026-04-11T04:50:53.999Z</time></trkpt><trkpt lat="43.34545402951162" lon="11.435642848852476"><ele>261.0</ele><time>2026-04-11T04:50:55.999Z</time></trkpt><trkpt lat="43.345532703376556" lon="11.43564190549851"><ele>261.0</ele><time>2026-04-11T04:50:57.999Z</time></trkpt><trkpt lat="43.34560966077977" lon="11.435644641954372"><ele>261.0</ele><time>2026-04-11T04:50:59.999Z</time></trkpt><trkpt lat="43.34568909278042" lon="11.435646658935386"><ele>261.0</ele><time>2026-04-11T04:51:01.999Z</time></trkpt><trkpt lat="43.345764496337885" lon="11.435672035194939"><ele>261.8333333333333</ele><time>2026-04-11T04:51:03.999Z</time></trkpt><trkpt lat="43.34584074878866" lon="11.435709102294178"><ele>262.6666666666667</ele><time>2026-04-11T04:51:05.999Z</time></trkpt><trkpt lat="43.345913371323526" lon="11.435771383861987"><ele>263.5</ele><time>2026-04-11T04:51:07.999Z</time></trkpt><trkpt lat="43.34599186778504" lon="11.43584545210728"><ele>264.33333333333337</ele><time>2026-04-11T04:51:09.999Z</time></trkpt><trkpt lat="43.346069159503315" lon="11.435906471023618"><ele>265.1666666666667</ele><time>2026-04-11T04:51:11.999Z</time></trkpt><trkpt lat="43.34615087710412" lon="11.435975951435877"><ele>266.0</ele><time>2026-04-11T04:51:13.999Z</time></trkpt><trkpt lat="43.346226778137535" lon="11.436047527338031"><ele>266.0</ele><time>2026-04-11T04:51:15.999Z</time></trkpt><trkpt lat="43.34631413284218" lon="11.436120016963537"><ele>266.0</ele><time>2026-04-11T04:51:17.999Z</time></trkpt><trkpt lat="43.34640456275448" lon="11.436201291469882"><ele>266.0</ele><time>2026-04-11T04:51:19.999Z</time></trkpt><trkpt lat="43.34650080411503" lon="11.43629086253768"><ele>266.0</ele><time>2026-04-11T04:51:21.999Z</time></trkpt><trkpt lat="43.34659373610433" lon="11.43639248624054"><ele>266.0</ele><time>2026-04-11T04:51:23.999Z</time></trkpt><trkpt lat="43.34668750773794" lon="11.436510229133088"><ele>265.6666666666667</ele><time>2026-04-11T04:51:25.999Z</time></trkpt><trkpt lat="43.34677377991398" lon="11.436638245785176"><ele>265.33333333333337</ele><time>2026-04-11T04:51:27.999Z</time></trkpt><trkpt lat="43.34681462571732" lon="11.436709443767544"><ele>265.0</ele><time>2026-04-11T04:51:28.999Z</time></trkpt><trkpt lat="43.34685428666066" lon="11.436782621521463"><ele>264.6666666666667</ele><time>2026-04-11T04:51:29.999Z</time></trkpt><trkpt lat="43.346899238688266" lon="11.43685641965541"><ele>264.3333333333333</ele><time>2026-04-11T04:51:30.999Z</time></trkpt><trkpt lat="43.346938176944036" lon="11.436938166275326"><ele>264.0</ele><time>2026-04-11T04:51:31.999Z</time></trkpt><trkpt lat="43.346986138032136" lon="11.437020885505758"><ele>264.0</ele><time>2026-04-11T04:51:32.999Z</time></trkpt><trkpt lat="43.34703545212894" lon="11.43710223095199"><ele>264.0</ele><time>2026-04-11T04:51:33.999Z</time></trkpt><trkpt lat="43.34708972426571" lon="11.437174650198646"><ele>264.0</ele><time>2026-04-11T04:51:34.999Z</time></trkpt><trkpt lat="43.347128862409974" lon="11.437266606565965"><ele>264.0</ele><time>2026-04-11T04:51:35.999Z</time></trkpt><trkpt lat="43.34716205801858" lon="11.437350461348194"><ele>264.0</ele><time>2026-04-11T04:51:36.999Z</time></trkpt><trkpt lat="43.34720275423511" lon="11.437424259983214"><ele>264.0</ele><time>2026-04-11T04:51:37.999Z</time></trkpt><trkpt lat="43.34724946244964" lon="11.437497011206752"><ele>264.0</ele><time>2026-04-11T04:51:38.999Z</time></trkpt><trkpt lat="43.34730335111674" lon="11.437568458309482"><ele>263.2857142857143</ele><time>2026-04-11T04:51:39.999Z</time></trkpt><trkpt lat="43.34734428097347" lon="11.4376456584305"><ele>262.57142857142856</ele><time>2026-04-11T04:51:40.999Z</time></trkpt><trkpt lat="43.347390053826274" lon="11.437720589631114"><ele>261.8571428571429</ele><time>2026-04-11T04:51:42Z</time></trkpt><trkpt lat="43.347435966040564" lon="11.437796624728541"><ele>261.1428571428571</ele><time>2026-04-11T04:51:43Z</time></trkpt><trkpt lat="43.347482113627976" lon="11.437871553149533"><ele>260.42857142857144</ele><time>2026-04-11T04:51:44Z</time></trkpt><trkpt lat="43.347525581660335" lon="11.437937983009597"><ele>259.7142857142857</ele><time>2026-04-11T04:51:45Z</time></trkpt><trkpt lat="43.34756521576964" lon="11.438010197636542"><ele>259.0</ele><time>2026-04-11T04:51:46Z</time></trkpt><trkpt lat="43.347608782517675" lon="11.438080350639227"><ele>259.0</ele><time>2026-04-11T04:51:47Z</time></trkpt><trkpt lat="43.3476551218875" lon="11.438143871958594"><ele>259.0</ele><time>2026-04-11T04:51:48Z</time></trkpt><trkpt lat="43.3477016022785" lon="11.43820735706329"><ele>259.0</ele><time>2026-04-11T04:51:49Z</time></trkpt><trkpt lat="43.347752817596" lon="11.43826933675893"><ele>259.0</ele><time>2026-04-11T04:51:50Z</time></trkpt><trkpt lat="43.34780737666768" lon="11.438329788696313"><ele>259.0</ele><time>2026-04-11T04:51:51Z</time></trkpt><trkpt lat="43.34786797500151" lon="11.438382509996337"><ele>259.0</ele><time>2026-04-11T04:51:52Z</time></trkpt><trkpt lat="43.34793511333134" lon="11.438420149789227"><ele>259.0</ele><time>2026-04-11T04:51:53Z</time></trkpt><trkpt lat="43.348004523359585" lon="11.438446947547522"><ele>258.3333333333333</ele><time>2026-04-11T04:51:54Z</time></trkpt><trkpt lat="43.34807906088138" lon="11.438465910561932"><ele>257.66666666666663</ele><time>2026-04-11T04:51:55Z</time></trkpt><trkpt lat="43.34815365332076" lon="11.43847526524081"><ele>257.0</ele><time>2026-04-11T04:51:56Z</time></trkpt><trkpt lat="43.3482279694223" lon="11.438483167393844"><ele>256.3333333333333</ele><time>2026-04-11T04:51:57Z</time></trkpt><trkpt lat="43.348300930971305" lon="11.43849153519053"><ele>255.66666666666666</ele><time>2026-04-11T04:51:58Z</time></trkpt><trkpt lat="43.34837535614094" lon="11.438503116232349"><ele>255.0</ele><time>2026-04-11T04:51:59Z</time></trkpt><trkpt lat="43.348451098959266" lon="11.438517921099598"><ele>255.0</ele><time>2026-04-11T04:52:00Z</time></trkpt><trkpt lat="43.348525444008764" lon="11.438531546237027"><ele>255.00000000000003</ele><time>2026-04-11T04:52:01Z</time></trkpt><trkpt lat="43.34859811031451" lon="11.438544800179693"><ele>255.0</ele><time>2026-04-11T04:52:02Z</time></trkpt><trkpt lat="43.34867265357098" lon="11.43855659394364"><ele>255.0</ele><time>2026-04-11T04:52:03Z</time></trkpt><trkpt lat="43.348746618023505" lon="11.43856669574629"><ele>255.00000000000003</ele><time>2026-04-11T04:52:04Z</time></trkpt><trkpt lat="43.34882099434111" lon="11.438577949545195"><ele>255.0</ele><time>2026-04-11T04:52:05Z</time></trkpt><trkpt lat="43.34889256529135" lon="11.438590465028433"><ele>255.0</ele><time>2026-04-11T04:52:06Z</time></trkpt><trkpt lat="43.348963461374765" lon="11.438602696973838"><ele>255.0</ele><time>2026-04-11T04:52:07Z</time></trkpt><trkpt lat="43.34903524589879" lon="11.438615678126194"><ele>255.00000000000003</ele><time>2026-04-11T04:52:08Z</time></trkpt><trkpt lat="43.34910558299273" lon="11.438629035426843"><ele>255.0</ele><time>2026-04-11T04:52:09Z</time></trkpt><trkpt lat="43.34917541063679" lon="11.438644277967366"><ele>255.0</ele><time>2026-04-11T04:52:10Z</time></trkpt><trkpt lat="43.349245379887485" lon="11.43866253576297"><ele>255.00000000000003</ele><time>2026-04-11T04:52:11Z</time></trkpt><trkpt lat="43.34931250008647" lon="11.438693332116623"><ele>255.0</ele><time>2026-04-11T04:52:12Z</time></trkpt><trkpt lat="43.349378095475885" lon="11.438739737804797"><ele>255.0</ele><time>2026-04-11T04:52:13Z</time></trkpt><trkpt lat="43.34943813979809" lon="11.438800844521687"><ele>254.33333333333334</ele><time>2026-04-11T04:52:14Z</time></trkpt><trkpt lat="43.349494424280195" lon="11.438865131043185"><ele>253.66666666666669</ele><time>2026-04-11T04:52:15Z</time></trkpt><trkpt lat="43.349545941338654" lon="11.43893935596293"><ele>253.0</ele><time>2026-04-11T04:52:16Z</time></trkpt><trkpt lat="43.349587860033594" lon="11.439022185772574"><ele>252.33333333333334</ele><time>2026-04-11T04:52:17Z</time></trkpt><trkpt lat="43.3496328867745" lon="11.43910225556794"><ele>251.66666666666669</ele><time>2026-04-11T04:52:18Z</time></trkpt><trkpt lat="43.349676479200234" lon="11.439191605061072"><ele>251.0</ele><time>2026-04-11T04:52:19Z</time></trkpt><trkpt lat="43.349719913665396" lon="11.439282846201703"><ele>250.83333333333334</ele><time>2026-04-11T04:52:20Z</time></trkpt><trkpt lat="43.34976234371622" lon="11.43937908383967"><ele>250.66666666666669</ele><time>2026-04-11T04:52:21Z</time></trkpt><trkpt lat="43.34980759357192" lon="11.439476775470789"><ele>250.5</ele><time>2026-04-11T04:52:22Z</time></trkpt><trkpt lat="43.34985970177108" lon="11.439568023485581"><ele>250.33333333333331</ele><time>2026-04-11T04:52:23Z</time></trkpt><trkpt lat="43.3499173300528" lon="11.439657921878613"><ele>250.16666666666666</ele><time>2026-04-11T04:52:24Z</time></trkpt><trkpt lat="43.34997647704123" lon="11.439737617678203"><ele>250.0</ele><time>2026-04-11T04:52:25Z</time></trkpt><trkpt lat="43.35004087068609" lon="11.439807677994388"><ele>249.49999999999997</ele><time>2026-04-11T04:52:26Z</time></trkpt><trkpt lat="43.35010620617879" lon="11.439870091696681"><ele>249.0</ele><time>2026-04-11T04:52:27Z</time></trkpt><trkpt lat="43.350175371555366" lon="11.439931393204956"><ele>248.5</ele><time>2026-04-11T04:52:28Z</time></trkpt><trkpt lat="43.3502438802715" lon="11.439985611726126"><ele>248.0</ele><time>2026-04-11T04:52:29Z</time></trkpt><trkpt lat="43.35031610249166" lon="11.440029903486781"><ele>247.49999999999997</ele><time>2026-04-11T04:52:30Z</time></trkpt><trkpt lat="43.35038868691307" lon="11.440069866678513"><ele>247.0</ele><time>2026-04-11T04:52:31Z</time></trkpt><trkpt lat="43.35046174449881" lon="11.440105197264291"><ele>246.99999999999997</ele><time>2026-04-11T04:52:32Z</time></trkpt><trkpt lat="43.35053813351031" lon="11.44012577132754"><ele>247.0</ele><time>2026-04-11T04:52:33Z</time></trkpt><trkpt lat="43.350619318546116" lon="11.44013421057889"><ele>247.0</ele><time>2026-04-11T04:52:34Z</time></trkpt><trkpt lat="43.35070040190089" lon="11.440136705872247"><ele>247.0</ele><time>2026-04-11T04:52:35Z</time></trkpt><trkpt lat="43.35078003516689" lon="11.440133956928983"><ele>246.99999999999997</ele><time>2026-04-11T04:52:36Z</time></trkpt><trkpt lat="43.35085915200327" lon="11.440122366423449"><ele>247.0</ele><time>2026-04-11T04:52:37Z</time></trkpt><trkpt lat="43.35093707877933" lon="11.440096726422196"><ele>247.16666666666666</ele><time>2026-04-11T04:52:38Z</time></trkpt><trkpt lat="43.35100526968111" lon="11.440062743485885"><ele>247.33333333333331</ele><time>2026-04-11T04:52:39Z</time></trkpt><trkpt lat="43.351076999227956" lon="11.440027886451547"><ele>247.5</ele><time>2026-04-11T04:52:40Z</time></trkpt><trkpt lat="43.35114240783622" lon="11.439989773706538"><ele>247.66666666666669</ele><time>2026-04-11T04:52:41Z</time></trkpt><trkpt lat="43.35120345014197" lon="11.439946608549487"><ele>247.83333333333334</ele><time>2026-04-11T04:52:42Z</time></trkpt><trkpt lat="43.35126311734287" lon="11.439906224001422"><ele>248.0</ele><time>2026-04-11T04:52:43Z</time></trkpt><trkpt lat="43.351371280184175" lon="11.439828293645121"><ele>248.60000000000002</ele><time>2026-04-11T04:52:45Z</time></trkpt><trkpt lat="43.351474280370404" lon="11.439746511399703"><ele>249.20000000000002</ele><time>2026-04-11T04:52:47Z</time></trkpt><trkpt lat="43.351568260019114" lon="11.43967188456147"><ele>249.8</ele><time>2026-04-11T04:52:49Z</time></trkpt><trkpt lat="43.35165467679998" lon="11.439602024320365"><ele>250.4</ele><time>2026-04-11T04:52:50.999Z</time></trkpt><trkpt lat="43.35173479148006" lon="11.4395399022426"><ele>251.0</ele><time>2026-04-11T04:52:52.999Z</time></trkpt><trkpt lat="43.35180642539035" lon="11.439476012719986"><ele>251.00000000000003</ele><time>2026-04-11T04:52:54.999Z</time></trkpt><trkpt lat="43.35187971621637" lon="11.439450731571773"><ele>251.0</ele><time>2026-04-11T04:52:56.999Z</time></trkpt><trkpt lat="43.35194811220538" lon="11.439421681813593"><ele>251.0</ele><time>2026-04-11T04:52:58.999Z</time></trkpt><trkpt lat="43.35201921050279" lon="11.439393127477093"><ele>251.0</ele><time>2026-04-11T04:53:00.999Z</time></trkpt><trkpt lat="43.352091437204216" lon="11.439375881561604"><ele>251.00000000000003</ele><time>2026-04-11T04:53:02.999Z</time></trkpt><trkpt lat="43.35215821316543" lon="11.439369930267816"><ele>251.0</ele><time>2026-04-11T04:53:04.999Z</time></trkpt><trkpt lat="43.35224742247339" lon="11.439343403236457"><ele>251.99999999999997</ele><time>2026-04-11T04:53:07.999Z</time></trkpt><trkpt lat="43.35231206103877" lon="11.439310117196017"><ele>253.0</ele><time>2026-04-11T04:53:09.999Z</time></trkpt><trkpt lat="43.35236913388411" lon="11.43927047749231"><ele>253.99999999999997</ele><time>2026-04-11T04:53:11.999Z</time></trkpt><trkpt lat="43.352444302275586" lon="11.439191676487706"><ele>254.99999999999997</ele><time>2026-04-11T04:53:14.999Z</time></trkpt><trkpt lat="43.352487936972814" lon="11.439123463579433"><ele>256.0</ele><time>2026-04-11T04:53:16.999Z</time></trkpt><trkpt lat="43.35253574696715" lon="11.43905595797169"><ele>256.99999999999994</ele><time>2026-04-11T04:53:18.999Z</time></trkpt><trkpt lat="43.352585977468216" lon="11.438991381389584"><ele>258.0</ele><time>2026-04-11T04:53:20.999Z</time></trkpt><trkpt lat="43.35263645742803" lon="11.438929894564316"><ele>257.99999999999994</ele><time>2026-04-11T04:53:22.999Z</time></trkpt><trkpt lat="43.352689049346466" lon="11.4388744063412"><ele>258.0</ele><time>2026-04-11T04:53:24.999Z</time></trkpt><trkpt lat="43.35273939540263" lon="11.438820977919066"><ele>258.0</ele><time>2026-04-11T04:53:26.999Z</time></trkpt><trkpt lat="43.35279351967583" lon="11.438776685062551"><ele>258.0</ele><time>2026-04-11T04:53:28.999Z</time></trkpt><trkpt lat="43.3528666300851" lon="11.43870165147868"><ele>258.0</ele><time>2026-04-11T04:53:31.999Z</time></trkpt><trkpt lat="43.352944800609045" lon="11.438633194121893"><ele>257.99999999999994</ele><time>2026-04-11T04:53:34.999Z</time></trkpt><trkpt lat="43.35300844078516" lon="11.43860430476208"><ele>258.0</ele><time>2026-04-11T04:53:36.999Z</time></trkpt><trkpt lat="43.353091463217176" lon="11.438542877565796"><ele>259.1666666666667</ele><time>2026-04-11T04:53:39.999Z</time></trkpt><trkpt lat="43.3531710856652" lon="11.438496707168294"><ele>260.3333333333333</ele><time>2026-04-11T04:53:42.999Z</time></trkpt><trkpt lat="43.353231456390255" lon="11.438465052391496"><ele>261.5</ele><time>2026-04-11T04:53:44.999Z</time></trkpt><trkpt lat="43.353323894539656" lon="11.438424428348078"><ele>262.66666666666663</ele><time>2026-04-11T04:53:48Z</time></trkpt><trkpt lat="43.353410109805395" lon="11.438395285555936"><ele>263.8333333333333</ele><time>2026-04-11T04:53:51Z</time></trkpt><trkpt lat="43.353474476605754" lon="11.438379359271917"><ele>265.0</ele><time>2026-04-11T04:53:53Z</time></trkpt><trkpt lat="43.353538521951" lon="11.43836467609225"><ele>264.99999999999994</ele><time>2026-04-11T04:53:55Z</time></trkpt><trkpt lat="43.35362621593829" lon="11.438344571179675"><ele>265.0</ele><time>2026-04-11T04:53:58Z</time></trkpt><trkpt lat="43.35369717592621" lon="11.438327877864232"><ele>265.0</ele><time>2026-04-11T04:54:00Z</time></trkpt><trkpt lat="43.35376146121441" lon="11.438311638386562"><ele>265.0</ele><time>2026-04-11T04:54:02Z</time></trkpt><trkpt lat="43.35383135048958" lon="11.438293983253262"><ele>265.0</ele><time>2026-04-11T04:54:04Z</time></trkpt><trkpt lat="43.35390211725065" lon="11.438276106445379"><ele>264.99999999999994</ele><time>2026-04-11T04:54:06Z</time></trkpt><trkpt lat="43.35396933007768" lon="11.438259127407942"><ele>265.0</ele><time>2026-04-11T04:54:08Z</time></trkpt><trkpt lat="43.35403588035816" lon="11.438241283758913"><ele>265.1428571428571</ele><time>2026-04-11T04:54:10Z</time></trkpt><trkpt lat="43.35410224006064" lon="11.438221406242345"><ele>265.2857142857143</ele><time>2026-04-11T04:54:12Z</time></trkpt><trkpt lat="43.354165991984814" lon="11.43820230989819"><ele>265.42857142857144</ele><time>2026-04-11T04:54:14Z</time></trkpt><trkpt lat="43.35423203746597" lon="11.438175917522551"><ele>265.57142857142856</ele><time>2026-04-11T04:54:16Z</time></trkpt><trkpt lat="43.35429467482597" lon="11.438162030738331"><ele>265.7142857142857</ele><time>2026-04-11T04:54:18Z</time></trkpt><trkpt lat="43.35436108255397" lon="11.438144138065613"><ele>265.85714285714283</ele><time>2026-04-11T04:54:20Z</time></trkpt><trkpt lat="43.35444103726158" lon="11.438150155002301"><ele>266.0</ele><time>2026-04-11T04:54:22Z</time></trkpt><trkpt lat="43.354516766837456" lon="11.438140521993503"><ele>266.0</ele><time>2026-04-11T04:54:24Z</time></trkpt><trkpt lat="43.35459637464692" lon="11.438137576883209"><ele>266.0</ele><time>2026-04-11T04:54:26Z</time></trkpt><trkpt lat="43.3546804402586" lon="11.438145405567989"><ele>266.0</ele><time>2026-04-11T04:54:28Z</time></trkpt><trkpt lat="43.354764628562684" lon="11.438143269617566"><ele>266.0</ele><time>2026-04-11T04:54:30Z</time></trkpt><trkpt lat="43.35484646725284" lon="11.438143908027604"><ele>266.0</ele><time>2026-04-11T04:54:32Z</time></trkpt><trkpt lat="43.35492069463294" lon="11.438156449759733"><ele>266.0</ele><time>2026-04-11T04:54:34Z</time></trkpt><trkpt lat="43.35501138441161" lon="11.43817366544349"><ele>266.40000000000003</ele><time>2026-04-11T04:54:36Z</time></trkpt><trkpt lat="43.355101997963075" lon="11.438195704594662"><ele>266.8</ele><time>2026-04-11T04:54:38Z</time></trkpt><trkpt lat="43.355200900162274" lon="11.438225206515945"><ele>267.20000000000005</ele><time>2026-04-11T04:54:40Z</time></trkpt><trkpt lat="43.355303111413974" lon="11.43825375619758"><ele>267.6</ele><time>2026-04-11T04:54:42Z</time></trkpt><trkpt lat="43.35540773626134" lon="11.438274383610588"><ele>268.0</ele><time>2026-04-11T04:54:44Z</time></trkpt><trkpt lat="43.35551670132372" lon="11.43829496271006"><ele>267.5</ele><time>2026-04-11T04:54:46Z</time></trkpt><trkpt lat="43.355626609315244" lon="11.438319416577382"><ele>267.0</ele><time>2026-04-11T04:54:48Z</time></trkpt><trkpt lat="43.35573970765351" lon="11.438342406146834"><ele>266.5</ele><time>2026-04-11T04:54:50Z</time></trkpt><trkpt lat="43.35585658214131" lon="11.438366271980343"><ele>266.0</ele><time>2026-04-11T04:54:52Z</time></trkpt><trkpt lat="43.35597094437871" lon="11.43838823771952"><ele>266.0</ele><time>2026-04-11T04:54:54Z</time></trkpt><trkpt lat="43.356082001841656" lon="11.438419542029983"><ele>266.0</ele><time>2026-04-11T04:54:56Z</time></trkpt><trkpt lat="43.35618760741714" lon="11.438439498462703"><ele>266.0</ele><time>2026-04-11T04:54:58Z</time></trkpt><trkpt lat="43.3562830077502" lon="11.43845768983642"><ele>266.0</ele><time>2026-04-11T04:55:00Z</time></trkpt><trkpt lat="43.3563718188453" lon="11.438473478074584"><ele>266.0</ele><time>2026-04-11T04:55:02Z</time></trkpt><trkpt lat="43.35646512588399" lon="11.43850618426126"><ele>265.8</ele><time>2026-04-11T04:55:04Z</time></trkpt><trkpt lat="43.356567100775536" lon="11.438526603687418"><ele>265.6</ele><time>2026-04-11T04:55:06Z</time></trkpt><trkpt lat="43.356669551308336" lon="11.438540144996477"><ele>265.4</ele><time>2026-04-11T04:55:07.999Z</time></trkpt><trkpt lat="43.35676625862527" lon="11.438561952128712"><ele>265.2</ele><time>2026-04-11T04:55:09.999Z</time></trkpt><trkpt lat="43.3568588006281" lon="11.438580898587935"><ele>265.0</ele><time>2026-04-11T04:55:11.999Z</time></trkpt><trkpt lat="43.35695764084128" lon="11.438594599143473"><ele>265.0</ele><time>2026-04-11T04:55:13.999Z</time></trkpt><trkpt lat="43.357044864167875" lon="11.438603776150092"><ele>265.0</ele><time>2026-04-11T04:55:15.999Z</time></trkpt><trkpt lat="43.35713216673149" lon="11.438602563514584"><ele>265.0</ele><time>2026-04-11T04:55:17.999Z</time></trkpt><trkpt lat="43.35722505917548" lon="11.438584681621569"><ele>265.0</ele><time>2026-04-11T04:55:19.999Z</time></trkpt><trkpt lat="43.357320222254025" lon="11.4385630645677"><ele>265.0</ele><time>2026-04-11T04:55:21.999Z</time></trkpt><trkpt lat="43.35741254618864" lon="11.438532998567126"><ele>265.0</ele><time>2026-04-11T04:55:23.999Z</time></trkpt><trkpt lat="43.3575087638871" lon="11.438497209447549"><ele>265.0</ele><time>2026-04-11T04:55:25.999Z</time></trkpt><trkpt lat="43.357604484741756" lon="11.438473247011919"><ele>265.0</ele><time>2026-04-11T04:55:27.999Z</time></trkpt><trkpt lat="43.35769982991382" lon="11.438439440645535"><ele>265.0</ele><time>2026-04-11T04:55:29.999Z</time></trkpt><trkpt lat="43.35779302819964" lon="11.438406748450515"><ele>265.0</ele><time>2026-04-11T04:55:31.999Z</time></trkpt><trkpt lat="43.35788944657048" lon="11.438376366284787"><ele>265.0</ele><time>2026-04-11T04:55:33.999Z</time></trkpt><trkpt lat="43.35798021547524" lon="11.438347486024083"><ele>265.0</ele><time>2026-04-11T04:55:35.999Z</time></trkpt><trkpt lat="43.358068524492815" lon="11.438302029782516"><ele>265.0</ele><time>2026-04-11T04:55:37.999Z</time></trkpt><trkpt lat="43.35815293422124" lon="11.438229100012348"><ele>265.0</ele><time>2026-04-11T04:55:39.999Z</time></trkpt><trkpt lat="43.35823050341732" lon="11.438140459207192"><ele>265.0</ele><time>2026-04-11T04:55:41.999Z</time></trkpt><trkpt lat="43.35829825278811" lon="11.438049197105153"><ele>265.66666666666663</ele><time>2026-04-11T04:55:43.999Z</time></trkpt><trkpt lat="43.35834984907671" lon="11.437945360001905"><ele>266.3333333333333</ele><time>2026-04-11T04:55:45.999Z</time></trkpt><trkpt lat="43.358383555308286" lon="11.437832442906927"><ele>267.0</ele><time>2026-04-11T04:55:47.999Z</time></trkpt><trkpt lat="43.35841316612748" lon="11.437721757124946"><ele>267.6666666666667</ele><time>2026-04-11T04:55:49.999Z</time></trkpt><trkpt lat="43.35843305620553" lon="11.437598882494806"><ele>268.33333333333337</ele><time>2026-04-11T04:55:51.999Z</time></trkpt><trkpt lat="43.35843972141449" lon="11.437477721492847"><ele>269.0</ele><time>2026-04-11T04:55:54Z</time></trkpt><trkpt lat="43.358427767163846" lon="11.437353969902844"><ele>269.0</ele><time>2026-04-11T04:55:56Z</time></trkpt><trkpt lat="43.35842033729154" lon="11.437229198584026"><ele>269.0</ele><time>2026-04-11T04:55:58Z</time></trkpt><trkpt lat="43.35840494890473" lon="11.437102762858634"><ele>269.0</ele><time>2026-04-11T04:56:00Z</time></trkpt><trkpt lat="43.35839437697541" lon="11.43697668793758"><ele>269.0</ele><time>2026-04-11T04:56:02Z</time></trkpt><trkpt lat="43.3583807620809" lon="11.43685295940455"><ele>269.0</ele><time>2026-04-11T04:56:04Z</time></trkpt><trkpt lat="43.358383054827506" lon="11.436721836967035"><ele>269.0</ele><time>2026-04-11T04:56:06Z</time></trkpt><trkpt lat="43.358394843173336" lon="11.436584840348784"><ele>269.0</ele><time>2026-04-11T04:56:08Z</time></trkpt><trkpt lat="43.358420492245436" lon="11.436448163121913"><ele>269.0</ele><time>2026-04-11T04:56:10Z</time></trkpt><trkpt lat="43.35844009109355" lon="11.436306711001011"><ele>269.0</ele><time>2026-04-11T04:56:12Z</time></trkpt><trkpt lat="43.35846266287748" lon="11.436170076003739"><ele>269.0</ele><time>2026-04-11T04:56:14Z</time></trkpt><trkpt lat="43.358492717618596" lon="11.43603692072632"><ele>269.0</ele><time>2026-04-11T04:56:16Z</time></trkpt><trkpt lat="43.35852194897937" lon="11.435890693688119"><ele>269.0</ele><time>2026-04-11T04:56:18Z</time></trkpt><trkpt lat="43.35854964163757" lon="11.435740587801169"><ele>269.0</ele><time>2026-04-11T04:56:20Z</time></trkpt><trkpt lat="43.35858292324624" lon="11.435594737897063"><ele>269.0</ele><time>2026-04-11T04:56:22Z</time></trkpt><trkpt lat="43.358628425209126" lon="11.435454995073242"><ele>269.0</ele><time>2026-04-11T04:56:24Z</time></trkpt><trkpt lat="43.35868374585888" lon="11.435316611390924"><ele>269.4</ele><time>2026-04-11T04:56:26Z</time></trkpt><trkpt lat="43.35873909426113" lon="11.435183223378692"><ele>269.79999999999995</ele><time>2026-04-11T04:56:28Z</time></trkpt><trkpt lat="43.35878503730209" lon="11.435035404545118"><ele>270.20000000000005</ele><time>2026-04-11T04:56:30Z</time></trkpt><trkpt lat="43.35883348752032" lon="11.43489719314689"><ele>270.6</ele><time>2026-04-11T04:56:32Z</time></trkpt><trkpt lat="43.358866690211975" lon="11.434816299551542"><ele>271.0</ele><time>2026-04-11T04:56:33Z</time></trkpt><trkpt lat="43.35891151508334" lon="11.434656299716943"><ele>269.66666666666663</ele><time>2026-04-11T04:56:35Z</time></trkpt><trkpt lat="43.358951356562834" lon="11.434487912538337"><ele>268.3333333333333</ele><time>2026-04-11T04:56:37Z</time></trkpt><trkpt lat="43.35896177156455" lon="11.434398214191512"><ele>267.0</ele><time>2026-04-11T04:56:38Z</time></trkpt><trkpt lat="43.35897322312282" lon="11.434304726769778"><ele>265.6666666666667</ele><time>2026-04-11T04:56:39Z</time></trkpt><trkpt lat="43.3589788698107" lon="11.434210732095178"><ele>264.33333333333337</ele><time>2026-04-11T04:56:40Z</time></trkpt><trkpt lat="43.358984093147384" lon="11.434119155666828"><ele>263.0</ele><time>2026-04-11T04:56:41Z</time></trkpt><trkpt lat="43.35898674965616" lon="11.434025730116554"><ele>263.0</ele><time>2026-04-11T04:56:42Z</time></trkpt><trkpt lat="43.35897783049779" lon="11.43392954035488"><ele>263.0</ele><time>2026-04-11T04:56:43Z</time></trkpt><trkpt lat="43.358976448193914" lon="11.433830396351468"><ele>263.0</ele><time>2026-04-11T04:56:44Z</time></trkpt><trkpt lat="43.35896624069624" lon="11.43373189068413"><ele>263.0</ele><time>2026-04-11T04:56:45Z</time></trkpt><trkpt lat="43.35895487009875" lon="11.433634606452301"><ele>263.0</ele><time>2026-04-11T04:56:46Z</time></trkpt><trkpt lat="43.35894148988995" lon="11.43352420419626"><ele>263.0</ele><time>2026-04-11T04:56:47Z</time></trkpt><trkpt lat="43.35892509662015" lon="11.433415867276715"><ele>263.0</ele><time>2026-04-11T04:56:48Z</time></trkpt><trkpt lat="43.35890681364158" lon="11.43330710722414"><ele>263.0</ele><time>2026-04-11T04:56:49Z</time></trkpt><trkpt lat="43.358886104948844" lon="11.433196659900663"><ele>263.0</ele><time>2026-04-11T04:56:50Z</time></trkpt><trkpt lat="43.35887368359427" lon="11.433088969450214"><ele>263.0</ele><time>2026-04-11T04:56:51Z</time></trkpt><trkpt lat="43.35886310901234" lon="11.432975951840996"><ele>263.0</ele><time>2026-04-11T04:56:52Z</time></trkpt><trkpt lat="43.358858951006674" lon="11.432862388037247"><ele>263.0</ele><time>2026-04-11T04:56:53Z</time></trkpt><trkpt lat="43.358856410958055" lon="11.432749841645933"><ele>263.0</ele><time>2026-04-11T04:56:54Z</time></trkpt><trkpt lat="43.35885162002872" lon="11.43263480276705"><ele>263.0</ele><time>2026-04-11T04:56:55Z</time></trkpt><trkpt lat="43.35885379743772" lon="11.432517924301985"><ele>263.0</ele><time>2026-04-11T04:56:56Z</time></trkpt><trkpt lat="43.35885717503266" lon="11.432404174720117"><ele>263.0</ele><time>2026-04-11T04:56:57Z</time></trkpt><trkpt lat="43.35886372851094" lon="11.432292682545036"><ele>263.0</ele><time>2026-04-11T04:56:58Z</time></trkpt><trkpt lat="43.35888060749703" lon="11.432176018331479"><ele>263.0</ele><time>2026-04-11T04:56:59Z</time></trkpt><trkpt lat="43.35890475973064" lon="11.432065542981048"><ele>263.0</ele><time>2026-04-11T04:57:00Z</time></trkpt><trkpt lat="43.35892465951552" lon="11.431954580980683"><ele>263.1666666666667</ele><time>2026-04-11T04:57:01Z</time></trkpt><trkpt lat="43.358950503050856" lon="11.431845524623279"><ele>263.33333333333337</ele><time>2026-04-11T04:57:02Z</time></trkpt><trkpt lat="43.35897299824348" lon="11.431737084639893"><ele>263.5</ele><time>2026-04-11T04:57:03Z</time></trkpt><trkpt lat="43.358998366865535" lon="11.431624032511344"><ele>263.6666666666667</ele><time>2026-04-11T04:57:04Z</time></trkpt><trkpt lat="43.35902084123264" lon="11.431511555320796"><ele>263.8333333333333</ele><time>2026-04-11T04:57:05Z</time></trkpt><trkpt lat="43.35903975417333" lon="11.431401662482923"><ele>264.0</ele><time>2026-04-11T04:57:05.999Z</time></trkpt><trkpt lat="43.35906188183664" lon="11.431289560534115"><ele>264.0</ele><time>2026-04-11T04:57:06.999Z</time></trkpt><trkpt lat="43.359080035582565" lon="11.431185291658842"><ele>264.0</ele><time>2026-04-11T04:57:07.999Z</time></trkpt><trkpt lat="43.35910211228769" lon="11.431073756026422"><ele>264.0</ele><time>2026-04-11T04:57:08.999Z</time></trkpt><trkpt lat="43.35912684222896" lon="11.430963816677318"><ele>264.0</ele><time>2026-04-11T04:57:09.999Z</time></trkpt><trkpt lat="43.35914866359369" lon="11.43085075115419"><ele>264.0</ele><time>2026-04-11T04:57:10.999Z</time></trkpt><trkpt lat="43.35916771835288" lon="11.430744523417529"><ele>264.0</ele><time>2026-04-11T04:57:11.999Z</time></trkpt><trkpt lat="43.35918634634687" lon="11.430625916387436"><ele>264.0</ele><time>2026-04-11T04:57:12.999Z</time></trkpt><trkpt lat="43.3592065335143" lon="11.430507176361925"><ele>264.0</ele><time>2026-04-11T04:57:13.999Z</time></trkpt><trkpt lat="43.35921094701578" lon="11.430385440940029"><ele>264.0</ele><time>2026-04-11T04:57:14.999Z</time></trkpt><trkpt lat="43.359209320645405" lon="11.430272143590262"><ele>264.0</ele><time>2026-04-11T04:57:15.999Z</time></trkpt><trkpt lat="43.359203578119875" lon="11.43015295443294"><ele>264.0</ele><time>2026-04-11T04:57:16.999Z</time></trkpt><trkpt lat="43.35919526892554" lon="11.430033353818493"><ele>264.0</ele><time>2026-04-11T04:57:17.999Z</time></trkpt><trkpt lat="43.3591990453855" lon="11.429914879166315"><ele>264.1666666666667</ele><time>2026-04-11T04:57:18.999Z</time></trkpt><trkpt lat="43.35918844003774" lon="11.429794708526257"><ele>264.3333333333333</ele><time>2026-04-11T04:57:19.999Z</time></trkpt><trkpt lat="43.35917170570266" lon="11.429678910510685"><ele>264.5</ele><time>2026-04-11T04:57:20.999Z</time></trkpt><trkpt lat="43.35916387136314" lon="11.42955761108753"><ele>264.66666666666663</ele><time>2026-04-11T04:57:21.999Z</time></trkpt><trkpt lat="43.359147602400704" lon="11.4294445592034"><ele>264.8333333333333</ele><time>2026-04-11T04:57:22.999Z</time></trkpt><trkpt lat="43.35912298764196" lon="11.42933812970344"><ele>265.0</ele><time>2026-04-11T04:57:23.999Z</time></trkpt><trkpt lat="43.35909010783308" lon="11.429231006741468"><ele>265.3333333333333</ele><time>2026-04-11T04:57:24.999Z</time></trkpt><trkpt lat="43.359058191604085" lon="11.42912530984257"><ele>265.66666666666663</ele><time>2026-04-11T04:57:25.999Z</time></trkpt><trkpt lat="43.35902493973446" lon="11.4290206193808"><ele>266.0</ele><time>2026-04-11T04:57:26.999Z</time></trkpt><trkpt lat="43.35898214653937" lon="11.428921850757332"><ele>266.3333333333333</ele><time>2026-04-11T04:57:27.999Z</time></trkpt><trkpt lat="43.358938400831164" lon="11.428826317696856"><ele>266.6666666666667</ele><time>2026-04-11T04:57:28.999Z</time></trkpt><trkpt lat="43.358879703332384" lon="11.428729449561658"><ele>267.0</ele><time>2026-04-11T04:57:29.999Z</time></trkpt><trkpt lat="43.35882416765408" lon="11.428645305799742"><ele>267.0</ele><time>2026-04-11T04:57:30.999Z</time></trkpt><trkpt lat="43.358767161638696" lon="11.428562517016484"><ele>267.0</ele><time>2026-04-11T04:57:31.999Z</time></trkpt><trkpt lat="43.358703180660186" lon="11.4284826196623"><ele>267.0</ele><time>2026-04-11T04:57:32.999Z</time></trkpt><trkpt lat="43.35864496748469" lon="11.428405314678207"><ele>267.0</ele><time>2026-04-11T04:57:33.999Z</time></trkpt><trkpt lat="43.358597248725076" lon="11.428325012569658"><ele>267.0</ele><time>2026-04-11T04:57:34.999Z</time></trkpt><trkpt lat="43.35854478707108" lon="11.428244137975513"><ele>267.0</ele><time>2026-04-11T04:57:35.999Z</time></trkpt><trkpt lat="43.35849130930573" lon="11.428166488210257"><ele>267.0</ele><time>2026-04-11T04:57:36.999Z</time></trkpt><trkpt lat="43.35843555097039" lon="11.42809050304558"><ele>267.0</ele><time>2026-04-11T04:57:37.999Z</time></trkpt><trkpt lat="43.35838854142192" lon="11.428005791075913"><ele>267.0</ele><time>2026-04-11T04:57:38.999Z</time></trkpt><trkpt lat="43.35833922528634" lon="11.427919770270224"><ele>267.0</ele><time>2026-04-11T04:57:39.999Z</time></trkpt><trkpt lat="43.358292956002046" lon="11.427834673350791"><ele>267.0</ele><time>2026-04-11T04:57:40.999Z</time></trkpt><trkpt lat="43.35824744042635" lon="11.42775104152305"><ele>267.0</ele><time>2026-04-11T04:57:41.999Z</time></trkpt><trkpt lat="43.35820407381109" lon="11.427669914666922"><ele>266.42857142857144</ele><time>2026-04-11T04:57:42.999Z</time></trkpt><trkpt lat="43.35816455267128" lon="11.427586123438333"><ele>265.8571428571429</ele><time>2026-04-11T04:57:43.999Z</time></trkpt><trkpt lat="43.35811864810704" lon="11.427510063633147"><ele>265.2857142857143</ele><time>2026-04-11T04:57:44.999Z</time></trkpt><trkpt lat="43.35807020894277" lon="11.427433840495022"><ele>264.7142857142857</ele><time>2026-04-11T04:57:45.999Z</time></trkpt><trkpt lat="43.35802499534554" lon="11.427360573456768"><ele>264.1428571428571</ele><time>2026-04-11T04:57:46.999Z</time></trkpt><trkpt lat="43.357973459383125" lon="11.427294571248357"><ele>263.57142857142856</ele><time>2026-04-11T04:57:47.999Z</time></trkpt><trkpt lat="43.35791647758491" lon="11.427235901260177"><ele>263.0</ele><time>2026-04-11T04:57:48.999Z</time></trkpt><trkpt lat="43.35785347345801" lon="11.427179887066185"><ele>261.57142857142856</ele><time>2026-04-11T04:57:49.999Z</time></trkpt><trkpt lat="43.3577917440463" lon="11.427130065089148"><ele>260.1428571428571</ele><time>2026-04-11T04:57:50.999Z</time></trkpt><trkpt lat="43.3577284488471" lon="11.427083268123857"><ele>258.7142857142857</ele><time>2026-04-11T04:57:51.999Z</time></trkpt><trkpt lat="43.357664412047" lon="11.427035218142386"><ele>257.2857142857143</ele><time>2026-04-11T04:57:52.999Z</time></trkpt><trkpt lat="43.35759414547367" lon="11.426989625565545"><ele>255.85714285714286</ele><time>2026-04-11T04:57:53.999Z</time></trkpt><trkpt lat="43.35752298736538" lon="11.42694755580186"><ele>254.42857142857144</ele><time>2026-04-11T04:57:54.999Z</time></trkpt><trkpt lat="43.35745381402711" lon="11.426905096887603"><ele>253.00000000000003</ele><time>2026-04-11T04:57:55.999Z</time></trkpt><trkpt lat="43.357378412208014" lon="11.426858230789497"><ele>252.99999999999997</ele><time>2026-04-11T04:57:56.999Z</time></trkpt><trkpt lat="43.357302361363786" lon="11.426810449505341"><ele>253.0</ele><time>2026-04-11T04:57:57.999Z</time></trkpt><trkpt lat="43.35722422068265" lon="11.4267667731885"><ele>253.0</ele><time>2026-04-11T04:57:58.999Z</time></trkpt><trkpt lat="43.35714388082908" lon="11.426713982808666"><ele>253.0</ele><time>2026-04-11T04:58:00Z</time></trkpt><trkpt lat="43.35706019305168" lon="11.426663033305879"><ele>252.99999999999997</ele><time>2026-04-11T04:58:01Z</time></trkpt><trkpt lat="43.3569817206369" lon="11.426611705377594"><ele>253.0</ele><time>2026-04-11T04:58:02Z</time></trkpt><trkpt lat="43.3568988463505" lon="11.426553373823722"><ele>253.60000000000002</ele><time>2026-04-11T04:58:03Z</time></trkpt><trkpt lat="43.35681744945135" lon="11.42649354645436"><ele>254.20000000000002</ele><time>2026-04-11T04:58:04Z</time></trkpt><trkpt lat="43.35673852260844" lon="11.426422130751517"><ele>254.8</ele><time>2026-04-11T04:58:05Z</time></trkpt><trkpt lat="43.35664984916534" lon="11.426357489119507"><ele>255.4</ele><time>2026-04-11T04:58:06Z</time></trkpt><trkpt lat="43.35656368891793" lon="11.426285287383182"><ele>256.0</ele><time>2026-04-11T04:58:07Z</time></trkpt><trkpt lat="43.35648303753317" lon="11.426198473054686"><ele>254.0</ele><time>2026-04-11T04:58:08Z</time></trkpt><trkpt lat="43.35641161632203" lon="11.426097336131239"><ele>252.00000000000003</ele><time>2026-04-11T04:58:09Z</time></trkpt><trkpt lat="43.3563453798429" lon="11.42599592945894"><ele>250.00000000000003</ele><time>2026-04-11T04:58:10Z</time></trkpt><trkpt lat="43.356265768621405" lon="11.425903250205701"><ele>248.0</ele><time>2026-04-11T04:58:11Z</time></trkpt><trkpt lat="43.35618164672735" lon="11.425796618600364"><ele>246.0</ele><time>2026-04-11T04:58:12Z</time></trkpt><trkpt lat="43.356102678033814" lon="11.425694869577466"><ele>246.0</ele><time>2026-04-11T04:58:13Z</time></trkpt><trkpt lat="43.35603744493722" lon="11.425597719850954"><ele>246.00000000000003</ele><time>2026-04-11T04:58:14Z</time></trkpt><trkpt lat="43.355947481425666" lon="11.42549144582227"><ele>246.00000000000003</ele><time>2026-04-11T04:58:15Z</time></trkpt><trkpt lat="43.3558672131488" lon="11.425389814779704"><ele>246.0</ele><time>2026-04-11T04:58:16Z</time></trkpt><trkpt lat="43.35578746060203" lon="11.425277865485612"><ele>246.0</ele><time>2026-04-11T04:58:17Z</time></trkpt><trkpt lat="43.355703764229446" lon="11.425168452095017"><ele>244.8</ele><time>2026-04-11T04:58:18Z</time></trkpt><trkpt lat="43.35562562569596" lon="11.425062978076236"><ele>243.60000000000002</ele><time>2026-04-11T04:58:19Z</time></trkpt><trkpt lat="43.35554650336155" lon="11.424954621495097"><ele>242.4</ele><time>2026-04-11T04:58:20Z</time></trkpt><trkpt lat="43.35546426701321" lon="11.424853745228395"><ele>241.2</ele><time>2026-04-11T04:58:21Z</time></trkpt><trkpt lat="43.3553811409855" lon="11.424746160293466"><ele>240.0</ele><time>2026-04-11T04:58:22Z</time></trkpt><trkpt lat="43.355300335477224" lon="11.424638379803993"><ele>239.2</ele><time>2026-04-11T04:58:23Z</time></trkpt><trkpt lat="43.35522991117008" lon="11.424501117177446"><ele>238.4</ele><time>2026-04-11T04:58:24Z</time></trkpt><trkpt lat="43.35514740418168" lon="11.42440531436755"><ele>237.60000000000002</ele><time>2026-04-11T04:58:25Z</time></trkpt><trkpt lat="43.3550726940641" lon="11.42430277589313"><ele>236.8</ele><time>2026-04-11T04:58:26Z</time></trkpt><trkpt lat="43.35500843642951" lon="11.424181508211767"><ele>236.0</ele><time>2026-04-11T04:58:27Z</time></trkpt><trkpt lat="43.35496820030349" lon="11.424054264628644"><ele>236.0</ele><time>2026-04-11T04:58:28Z</time></trkpt><trkpt lat="43.35495815961526" lon="11.423914397273117"><ele>236.00000000000003</ele><time>2026-04-11T04:58:29Z</time></trkpt><trkpt lat="43.354982970219915" lon="11.42375686604511"><ele>236.00000000000003</ele><time>2026-04-11T04:58:30Z</time></trkpt><trkpt lat="43.35502116470224" lon="11.423617547396885"><ele>236.0</ele><time>2026-04-11T04:58:31Z</time></trkpt><trkpt lat="43.3550648514466" lon="11.423474274310527"><ele>236.0</ele><time>2026-04-11T04:58:32Z</time></trkpt><trkpt lat="43.35510157693696" lon="11.423342884146221"><ele>235.20000000000002</ele><time>2026-04-11T04:58:33Z</time></trkpt><trkpt lat="43.35514501636875" lon="11.423201692868995"><ele>234.40000000000003</ele><time>2026-04-11T04:58:34Z</time></trkpt><trkpt lat="43.35517160132644" lon="11.423055131041734"><ele>233.6</ele><time>2026-04-11T04:58:35Z</time></trkpt><trkpt lat="43.35519569499215" lon="11.422902894500734"><ele>232.8</ele><time>2026-04-11T04:58:36Z</time></trkpt><trkpt lat="43.35522340289327" lon="11.422755149107774"><ele>232.0</ele><time>2026-04-11T04:58:37Z</time></trkpt><trkpt lat="43.35525191955026" lon="11.42260881406582"><ele>230.6</ele><time>2026-04-11T04:58:38Z</time></trkpt><trkpt lat="43.355274100469366" lon="11.42246059172743"><ele>229.2</ele><time>2026-04-11T04:58:39Z</time></trkpt><trkpt lat="43.355295110652406" lon="11.422305419468367"><ele>227.8</ele><time>2026-04-11T04:58:40Z</time></trkpt><trkpt lat="43.35531417987527" lon="11.422157311372077"><ele>226.4</ele><time>2026-04-11T04:58:41Z</time></trkpt><trkpt lat="43.35532815615967" lon="11.422009039532764"><ele>225.0</ele><time>2026-04-11T04:58:42Z</time></trkpt><trkpt lat="43.355332368970366" lon="11.421858143823101"><ele>223.6</ele><time>2026-04-11T04:58:43Z</time></trkpt><trkpt lat="43.35534299930175" lon="11.421707015471204"><ele>222.2</ele><time>2026-04-11T04:58:44Z</time></trkpt><trkpt lat="43.35535972997463" lon="11.42156212361446"><ele>220.8</ele><time>2026-04-11T04:58:45Z</time></trkpt><trkpt lat="43.35537413392857" lon="11.421420111319192"><ele>219.4</ele><time>2026-04-11T04:58:46Z</time></trkpt><trkpt lat="43.355391848232344" lon="11.421278387302195"><ele>218.0</ele><time>2026-04-11T04:58:47Z</time></trkpt><trkpt lat="43.35540849761477" lon="11.421140975844285"><ele>217.4</ele><time>2026-04-11T04:58:48Z</time></trkpt><trkpt lat="43.35543002357584" lon="11.421005137548205"><ele>216.8</ele><time>2026-04-11T04:58:49Z</time></trkpt><trkpt lat="43.355450870906665" lon="11.420871354506193"><ele>216.2</ele><time>2026-04-11T04:58:50Z</time></trkpt><trkpt lat="43.355473882649555" lon="11.420740144331022"><ele>215.6</ele><time>2026-04-11T04:58:51Z</time></trkpt><trkpt lat="43.355496307941394" lon="11.420614194503468"><ele>215.0</ele><time>2026-04-11T04:58:52Z</time></trkpt><trkpt lat="43.3555258650209" lon="11.420494955218931"><ele>215.33333333333334</ele><time>2026-04-11T04:58:53Z</time></trkpt><trkpt lat="43.35554989081141" lon="11.420380251426097"><ele>215.66666666666669</ele><time>2026-04-11T04:58:54Z</time></trkpt><trkpt lat="43.35557191213963" lon="11.420262210350153"><ele>216.0</ele><time>2026-04-11T04:58:55Z</time></trkpt><trkpt lat="43.355597685569904" lon="11.420146322369881"><ele>216.33333333333331</ele><time>2026-04-11T04:58:56Z</time></trkpt><trkpt lat="43.355622146708306" lon="11.420033717585415"><ele>216.66666666666666</ele><time>2026-04-11T04:58:57Z</time></trkpt><trkpt lat="43.35564871709531" lon="11.419926932804836"><ele>217.0</ele><time>2026-04-11T04:58:58Z</time></trkpt><trkpt lat="43.355672164088176" lon="11.419814811777679"><ele>216.99999999999997</ele><time>2026-04-11T04:58:59Z</time></trkpt><trkpt lat="43.35569360607566" lon="11.419713352764882"><ele>217.0</ele><time>2026-04-11T04:59:00Z</time></trkpt><trkpt lat="43.355728244532436" lon="11.419611305463683"><ele>217.0</ele><time>2026-04-11T04:59:01Z</time></trkpt><trkpt lat="43.355766658831506" lon="11.419515155110329"><ele>217.0</ele><time>2026-04-11T04:59:02Z</time></trkpt><trkpt lat="43.35580571430291" lon="11.419422153653555"><ele>216.99999999999997</ele><time>2026-04-11T04:59:03Z</time></trkpt><trkpt lat="43.35583946212476" lon="11.419332712630341"><ele>217.0</ele><time>2026-04-11T04:59:04Z</time></trkpt><trkpt lat="43.35587691002704" lon="11.419243878008263"><ele>216.85714285714286</ele><time>2026-04-11T04:59:05Z</time></trkpt><trkpt lat="43.35591482135838" lon="11.41915867578138"><ele>216.71428571428572</ele><time>2026-04-11T04:59:06Z</time></trkpt><trkpt lat="43.35595681828366" lon="11.419075365103318"><ele>216.57142857142856</ele><time>2026-04-11T04:59:07Z</time></trkpt><trkpt lat="43.356003027081385" lon="11.418995281698946"><ele>216.42857142857144</ele><time>2026-04-11T04:59:08Z</time></trkpt><trkpt lat="43.35604321416978" lon="11.418912308563755"><ele>216.28571428571428</ele><time>2026-04-11T04:59:09Z</time></trkpt><trkpt lat="43.35607964204461" lon="11.418832847985183"><ele>216.14285714285714</ele><time>2026-04-11T04:59:10Z</time></trkpt><trkpt lat="43.356115198565114" lon="11.418747934929375"><ele>216.0</ele><time>2026-04-11T04:59:11Z</time></trkpt><trkpt lat="43.35615134054803" lon="11.418669753982034"><ele>216.16666666666666</ele><time>2026-04-11T04:59:12Z</time></trkpt><trkpt lat="43.356187902265646" lon="11.418593180853204"><ele>216.33333333333331</ele><time>2026-04-11T04:59:13Z</time></trkpt><trkpt lat="43.35622163732108" lon="11.41851930738492"><ele>216.5</ele><time>2026-04-11T04:59:14Z</time></trkpt><trkpt lat="43.35625581712634" lon="11.4184454281064"><ele>216.66666666666666</ele><time>2026-04-11T04:59:15Z</time></trkpt><trkpt lat="43.35632981224143" lon="11.41830490153593"><ele>216.83333333333331</ele><time>2026-04-11T04:59:17Z</time></trkpt><trkpt lat="43.35639664093398" lon="11.418163320604203"><ele>217.0</ele><time>2026-04-11T04:59:18.999Z</time></trkpt><trkpt lat="43.35646323920733" lon="11.418028416658215"><ele>217.39999999999998</ele><time>2026-04-11T04:59:20.999Z</time></trkpt><trkpt lat="43.356528133244765" lon="11.417892710256787"><ele>217.79999999999998</ele><time>2026-04-11T04:59:22.999Z</time></trkpt><trkpt lat="43.35658393232189" lon="11.41775740351606"><ele>218.2</ele><time>2026-04-11T04:59:24.999Z</time></trkpt><trkpt lat="43.35664661747046" lon="11.417630795652238"><ele>218.6</ele><time>2026-04-11T04:59:26.999Z</time></trkpt><trkpt lat="43.3567006917387" lon="11.417510599912813"><ele>219.0</ele><time>2026-04-11T04:59:28.999Z</time></trkpt><trkpt lat="43.356747872297866" lon="11.417393439077125"><ele>219.0</ele><time>2026-04-11T04:59:30.999Z</time></trkpt><trkpt lat="43.35679445677066" lon="11.417285944470807"><ele>219.0</ele><time>2026-04-11T04:59:32.999Z</time></trkpt><trkpt lat="43.35682321220926" lon="11.417175590116635"><ele>219.0</ele><time>2026-04-11T04:59:34.999Z</time></trkpt><trkpt lat="43.35684392342749" lon="11.417067057515627"><ele>219.0</ele><time>2026-04-11T04:59:36.999Z</time></trkpt><trkpt lat="43.3568526667959" lon="11.416961258536643"><ele>219.0</ele><time>2026-04-11T04:59:38.999Z</time></trkpt><trkpt lat="43.35687138873389" lon="11.416846477481968"><ele>219.0</ele><time>2026-04-11T04:59:41.999Z</time></trkpt><trkpt lat="43.356882777404415" lon="11.416761256319353"><ele>219.0</ele><time>2026-04-11T04:59:44.999Z</time></trkpt><trkpt lat="43.35688250692698" lon="11.41663485571987"><ele>219.0</ele><time>2026-04-11T04:59:47.999Z</time></trkpt><trkpt lat="43.356845341336935" lon="11.416549273849714"><ele>219.0</ele><time>2026-04-11T04:59:49.999Z</time></trkpt><trkpt lat="43.356794861768364" lon="11.416467102949284"><ele>219.0</ele><time>2026-04-11T04:59:51.999Z</time></trkpt><trkpt lat="43.356755948265324" lon="11.4163928753901"><ele>219.0</ele><time>2026-04-11T04:59:53.999Z</time></trkpt><trkpt lat="43.356704678557605" lon="11.416314602611228"><ele>219.0</ele><time>2026-04-11T04:59:55.999Z</time></trkpt><trkpt lat="43.356647907361854" lon="11.416234417307987"><ele>219.33333333333334</ele><time>2026-04-11T04:59:57.999Z</time></trkpt><trkpt lat="43.35659900352582" lon="11.416152563530853"><ele>219.66666666666669</ele><time>2026-04-11T04:59:59.999Z</time></trkpt><trkpt lat="43.35654967137638" lon="11.416060820190555"><ele>220.0</ele><time>2026-04-11T05:00:01.999Z</time></trkpt><trkpt lat="43.35649254756632" lon="11.41597680244175"><ele>220.33333333333334</ele><time>2026-04-11T05:00:03.999Z</time></trkpt><trkpt lat="43.35643497605647" lon="11.41589840919726"><ele>220.66666666666669</ele><time>2026-04-11T05:00:06Z</time></trkpt><trkpt lat="43.35639468025994" lon="11.415805245831118"><ele>221.0</ele><time>2026-04-11T05:00:08Z</time></trkpt><trkpt lat="43.35634264438678" lon="11.41574931787554"><ele>221.0</ele><time>2026-04-11T05:00:10Z</time></trkpt><trkpt lat="43.35637184076207" lon="11.415578908023056"><ele>221.00000000000003</ele><time>2026-04-11T05:00:13Z</time></trkpt><trkpt lat="43.35639425355392" lon="11.415460207519383"><ele>221.00000000000003</ele><time>2026-04-11T05:00:16Z</time></trkpt><trkpt lat="43.356412498270366" lon="11.41535096352457"><ele>221.0</ele><time>2026-04-11T05:00:19Z</time></trkpt><trkpt lat="43.3564284350996" lon="11.415238076316019"><ele>221.0</ele><time>2026-04-11T05:00:22Z</time></trkpt><trkpt lat="43.35644550438913" lon="11.415126075166526"><ele>221.8571428571429</ele><time>2026-04-11T05:00:25Z</time></trkpt><trkpt lat="43.35646009870846" lon="11.415027502196477"><ele>222.71428571428572</ele><time>2026-04-11T05:00:28Z</time></trkpt><trkpt lat="43.35647457399957" lon="11.414929070658069"><ele>223.57142857142858</ele><time>2026-04-11T05:00:31Z</time></trkpt><trkpt lat="43.356487764217576" lon="11.414834887354269"><ele>224.42857142857144</ele><time>2026-04-11T05:00:34Z</time></trkpt><trkpt lat="43.35650187369886" lon="11.414742653669721"><ele>225.2857142857143</ele><time>2026-04-11T05:00:37Z</time></trkpt><trkpt lat="43.3565162668572" lon="11.414643377450565"><ele>226.14285714285717</ele><time>2026-04-11T05:00:41Z</time></trkpt><trkpt lat="43.35657455618873" lon="11.414594244817273"><ele>227.0</ele><time>2026-04-11T05:02:23Z</time></trkpt><trkpt lat="43.35659869335801" lon="11.414512605219254"><ele>227.66666666666669</ele><time>2026-04-11T05:02:29Z</time></trkpt><trkpt lat="43.35662421901041" lon="11.414399843503634"><ele>228.33333333333334</ele><time>2026-04-11T05:02:33Z</time></trkpt><trkpt lat="43.356652001135956" lon="11.414309484642644"><ele>229.0</ele><time>2026-04-11T05:02:36Z</time></trkpt><trkpt lat="43.356679988023686" lon="11.41420648452801"><ele>229.66666666666669</ele><time>2026-04-11T05:02:39Z</time></trkpt><trkpt lat="43.35669930374717" lon="11.414100109229508"><ele>230.33333333333334</ele><time>2026-04-11T05:02:42Z</time></trkpt><trkpt lat="43.3567310676874" lon="11.414003244898321"><ele>231.0</ele><time>2026-04-11T05:02:45Z</time></trkpt><trkpt lat="43.3567576827264" lon="11.413901862000467"><ele>231.5</ele><time>2026-04-11T05:02:48Z</time></trkpt><trkpt lat="43.35678469418103" lon="11.413801671489628"><ele>232.0</ele><time>2026-04-11T05:02:51Z</time></trkpt><trkpt lat="43.35681260779273" lon="11.413695346756885"><ele>232.5</ele><time>2026-04-11T05:02:54Z</time></trkpt><trkpt lat="43.35683897856964" lon="11.413587220279894"><ele>233.0</ele><time>2026-04-11T05:02:57Z</time></trkpt><trkpt lat="43.35686810279583" lon="11.413488619907065"><ele>233.5</ele><time>2026-04-11T05:03:00Z</time></trkpt><trkpt lat="43.35689852932244" lon="11.413390466308398"><ele>234.0</ele><time>2026-04-11T05:03:03Z</time></trkpt><trkpt lat="43.3569172363557" lon="11.41329214363861"><ele>234.0</ele><time>2026-04-11T05:03:06Z</time></trkpt><trkpt lat="43.35694883997176" lon="11.41319675922783"><ele>234.00000000000003</ele><time>2026-04-11T05:03:09Z</time></trkpt><trkpt lat="43.35697575498295" lon="11.41310056572826"><ele>234.0</ele><time>2026-04-11T05:03:12Z</time></trkpt><trkpt lat="43.357007889816266" lon="11.413012867985353"><ele>234.0</ele><time>2026-04-11T05:03:15Z</time></trkpt><trkpt lat="43.35703688324042" lon="11.412921501364401"><ele>234.00000000000003</ele><time>2026-04-11T05:03:18Z</time></trkpt><trkpt lat="43.35706369348221" lon="11.41282840689144"><ele>234.0</ele><time>2026-04-11T05:03:21Z</time></trkpt><trkpt lat="43.35709670769771" lon="11.412743382452852"><ele>234.0</ele><time>2026-04-11T05:03:24Z</time></trkpt><trkpt lat="43.3571313994711" lon="11.41266226407349"><ele>234.42857142857144</ele><time>2026-04-11T05:03:26.999Z</time></trkpt><trkpt lat="43.357171286649226" lon="11.412591523982323"><ele>234.8571428571429</ele><time>2026-04-11T05:03:29.999Z</time></trkpt><trkpt lat="43.35721343776491" lon="11.41252638893095"><ele>235.28571428571428</ele><time>2026-04-11T05:03:32.999Z</time></trkpt><trkpt lat="43.35725092616462" lon="11.412454601204328"><ele>235.71428571428572</ele><time>2026-04-11T05:03:35.999Z</time></trkpt><trkpt lat="43.35730074645751" lon="11.412391123769767"><ele>236.14285714285714</ele><time>2026-04-11T05:03:38.999Z</time></trkpt><trkpt lat="43.357363172365105" lon="11.412344219202687"><ele>236.57142857142856</ele><time>2026-04-11T05:03:41.999Z</time></trkpt><trkpt lat="43.357421139414626" lon="11.41230191883799"><ele>236.99999999999997</ele><time>2026-04-11T05:03:44.999Z</time></trkpt><trkpt lat="43.35748628253174" lon="11.4122671086427"><ele>237.83333333333334</ele><time>2026-04-11T05:03:47.999Z</time></trkpt><trkpt lat="43.35755006859371" lon="11.412253195450639"><ele>238.66666666666669</ele><time>2026-04-11T05:03:50.999Z</time></trkpt><trkpt lat="43.357636033210355" lon="11.412241246778935"><ele>239.5</ele><time>2026-04-11T05:03:54.999Z</time></trkpt><trkpt lat="43.357706052894095" lon="11.412248145028274"><ele>240.33333333333334</ele><time>2026-04-11T05:03:57.999Z</time></trkpt><trkpt lat="43.35778417519389" lon="11.41228897104099"><ele>241.16666666666669</ele><time>2026-04-11T05:04:01.999Z</time></trkpt><trkpt lat="43.35784810671676" lon="11.412322101135109"><ele>242.0</ele><time>2026-04-11T05:04:04.999Z</time></trkpt><trkpt lat="43.35792733592147" lon="11.412364032403532"><ele>242.0</ele><time>2026-04-11T05:04:08.999Z</time></trkpt><trkpt lat="43.357991154682175" lon="11.412391186519592"><ele>242.0</ele><time>2026-04-11T05:04:11.999Z</time></trkpt><trkpt lat="43.358182391334765" lon="11.412431786965616"><ele>242.0</ele><time>2026-04-11T05:04:21Z</time></trkpt><trkpt lat="43.358421174755485" lon="11.412440014693546"><ele>243.0</ele><time>2026-04-11T05:04:32Z</time></trkpt><trkpt lat="43.35859444010341" lon="11.412413878003377"><ele>244.0</ele><time>2026-04-11T05:04:40Z</time></trkpt><trkpt lat="43.358678441977155" lon="11.412392943225264"><ele>245.0</ele><time>2026-04-11T05:04:44Z</time></trkpt><trkpt lat="43.35875666004326" lon="11.41235153226078"><ele>246.0</ele><time>2026-04-11T05:04:48Z</time></trkpt><trkpt lat="43.358817811800805" lon="11.412305666385754"><ele>247.0</ele><time>2026-04-11T05:04:51Z</time></trkpt><trkpt lat="43.358874788103286" lon="11.412252616162293"><ele>247.28571428571428</ele><time>2026-04-11T05:04:54Z</time></trkpt><trkpt lat="43.358926565498145" lon="11.412195089773371"><ele>247.57142857142856</ele><time>2026-04-11T05:04:57Z</time></trkpt><trkpt lat="43.35896800011715" lon="11.412109158241696"><ele>247.85714285714283</ele><time>2026-04-11T05:05:01Z</time></trkpt><trkpt lat="43.35897858422493" lon="11.412020593286993"><ele>248.14285714285714</ele><time>2026-04-11T05:05:05Z</time></trkpt><trkpt lat="43.35898167044033" lon="11.41190611465101"><ele>248.4285714285714</ele><time>2026-04-11T05:05:09Z</time></trkpt><trkpt lat="43.358980505286894" lon="11.411797723665956"><ele>248.7142857142857</ele><time>2026-04-11T05:05:13Z</time></trkpt><trkpt lat="43.35895967404334" lon="11.411698899263733"><ele>249.0</ele><time>2026-04-11T05:05:17Z</time></trkpt><trkpt lat="43.358969832841446" lon="11.41160099452275"><ele>250.5</ele><time>2026-04-11T05:05:20Z</time></trkpt><trkpt lat="43.358976738808295" lon="11.411504983644392"><ele>252.0</ele><time>2026-04-11T05:05:22.999Z</time></trkpt><trkpt lat="43.358991708619754" lon="11.41138975863427"><ele>253.5</ele><time>2026-04-11T05:05:26.999Z</time></trkpt><trkpt lat="43.35902881193778" lon="11.411293344214947"><ele>255.0</ele><time>2026-04-11T05:05:30.999Z</time></trkpt><trkpt lat="43.359051093712196" lon="11.411181970080948"><ele>256.5</ele><time>2026-04-11T05:05:34.999Z</time></trkpt><trkpt lat="43.359098219135774" lon="11.411085398731869"><ele>258.0</ele><time>2026-04-11T05:05:38.999Z</time></trkpt><trkpt lat="43.359129743486854" lon="11.411006768450651"><ele>259.0</ele><time>2026-04-11T05:05:42.999Z</time></trkpt><trkpt lat="43.35920020412165" lon="11.410949834727347"><ele>260.0</ele><time>2026-04-11T05:05:46.999Z</time></trkpt><trkpt lat="43.359268344251305" lon="11.410926941126021"><ele>261.0</ele><time>2026-04-11T05:05:49.999Z</time></trkpt><trkpt lat="43.359368356873965" lon="11.410957614355025"><ele>262.0</ele><time>2026-04-11T05:05:54.999Z</time></trkpt><trkpt lat="43.35944013817192" lon="11.411020960066157"><ele>263.0</ele><time>2026-04-11T05:05:58.999Z</time></trkpt><trkpt lat="43.3594861776339" lon="11.411094306882067"><ele>264.0</ele><time>2026-04-11T05:06:01.999Z</time></trkpt><trkpt lat="43.35953219905668" lon="11.41118439774955"><ele>264.0</ele><time>2026-04-11T05:06:04.999Z</time></trkpt><trkpt lat="43.35956281628247" lon="11.411295841572105"><ele>264.0</ele><time>2026-04-11T05:06:07.999Z</time></trkpt><trkpt lat="43.35957894994104" lon="11.411405432202473"><ele>264.0</ele><time>2026-04-11T05:06:10.999Z</time></trkpt><trkpt lat="43.359596664879604" lon="11.411518341576954"><ele>264.0</ele><time>2026-04-11T05:06:13.999Z</time></trkpt><trkpt lat="43.359612224908915" lon="11.411627628819799"><ele>264.0</ele><time>2026-04-11T05:06:16.999Z</time></trkpt><trkpt lat="43.35964127515026" lon="11.411735994719091"><ele>264.0</ele><time>2026-04-11T05:06:19.999Z</time></trkpt><trkpt lat="43.359669441031095" lon="11.411839751175041"><ele>264.85714285714283</ele><time>2026-04-11T05:06:22.999Z</time></trkpt><trkpt lat="43.35970182342218" lon="11.411925332673727"><ele>265.7142857142857</ele><time>2026-04-11T05:06:26Z</time></trkpt><trkpt lat="43.359764355667814" lon="11.412002916964955"><ele>266.57142857142856</ele><time>2026-04-11T05:06:29Z</time></trkpt><trkpt lat="43.359829961222545" lon="11.412040778382009"><ele>267.42857142857144</ele><time>2026-04-11T05:06:32Z</time></trkpt><trkpt lat="43.35989319697274" lon="11.41205059867853"><ele>268.2857142857143</ele><time>2026-04-11T05:06:35Z</time></trkpt><trkpt lat="43.35994718161696" lon="11.412005000538981"><ele>269.1428571428571</ele><time>2026-04-11T05:06:38Z</time></trkpt><trkpt lat="43.359999451208765" lon="11.411909948614404"><ele>270.0</ele><time>2026-04-11T05:06:42Z</time></trkpt><trkpt lat="43.35998522231131" lon="11.411822723940496"><ele>270.0</ele><time>2026-04-11T05:06:45Z</time></trkpt><trkpt lat="43.359960120823644" lon="11.411719830453857"><ele>270.0</ele><time>2026-04-11T05:06:49Z</time></trkpt><trkpt lat="43.359925840116944" lon="11.411626225925795"><ele>270.0</ele><time>2026-04-11T05:06:53Z</time></trkpt><trkpt lat="43.35991702171566" lon="11.41153919987222"><ele>270.0</ele><time>2026-04-11T05:06:56Z</time></trkpt><trkpt lat="43.359908554291735" lon="11.411448351423102"><ele>270.0</ele><time>2026-04-11T05:06:59Z</time></trkpt><trkpt lat="43.35992301511522" lon="11.411363258875225"><ele>270.0</ele><time>2026-04-11T05:07:02Z</time></trkpt><trkpt lat="43.35995751544465" lon="11.411280731757751"><ele>270.0</ele><time>2026-04-11T05:07:05Z</time></trkpt><trkpt lat="43.35999139681665" lon="11.41118184597911"><ele>270.0</ele><time>2026-04-11T05:07:09Z</time></trkpt><trkpt lat="43.36004031115117" lon="11.411101260557446"><ele>270.0</ele><time>2026-04-11T05:07:13Z</time></trkpt><trkpt lat="43.36011015776085" lon="11.411038643340433"><ele>270.0</ele><time>2026-04-11T05:07:17Z</time></trkpt><trkpt lat="43.360174241526664" lon="11.411026068928404"><ele>270.0</ele><time>2026-04-11T05:07:19Z</time></trkpt><trkpt lat="43.360226526452045" lon="11.410966078488254"><ele>270.0</ele><time>2026-04-11T05:07:24Z</time></trkpt><trkpt lat="43.36028340488942" lon="11.41091699881666"><ele>270.0</ele><time>2026-04-11T05:07:27Z</time></trkpt><trkpt lat="43.360360034559775" lon="11.410891088773592"><ele>270.0</ele><time>2026-04-11T05:07:31Z</time></trkpt><trkpt lat="43.36043474146092" lon="11.410872152055882"><ele>270.0</ele><time>2026-04-11T05:07:34.999Z</time></trkpt><trkpt lat="43.360504810539595" lon="11.410840817159503"><ele>270.0</ele><time>2026-04-11T05:07:38.999Z</time></trkpt><trkpt lat="43.36056918407989" lon="11.410798116609412"><ele>270.0</ele><time>2026-04-11T05:07:42.999Z</time></trkpt><trkpt lat="43.36063506312265" lon="11.410766507629825"><ele>270.0</ele><time>2026-04-11T05:07:46.999Z</time></trkpt><trkpt lat="43.36070288862933" lon="11.410710984204606"><ele>270.0</ele><time>2026-04-11T05:07:50.999Z</time></trkpt><trkpt lat="43.36076526867291" lon="11.410646908086267"><ele>270.0</ele><time>2026-04-11T05:07:54.999Z</time></trkpt><trkpt lat="43.36080388649995" lon="11.410576308563801"><ele>270.0</ele><time>2026-04-11T05:07:58.999Z</time></trkpt><trkpt lat="43.36082907683678" lon="11.410494171386842"><ele>271.57142857142856</ele><time>2026-04-11T05:08:01.999Z</time></trkpt><trkpt lat="43.36085279187162" lon="11.410382563572892"><ele>273.1428571428571</ele><time>2026-04-11T05:08:05.999Z</time></trkpt><trkpt lat="43.36087447774201" lon="11.410290747947478"><ele>274.7142857142857</ele><time>2026-04-11T05:08:08.999Z</time></trkpt><trkpt lat="43.36086890547188" lon="11.410191388143444"><ele>276.2857142857143</ele><time>2026-04-11T05:08:11.999Z</time></trkpt><trkpt lat="43.36086122132743" lon="11.410091363987387"><ele>277.8571428571429</ele><time>2026-04-11T05:08:14.999Z</time></trkpt><trkpt lat="43.360841783046546" lon="11.409998055075427"><ele>279.42857142857144</ele><time>2026-04-11T05:08:17.999Z</time></trkpt><trkpt lat="43.36081349895281" lon="11.409913616110174"><ele>281.0</ele><time>2026-04-11T05:08:20.999Z</time></trkpt><trkpt lat="43.3607766493809" lon="11.409832620333955"><ele>281.00000000000006</ele><time>2026-04-11T05:08:23.999Z</time></trkpt><trkpt lat="43.36074801025626" lon="11.409743220358143"><ele>281.0</ele><time>2026-04-11T05:08:26.999Z</time></trkpt><trkpt lat="43.3607232124711" lon="11.409652315926737"><ele>281.0</ele><time>2026-04-11T05:08:30Z</time></trkpt><trkpt lat="43.36069320166982" lon="11.409565413936445"><ele>281.0</ele><time>2026-04-11T05:08:33Z</time></trkpt><trkpt lat="43.36065848124178" lon="11.409484118938359"><ele>281.0</ele><time>2026-04-11T05:08:36Z</time></trkpt><trkpt lat="43.360623215992575" lon="11.409397328382566"><ele>281.00000000000006</ele><time>2026-04-11T05:08:39Z</time></trkpt><trkpt lat="43.36057708451877" lon="11.409321349338812"><ele>281.0</ele><time>2026-04-11T05:08:42Z</time></trkpt><trkpt lat="43.36054268542932" lon="11.40923685436193"><ele>280.8571428571429</ele><time>2026-04-11T05:08:45Z</time></trkpt><trkpt lat="43.36050222355468" lon="11.409155364976424"><ele>280.7142857142857</ele><time>2026-04-11T05:08:48Z</time></trkpt><trkpt lat="43.36045547709317" lon="11.409085854151689"><ele>280.57142857142856</ele><time>2026-04-11T05:08:51Z</time></trkpt><trkpt lat="43.36042043536146" lon="11.40900995908413"><ele>280.42857142857144</ele><time>2026-04-11T05:08:54Z</time></trkpt><trkpt lat="43.36036842598212" lon="11.408949392867948"><ele>280.2857142857143</ele><time>2026-04-11T05:08:57Z</time></trkpt><trkpt lat="43.360315029196" lon="11.408885848716992"><ele>280.14285714285717</ele><time>2026-04-11T05:09:00Z</time></trkpt><trkpt lat="43.360253660698966" lon="11.408825404725063"><ele>280.0</ele><time>2026-04-11T05:09:03Z</time></trkpt><trkpt lat="43.36018483871664" lon="11.408765829228015"><ele>281.2857142857143</ele><time>2026-04-11T05:09:06Z</time></trkpt><trkpt lat="43.36011784998472" lon="11.408724949211512"><ele>282.57142857142856</ele><time>2026-04-11T05:09:09Z</time></trkpt><trkpt lat="43.36006300883349" lon="11.408675816430529"><ele>283.8571428571429</ele><time>2026-04-11T05:09:12Z</time></trkpt><trkpt lat="43.36000160894428" lon="11.408627592054334"><ele>285.1428571428571</ele><time>2026-04-11T05:09:15Z</time></trkpt><trkpt lat="43.35994558391386" lon="11.408577053579513"><ele>286.42857142857144</ele><time>2026-04-11T05:09:18Z</time></trkpt><trkpt lat="43.35988416371947" lon="11.408540783678774"><ele>287.7142857142857</ele><time>2026-04-11T05:09:21Z</time></trkpt><trkpt lat="43.35981532180015" lon="11.408480845618964"><ele>289.0</ele><time>2026-04-11T05:09:25Z</time></trkpt><trkpt lat="43.35973482989135" lon="11.408428010016069"><ele>289.0</ele><time>2026-04-11T05:09:29Z</time></trkpt><trkpt lat="43.359662082941966" lon="11.408369313206446"><ele>289.0</ele><time>2026-04-11T05:09:33Z</time></trkpt><trkpt lat="43.359591765977136" lon="11.408301027748507"><ele>289.0</ele><time>2026-04-11T05:09:37Z</time></trkpt><trkpt lat="43.35953849085583" lon="11.40824887500631"><ele>289.0</ele><time>2026-04-11T05:09:40Z</time></trkpt><trkpt lat="43.359490557404776" lon="11.408159538256223"><ele>289.0</ele><time>2026-04-11T05:09:43.999Z</time></trkpt><trkpt lat="43.35946026102877" lon="11.408063639974207"><ele>289.0</ele><time>2026-04-11T05:09:47.999Z</time></trkpt><trkpt lat="43.359463920439566" lon="11.407957132520247"><ele>289.8571428571429</ele><time>2026-04-11T05:09:51.999Z</time></trkpt><trkpt lat="43.35947837988622" lon="11.407854058359101"><ele>290.7142857142857</ele><time>2026-04-11T05:09:55.999Z</time></trkpt><trkpt lat="43.35950269318717" lon="11.407747400459751"><ele>291.57142857142856</ele><time>2026-04-11T05:09:59.999Z</time></trkpt><trkpt lat="43.3595335543676" lon="11.407658516745796"><ele>292.42857142857144</ele><time>2026-04-11T05:10:03.999Z</time></trkpt><trkpt lat="43.359576879625834" lon="11.407592232199459"><ele>293.2857142857143</ele><time>2026-04-11T05:10:06.999Z</time></trkpt><trkpt lat="43.35962481098283" lon="11.407532924329486"><ele>294.14285714285717</ele><time>2026-04-11T05:10:09.999Z</time></trkpt><trkpt lat="43.359688590184184" lon="11.407467940620034"><ele>295.0</ele><time>2026-04-11T05:10:13.999Z</time></trkpt><trkpt lat="43.35973981063602" lon="11.407416948411866"><ele>295.00000000000006</ele><time>2026-04-11T05:10:16.999Z</time></trkpt><trkpt lat="43.3598077964304" lon="11.407395560755486"><ele>295.0</ele><time>2026-04-11T05:10:19.999Z</time></trkpt><trkpt lat="43.35988383152181" lon="11.407396692872485"><ele>295.0</ele><time>2026-04-11T05:10:22.999Z</time></trkpt><trkpt lat="43.359957574579305" lon="11.407401953988506"><ele>295.0</ele><time>2026-04-11T05:10:25.999Z</time></trkpt><trkpt lat="43.36002221059186" lon="11.407438120489209"><ele>295.0</ele><time>2026-04-11T05:10:28.999Z</time></trkpt><trkpt lat="43.36009835046877" lon="11.407460438678502"><ele>295.00000000000006</ele><time>2026-04-11T05:10:31.999Z</time></trkpt><trkpt lat="43.360174448753085" lon="11.407478468337429"><ele>295.0</ele><time>2026-04-11T05:10:34.999Z</time></trkpt><trkpt lat="43.36024781079922" lon="11.407500826254338"><ele>295.00000000000006</ele><time>2026-04-11T05:10:38Z</time></trkpt><trkpt lat="43.360318378592474" lon="11.407518613873453"><ele>295.0</ele><time>2026-04-11T05:10:41Z</time></trkpt><trkpt lat="43.36038956171008" lon="11.407532019086771"><ele>295.0</ele><time>2026-04-11T05:10:44Z</time></trkpt><trkpt lat="43.360466365194526" lon="11.407536880954554"><ele>295.0</ele><time>2026-04-11T05:10:47Z</time></trkpt><trkpt lat="43.3605371820349" lon="11.40754946936774"><ele>295.0</ele><time>2026-04-11T05:10:50Z</time></trkpt><trkpt lat="43.36061096273961" lon="11.407558719020958"><ele>295.00000000000006</ele><time>2026-04-11T05:10:53Z</time></trkpt><trkpt lat="43.36067970470516" lon="11.407566219649384"><ele>295.0</ele><time>2026-04-11T05:10:56Z</time></trkpt><trkpt lat="43.36074909124753" lon="11.407571363266888"><ele>295.42857142857144</ele><time>2026-04-11T05:10:59Z</time></trkpt><trkpt lat="43.36083157822193" lon="11.40759040647017"><ele>295.8571428571429</ele><time>2026-04-11T05:11:03Z</time></trkpt><trkpt lat="43.36090235111228" lon="11.40758354932774"><ele>296.2857142857143</ele><time>2026-04-11T05:11:06Z</time></trkpt><trkpt lat="43.36096949030264" lon="11.407585889532804"><ele>296.7142857142857</ele><time>2026-04-11T05:11:09Z</time></trkpt><trkpt lat="43.36103909117076" lon="11.407574035635326"><ele>297.1428571428571</ele><time>2026-04-11T05:11:12Z</time></trkpt><trkpt lat="43.36110495291669" lon="11.40757032850483"><ele>297.57142857142856</ele><time>2026-04-11T05:11:15Z</time></trkpt><trkpt lat="43.36117518950113" lon="11.407557782872507"><ele>298.0</ele><time>2026-04-11T05:11:18Z</time></trkpt><trkpt lat="43.361240420519394" lon="11.407546976339937"><ele>298.0</ele><time>2026-04-11T05:11:21Z</time></trkpt><trkpt lat="43.361307391774496" lon="11.407543068334673"><ele>298.0</ele><time>2026-04-11T05:11:24Z</time></trkpt><trkpt lat="43.36137078717093" lon="11.407533323723476"><ele>298.0</ele><time>2026-04-11T05:11:27Z</time></trkpt><trkpt lat="43.361441957666926" lon="11.407515831490871"><ele>298.0</ele><time>2026-04-11T05:11:30Z</time></trkpt><trkpt lat="43.36150881072598" lon="11.407495660575105"><ele>298.0</ele><time>2026-04-11T05:11:33Z</time></trkpt><trkpt lat="43.36157030890965" lon="11.407475351762708"><ele>298.0</ele><time>2026-04-11T05:11:36Z</time></trkpt><trkpt lat="43.36165121982338" lon="11.407452442445132"><ele>298.0</ele><time>2026-04-11T05:11:40Z</time></trkpt><trkpt lat="43.36173207299238" lon="11.407423868940828"><ele>299.3333333333333</ele><time>2026-04-11T05:11:44Z</time></trkpt><trkpt lat="43.36181395607778" lon="11.407406043407846"><ele>300.66666666666663</ele><time>2026-04-11T05:11:47.999Z</time></trkpt><trkpt lat="43.361875953456746" lon="11.4073866141138"><ele>302.0</ele><time>2026-04-11T05:11:50.999Z</time></trkpt><trkpt lat="43.36195277861797" lon="11.407362503790408"><ele>303.3333333333333</ele><time>2026-04-11T05:11:54.999Z</time></trkpt><trkpt lat="43.362033310383204" lon="11.407342806126673"><ele>304.6666666666667</ele><time>2026-04-11T05:11:58.999Z</time></trkpt><trkpt lat="43.36211078549337" lon="11.407316421277296"><ele>306.0</ele><time>2026-04-11T05:12:02.999Z</time></trkpt><trkpt lat="43.36218712237931" lon="11.407287810643934"><ele>306.8333333333333</ele><time>2026-04-11T05:12:06.999Z</time></trkpt><trkpt lat="43.36226585737315" lon="11.407265902552009"><ele>307.6666666666667</ele><time>2026-04-11T05:12:10.999Z</time></trkpt><trkpt lat="43.362340456877135" lon="11.40724924538266"><ele>308.5</ele><time>2026-04-11T05:12:14.999Z</time></trkpt><trkpt lat="43.362418189654285" lon="11.407223730096037"><ele>309.33333333333337</ele><time>2026-04-11T05:12:18.999Z</time></trkpt><trkpt lat="43.36249263882838" lon="11.407197048177942"><ele>310.1666666666667</ele><time>2026-04-11T05:12:22.999Z</time></trkpt><trkpt lat="43.36256988839959" lon="11.407166715019873"><ele>311.0</ele><time>2026-04-11T05:12:26.999Z</time></trkpt><trkpt lat="43.36264567581051" lon="11.407131270334569"><ele>311.0</ele><time>2026-04-11T05:12:30.999Z</time></trkpt><trkpt lat="43.362708017984005" lon="11.407112222538487"><ele>311.0</ele><time>2026-04-11T05:12:33.999Z</time></trkpt><trkpt lat="43.3627834089532" lon="11.40707440416847"><ele>311.0</ele><time>2026-04-11T05:12:37.999Z</time></trkpt><trkpt lat="43.36285791037776" lon="11.407040188983979"><ele>311.0</ele><time>2026-04-11T05:12:42Z</time></trkpt><trkpt lat="43.36293479542246" lon="11.40699700714492"><ele>311.0</ele><time>2026-04-11T05:12:46Z</time></trkpt><trkpt lat="43.363012652449164" lon="11.406973509959787"><ele>311.0</ele><time>2026-04-11T05:12:50Z</time></trkpt><trkpt lat="43.363082225278426" lon="11.406934348327168"><ele>312.33333333333337</ele><time>2026-04-11T05:12:54Z</time></trkpt><trkpt lat="43.363146013180426" lon="11.406884717306099"><ele>313.6666666666667</ele><time>2026-04-11T05:12:58Z</time></trkpt><trkpt lat="43.36321226639146" lon="11.406843183135223"><ele>315.0</ele><time>2026-04-11T05:13:02Z</time></trkpt><trkpt lat="43.36327723207584" lon="11.406792385130514"><ele>316.3333333333333</ele><time>2026-04-11T05:13:06Z</time></trkpt><trkpt lat="43.36334409834441" lon="11.406741587022003"><ele>317.66666666666663</ele><time>2026-04-11T05:13:10Z</time></trkpt><trkpt lat="43.36342026044614" lon="11.406699207158923"><ele>319.0</ele><time>2026-04-11T05:13:14Z</time></trkpt><trkpt lat="43.363496161725635" lon="11.406647652950056"><ele>319.0</ele><time>2026-04-11T05:13:18Z</time></trkpt><trkpt lat="43.36356981706804" lon="11.406604130689434"><ele>319.0</ele><time>2026-04-11T05:13:22Z</time></trkpt><trkpt lat="43.36364077968179" lon="11.406553954646919"><ele>319.0</ele><time>2026-04-11T05:13:26Z</time></trkpt><trkpt lat="43.36371149378695" lon="11.406512974467057"><ele>319.0</ele><time>2026-04-11T05:13:30Z</time></trkpt><trkpt lat="43.36377718883571" lon="11.406472595068117"><ele>319.0</ele><time>2026-04-11T05:13:34Z</time></trkpt><trkpt lat="43.36384244479442" lon="11.406425604347158"><ele>319.0</ele><time>2026-04-11T05:13:38Z</time></trkpt><trkpt lat="43.36390886381638" lon="11.40637929760384"><ele>320.2857142857143</ele><time>2026-04-11T05:13:42Z</time></trkpt><trkpt lat="43.36397437091011" lon="11.406332126727532"><ele>321.57142857142856</ele><time>2026-04-11T05:13:46Z</time></trkpt><trkpt lat="43.364038836680805" lon="11.406282662052575"><ele>322.85714285714283</ele><time>2026-04-11T05:13:50Z</time></trkpt><trkpt lat="43.36410454009073" lon="11.406245886557521"><ele>324.1428571428571</ele><time>2026-04-11T05:13:54Z</time></trkpt><trkpt lat="43.364160472388534" lon="11.406191714914442"><ele>325.42857142857144</ele><time>2026-04-11T05:13:58Z</time></trkpt><trkpt lat="43.364225497622236" lon="11.406150776212112"><ele>326.71428571428567</ele><time>2026-04-11T05:14:01.999Z</time></trkpt><trkpt lat="43.36429234431443" lon="11.406106743609941"><ele>328.0</ele><time>2026-04-11T05:14:05.999Z</time></trkpt><trkpt lat="43.364352727981135" lon="11.40606024663515"><ele>328.1428571428571</ele><time>2026-04-11T05:14:08.999Z</time></trkpt><trkpt lat="43.364417947330274" lon="11.406033071629682"><ele>328.2857142857143</ele><time>2026-04-11T05:14:12.999Z</time></trkpt><trkpt lat="43.364485952652316" lon="11.405995899133138"><ele>328.42857142857144</ele><time>2026-04-11T05:14:16.999Z</time></trkpt><trkpt lat="43.36455874276145" lon="11.405979599261245"><ele>328.57142857142856</ele><time>2026-04-11T05:14:20.999Z</time></trkpt><trkpt lat="43.36462837844869" lon="11.405993971282838"><ele>328.7142857142857</ele><time>2026-04-11T05:14:24.999Z</time></trkpt><trkpt lat="43.364677656910395" lon="11.40606229296547"><ele>328.85714285714283</ele><time>2026-04-11T05:14:27.999Z</time></trkpt><trkpt lat="43.36473433940718" lon="11.40614026510182"><ele>329.0</ele><time>2026-04-11T05:14:31.999Z</time></trkpt><trkpt lat="43.36479489210539" lon="11.40621605908311"><ele>330.6666666666667</ele><time>2026-04-11T05:14:35.999Z</time></trkpt><trkpt lat="43.3648391409848" lon="11.406284191615253"><ele>332.33333333333337</ele><time>2026-04-11T05:14:38.999Z</time></trkpt><trkpt lat="43.364901263355456" lon="11.406361675841184"><ele>334.0</ele><time>2026-04-11T05:14:42.999Z</time></trkpt><trkpt lat="43.36496887295275" lon="11.406424866112127"><ele>335.6666666666667</ele><time>2026-04-11T05:14:46.999Z</time></trkpt><trkpt lat="43.365031946212696" lon="11.406470731713593"><ele>337.3333333333333</ele><time>2026-04-11T05:14:50Z</time></trkpt><trkpt lat="43.365112940767524" lon="11.406476419354588"><ele>339.0</ele><time>2026-04-11T05:14:54Z</time></trkpt><trkpt lat="43.365188421140175" lon="11.406458660711394"><ele>339.0</ele><time>2026-04-11T05:14:57Z</time></trkpt><trkpt lat="43.365255804485486" lon="11.406429283109128"><ele>339.0</ele><time>2026-04-11T05:15:00Z</time></trkpt><trkpt lat="43.365340431019014" lon="11.40641135464991"><ele>339.0</ele><time>2026-04-11T05:15:05Z</time></trkpt><trkpt lat="43.36542118236271" lon="11.406378058729764"><ele>339.0</ele><time>2026-04-11T05:15:08Z</time></trkpt><trkpt lat="43.365503349960626" lon="11.406332559640258"><ele>339.0</ele><time>2026-04-11T05:15:11Z</time></trkpt><trkpt lat="43.36558639886181" lon="11.406310832604376"><ele>339.0</ele><time>2026-04-11T05:15:14Z</time></trkpt><trkpt lat="43.365676867108895" lon="11.406282795779859"><ele>339.8333333333333</ele><time>2026-04-11T05:15:17Z</time></trkpt><trkpt lat="43.36575993256022" lon="11.40624199804314"><ele>340.6666666666667</ele><time>2026-04-11T05:15:20Z</time></trkpt><trkpt lat="43.36582082393628" lon="11.406202799609172"><ele>341.5</ele><time>2026-04-11T05:15:22Z</time></trkpt><trkpt lat="43.365896060253355" lon="11.406141534451027"><ele>342.33333333333337</ele><time>2026-04-11T05:15:25Z</time></trkpt><trkpt lat="43.36594916277725" lon="11.406069064891177"><ele>343.1666666666667</ele><time>2026-04-11T05:15:28Z</time></trkpt><trkpt lat="43.36599279521672" lon="11.405979890721616"><ele>344.0</ele><time>2026-04-11T05:15:31Z</time></trkpt><trkpt lat="43.36602351264568" lon="11.405884127671095"><ele>344.0</ele><time>2026-04-11T05:15:34Z</time></trkpt><trkpt lat="43.36607333232972" lon="11.405777425958242"><ele>344.0</ele><time>2026-04-11T05:15:37Z</time></trkpt><trkpt lat="43.366114691936" lon="11.40568171524413"><ele>344.0</ele><time>2026-04-11T05:15:40Z</time></trkpt><trkpt lat="43.36615745909022" lon="11.405586827447246"><ele>344.0</ele><time>2026-04-11T05:15:43Z</time></trkpt><trkpt lat="43.36620462562771" lon="11.40548226211813"><ele>344.0</ele><time>2026-04-11T05:15:46Z</time></trkpt><trkpt lat="43.36623682811242" lon="11.405371543353422"><ele>344.0</ele><time>2026-04-11T05:15:49Z</time></trkpt><trkpt lat="43.36628487104489" lon="11.405264001267966"><ele>344.0</ele><time>2026-04-11T05:15:52Z</time></trkpt><trkpt lat="43.36631868274709" lon="11.405189840278886"><ele>344.0</ele><time>2026-04-11T05:15:54Z</time></trkpt><trkpt lat="43.366358453913904" lon="11.40508910274362"><ele>344.0</ele><time>2026-04-11T05:15:57Z</time></trkpt><trkpt lat="43.366398376022865" lon="11.40498275414114"><ele>344.0</ele><time>2026-04-11T05:16:00Z</time></trkpt><trkpt lat="43.36644496479279" lon="11.40487840841198"><ele>344.0</ele><time>2026-04-11T05:16:03Z</time></trkpt><trkpt lat="43.366491778800096" lon="11.404785080401007"><ele>344.0</ele><time>2026-04-11T05:16:06Z</time></trkpt><trkpt lat="43.36654288756495" lon="11.404686793957197"><ele>344.83333333333337</ele><time>2026-04-11T05:16:09Z</time></trkpt><trkpt lat="43.366611893484766" lon="11.40461080202858"><ele>345.6666666666667</ele><time>2026-04-11T05:16:11.999Z</time></trkpt><trkpt lat="43.36665681091309" lon="11.404544472550045"><ele>346.5</ele><time>2026-04-11T05:16:13.999Z</time></trkpt><trkpt lat="43.36672402510569" lon="11.40447159753869"><ele>347.3333333333333</ele><time>2026-04-11T05:16:16.999Z</time></trkpt><trkpt lat="43.366796589451525" lon="11.404408985632813"><ele>348.16666666666663</ele><time>2026-04-11T05:16:19.999Z</time></trkpt><trkpt lat="43.36687448159516" lon="11.404353614061186"><ele>349.0</ele><time>2026-04-11T05:16:22.999Z</time></trkpt><trkpt lat="43.36695454308013" lon="11.404326384695958"><ele>349.0</ele><time>2026-04-11T05:16:25.999Z</time></trkpt><trkpt lat="43.367036117566876" lon="11.404281206316428"><ele>349.0</ele><time>2026-04-11T05:16:28.999Z</time></trkpt><trkpt lat="43.36711597848656" lon="11.404260449727175"><ele>349.0</ele><time>2026-04-11T05:16:31.999Z</time></trkpt><trkpt lat="43.367191593295544" lon="11.40424211913299"><ele>349.0</ele><time>2026-04-11T05:16:34.999Z</time></trkpt><trkpt lat="43.367278730074226" lon="11.404237413248042"><ele>349.0</ele><time>2026-04-11T05:16:37.999Z</time></trkpt><trkpt lat="43.367366415242884" lon="11.404243119106704"><ele>349.0</ele><time>2026-04-11T05:16:40.999Z</time></trkpt><trkpt lat="43.36744530625426" lon="11.404262439537627"><ele>349.0</ele><time>2026-04-11T05:16:43.999Z</time></trkpt><trkpt lat="43.367532348270494" lon="11.404267096457652"><ele>349.0</ele><time>2026-04-11T05:16:46.999Z</time></trkpt><trkpt lat="43.36763237778478" lon="11.404263692605953"><ele>349.0</ele><time>2026-04-11T05:16:49.999Z</time></trkpt><trkpt lat="43.36771229881398" lon="11.404293072575415"><ele>349.0</ele><time>2026-04-11T05:16:52.999Z</time></trkpt><trkpt lat="43.36777809661856" lon="11.404316788671897"><ele>349.0</ele><time>2026-04-11T05:16:55Z</time></trkpt><trkpt lat="43.36787681713077" lon="11.404325379506412"><ele>349.0</ele><time>2026-04-11T05:16:58Z</time></trkpt><trkpt lat="43.36797164123179" lon="11.404343713030293"><ele>349.6</ele><time>2026-04-11T05:17:01Z</time></trkpt><trkpt lat="43.3680418231204" lon="11.404360058521767"><ele>350.2</ele><time>2026-04-11T05:17:03Z</time></trkpt><trkpt lat="43.36817162690884" lon="11.404378149123588"><ele>350.8</ele><time>2026-04-11T05:17:07Z</time></trkpt><trkpt lat="43.36825438205763" lon="11.404395551504702"><ele>351.40000000000003</ele><time>2026-04-11T05:17:10Z</time></trkpt><trkpt lat="43.368329205042016" lon="11.404411982883941"><ele>352.0</ele><time>2026-04-11T05:17:13Z</time></trkpt><trkpt lat="43.36842245029552" lon="11.404421558109538"><ele>352.0</ele><time>2026-04-11T05:17:16Z</time></trkpt><trkpt lat="43.368484850847906" lon="11.404433477693903"><ele>352.0</ele><time>2026-04-11T05:17:18Z</time></trkpt><trkpt lat="43.368547545007466" lon="11.404446763024254"><ele>352.0</ele><time>2026-04-11T05:17:20Z</time></trkpt><trkpt lat="43.36874393172943" lon="11.404455255504"><ele>352.0</ele><time>2026-04-11T05:17:26Z</time></trkpt><trkpt lat="43.36881029814795" lon="11.404463493941556"><ele>352.0</ele><time>2026-04-11T05:17:28Z</time></trkpt><trkpt lat="43.36901491248528" lon="11.404461022796529"><ele>352.6</ele><time>2026-04-11T05:17:34Z</time></trkpt><trkpt lat="43.3692072482393" lon="11.404440878960902"><ele>353.20000000000005</ele><time>2026-04-11T05:17:40Z</time></trkpt><trkpt lat="43.36927111153796" lon="11.40443379097519"><ele>353.8</ele><time>2026-04-11T05:17:42Z</time></trkpt><trkpt lat="43.36935515905621" lon="11.40443194202729"><ele>354.4</ele><time>2026-04-11T05:17:45Z</time></trkpt><trkpt lat="43.36943402623033" lon="11.404432168152328"><ele>355.0</ele><time>2026-04-11T05:17:48Z</time></trkpt><trkpt lat="43.369512309744664" lon="11.404440392596761"><ele>355.0</ele><time>2026-04-11T05:17:51Z</time></trkpt><trkpt lat="43.36958352063344" lon="11.40444633745049"><ele>355.0</ele><time>2026-04-11T05:17:54Z</time></trkpt><trkpt lat="43.36965847795307" lon="11.404453684390967"><ele>355.0</ele><time>2026-04-11T05:17:57Z</time></trkpt><trkpt lat="43.369724347121576" lon="11.404464972131535"><ele>355.0</ele><time>2026-04-11T05:18:00Z</time></trkpt><trkpt lat="43.36979043942754" lon="11.404471134805352"><ele>355.0</ele><time>2026-04-11T05:18:02.999Z</time></trkpt><trkpt lat="43.369857857430205" lon="11.404475984819967"><ele>355.0</ele><time>2026-04-11T05:18:05.999Z</time></trkpt><trkpt lat="43.36992120390878" lon="11.404476555080793"><ele>355.0</ele><time>2026-04-11T05:18:08.999Z</time></trkpt><trkpt lat="43.36999121894488" lon="11.4044763503736"><ele>355.85714285714283</ele><time>2026-04-11T05:18:11.999Z</time></trkpt><trkpt lat="43.370058893088036" lon="11.404490457751699"><ele>356.7142857142857</ele><time>2026-04-11T05:18:14.999Z</time></trkpt><trkpt lat="43.37012866363256" lon="11.404490604960914"><ele>357.57142857142856</ele><time>2026-04-11T05:18:17.999Z</time></trkpt><trkpt lat="43.370198305155945" lon="11.404494259414703"><ele>358.42857142857144</ele><time>2026-04-11T05:18:20.999Z</time></trkpt><trkpt lat="43.37026864760638" lon="11.404493531130921"><ele>359.2857142857143</ele><time>2026-04-11T05:18:23.999Z</time></trkpt><trkpt lat="43.37034136593631" lon="11.404498570101039"><ele>360.14285714285717</ele><time>2026-04-11T05:18:26.999Z</time></trkpt><trkpt lat="43.37041366851544" lon="11.404494545833359"><ele>361.0</ele><time>2026-04-11T05:18:29.999Z</time></trkpt><trkpt lat="43.37047918280085" lon="11.40449936765634"><ele>361.7142857142857</ele><time>2026-04-11T05:18:32.999Z</time></trkpt><trkpt lat="43.370543621591914" lon="11.404491712486244"><ele>362.4285714285714</ele><time>2026-04-11T05:18:35.999Z</time></trkpt><trkpt lat="43.370611071323864" lon="11.404475404650505"><ele>363.1428571428571</ele><time>2026-04-11T05:18:38.999Z</time></trkpt><trkpt lat="43.37067891597586" lon="11.404464039144628"><ele>363.8571428571429</ele><time>2026-04-11T05:18:41.999Z</time></trkpt><trkpt lat="43.37074193846127" lon="11.404436734879177"><ele>364.57142857142856</ele><time>2026-04-11T05:18:44.999Z</time></trkpt><trkpt lat="43.370802566035664" lon="11.404402700113367"><ele>365.2857142857143</ele><time>2026-04-11T05:18:47.999Z</time></trkpt><trkpt lat="43.37086390365751" lon="11.40435978563288"><ele>366.0</ele><time>2026-04-11T05:18:50.999Z</time></trkpt><trkpt lat="43.37091940256732" lon="11.404304809859545"><ele>366.0</ele><time>2026-04-11T05:18:53.999Z</time></trkpt><trkpt lat="43.3709692703871" lon="11.404245142254549"><ele>366.0</ele><time>2026-04-11T05:18:56.999Z</time></trkpt><trkpt lat="43.37101440010635" lon="11.404175979147107"><ele>366.0</ele><time>2026-04-11T05:19:00Z</time></trkpt><trkpt lat="43.371053688256346" lon="11.404096348307563"><ele>366.0</ele><time>2026-04-11T05:19:03Z</time></trkpt><trkpt lat="43.37108755698991" lon="11.404019346335902"><ele>366.0</ele><time>2026-04-11T05:19:06Z</time></trkpt><trkpt lat="43.371129752143936" lon="11.403934989904725"><ele>366.0</ele><time>2026-04-11T05:19:09Z</time></trkpt><trkpt lat="43.37116194995058" lon="11.40385202662539"><ele>366.0</ele><time>2026-04-11T05:19:12Z</time></trkpt><trkpt lat="43.37119058118803" lon="11.403771789583633"><ele>366.2857142857143</ele><time>2026-04-11T05:19:15Z</time></trkpt><trkpt lat="43.37122399569403" lon="11.40369016075522"><ele>366.57142857142856</ele><time>2026-04-11T05:19:18Z</time></trkpt><trkpt lat="43.37125573232787" lon="11.403608831306908"><ele>366.8571428571429</ele><time>2026-04-11T05:19:21Z</time></trkpt><trkpt lat="43.37129106061978" lon="11.403532623518696"><ele>367.1428571428571</ele><time>2026-04-11T05:19:24Z</time></trkpt><trkpt lat="43.371324140263724" lon="11.403458495224639"><ele>367.4285714285714</ele><time>2026-04-11T05:19:27Z</time></trkpt><trkpt lat="43.37135821921784" lon="11.403376544461175"><ele>367.7142857142857</ele><time>2026-04-11T05:19:30Z</time></trkpt><trkpt lat="43.371401315906944" lon="11.403282398737188"><ele>368.0</ele><time>2026-04-11T05:19:33Z</time></trkpt><trkpt lat="43.37143549010691" lon="11.403202549598186"><ele>368.5714285714286</ele><time>2026-04-11T05:19:36Z</time></trkpt><trkpt lat="43.37147060269598" lon="11.403120791434878"><ele>369.1428571428571</ele><time>2026-04-11T05:19:39Z</time></trkpt><trkpt lat="43.371500762264276" lon="11.403030434950114"><ele>369.7142857142857</ele><time>2026-04-11T05:19:42Z</time></trkpt><trkpt lat="43.37153361382051" lon="11.402946897616292"><ele>370.28571428571433</ele><time>2026-04-11T05:19:45Z</time></trkpt><trkpt lat="43.37157297527575" lon="11.402864226165315"><ele>370.8571428571429</ele><time>2026-04-11T05:19:48Z</time></trkpt><trkpt lat="43.37159924950723" lon="11.4027818872308"><ele>371.42857142857144</ele><time>2026-04-11T05:19:51Z</time></trkpt><trkpt lat="43.37162980096954" lon="11.402702737291419"><ele>372.0</ele><time>2026-04-11T05:19:54Z</time></trkpt><trkpt lat="43.3716590903543" lon="11.402622380912995"><ele>373.00000000000006</ele><time>2026-04-11T05:19:57Z</time></trkpt><trkpt lat="43.3716848442905" lon="11.40253942721776"><ele>374.0</ele><time>2026-04-11T05:20:00Z</time></trkpt><trkpt lat="43.37171521093448" lon="11.402458822913976"><ele>375.0</ele><time>2026-04-11T05:20:03Z</time></trkpt><trkpt lat="43.37174664580199" lon="11.402378775181804"><ele>376.0</ele><time>2026-04-11T05:20:06Z</time></trkpt><trkpt lat="43.37177856242185" lon="11.402292821170379"><ele>377.0</ele><time>2026-04-11T05:20:09Z</time></trkpt><trkpt lat="43.37180303523838" lon="11.402202709436269"><ele>378.00000000000006</ele><time>2026-04-11T05:20:11.999Z</time></trkpt><trkpt lat="43.371825169492226" lon="11.402116570093073"><ele>379.0</ele><time>2026-04-11T05:20:14.999Z</time></trkpt><trkpt lat="43.37184022209338" lon="11.402020464771187"><ele>379.28571428571433</ele><time>2026-04-11T05:20:17.999Z</time></trkpt><trkpt lat="43.37184293387896" lon="11.401933134346464"><ele>379.57142857142856</ele><time>2026-04-11T05:20:20.999Z</time></trkpt><trkpt lat="43.37185335305573" lon="11.401847513400025"><ele>379.8571428571429</ele><time>2026-04-11T05:20:23.999Z</time></trkpt><trkpt lat="43.371869673184776" lon="11.401756800639653"><ele>380.14285714285717</ele><time>2026-04-11T05:20:26.999Z</time></trkpt><trkpt lat="43.371921535660576" lon="11.401656537708172"><ele>380.42857142857144</ele><time>2026-04-11T05:20:29.999Z</time></trkpt><trkpt lat="43.37196922616964" lon="11.401570756507725"><ele>380.7142857142857</ele><time>2026-04-11T05:20:32.999Z</time></trkpt><trkpt lat="43.37201880156807" lon="11.401497243187206"><ele>381.0</ele><time>2026-04-11T05:20:35.999Z</time></trkpt><trkpt lat="43.37209171324301" lon="11.401415453140318"><ele>381.0</ele><time>2026-04-11T05:20:38.999Z</time></trkpt><trkpt lat="43.372153200696054" lon="11.40134012345249"><ele>381.0</ele><time>2026-04-11T05:20:41.999Z</time></trkpt><trkpt lat="43.37221161537922" lon="11.401301481584383"><ele>381.0</ele><time>2026-04-11T05:20:43.999Z</time></trkpt><trkpt lat="43.3722673875577" lon="11.401218377092643"><ele>381.0</ele><time>2026-04-11T05:20:46.999Z</time></trkpt><trkpt lat="43.37233201958516" lon="11.401155061520225"><ele>381.0</ele><time>2026-04-11T05:20:49.999Z</time></trkpt><trkpt lat="43.37238533386187" lon="11.401098804507587"><ele>381.0</ele><time>2026-04-11T05:20:51.999Z</time></trkpt><trkpt lat="43.37244414743005" lon="11.401036047075932"><ele>381.8333333333333</ele><time>2026-04-11T05:20:53.999Z</time></trkpt><trkpt lat="43.37250538927504" lon="11.400988084570395"><ele>382.66666666666663</ele><time>2026-04-11T05:20:55.999Z</time></trkpt><trkpt lat="43.37255917877277" lon="11.400920776992562"><ele>383.5</ele><time>2026-04-11T05:20:57.999Z</time></trkpt><trkpt lat="43.37260579856888" lon="11.4008511847062"><ele>384.3333333333333</ele><time>2026-04-11T05:20:59.999Z</time></trkpt><trkpt lat="43.37267420261083" lon="11.400789737250127"><ele>385.16666666666663</ele><time>2026-04-11T05:21:01.999Z</time></trkpt><trkpt lat="43.37274486378971" lon="11.40071918913984"><ele>386.0</ele><time>2026-04-11T05:21:03.999Z</time></trkpt><trkpt lat="43.37280963957305" lon="11.40064592274916"><ele>386.0</ele><time>2026-04-11T05:21:06Z</time></trkpt><trkpt lat="43.37288098778036" lon="11.400565657011988"><ele>386.0</ele><time>2026-04-11T05:21:08Z</time></trkpt><trkpt lat="43.37294966362051" lon="11.400492561003162"><ele>386.0</ele><time>2026-04-11T05:21:10Z</time></trkpt><trkpt lat="43.37301960365893" lon="11.400414463413641"><ele>386.0</ele><time>2026-04-11T05:21:12Z</time></trkpt><trkpt lat="43.37309825403418" lon="11.400341820028643"><ele>386.0</ele><time>2026-04-11T05:21:14Z</time></trkpt><trkpt lat="43.37317854779495" lon="11.400274300831512"><ele>385.4</ele><time>2026-04-11T05:21:16Z</time></trkpt><trkpt lat="43.37326887146238" lon="11.400206994183664"><ele>384.8</ele><time>2026-04-11T05:21:18Z</time></trkpt><trkpt lat="43.37335328878873" lon="11.400151410607675"><ele>384.2</ele><time>2026-04-11T05:21:20Z</time></trkpt><trkpt lat="43.373443526641644" lon="11.40010227206114"><ele>383.59999999999997</ele><time>2026-04-11T05:21:22Z</time></trkpt><trkpt lat="43.3735348737665" lon="11.4000707249571"><ele>383.0</ele><time>2026-04-11T05:21:24Z</time></trkpt><trkpt lat="43.37362689732748" lon="11.40003034895694"><ele>383.0</ele><time>2026-04-11T05:21:26Z</time></trkpt><trkpt lat="43.37371980783772" lon="11.399998430068184"><ele>383.0</ele><time>2026-04-11T05:21:28Z</time></trkpt><trkpt lat="43.373814958522466" lon="11.399962154848243"><ele>383.0</ele><time>2026-04-11T05:21:30Z</time></trkpt><trkpt lat="43.373925640168636" lon="11.399955439005936"><ele>383.0</ele><time>2026-04-11T05:21:32Z</time></trkpt><trkpt lat="43.374017261023944" lon="11.399905503079646"><ele>383.0</ele><time>2026-04-11T05:21:34Z</time></trkpt><trkpt lat="43.374101757111475" lon="11.399853799303973"><ele>383.0</ele><time>2026-04-11T05:21:36Z</time></trkpt><trkpt lat="43.374178735510256" lon="11.399779277588205"><ele>383.0</ele><time>2026-04-11T05:21:38Z</time></trkpt><trkpt lat="43.37427026910708" lon="11.399708221771695"><ele>383.0</ele><time>2026-04-11T05:21:40Z</time></trkpt><trkpt lat="43.37435044107545" lon="11.399637286932453"><ele>383.0</ele><time>2026-04-11T05:21:42Z</time></trkpt><trkpt lat="43.37443771842003" lon="11.39955415209065"><ele>383.0</ele><time>2026-04-11T05:21:44Z</time></trkpt><trkpt lat="43.374522156302206" lon="11.39946615241218"><ele>382.79999999999995</ele><time>2026-04-11T05:21:46Z</time></trkpt><trkpt lat="43.374608508814774" lon="11.399375389970576"><ele>382.6</ele><time>2026-04-11T05:21:48Z</time></trkpt><trkpt lat="43.374691455082356" lon="11.399286187815997"><ele>382.4</ele><time>2026-04-11T05:21:50Z</time></trkpt><trkpt lat="43.37476859380244" lon="11.39920028041974"><ele>382.20000000000005</ele><time>2026-04-11T05:21:52Z</time></trkpt><trkpt lat="43.374854893448685" lon="11.399103136943122"><ele>382.0</ele><time>2026-04-11T05:21:54Z</time></trkpt><trkpt lat="43.37492306214026" lon="11.399021509242337"><ele>382.0</ele><time>2026-04-11T05:21:56Z</time></trkpt><trkpt lat="43.3750004269901" lon="11.39893556816674"><ele>382.0</ele><time>2026-04-11T05:21:58Z</time></trkpt><trkpt lat="43.37507758502054" lon="11.39884184134858"><ele>382.0</ele><time>2026-04-11T05:22:00Z</time></trkpt><trkpt lat="43.37516085206541" lon="11.39875707480584"><ele>382.0</ele><time>2026-04-11T05:22:02Z</time></trkpt><trkpt lat="43.37524309835378" lon="11.398681873829968"><ele>382.0</ele><time>2026-04-11T05:22:04Z</time></trkpt><trkpt lat="43.3753311604231" lon="11.398599934442823"><ele>382.20000000000005</ele><time>2026-04-11T05:22:06Z</time></trkpt><trkpt lat="43.375416209325536" lon="11.398537130239163"><ele>382.4</ele><time>2026-04-11T05:22:08Z</time></trkpt><trkpt lat="43.37550678808425" lon="11.398482722932926"><ele>382.6</ele><time>2026-04-11T05:22:10Z</time></trkpt><trkpt lat="43.375597432201914" lon="11.398433075445448"><ele>382.79999999999995</ele><time>2026-04-11T05:22:12Z</time></trkpt><trkpt lat="43.37568635888684" lon="11.398389773245798"><ele>383.0</ele><time>2026-04-11T05:22:14Z</time></trkpt><trkpt lat="43.37577767105824" lon="11.398355663237446"><ele>383.0</ele><time>2026-04-11T05:22:16Z</time></trkpt><trkpt lat="43.37586703167102" lon="11.39832292385313"><ele>383.0</ele><time>2026-04-11T05:22:18Z</time></trkpt><trkpt lat="43.37594861902842" lon="11.398289102251981"><ele>383.0</ele><time>2026-04-11T05:22:19.999Z</time></trkpt><trkpt lat="43.376033087654754" lon="11.398281747326843"><ele>383.0</ele><time>2026-04-11T05:22:21.999Z</time></trkpt><trkpt lat="43.37610689599951" lon="11.398236889256529"><ele>383.0</ele><time>2026-04-11T05:22:23.999Z</time></trkpt><trkpt lat="43.37617685748098" lon="11.398210814232613"><ele>383.0</ele><time>2026-04-11T05:22:25.999Z</time></trkpt><trkpt lat="43.376252228481434" lon="11.398182989483969"><ele>383.0</ele><time>2026-04-11T05:22:27.999Z</time></trkpt><trkpt lat="43.376323958976585" lon="11.398168835559243"><ele>383.0</ele><time>2026-04-11T05:22:29.999Z</time></trkpt><trkpt lat="43.376391424541225" lon="11.39813852790734"><ele>383.0</ele><time>2026-04-11T05:22:31.999Z</time></trkpt><trkpt lat="43.37646086937485" lon="11.398107690934463"><ele>383.0</ele><time>2026-04-11T05:22:33.999Z</time></trkpt><trkpt lat="43.376533966848505" lon="11.398080292834965"><ele>383.0</ele><time>2026-04-11T05:22:35.999Z</time></trkpt><trkpt lat="43.37660768356511" lon="11.398044053388524"><ele>383.0</ele><time>2026-04-11T05:22:37.999Z</time></trkpt><trkpt lat="43.37667312386081" lon="11.3979957832555"><ele>383.0</ele><time>2026-04-11T05:22:39.999Z</time></trkpt><trkpt lat="43.37673403903434" lon="11.397934728512348"><ele>383.6666666666667</ele><time>2026-04-11T05:22:41.999Z</time></trkpt><trkpt lat="43.37679389898817" lon="11.39786101327419"><ele>384.33333333333337</ele><time>2026-04-11T05:22:43.999Z</time></trkpt><trkpt lat="43.37685534209997" lon="11.397790994161367"><ele>385.0</ele><time>2026-04-11T05:22:45.999Z</time></trkpt><trkpt lat="43.376918935445225" lon="11.397721029515981"><ele>385.6666666666667</ele><time>2026-04-11T05:22:47.999Z</time></trkpt><trkpt lat="43.376988181919664" lon="11.397650631372203"><ele>386.3333333333333</ele><time>2026-04-11T05:22:49.999Z</time></trkpt><trkpt lat="43.37706284773606" lon="11.397589366550209"><ele>387.0</ele><time>2026-04-11T05:22:51.999Z</time></trkpt><trkpt lat="43.37714052454112" lon="11.397510742982446"><ele>386.8333333333333</ele><time>2026-04-11T05:22:53.999Z</time></trkpt><trkpt lat="43.377214133524404" lon="11.397435001699815"><ele>386.66666666666663</ele><time>2026-04-11T05:22:55.999Z</time></trkpt><trkpt lat="43.377282525042794" lon="11.397371215695543"><ele>386.5</ele><time>2026-04-11T05:22:57.999Z</time></trkpt><trkpt lat="43.37735236331197" lon="11.397312302523476"><ele>386.3333333333333</ele><time>2026-04-11T05:22:59.999Z</time></trkpt><trkpt lat="43.37742123064507" lon="11.39725916107586"><ele>386.16666666666663</ele><time>2026-04-11T05:23:01.999Z</time></trkpt><trkpt lat="43.377491828488075" lon="11.397215892750046"><ele>386.0</ele><time>2026-04-11T05:23:03.999Z</time></trkpt><trkpt lat="43.37756110929831" lon="11.397180263626005"><ele>385.99999999999994</ele><time>2026-04-11T05:23:05.999Z</time></trkpt><trkpt lat="43.377631277294235" lon="11.397172893684509"><ele>386.0</ele><time>2026-04-11T05:23:07.999Z</time></trkpt><trkpt lat="43.3777206011577" lon="11.39713216644422"><ele>386.0</ele><time>2026-04-11T05:23:10.999Z</time></trkpt><trkpt lat="43.37778471990677" lon="11.397119685737085"><ele>386.0</ele><time>2026-04-11T05:23:13Z</time></trkpt><trkpt lat="43.37787548251706" lon="11.397113586331237"><ele>385.99999999999994</ele><time>2026-04-11T05:23:16Z</time></trkpt><trkpt lat="43.37796035821651" lon="11.397098109679195"><ele>386.0</ele><time>2026-04-11T05:23:19Z</time></trkpt><trkpt lat="43.37804596987657" lon="11.39708466134034"><ele>387.3333333333333</ele><time>2026-04-11T05:23:22Z</time></trkpt><trkpt lat="43.37813083416694" lon="11.39705447423444"><ele>388.66666666666663</ele><time>2026-04-11T05:23:25Z</time></trkpt><trkpt lat="43.37821145116515" lon="11.397039298518477"><ele>390.0</ele><time>2026-04-11T05:23:29Z</time></trkpt><trkpt lat="43.378288154342854" lon="11.397009600412005"><ele>391.33333333333337</ele><time>2026-04-11T05:23:32Z</time></trkpt><trkpt lat="43.37837953876535" lon="11.39697771855796"><ele>392.6666666666667</ele><time>2026-04-11T05:23:35Z</time></trkpt><trkpt lat="43.37844296149933" lon="11.396963613344624"><ele>394.0</ele><time>2026-04-11T05:23:38Z</time></trkpt><trkpt lat="43.378513796442114" lon="11.396932454454015"><ele>394.00000000000006</ele><time>2026-04-11T05:23:41Z</time></trkpt><trkpt lat="43.37858791256407" lon="11.396902049940271"><ele>394.0</ele><time>2026-04-11T05:23:44Z</time></trkpt><trkpt lat="43.37867064975893" lon="11.396897002824355"><ele>394.0</ele><time>2026-04-11T05:23:47Z</time></trkpt><trkpt lat="43.3787700176946" lon="11.396842568771948"><ele>394.0</ele><time>2026-04-11T05:23:50Z</time></trkpt><trkpt lat="43.37883727666007" lon="11.39681117362728"><ele>394.00000000000006</ele><time>2026-04-11T05:23:53Z</time></trkpt><trkpt lat="43.37890565681218" lon="11.39678174186173"><ele>394.0</ele><time>2026-04-11T05:23:55Z</time></trkpt><trkpt lat="43.3789849320375" lon="11.396749974942063"><ele>395.00000000000006</ele><time>2026-04-11T05:23:58Z</time></trkpt><trkpt lat="43.37906605027626" lon="11.396725439406008"><ele>396.0</ele><time>2026-04-11T05:24:01Z</time></trkpt><trkpt lat="43.37914570018875" lon="11.396700017752844"><ele>397.0</ele><time>2026-04-11T05:24:04Z</time></trkpt><trkpt lat="43.379228372992344" lon="11.396674912146889"><ele>398.0</ele><time>2026-04-11T05:24:07Z</time></trkpt><trkpt lat="43.37930464989027" lon="11.396643928553143"><ele>399.00000000000006</ele><time>2026-04-11T05:24:10Z</time></trkpt><trkpt lat="43.379383654044574" lon="11.396622765755453"><ele>400.0</ele><time>2026-04-11T05:24:13Z</time></trkpt><trkpt lat="43.379463176976884" lon="11.396610099874845"><ele>400.00000000000006</ele><time>2026-04-11T05:24:16Z</time></trkpt><trkpt lat="43.37954247021556" lon="11.39658301257159"><ele>400.0</ele><time>2026-04-11T05:24:19Z</time></trkpt><trkpt lat="43.379622305493086" lon="11.396547668187967"><ele>400.0</ele><time>2026-04-11T05:24:22Z</time></trkpt><trkpt lat="43.37971102025251" lon="11.396532925995976"><ele>400.0</ele><time>2026-04-11T05:24:25Z</time></trkpt><trkpt lat="43.37979515806789" lon="11.396520721852388"><ele>400.00000000000006</ele><time>2026-04-11T05:24:28Z</time></trkpt><trkpt lat="43.37988312856928" lon="11.39649727509893"><ele>400.0</ele><time>2026-04-11T05:24:30.999Z</time></trkpt><trkpt lat="43.379967927095215" lon="11.39647339126665"><ele>400.6666666666667</ele><time>2026-04-11T05:24:33.999Z</time></trkpt><trkpt lat="43.38005249780306" lon="11.396454845619282"><ele>401.33333333333337</ele><time>2026-04-11T05:24:36.999Z</time></trkpt><trkpt lat="43.38013434709616" lon="11.39642912277973"><ele>402.0</ele><time>2026-04-11T05:24:39.999Z</time></trkpt><trkpt lat="43.38021517874678" lon="11.396408996096737"><ele>402.66666666666663</ele><time>2026-04-11T05:24:42.999Z</time></trkpt><trkpt lat="43.38029661238411" lon="11.3963933191316"><ele>403.3333333333333</ele><time>2026-04-11T05:24:45.999Z</time></trkpt><trkpt lat="43.380379364704844" lon="11.396366558567536"><ele>404.0</ele><time>2026-04-11T05:24:48.999Z</time></trkpt><trkpt lat="43.380461246341426" lon="11.396339559249395"><ele>404.66666666666663</ele><time>2026-04-11T05:24:51.999Z</time></trkpt><trkpt lat="43.38054454830451" lon="11.396323212195728"><ele>405.3333333333333</ele><time>2026-04-11T05:24:54.999Z</time></trkpt><trkpt lat="43.3806258240888" lon="11.396298387867677"><ele>406.0</ele><time>2026-04-11T05:24:57.999Z</time></trkpt><trkpt lat="43.38071018719262" lon="11.396284441886852"><ele>406.66666666666663</ele><time>2026-04-11T05:25:00.999Z</time></trkpt><trkpt lat="43.38079571857316" lon="11.39627179394422"><ele>407.3333333333333</ele><time>2026-04-11T05:25:03.999Z</time></trkpt><trkpt lat="43.380882169697095" lon="11.396254510770527"><ele>408.0</ele><time>2026-04-11T05:25:06.999Z</time></trkpt><trkpt lat="43.38097509663492" lon="11.396254782493385"><ele>408.0</ele><time>2026-04-11T05:25:09.999Z</time></trkpt><trkpt lat="43.38106811826561" lon="11.396249558855562"><ele>408.0</ele><time>2026-04-11T05:25:12.999Z</time></trkpt><trkpt lat="43.381162795347066" lon="11.396257663956522"><ele>408.0</ele><time>2026-04-11T05:25:15.999Z</time></trkpt><trkpt lat="43.3812505400881" lon="11.39625112605275"><ele>408.0</ele><time>2026-04-11T05:25:19Z</time></trkpt><trkpt lat="43.381345798894166" lon="11.396251809732819"><ele>408.0</ele><time>2026-04-11T05:25:22Z</time></trkpt><trkpt lat="43.38143462560946" lon="11.396252380254436"><ele>408.2857142857143</ele><time>2026-04-11T05:25:25Z</time></trkpt><trkpt lat="43.38149944532754" lon="11.396233161820307"><ele>408.57142857142856</ele><time>2026-04-11T05:25:27Z</time></trkpt><trkpt lat="43.38156846059805" lon="11.396227874064424"><ele>408.8571428571429</ele><time>2026-04-11T05:25:29Z</time></trkpt><trkpt lat="43.38163334677083" lon="11.396215505807024"><ele>409.1428571428571</ele><time>2026-04-11T05:25:31Z</time></trkpt><trkpt lat="43.381696955425376" lon="11.396211577893308"><ele>409.4285714285714</ele><time>2026-04-11T05:25:33Z</time></trkpt><trkpt lat="43.3817624342673" lon="11.396203235528347"><ele>409.7142857142857</ele><time>2026-04-11T05:25:35Z</time></trkpt><trkpt lat="43.38183046082051" lon="11.396190637807749"><ele>410.0</ele><time>2026-04-11T05:25:37Z</time></trkpt><trkpt lat="43.381932203902934" lon="11.396185497756424"><ele>409.99999999999994</ele><time>2026-04-11T05:25:40Z</time></trkpt><trkpt lat="43.382018869664684" lon="11.396152175071313"><ele>410.0</ele><time>2026-04-11T05:25:43Z</time></trkpt><trkpt lat="43.38210986513366" lon="11.396145039577004"><ele>410.0</ele><time>2026-04-11T05:25:46Z</time></trkpt><trkpt lat="43.38219261913182" lon="11.396132064636422"><ele>410.0</ele><time>2026-04-11T05:25:49Z</time></trkpt><trkpt lat="43.38226288028753" lon="11.396109901258662"><ele>409.99999999999994</ele><time>2026-04-11T05:25:51Z</time></trkpt><trkpt lat="43.3823568736755" lon="11.396083479981352"><ele>410.0</ele><time>2026-04-11T05:25:54Z</time></trkpt><trkpt lat="43.3824479002645" lon="11.396061567425917"><ele>410.66666666666663</ele><time>2026-04-11T05:25:57Z</time></trkpt><trkpt lat="43.38254143185895" lon="11.396044019628087"><ele>411.3333333333333</ele><time>2026-04-11T05:26:00Z</time></trkpt><trkpt lat="43.38260793344415" lon="11.396031596855993"><ele>412.0</ele><time>2026-04-11T05:26:02Z</time></trkpt><trkpt lat="43.38270057083471" lon="11.39600130225799"><ele>412.66666666666663</ele><time>2026-04-11T05:26:05Z</time></trkpt><trkpt lat="43.38278997496793" lon="11.395964928628809"><ele>413.3333333333333</ele><time>2026-04-11T05:26:08Z</time></trkpt><trkpt lat="43.38285905441794" lon="11.395936815073464"><ele>414.0</ele><time>2026-04-11T05:26:10Z</time></trkpt><trkpt lat="43.38293013406929" lon="11.395916041724044"><ele>414.0</ele><time>2026-04-11T05:26:12Z</time></trkpt><trkpt lat="43.38299781325113" lon="11.395887058677024"><ele>414.0</ele><time>2026-04-11T05:26:14Z</time></trkpt><trkpt lat="43.3830878324594" lon="11.395843693021401"><ele>414.0</ele><time>2026-04-11T05:26:17Z</time></trkpt><trkpt lat="43.383193034245885" lon="11.395803889690162"><ele>414.0</ele><time>2026-04-11T05:26:20Z</time></trkpt><trkpt lat="43.38326557856546" lon="11.395773333026016"><ele>414.0</ele><time>2026-04-11T05:26:22Z</time></trkpt><trkpt lat="43.38333960635419" lon="11.39574985138063"><ele>414.0</ele><time>2026-04-11T05:26:24Z</time></trkpt><trkpt lat="43.38342429581268" lon="11.395717651666583"><ele>414.6666666666667</ele><time>2026-04-11T05:26:26Z</time></trkpt><trkpt lat="43.383500990166745" lon="11.39569240590829"><ele>415.33333333333337</ele><time>2026-04-11T05:26:28Z</time></trkpt><trkpt lat="43.383580526905746" lon="11.395656318852481"><ele>416.0</ele><time>2026-04-11T05:26:30Z</time></trkpt><trkpt lat="43.383660100596444" lon="11.395637899966593"><ele>416.6666666666667</ele><time>2026-04-11T05:26:32Z</time></trkpt><trkpt lat="43.38374117909478" lon="11.395612768384375"><ele>417.33333333333337</ele><time>2026-04-11T05:26:33.999Z</time></trkpt><trkpt lat="43.38382315024418" lon="11.395590857729054"><ele>418.0</ele><time>2026-04-11T05:26:35.999Z</time></trkpt><trkpt lat="43.38389718296594" lon="11.395553862241705"><ele>417.6666666666667</ele><time>2026-04-11T05:26:37.999Z</time></trkpt><trkpt lat="43.383975145198896" lon="11.395525469505518"><ele>417.33333333333337</ele><time>2026-04-11T05:26:39.999Z</time></trkpt><trkpt lat="43.38405979270089" lon="11.39549624854755"><ele>417.0</ele><time>2026-04-11T05:26:41.999Z</time></trkpt><trkpt lat="43.38413983303123" lon="11.395468168941003"><ele>416.66666666666663</ele><time>2026-04-11T05:26:43.999Z</time></trkpt><trkpt lat="43.3842158337689" lon="11.395440833020347"><ele>416.3333333333333</ele><time>2026-04-11T05:26:45.999Z</time></trkpt><trkpt lat="43.38428829929362" lon="11.39541115469251"><ele>416.0</ele><time>2026-04-11T05:26:47.999Z</time></trkpt><trkpt lat="43.38436901729882" lon="11.395380754623377"><ele>416.0</ele><time>2026-04-11T05:26:49.999Z</time></trkpt><trkpt lat="43.38444146163271" lon="11.39534878244274"><ele>416.0</ele><time>2026-04-11T05:26:51.999Z</time></trkpt><trkpt lat="43.384514009184336" lon="11.395315669116128"><ele>416.0</ele><time>2026-04-11T05:26:53.999Z</time></trkpt><trkpt lat="43.38458014713366" lon="11.395262585763819"><ele>416.0</ele><time>2026-04-11T05:26:55.999Z</time></trkpt><trkpt lat="43.38464142876492" lon="11.39520829883794"><ele>416.0</ele><time>2026-04-11T05:26:57.999Z</time></trkpt><trkpt lat="43.38470331070983" lon="11.39514307902922"><ele>416.0</ele><time>2026-04-11T05:26:59.999Z</time></trkpt><trkpt lat="43.38475252440571" lon="11.395082100300105"><ele>416.0</ele><time>2026-04-11T05:27:01.999Z</time></trkpt><trkpt lat="43.38480330644602" lon="11.395011667184294"><ele>417.16666666666663</ele><time>2026-04-11T05:27:03.999Z</time></trkpt><trkpt lat="43.38485395708087" lon="11.39493916992673"><ele>418.3333333333333</ele><time>2026-04-11T05:27:05.999Z</time></trkpt><trkpt lat="43.38489729903086" lon="11.394866165878492"><ele>419.5</ele><time>2026-04-11T05:27:07.999Z</time></trkpt><trkpt lat="43.38496908586077" lon="11.394771420563812"><ele>420.66666666666663</ele><time>2026-04-11T05:27:10.999Z</time></trkpt><trkpt lat="43.38501400763645" lon="11.394705156652266"><ele>421.8333333333333</ele><time>2026-04-11T05:27:12.999Z</time></trkpt><trkpt lat="43.38506076659218" lon="11.394598700150368"><ele>423.0</ele><time>2026-04-11T05:27:15.999Z</time></trkpt><trkpt lat="43.38510810542385" lon="11.394532602484507"><ele>423.3333333333333</ele><time>2026-04-11T05:27:17.999Z</time></trkpt><trkpt lat="43.38517071194737" lon="11.394441372670995"><ele>423.66666666666663</ele><time>2026-04-11T05:27:20.999Z</time></trkpt><trkpt lat="43.38523613994515" lon="11.39435263310698"><ele>424.0</ele><time>2026-04-11T05:27:24Z</time></trkpt><trkpt lat="43.38529561173574" lon="11.39426423081072"><ele>424.3333333333333</ele><time>2026-04-11T05:27:27Z</time></trkpt><trkpt lat="43.38535665405954" lon="11.394174364457207"><ele>424.66666666666663</ele><time>2026-04-11T05:27:30Z</time></trkpt><trkpt lat="43.385415941892404" lon="11.394089121993076"><ele>425.0</ele><time>2026-04-11T05:27:33Z</time></trkpt><trkpt lat="43.3854748189721" lon="11.393995267443144"><ele>424.99999999999994</ele><time>2026-04-11T05:27:36Z</time></trkpt><trkpt lat="43.38552172164357" lon="11.39393286209758"><ele>425.0</ele><time>2026-04-11T05:27:38Z</time></trkpt><trkpt lat="43.38557973523308" lon="11.393835954263967"><ele>425.0</ele><time>2026-04-11T05:27:41Z</time></trkpt><trkpt lat="43.38563270772032" lon="11.393773053189715"><ele>425.0</ele><time>2026-04-11T05:27:43Z</time></trkpt><trkpt lat="43.38567229545086" lon="11.393704145806199"><ele>424.99999999999994</ele><time>2026-04-11T05:27:45Z</time></trkpt><trkpt lat="43.3857334453179" lon="11.39360679215613"><ele>425.0</ele><time>2026-04-11T05:27:48Z</time></trkpt><trkpt lat="43.38579880693077" lon="11.39351429835428"><ele>425.49999999999994</ele><time>2026-04-11T05:27:51Z</time></trkpt><trkpt lat="43.38586144204162" lon="11.393421098560841"><ele>426.0</ele><time>2026-04-11T05:27:54Z</time></trkpt><trkpt lat="43.385927967412826" lon="11.393337888543767"><ele>426.5</ele><time>2026-04-11T05:27:57Z</time></trkpt><trkpt lat="43.38598577524851" lon="11.393239331221004"><ele>427.0</ele><time>2026-04-11T05:28:00Z</time></trkpt><trkpt lat="43.38602999189538" lon="11.393176737834304"><ele>427.49999999999994</ele><time>2026-04-11T05:28:02Z</time></trkpt><trkpt lat="43.3860764577979" lon="11.393105621386919"><ele>428.0</ele><time>2026-04-11T05:28:04Z</time></trkpt><trkpt lat="43.38613095309499" lon="11.39303007597818"><ele>428.00000000000006</ele><time>2026-04-11T05:28:07Z</time></trkpt><trkpt lat="43.38619382957257" lon="11.392954078354808"><ele>428.0</ele><time>2026-04-11T05:28:10Z</time></trkpt><trkpt lat="43.386244336818066" lon="11.392881512670606"><ele>428.0</ele><time>2026-04-11T05:28:12Z</time></trkpt><trkpt lat="43.38629688665637" lon="11.392808102160638"><ele>428.0</ele><time>2026-04-11T05:28:15Z</time></trkpt><trkpt lat="43.38634951363865" lon="11.392746174280859"><ele>428.0</ele><time>2026-04-11T05:28:18Z</time></trkpt><trkpt lat="43.386407779052455" lon="11.392686009822487"><ele>428.00000000000006</ele><time>2026-04-11T05:28:21Z</time></trkpt><trkpt lat="43.38646419300313" lon="11.392633621140986"><ele>428.0</ele><time>2026-04-11T05:28:24Z</time></trkpt><trkpt lat="43.38650492783058" lon="11.392532235558177"><ele>428.28571428571433</ele><time>2026-04-11T05:28:28Z</time></trkpt><trkpt lat="43.386574475109285" lon="11.39248379399348"><ele>428.57142857142856</ele><time>2026-04-11T05:28:31Z</time></trkpt><trkpt lat="43.38663173052602" lon="11.392425359436865"><ele>428.8571428571429</ele><time>2026-04-11T05:28:34Z</time></trkpt><trkpt lat="43.386684734665124" lon="11.392371292117113"><ele>429.14285714285717</ele><time>2026-04-11T05:28:36.999Z</time></trkpt><trkpt lat="43.38674368842432" lon="11.392308965425114"><ele>429.42857142857144</ele><time>2026-04-11T05:28:39.999Z</time></trkpt><trkpt lat="43.38679494688193" lon="11.392250789506678"><ele>429.7142857142857</ele><time>2026-04-11T05:28:42.999Z</time></trkpt><trkpt lat="43.386861862576204" lon="11.392184724003101"><ele>430.0</ele><time>2026-04-11T05:28:45.999Z</time></trkpt><trkpt lat="43.38692772906818" lon="11.392129825454486"><ele>430.00000000000006</ele><time>2026-04-11T05:28:48.999Z</time></trkpt><trkpt lat="43.38698774379365" lon="11.392055275919628"><ele>430.0</ele><time>2026-04-11T05:28:51.999Z</time></trkpt><trkpt lat="43.38705078088617" lon="11.391972092380739"><ele>430.0</ele><time>2026-04-11T05:28:54.999Z</time></trkpt><trkpt lat="43.38711381886047" lon="11.391882699735367"><ele>430.0</ele><time>2026-04-11T05:28:57.999Z</time></trkpt><trkpt lat="43.38716055710416" lon="11.391819612402388"><ele>430.00000000000006</ele><time>2026-04-11T05:28:59.999Z</time></trkpt><trkpt lat="43.38720573144399" lon="11.391753256914644"><ele>430.0</ele><time>2026-04-11T05:29:01.999Z</time></trkpt><trkpt lat="43.387253584669445" lon="11.391683520173048"><ele>430.57142857142856</ele><time>2026-04-11T05:29:03.999Z</time></trkpt><trkpt lat="43.387302723434026" lon="11.391612934022465"><ele>431.14285714285717</ele><time>2026-04-11T05:29:05.999Z</time></trkpt><trkpt lat="43.38734940257885" lon="11.39153872709204"><ele>431.7142857142857</ele><time>2026-04-11T05:29:07.999Z</time></trkpt><trkpt lat="43.38740111968888" lon="11.391463488980769"><ele>432.2857142857143</ele><time>2026-04-11T05:29:09.999Z</time></trkpt><trkpt lat="43.38745256353092" lon="11.391385627490815"><ele>432.8571428571429</ele><time>2026-04-11T05:29:11.999Z</time></trkpt><trkpt lat="43.387503922224546" lon="11.39131244978288"><ele>433.42857142857144</ele><time>2026-04-11T05:29:13.999Z</time></trkpt><trkpt lat="43.38755262340833" lon="11.391231105174214"><ele>434.0</ele><time>2026-04-11T05:29:15.999Z</time></trkpt><trkpt lat="43.38760259675698" lon="11.391150916972794"><ele>434.3333333333333</ele><time>2026-04-11T05:29:17.999Z</time></trkpt><trkpt lat="43.387650206371454" lon="11.391065518155976"><ele>434.66666666666663</ele><time>2026-04-11T05:29:19.999Z</time></trkpt><trkpt lat="43.387697110673365" lon="11.390985029670652"><ele>435.0</ele><time>2026-04-11T05:29:21.999Z</time></trkpt><trkpt lat="43.38775171083387" lon="11.390903256152779"><ele>435.33333333333337</ele><time>2026-04-11T05:29:23.999Z</time></trkpt><trkpt lat="43.38780470669735" lon="11.390822893323001"><ele>435.6666666666667</ele><time>2026-04-11T05:29:25.999Z</time></trkpt><trkpt lat="43.38785684352238" lon="11.390743179216368"><ele>436.0</ele><time>2026-04-11T05:29:27.999Z</time></trkpt><trkpt lat="43.3879132400044" lon="11.390656743015658"><ele>436.0</ele><time>2026-04-11T05:29:30Z</time></trkpt><trkpt lat="43.38797087023437" lon="11.390558924916807"><ele>436.0</ele><time>2026-04-11T05:29:32Z</time></trkpt><trkpt lat="43.388034823614184" lon="11.390452224533776"><ele>436.0</ele><time>2026-04-11T05:29:34Z</time></trkpt><trkpt lat="43.38808663607828" lon="11.390326231127172"><ele>436.0</ele><time>2026-04-11T05:29:36Z</time></trkpt><trkpt lat="43.38811659477728" lon="11.390168920321399"><ele>436.0</ele><time>2026-04-11T05:29:38Z</time></trkpt><trkpt lat="43.38812402131637" lon="11.390070059798365"><ele>434.6666666666667</ele><time>2026-04-11T05:29:39Z</time></trkpt><trkpt lat="43.388136674294856" lon="11.389976775442682"><ele>433.33333333333337</ele><time>2026-04-11T05:29:40Z</time></trkpt><trkpt lat="43.38815017911287" lon="11.389872292583656"><ele>432.0</ele><time>2026-04-11T05:29:41Z</time></trkpt><trkpt lat="43.388169302600254" lon="11.389767008790766"><ele>430.66666666666663</ele><time>2026-04-11T05:29:42Z</time></trkpt><trkpt lat="43.38820884883585" lon="11.389674070890669"><ele>429.3333333333333</ele><time>2026-04-11T05:29:43Z</time></trkpt><trkpt lat="43.38823969420565" lon="11.389581722152835"><ele>428.0</ele><time>2026-04-11T05:29:44Z</time></trkpt><trkpt lat="43.38827832361326" lon="11.389475859343829"><ele>427.8333333333333</ele><time>2026-04-11T05:29:45Z</time></trkpt><trkpt lat="43.388321048985695" lon="11.389371205630876"><ele>427.66666666666663</ele><time>2026-04-11T05:29:46Z</time></trkpt><trkpt lat="43.38836170057402" lon="11.389274169348154"><ele>427.5</ele><time>2026-04-11T05:29:47Z</time></trkpt><trkpt lat="43.388403439343435" lon="11.38917660965035"><ele>427.33333333333337</ele><time>2026-04-11T05:29:48Z</time></trkpt><trkpt lat="43.388450692932075" lon="11.38906955086387"><ele>427.1666666666667</ele><time>2026-04-11T05:29:49Z</time></trkpt><trkpt lat="43.38849197725489" lon="11.38897601927461"><ele>427.0</ele><time>2026-04-11T05:29:50Z</time></trkpt><trkpt lat="43.388535688228295" lon="11.388877057173346"><ele>427.33333333333337</ele><time>2026-04-11T05:29:51Z</time></trkpt><trkpt lat="43.38858121588562" lon="11.388773982097957"><ele>427.6666666666667</ele><time>2026-04-11T05:29:52Z</time></trkpt><trkpt lat="43.38862922194817" lon="11.388665295841662"><ele>428.0</ele><time>2026-04-11T05:29:53Z</time></trkpt><trkpt lat="43.388673462036046" lon="11.388566898037684"><ele>428.33333333333337</ele><time>2026-04-11T05:29:54Z</time></trkpt><trkpt lat="43.38871808415198" lon="11.388468090490724"><ele>428.6666666666667</ele><time>2026-04-11T05:29:55Z</time></trkpt><trkpt lat="43.38876437395984" lon="11.388365590023147"><ele>429.0</ele><time>2026-04-11T05:29:56Z</time></trkpt><trkpt lat="43.38880806073952" lon="11.388268853620966"><ele>427.8333333333333</ele><time>2026-04-11T05:29:57Z</time></trkpt><trkpt lat="43.38885451330762" lon="11.3881662815045"><ele>426.66666666666663</ele><time>2026-04-11T05:29:58Z</time></trkpt><trkpt lat="43.38889639307371" lon="11.38806927731855"><ele>425.5</ele><time>2026-04-11T05:29:59Z</time></trkpt><trkpt lat="43.388937732369804" lon="11.38797293450823"><ele>424.3333333333333</ele><time>2026-04-11T05:30:00Z</time></trkpt><trkpt lat="43.38896179288407" lon="11.387871841241186"><ele>423.16666666666663</ele><time>2026-04-11T05:30:01Z</time></trkpt><trkpt lat="43.389002416399656" lon="11.387780059008108"><ele>422.0</ele><time>2026-04-11T05:30:02Z</time></trkpt><trkpt lat="43.38904185903445" lon="11.387695261855743"><ele>422.0</ele><time>2026-04-11T05:30:03Z</time></trkpt><trkpt lat="43.38908259678683" lon="11.38759667445081"><ele>422.0</ele><time>2026-04-11T05:30:04Z</time></trkpt><trkpt lat="43.38911149706512" lon="11.387494773353463"><ele>422.0</ele><time>2026-04-11T05:30:05Z</time></trkpt><trkpt lat="43.38913814387149" lon="11.387399496124761"><ele>422.0</ele><time>2026-04-11T05:30:06Z</time></trkpt><trkpt lat="43.38918795154279" lon="11.387327823132544"><ele>422.0</ele><time>2026-04-11T05:30:07Z</time></trkpt><trkpt lat="43.38922478710184" lon="11.387257466458443"><ele>422.0</ele><time>2026-04-11T05:30:08Z</time></trkpt><trkpt lat="43.38926680860752" lon="11.38717996643321"><ele>422.0</ele><time>2026-04-11T05:30:09Z</time></trkpt><trkpt lat="43.38932886777789" lon="11.387028723729628"><ele>422.6</ele><time>2026-04-11T05:30:11Z</time></trkpt><trkpt lat="43.38939459067662" lon="11.386901456157343"><ele>423.20000000000005</ele><time>2026-04-11T05:30:13Z</time></trkpt><trkpt lat="43.38944531765775" lon="11.386840521214465"><ele>423.8</ele><time>2026-04-11T05:30:14Z</time></trkpt><trkpt lat="43.389511308640266" lon="11.386705843003224"><ele>424.4</ele><time>2026-04-11T05:30:16Z</time></trkpt><trkpt lat="43.38957496605886" lon="11.386570366564486"><ele>425.0</ele><time>2026-04-11T05:30:18Z</time></trkpt><trkpt lat="43.38963590949119" lon="11.38643670835443"><ele>424.4</ele><time>2026-04-11T05:30:20Z</time></trkpt><trkpt lat="43.389688872504955" lon="11.38631220075355"><ele>423.8</ele><time>2026-04-11T05:30:22Z</time></trkpt><trkpt lat="43.389719467089364" lon="11.38618845445811"><ele>423.20000000000005</ele><time>2026-04-11T05:30:24Z</time></trkpt><trkpt lat="43.38976623651239" lon="11.386074208026622"><ele>422.6</ele><time>2026-04-11T05:30:26Z</time></trkpt><trkpt lat="43.389803643889216" lon="11.385958380204924"><ele>422.0</ele><time>2026-04-11T05:30:28Z</time></trkpt><trkpt lat="43.38982819230349" lon="11.385848295460976"><ele>421.99999999999994</ele><time>2026-04-11T05:30:30Z</time></trkpt><trkpt lat="43.38986374734132" lon="11.385757595522607"><ele>422.0</ele><time>2026-04-11T05:30:33Z</time></trkpt><trkpt lat="43.389904411515715" lon="11.385681785765195"><ele>422.0</ele><time>2026-04-11T05:30:52.999Z</time></trkpt><trkpt lat="43.38996680590635" lon="11.385634236392896"><ele>422.0</ele><time>2026-04-11T05:42:19Z</time></trkpt><trkpt lat="43.39003351139636" lon="11.385573132787187"><ele>421.99999999999994</ele><time>2026-04-11T05:42:23Z</time></trkpt><trkpt lat="43.39011547601782" lon="11.385505725115818"><ele>422.0</ele><time>2026-04-11T05:42:26Z</time></trkpt><trkpt lat="43.39017621468856" lon="11.38545620087151"><ele>422.20000000000005</ele><time>2026-04-11T05:42:28Z</time></trkpt><trkpt lat="43.39026194916666" lon="11.385403498412593"><ele>422.4</ele><time>2026-04-11T05:42:30Z</time></trkpt><trkpt lat="43.39034758093685" lon="11.385346852759696"><ele>422.6</ele><time>2026-04-11T05:42:32Z</time></trkpt><trkpt lat="43.390434422807644" lon="11.385290746561477"><ele>422.79999999999995</ele><time>2026-04-11T05:42:34Z</time></trkpt><trkpt lat="43.39052982870936" lon="11.385222921204905"><ele>423.0</ele><time>2026-04-11T05:42:36Z</time></trkpt><trkpt lat="43.39059780205881" lon="11.385232898509035"><ele>423.25</ele><time>2026-04-11T05:42:37Z</time></trkpt><trkpt lat="43.39068687421789" lon="11.38515773276397"><ele>423.5</ele><time>2026-04-11T05:42:39Z</time></trkpt><trkpt lat="43.3907861534662" lon="11.385072412960321"><ele>423.75</ele><time>2026-04-11T05:42:41Z</time></trkpt><trkpt lat="43.39088534110349" lon="11.384985918798545"><ele>424.0</ele><time>2026-04-11T05:42:43Z</time></trkpt><trkpt lat="43.3909843778775" lon="11.384896093204496"><ele>424.0</ele><time>2026-04-11T05:42:45Z</time></trkpt><trkpt lat="43.39107498600141" lon="11.384796668915193"><ele>424.0</ele><time>2026-04-11T05:42:47Z</time></trkpt><trkpt lat="43.391172028485435" lon="11.38470757432904"><ele>424.0</ele><time>2026-04-11T05:42:49Z</time></trkpt><trkpt lat="43.39127891319855" lon="11.3846294377062"><ele>424.0</ele><time>2026-04-11T05:42:51Z</time></trkpt><trkpt lat="43.39137815745869" lon="11.384556301961462"><ele>424.2</ele><time>2026-04-11T05:42:53Z</time></trkpt><trkpt lat="43.39146842781402" lon="11.384461852409075"><ele>424.4</ele><time>2026-04-11T05:42:55Z</time></trkpt><trkpt lat="43.39155352307267" lon="11.384367127774249"><ele>424.6</ele><time>2026-04-11T05:42:57Z</time></trkpt><trkpt lat="43.39161212139166" lon="11.38431685146688"><ele>424.8</ele><time>2026-04-11T05:42:58Z</time></trkpt><trkpt lat="43.39171456951441" lon="11.384235488309843"><ele>425.0</ele><time>2026-04-11T05:43:00Z</time></trkpt><trkpt lat="43.39176232086111" lon="11.384173902208246"><ele>424.99999999999994</ele><time>2026-04-11T05:43:01Z</time></trkpt><trkpt lat="43.39183897192604" lon="11.38406661516063"><ele>425.0</ele><time>2026-04-11T05:43:03Z</time></trkpt><trkpt lat="43.391870666803115" lon="11.383991722864163"><ele>425.0</ele><time>2026-04-11T05:43:04Z</time></trkpt><trkpt lat="43.39192161173896" lon="11.383832327128383"><ele>425.0</ele><time>2026-04-11T05:43:06Z</time></trkpt><trkpt lat="43.39194340429872" lon="11.383743706050637"><ele>424.99999999999994</ele><time>2026-04-11T05:43:07Z</time></trkpt><trkpt lat="43.39195672024815" lon="11.383653797992082"><ele>425.0</ele><time>2026-04-11T05:43:08Z</time></trkpt><trkpt lat="43.39196436353097" lon="11.383551336928527"><ele>424.99999999999994</ele><time>2026-04-11T05:43:09Z</time></trkpt><trkpt lat="43.39197278875732" lon="11.38345484067444"><ele>425.0</ele><time>2026-04-11T05:43:10Z</time></trkpt><trkpt lat="43.391985819683526" lon="11.383364831760405"><ele>425.0</ele><time>2026-04-11T05:43:11Z</time></trkpt><trkpt lat="43.391988549260695" lon="11.38327114726835"><ele>425.0</ele><time>2026-04-11T05:43:12Z</time></trkpt><trkpt lat="43.392006953018864" lon="11.38318585784857"><ele>424.99999999999994</ele><time>2026-04-11T05:43:13Z</time></trkpt><trkpt lat="43.39201295058111" lon="11.383091381847258"><ele>425.0</ele><time>2026-04-11T05:43:14Z</time></trkpt><trkpt lat="43.39207376315331" lon="11.382932156785143"><ele>425.0</ele><time>2026-04-11T05:43:16Z</time></trkpt><trkpt lat="43.39211028768816" lon="11.382845486165355"><ele>425.0</ele><time>2026-04-11T05:43:17Z</time></trkpt><trkpt lat="43.39215223585035" lon="11.382763507576598"><ele>425.0</ele><time>2026-04-11T05:43:17.999Z</time></trkpt><trkpt lat="43.39219727336686" lon="11.382684767386772"><ele>425.0</ele><time>2026-04-11T05:43:18.999Z</time></trkpt><trkpt lat="43.392247034561706" lon="11.382620652527423"><ele>425.0</ele><time>2026-04-11T05:43:19.999Z</time></trkpt><trkpt lat="43.392304245218526" lon="11.382562298062755"><ele>425.0</ele><time>2026-04-11T05:43:20.999Z</time></trkpt><trkpt lat="43.392359046226815" lon="11.382498510473809"><ele>425.0</ele><time>2026-04-11T05:43:21.999Z</time></trkpt><trkpt lat="43.39245888797555" lon="11.38239118487056"><ele>425.0</ele><time>2026-04-11T05:43:23.999Z</time></trkpt><trkpt lat="43.392517172639806" lon="11.382340219140216"><ele>425.0</ele><time>2026-04-11T05:43:24.999Z</time></trkpt><trkpt lat="43.392576260804056" lon="11.382297202474362"><ele>425.0</ele><time>2026-04-11T05:43:25.999Z</time></trkpt><trkpt lat="43.39263649308289" lon="11.382255484170757"><ele>425.0</ele><time>2026-04-11T05:43:26.999Z</time></trkpt><trkpt lat="43.392687001111675" lon="11.382196747630635"><ele>425.0</ele><time>2026-04-11T05:43:27.999Z</time></trkpt><trkpt lat="43.39274804826878" lon="11.382145559395017"><ele>425.0</ele><time>2026-04-11T05:43:28.999Z</time></trkpt><trkpt lat="43.392808639725985" lon="11.38209781697973"><ele>425.0</ele><time>2026-04-11T05:43:29.999Z</time></trkpt><trkpt lat="43.3928713496616" lon="11.382046692112908"><ele>425.1428571428571</ele><time>2026-04-11T05:43:30.999Z</time></trkpt><trkpt lat="43.39293436418242" lon="11.382001742163718"><ele>425.2857142857143</ele><time>2026-04-11T05:43:31.999Z</time></trkpt><trkpt lat="43.39299053722991" lon="11.381960376996613"><ele>425.42857142857144</ele><time>2026-04-11T05:43:32.999Z</time></trkpt><trkpt lat="43.393045587069125" lon="11.381899823490768"><ele>425.57142857142856</ele><time>2026-04-11T05:43:33.999Z</time></trkpt><trkpt lat="43.393103770325546" lon="11.381844725064369"><ele>425.7142857142857</ele><time>2026-04-11T05:43:34.999Z</time></trkpt><trkpt lat="43.39316734016117" lon="11.381799299937258"><ele>425.85714285714283</ele><time>2026-04-11T05:43:35.999Z</time></trkpt><trkpt lat="43.3932311585583" lon="11.381750788919785"><ele>426.0</ele><time>2026-04-11T05:43:36.999Z</time></trkpt><trkpt lat="43.393293841811094" lon="11.38169988811643"><ele>425.1666666666667</ele><time>2026-04-11T05:43:37.999Z</time></trkpt><trkpt lat="43.393361005667366" lon="11.381648270746378"><ele>424.33333333333337</ele><time>2026-04-11T05:43:38.999Z</time></trkpt><trkpt lat="43.393422323494285" lon="11.381594827707946"><ele>423.5</ele><time>2026-04-11T05:43:39.999Z</time></trkpt><trkpt lat="43.39349090156731" lon="11.381545367383085"><ele>422.6666666666667</ele><time>2026-04-11T05:43:40.999Z</time></trkpt><trkpt lat="43.39356185520221" lon="11.381497290361542"><ele>421.83333333333337</ele><time>2026-04-11T05:43:41.999Z</time></trkpt><trkpt lat="43.393627696939205" lon="11.381449289055793"><ele>421.0</ele><time>2026-04-11T05:43:42.999Z</time></trkpt><trkpt lat="43.39369101301669" lon="11.381404117535233"><ele>421.00000000000006</ele><time>2026-04-11T05:43:43.999Z</time></trkpt><trkpt lat="43.393753819959784" lon="11.381359947789436"><ele>421.0</ele><time>2026-04-11T05:43:44.999Z</time></trkpt><trkpt lat="43.39382030063753" lon="11.381315135081374"><ele>421.0</ele><time>2026-04-11T05:43:45.999Z</time></trkpt><trkpt lat="43.393894321005014" lon="11.381302146411237"><ele>421.0</ele><time>2026-04-11T05:43:46.999Z</time></trkpt><trkpt lat="43.39396431407295" lon="11.381267291557764"><ele>421.0</ele><time>2026-04-11T05:43:47.999Z</time></trkpt><trkpt lat="43.39403572612753" lon="11.381232643140205"><ele>421.00000000000006</ele><time>2026-04-11T05:43:48.999Z</time></trkpt><trkpt lat="43.39410692804089" lon="11.381200377645186"><ele>421.0</ele><time>2026-04-11T05:43:49.999Z</time></trkpt><trkpt lat="43.39417450666986" lon="11.381153276390426"><ele>420.00000000000006</ele><time>2026-04-11T05:43:50.999Z</time></trkpt><trkpt lat="43.394245930876" lon="11.381125634113953"><ele>419.0</ele><time>2026-04-11T05:43:51.999Z</time></trkpt><trkpt lat="43.39432197300536" lon="11.381097720980295"><ele>418.0</ele><time>2026-04-11T05:43:52.999Z</time></trkpt><trkpt lat="43.394398818160546" lon="11.381071988904035"><ele>417.0</ele><time>2026-04-11T05:43:53.999Z</time></trkpt><trkpt lat="43.39447883858524" lon="11.381056384484637"><ele>416.00000000000006</ele><time>2026-04-11T05:43:54.999Z</time></trkpt><trkpt lat="43.39455788123425" lon="11.381032464057853"><ele>415.0</ele><time>2026-04-11T05:43:55.999Z</time></trkpt><trkpt lat="43.394635598262454" lon="11.381014419749226"><ele>415.1666666666667</ele><time>2026-04-11T05:43:56.999Z</time></trkpt><trkpt lat="43.39471073661908" lon="11.380996639191173"><ele>415.33333333333337</ele><time>2026-04-11T05:43:57.999Z</time></trkpt><trkpt lat="43.39478963346875" lon="11.380983262502273"><ele>415.5</ele><time>2026-04-11T05:43:58.999Z</time></trkpt><trkpt lat="43.39486492595179" lon="11.380984025744919"><ele>415.66666666666663</ele><time>2026-04-11T05:43:59.999Z</time></trkpt><trkpt lat="43.39494292908958" lon="11.380976851901156"><ele>415.8333333333333</ele><time>2026-04-11T05:44:00.999Z</time></trkpt><trkpt lat="43.39502051206205" lon="11.380972600571344"><ele>416.0</ele><time>2026-04-11T05:44:01.999Z</time></trkpt><trkpt lat="43.39509759918681" lon="11.380970210856912"><ele>415.99999999999994</ele><time>2026-04-11T05:44:02.999Z</time></trkpt><trkpt lat="43.39517455934305" lon="11.380977388832386"><ele>416.0</ele><time>2026-04-11T05:44:03.999Z</time></trkpt><trkpt lat="43.39525239861581" lon="11.380984048594508"><ele>416.0</ele><time>2026-04-11T05:44:04.999Z</time></trkpt><trkpt lat="43.39532782975642" lon="11.38099436911267"><ele>416.0</ele><time>2026-04-11T05:44:05.999Z</time></trkpt><trkpt lat="43.3954066875213" lon="11.381004759710745"><ele>415.99999999999994</ele><time>2026-04-11T05:44:06.999Z</time></trkpt><trkpt lat="43.39548459157503" lon="11.381018101812648"><ele>416.0</ele><time>2026-04-11T05:44:07.999Z</time></trkpt><trkpt lat="43.39556354413613" lon="11.381024402069858"><ele>415.3333333333333</ele><time>2026-04-11T05:44:08.999Z</time></trkpt><trkpt lat="43.39564437388025" lon="11.381032986122815"><ele>414.66666666666663</ele><time>2026-04-11T05:44:09.999Z</time></trkpt><trkpt lat="43.395723789885004" lon="11.381040365572085"><ele>414.0</ele><time>2026-04-11T05:44:10.999Z</time></trkpt><trkpt lat="43.395800040687625" lon="11.381047877365539"><ele>413.33333333333337</ele><time>2026-04-11T05:44:12Z</time></trkpt><trkpt lat="43.39587966618803" lon="11.381050295313157"><ele>412.6666666666667</ele><time>2026-04-11T05:44:13Z</time></trkpt><trkpt lat="43.39595560182534" lon="11.381049166785429"><ele>412.0</ele><time>2026-04-11T05:44:14Z</time></trkpt><trkpt lat="43.39602661055956" lon="11.381043673830048"><ele>411.99999999999994</ele><time>2026-04-11T05:44:15Z</time></trkpt><trkpt lat="43.3960964216614" lon="11.381015619366524"><ele>412.0</ele><time>2026-04-11T05:44:16Z</time></trkpt><trkpt lat="43.39616283808088" lon="11.380986404593633"><ele>412.0</ele><time>2026-04-11T05:44:17Z</time></trkpt><trkpt lat="43.3962261649854" lon="11.38094358536376"><ele>412.0</ele><time>2026-04-11T05:44:18Z</time></trkpt><trkpt lat="43.396287435442986" lon="11.380896728721362"><ele>412.0</ele><time>2026-04-11T05:44:19Z</time></trkpt><trkpt lat="43.396343414446214" lon="11.38084119614865"><ele>411.99999999999994</ele><time>2026-04-11T05:44:20Z</time></trkpt><trkpt lat="43.39640082727093" lon="11.38078134526349"><ele>412.0</ele><time>2026-04-11T05:44:21Z</time></trkpt><trkpt lat="43.39643906939071" lon="11.380698123734437"><ele>411.57142857142856</ele><time>2026-04-11T05:44:22Z</time></trkpt><trkpt lat="43.396480928867526" lon="11.380627135486826"><ele>411.1428571428571</ele><time>2026-04-11T05:44:23Z</time></trkpt><trkpt lat="43.39652004943672" lon="11.380544290934273"><ele>410.71428571428567</ele><time>2026-04-11T05:44:24Z</time></trkpt><trkpt lat="43.396553217741484" lon="11.380461163557175"><ele>410.2857142857143</ele><time>2026-04-11T05:44:25Z</time></trkpt><trkpt lat="43.396583519255515" lon="11.38037651799718"><ele>409.8571428571429</ele><time>2026-04-11T05:44:26Z</time></trkpt><trkpt lat="43.39660537174006" lon="11.380283093939228"><ele>409.4285714285714</ele><time>2026-04-11T05:44:27Z</time></trkpt><trkpt lat="43.39662281025226" lon="11.380192256746863"><ele>409.0</ele><time>2026-04-11T05:44:28Z</time></trkpt><trkpt lat="43.39663653585686" lon="11.380101866168529"><ele>409.0</ele><time>2026-04-11T05:44:29Z</time></trkpt><trkpt lat="43.39667003834129" lon="11.37993735629266"><ele>409.0</ele><time>2026-04-11T05:44:31Z</time></trkpt><trkpt lat="43.39668553074331" lon="11.37985018766224"><ele>409.0</ele><time>2026-04-11T05:44:32Z</time></trkpt><trkpt lat="43.39670251821797" lon="11.379765401599704"><ele>409.0</ele><time>2026-04-11T05:44:33Z</time></trkpt><trkpt lat="43.396734425806436" lon="11.379599842827325"><ele>409.0</ele><time>2026-04-11T05:44:35Z</time></trkpt><trkpt lat="43.39675834256848" lon="11.379437199543819"><ele>410.0</ele><time>2026-04-11T05:44:37Z</time></trkpt><trkpt lat="43.396791553335525" lon="11.379285714447628"><ele>411.0</ele><time>2026-04-11T05:44:39Z</time></trkpt><trkpt lat="43.396812527521455" lon="11.379141228863451"><ele>412.0</ele><time>2026-04-11T05:44:41Z</time></trkpt><trkpt lat="43.396845471247346" lon="11.378992994662593"><ele>413.0</ele><time>2026-04-11T05:44:43Z</time></trkpt><trkpt lat="43.39687800479733" lon="11.378860422307785"><ele>414.0</ele><time>2026-04-11T05:44:45Z</time></trkpt><trkpt lat="43.39691174644077" lon="11.378734908735568"><ele>414.0</ele><time>2026-04-11T05:44:47Z</time></trkpt><trkpt lat="43.39696872519212" lon="11.378617483516289"><ele>414.0</ele><time>2026-04-11T05:44:49Z</time></trkpt><trkpt lat="43.39701018640894" lon="11.378512913188466"><ele>414.0</ele><time>2026-04-11T05:44:51Z</time></trkpt><trkpt lat="43.3970649837723" lon="11.378416749529428"><ele>414.0</ele><time>2026-04-11T05:44:53Z</time></trkpt><trkpt lat="43.3971243751196" lon="11.378315891726416"><ele>414.0</ele><time>2026-04-11T05:44:55Z</time></trkpt><trkpt lat="43.39717318415456" lon="11.378211051524252"><ele>414.0</ele><time>2026-04-11T05:44:57Z</time></trkpt><trkpt lat="43.39723224360956" lon="11.378111693080939"><ele>414.0</ele><time>2026-04-11T05:44:59Z</time></trkpt><trkpt lat="43.397295452597575" lon="11.378024171886342"><ele>414.0</ele><time>2026-04-11T05:45:01Z</time></trkpt><trkpt lat="43.3973372152976" lon="11.377916836500274"><ele>414.0</ele><time>2026-04-11T05:45:03Z</time></trkpt><trkpt lat="43.39739435267399" lon="11.377816712618394"><ele>414.0</ele><time>2026-04-11T05:45:05Z</time></trkpt><trkpt lat="43.39745668459706" lon="11.37772661799629"><ele>415.0</ele><time>2026-04-11T05:45:07Z</time></trkpt><trkpt lat="43.39752543449014" lon="11.377634318949038"><ele>416.0</ele><time>2026-04-11T05:45:09Z</time></trkpt><trkpt lat="43.39757688323041" lon="11.377528798548393"><ele>417.0</ele><time>2026-04-11T05:45:11Z</time></trkpt><trkpt lat="43.39763804478586" lon="11.377433253088897"><ele>418.0</ele><time>2026-04-11T05:45:12.999Z</time></trkpt><trkpt lat="43.39769069103679" lon="11.377339569017295"><ele>419.0</ele><time>2026-04-11T05:45:14.999Z</time></trkpt><trkpt lat="43.39775467360635" lon="11.377243547714507"><ele>418.6</ele><time>2026-04-11T05:45:16.999Z</time></trkpt><trkpt lat="43.39782364982989" lon="11.37714300092649"><ele>418.2</ele><time>2026-04-11T05:45:18.999Z</time></trkpt><trkpt lat="43.39788765447373" lon="11.377047256899388"><ele>417.8</ele><time>2026-04-11T05:45:20.999Z</time></trkpt><trkpt lat="43.39795685860492" lon="11.376951630293885"><ele>417.40000000000003</ele><time>2026-04-11T05:45:22.999Z</time></trkpt><trkpt lat="43.39802252411052" lon="11.376864047007059"><ele>417.0</ele><time>2026-04-11T05:45:24.999Z</time></trkpt><trkpt lat="43.39810228938464" lon="11.376774456928105"><ele>417.8</ele><time>2026-04-11T05:45:26.999Z</time></trkpt><trkpt lat="43.39816913397073" lon="11.376692815403494"><ele>418.6</ele><time>2026-04-11T05:45:28.999Z</time></trkpt><trkpt lat="43.398241550880755" lon="11.376621587639777"><ele>419.40000000000003</ele><time>2026-04-11T05:45:30.999Z</time></trkpt><trkpt lat="43.398307700905185" lon="11.376535363924068"><ele>420.20000000000005</ele><time>2026-04-11T05:45:32.999Z</time></trkpt><trkpt lat="43.398381178666135" lon="11.376460792316347"><ele>421.0</ele><time>2026-04-11T05:45:34.999Z</time></trkpt><trkpt lat="43.398452978927494" lon="11.376388989129026"><ele>421.33333333333337</ele><time>2026-04-11T05:45:36.999Z</time></trkpt><trkpt lat="43.39851528278846" lon="11.376325809268119"><ele>421.6666666666667</ele><time>2026-04-11T05:45:38.999Z</time></trkpt><trkpt lat="43.398598275221666" lon="11.376259501336568"><ele>422.0</ele><time>2026-04-11T05:45:40.999Z</time></trkpt><trkpt lat="43.39867642660362" lon="11.376207316354753"><ele>422.33333333333337</ele><time>2026-04-11T05:45:42.999Z</time></trkpt><trkpt lat="43.39873608701482" lon="11.376174715298509"><ele>422.6666666666667</ele><time>2026-04-11T05:45:45.999Z</time></trkpt><trkpt lat="43.3987958398949" lon="11.376142113472405"><ele>423.0</ele><time>2026-04-11T05:45:46.999Z</time></trkpt><trkpt lat="43.39886430374558" lon="11.376112220527375"><ele>423.8333333333333</ele><time>2026-04-11T05:45:48.999Z</time></trkpt><trkpt lat="43.39895183647235" lon="11.376053442156826"><ele>424.66666666666663</ele><time>2026-04-11T05:45:51.999Z</time></trkpt><trkpt lat="43.39902721959826" lon="11.376030891606902"><ele>425.5</ele><time>2026-04-11T05:45:54.999Z</time></trkpt><trkpt lat="43.39911553056255" lon="11.376016019690775"><ele>426.3333333333333</ele><time>2026-04-11T05:45:57.999Z</time></trkpt><trkpt lat="43.39918091840412" lon="11.37601317977473"><ele>427.16666666666663</ele><time>2026-04-11T05:46:00.999Z</time></trkpt><trkpt lat="43.399246528205374" lon="11.375995253525959"><ele>428.0</ele><time>2026-04-11T05:46:02.999Z</time></trkpt><trkpt lat="43.39930885703114" lon="11.375956713880347"><ele>427.99999999999994</ele><time>2026-04-11T05:46:05.999Z</time></trkpt><trkpt lat="43.399388129916716" lon="11.375958289781716"><ele>428.0</ele><time>2026-04-11T05:46:08.999Z</time></trkpt><trkpt lat="43.399477391140934" lon="11.375912191387531"><ele>428.0</ele><time>2026-04-11T05:46:12.999Z</time></trkpt><trkpt lat="43.399534385042685" lon="11.37585353817366"><ele>428.0</ele><time>2026-04-11T05:46:15.999Z</time></trkpt><trkpt lat="43.39958029485928" lon="11.375779933990964"><ele>427.99999999999994</ele><time>2026-04-11T05:46:19Z</time></trkpt><trkpt lat="43.39964110082536" lon="11.37571104869804"><ele>428.0</ele><time>2026-04-11T05:46:22Z</time></trkpt><trkpt lat="43.39969021647216" lon="11.375635740973905"><ele>428.8333333333333</ele><time>2026-04-11T05:46:25Z</time></trkpt><trkpt lat="43.399740574489044" lon="11.375546059058873"><ele>429.66666666666663</ele><time>2026-04-11T05:46:29Z</time></trkpt><trkpt lat="43.399786822292974" lon="11.375460973653704"><ele>430.5</ele><time>2026-04-11T05:46:32Z</time></trkpt><trkpt lat="43.3998314048914" lon="11.375378808046147"><ele>431.33333333333337</ele><time>2026-04-11T05:46:35Z</time></trkpt><trkpt lat="43.399876279569675" lon="11.375290671536197"><ele>432.1666666666667</ele><time>2026-04-11T05:46:38Z</time></trkpt><trkpt lat="43.3999179891362" lon="11.375204322213218"><ele>433.0</ele><time>2026-04-11T05:46:41Z</time></trkpt><trkpt lat="43.39995783714454" lon="11.375129798763442"><ele>433.50000000000006</ele><time>2026-04-11T05:46:44Z</time></trkpt><trkpt lat="43.400002950806204" lon="11.375043034075007"><ele>434.0</ele><time>2026-04-11T05:46:47Z</time></trkpt><trkpt lat="43.400053169895166" lon="11.374957624776592"><ele>434.5</ele><time>2026-04-11T05:46:51Z</time></trkpt><trkpt lat="43.40009923390369" lon="11.374893357380936"><ele>435.0</ele><time>2026-04-11T05:46:54Z</time></trkpt><trkpt lat="43.400157504071345" lon="11.374786853869036"><ele>435.50000000000006</ele><time>2026-04-11T05:46:58Z</time></trkpt><trkpt lat="43.40020992156276" lon="11.374697267659268"><ele>436.0</ele><time>2026-04-11T05:47:01Z</time></trkpt><trkpt lat="43.400264001994856" lon="11.374606118049748"><ele>436.00000000000006</ele><time>2026-04-11T05:47:04Z</time></trkpt><trkpt lat="43.40030573023599" lon="11.374531741067148"><ele>436.0</ele><time>2026-04-11T05:47:07Z</time></trkpt><trkpt lat="43.40036512511711" lon="11.37444677362432"><ele>436.0</ele><time>2026-04-11T05:47:10Z</time></trkpt><trkpt lat="43.400413428201446" lon="11.374379218129022"><ele>436.0</ele><time>2026-04-11T05:47:13Z</time></trkpt><trkpt lat="43.40046069048424" lon="11.374300405128146"><ele>436.00000000000006</ele><time>2026-04-11T05:47:16Z</time></trkpt><trkpt lat="43.40048547424119" lon="11.374170856470293"><ele>436.0</ele><time>2026-04-11T05:47:20Z</time></trkpt><trkpt lat="43.400525179805456" lon="11.37408035339222"><ele>436.00000000000006</ele><time>2026-04-11T05:47:23Z</time></trkpt><trkpt lat="43.40055405918476" lon="11.37397382033984"><ele>436.0</ele><time>2026-04-11T05:47:26Z</time></trkpt><trkpt lat="43.40057852362047" lon="11.373893417783108"><ele>436.0</ele><time>2026-04-11T05:47:28Z</time></trkpt><trkpt lat="43.400599843358904" lon="11.37380720211985"><ele>436.0</ele><time>2026-04-11T05:47:30Z</time></trkpt><trkpt lat="43.400623143234625" lon="11.373712711263563"><ele>436.00000000000006</ele><time>2026-04-11T05:47:32Z</time></trkpt><trkpt lat="43.40064101438818" lon="11.373607361159454"><ele>436.0</ele><time>2026-04-11T05:47:34Z</time></trkpt><trkpt lat="43.400672996011494" lon="11.373478800637331"><ele>436.0</ele><time>2026-04-11T05:47:35.999Z</time></trkpt><trkpt lat="43.400717956734454" lon="11.37336652279557"><ele>436.0</ele><time>2026-04-11T05:47:37.999Z</time></trkpt><trkpt lat="43.4007730434453" lon="11.373230029266638"><ele>436.0</ele><time>2026-04-11T05:47:39.999Z</time></trkpt><trkpt lat="43.40085229757317" lon="11.37313155160289"><ele>436.0</ele><time>2026-04-11T05:47:41.999Z</time></trkpt><trkpt lat="43.40093423146862" lon="11.37301484888441"><ele>436.0</ele><time>2026-04-11T05:47:43.999Z</time></trkpt><trkpt lat="43.401026473927665" lon="11.37291188362561"><ele>436.0</ele><time>2026-04-11T05:47:45.999Z</time></trkpt><trkpt lat="43.40107584603372" lon="11.372857683841525"><ele>436.0</ele><time>2026-04-11T05:47:46.999Z</time></trkpt><trkpt lat="43.40112579219073" lon="11.372798636995329"><ele>436.0</ele><time>2026-04-11T05:47:47.999Z</time></trkpt><trkpt lat="43.40117369170007" lon="11.37273974982041"><ele>436.0</ele><time>2026-04-11T05:47:48.999Z</time></trkpt><trkpt lat="43.401241385634236" lon="11.372604640943308"><ele>436.0</ele><time>2026-04-11T05:47:50.999Z</time></trkpt><trkpt lat="43.40126595493981" lon="11.372517298630171"><ele>436.0</ele><time>2026-04-11T05:47:51.999Z</time></trkpt><trkpt lat="43.40129569480782" lon="11.372433626073711"><ele>436.0</ele><time>2026-04-11T05:47:52.999Z</time></trkpt><trkpt lat="43.40130504071506" lon="11.372340800089178"><ele>436.0</ele><time>2026-04-11T05:47:53.999Z</time></trkpt><trkpt lat="43.40131581836821" lon="11.37224888563031"><ele>436.0</ele><time>2026-04-11T05:47:54.999Z</time></trkpt><trkpt lat="43.40131824372473" lon="11.372154252525492"><ele>436.0</ele><time>2026-04-11T05:47:55.999Z</time></trkpt><trkpt lat="43.401307901379184" lon="11.37205487294335"><ele>436.0</ele><time>2026-04-11T05:47:56.999Z</time></trkpt><trkpt lat="43.40131187491695" lon="11.37195275128743"><ele>436.0</ele><time>2026-04-11T05:47:57.999Z</time></trkpt><trkpt lat="43.401309759498076" lon="11.371849421275025"><ele>436.0</ele><time>2026-04-11T05:47:58.999Z</time></trkpt><trkpt lat="43.40130574838085" lon="11.37174165468092"><ele>436.0</ele><time>2026-04-11T05:47:59.999Z</time></trkpt><trkpt lat="43.40129948004521" lon="11.371641514922226"><ele>435.6666666666667</ele><time>2026-04-11T05:48:00.999Z</time></trkpt><trkpt lat="43.4012930013712" lon="11.371538014896355"><ele>435.33333333333337</ele><time>2026-04-11T05:48:01.999Z</time></trkpt><trkpt lat="43.40127910571241" lon="11.371431665218337"><ele>435.0</ele><time>2026-04-11T05:48:02.999Z</time></trkpt><trkpt lat="43.40128289602183" lon="11.371325461242044"><ele>434.66666666666663</ele><time>2026-04-11T05:48:03.999Z</time></trkpt><trkpt lat="43.40129299587596" lon="11.37121742547467"><ele>434.3333333333333</ele><time>2026-04-11T05:48:04.999Z</time></trkpt><trkpt lat="43.40129673152061" lon="11.371096841751697"><ele>434.0</ele><time>2026-04-11T05:48:05.999Z</time></trkpt><trkpt lat="43.40129269162253" lon="11.370970875211666"><ele>433.3333333333333</ele><time>2026-04-11T05:48:06.999Z</time></trkpt><trkpt lat="43.40130321714794" lon="11.370854187775263"><ele>432.66666666666663</ele><time>2026-04-11T05:48:07.999Z</time></trkpt><trkpt lat="43.401317754794185" lon="11.37073970889454"><ele>432.0</ele><time>2026-04-11T05:48:08.999Z</time></trkpt><trkpt lat="43.401356986465714" lon="11.37063347755282"><ele>431.33333333333337</ele><time>2026-04-11T05:48:09.999Z</time></trkpt><trkpt lat="43.40138778547916" lon="11.370526902643597"><ele>430.6666666666667</ele><time>2026-04-11T05:48:10.999Z</time></trkpt><trkpt lat="43.40141298047591" lon="11.370444244859392"><ele>430.0</ele><time>2026-04-11T05:48:11.999Z</time></trkpt><trkpt lat="43.401435840128734" lon="11.37036060351911"><ele>429.83333333333337</ele><time>2026-04-11T05:48:12.999Z</time></trkpt><trkpt lat="43.401477916877184" lon="11.370257526625618"><ele>429.6666666666667</ele><time>2026-04-11T05:48:13.999Z</time></trkpt><trkpt lat="43.401505900693664" lon="11.37015536499999"><ele>429.5</ele><time>2026-04-11T05:48:14.999Z</time></trkpt><trkpt lat="43.40153043836454" lon="11.370054753326665"><ele>429.33333333333337</ele><time>2026-04-11T05:48:15.999Z</time></trkpt><trkpt lat="43.40156093096236" lon="11.369958521208646"><ele>429.1666666666667</ele><time>2026-04-11T05:48:16.999Z</time></trkpt><trkpt lat="43.40158275295355" lon="11.36986221181572"><ele>429.0</ele><time>2026-04-11T05:48:17.999Z</time></trkpt><trkpt lat="43.40159986873599" lon="11.369769331629936"><ele>429.2</ele><time>2026-04-11T05:48:18.999Z</time></trkpt><trkpt lat="43.401642635829205" lon="11.36960233155809"><ele>429.4</ele><time>2026-04-11T05:48:20.999Z</time></trkpt><trkpt lat="43.401661398987905" lon="11.369426448060214"><ele>429.6</ele><time>2026-04-11T05:48:22.999Z</time></trkpt><trkpt lat="43.40168263509275" lon="11.369342775983625"><ele>429.8</ele><time>2026-04-11T05:48:24Z</time></trkpt><trkpt lat="43.401708057999386" lon="11.369194100551121"><ele>430.0</ele><time>2026-04-11T05:48:26Z</time></trkpt><trkpt lat="43.40173106755397" lon="11.36904057918015"><ele>430.0</ele><time>2026-04-11T05:48:28Z</time></trkpt><trkpt lat="43.40173466085103" lon="11.368951231465502"><ele>430.0</ele><time>2026-04-11T05:48:29Z</time></trkpt><trkpt lat="43.40175199473827" lon="11.368806793878795"><ele>430.0</ele><time>2026-04-11T05:48:31Z</time></trkpt><trkpt lat="43.40174000099332" lon="11.368651891956514"><ele>430.0</ele><time>2026-04-11T05:48:33Z</time></trkpt><trkpt lat="43.40169559097857" lon="11.36850220771554"><ele>430.0</ele><time>2026-04-11T05:48:35Z</time></trkpt><trkpt lat="43.401689132215196" lon="11.368365933473735"><ele>430.4</ele><time>2026-04-11T05:48:37Z</time></trkpt><trkpt lat="43.401681082325894" lon="11.368228666522171"><ele>430.8</ele><time>2026-04-11T05:48:39Z</time></trkpt><trkpt lat="43.401670908879886" lon="11.368098047432692"><ele>431.20000000000005</ele><time>2026-04-11T05:48:41Z</time></trkpt><trkpt lat="43.4016581843078" lon="11.36796862224689"><ele>431.6</ele><time>2026-04-11T05:48:43Z</time></trkpt><trkpt lat="43.40164269826712" lon="11.367844200114925"><ele>432.0</ele><time>2026-04-11T05:48:45Z</time></trkpt><trkpt lat="43.40163153898278" lon="11.367714452534651"><ele>432.3333333333333</ele><time>2026-04-11T05:48:47Z</time></trkpt><trkpt lat="43.40161755613883" lon="11.367600415972563"><ele>432.66666666666663</ele><time>2026-04-11T05:48:49Z</time></trkpt><trkpt lat="43.401625167168326" lon="11.367479202702771"><ele>433.0</ele><time>2026-04-11T05:48:51Z</time></trkpt><trkpt lat="43.40161646045953" lon="11.367371651175592"><ele>433.3333333333333</ele><time>2026-04-11T05:48:53Z</time></trkpt><trkpt lat="43.40158985635506" lon="11.367256928574836"><ele>433.66666666666663</ele><time>2026-04-11T05:48:55Z</time></trkpt><trkpt lat="43.401571781639674" lon="11.367142518124739"><ele>434.0</ele><time>2026-04-11T05:48:57Z</time></trkpt><trkpt lat="43.401556540130024" lon="11.367052675606079"><ele>434.16666666666663</ele><time>2026-04-11T05:48:59Z</time></trkpt><trkpt lat="43.40152798998349" lon="11.366958891756372"><ele>434.3333333333333</ele><time>2026-04-11T05:49:01Z</time></trkpt><trkpt lat="43.40148521804872" lon="11.366839049471269"><ele>434.5</ele><time>2026-04-11T05:49:04Z</time></trkpt><trkpt lat="43.40144421297818" lon="11.366764910191574"><ele>434.66666666666663</ele><time>2026-04-11T05:49:06Z</time></trkpt><trkpt lat="43.40139801454133" lon="11.366657918742426"><ele>434.8333333333333</ele><time>2026-04-11T05:49:09Z</time></trkpt><trkpt lat="43.40137203128482" lon="11.366568803746219"><ele>435.0</ele><time>2026-04-11T05:49:11Z</time></trkpt><trkpt lat="43.40133429208439" lon="11.366480292841649"><ele>435.42857142857144</ele><time>2026-04-11T05:49:14Z</time></trkpt><trkpt lat="43.40129622487469" lon="11.36638709990967"><ele>435.8571428571429</ele><time>2026-04-11T05:49:17Z</time></trkpt><trkpt lat="43.40127444835603" lon="11.36629459204617"><ele>436.28571428571433</ele><time>2026-04-11T05:49:20Z</time></trkpt><trkpt lat="43.40125714846708" lon="11.366199644138117"><ele>436.7142857142857</ele><time>2026-04-11T05:49:23Z</time></trkpt><trkpt lat="43.40122686944885" lon="11.36611114742033"><ele>437.1428571428571</ele><time>2026-04-11T05:49:26Z</time></trkpt><trkpt lat="43.40121282779531" lon="11.36601723423707"><ele>437.5714285714286</ele><time>2026-04-11T05:49:29Z</time></trkpt><trkpt lat="43.40120016651504" lon="11.36592910867337"><ele>438.0</ele><time>2026-04-11T05:49:31.999Z</time></trkpt><trkpt lat="43.40119292833965" lon="11.365827228475403"><ele>438.3333333333333</ele><time>2026-04-11T05:49:34.999Z</time></trkpt><trkpt lat="43.40118158987666" lon="11.365708990641952"><ele>438.66666666666663</ele><time>2026-04-11T05:49:38.999Z</time></trkpt><trkpt lat="43.401180439757404" lon="11.36560007426683"><ele>439.0</ele><time>2026-04-11T05:49:42.999Z</time></trkpt><trkpt lat="43.401152373709245" lon="11.365505944717295"><ele>439.3333333333333</ele><time>2026-04-11T05:49:45.999Z</time></trkpt><trkpt lat="43.401137441857315" lon="11.365394608870172"><ele>439.66666666666663</ele><time>2026-04-11T05:49:49.999Z</time></trkpt><trkpt lat="43.40112107725052" lon="11.365296612296007"><ele>440.0</ele><time>2026-04-11T05:49:52.999Z</time></trkpt><trkpt lat="43.40110137103302" lon="11.365185405936998"><ele>439.99999999999994</ele><time>2026-04-11T05:49:55.999Z</time></trkpt><trkpt lat="43.401084095448" lon="11.3650909745494"><ele>440.0</ele><time>2026-04-11T05:49:57.999Z</time></trkpt><trkpt lat="43.401064368312824" lon="11.364982973999586"><ele>440.0</ele><time>2026-04-11T05:49:59.999Z</time></trkpt><trkpt lat="43.40106433454352" lon="11.364877262395996"><ele>440.0</ele><time>2026-04-11T05:50:01.999Z</time></trkpt><trkpt lat="43.40105550875961" lon="11.364766576705135"><ele>439.99999999999994</ele><time>2026-04-11T05:50:03.999Z</time></trkpt><trkpt lat="43.40103363556628" lon="11.36465069771457"><ele>440.0</ele><time>2026-04-11T05:50:05.999Z</time></trkpt><trkpt lat="43.40099809758041" lon="11.364555375219568"><ele>440.3333333333333</ele><time>2026-04-11T05:50:07.999Z</time></trkpt><trkpt lat="43.40095500486053" lon="11.364458049486876"><ele>440.66666666666663</ele><time>2026-04-11T05:50:09.999Z</time></trkpt><trkpt lat="43.40091284221692" lon="11.364364448166434"><ele>441.0</ele><time>2026-04-11T05:50:11.999Z</time></trkpt><trkpt lat="43.400872838182046" lon="11.364272882729942"><ele>441.33333333333337</ele><time>2026-04-11T05:50:13.999Z</time></trkpt><trkpt lat="43.40083917656563" lon="11.364163654201006"><ele>441.6666666666667</ele><time>2026-04-11T05:50:15.999Z</time></trkpt><trkpt lat="43.40080848968149" lon="11.364057135569917"><ele>442.0</ele><time>2026-04-11T05:50:17.999Z</time></trkpt><trkpt lat="43.400785354374044" lon="11.363924847888546"><ele>441.6</ele><time>2026-04-11T05:50:19.999Z</time></trkpt><trkpt lat="43.400781677620486" lon="11.363792335240726"><ele>441.20000000000005</ele><time>2026-04-11T05:50:21.999Z</time></trkpt><trkpt lat="43.4007961819214" lon="11.36364746623062"><ele>440.8</ele><time>2026-04-11T05:50:23.999Z</time></trkpt><trkpt lat="43.40082280959813" lon="11.363511661873924"><ele>440.4</ele><time>2026-04-11T05:50:25.999Z</time></trkpt><trkpt lat="43.400883030882774" lon="11.363407146649255"><ele>440.0</ele><time>2026-04-11T05:50:27.999Z</time></trkpt><trkpt lat="43.40095768775797" lon="11.363310218820752"><ele>440.0</ele><time>2026-04-11T05:50:30Z</time></trkpt><trkpt lat="43.40104432698577" lon="11.363246786220836"><ele>440.0</ele><time>2026-04-11T05:50:32Z</time></trkpt><trkpt lat="43.40113457431673" lon="11.363209371915834"><ele>440.0</ele><time>2026-04-11T05:50:34Z</time></trkpt><trkpt lat="43.40121892777377" lon="11.363174806462363"><ele>440.0</ele><time>2026-04-11T05:50:36Z</time></trkpt><trkpt lat="43.40133039507125" lon="11.36310676798524"><ele>440.0</ele><time>2026-04-11T05:50:38Z</time></trkpt><trkpt lat="43.40138508728183" lon="11.363024596522786"><ele>441.8</ele><time>2026-04-11T05:50:40Z</time></trkpt><trkpt lat="43.40144034678481" lon="11.362916794572879"><ele>443.6</ele><time>2026-04-11T05:50:42Z</time></trkpt><trkpt lat="43.40144056443662" lon="11.36277673816982"><ele>445.4</ele><time>2026-04-11T05:50:44Z</time></trkpt><trkpt lat="43.40145105564265" lon="11.362645322626955"><ele>447.2</ele><time>2026-04-11T05:50:46Z</time></trkpt><trkpt lat="43.401456768783774" lon="11.36253643364923"><ele>449.0</ele><time>2026-04-11T05:50:48Z</time></trkpt><trkpt lat="43.40143201226265" lon="11.36241756520955"><ele>448.99999999999994</ele><time>2026-04-11T05:50:50Z</time></trkpt><trkpt lat="43.40139134176744" lon="11.362315775581042"><ele>449.0</ele><time>2026-04-11T05:50:52Z</time></trkpt><trkpt lat="43.401336994160204" lon="11.362189099570667"><ele>449.0</ele><time>2026-04-11T05:50:54Z</time></trkpt><trkpt lat="43.40133384948989" lon="11.362060883594186"><ele>449.0</ele><time>2026-04-11T05:50:56Z</time></trkpt><trkpt lat="43.40138096452108" lon="11.36195967466272"><ele>448.99999999999994</ele><time>2026-04-11T05:50:58Z</time></trkpt><trkpt lat="43.401401814279275" lon="11.361864768081936"><ele>449.0</ele><time>2026-04-11T05:51:00Z</time></trkpt><trkpt lat="43.40149668112347" lon="11.361783000977054"><ele>448.0</ele><time>2026-04-11T05:51:02Z</time></trkpt><trkpt lat="43.40157183118822" lon="11.361710353976882"><ele>447.0</ele><time>2026-04-11T05:51:04Z</time></trkpt><trkpt lat="43.401667608267516" lon="11.361648284827496"><ele>446.0</ele><time>2026-04-11T05:51:06Z</time></trkpt><trkpt lat="43.40174603852428" lon="11.361545275135393"><ele>445.0</ele><time>2026-04-11T05:51:08Z</time></trkpt><trkpt lat="43.40183580816769" lon="11.361446559610906"><ele>444.0</ele><time>2026-04-11T05:51:10Z</time></trkpt><trkpt lat="43.40191223024905" lon="11.361353674815561"><ele>443.4</ele><time>2026-04-11T05:51:12Z</time></trkpt><trkpt lat="43.40197716475262" lon="11.361235709177922"><ele>442.79999999999995</ele><time>2026-04-11T05:51:14Z</time></trkpt><trkpt lat="43.40205529273766" lon="11.361137268628145"><ele>442.20000000000005</ele><time>2026-04-11T05:51:16Z</time></trkpt><trkpt lat="43.40214840956289" lon="11.361056084254601"><ele>441.6</ele><time>2026-04-11T05:51:18Z</time></trkpt><trkpt lat="43.40224767804348" lon="11.360975606683137"><ele>441.0</ele><time>2026-04-11T05:51:20Z</time></trkpt><trkpt lat="43.4023358244234" lon="11.360915142357515"><ele>441.0</ele><time>2026-04-11T05:51:22Z</time></trkpt><trkpt lat="43.402444397319854" lon="11.360862603710354"><ele>441.0</ele><time>2026-04-11T05:51:24Z</time></trkpt><trkpt lat="43.40254895081704" lon="11.360895664358026"><ele>441.0</ele><time>2026-04-11T05:51:26Z</time></trkpt><trkpt lat="43.40265482694349" lon="11.360914395631827"><ele>441.0</ele><time>2026-04-11T05:51:28Z</time></trkpt><trkpt lat="43.402747964017806" lon="11.36093628576231"><ele>441.0</ele><time>2026-04-11T05:51:30Z</time></trkpt><trkpt lat="43.40285848866829" lon="11.360954336589897"><ele>441.0</ele><time>2026-04-11T05:51:32Z</time></trkpt><trkpt lat="43.40295723314342" lon="11.3609559322898"><ele>441.0</ele><time>2026-04-11T05:51:34Z</time></trkpt><trkpt lat="43.40305920808797" lon="11.36091676477181"><ele>441.0</ele><time>2026-04-11T05:51:36Z</time></trkpt><trkpt lat="43.403154563618216" lon="11.360914066331885"><ele>441.0</ele><time>2026-04-11T05:51:38Z</time></trkpt><trkpt lat="43.40322439799273" lon="11.360881661034144"><ele>441.0</ele><time>2026-04-11T05:51:39.999Z</time></trkpt><trkpt lat="43.40329797381513" lon="11.360843063406536"><ele>440.6</ele><time>2026-04-11T05:51:41.999Z</time></trkpt><trkpt lat="43.40337045358648" lon="11.360801831852875"><ele>440.20000000000005</ele><time>2026-04-11T05:51:43.999Z</time></trkpt><trkpt lat="43.403481332198105" lon="11.360727630982327"><ele>439.79999999999995</ele><time>2026-04-11T05:51:46.999Z</time></trkpt><trkpt lat="43.40353470933792" lon="11.360629623373386"><ele>439.4</ele><time>2026-04-11T05:51:48.999Z</time></trkpt><trkpt lat="43.403541667450895" lon="11.36049959673306"><ele>439.0</ele><time>2026-04-11T05:51:50.999Z</time></trkpt><trkpt lat="43.40353413664907" lon="11.360366077922846"><ele>439.0</ele><time>2026-04-11T05:51:52.999Z</time></trkpt><trkpt lat="43.403526537033024" lon="11.360247366760037"><ele>439.0</ele><time>2026-04-11T05:51:54.999Z</time></trkpt><trkpt lat="43.40350126627707" lon="11.360121820084816"><ele>439.0</ele><time>2026-04-11T05:51:56.999Z</time></trkpt><trkpt lat="43.403514034694055" lon="11.36000278211515"><ele>439.0</ele><time>2026-04-11T05:51:58.999Z</time></trkpt><trkpt lat="43.403540138191445" lon="11.359864649424969"><ele>439.0</ele><time>2026-04-11T05:52:00.999Z</time></trkpt><trkpt lat="43.403577780062946" lon="11.35973620632829"><ele>440.2</ele><time>2026-04-11T05:52:02.999Z</time></trkpt><trkpt lat="43.403606123468194" lon="11.359600742360412"><ele>441.4</ele><time>2026-04-11T05:52:04.999Z</time></trkpt><trkpt lat="43.40361737760458" lon="11.359465502012707"><ele>442.6</ele><time>2026-04-11T05:52:06.999Z</time></trkpt><trkpt lat="43.403616642452405" lon="11.359341412207453"><ele>443.8</ele><time>2026-04-11T05:52:08.999Z</time></trkpt><trkpt lat="43.403581244238396" lon="11.359220702063007"><ele>445.0</ele><time>2026-04-11T05:52:10.999Z</time></trkpt><trkpt lat="43.40352116901919" lon="11.359103438685727"><ele>445.0</ele><time>2026-04-11T05:52:12.999Z</time></trkpt><trkpt lat="43.40344972135042" lon="11.359030296222718"><ele>445.0</ele><time>2026-04-11T05:52:14.999Z</time></trkpt><trkpt lat="43.40335982515232" lon="11.358986138651435"><ele>445.0</ele><time>2026-04-11T05:52:16.999Z</time></trkpt><trkpt lat="43.4032675815076" lon="11.358951213556052"><ele>445.0</ele><time>2026-04-11T05:52:18.999Z</time></trkpt><trkpt lat="43.4031794579033" lon="11.358937856307714"><ele>445.0</ele><time>2026-04-11T05:52:20.999Z</time></trkpt><trkpt lat="43.40309769516787" lon="11.358874707288464"><ele>444.4</ele><time>2026-04-11T05:52:22.999Z</time></trkpt><trkpt lat="43.403014779362486" lon="11.358790771134265"><ele>443.8</ele><time>2026-04-11T05:52:24.999Z</time></trkpt><trkpt lat="43.402957332707416" lon="11.358691838760944"><ele>443.20000000000005</ele><time>2026-04-11T05:52:26.999Z</time></trkpt><trkpt lat="43.40292034819984" lon="11.358584449728497"><ele>442.6</ele><time>2026-04-11T05:52:28.999Z</time></trkpt><trkpt lat="43.402908114673735" lon="11.358468195870145"><ele>442.0</ele><time>2026-04-11T05:52:30.999Z</time></trkpt><trkpt lat="43.402886798476" lon="11.358337870925"><ele>442.00000000000006</ele><time>2026-04-11T05:52:33.999Z</time></trkpt><trkpt lat="43.40288639538448" lon="11.358247849866487"><ele>442.0</ele><time>2026-04-11T05:52:36Z</time></trkpt><trkpt lat="43.4028552687271" lon="11.358152105274822"><ele>442.0</ele><time>2026-04-11T05:52:38Z</time></trkpt><trkpt lat="43.40283638839749" lon="11.358009468990709"><ele>442.0</ele><time>2026-04-11T05:52:41Z</time></trkpt><trkpt lat="43.40282241727891" lon="11.357881533668412"><ele>442.00000000000006</ele><time>2026-04-11T05:52:43Z</time></trkpt><trkpt lat="43.40279547072224" lon="11.357755197158767"><ele>442.0</ele><time>2026-04-11T05:52:45Z</time></trkpt><trkpt lat="43.40279002779369" lon="11.357620550026912"><ele>442.20000000000005</ele><time>2026-04-11T05:52:47Z</time></trkpt><trkpt lat="43.40280223228201" lon="11.35748151333067"><ele>442.40000000000003</ele><time>2026-04-11T05:52:49Z</time></trkpt><trkpt lat="43.402854052409154" lon="11.357366054160693"><ele>442.59999999999997</ele><time>2026-04-11T05:52:51Z</time></trkpt><trkpt lat="43.40291898479148" lon="11.357282656757992"><ele>442.79999999999995</ele><time>2026-04-11T05:52:53Z</time></trkpt><trkpt lat="43.402993413535675" lon="11.357194504314679"><ele>443.0</ele><time>2026-04-11T05:52:55Z</time></trkpt><trkpt lat="43.40307604369965" lon="11.35716064751653"><ele>443.79999999999995</ele><time>2026-04-11T05:52:57Z</time></trkpt><trkpt lat="43.40315367324016" lon="11.357139941638115"><ele>444.59999999999997</ele><time>2026-04-11T05:52:59Z</time></trkpt><trkpt lat="43.4032262412625" lon="11.357165746817886"><ele>445.40000000000003</ele><time>2026-04-11T05:53:02Z</time></trkpt><trkpt lat="43.40333787636264" lon="11.357169983363963"><ele>446.20000000000005</ele><time>2026-04-11T05:53:04Z</time></trkpt><trkpt lat="43.403430666529694" lon="11.357189462759596"><ele>447.0</ele><time>2026-04-11T05:53:06Z</time></trkpt><trkpt lat="43.4035225526426" lon="11.357168385012036"><ele>447.0</ele><time>2026-04-11T05:53:08Z</time></trkpt><trkpt lat="43.40361339670657" lon="11.357138266944542"><ele>447.00000000000006</ele><time>2026-04-11T05:53:10Z</time></trkpt><trkpt lat="43.403697997089274" lon="11.357085278344256"><ele>447.00000000000006</ele><time>2026-04-11T05:53:12Z</time></trkpt><trkpt lat="43.40379091079097" lon="11.357000495230745"><ele>447.0</ele><time>2026-04-11T05:53:14Z</time></trkpt><trkpt lat="43.40385447122234" lon="11.356924911491856"><ele>447.0</ele><time>2026-04-11T05:53:16Z</time></trkpt><trkpt lat="43.40389174534622" lon="11.35680449492751"><ele>447.0</ele><time>2026-04-11T05:53:18Z</time></trkpt><trkpt lat="43.40387854885688" lon="11.356677406332546"><ele>447.0</ele><time>2026-04-11T05:53:20Z</time></trkpt><trkpt lat="43.40386561348297" lon="11.35657067009114"><ele>447.0</ele><time>2026-04-11T05:53:22Z</time></trkpt><trkpt lat="43.403826702125556" lon="11.356477920592303"><ele>447.0</ele><time>2026-04-11T05:53:24Z</time></trkpt><trkpt lat="43.40373827942672" lon="11.356419502543677"><ele>447.0</ele><time>2026-04-11T05:53:26Z</time></trkpt><trkpt lat="43.40367245649802" lon="11.356316056477352"><ele>447.0</ele><time>2026-04-11T05:53:28Z</time></trkpt><trkpt lat="43.40363018715562" lon="11.356235975772139"><ele>446.8333333333333</ele><time>2026-04-11T05:53:30Z</time></trkpt><trkpt lat="43.40360143326891" lon="11.356119926255007"><ele>446.66666666666663</ele><time>2026-04-11T05:53:32Z</time></trkpt><trkpt lat="43.40360830864248" lon="11.35602197349194"><ele>446.5</ele><time>2026-04-11T05:53:33Z</time></trkpt><trkpt lat="43.40362960745757" lon="11.35593550961737"><ele>446.3333333333333</ele><time>2026-04-11T05:53:35Z</time></trkpt><trkpt lat="43.40371943790379" lon="11.355885809995218"><ele>446.16666666666663</ele><time>2026-04-11T05:53:37Z</time></trkpt><trkpt lat="43.40377667766187" lon="11.355822591185095"><ele>446.0</ele><time>2026-04-11T05:53:39Z</time></trkpt><trkpt lat="43.4038452822974" lon="11.35579545948576"><ele>446.99999999999994</ele><time>2026-04-11T05:53:41Z</time></trkpt><trkpt lat="43.40391341994861" lon="11.35576262646009"><ele>448.0</ele><time>2026-04-11T05:53:43Z</time></trkpt><trkpt lat="43.403971659069065" lon="11.355688406515855"><ele>449.0</ele><time>2026-04-11T05:53:44.999Z</time></trkpt><trkpt lat="43.404049114726696" lon="11.355640999153163"><ele>450.0</ele><time>2026-04-11T05:53:46.999Z</time></trkpt><trkpt lat="43.40412710990186" lon="11.355603624812494"><ele>450.99999999999994</ele><time>2026-04-11T05:53:48.999Z</time></trkpt><trkpt lat="43.40420750556147" lon="11.355589405583805"><ele>452.0</ele><time>2026-04-11T05:53:50.999Z</time></trkpt><trkpt lat="43.40429062546788" lon="11.355601127110278"><ele>451.99999999999994</ele><time>2026-04-11T05:53:52.999Z</time></trkpt><trkpt lat="43.40436275469191" lon="11.35562036268359"><ele>452.0</ele><time>2026-04-11T05:53:54.999Z</time></trkpt><trkpt lat="43.40444249006794" lon="11.35562999683146"><ele>452.0</ele><time>2026-04-11T05:53:56.999Z</time></trkpt><trkpt lat="43.40451898123643" lon="11.355660382622268"><ele>452.0</ele><time>2026-04-11T05:53:58.999Z</time></trkpt><trkpt lat="43.40458830743407" lon="11.35569071626037"><ele>451.99999999999994</ele><time>2026-04-11T05:54:00.999Z</time></trkpt><trkpt lat="43.40466736380362" lon="11.355746000086633"><ele>452.0</ele><time>2026-04-11T05:54:02.999Z</time></trkpt><trkpt lat="43.4047509952493" lon="11.355822807201628"><ele>452.66666666666663</ele><time>2026-04-11T05:54:04.999Z</time></trkpt><trkpt lat="43.40483292822862" lon="11.355897061065184"><ele>453.3333333333333</ele><time>2026-04-11T05:54:06.999Z</time></trkpt><trkpt lat="43.404893117629165" lon="11.355935802127243"><ele>454.0</ele><time>2026-04-11T05:54:08.999Z</time></trkpt><trkpt lat="43.40495126500004" lon="11.355969514821494"><ele>454.66666666666663</ele><time>2026-04-11T05:54:11.999Z</time></trkpt><trkpt lat="43.405024427048495" lon="11.356055039415512"><ele>455.3333333333333</ele><time>2026-04-11T05:54:13.999Z</time></trkpt><trkpt lat="43.4051249516301" lon="11.35608411000549"><ele>456.0</ele><time>2026-04-11T05:54:15.999Z</time></trkpt><trkpt lat="43.405193991747936" lon="11.356118535429419"><ele>456.0</ele><time>2026-04-11T05:54:17.999Z</time></trkpt><trkpt lat="43.40527251603402" lon="11.356107909198842"><ele>456.0</ele><time>2026-04-11T05:54:19.999Z</time></trkpt><trkpt lat="43.40533882877259" lon="11.35604901549179"><ele>456.0</ele><time>2026-04-11T05:54:20.999Z</time></trkpt><trkpt lat="43.405368497145304" lon="11.355939047326657"><ele>456.0</ele><time>2026-04-11T05:54:22.999Z</time></trkpt><trkpt lat="43.405391542992064" lon="11.35582161771748"><ele>456.0</ele><time>2026-04-11T05:54:24.999Z</time></trkpt><trkpt lat="43.40543807654041" lon="11.355695025181921"><ele>456.0</ele><time>2026-04-11T05:54:27.999Z</time></trkpt><trkpt lat="43.40545516883847" lon="11.355576212216166"><ele>455.4</ele><time>2026-04-11T05:54:29.999Z</time></trkpt><trkpt lat="43.405501844679954" lon="11.355464347253216"><ele>454.8</ele><time>2026-04-11T05:54:31.999Z</time></trkpt><trkpt lat="43.40556102185717" lon="11.3553907854142"><ele>454.19999999999993</ele><time>2026-04-11T05:54:33.999Z</time></trkpt><trkpt lat="43.405673439478534" lon="11.35539995632277"><ele>453.59999999999997</ele><time>2026-04-11T05:54:35.999Z</time></trkpt><trkpt lat="43.40577855764343" lon="11.35543203553715"><ele>453.0</ele><time>2026-04-11T05:54:37.999Z</time></trkpt><trkpt lat="43.40583864257463" lon="11.355485672393746"><ele>454.6666666666667</ele><time>2026-04-11T05:54:39.999Z</time></trkpt><trkpt lat="43.4059354770807" lon="11.355557523075332"><ele>456.33333333333337</ele><time>2026-04-11T05:54:43Z</time></trkpt><trkpt lat="43.40601076339274" lon="11.355611054285497"><ele>458.0</ele><time>2026-04-11T05:54:45Z</time></trkpt><trkpt lat="43.406074501161605" lon="11.355666159639389"><ele>459.6666666666667</ele><time>2026-04-11T05:54:47Z</time></trkpt><trkpt lat="43.40614070815136" lon="11.355749546698217"><ele>461.33333333333337</ele><time>2026-04-11T05:54:49Z</time></trkpt><trkpt lat="43.40621040895419" lon="11.355810785215224"><ele>463.0</ele><time>2026-04-11T05:54:51Z</time></trkpt><trkpt lat="43.406287469705575" lon="11.355894398795595"><ele>463.50000000000006</ele><time>2026-04-11T05:54:54Z</time></trkpt><trkpt lat="43.40635544592899" lon="11.355971762196871"><ele>464.0</ele><time>2026-04-11T05:54:57Z</time></trkpt><trkpt lat="43.40645392819717" lon="11.356044258370446"><ele>464.5</ele><time>2026-04-11T05:54:59Z</time></trkpt><trkpt lat="43.406541695293804" lon="11.356096020427058"><ele>465.0</ele><time>2026-04-11T05:55:01Z</time></trkpt><trkpt lat="43.40660133704554" lon="11.356065305325657"><ele>465.50000000000006</ele><time>2026-04-11T05:55:03Z</time></trkpt><trkpt lat="43.406658727042604" lon="11.356021598235102"><ele>466.0</ele><time>2026-04-11T05:55:04Z</time></trkpt><trkpt lat="43.40670321777113" lon="11.355878571271123"><ele>466.00000000000006</ele><time>2026-04-11T05:55:06Z</time></trkpt><trkpt lat="43.40670149527105" lon="11.355783081221452"><ele>466.0</ele><time>2026-04-11T05:55:08Z</time></trkpt><trkpt lat="43.40668260488211" lon="11.355661196594292"><ele>466.0</ele><time>2026-04-11T05:55:10Z</time></trkpt><trkpt lat="43.406640591989124" lon="11.355560303739898"><ele>466.0</ele><time>2026-04-11T05:55:12Z</time></trkpt><trkpt lat="43.40662839611454" lon="11.35544449229264"><ele>466.00000000000006</ele><time>2026-04-11T05:55:14Z</time></trkpt><trkpt lat="43.40660837450874" lon="11.355340076892109"><ele>466.0</ele><time>2026-04-11T05:55:16Z</time></trkpt><trkpt lat="43.40660153948174" lon="11.355224498356364"><ele>465.33333333333337</ele><time>2026-04-11T05:55:18Z</time></trkpt><trkpt lat="43.406591598672094" lon="11.355118760432166"><ele>464.6666666666667</ele><time>2026-04-11T05:55:20Z</time></trkpt><trkpt lat="43.406587812955244" lon="11.354996056466376"><ele>464.0</ele><time>2026-04-11T05:55:22Z</time></trkpt><trkpt lat="43.406598417054866" lon="11.354877389602105"><ele>463.33333333333337</ele><time>2026-04-11T05:55:24Z</time></trkpt><trkpt lat="43.40664882399502" lon="11.354774881713054"><ele>462.6666666666667</ele><time>2026-04-11T05:55:26Z</time></trkpt><trkpt lat="43.4067062756149" lon="11.35466968593373"><ele>462.0</ele><time>2026-04-11T05:55:28Z</time></trkpt><trkpt lat="43.406763662107174" lon="11.354605786526953"><ele>462.5</ele><time>2026-04-11T05:55:30Z</time></trkpt><trkpt lat="43.4068627677458" lon="11.354532984897132"><ele>463.0</ele><time>2026-04-11T05:55:33Z</time></trkpt><trkpt lat="43.40693797220365" lon="11.354479193464101"><ele>463.5</ele><time>2026-04-11T05:55:35Z</time></trkpt><trkpt lat="43.4069971385445" lon="11.354440541458121"><ele>464.0</ele><time>2026-04-11T05:55:37Z</time></trkpt><trkpt lat="43.407081485146726" lon="11.35441510366895"><ele>464.5</ele><time>2026-04-11T05:55:39Z</time></trkpt><trkpt lat="43.407148190433354" lon="11.354379057654326"><ele>465.0</ele><time>2026-04-11T05:55:41Z</time></trkpt><trkpt lat="43.407227093623014" lon="11.354387202570813"><ele>465.0</ele><time>2026-04-11T05:55:43Z</time></trkpt><trkpt lat="43.407304674478944" lon="11.354405824530962"><ele>465.0</ele><time>2026-04-11T05:55:46Z</time></trkpt><trkpt lat="43.40742249932375" lon="11.354459130932593"><ele>465.0</ele><time>2026-04-11T05:55:49.999Z</time></trkpt><trkpt lat="43.40749876207674" lon="11.35446741204058"><ele>465.0</ele><time>2026-04-11T05:55:51.999Z</time></trkpt><trkpt lat="43.4075618200428" lon="11.3544294504935"><ele>465.0</ele><time>2026-04-11T05:55:53.999Z</time></trkpt><trkpt lat="43.4076353696674" lon="11.35433216592878"><ele>465.0</ele><time>2026-04-11T05:55:56.999Z</time></trkpt><trkpt lat="43.40765038418357" lon="11.35421785811532"><ele>465.0</ele><time>2026-04-11T05:55:58.999Z</time></trkpt><trkpt lat="43.40767722175109" lon="11.354117294134973"><ele>465.0</ele><time>2026-04-11T05:56:00.999Z</time></trkpt><trkpt lat="43.40770347429256" lon="11.354013049638088"><ele>465.0</ele><time>2026-04-11T05:56:02.999Z</time></trkpt><trkpt lat="43.40774737865514" lon="11.353901503728741"><ele>465.0</ele><time>2026-04-11T05:56:04.999Z</time></trkpt><trkpt lat="43.407799781068725" lon="11.353831455797632"><ele>465.0</ele><time>2026-04-11T05:56:06.999Z</time></trkpt><trkpt lat="43.40788987681959" lon="11.353790620007553"><ele>464.1666666666667</ele><time>2026-04-11T05:56:08.999Z</time></trkpt><trkpt lat="43.40797851256545" lon="11.35376270708785"><ele>463.33333333333337</ele><time>2026-04-11T05:56:10.999Z</time></trkpt><trkpt lat="43.40806125560227" lon="11.353778450989038"><ele>462.5</ele><time>2026-04-11T05:56:12.999Z</time></trkpt><trkpt lat="43.4081445452803" lon="11.353824605877893"><ele>461.6666666666667</ele><time>2026-04-11T05:56:14.999Z</time></trkpt><trkpt lat="43.40820008201675" lon="11.353909692882869"><ele>460.83333333333337</ele><time>2026-04-11T05:56:16.999Z</time></trkpt><trkpt lat="43.40826431098918" lon="11.353963224295946"><ele>460.0</ele><time>2026-04-11T05:56:18.999Z</time></trkpt><trkpt lat="43.408321669120234" lon="11.354043515859855"><ele>462.00000000000006</ele><time>2026-04-11T05:56:20.999Z</time></trkpt><trkpt lat="43.40839351683695" lon="11.354102915708737"><ele>464.0</ele><time>2026-04-11T05:56:22.999Z</time></trkpt><trkpt lat="43.40845023414896" lon="11.354160522181099"><ele>466.0</ele><time>2026-04-11T05:56:24.999Z</time></trkpt><trkpt lat="43.40852494520569" lon="11.354189126324231"><ele>468.0</ele><time>2026-04-11T05:56:26.999Z</time></trkpt><trkpt lat="43.40861356632825" lon="11.354183277533732"><ele>470.00000000000006</ele><time>2026-04-11T05:56:29.999Z</time></trkpt><trkpt lat="43.40866907726056" lon="11.354126664221543"><ele>472.0</ele><time>2026-04-11T05:56:31.999Z</time></trkpt><trkpt lat="43.40872872005123" lon="11.35406350175333"><ele>472.00000000000006</ele><time>2026-04-11T05:56:33.999Z</time></trkpt><trkpt lat="43.40875370188788" lon="11.353968499145711"><ele>472.0</ele><time>2026-04-11T05:56:35.999Z</time></trkpt><trkpt lat="43.40876703211127" lon="11.353854516289099"><ele>472.0</ele><time>2026-04-11T05:56:37.999Z</time></trkpt><trkpt lat="43.408783264500734" lon="11.353762317105696"><ele>472.0</ele><time>2026-04-11T05:56:39.999Z</time></trkpt><trkpt lat="43.408779113900096" lon="11.353600644816684"><ele>472.00000000000006</ele><time>2026-04-11T05:56:42.999Z</time></trkpt><trkpt lat="43.408811165817404" lon="11.353507765171564"><ele>472.0</ele><time>2026-04-11T05:56:44.999Z</time></trkpt><trkpt lat="43.408845614099995" lon="11.35338503574901"><ele>471.33333333333337</ele><time>2026-04-11T05:56:46.999Z</time></trkpt><trkpt lat="43.40889746622124" lon="11.353314655545386"><ele>470.6666666666667</ele><time>2026-04-11T05:56:49Z</time></trkpt><trkpt lat="43.408991832710235" lon="11.353266119193192"><ele>470.0</ele><time>2026-04-11T05:56:51Z</time></trkpt><trkpt lat="43.409074084144656" lon="11.353236265655921"><ele>469.33333333333337</ele><time>2026-04-11T05:56:53Z</time></trkpt><trkpt lat="43.409157196278656" lon="11.353207217467386"><ele>468.6666666666667</ele><time>2026-04-11T05:56:55Z</time></trkpt><trkpt lat="43.40923496553366" lon="11.353205249155817"><ele>468.0</ele><time>2026-04-11T05:56:57Z</time></trkpt><trkpt lat="43.40932461244204" lon="11.353204226365"><ele>468.0</ele><time>2026-04-11T05:56:59Z</time></trkpt><trkpt lat="43.4093907624689" lon="11.353233141446788"><ele>468.0</ele><time>2026-04-11T05:57:01Z</time></trkpt><trkpt lat="43.409473123241746" lon="11.35327216916286"><ele>468.0</ele><time>2026-04-11T05:57:03Z</time></trkpt><trkpt lat="43.409535997901735" lon="11.353318329011621"><ele>468.0</ele><time>2026-04-11T05:57:05Z</time></trkpt><trkpt lat="43.409609359619516" lon="11.353369433111206"><ele>468.0</ele><time>2026-04-11T05:57:07Z</time></trkpt><trkpt lat="43.409696226936916" lon="11.353357064012906"><ele>468.0</ele><time>2026-04-11T05:57:09Z</time></trkpt><trkpt lat="43.409759587644835" lon="11.353316270058242"><ele>468.1666666666667</ele><time>2026-04-11T05:57:11Z</time></trkpt><trkpt lat="43.409833297140636" lon="11.353224935163285"><ele>468.33333333333337</ele><time>2026-04-11T05:57:13Z</time></trkpt><trkpt lat="43.40985274477284" lon="11.353139658870589"><ele>468.5</ele><time>2026-04-11T05:57:15Z</time></trkpt><trkpt lat="43.409863364211134" lon="11.353033773847907"><ele>468.6666666666667</ele><time>2026-04-11T05:57:17Z</time></trkpt><trkpt lat="43.409852945731934" lon="11.352904369174619"><ele>468.83333333333337</ele><time>2026-04-11T05:57:19Z</time></trkpt><trkpt lat="43.40989154735569" lon="11.352799054480798"><ele>469.0</ele><time>2026-04-11T05:57:21Z</time></trkpt><trkpt lat="43.40994947692793" lon="11.352725643094235"><ele>469.00000000000006</ele><time>2026-04-11T05:57:23Z</time></trkpt><trkpt lat="43.41001745661334" lon="11.352647435522666"><ele>469.0</ele><time>2026-04-11T05:57:25Z</time></trkpt><trkpt lat="43.41007453249617" lon="11.352546906263857"><ele>469.0</ele><time>2026-04-11T05:57:27Z</time></trkpt><trkpt lat="43.41014698692057" lon="11.352474912177971"><ele>469.0</ele><time>2026-04-11T05:57:29Z</time></trkpt><trkpt lat="43.41020774395368" lon="11.35240373668425"><ele>469.00000000000006</ele><time>2026-04-11T05:57:31Z</time></trkpt><trkpt lat="43.41026388193319" lon="11.352332467459462"><ele>469.0</ele><time>2026-04-11T05:57:33Z</time></trkpt><trkpt lat="43.41036934893788" lon="11.352318245258887"><ele>469.00000000000006</ele><time>2026-04-11T05:57:36Z</time></trkpt><trkpt lat="43.41044235573198" lon="11.352303560215775"><ele>469.0</ele><time>2026-04-11T05:57:38Z</time></trkpt><trkpt lat="43.41053392791036" lon="11.352274816395344"><ele>469.0</ele><time>2026-04-11T05:57:40Z</time></trkpt><trkpt lat="43.41061269625737" lon="11.352270481828166"><ele>469.0</ele><time>2026-04-11T05:57:42Z</time></trkpt><trkpt lat="43.41068225327818" lon="11.352251398884313"><ele>469.00000000000006</ele><time>2026-04-11T05:57:44Z</time></trkpt><trkpt lat="43.410754718327354" lon="11.352231489740015"><ele>469.0</ele><time>2026-04-11T05:57:46Z</time></trkpt><trkpt lat="43.41085908896122" lon="11.35220281491795"><ele>469.33333333333337</ele><time>2026-04-11T05:57:48Z</time></trkpt><trkpt lat="43.41095054406763" lon="11.352177688459953"><ele>469.6666666666667</ele><time>2026-04-11T05:57:50Z</time></trkpt><trkpt lat="43.411040694778386" lon="11.35215923373161"><ele>470.0</ele><time>2026-04-11T05:57:52Z</time></trkpt><trkpt lat="43.41110871499474" lon="11.352121435919706"><ele>470.33333333333337</ele><time>2026-04-11T05:57:54Z</time></trkpt><trkpt lat="43.41119878573429" lon="11.352145315085417"><ele>470.6666666666667</ele><time>2026-04-11T05:57:55.999Z</time></trkpt><trkpt lat="43.41127913180003" lon="11.352086922010384"><ele>471.0</ele><time>2026-04-11T05:57:57.999Z</time></trkpt><trkpt lat="43.41138991763707" lon="11.35207002589666"><ele>470.3333333333333</ele><time>2026-04-11T05:57:59.999Z</time></trkpt><trkpt lat="43.411486297264766" lon="11.35205651351463"><ele>469.66666666666663</ele><time>2026-04-11T05:58:01.999Z</time></trkpt><trkpt lat="43.41155933123501" lon="11.352016428395505"><ele>469.0</ele><time>2026-04-11T05:58:03.999Z</time></trkpt><trkpt lat="43.41164422179834" lon="11.351991302674191"><ele>468.3333333333333</ele><time>2026-04-11T05:58:05.999Z</time></trkpt><trkpt lat="43.411728318503535" lon="11.351959000820598"><ele>467.66666666666663</ele><time>2026-04-11T05:58:07.999Z</time></trkpt><trkpt lat="43.4118105186982" lon="11.351947545752273"><ele>467.0</ele><time>2026-04-11T05:58:09.999Z</time></trkpt><trkpt lat="43.41190113866767" lon="11.351917239617261"><ele>466.99999999999994</ele><time>2026-04-11T05:58:11.999Z</time></trkpt><trkpt lat="43.411990828261374" lon="11.351898877613946"><ele>467.0</ele><time>2026-04-11T05:58:13.999Z</time></trkpt><trkpt lat="43.412077094405305" lon="11.351881853284125"><ele>467.0</ele><time>2026-04-11T05:58:15.999Z</time></trkpt><trkpt lat="43.41215917135715" lon="11.351865448287727"><ele>467.0</ele><time>2026-04-11T05:58:17.999Z</time></trkpt><trkpt lat="43.41223574697349" lon="11.351852395728999"><ele>466.99999999999994</ele><time>2026-04-11T05:58:19.999Z</time></trkpt><trkpt lat="43.41230489670394" lon="11.351835518098152"><ele>467.0</ele><time>2026-04-11T05:58:21.999Z</time></trkpt><trkpt lat="43.412369382135125" lon="11.351820845153135"><ele>467.8333333333333</ele><time>2026-04-11T05:58:23.999Z</time></trkpt><trkpt lat="43.41246268641556" lon="11.351793316954373"><ele>468.66666666666663</ele><time>2026-04-11T05:58:26.999Z</time></trkpt><trkpt lat="43.412550862441606" lon="11.351769518272386"><ele>469.5</ele><time>2026-04-11T05:58:29.999Z</time></trkpt><trkpt lat="43.41263181639426" lon="11.351755028993864"><ele>470.33333333333337</ele><time>2026-04-11T05:58:32.999Z</time></trkpt><trkpt lat="43.4127097041592" lon="11.35173457151513"><ele>471.1666666666667</ele><time>2026-04-11T05:58:35.999Z</time></trkpt><trkpt lat="43.41278279327096" lon="11.351697062928125"><ele>472.0</ele><time>2026-04-11T05:58:38.999Z</time></trkpt><trkpt lat="43.41285732655539" lon="11.351654943332358"><ele>472.00000000000006</ele><time>2026-04-11T05:58:41.999Z</time></trkpt><trkpt lat="43.412930391874205" lon="11.351586842647658"><ele>472.0</ele><time>2026-04-11T05:58:44.999Z</time></trkpt><trkpt lat="43.41298970998238" lon="11.35151974641957"><ele>472.0</ele><time>2026-04-11T05:58:47.999Z</time></trkpt><trkpt lat="43.413046008227745" lon="11.351441076980604"><ele>472.0</ele><time>2026-04-11T05:58:50.999Z</time></trkpt><trkpt lat="43.413101185503216" lon="11.351366155112062"><ele>472.00000000000006</ele><time>2026-04-11T05:58:54Z</time></trkpt><trkpt lat="43.41315991521062" lon="11.35128389716728"><ele>472.0</ele><time>2026-04-11T05:58:57Z</time></trkpt><trkpt lat="43.41322342216646" lon="11.351194548440512"><ele>473.33333333333337</ele><time>2026-04-11T05:59:00Z</time></trkpt><trkpt lat="43.41329258963065" lon="11.351113877629349"><ele>474.6666666666667</ele><time>2026-04-11T05:59:03Z</time></trkpt><trkpt lat="43.41335800240314" lon="11.35102435183437"><ele>476.0</ele><time>2026-04-11T05:59:06Z</time></trkpt><trkpt lat="43.413412291941825" lon="11.350938504423137"><ele>477.33333333333337</ele><time>2026-04-11T05:59:09Z</time></trkpt><trkpt lat="43.413471405594485" lon="11.350857056226362"><ele>478.6666666666667</ele><time>2026-04-11T05:59:12Z</time></trkpt><trkpt lat="43.41352717268414" lon="11.350783702223415"><ele>480.0</ele><time>2026-04-11T05:59:15Z</time></trkpt><trkpt lat="43.41358581534534" lon="11.350707503617318"><ele>480.0</ele><time>2026-04-11T05:59:18Z</time></trkpt><trkpt lat="43.413633102172994" lon="11.350625260114123"><ele>480.0</ele><time>2026-04-11T05:59:21Z</time></trkpt><trkpt lat="43.413682141590485" lon="11.350557828459092"><ele>480.0</ele><time>2026-04-11T05:59:24Z</time></trkpt><trkpt lat="43.41373461260439" lon="11.350463137340585"><ele>480.0</ele><time>2026-04-11T05:59:27Z</time></trkpt><trkpt lat="43.41379002826599" lon="11.350404877688787"><ele>480.0</ele><time>2026-04-11T05:59:30Z</time></trkpt><trkpt lat="43.41386031585573" lon="11.350332985387674"><ele>480.0</ele><time>2026-04-11T05:59:33Z</time></trkpt><trkpt lat="43.413929172842074" lon="11.350310257172941"><ele>482.0</ele><time>2026-04-11T05:59:36Z</time></trkpt><trkpt lat="43.41399889133849" lon="11.350316475540446"><ele>484.0</ele><time>2026-04-11T05:59:39Z</time></trkpt><trkpt lat="43.414064790112015" lon="11.35033400983295"><ele>486.0</ele><time>2026-04-11T05:59:41Z</time></trkpt><trkpt lat="43.41412705532123" lon="11.350352230231067"><ele>488.0</ele><time>2026-04-11T05:59:44Z</time></trkpt><trkpt lat="43.41419779907471" lon="11.350365497430818"><ele>490.0</ele><time>2026-04-11T05:59:46Z</time></trkpt><trkpt lat="43.41426470513491" lon="11.350405128867349"><ele>492.0</ele><time>2026-04-11T05:59:49Z</time></trkpt><trkpt lat="43.41433964354325" lon="11.350441685387999"><ele>494.0</ele><time>2026-04-11T05:59:52Z</time></trkpt><trkpt lat="43.41441624943173" lon="11.350436132889836"><ele>493.99999999999994</ele><time>2026-04-11T05:59:55Z</time></trkpt><trkpt lat="43.4144945500429" lon="11.350443300875035"><ele>494.0</ele><time>2026-04-11T05:59:58Z</time></trkpt><trkpt lat="43.41455763590254" lon="11.350389199535185"><ele>494.0</ele><time>2026-04-11T06:00:00.999Z</time></trkpt><trkpt lat="43.41461196192375" lon="11.350309408409515"><ele>494.0</ele><time>2026-04-11T06:00:03.999Z</time></trkpt><trkpt lat="43.41463523606137" lon="11.350208547675722"><ele>493.99999999999994</ele><time>2026-04-11T06:00:06.999Z</time></trkpt><trkpt lat="43.41464353320051" lon="11.350101087255208"><ele>494.0</ele><time>2026-04-11T06:00:09.999Z</time></trkpt><trkpt lat="43.41464844541999" lon="11.349989418785315"><ele>494.0</ele><time>2026-04-11T06:00:12.999Z</time></trkpt><trkpt lat="43.414649408753036" lon="11.349861957340286"><ele>494.0</ele><time>2026-04-11T06:00:15.999Z</time></trkpt><trkpt lat="43.41464863971092" lon="11.34976330573248"><ele>494.0</ele><time>2026-04-11T06:00:17.999Z</time></trkpt><trkpt lat="43.41465523295246" lon="11.34967515731069"><ele>494.0</ele><time>2026-04-11T06:00:19.999Z</time></trkpt><trkpt lat="43.41466023482581" lon="11.349584280145091"><ele>494.0</ele><time>2026-04-11T06:00:21.999Z</time></trkpt><trkpt lat="43.414656662380445" lon="11.349493653278483"><ele>494.0</ele><time>2026-04-11T06:00:23.999Z</time></trkpt><trkpt lat="43.4146590504085" lon="11.349398810167388"><ele>494.0</ele><time>2026-04-11T06:00:25.999Z</time></trkpt><trkpt lat="43.414680432258585" lon="11.349313710627221"><ele>493.49999999999994</ele><time>2026-04-11T06:00:27.999Z</time></trkpt><trkpt lat="43.4147161541958" lon="11.34924030642981"><ele>493.0</ele><time>2026-04-11T06:00:29.999Z</time></trkpt><trkpt lat="43.414760381055174" lon="11.34917436095646"><ele>492.5</ele><time>2026-04-11T06:00:31.999Z</time></trkpt><trkpt lat="43.41482420517751" lon="11.349095944807178"><ele>492.0</ele><time>2026-04-11T06:00:34.999Z</time></trkpt><trkpt lat="43.41489532848414" lon="11.349022048842363"><ele>491.49999999999994</ele><time>2026-04-11T06:00:37.999Z</time></trkpt><trkpt lat="43.41497237719586" lon="11.348969339874296"><ele>491.0</ele><time>2026-04-11T06:00:40.999Z</time></trkpt><trkpt lat="43.41502703167429" lon="11.348917537430728"><ele>490.85714285714283</ele><time>2026-04-11T06:00:42.999Z</time></trkpt><trkpt lat="43.41508105836407" lon="11.34886866932073"><ele>490.71428571428567</ele><time>2026-04-11T06:00:44.999Z</time></trkpt><trkpt lat="43.41514276450622" lon="11.348827810458502"><ele>490.57142857142856</ele><time>2026-04-11T06:00:46.999Z</time></trkpt><trkpt lat="43.41521664182965" lon="11.348807997690242"><ele>490.42857142857144</ele><time>2026-04-11T06:00:48.999Z</time></trkpt><trkpt lat="43.415282209116974" lon="11.348816194746178"><ele>490.2857142857143</ele><time>2026-04-11T06:00:50.999Z</time></trkpt><trkpt lat="43.41536852721706" lon="11.348816737529521"><ele>490.1428571428571</ele><time>2026-04-11T06:00:53.999Z</time></trkpt><trkpt lat="43.41543068493214" lon="11.348845096691289"><ele>490.0</ele><time>2026-04-11T06:00:55.999Z</time></trkpt><trkpt lat="43.415519794676726" lon="11.348886250008313"><ele>490.00000000000006</ele><time>2026-04-11T06:00:58.999Z</time></trkpt><trkpt lat="43.41559513602621" lon="11.348911435033497"><ele>490.0</ele><time>2026-04-11T06:01:02Z</time></trkpt><trkpt lat="43.415680975715944" lon="11.348942464321574"><ele>490.0</ele><time>2026-04-11T06:01:05Z</time></trkpt><trkpt lat="43.415757734678245" lon="11.348956959884228"><ele>490.0</ele><time>2026-04-11T06:01:08Z</time></trkpt><trkpt lat="43.41584421600045" lon="11.348933254739716"><ele>490.00000000000006</ele><time>2026-04-11T06:01:11Z</time></trkpt><trkpt lat="43.41593207963397" lon="11.348909079574645"><ele>490.0</ele><time>2026-04-11T06:01:14Z</time></trkpt><trkpt lat="43.41601545739572" lon="11.348881828094363"><ele>492.1666666666667</ele><time>2026-04-11T06:01:17Z</time></trkpt><trkpt lat="43.41609349480606" lon="11.348857224862122"><ele>494.33333333333337</ele><time>2026-04-11T06:01:19Z</time></trkpt><trkpt lat="43.41615681682969" lon="11.348842454013608"><ele>496.5</ele><time>2026-04-11T06:01:21Z</time></trkpt><trkpt lat="43.41624262314059" lon="11.348837359073435"><ele>498.66666666666663</ele><time>2026-04-11T06:01:24Z</time></trkpt><trkpt lat="43.41631621185669" lon="11.348811615399677"><ele>500.8333333333333</ele><time>2026-04-11T06:01:27Z</time></trkpt><trkpt lat="43.41638061072648" lon="11.348799042860712"><ele>503.0</ele><time>2026-04-11T06:01:30Z</time></trkpt><trkpt lat="43.41646359637853" lon="11.348793602179999"><ele>503.28571428571433</ele><time>2026-04-11T06:01:33Z</time></trkpt><trkpt lat="43.41653627030104" lon="11.34878284150068"><ele>503.5714285714286</ele><time>2026-04-11T06:01:36Z</time></trkpt><trkpt lat="43.416609296771725" lon="11.348778468852869"><ele>503.8571428571429</ele><time>2026-04-11T06:01:39Z</time></trkpt><trkpt lat="43.416680838971" lon="11.348778947303416"><ele>504.1428571428571</ele><time>2026-04-11T06:01:42Z</time></trkpt><trkpt lat="43.416747910814216" lon="11.34875280250866"><ele>504.4285714285714</ele><time>2026-04-11T06:01:45Z</time></trkpt><trkpt lat="43.41681928861121" lon="11.348747748750364"><ele>504.71428571428567</ele><time>2026-04-11T06:01:48Z</time></trkpt><trkpt lat="43.416907353556425" lon="11.34874559835955"><ele>505.0</ele><time>2026-04-11T06:01:52Z</time></trkpt><trkpt lat="43.41698008929015" lon="11.348711995709802"><ele>505.00000000000006</ele><time>2026-04-11T06:01:55Z</time></trkpt><trkpt lat="43.417054194719675" lon="11.348664251077402"><ele>505.0</ele><time>2026-04-11T06:01:58Z</time></trkpt><trkpt lat="43.417129565932896" lon="11.348603909328313"><ele>505.0</ele><time>2026-04-11T06:02:01Z</time></trkpt><trkpt lat="43.41717271882667" lon="11.348536029400563"><ele>505.0</ele><time>2026-04-11T06:02:03Z</time></trkpt><trkpt lat="43.41723367117101" lon="11.348439734226787"><ele>505.00000000000006</ele><time>2026-04-11T06:02:06Z</time></trkpt><trkpt lat="43.417239211461215" lon="11.348348138673561"><ele>505.0</ele><time>2026-04-11T06:02:08Z</time></trkpt><trkpt lat="43.41722675800411" lon="11.348253958156787"><ele>506.00000000000006</ele><time>2026-04-11T06:02:10Z</time></trkpt><trkpt lat="43.41721039916309" lon="11.348152247325427"><ele>507.0</ele><time>2026-04-11T06:02:12Z</time></trkpt><trkpt lat="43.417185824726104" lon="11.348056009004184"><ele>508.0</ele><time>2026-04-11T06:02:13.999Z</time></trkpt><trkpt lat="43.417164607964935" lon="11.347946817745585"><ele>509.0</ele><time>2026-04-11T06:02:15.999Z</time></trkpt><trkpt lat="43.41714541439238" lon="11.347836565752557"><ele>510.00000000000006</ele><time>2026-04-11T06:02:17.999Z</time></trkpt><trkpt lat="43.41714178056841" lon="11.347711500509345"><ele>511.0</ele><time>2026-04-11T06:02:19.999Z</time></trkpt><trkpt lat="43.41713973649949" lon="11.347579533368528"><ele>511.0</ele><time>2026-04-11T06:02:21.999Z</time></trkpt><trkpt lat="43.4171616691648" lon="11.34743118380376"><ele>511.0</ele><time>2026-04-11T06:02:23.999Z</time></trkpt><trkpt lat="43.41722103854088" lon="11.347326740873232"><ele>511.0</ele><time>2026-04-11T06:02:25.999Z</time></trkpt><trkpt lat="43.41729616591123" lon="11.347230603644237"><ele>511.0</ele><time>2026-04-11T06:02:27.999Z</time></trkpt><trkpt lat="43.417371582764154" lon="11.347153080946441"><ele>511.0</ele><time>2026-04-11T06:02:29.999Z</time></trkpt><trkpt lat="43.41744650228563" lon="11.34707458019623"><ele>511.0</ele><time>2026-04-11T06:02:31.999Z</time></trkpt><trkpt lat="43.41752405571741" lon="11.34699741553109"><ele>511.0</ele><time>2026-04-11T06:02:33.999Z</time></trkpt><trkpt lat="43.417604802498644" lon="11.34691550243581"><ele>511.0</ele><time>2026-04-11T06:02:35.999Z</time></trkpt><trkpt lat="43.41768945168346" lon="11.346839904525742"><ele>511.0</ele><time>2026-04-11T06:02:37.999Z</time></trkpt><trkpt lat="43.41778302722413" lon="11.346785928369167"><ele>511.0</ele><time>2026-04-11T06:02:39.999Z</time></trkpt><trkpt lat="43.41787067325136" lon="11.346724676062843"><ele>511.0</ele><time>2026-04-11T06:02:41.999Z</time></trkpt><trkpt lat="43.417960024410704" lon="11.34667071144977"><ele>511.0</ele><time>2026-04-11T06:02:43.999Z</time></trkpt><trkpt lat="43.41805382048906" lon="11.346625000661186"><ele>511.0</ele><time>2026-04-11T06:02:45.999Z</time></trkpt><trkpt lat="43.41814850803097" lon="11.346586485670578"><ele>511.0</ele><time>2026-04-11T06:02:47.999Z</time></trkpt><trkpt lat="43.41825071569468" lon="11.346550286997452"><ele>511.0</ele><time>2026-04-11T06:02:49.999Z</time></trkpt><trkpt lat="43.41834960766647" lon="11.346521363805206"><ele>509.0</ele><time>2026-04-11T06:02:51.999Z</time></trkpt><trkpt lat="43.41844578543049" lon="11.346474635292305"><ele>507.0</ele><time>2026-04-11T06:02:53.999Z</time></trkpt><trkpt lat="43.4185520733107" lon="11.34645987210645"><ele>505.0</ele><time>2026-04-11T06:02:55.999Z</time></trkpt><trkpt lat="43.4186630526635" lon="11.346444959725446"><ele>503.0</ele><time>2026-04-11T06:02:57.999Z</time></trkpt><trkpt lat="43.418784206183176" lon="11.346448611229068"><ele>501.0</ele><time>2026-04-11T06:02:59.999Z</time></trkpt><trkpt lat="43.418840934123075" lon="11.34649028740796"><ele>501.0</ele><time>2026-04-11T06:03:00.999Z</time></trkpt><trkpt lat="43.41893646171308" lon="11.346531705047052"><ele>501.0</ele><time>2026-04-11T06:03:02.999Z</time></trkpt><trkpt lat="43.419015626506976" lon="11.346635848562245"><ele>501.0</ele><time>2026-04-11T06:03:04.999Z</time></trkpt><trkpt lat="43.41910392710905" lon="11.346717058070169"><ele>501.0</ele><time>2026-04-11T06:03:07Z</time></trkpt><trkpt lat="43.41919483810664" lon="11.346782497301488"><ele>501.0</ele><time>2026-04-11T06:03:09Z</time></trkpt><trkpt lat="43.419284148465245" lon="11.346859308394638"><ele>501.0</ele><time>2026-04-11T06:03:11Z</time></trkpt><trkpt lat="43.419373232893925" lon="11.346930560331787"><ele>501.0</ele><time>2026-04-11T06:03:13Z</time></trkpt><trkpt lat="43.41947939009863" lon="11.346963687570955"><ele>501.0</ele><time>2026-04-11T06:03:15Z</time></trkpt><trkpt lat="43.41957885035016" lon="11.346990663219636"><ele>501.0</ele><time>2026-04-11T06:03:17Z</time></trkpt><trkpt lat="43.419691650911524" lon="11.346996355522005"><ele>501.0</ele><time>2026-04-11T06:03:19Z</time></trkpt><trkpt lat="43.41980268861418" lon="11.346975569492233"><ele>502.20000000000005</ele><time>2026-04-11T06:03:21Z</time></trkpt><trkpt lat="43.4199090273091" lon="11.346961685743508"><ele>503.40000000000003</ele><time>2026-04-11T06:03:23Z</time></trkpt><trkpt lat="43.4200231040796" lon="11.346982274155152"><ele>504.6</ele><time>2026-04-11T06:03:25Z</time></trkpt><trkpt lat="43.420130808579664" lon="11.34701759121886"><ele>505.8</ele><time>2026-04-11T06:03:27Z</time></trkpt><trkpt lat="43.42023244522281" lon="11.347077838508685"><ele>507.0</ele><time>2026-04-11T06:03:29Z</time></trkpt><trkpt lat="43.420328252375754" lon="11.34714213923562"><ele>507.0</ele><time>2026-04-11T06:03:31Z</time></trkpt><trkpt lat="43.42041870404684" lon="11.347206558153248"><ele>507.00000000000006</ele><time>2026-04-11T06:03:33Z</time></trkpt><trkpt lat="43.42051077970542" lon="11.347279685223155"><ele>507.00000000000006</ele><time>2026-04-11T06:03:35Z</time></trkpt><trkpt lat="43.420610071943216" lon="11.347270356974246"><ele>507.0</ele><time>2026-04-11T06:03:37Z</time></trkpt><trkpt lat="43.42071555920485" lon="11.347265106055875"><ele>507.0</ele><time>2026-04-11T06:03:39Z</time></trkpt><trkpt lat="43.42082596864279" lon="11.347283767250714"><ele>505.8</ele><time>2026-04-11T06:03:41Z</time></trkpt><trkpt lat="43.42092815682609" lon="11.347278460456515"><ele>504.6</ele><time>2026-04-11T06:03:43Z</time></trkpt><trkpt lat="43.42102716335613" lon="11.347307396834891"><ele>503.40000000000003</ele><time>2026-04-11T06:03:45Z</time></trkpt><trkpt lat="43.42112239627921" lon="11.347336227281625"><ele>502.20000000000005</ele><time>2026-04-11T06:03:47Z</time></trkpt><trkpt lat="43.42121425764612" lon="11.347371557012044"><ele>501.0</ele><time>2026-04-11T06:03:49Z</time></trkpt><trkpt lat="43.42128430905981" lon="11.347440643856928"><ele>501.0</ele><time>2026-04-11T06:03:51Z</time></trkpt><trkpt lat="43.42134855518951" lon="11.347514256750346"><ele>501.0</ele><time>2026-04-11T06:03:53Z</time></trkpt><trkpt lat="43.42137245935034" lon="11.347595613658525"><ele>501.0</ele><time>2026-04-11T06:03:55Z</time></trkpt><trkpt lat="43.42141103121052" lon="11.347682368934317"><ele>501.0</ele><time>2026-04-11T06:03:58Z</time></trkpt><trkpt lat="43.421384341707004" lon="11.34778964666749"><ele>501.0</ele><time>2026-04-11T06:04:30.999Z</time></trkpt><trkpt lat="43.421426638971845" lon="11.34787956126603"><ele>501.0</ele><time>2026-04-11T06:04:32.999Z</time></trkpt><trkpt lat="43.42142595305406" lon="11.348001316645197"><ele>501.6</ele><time>2026-04-11T06:04:34.999Z</time></trkpt><trkpt lat="43.42142065504758" lon="11.34814849342431"><ele>502.20000000000005</ele><time>2026-04-11T06:04:36.999Z</time></trkpt><trkpt lat="43.421403281599254" lon="11.348314872911567"><ele>502.79999999999995</ele><time>2026-04-11T06:04:38.999Z</time></trkpt><trkpt lat="43.421388440946274" lon="11.34840303324325"><ele>503.4</ele><time>2026-04-11T06:04:39.999Z</time></trkpt><trkpt lat="43.421367858423544" lon="11.348498599619596"><ele>504.0</ele><time>2026-04-11T06:04:40.999Z</time></trkpt><trkpt lat="43.42131820203713" lon="11.348591342507602"><ele>501.5</ele><time>2026-04-11T06:04:41.999Z</time></trkpt><trkpt lat="43.421307197712174" lon="11.34869941223824"><ele>499.0</ele><time>2026-04-11T06:04:42.999Z</time></trkpt><trkpt lat="43.42129878410435" lon="11.348811392953785"><ele>496.5</ele><time>2026-04-11T06:04:43.999Z</time></trkpt><trkpt lat="43.42129445558815" lon="11.34892327645489"><ele>494.0</ele><time>2026-04-11T06:04:44.999Z</time></trkpt><trkpt lat="43.42129481669443" lon="11.349028223527174"><ele>491.5</ele><time>2026-04-11T06:04:45.999Z</time></trkpt><trkpt lat="43.421296786024506" lon="11.349126529079255"><ele>489.0</ele><time>2026-04-11T06:04:46.999Z</time></trkpt><trkpt lat="43.421302685837176" lon="11.349242680794871"><ele>487.8333333333333</ele><time>2026-04-11T06:04:47.999Z</time></trkpt><trkpt lat="43.42131305660753" lon="11.34934105711134"><ele>486.66666666666663</ele><time>2026-04-11T06:04:48.999Z</time></trkpt><trkpt lat="43.421329072043086" lon="11.349432095974441"><ele>485.5</ele><time>2026-04-11T06:04:49.999Z</time></trkpt><trkpt lat="43.42137263469598" lon="11.349520311840784"><ele>484.3333333333333</ele><time>2026-04-11T06:04:50.999Z</time></trkpt><trkpt lat="43.42145238140775" lon="11.349577191289944"><ele>483.16666666666663</ele><time>2026-04-11T06:04:51.999Z</time></trkpt><trkpt lat="43.42152535097821" lon="11.349607015081578"><ele>482.0</ele><time>2026-04-11T06:04:52.999Z</time></trkpt><trkpt lat="43.42160809755721" lon="11.349590542421652"><ele>485.20000000000005</ele><time>2026-04-11T06:04:53.999Z</time></trkpt><trkpt lat="43.42168318894039" lon="11.349555498468082"><ele>488.40000000000003</ele><time>2026-04-11T06:04:54.999Z</time></trkpt><trkpt lat="43.42176096184624" lon="11.349525058978863"><ele>491.59999999999997</ele><time>2026-04-11T06:04:55.999Z</time></trkpt><trkpt lat="43.42184613764535" lon="11.349526006135164"><ele>494.79999999999995</ele><time>2026-04-11T06:04:56.999Z</time></trkpt><trkpt lat="43.42192752208578" lon="11.349575588509156"><ele>498.0</ele><time>2026-04-11T06:04:57.999Z</time></trkpt><trkpt lat="43.42204437728898" lon="11.349674375287396"><ele>495.6666666666667</ele><time>2026-04-11T06:04:59.999Z</time></trkpt><trkpt lat="43.422095869570846" lon="11.349735630238007"><ele>493.33333333333337</ele><time>2026-04-11T06:05:00.999Z</time></trkpt><trkpt lat="43.4221526300865" lon="11.349809286864758"><ele>491.0</ele><time>2026-04-11T06:05:01.999Z</time></trkpt><trkpt lat="43.42220838564036" lon="11.349874745772677"><ele>488.6666666666667</ele><time>2026-04-11T06:05:02.999Z</time></trkpt><trkpt lat="43.42230929016708" lon="11.349953873672403"><ele>486.33333333333337</ele><time>2026-04-11T06:05:04.999Z</time></trkpt><trkpt lat="43.422386189036885" lon="11.349999851153417"><ele>484.0</ele><time>2026-04-11T06:05:05.999Z</time></trkpt><trkpt lat="43.42246735027588" lon="11.350037983289374"><ele>484.0</ele><time>2026-04-11T06:05:06.999Z</time></trkpt><trkpt lat="43.4225472226086" lon="11.350098119648898"><ele>484.0</ele><time>2026-04-11T06:05:07.999Z</time></trkpt><trkpt lat="43.422619554212574" lon="11.350140904791063"><ele>484.0</ele><time>2026-04-11T06:05:08.999Z</time></trkpt><trkpt lat="43.422707056507505" lon="11.350237206355436"><ele>484.0</ele><time>2026-04-11T06:05:10.999Z</time></trkpt><trkpt lat="43.42276452146094" lon="11.350342825905079"><ele>484.0</ele><time>2026-04-11T06:05:13Z</time></trkpt><trkpt lat="43.4227986180741" lon="11.350455678821636"><ele>482.6666666666667</ele><time>2026-04-11T06:05:15Z</time></trkpt><trkpt lat="43.42281701139713" lon="11.350543976819619"><ele>481.33333333333337</ele><time>2026-04-11T06:05:17Z</time></trkpt><trkpt lat="43.42285677421867" lon="11.350639503256305"><ele>480.0</ele><time>2026-04-11T06:05:19Z</time></trkpt><trkpt lat="43.42293825139512" lon="11.35072266994432"><ele>478.66666666666663</ele><time>2026-04-11T06:05:21Z</time></trkpt><trkpt lat="43.42302271448205" lon="11.350659515701233"><ele>477.3333333333333</ele><time>2026-04-11T06:05:22Z</time></trkpt><trkpt lat="43.42309169534709" lon="11.350590109947705"><ele>476.0</ele><time>2026-04-11T06:05:23Z</time></trkpt><trkpt lat="43.42314331864757" lon="11.350528190285338"><ele>476.0</ele><time>2026-04-11T06:05:25Z</time></trkpt><trkpt lat="43.423207377773" lon="11.350440603124682"><ele>476.0</ele><time>2026-04-11T06:05:27Z</time></trkpt><trkpt lat="43.42326884433765" lon="11.350387385461316"><ele>476.0</ele><time>2026-04-11T06:05:29Z</time></trkpt><trkpt lat="43.42338478327476" lon="11.350327106800304"><ele>476.0</ele><time>2026-04-11T06:05:31Z</time></trkpt><trkpt lat="43.42349161852763" lon="11.35028170291911"><ele>476.0</ele><time>2026-04-11T06:05:33Z</time></trkpt><trkpt lat="43.423554882233276" lon="11.350256511337035"><ele>476.0</ele><time>2026-04-11T06:05:34Z</time></trkpt><trkpt lat="43.423653362238966" lon="11.350219901029202"><ele>476.0</ele><time>2026-04-11T06:05:36Z</time></trkpt><trkpt lat="43.423763545491774" lon="11.35020185740914"><ele>476.0</ele><time>2026-04-11T06:05:38Z</time></trkpt><trkpt lat="43.42385505086597" lon="11.350218602587763"><ele>476.0</ele><time>2026-04-11T06:05:40Z</time></trkpt><trkpt lat="43.423942670327676" lon="11.35030205928144"><ele>476.0</ele><time>2026-04-11T06:05:42Z</time></trkpt><trkpt lat="43.42396374525356" lon="11.350401494309807"><ele>472.16666666666663</ele><time>2026-04-11T06:05:44Z</time></trkpt><trkpt lat="43.42397449587136" lon="11.350562964886068"><ele>468.3333333333333</ele><time>2026-04-11T06:05:46Z</time></trkpt><trkpt lat="43.42397183542954" lon="11.350657177784026"><ele>464.5</ele><time>2026-04-11T06:05:47Z</time></trkpt><trkpt lat="43.4239680908979" lon="11.350758557456583"><ele>460.66666666666663</ele><time>2026-04-11T06:05:48Z</time></trkpt><trkpt lat="43.42396454251043" lon="11.350854626716176"><ele>456.8333333333333</ele><time>2026-04-11T06:05:49Z</time></trkpt><trkpt lat="43.423959995356235" lon="11.35095183871297"><ele>453.0</ele><time>2026-04-11T06:05:50Z</time></trkpt><trkpt lat="43.42394979277259" lon="11.351055274786816"><ele>453.0</ele><time>2026-04-11T06:05:51Z</time></trkpt><trkpt lat="43.42393558451595" lon="11.351157163717906"><ele>452.99999999999994</ele><time>2026-04-11T06:05:52Z</time></trkpt><trkpt lat="43.423900473828034" lon="11.351338806074644"><ele>452.99999999999994</ele><time>2026-04-11T06:05:54Z</time></trkpt><trkpt lat="43.42389460902268" lon="11.351437022811329"><ele>453.0</ele><time>2026-04-11T06:05:55Z</time></trkpt><trkpt lat="43.42385366596181" lon="11.351524106442008"><ele>453.0</ele><time>2026-04-11T06:05:56Z</time></trkpt><trkpt lat="43.423811893320305" lon="11.351696068529499"><ele>452.2857142857142</ele><time>2026-04-11T06:05:58Z</time></trkpt><trkpt lat="43.42377139942639" lon="11.35178972105308"><ele>451.57142857142856</ele><time>2026-04-11T06:05:59Z</time></trkpt><trkpt lat="43.42373849316554" lon="11.351886089949216"><ele>450.85714285714283</ele><time>2026-04-11T06:06:00Z</time></trkpt><trkpt lat="43.42371298621886" lon="11.351978532355643"><ele>450.1428571428571</ele><time>2026-04-11T06:06:01Z</time></trkpt><trkpt lat="43.42369103772212" lon="11.352079137569444"><ele>449.42857142857144</ele><time>2026-04-11T06:06:02Z</time></trkpt><trkpt lat="43.423672278098856" lon="11.352172137658677"><ele>448.7142857142857</ele><time>2026-04-11T06:06:03Z</time></trkpt><trkpt lat="43.423665841644784" lon="11.352260421579919"><ele>448.0</ele><time>2026-04-11T06:06:04Z</time></trkpt><trkpt lat="43.423670599117344" lon="11.352360669526762"><ele>447.1666666666667</ele><time>2026-04-11T06:06:05Z</time></trkpt><trkpt lat="43.423672126140964" lon="11.352469792229437"><ele>446.33333333333337</ele><time>2026-04-11T06:06:06Z</time></trkpt><trkpt lat="43.42368099161767" lon="11.352644100420694"><ele>445.5</ele><time>2026-04-11T06:06:08Z</time></trkpt><trkpt lat="43.423704144432115" lon="11.352740527879947"><ele>444.66666666666663</ele><time>2026-04-11T06:06:09Z</time></trkpt><trkpt lat="43.42370186577165" lon="11.35284639977037"><ele>443.8333333333333</ele><time>2026-04-11T06:06:10Z</time></trkpt><trkpt lat="43.42372790248297" lon="11.352953891088593"><ele>443.0</ele><time>2026-04-11T06:06:11Z</time></trkpt><trkpt lat="43.42373888178935" lon="11.353077740298971"><ele>441.3333333333333</ele><time>2026-04-11T06:06:12Z</time></trkpt><trkpt lat="43.42375147962171" lon="11.353204510380364"><ele>439.66666666666663</ele><time>2026-04-11T06:06:13Z</time></trkpt><trkpt lat="43.4237698527437" lon="11.353300811684813"><ele>438.0</ele><time>2026-04-11T06:06:14Z</time></trkpt><trkpt lat="43.42378445441831" lon="11.353394381795972"><ele>436.33333333333337</ele><time>2026-04-11T06:06:15Z</time></trkpt><trkpt lat="43.423803736677655" lon="11.353510468689473"><ele>434.6666666666667</ele><time>2026-04-11T06:06:16Z</time></trkpt><trkpt lat="43.42380667911811" lon="11.353616369911277"><ele>433.0</ele><time>2026-04-11T06:06:17Z</time></trkpt><trkpt lat="43.4238062836484" lon="11.353718518965893"><ele>433.0</ele><time>2026-04-11T06:06:18Z</time></trkpt><trkpt lat="43.42381134070698" lon="11.353822253994206"><ele>432.99999999999994</ele><time>2026-04-11T06:06:19Z</time></trkpt><trkpt lat="43.42382010835148" lon="11.353930257144548"><ele>432.99999999999994</ele><time>2026-04-11T06:06:20Z</time></trkpt><trkpt lat="43.42385140101308" lon="11.354059112914175"><ele>433.0</ele><time>2026-04-11T06:06:23Z</time></trkpt><trkpt lat="43.4238888111442" lon="11.354180597463111"><ele>433.0</ele><time>2026-04-11T06:06:24.999Z</time></trkpt><trkpt lat="43.423934571760824" lon="11.354312245953004"><ele>433.4</ele><time>2026-04-11T06:06:26.999Z</time></trkpt><trkpt lat="43.423966830096404" lon="11.354404336961947"><ele>433.79999999999995</ele><time>2026-04-11T06:06:28.999Z</time></trkpt><trkpt lat="43.42404994082597" lon="11.35453527080438"><ele>434.2</ele><time>2026-04-11T06:06:30.999Z</time></trkpt><trkpt lat="43.424093404598544" lon="11.354622697079506"><ele>434.6</ele><time>2026-04-11T06:06:31.999Z</time></trkpt><trkpt lat="43.42417543628591" lon="11.354729085983916"><ele>435.0</ele><time>2026-04-11T06:06:34.999Z</time></trkpt><trkpt lat="43.42424025297703" lon="11.354779938912415"><ele>433.1666666666667</ele><time>2026-04-11T06:06:35.999Z</time></trkpt><trkpt lat="43.42432504838634" lon="11.354808659483963"><ele>431.33333333333337</ele><time>2026-04-11T06:06:36.999Z</time></trkpt><trkpt lat="43.42442723902342" lon="11.354824212045317"><ele>429.5</ele><time>2026-04-11T06:06:37.999Z</time></trkpt><trkpt lat="43.42452024760515" lon="11.354830980300918"><ele>427.6666666666667</ele><time>2026-04-11T06:06:38.999Z</time></trkpt><trkpt lat="43.424603177100735" lon="11.354837335177503"><ele>425.83333333333337</ele><time>2026-04-11T06:06:39.999Z</time></trkpt><trkpt lat="43.42468025489587" lon="11.35485055715775"><ele>424.0</ele><time>2026-04-11T06:06:40.999Z</time></trkpt><trkpt lat="43.42475528092511" lon="11.354861236970986"><ele>424.00000000000006</ele><time>2026-04-11T06:06:41.999Z</time></trkpt><trkpt lat="43.42482959352377" lon="11.354876716849972"><ele>424.0</ele><time>2026-04-11T06:06:42.999Z</time></trkpt><trkpt lat="43.42489268790764" lon="11.354868409033358"><ele>424.0</ele><time>2026-04-11T06:06:43.999Z</time></trkpt><trkpt lat="43.42499344745061" lon="11.354808928376178"><ele>424.0</ele><time>2026-04-11T06:06:45.999Z</time></trkpt><trkpt lat="43.42501836322616" lon="11.354712429259179"><ele>424.00000000000006</ele><time>2026-04-11T06:06:46.999Z</time></trkpt><trkpt lat="43.42500756549166" lon="11.354610576128916"><ele>424.0</ele><time>2026-04-11T06:06:47.999Z</time></trkpt><trkpt lat="43.425047830617274" lon="11.354541228757672"><ele>424.1666666666667</ele><time>2026-04-11T06:06:48.999Z</time></trkpt><trkpt lat="43.42508616778157" lon="11.354467980276876"><ele>424.33333333333337</ele><time>2026-04-11T06:06:49.999Z</time></trkpt><trkpt lat="43.42519881428869" lon="11.354431646959178"><ele>424.5</ele><time>2026-04-11T06:06:51.999Z</time></trkpt><trkpt lat="43.42528376380346" lon="11.354414197231419"><ele>424.66666666666663</ele><time>2026-04-11T06:06:52.999Z</time></trkpt><trkpt lat="43.42536567543357" lon="11.354409228455388"><ele>424.8333333333333</ele><time>2026-04-11T06:06:53.999Z</time></trkpt><trkpt lat="43.425445993059455" lon="11.354412875289297"><ele>425.0</ele><time>2026-04-11T06:06:54.999Z</time></trkpt><trkpt lat="43.425511456321786" lon="11.354389034689204"><ele>421.99999999999994</ele><time>2026-04-11T06:06:55.999Z</time></trkpt><trkpt lat="43.42557182575048" lon="11.354354033736781"><ele>419.0</ele><time>2026-04-11T06:06:56.999Z</time></trkpt><trkpt lat="43.42563098940284" lon="11.354278535082079"><ele>416.0</ele><time>2026-04-11T06:06:57.999Z</time></trkpt><trkpt lat="43.42569345514062" lon="11.354153020310148"><ele>413.0</ele><time>2026-04-11T06:06:58.999Z</time></trkpt><trkpt lat="43.42572757736672" lon="11.35402192383129"><ele>409.99999999999994</ele><time>2026-04-11T06:06:59.999Z</time></trkpt><trkpt lat="43.425758119892976" lon="11.353904625609385"><ele>407.0</ele><time>2026-04-11T06:07:00.999Z</time></trkpt><trkpt lat="43.42579001809758" lon="11.353758028865085"><ele>405.40000000000003</ele><time>2026-04-11T06:07:01.999Z</time></trkpt><trkpt lat="43.42579226537959" lon="11.353621827130883"><ele>403.8</ele><time>2026-04-11T06:07:02.999Z</time></trkpt><trkpt lat="43.42578723703162" lon="11.353486879921968"><ele>402.2</ele><time>2026-04-11T06:07:03.999Z</time></trkpt><trkpt lat="43.4257755808537" lon="11.353361355199137"><ele>400.6</ele><time>2026-04-11T06:07:04.999Z</time></trkpt><trkpt lat="43.4257566472664" lon="11.353247156739911"><ele>399.0</ele><time>2026-04-11T06:07:05.999Z</time></trkpt><trkpt lat="43.425771550464475" lon="11.353129922078248"><ele>399.4</ele><time>2026-04-11T06:07:06.999Z</time></trkpt><trkpt lat="43.42578205387834" lon="11.353013962969433"><ele>399.79999999999995</ele><time>2026-04-11T06:07:07.999Z</time></trkpt><trkpt lat="43.42579305151513" lon="11.352895312780776"><ele>400.20000000000005</ele><time>2026-04-11T06:07:08.999Z</time></trkpt><trkpt lat="43.42580939627287" lon="11.352752807226388"><ele>400.6</ele><time>2026-04-11T06:07:09.999Z</time></trkpt><trkpt lat="43.425823640450595" lon="11.352608073042378"><ele>401.0</ele><time>2026-04-11T06:07:10.999Z</time></trkpt><trkpt lat="43.425852680026544" lon="11.352489399977166"><ele>401.0</ele><time>2026-04-11T06:07:11.999Z</time></trkpt><trkpt lat="43.4258887635969" lon="11.35234161050792"><ele>401.0</ele><time>2026-04-11T06:07:12.999Z</time></trkpt><trkpt lat="43.425955309734526" lon="11.352169204299711"><ele>401.0</ele><time>2026-04-11T06:07:14.999Z</time></trkpt><trkpt lat="43.42601791058167" lon="11.352086676751865"><ele>401.0</ele><time>2026-04-11T06:07:15.999Z</time></trkpt><trkpt lat="43.42609225758163" lon="11.35202767188564"><ele>401.0</ele><time>2026-04-11T06:07:16.999Z</time></trkpt><trkpt lat="43.42615475493044" lon="11.351979546378434"><ele>401.8333333333333</ele><time>2026-04-11T06:07:18Z</time></trkpt><trkpt lat="43.426224986641756" lon="11.351953135863145"><ele>402.66666666666663</ele><time>2026-04-11T06:07:19Z</time></trkpt><trkpt lat="43.42627238720179" lon="11.351876176783602"><ele>403.5</ele><time>2026-04-11T06:07:20Z</time></trkpt><trkpt lat="43.42634118158056" lon="11.351792490500356"><ele>404.33333333333337</ele><time>2026-04-11T06:07:21Z</time></trkpt><trkpt lat="43.426399308443806" lon="11.351731834809838"><ele>405.1666666666667</ele><time>2026-04-11T06:07:22Z</time></trkpt><trkpt lat="43.42645002533659" lon="11.351659060999875"><ele>406.0</ele><time>2026-04-11T06:07:23Z</time></trkpt><trkpt lat="43.426506481410335" lon="11.351601825969231"><ele>404.00000000000006</ele><time>2026-04-11T06:07:24Z</time></trkpt><trkpt lat="43.426573518372905" lon="11.351536387037218"><ele>402.0</ele><time>2026-04-11T06:07:25Z</time></trkpt><trkpt lat="43.42662458374134" lon="11.351450992561139"><ele>400.0</ele><time>2026-04-11T06:07:26Z</time></trkpt><trkpt lat="43.4266757712096" lon="11.351355994936382"><ele>398.0</ele><time>2026-04-11T06:07:27Z</time></trkpt><trkpt lat="43.426720064094006" lon="11.351216775015514"><ele>396.00000000000006</ele><time>2026-04-11T06:07:29Z</time></trkpt><trkpt lat="43.426749958088614" lon="11.351120505038999"><ele>394.0</ele><time>2026-04-11T06:07:30Z</time></trkpt><trkpt lat="43.426802816817236" lon="11.350959462978427"><ele>394.00000000000006</ele><time>2026-04-11T06:07:32Z</time></trkpt><trkpt lat="43.42683232700184" lon="11.350878332289787"><ele>394.0</ele><time>2026-04-11T06:07:33Z</time></trkpt><trkpt lat="43.42690607542621" lon="11.350818328235903"><ele>394.0</ele><time>2026-04-11T06:07:36Z</time></trkpt><trkpt lat="43.42691201807195" lon="11.350719136638425"><ele>394.0</ele><time>2026-04-11T06:07:38Z</time></trkpt><trkpt lat="43.426956526644545" lon="11.350623462704831"><ele>394.00000000000006</ele><time>2026-04-11T06:07:40Z</time></trkpt><trkpt lat="43.42702300146723" lon="11.350564973576935"><ele>394.0</ele><time>2026-04-11T06:07:42Z</time></trkpt><trkpt lat="43.42709049245944" lon="11.350480111908222"><ele>390.79999999999995</ele><time>2026-04-11T06:07:44Z</time></trkpt><trkpt lat="43.427216402902836" lon="11.350426045652558"><ele>387.59999999999997</ele><time>2026-04-11T06:07:46Z</time></trkpt><trkpt lat="43.42729148412169" lon="11.350398991316164"><ele>384.4</ele><time>2026-04-11T06:07:47Z</time></trkpt><trkpt lat="43.42737887939278" lon="11.350372816649426"><ele>381.2</ele><time>2026-04-11T06:07:48Z</time></trkpt><trkpt lat="43.42746662310943" lon="11.350355423175394"><ele>378.0</ele><time>2026-04-11T06:07:49Z</time></trkpt><trkpt lat="43.42755534508032" lon="11.35033040010436"><ele>378.0</ele><time>2026-04-11T06:07:50Z</time></trkpt><trkpt lat="43.42764936648735" lon="11.350284512161668"><ele>378.0</ele><time>2026-04-11T06:07:51Z</time></trkpt><trkpt lat="43.427743879054375" lon="11.350241671252384"><ele>378.0</ele><time>2026-04-11T06:07:52Z</time></trkpt><trkpt lat="43.42781873179442" lon="11.350198293568079"><ele>378.0</ele><time>2026-04-11T06:07:53Z</time></trkpt><trkpt lat="43.42788857905469" lon="11.350147246561452"><ele>378.0</ele><time>2026-04-11T06:07:54Z</time></trkpt><trkpt lat="43.42796271745348" lon="11.350084864653736"><ele>378.0</ele><time>2026-04-11T06:07:55Z</time></trkpt><trkpt lat="43.42802882726442" lon="11.350048775356655"><ele>377.8333333333333</ele><time>2026-04-11T06:07:56Z</time></trkpt><trkpt lat="43.428104298233116" lon="11.350018197048584"><ele>377.6666666666667</ele><time>2026-04-11T06:07:57Z</time></trkpt><trkpt lat="43.4281721723525" lon="11.350019519939554"><ele>377.5</ele><time>2026-04-11T06:07:58Z</time></trkpt><trkpt lat="43.4282404259847" lon="11.349997838481093"><ele>377.33333333333337</ele><time>2026-04-11T06:07:59Z</time></trkpt><trkpt lat="43.42835876168497" lon="11.350001631170644"><ele>377.1666666666667</ele><time>2026-04-11T06:08:01Z</time></trkpt><trkpt lat="43.42845766115666" lon="11.350052392853359"><ele>377.0</ele><time>2026-04-11T06:08:03Z</time></trkpt><trkpt lat="43.42853429607543" lon="11.35009584338523"><ele>377.0</ele><time>2026-04-11T06:08:05Z</time></trkpt><trkpt lat="43.42861842682521" lon="11.350159145986648"><ele>377.0</ele><time>2026-04-11T06:08:07Z</time></trkpt><trkpt lat="43.42868178343966" lon="11.350203795314739"><ele>377.0</ele><time>2026-04-11T06:08:09Z</time></trkpt><trkpt lat="43.42875345109226" lon="11.350244811322254"><ele>377.0</ele><time>2026-04-11T06:08:11Z</time></trkpt><trkpt lat="43.42881246233113" lon="11.350292863685807"><ele>377.0</ele><time>2026-04-11T06:08:13Z</time></trkpt><trkpt lat="43.42887144499385" lon="11.350351456753277"><ele>377.0</ele><time>2026-04-11T06:08:15Z</time></trkpt><trkpt lat="43.42894430478042" lon="11.350402018131604"><ele>377.0</ele><time>2026-04-11T06:08:17Z</time></trkpt><trkpt lat="43.42901137245994" lon="11.35044643751669"><ele>377.0</ele><time>2026-04-11T06:08:19Z</time></trkpt><trkpt lat="43.4290865925007" lon="11.350496638387789"><ele>377.0</ele><time>2026-04-11T06:08:21Z</time></trkpt><trkpt lat="43.42914718026593" lon="11.350559167488097"><ele>377.0</ele><time>2026-04-11T06:08:22.999Z</time></trkpt><trkpt lat="43.429220634531326" lon="11.350615341499568"><ele>377.0</ele><time>2026-04-11T06:08:24.999Z</time></trkpt><trkpt lat="43.42928694904686" lon="11.350666021966898"><ele>377.0</ele><time>2026-04-11T06:08:26.999Z</time></trkpt><trkpt lat="43.4293608571002" lon="11.350721053000463"><ele>377.33333333333337</ele><time>2026-04-11T06:08:28.999Z</time></trkpt><trkpt lat="43.42944076736751" lon="11.350778815384702"><ele>377.6666666666667</ele><time>2026-04-11T06:08:30.999Z</time></trkpt><trkpt lat="43.42951435539276" lon="11.350827443383816"><ele>378.0</ele><time>2026-04-11T06:08:32.999Z</time></trkpt><trkpt lat="43.429601353122834" lon="11.35085736845863"><ele>378.3333333333333</ele><time>2026-04-11T06:08:34.999Z</time></trkpt><trkpt lat="43.429672864430245" lon="11.350909411155147"><ele>378.66666666666663</ele><time>2026-04-11T06:08:36.999Z</time></trkpt><trkpt lat="43.42975020764582" lon="11.350894479463507"><ele>379.0</ele><time>2026-04-11T06:08:38.999Z</time></trkpt><trkpt lat="43.42981375504756" lon="11.35089700839257"><ele>379.0</ele><time>2026-04-11T06:08:40.999Z</time></trkpt><trkpt lat="43.4298837728205" lon="11.350887510638833"><ele>379.0</ele><time>2026-04-11T06:08:43.999Z</time></trkpt><trkpt lat="43.42996139360885" lon="11.350876799364402"><ele>379.0</ele><time>2026-04-11T06:08:47.999Z</time></trkpt><trkpt lat="43.43003271484246" lon="11.350866029258956"><ele>379.0</ele><time>2026-04-11T06:08:50.999Z</time></trkpt><trkpt lat="43.43010774809652" lon="11.350849089568777"><ele>379.0</ele><time>2026-04-11T06:08:53.999Z</time></trkpt><trkpt lat="43.43018386632846" lon="11.350861982617145"><ele>379.0</ele><time>2026-04-11T06:08:56.999Z</time></trkpt><trkpt lat="43.43027527596362" lon="11.350860582361484"><ele>379.00000000000006</ele><time>2026-04-11T06:08:59.999Z</time></trkpt><trkpt lat="43.430349105785616" lon="11.350859958310897"><ele>379.0</ele><time>2026-04-11T06:09:01.999Z</time></trkpt><trkpt lat="43.4304193401352" lon="11.350861555316303"><ele>379.0</ele><time>2026-04-11T06:09:03.999Z</time></trkpt><trkpt lat="43.43048675007191" lon="11.350868949428316"><ele>379.0</ele><time>2026-04-11T06:09:05.999Z</time></trkpt><trkpt lat="43.43054984888257" lon="11.350886560984144"><ele>379.0</ele><time>2026-04-11T06:09:07.999Z</time></trkpt><trkpt lat="43.43061906023664" lon="11.350905531928856"><ele>379.00000000000006</ele><time>2026-04-11T06:09:09.999Z</time></trkpt><trkpt lat="43.430683835022876" lon="11.350923909034472"><ele>379.0</ele><time>2026-04-11T06:09:11.999Z</time></trkpt><trkpt lat="43.43077633591054" lon="11.350939828218824"><ele>379.5</ele><time>2026-04-11T06:09:14.999Z</time></trkpt><trkpt lat="43.43086220246714" lon="11.350935451731685"><ele>380.0</ele><time>2026-04-11T06:09:17.999Z</time></trkpt><trkpt lat="43.43093121753066" lon="11.350914686112118"><ele>380.5</ele><time>2026-04-11T06:09:20.999Z</time></trkpt><trkpt lat="43.4310065292152" lon="11.350878864063805"><ele>381.0</ele><time>2026-04-11T06:09:24Z</time></trkpt><trkpt lat="43.4310750720696" lon="11.3508291683081"><ele>381.5</ele><time>2026-04-11T06:09:27Z</time></trkpt><trkpt lat="43.43114459050805" lon="11.35076157562187"><ele>382.0</ele><time>2026-04-11T06:09:31Z</time></trkpt><trkpt lat="43.43121405679472" lon="11.350724185365294"><ele>382.0</ele><time>2026-04-11T06:09:35Z</time></trkpt><trkpt lat="43.43127227398559" lon="11.350683237000274"><ele>382.0</ele><time>2026-04-11T06:09:39Z</time></trkpt><trkpt lat="43.431344246921846" lon="11.350642837598512"><ele>382.0</ele><time>2026-04-11T06:09:44Z</time></trkpt><trkpt lat="43.431413943924014" lon="11.350676987812436"><ele>382.0</ele><time>2026-04-11T06:09:49Z</time></trkpt><trkpt lat="43.43147683116271" lon="11.350720528916813"><ele>382.0</ele><time>2026-04-11T06:09:54Z</time></trkpt><trkpt lat="43.43151416834274" lon="11.350791032975334"><ele>382.0</ele><time>2026-04-11T06:09:58Z</time></trkpt><trkpt lat="43.43156709731269" lon="11.350843502238831"><ele>382.0</ele><time>2026-04-11T06:10:03Z</time></trkpt><trkpt lat="43.431616409255696" lon="11.350903652882907"><ele>384.3333333333333</ele><time>2026-04-11T06:10:08Z</time></trkpt><trkpt lat="43.431662560339774" lon="11.350968397504294"><ele>386.66666666666663</ele><time>2026-04-11T06:10:13Z</time></trkpt><trkpt lat="43.43171765317848" lon="11.351037532982557"><ele>389.0</ele><time>2026-04-11T06:10:18Z</time></trkpt><trkpt lat="43.43177345655831" lon="11.3511023589093"><ele>391.3333333333333</ele><time>2026-04-11T06:10:22Z</time></trkpt><trkpt lat="43.4318401034754" lon="11.351146384600579"><ele>393.6666666666667</ele><time>2026-04-11T06:10:26Z</time></trkpt><trkpt lat="43.431911813399864" lon="11.35122612025557"><ele>396.0</ele><time>2026-04-11T06:10:30Z</time></trkpt><trkpt lat="43.43199012832836" lon="11.351295595277433"><ele>396.0</ele><time>2026-04-11T06:10:33Z</time></trkpt><trkpt lat="43.432075259357916" lon="11.351329988869818"><ele>396.0</ele><time>2026-04-11T06:10:34.999Z</time></trkpt><trkpt lat="43.43218406553583" lon="11.351362401566414"><ele>396.0</ele><time>2026-04-11T06:10:36.999Z</time></trkpt><trkpt lat="43.432250975303255" lon="11.351374693338261"><ele>396.0</ele><time>2026-04-11T06:10:37.999Z</time></trkpt><trkpt lat="43.43232782167227" lon="11.351391779097517"><ele>396.0</ele><time>2026-04-11T06:10:38.999Z</time></trkpt><trkpt lat="43.432396429115194" lon="11.351393651744766"><ele>396.0</ele><time>2026-04-11T06:10:39.999Z</time></trkpt><trkpt lat="43.432516062809434" lon="11.351425047808174"><ele>396.14285714285717</ele><time>2026-04-11T06:10:41.999Z</time></trkpt><trkpt lat="43.432582363877216" lon="11.351424278112525"><ele>396.2857142857143</ele><time>2026-04-11T06:10:42.999Z</time></trkpt><trkpt lat="43.43264783705726" lon="11.351403698767085"><ele>396.42857142857144</ele><time>2026-04-11T06:10:43.999Z</time></trkpt><trkpt lat="43.43272070791097" lon="11.351409663900293"><ele>396.57142857142856</ele><time>2026-04-11T06:10:44.999Z</time></trkpt><trkpt lat="43.43278420352173" lon="11.351391378103516"><ele>396.71428571428567</ele><time>2026-04-11T06:10:45.999Z</time></trkpt><trkpt lat="43.43284906289005" lon="11.351357710502185"><ele>396.85714285714283</ele><time>2026-04-11T06:10:46.999Z</time></trkpt><trkpt lat="43.43291953185693" lon="11.351309697282"><ele>397.0</ele><time>2026-04-11T06:10:47.999Z</time></trkpt><trkpt lat="43.433003956596124" lon="11.351246164121598"><ele>393.8</ele><time>2026-04-11T06:10:48.999Z</time></trkpt><trkpt lat="43.43308516601959" lon="11.351179794002663"><ele>390.6</ele><time>2026-04-11T06:10:49.999Z</time></trkpt><trkpt lat="43.43317363938707" lon="11.35110393218328"><ele>387.40000000000003</ele><time>2026-04-11T06:10:50.999Z</time></trkpt><trkpt lat="43.43325241612326" lon="11.35103610375444"><ele>384.20000000000005</ele><time>2026-04-11T06:10:51.999Z</time></trkpt><trkpt lat="43.43333032377398" lon="11.35096902328724"><ele>381.0</ele><time>2026-04-11T06:10:52.999Z</time></trkpt><trkpt lat="43.43342881140223" lon="11.35088014548331"><ele>381.0</ele><time>2026-04-11T06:10:53.999Z</time></trkpt><trkpt lat="43.43350391742916" lon="11.350802967132243"><ele>381.0</ele><time>2026-04-11T06:10:54.999Z</time></trkpt><trkpt lat="43.4335786659896" lon="11.350720669559822"><ele>381.0</ele><time>2026-04-11T06:10:55.999Z</time></trkpt><trkpt lat="43.43365008318731" lon="11.350638177491815"><ele>381.0</ele><time>2026-04-11T06:10:56.999Z</time></trkpt><trkpt lat="43.43371496295897" lon="11.350561957723466"><ele>381.0</ele><time>2026-04-11T06:10:57.999Z</time></trkpt><trkpt lat="43.43377457934326" lon="11.350491576237218"><ele>381.0</ele><time>2026-04-11T06:10:58.999Z</time></trkpt><trkpt lat="43.4338272144984" lon="11.350401680936969"><ele>381.1666666666667</ele><time>2026-04-11T06:10:59.999Z</time></trkpt><trkpt lat="43.43389230958836" lon="11.35033391134015"><ele>381.3333333333333</ele><time>2026-04-11T06:11:00.999Z</time></trkpt><trkpt lat="43.433965577856014" lon="11.35026395634623"><ele>381.5</ele><time>2026-04-11T06:11:01.999Z</time></trkpt><trkpt lat="43.43403286620015" lon="11.350182847465197"><ele>381.66666666666663</ele><time>2026-04-11T06:11:02.999Z</time></trkpt><trkpt lat="43.434089683147484" lon="11.350085332024994"><ele>381.8333333333333</ele><time>2026-04-11T06:11:03.999Z</time></trkpt><trkpt lat="43.434152850816844" lon="11.350013806662442"><ele>382.0</ele><time>2026-04-11T06:11:04.999Z</time></trkpt><trkpt lat="43.43421902114266" lon="11.349953237825687"><ele>382.0</ele><time>2026-04-11T06:11:05.999Z</time></trkpt><trkpt lat="43.43427809566758" lon="11.349888497678343"><ele>382.0</ele><time>2026-04-11T06:11:06.999Z</time></trkpt><trkpt lat="43.43432587026803" lon="11.349818034976845"><ele>382.0</ele><time>2026-04-11T06:11:07.999Z</time></trkpt><trkpt lat="43.43436328711263" lon="11.34971372878756"><ele>382.0</ele><time>2026-04-11T06:11:08.999Z</time></trkpt><trkpt lat="43.4343925646076" lon="11.349597364399179"><ele>382.0</ele><time>2026-04-11T06:11:09.999Z</time></trkpt><trkpt lat="43.434450691146424" lon="11.349434535261118"><ele>382.3333333333333</ele><time>2026-04-11T06:11:11.999Z</time></trkpt><trkpt lat="43.43448395430486" lon="11.34934108778583"><ele>382.66666666666663</ele><time>2026-04-11T06:11:12.999Z</time></trkpt><trkpt lat="43.43450993888111" lon="11.349250705127416"><ele>383.0</ele><time>2026-04-11T06:11:13.999Z</time></trkpt><trkpt lat="43.43456038940886" lon="11.349111151336198"><ele>383.3333333333333</ele><time>2026-04-11T06:11:15.999Z</time></trkpt><trkpt lat="43.43461250088944" lon="11.349003731240145"><ele>383.6666666666667</ele><time>2026-04-11T06:11:16.999Z</time></trkpt><trkpt lat="43.43465442282057" lon="11.348901837779655"><ele>384.0</ele><time>2026-04-11T06:11:17.999Z</time></trkpt><trkpt lat="43.43469789648656" lon="11.348812672229588"><ele>384.0</ele><time>2026-04-11T06:11:18.999Z</time></trkpt><trkpt lat="43.43474449083758" lon="11.348754167584847"><ele>384.0</ele><time>2026-04-11T06:11:19.999Z</time></trkpt><trkpt lat="43.434817962121535" lon="11.348719999483349"><ele>384.0</ele><time>2026-04-11T06:11:20.999Z</time></trkpt><trkpt lat="43.43488573196453" lon="11.34871473738322"><ele>384.0</ele><time>2026-04-11T06:11:21.999Z</time></trkpt><trkpt lat="43.43494908910065" lon="11.348737302190765"><ele>384.0</ele><time>2026-04-11T06:11:22.999Z</time></trkpt><trkpt lat="43.43504916722563" lon="11.348771418645308"><ele>384.0</ele><time>2026-04-11T06:11:24.999Z</time></trkpt><trkpt lat="43.43513108718896" lon="11.348820074230265"><ele>384.0</ele><time>2026-04-11T06:11:26.999Z</time></trkpt><trkpt lat="43.4352150510195" lon="11.348828748245825"><ele>384.0</ele><time>2026-04-11T06:11:28.999Z</time></trkpt><trkpt lat="43.435289380865285" lon="11.348825447768975"><ele>384.0</ele><time>2026-04-11T06:11:31Z</time></trkpt><trkpt lat="43.43537481503888" lon="11.348791445874983"><ele>384.0</ele><time>2026-04-11T06:11:33Z</time></trkpt><trkpt lat="43.43546328952691" lon="11.348756149983291"><ele>384.0</ele><time>2026-04-11T06:11:35Z</time></trkpt><trkpt lat="43.43556991558682" lon="11.348735228622855"><ele>384.0</ele><time>2026-04-11T06:11:37Z</time></trkpt><trkpt lat="43.435630834126556" lon="11.348710037989624"><ele>383.79999999999995</ele><time>2026-04-11T06:11:38Z</time></trkpt><trkpt lat="43.435747518219365" lon="11.348678813306824"><ele>383.59999999999997</ele><time>2026-04-11T06:11:40Z</time></trkpt><trkpt lat="43.435865610803845" lon="11.348683785649829"><ele>383.4</ele><time>2026-04-11T06:11:42Z</time></trkpt><trkpt lat="43.43592948057437" lon="11.34868235893832"><ele>383.2</ele><time>2026-04-11T06:11:43Z</time></trkpt><trkpt lat="43.43604067648274" lon="11.348745241978467"><ele>383.0</ele><time>2026-04-11T06:11:45Z</time></trkpt><trkpt lat="43.43613980494649" lon="11.348813326924285"><ele>381.33333333333337</ele><time>2026-04-11T06:11:47Z</time></trkpt><trkpt lat="43.43623230185462" lon="11.348895541552483"><ele>379.6666666666667</ele><time>2026-04-11T06:11:49Z</time></trkpt><trkpt lat="43.43633311995663" lon="11.348976014814497"><ele>378.0</ele><time>2026-04-11T06:11:51Z</time></trkpt><trkpt lat="43.436391102348516" lon="11.349021451439507"><ele>376.3333333333333</ele><time>2026-04-11T06:11:52Z</time></trkpt><trkpt lat="43.43644207919509" lon="11.349075802536381"><ele>374.66666666666663</ele><time>2026-04-11T06:11:53Z</time></trkpt><trkpt lat="43.436498511637524" lon="11.349136303980128"><ele>373.0</ele><time>2026-04-11T06:11:54Z</time></trkpt><trkpt lat="43.4365504426639" lon="11.349193391599377"><ele>373.0</ele><time>2026-04-11T06:11:55Z</time></trkpt><trkpt lat="43.436601617388455" lon="11.349250065311766"><ele>373.0</ele><time>2026-04-11T06:11:56Z</time></trkpt><trkpt lat="43.436655429812724" lon="11.349316088694096"><ele>373.0</ele><time>2026-04-11T06:11:57Z</time></trkpt><trkpt lat="43.43676884766928" lon="11.349400082335277"><ele>373.0</ele><time>2026-04-11T06:11:59Z</time></trkpt><trkpt lat="43.43683485479435" lon="11.349412946276033"><ele>373.0</ele><time>2026-04-11T06:12:00Z</time></trkpt><trkpt lat="43.43690614034445" lon="11.349412480024451"><ele>373.0</ele><time>2026-04-11T06:12:01Z</time></trkpt><trkpt lat="43.43697033304611" lon="11.349391678501185"><ele>373.0</ele><time>2026-04-11T06:12:02Z</time></trkpt><trkpt lat="43.43706618292048" lon="11.349288506911632"><ele>373.0</ele><time>2026-04-11T06:12:04Z</time></trkpt><trkpt lat="43.4371181170703" lon="11.349220836075"><ele>373.0</ele><time>2026-04-11T06:12:05Z</time></trkpt><trkpt lat="43.437159542464215" lon="11.349144103835831"><ele>373.0</ele><time>2026-04-11T06:12:06Z</time></trkpt><trkpt lat="43.43718818526434" lon="11.349053386143893"><ele>373.0</ele><time>2026-04-11T06:12:07Z</time></trkpt><trkpt lat="43.43722558907164" lon="11.34895471526517"><ele>373.0</ele><time>2026-04-11T06:12:08Z</time></trkpt><trkpt lat="43.437264827444736" lon="11.348779016874973"><ele>373.79999999999995</ele><time>2026-04-11T06:12:10Z</time></trkpt><trkpt lat="43.437291203413466" lon="11.348688106522278"><ele>374.6</ele><time>2026-04-11T06:12:11Z</time></trkpt><trkpt lat="43.437342953994374" lon="11.348532671186584"><ele>375.4</ele><time>2026-04-11T06:12:13Z</time></trkpt><trkpt lat="43.437418154792255" lon="11.348417447377065"><ele>376.20000000000005</ele><time>2026-04-11T06:12:15Z</time></trkpt><trkpt lat="43.43751043061846" lon="11.348369815563279"><ele>377.0</ele><time>2026-04-11T06:12:17Z</time></trkpt><trkpt lat="43.437601928477086" lon="11.34836686092096"><ele>377.0</ele><time>2026-04-11T06:12:19Z</time></trkpt><trkpt lat="43.437694646412815" lon="11.348393377463475"><ele>377.0</ele><time>2026-04-11T06:12:21Z</time></trkpt><trkpt lat="43.43777116703588" lon="11.348424868343985"><ele>377.0</ele><time>2026-04-11T06:12:23Z</time></trkpt><trkpt lat="43.43782955624994" lon="11.348508086151213"><ele>377.0</ele><time>2026-04-11T06:12:25Z</time></trkpt><trkpt lat="43.437878503364345" lon="11.348616899446291"><ele>377.0</ele><time>2026-04-11T06:12:27Z</time></trkpt><trkpt lat="43.43790700006025" lon="11.348713859059176"><ele>377.0</ele><time>2026-04-11T06:12:29Z</time></trkpt><trkpt lat="43.43794082209983" lon="11.34880892975015"><ele>376.0</ele><time>2026-04-11T06:12:31Z</time></trkpt><trkpt lat="43.43795472218102" lon="11.348919721327812"><ele>375.0</ele><time>2026-04-11T06:12:33Z</time></trkpt><trkpt lat="43.43797645787121" lon="11.349028492444603"><ele>374.0</ele><time>2026-04-11T06:12:35Z</time></trkpt><trkpt lat="43.437999397171225" lon="11.349130103183812"><ele>373.0</ele><time>2026-04-11T06:12:37Z</time></trkpt><trkpt lat="43.438026150444344" lon="11.34922482957683"><ele>372.0</ele><time>2026-04-11T06:12:39Z</time></trkpt><trkpt lat="43.43804672047311" lon="11.34933080117352"><ele>371.0</ele><time>2026-04-11T06:12:40.999Z</time></trkpt><trkpt lat="43.43807648148033" lon="11.349410432925556"><ele>371.6666666666667</ele><time>2026-04-11T06:12:42.999Z</time></trkpt><trkpt lat="43.43811267198917" lon="11.3494947290201"><ele>372.33333333333337</ele><time>2026-04-11T06:12:44.999Z</time></trkpt><trkpt lat="43.43816883105172" lon="11.349602532850872"><ele>373.0</ele><time>2026-04-11T06:12:47.999Z</time></trkpt><trkpt lat="43.43821816314854" lon="11.349664410379837"><ele>373.6666666666667</ele><time>2026-04-11T06:12:49.999Z</time></trkpt><trkpt lat="43.438265239196994" lon="11.349727325323348"><ele>374.3333333333333</ele><time>2026-04-11T06:12:51.999Z</time></trkpt><trkpt lat="43.43832400309445" lon="11.349787167105847"><ele>375.0</ele><time>2026-04-11T06:12:53.999Z</time></trkpt><trkpt lat="43.43839590947437" lon="11.349837570917341"><ele>375.0</ele><time>2026-04-11T06:12:55.999Z</time></trkpt><trkpt lat="43.43847581499426" lon="11.349902225382012"><ele>375.0</ele><time>2026-04-11T06:12:57.999Z</time></trkpt><trkpt lat="43.43855606310134" lon="11.349947424153639"><ele>375.0</ele><time>2026-04-11T06:12:59.999Z</time></trkpt><trkpt lat="43.43864993486259" lon="11.349983522670996"><ele>375.0</ele><time>2026-04-11T06:13:01.999Z</time></trkpt><trkpt lat="43.438759172837" lon="11.350009400865893"><ele>375.0</ele><time>2026-04-11T06:13:03.999Z</time></trkpt><trkpt lat="43.438820016523074" lon="11.350036195316328"><ele>375.3333333333333</ele><time>2026-04-11T06:13:04.999Z</time></trkpt><trkpt lat="43.43888775451362" lon="11.350071470044497"><ele>375.6666666666667</ele><time>2026-04-11T06:13:05.999Z</time></trkpt><trkpt lat="43.43895620897801" lon="11.350091508843342"><ele>376.0</ele><time>2026-04-11T06:13:06.999Z</time></trkpt><trkpt lat="43.43907122544493" lon="11.350139684256936"><ele>376.33333333333337</ele><time>2026-04-11T06:13:08.999Z</time></trkpt><trkpt lat="43.439140450621856" lon="11.35018022993134"><ele>376.6666666666667</ele><time>2026-04-11T06:13:09.999Z</time></trkpt><trkpt lat="43.439217367487956" lon="11.350231863899753"><ele>377.0</ele><time>2026-04-11T06:13:10.999Z</time></trkpt><trkpt lat="43.43930338976748" lon="11.350256171401318"><ele>377.0</ele><time>2026-04-11T06:13:11.999Z</time></trkpt><trkpt lat="43.439395875589014" lon="11.350300743423526"><ele>377.0</ele><time>2026-04-11T06:13:12.999Z</time></trkpt><trkpt lat="43.43948935520152" lon="11.350341834551447"><ele>377.0</ele><time>2026-04-11T06:13:13.999Z</time></trkpt><trkpt lat="43.439590617864084" lon="11.350399731904522"><ele>377.0</ele><time>2026-04-11T06:13:14.999Z</time></trkpt><trkpt lat="43.43972060880975" lon="11.35044578261909"><ele>377.0</ele><time>2026-04-11T06:13:15.999Z</time></trkpt><trkpt lat="43.439836463098594" lon="11.350505682872486"><ele>376.20000000000005</ele><time>2026-04-11T06:13:16.999Z</time></trkpt><trkpt lat="43.439944247757275" lon="11.350589104078352"><ele>375.4</ele><time>2026-04-11T06:13:17.999Z</time></trkpt><trkpt lat="43.440043469536995" lon="11.350659751431808"><ele>374.6</ele><time>2026-04-11T06:13:18.999Z</time></trkpt><trkpt lat="43.44013435945003" lon="11.35074053624477"><ele>373.79999999999995</ele><time>2026-04-11T06:13:19.999Z</time></trkpt><trkpt lat="43.44020635081956" lon="11.350838517097296"><ele>373.0</ele><time>2026-04-11T06:13:20.999Z</time></trkpt><trkpt lat="43.44026146009343" lon="11.350952785874908"><ele>373.0</ele><time>2026-04-11T06:13:21.999Z</time></trkpt><trkpt lat="43.440313257140915" lon="11.351078712776129"><ele>373.0</ele><time>2026-04-11T06:13:22.999Z</time></trkpt><trkpt lat="43.44034246910826" lon="11.35117367521003"><ele>373.0</ele><time>2026-04-11T06:13:23.999Z</time></trkpt><trkpt lat="43.440368203849616" lon="11.351277104078948"><ele>373.0</ele><time>2026-04-11T06:13:24.999Z</time></trkpt><trkpt lat="43.44039556995344" lon="11.351384484781619"><ele>373.0</ele><time>2026-04-11T06:13:25.999Z</time></trkpt><trkpt lat="43.44043409823955" lon="11.351480630298251"><ele>373.0</ele><time>2026-04-11T06:13:26.999Z</time></trkpt><trkpt lat="43.4404893017974" lon="11.351573063880156"><ele>373.0</ele><time>2026-04-11T06:13:27.999Z</time></trkpt><trkpt lat="43.44053430011458" lon="11.351658023669401"><ele>373.0</ele><time>2026-04-11T06:13:28.999Z</time></trkpt><trkpt lat="43.440559901236824" lon="11.35175594255103"><ele>373.0</ele><time>2026-04-11T06:13:29.999Z</time></trkpt><trkpt lat="43.44055681663825" lon="11.351856135660789"><ele>373.0</ele><time>2026-04-11T06:13:30.999Z</time></trkpt><trkpt lat="43.44055841557858" lon="11.351963918758665"><ele>373.0</ele><time>2026-04-11T06:13:31.999Z</time></trkpt><trkpt lat="43.440557159191336" lon="11.352074969370243"><ele>373.0</ele><time>2026-04-11T06:13:32.999Z</time></trkpt><trkpt lat="43.440570995668054" lon="11.352179827270042"><ele>372.0</ele><time>2026-04-11T06:13:33.999Z</time></trkpt><trkpt lat="43.44061163483951" lon="11.352310740531694"><ele>371.0</ele><time>2026-04-11T06:13:34.999Z</time></trkpt><trkpt lat="43.440629777280364" lon="11.352465256262224"><ele>370.0</ele><time>2026-04-11T06:13:37Z</time></trkpt><trkpt lat="43.44065349448326" lon="11.352561901703913"><ele>369.0</ele><time>2026-04-11T06:13:38Z</time></trkpt><trkpt lat="43.440666928046255" lon="11.352662351610022"><ele>368.0</ele><time>2026-04-11T06:13:39Z</time></trkpt><trkpt lat="43.44068167983431" lon="11.35276604394371"><ele>367.0</ele><time>2026-04-11T06:13:40Z</time></trkpt><trkpt lat="43.44069281239821" lon="11.352861414644947"><ele>367.0</ele><time>2026-04-11T06:13:41Z</time></trkpt><trkpt lat="43.440696438477296" lon="11.352962131995346"><ele>367.0</ele><time>2026-04-11T06:13:42Z</time></trkpt><trkpt lat="43.440720491814524" lon="11.353065898952364"><ele>367.0</ele><time>2026-04-11T06:13:43Z</time></trkpt><trkpt lat="43.44073128960994" lon="11.35315763318543"><ele>367.0</ele><time>2026-04-11T06:13:44Z</time></trkpt><trkpt lat="43.44073011128004" lon="11.353329488480123"><ele>367.0</ele><time>2026-04-11T06:13:46Z</time></trkpt><trkpt lat="43.44076270130256" lon="11.353473575754089"><ele>365.8</ele><time>2026-04-11T06:13:48Z</time></trkpt><trkpt lat="43.44078084411673" lon="11.35362242120254"><ele>364.6</ele><time>2026-04-11T06:13:50Z</time></trkpt><trkpt lat="43.44078953055636" lon="11.353768976335868"><ele>363.40000000000003</ele><time>2026-04-11T06:13:52Z</time></trkpt><trkpt lat="43.44081050142503" lon="11.353920109100432"><ele>362.20000000000005</ele><time>2026-04-11T06:13:54Z</time></trkpt><trkpt lat="43.44083517866396" lon="11.354061632612936"><ele>361.0</ele><time>2026-04-11T06:13:56Z</time></trkpt><trkpt lat="43.440865160033" lon="11.354208234240785"><ele>359.8</ele><time>2026-04-11T06:13:58Z</time></trkpt><trkpt lat="43.440900193253604" lon="11.35435478257207"><ele>358.6</ele><time>2026-04-11T06:14:00Z</time></trkpt><trkpt lat="43.44093321146781" lon="11.354496616915892"><ele>357.4</ele><time>2026-04-11T06:14:02Z</time></trkpt><trkpt lat="43.44096079268616" lon="11.354636979061398"><ele>356.2</ele><time>2026-04-11T06:14:04Z</time></trkpt><trkpt lat="43.44099358060828" lon="11.354772831746718"><ele>355.0</ele><time>2026-04-11T06:14:06Z</time></trkpt><trkpt lat="43.44102039581336" lon="11.354900347064854"><ele>354.66666666666663</ele><time>2026-04-11T06:14:08Z</time></trkpt><trkpt lat="43.44102835767894" lon="11.355021503488748"><ele>354.3333333333333</ele><time>2026-04-11T06:14:10Z</time></trkpt><trkpt lat="43.441043400898565" lon="11.355133572210377"><ele>354.0</ele><time>2026-04-11T06:14:12Z</time></trkpt><trkpt lat="43.4410545435849" lon="11.3552358241321"><ele>353.6666666666667</ele><time>2026-04-11T06:14:14Z</time></trkpt><trkpt lat="43.44105935969678" lon="11.355357259054266"><ele>353.33333333333337</ele><time>2026-04-11T06:14:16Z</time></trkpt><trkpt lat="43.44104386899486" lon="11.355457813362897"><ele>353.0</ele><time>2026-04-11T06:14:18Z</time></trkpt><trkpt lat="43.44099098978586" lon="11.355516671075833"><ele>352.79999999999995</ele><time>2026-04-11T06:14:20Z</time></trkpt><trkpt lat="43.44094871078763" lon="11.355617631370473"><ele>352.6</ele><time>2026-04-11T06:14:22Z</time></trkpt><trkpt lat="43.44096626485502" lon="11.355742003249143"><ele>352.4</ele><time>2026-04-11T06:14:25Z</time></trkpt><trkpt lat="43.441002971208114" lon="11.355831974640049"><ele>352.20000000000005</ele><time>2026-04-11T06:14:27Z</time></trkpt><trkpt lat="43.44108619876672" lon="11.355880888172237"><ele>352.0</ele><time>2026-04-11T06:14:29Z</time></trkpt><trkpt lat="43.441195703738686" lon="11.355861808848097"><ele>352.6</ele><time>2026-04-11T06:14:31Z</time></trkpt><trkpt lat="43.44131944589488" lon="11.355838661760018"><ele>353.20000000000005</ele><time>2026-04-11T06:14:33Z</time></trkpt><trkpt lat="43.44138804523685" lon="11.355851537313242"><ele>353.8</ele><time>2026-04-11T06:14:34Z</time></trkpt><trkpt lat="43.44143707657426" lon="11.355724520265339"><ele>354.4</ele><time>2026-04-11T06:14:36Z</time></trkpt><trkpt lat="43.44146560584305" lon="11.355586443534122"><ele>355.0</ele><time>2026-04-11T06:14:38Z</time></trkpt><trkpt lat="43.4415333974633" lon="11.355505828986447"><ele>355.0</ele><time>2026-04-11T06:14:40Z</time></trkpt><trkpt lat="43.44159590308594" lon="11.355448699259991"><ele>355.0</ele><time>2026-04-11T06:14:41Z</time></trkpt><trkpt lat="43.44167053786165" lon="11.355382768742336"><ele>355.0</ele><time>2026-04-11T06:14:42Z</time></trkpt><trkpt lat="43.44174712689017" lon="11.355335935024028"><ele>355.0</ele><time>2026-04-11T06:14:43.999Z</time></trkpt><trkpt lat="43.441807385690126" lon="11.355308739542432"><ele>355.0</ele><time>2026-04-11T06:14:44.999Z</time></trkpt><trkpt lat="43.44191199234651" lon="11.355324958335299"><ele>355.0</ele><time>2026-04-11T06:14:45.999Z</time></trkpt><trkpt lat="43.44198391880103" lon="11.355332946906687"><ele>355.0</ele><time>2026-04-11T06:14:46.999Z</time></trkpt><trkpt lat="43.44206340397841" lon="11.355333480339914"><ele>355.0</ele><time>2026-04-11T06:14:47.999Z</time></trkpt><trkpt lat="43.442144642319604" lon="11.355311536718833"><ele>355.0</ele><time>2026-04-11T06:14:48.999Z</time></trkpt><trkpt lat="43.442227323995915" lon="11.355277872761107"><ele>355.0</ele><time>2026-04-11T06:14:49.999Z</time></trkpt><trkpt lat="43.442303685550144" lon="11.35523215021877"><ele>355.0</ele><time>2026-04-11T06:14:50.999Z</time></trkpt><trkpt lat="43.442381367276255" lon="11.355182943776981"><ele>355.0</ele><time>2026-04-11T06:14:51.999Z</time></trkpt><trkpt lat="43.44242872979996" lon="11.355123261571258"><ele>351.8333333333333</ele><time>2026-04-11T06:14:52.999Z</time></trkpt><trkpt lat="43.44250529948235" lon="11.355060655929355"><ele>348.66666666666663</ele><time>2026-04-11T06:14:53.999Z</time></trkpt><trkpt lat="43.442584096075535" lon="11.35500305227119"><ele>345.5</ele><time>2026-04-11T06:14:54.999Z</time></trkpt><trkpt lat="43.442662905355625" lon="11.354923894175258"><ele>342.3333333333333</ele><time>2026-04-11T06:14:55.999Z</time></trkpt><trkpt lat="43.44272768373197" lon="11.354848540900042"><ele>339.1666666666667</ele><time>2026-04-11T06:14:56.999Z</time></trkpt><trkpt lat="43.44279380566592" lon="11.354782974235317"><ele>336.0</ele><time>2026-04-11T06:14:57.999Z</time></trkpt><trkpt lat="43.442883321070596" lon="11.354738928784064"><ele>335.6</ele><time>2026-04-11T06:14:58.999Z</time></trkpt><trkpt lat="43.44297883309071" lon="11.354676841890416"><ele>335.20000000000005</ele><time>2026-04-11T06:14:59.999Z</time></trkpt><trkpt lat="43.44307581757399" lon="11.354642531449404"><ele>334.79999999999995</ele><time>2026-04-11T06:15:00.999Z</time></trkpt><trkpt lat="43.44316333156012" lon="11.354597911615933"><ele>334.4</ele><time>2026-04-11T06:15:01.999Z</time></trkpt><trkpt lat="43.44324236407278" lon="11.35452707775764"><ele>334.0</ele><time>2026-04-11T06:15:02.999Z</time></trkpt><trkpt lat="43.44336251658509" lon="11.354485853268404"><ele>334.0</ele><time>2026-04-11T06:15:03.999Z</time></trkpt><trkpt lat="43.4434712445545" lon="11.354400623178623"><ele>334.0</ele><time>2026-04-11T06:15:04.999Z</time></trkpt><trkpt lat="43.44354476094744" lon="11.354349832647506"><ele>334.0</ele><time>2026-04-11T06:15:05.999Z</time></trkpt><trkpt lat="43.443609670934805" lon="11.354277534409425"><ele>334.0</ele><time>2026-04-11T06:15:06.999Z</time></trkpt><trkpt lat="43.44373200028948" lon="11.354217145051386"><ele>334.0</ele><time>2026-04-11T06:15:07.999Z</time></trkpt><trkpt lat="43.44381993550689" lon="11.354158487097223"><ele>332.3333333333333</ele><time>2026-04-11T06:15:08.999Z</time></trkpt><trkpt lat="43.44388803891631" lon="11.354118436978023"><ele>330.66666666666663</ele><time>2026-04-11T06:15:09.999Z</time></trkpt><trkpt lat="43.44396781024186" lon="11.354064276212203"><ele>329.0</ele><time>2026-04-11T06:15:10.999Z</time></trkpt><trkpt lat="43.444030918868094" lon="11.354018501726882"><ele>327.3333333333333</ele><time>2026-04-11T06:15:11.999Z</time></trkpt><trkpt lat="43.44409832147239" lon="11.353982109472794"><ele>325.6666666666667</ele><time>2026-04-11T06:15:12.999Z</time></trkpt><trkpt lat="43.44417336176958" lon="11.353949393490735"><ele>324.0</ele><time>2026-04-11T06:15:13.999Z</time></trkpt><trkpt lat="43.44424122796654" lon="11.3539149753305"><ele>324.0</ele><time>2026-04-11T06:15:14.999Z</time></trkpt><trkpt lat="43.44431269278457" lon="11.35389299935467"><ele>324.0</ele><time>2026-04-11T06:15:15.999Z</time></trkpt><trkpt lat="43.44437982586635" lon="11.353874428502143"><ele>324.0</ele><time>2026-04-11T06:15:16.999Z</time></trkpt><trkpt lat="43.444506215603965" lon="11.353848043534944"><ele>324.0</ele><time>2026-04-11T06:15:18.999Z</time></trkpt><trkpt lat="43.444567402277656" lon="11.353814994480762"><ele>324.0</ele><time>2026-04-11T06:15:19.999Z</time></trkpt><trkpt lat="43.444642116427474" lon="11.353794584335139"><ele>324.0</ele><time>2026-04-11T06:15:20.999Z</time></trkpt><trkpt lat="43.44470997739014" lon="11.353768933452356"><ele>324.5</ele><time>2026-04-11T06:15:21.999Z</time></trkpt><trkpt lat="43.44483083011486" lon="11.35374402457327"><ele>325.0</ele><time>2026-04-11T06:15:23.999Z</time></trkpt><trkpt lat="43.444903939302044" lon="11.35379879626636"><ele>325.5</ele><time>2026-04-11T06:15:24.999Z</time></trkpt><trkpt lat="43.444943575873374" lon="11.353878161678457"><ele>326.0</ele><time>2026-04-11T06:15:25.999Z</time></trkpt><trkpt lat="43.44491687506943" lon="11.35395743411998"><ele>326.5</ele><time>2026-04-11T06:15:26.999Z</time></trkpt><trkpt lat="43.44488551199194" lon="11.354064561582728"><ele>327.0</ele><time>2026-04-11T06:15:28.999Z</time></trkpt><trkpt lat="43.44493221812887" lon="11.35422881895843"><ele>327.20000000000005</ele><time>2026-04-11T06:15:30.999Z</time></trkpt><trkpt lat="43.444941323403384" lon="11.35432552589656"><ele>327.4</ele><time>2026-04-11T06:15:31.999Z</time></trkpt><trkpt lat="43.44497123200962" lon="11.354437946206824"><ele>327.6</ele><time>2026-04-11T06:15:33.999Z</time></trkpt><trkpt lat="43.44502143540473" lon="11.35456423192516"><ele>327.79999999999995</ele><time>2026-04-11T06:15:35.999Z</time></trkpt><trkpt lat="43.44510187574162" lon="11.354681368753917"><ele>328.0</ele><time>2026-04-11T06:15:37.999Z</time></trkpt><trkpt lat="43.44518930172" lon="11.354794155048246"><ele>327.59999999999997</ele><time>2026-04-11T06:15:39.999Z</time></trkpt><trkpt lat="43.44528256270565" lon="11.354896532861588"><ele>327.2</ele><time>2026-04-11T06:15:42Z</time></trkpt><trkpt lat="43.4453823540421" lon="11.354994558328546"><ele>326.8</ele><time>2026-04-11T06:15:44Z</time></trkpt><trkpt lat="43.445434323278114" lon="11.355047293329605"><ele>326.4</ele><time>2026-04-11T06:15:45Z</time></trkpt><trkpt lat="43.445532497680546" lon="11.35511358838676"><ele>326.0</ele><time>2026-04-11T06:15:47Z</time></trkpt><trkpt lat="43.44564330998276" lon="11.355143087843729"><ele>327.20000000000005</ele><time>2026-04-11T06:15:49Z</time></trkpt><trkpt lat="43.44574484140518" lon="11.355191345393902"><ele>328.40000000000003</ele><time>2026-04-11T06:15:51Z</time></trkpt><trkpt lat="43.44583864237186" lon="11.355198191545835"><ele>329.6</ele><time>2026-04-11T06:15:53Z</time></trkpt><trkpt lat="43.44591819181994" lon="11.355213143698359"><ele>330.8</ele><time>2026-04-11T06:15:55Z</time></trkpt><trkpt lat="43.44600762113933" lon="11.355223382916794"><ele>332.0</ele><time>2026-04-11T06:15:57Z</time></trkpt><trkpt lat="43.44609767273461" lon="11.355217786307534"><ele>332.0</ele><time>2026-04-11T06:15:59Z</time></trkpt><trkpt lat="43.44618617917912" lon="11.35525938453037"><ele>332.0</ele><time>2026-04-11T06:16:01Z</time></trkpt><trkpt lat="43.44627876135385" lon="11.355300453261524"><ele>332.0</ele><time>2026-04-11T06:16:03Z</time></trkpt><trkpt lat="43.44637184221762" lon="11.35531006036396"><ele>332.0</ele><time>2026-04-11T06:16:05Z</time></trkpt><trkpt lat="43.44646710628185" lon="11.355332152231407"><ele>332.0</ele><time>2026-04-11T06:16:07Z</time></trkpt><trkpt lat="43.4465591441114" lon="11.35534886030607"><ele>332.83333333333337</ele><time>2026-04-11T06:16:09Z</time></trkpt><trkpt lat="43.44666162200928" lon="11.355349722953678"><ele>333.6666666666667</ele><time>2026-04-11T06:16:11Z</time></trkpt><trkpt lat="43.44674168656978" lon="11.355373869486503"><ele>334.5</ele><time>2026-04-11T06:16:13Z</time></trkpt><trkpt lat="43.44679483144721" lon="11.355424279567684"><ele>335.3333333333333</ele><time>2026-04-11T06:16:15Z</time></trkpt><trkpt lat="43.44689668676456" lon="11.35541880338199"><ele>336.16666666666663</ele><time>2026-04-11T06:16:17Z</time></trkpt><trkpt lat="43.44699391290846" lon="11.355437694406502"><ele>337.0</ele><time>2026-04-11T06:16:19Z</time></trkpt><trkpt lat="43.447072220297095" lon="11.355433670812687"><ele>336.0</ele><time>2026-04-11T06:16:21Z</time></trkpt><trkpt lat="43.44716867258423" lon="11.355439594080696"><ele>335.0</ele><time>2026-04-11T06:16:23Z</time></trkpt><trkpt lat="43.44725439205507" lon="11.355477440981796"><ele>334.0</ele><time>2026-04-11T06:16:26Z</time></trkpt><trkpt lat="43.447354966865554" lon="11.355480711688998"><ele>333.0</ele><time>2026-04-11T06:16:29Z</time></trkpt><trkpt lat="43.447418992970846" lon="11.355514973675051"><ele>332.0</ele><time>2026-04-11T06:16:31Z</time></trkpt><trkpt lat="43.44749059930072" lon="11.355528679247177"><ele>331.0</ele><time>2026-04-11T06:16:33Z</time></trkpt><trkpt lat="43.44756859610365" lon="11.35558163398756"><ele>331.0</ele><time>2026-04-11T06:16:35Z</time></trkpt><trkpt lat="43.4476513758038" lon="11.355613239434295"><ele>331.0</ele><time>2026-04-11T06:16:37Z</time></trkpt><trkpt lat="43.44773274521003" lon="11.355661766862974"><ele>331.0</ele><time>2026-04-11T06:16:39Z</time></trkpt><trkpt lat="43.44781469743394" lon="11.355717277523425"><ele>331.0</ele><time>2026-04-11T06:16:41Z</time></trkpt><trkpt lat="43.447901946428054" lon="11.355769363191225"><ele>331.0</ele><time>2026-04-11T06:16:42.999Z</time></trkpt><trkpt lat="43.4479919029137" lon="11.355819142604158"><ele>332.0</ele><time>2026-04-11T06:16:44.999Z</time></trkpt><trkpt lat="43.448089623188515" lon="11.355877428957747"><ele>333.0</ele><time>2026-04-11T06:16:46.999Z</time></trkpt><trkpt lat="43.4481483678798" lon="11.355909173974812"><ele>334.0</ele><time>2026-04-11T06:16:47.999Z</time></trkpt><trkpt lat="43.44826301355332" lon="11.35596313524815"><ele>335.0</ele><time>2026-04-11T06:16:49.999Z</time></trkpt><trkpt lat="43.44833390076542" lon="11.356037051956722"><ele>336.0</ele><time>2026-04-11T06:16:50.999Z</time></trkpt><trkpt lat="43.44844174616929" lon="11.356072311046814"><ele>336.0</ele><time>2026-04-11T06:16:52.999Z</time></trkpt><trkpt lat="43.44853639697416" lon="11.356131810846671"><ele>336.0</ele><time>2026-04-11T06:16:54.999Z</time></trkpt><trkpt lat="43.44863219977762" lon="11.356152916482046"><ele>336.0</ele><time>2026-04-11T06:16:56.999Z</time></trkpt><trkpt lat="43.44871305381582" lon="11.356225168972534"><ele>336.0</ele><time>2026-04-11T06:16:58.999Z</time></trkpt><trkpt lat="43.44877651568052" lon="11.35627805475213"><ele>336.0</ele><time>2026-04-11T06:17:01.999Z</time></trkpt><trkpt lat="43.44885718262139" lon="11.356320859154334"><ele>335.42857142857144</ele><time>2026-04-11T06:17:03.999Z</time></trkpt><trkpt lat="43.44891750986192" lon="11.356354710984876"><ele>334.8571428571429</ele><time>2026-04-11T06:17:05.999Z</time></trkpt><trkpt lat="43.448975963376824" lon="11.356405655632352"><ele>334.2857142857143</ele><time>2026-04-11T06:17:07.999Z</time></trkpt><trkpt lat="43.44903348198506" lon="11.356446922833038"><ele>333.7142857142857</ele><time>2026-04-11T06:17:09.999Z</time></trkpt><trkpt lat="43.44909637592115" lon="11.356506829058844"><ele>333.14285714285717</ele><time>2026-04-11T06:17:11.999Z</time></trkpt><trkpt lat="43.44915291073627" lon="11.356556337358393"><ele>332.57142857142856</ele><time>2026-04-11T06:17:13.999Z</time></trkpt><trkpt lat="43.44921118750075" lon="11.35660016392253"><ele>332.0</ele><time>2026-04-11T06:17:15.999Z</time></trkpt><trkpt lat="43.449291512396194" lon="11.356634854737843"><ele>332.0</ele><time>2026-04-11T06:17:18.999Z</time></trkpt><trkpt lat="43.449369449404394" lon="11.356676393837967"><ele>332.0</ele><time>2026-04-11T06:17:21.999Z</time></trkpt><trkpt lat="43.44945523755666" lon="11.356700974232051"><ele>332.0</ele><time>2026-04-11T06:17:24.999Z</time></trkpt><trkpt lat="43.44953694460163" lon="11.356704969209535"><ele>332.0</ele><time>2026-04-11T06:17:27.999Z</time></trkpt><trkpt lat="43.44961586801039" lon="11.356729107649635"><ele>332.0</ele><time>2026-04-11T06:17:30.999Z</time></trkpt><trkpt lat="43.44967814385043" lon="11.356752280548557"><ele>332.0</ele><time>2026-04-11T06:17:33.999Z</time></trkpt><trkpt lat="43.44974599453115" lon="11.356765282784497"><ele>333.1428571428571</ele><time>2026-04-11T06:17:35.999Z</time></trkpt><trkpt lat="43.449818868148554" lon="11.356780893526102"><ele>334.28571428571433</ele><time>2026-04-11T06:17:38.999Z</time></trkpt><trkpt lat="43.4498974723103" lon="11.356782099591042"><ele>335.42857142857144</ele><time>2026-04-11T06:17:41.999Z</time></trkpt><trkpt lat="43.44997129733072" lon="11.356781898119046"><ele>336.57142857142856</ele><time>2026-04-11T06:17:44.999Z</time></trkpt><trkpt lat="43.450037788064165" lon="11.356755027852412"><ele>337.71428571428567</ele><time>2026-04-11T06:17:48Z</time></trkpt><trkpt lat="43.450105096890404" lon="11.356720177244403"><ele>338.8571428571429</ele><time>2026-04-11T06:17:52Z</time></trkpt><trkpt lat="43.450163592148336" lon="11.356682254465946"><ele>340.0</ele><time>2026-04-11T06:17:55Z</time></trkpt><trkpt lat="43.45024227120887" lon="11.356612746461664"><ele>340.0</ele><time>2026-04-11T06:17:58Z</time></trkpt><trkpt lat="43.45030124231213" lon="11.356570969876852"><ele>340.0</ele><time>2026-04-11T06:18:00Z</time></trkpt><trkpt lat="43.45037071067214" lon="11.356533777591508"><ele>340.0</ele><time>2026-04-11T06:18:02Z</time></trkpt><trkpt lat="43.450424328825875" lon="11.356481110881614"><ele>340.0</ele><time>2026-04-11T06:18:04Z</time></trkpt><trkpt lat="43.4504565517837" lon="11.356402770999681"><ele>340.0</ele><time>2026-04-11T06:18:06Z</time></trkpt><trkpt lat="43.4505283357492" lon="11.356368636608929"><ele>340.0</ele><time>2026-04-11T06:18:08Z</time></trkpt><trkpt lat="43.450578992202786" lon="11.356308910593398"><ele>340.0</ele><time>2026-04-11T06:18:11Z</time></trkpt><trkpt lat="43.4506296076952" lon="11.356249161409664"><ele>341.4</ele><time>2026-04-11T06:18:14Z</time></trkpt><trkpt lat="43.450684402258716" lon="11.356188477775223"><ele>342.8</ele><time>2026-04-11T06:18:17Z</time></trkpt><trkpt lat="43.45075137535219" lon="11.356094315333326"><ele>344.20000000000005</ele><time>2026-04-11T06:18:20Z</time></trkpt><trkpt lat="43.45084929071177" lon="11.35602138612716"><ele>345.6</ele><time>2026-04-11T06:18:22Z</time></trkpt><trkpt lat="43.45093197425581" lon="11.355903632376949"><ele>347.0</ele><time>2026-04-11T06:18:24Z</time></trkpt><trkpt lat="43.451026855262405" lon="11.355782442279235"><ele>347.0</ele><time>2026-04-11T06:18:26Z</time></trkpt><trkpt lat="43.451075979665035" lon="11.355726811944221"><ele>347.0</ele><time>2026-04-11T06:18:27Z</time></trkpt><trkpt lat="43.45120009329138" lon="11.35561377125465"><ele>347.0</ele><time>2026-04-11T06:18:29Z</time></trkpt><trkpt lat="43.45127302626177" lon="11.355578168862941"><ele>347.0</ele><time>2026-04-11T06:18:30Z</time></trkpt><trkpt lat="43.45138983752814" lon="11.355496582711975"><ele>347.0</ele><time>2026-04-11T06:18:32Z</time></trkpt><trkpt lat="43.45146020536404" lon="11.355458843196388"><ele>347.40000000000003</ele><time>2026-04-11T06:18:33Z</time></trkpt><trkpt lat="43.45152222475402" lon="11.355426413525398"><ele>347.8</ele><time>2026-04-11T06:18:34Z</time></trkpt><trkpt lat="43.45161296266231" lon="11.355351197958784"><ele>348.2</ele><time>2026-04-11T06:18:36Z</time></trkpt><trkpt lat="43.45172969243612" lon="11.355318501806705"><ele>348.6</ele><time>2026-04-11T06:18:38Z</time></trkpt><trkpt lat="43.451848959074894" lon="11.355295434433927"><ele>349.0</ele><time>2026-04-11T06:18:40Z</time></trkpt><trkpt lat="43.45195715124054" lon="11.355280557228847"><ele>349.0</ele><time>2026-04-11T06:18:42Z</time></trkpt><trkpt lat="43.45205410018595" lon="11.355245283440201"><ele>349.0</ele><time>2026-04-11T06:18:44Z</time></trkpt><trkpt lat="43.4521519082026" lon="11.355201354431129"><ele>349.0</ele><time>2026-04-11T06:18:46Z</time></trkpt><trkpt lat="43.45227184900935" lon="11.355143459870861"><ele>349.0</ele><time>2026-04-11T06:18:48Z</time></trkpt><trkpt lat="43.45238280278532" lon="11.355094914705832"><ele>349.0</ele><time>2026-04-11T06:18:50Z</time></trkpt><trkpt lat="43.45248203414883" lon="11.355045856898052"><ele>347.6</ele><time>2026-04-11T06:18:52Z</time></trkpt><trkpt lat="43.45259709530597" lon="11.355002876875277"><ele>346.2</ele><time>2026-04-11T06:18:54Z</time></trkpt><trkpt lat="43.45271285814348" lon="11.35492838867726"><ele>344.8</ele><time>2026-04-11T06:18:56Z</time></trkpt><trkpt lat="43.45277562039699" lon="11.354908542479796"><ele>343.40000000000003</ele><time>2026-04-11T06:18:57Z</time></trkpt><trkpt lat="43.45287615916203" lon="11.354837881576874"><ele>342.0</ele><time>2026-04-11T06:18:59Z</time></trkpt><trkpt lat="43.452988185891236" lon="11.354760270256763"><ele>342.40000000000003</ele><time>2026-04-11T06:19:00.999Z</time></trkpt><trkpt lat="43.45310196995586" lon="11.35469728004509"><ele>342.8</ele><time>2026-04-11T06:19:02.999Z</time></trkpt><trkpt lat="43.45320724510121" lon="11.354623621279885"><ele>343.2</ele><time>2026-04-11T06:19:04.999Z</time></trkpt><trkpt lat="43.453266739695266" lon="11.354592089025102"><ele>343.6</ele><time>2026-04-11T06:19:05.999Z</time></trkpt><trkpt lat="43.453339067286805" lon="11.354586180779183"><ele>344.0</ele><time>2026-04-11T06:19:06.999Z</time></trkpt><trkpt lat="43.45345120072915" lon="11.35453021189693"><ele>344.0</ele><time>2026-04-11T06:19:08.999Z</time></trkpt><trkpt lat="43.4535564376859" lon="11.354471938649525"><ele>344.0</ele><time>2026-04-11T06:19:10.999Z</time></trkpt><trkpt lat="43.453648705208074" lon="11.354434002442021"><ele>344.0</ele><time>2026-04-11T06:19:12.999Z</time></trkpt><trkpt lat="43.45374521589647" lon="11.35436494477081"><ele>344.0</ele><time>2026-04-11T06:19:14.999Z</time></trkpt><trkpt lat="43.453849764306945" lon="11.354307120705583"><ele>344.0</ele><time>2026-04-11T06:19:16.999Z</time></trkpt><trkpt lat="43.453959207962725" lon="11.354247435274011"><ele>342.4</ele><time>2026-04-11T06:19:18.999Z</time></trkpt><trkpt lat="43.454053502861754" lon="11.354288693569575"><ele>340.79999999999995</ele><time>2026-04-11T06:19:20.999Z</time></trkpt><trkpt lat="43.45413682713078" lon="11.354327012786124"><ele>339.20000000000005</ele><time>2026-04-11T06:19:22.999Z</time></trkpt><trkpt lat="43.45423217962046" lon="11.354381784137836"><ele>337.6</ele><time>2026-04-11T06:19:24.999Z</time></trkpt><trkpt lat="43.454347639116065" lon="11.354385104334305"><ele>336.0</ele><time>2026-04-11T06:19:26.999Z</time></trkpt><trkpt lat="43.4544055951771" lon="11.35434777846084"><ele>336.0</ele><time>2026-04-11T06:19:27.999Z</time></trkpt><trkpt lat="43.4544884162612" lon="11.354325791290615"><ele>336.0</ele><time>2026-04-11T06:19:29.999Z</time></trkpt><trkpt lat="43.45454854247699" lon="11.354275028643023"><ele>336.0</ele><time>2026-04-11T06:19:31.999Z</time></trkpt><trkpt lat="43.45461676483862" lon="11.35421053922808"><ele>336.0</ele><time>2026-04-11T06:19:34.999Z</time></trkpt><trkpt lat="43.45466722023399" lon="11.35415560947673"><ele>336.0</ele><time>2026-04-11T06:19:38.999Z</time></trkpt><trkpt lat="43.45474197977959" lon="11.354119722902444"><ele>336.0</ele><time>2026-04-11T06:19:42.999Z</time></trkpt><trkpt lat="43.45481296821229" lon="11.354086270111631"><ele>337.0</ele><time>2026-04-11T06:19:46.999Z</time></trkpt><trkpt lat="43.45487950889935" lon="11.354065667923859"><ele>338.0</ele><time>2026-04-11T06:19:51.999Z</time></trkpt><trkpt lat="43.4549474314607" lon="11.354048893073417"><ele>339.0</ele><time>2026-04-11T06:19:56Z</time></trkpt><trkpt lat="43.45501459794632" lon="11.354027365188825"><ele>340.0</ele><time>2026-04-11T06:20:00Z</time></trkpt><trkpt lat="43.45508574330477" lon="11.354003215018064"><ele>341.0</ele><time>2026-04-11T06:20:05Z</time></trkpt><trkpt lat="43.455153988035214" lon="11.353986959446223"><ele>342.0</ele><time>2026-04-11T06:20:10Z</time></trkpt><trkpt lat="43.455213284796464" lon="11.353948889095888"><ele>343.0</ele><time>2026-04-11T06:20:13Z</time></trkpt><trkpt lat="43.455290708510994" lon="11.35392067099587"><ele>343.0</ele><time>2026-04-11T06:20:16Z</time></trkpt><trkpt lat="43.455370129360986" lon="11.353909053522637"><ele>343.0</ele><time>2026-04-11T06:20:19Z</time></trkpt><trkpt lat="43.45544965814768" lon="11.35388812174156"><ele>343.0</ele><time>2026-04-11T06:20:21Z</time></trkpt><trkpt lat="43.45554776750626" lon="11.353933169180355"><ele>343.0</ele><time>2026-04-11T06:20:23Z</time></trkpt><trkpt lat="43.45565645930537" lon="11.353990027938918"><ele>343.0</ele><time>2026-04-11T06:20:25Z</time></trkpt><trkpt lat="43.45577540931028" lon="11.354037986320717"><ele>343.3333333333333</ele><time>2026-04-11T06:20:27Z</time></trkpt><trkpt lat="43.455857231621515" lon="11.354064859305318"><ele>343.66666666666663</ele><time>2026-04-11T06:20:28Z</time></trkpt><trkpt lat="43.455934284659556" lon="11.354099959547517"><ele>344.0</ele><time>2026-04-11T06:20:29Z</time></trkpt><trkpt lat="43.45601869756069" lon="11.354131639707475"><ele>344.3333333333333</ele><time>2026-04-11T06:20:30Z</time></trkpt><trkpt lat="43.456095003539694" lon="11.35416006267144"><ele>344.6666666666667</ele><time>2026-04-11T06:20:31Z</time></trkpt><trkpt lat="43.45617320400475" lon="11.354176120487613"><ele>345.0</ele><time>2026-04-11T06:20:32Z</time></trkpt><trkpt lat="43.45624183183751" lon="11.354198855155778"><ele>345.1666666666667</ele><time>2026-04-11T06:20:33Z</time></trkpt><trkpt lat="43.4563148235945" lon="11.354205812059128"><ele>345.3333333333333</ele><time>2026-04-11T06:20:34Z</time></trkpt><trkpt lat="43.456386779083466" lon="11.354227231205737"><ele>345.5</ele><time>2026-04-11T06:20:35Z</time></trkpt><trkpt lat="43.4564628741241" lon="11.354239247504882"><ele>345.66666666666663</ele><time>2026-04-11T06:20:36Z</time></trkpt><trkpt lat="43.456595684492044" lon="11.354254793697637"><ele>345.8333333333333</ele><time>2026-04-11T06:20:38Z</time></trkpt><trkpt lat="43.45666617775617" lon="11.354267140168941"><ele>346.0</ele><time>2026-04-11T06:20:39Z</time></trkpt><trkpt lat="43.456781703436924" lon="11.354283945606351"><ele>346.0</ele><time>2026-04-11T06:20:41Z</time></trkpt><trkpt lat="43.4568841265088" lon="11.354321075457763"><ele>346.0</ele><time>2026-04-11T06:20:43Z</time></trkpt><trkpt lat="43.45697718548462" lon="11.35437966815526"><ele>346.0</ele><time>2026-04-11T06:20:45Z</time></trkpt><trkpt lat="43.45704242058055" lon="11.354361936380482"><ele>346.0</ele><time>2026-04-11T06:20:46Z</time></trkpt><trkpt lat="43.457136480596034" lon="11.354362725154454"><ele>346.0</ele><time>2026-04-11T06:20:48Z</time></trkpt><trkpt lat="43.45718971904977" lon="11.354417659534128"><ele>346.0</ele><time>2026-04-11T06:20:49Z</time></trkpt><trkpt lat="43.457300261937405" lon="11.354460419602939"><ele>346.3333333333333</ele><time>2026-04-11T06:20:51Z</time></trkpt><trkpt lat="43.457377667613216" lon="11.354520529032236"><ele>346.66666666666663</ele><time>2026-04-11T06:20:53Z</time></trkpt><trkpt lat="43.4574310130363" lon="11.35457956900748"><ele>347.0</ele><time>2026-04-11T06:20:54Z</time></trkpt><trkpt lat="43.457495114973554" lon="11.354650178247182"><ele>347.3333333333333</ele><time>2026-04-11T06:20:56Z</time></trkpt><trkpt lat="43.457596217831956" lon="11.35466617777044"><ele>347.6666666666667</ele><time>2026-04-11T06:20:58Z</time></trkpt><trkpt lat="43.457677972906424" lon="11.354677910800998"><ele>348.0</ele><time>2026-04-11T06:20:59.999Z</time></trkpt><trkpt lat="43.45776628094724" lon="11.354709663800028"><ele>348.0</ele><time>2026-04-11T06:21:01.999Z</time></trkpt><trkpt lat="43.45783183654293" lon="11.354716597666991"><ele>348.0</ele><time>2026-04-11T06:21:03.999Z</time></trkpt><trkpt lat="43.45790467181762" lon="11.35471430317917"><ele>348.0</ele><time>2026-04-11T06:21:05.999Z</time></trkpt><trkpt lat="43.457983124676794" lon="11.354740178270186"><ele>348.0</ele><time>2026-04-11T06:21:08.999Z</time></trkpt><trkpt lat="43.45806376309585" lon="11.35478770051022"><ele>348.0</ele><time>2026-04-11T06:21:10.999Z</time></trkpt><trkpt lat="43.45814270789183" lon="11.354836438365139"><ele>348.0</ele><time>2026-04-11T06:21:13.999Z</time></trkpt><trkpt lat="43.458215245767626" lon="11.354887111924963"><ele>348.4</ele><time>2026-04-11T06:21:15.999Z</time></trkpt><trkpt lat="43.45829091201113" lon="11.354947639280166"><ele>348.79999999999995</ele><time>2026-04-11T06:21:17.999Z</time></trkpt><trkpt lat="43.45835745075532" lon="11.354996322144737"><ele>349.2</ele><time>2026-04-11T06:21:19.999Z</time></trkpt><trkpt lat="43.4584236841448" lon="11.355089633965322"><ele>349.6</ele><time>2026-04-11T06:21:21.999Z</time></trkpt><trkpt lat="43.45850899721358" lon="11.35514467426978"><ele>350.0</ele><time>2026-04-11T06:21:23.999Z</time></trkpt><trkpt lat="43.45860120566741" lon="11.355196520292527"><ele>350.0</ele><time>2026-04-11T06:21:25.999Z</time></trkpt><trkpt lat="43.458657719288375" lon="11.355266330687462"><ele>350.0</ele><time>2026-04-11T06:21:27.999Z</time></trkpt><trkpt lat="43.45873759065515" lon="11.355318593596714"><ele>350.0</ele><time>2026-04-11T06:21:29.999Z</time></trkpt><trkpt lat="43.45881080471269" lon="11.35536289165985"><ele>350.0</ele><time>2026-04-11T06:21:31.999Z</time></trkpt><trkpt lat="43.45887306844711" lon="11.355407835508931"><ele>350.0</ele><time>2026-04-11T06:21:33.999Z</time></trkpt><trkpt lat="43.45895234829585" lon="11.35543347081225"><ele>350.0</ele><time>2026-04-11T06:21:35.999Z</time></trkpt><trkpt lat="43.45902118577984" lon="11.355453322717358"><ele>349.83333333333337</ele><time>2026-04-11T06:21:37.999Z</time></trkpt><trkpt lat="43.45912145602879" lon="11.355484012733148"><ele>349.6666666666667</ele><time>2026-04-11T06:21:40.999Z</time></trkpt><trkpt lat="43.45919607306758" lon="11.355496035841593"><ele>349.5</ele><time>2026-04-11T06:21:42.999Z</time></trkpt><trkpt lat="43.45926829962569" lon="11.355517723819895"><ele>349.3333333333333</ele><time>2026-04-11T06:21:44.999Z</time></trkpt><trkpt lat="43.45933991416088" lon="11.35552780672485"><ele>349.16666666666663</ele><time>2026-04-11T06:21:46.999Z</time></trkpt><trkpt lat="43.45941370456828" lon="11.355545810965374"><ele>349.0</ele><time>2026-04-11T06:21:48.999Z</time></trkpt><trkpt lat="43.45948195388957" lon="11.355561835797655"><ele>349.0</ele><time>2026-04-11T06:21:50.999Z</time></trkpt><trkpt lat="43.45957800245736" lon="11.35559687686747"><ele>349.0</ele><time>2026-04-11T06:21:53.999Z</time></trkpt><trkpt lat="43.45964237283817" lon="11.355612671869936"><ele>349.0</ele><time>2026-04-11T06:21:55.999Z</time></trkpt><trkpt lat="43.459711637619655" lon="11.355591005731883"><ele>349.0</ele><time>2026-04-11T06:21:57.999Z</time></trkpt><trkpt lat="43.45978589096272" lon="11.355613665458744"><ele>349.0</ele><time>2026-04-11T06:22:00Z</time></trkpt><trkpt lat="43.459863071109474" lon="11.3555753868283"><ele>349.0</ele><time>2026-04-11T06:22:02Z</time></trkpt><trkpt lat="43.45994752526061" lon="11.355552298258518"><ele>349.2857142857143</ele><time>2026-04-11T06:22:05Z</time></trkpt><trkpt lat="43.46001968245525" lon="11.355528925833099"><ele>349.57142857142856</ele><time>2026-04-11T06:22:08Z</time></trkpt><trkpt lat="43.460086053329256" lon="11.355505100244946"><ele>349.8571428571429</ele><time>2026-04-11T06:22:10Z</time></trkpt><trkpt lat="43.46015429694229" lon="11.355495144077318"><ele>350.1428571428571</ele><time>2026-04-11T06:22:12Z</time></trkpt><trkpt lat="43.46022829950301" lon="11.355515783226707"><ele>350.42857142857144</ele><time>2026-04-11T06:22:14Z</time></trkpt><trkpt lat="43.46029846733439" lon="11.355549227902145"><ele>350.7142857142857</ele><time>2026-04-11T06:22:16Z</time></trkpt><trkpt lat="43.4603679811468" lon="11.355565597882348"><ele>351.0</ele><time>2026-04-11T06:22:18Z</time></trkpt><trkpt lat="43.46046031024455" lon="11.355590873436403"><ele>351.5</ele><time>2026-04-11T06:22:21Z</time></trkpt><trkpt lat="43.460527337572174" lon="11.355605523950622"><ele>352.0</ele><time>2026-04-11T06:22:23Z</time></trkpt><trkpt lat="43.46059234944444" lon="11.355618357519706"><ele>352.5</ele><time>2026-04-11T06:22:25Z</time></trkpt><trkpt lat="43.46068032004325" lon="11.355629858383196"><ele>353.0</ele><time>2026-04-11T06:22:28Z</time></trkpt><trkpt lat="43.460768993503784" lon="11.355631692094882"><ele>353.5</ele><time>2026-04-11T06:22:31Z</time></trkpt><trkpt lat="43.460848573968114" lon="11.35564070602125"><ele>354.0</ele><time>2026-04-11T06:22:34Z</time></trkpt><trkpt lat="43.46091815787173" lon="11.35564247952843"><ele>354.0</ele><time>2026-04-11T06:22:37Z</time></trkpt><trkpt lat="43.460982075626866" lon="11.35562528626813"><ele>354.0</ele><time>2026-04-11T06:22:40Z</time></trkpt><trkpt lat="43.46104656294474" lon="11.355598907593775"><ele>354.0</ele><time>2026-04-11T06:22:43Z</time></trkpt><trkpt lat="43.461110775448724" lon="11.355586618517835"><ele>354.0</ele><time>2026-04-11T06:22:46Z</time></trkpt><trkpt lat="43.461190598828125" lon="11.355563970369026"><ele>354.0</ele><time>2026-04-11T06:22:50Z</time></trkpt><trkpt lat="43.461270597070516" lon="11.355555002326781"><ele>354.0</ele><time>2026-04-11T06:22:54Z</time></trkpt><trkpt lat="43.4613333706801" lon="11.355540847385488"><ele>354.0</ele><time>2026-04-11T06:22:57Z</time></trkpt><trkpt lat="43.46140937150639" lon="11.355568694540414"><ele>354.3333333333333</ele><time>2026-04-11T06:23:00Z</time></trkpt><trkpt lat="43.46146908193372" lon="11.355601069568714"><ele>354.6666666666667</ele><time>2026-04-11T06:23:02Z</time></trkpt><trkpt lat="43.46154572183009" lon="11.355662734682895"><ele>355.0</ele><time>2026-04-11T06:23:05Z</time></trkpt><trkpt lat="43.461612159772606" lon="11.355687306465096"><ele>355.33333333333337</ele><time>2026-04-11T06:23:06Z</time></trkpt><trkpt lat="43.46172491177553" lon="11.355772125106109"><ele>355.6666666666667</ele><time>2026-04-11T06:23:08.999Z</time></trkpt><trkpt lat="43.46178521857604" lon="11.355829830329952"><ele>356.0</ele><time>2026-04-11T06:23:09.999Z</time></trkpt><trkpt lat="43.46184947506571" lon="11.355891104764018"><ele>356.0</ele><time>2026-04-11T06:23:10.999Z</time></trkpt><trkpt lat="43.46191369372009" lon="11.355943239718872"><ele>356.0</ele><time>2026-04-11T06:23:11.999Z</time></trkpt><trkpt lat="43.46197640920659" lon="11.355996351107493"><ele>356.0</ele><time>2026-04-11T06:23:12.999Z</time></trkpt><trkpt lat="43.462034844930194" lon="11.356046685434688"><ele>356.0</ele><time>2026-04-11T06:23:13.999Z</time></trkpt><trkpt lat="43.46214450284676" lon="11.356140619619508"><ele>356.0</ele><time>2026-04-11T06:23:15.999Z</time></trkpt><trkpt lat="43.46223500602761" lon="11.356235288155325"><ele>355.8</ele><time>2026-04-11T06:23:17.999Z</time></trkpt><trkpt lat="43.462291687730904" lon="11.356282800517892"><ele>355.6</ele><time>2026-04-11T06:23:18.999Z</time></trkpt><trkpt lat="43.4623540088714" lon="11.356301568905764"><ele>355.4</ele><time>2026-04-11T06:23:19.999Z</time></trkpt><trkpt lat="43.46243360672932" lon="11.356390550733755"><ele>355.2</ele><time>2026-04-11T06:23:21.999Z</time></trkpt><trkpt lat="43.46253189740343" lon="11.356461834190698"><ele>355.0</ele><time>2026-04-11T06:23:23.999Z</time></trkpt><trkpt lat="43.462625532467435" lon="11.356536447967894"><ele>355.0</ele><time>2026-04-11T06:23:25.999Z</time></trkpt><trkpt lat="43.46271049907696" lon="11.356599274776528"><ele>355.0</ele><time>2026-04-11T06:23:27.999Z</time></trkpt><trkpt lat="43.46279466311432" lon="11.356702982677911"><ele>355.0</ele><time>2026-04-11T06:23:29.999Z</time></trkpt><trkpt lat="43.462874234414365" lon="11.356779826644749"><ele>355.0</ele><time>2026-04-11T06:23:31.999Z</time></trkpt><trkpt lat="43.46295718687105" lon="11.35687331165239"><ele>355.0</ele><time>2026-04-11T06:23:33.999Z</time></trkpt><trkpt lat="43.46304432164358" lon="11.35695611263934"><ele>357.16666666666663</ele><time>2026-04-11T06:23:35.999Z</time></trkpt><trkpt lat="43.46312745248998" lon="11.357001657024743"><ele>359.3333333333333</ele><time>2026-04-11T06:23:37.999Z</time></trkpt><trkpt lat="43.46321466828122" lon="11.357007941922319"><ele>361.5</ele><time>2026-04-11T06:23:39.999Z</time></trkpt><trkpt lat="43.46328336944552" lon="11.357009170091514"><ele>363.6666666666667</ele><time>2026-04-11T06:23:41.999Z</time></trkpt><trkpt lat="43.46336692658245" lon="11.357040029033627"><ele>365.83333333333337</ele><time>2026-04-11T06:23:45.999Z</time></trkpt><trkpt lat="43.46343519107342" lon="11.357062930766622"><ele>368.0</ele><time>2026-04-11T06:23:49.999Z</time></trkpt><trkpt lat="43.46350271109651" lon="11.357065529386311"><ele>368.0</ele><time>2026-04-11T06:23:52.999Z</time></trkpt><trkpt lat="43.46356943356209" lon="11.357090845308885"><ele>368.0</ele><time>2026-04-11T06:23:55.999Z</time></trkpt><trkpt lat="43.46364691541904" lon="11.357082554122956"><ele>368.0</ele><time>2026-04-11T06:23:58.999Z</time></trkpt><trkpt lat="43.46371855718662" lon="11.357087994499564"><ele>368.0</ele><time>2026-04-11T06:24:00.999Z</time></trkpt><trkpt lat="43.46380106168668" lon="11.357097585847013"><ele>368.0</ele><time>2026-04-11T06:24:03.999Z</time></trkpt><trkpt lat="43.46387918059147" lon="11.357139823710025"><ele>368.0</ele><time>2026-04-11T06:24:07Z</time></trkpt><trkpt lat="43.463953019141705" lon="11.357166014762777"><ele>367.33333333333337</ele><time>2026-04-11T06:24:09Z</time></trkpt><trkpt lat="43.46401624706758" lon="11.357210090940459"><ele>366.6666666666667</ele><time>2026-04-11T06:24:11Z</time></trkpt><trkpt lat="43.46410366547939" lon="11.357241438214407"><ele>366.0</ele><time>2026-04-11T06:24:14Z</time></trkpt><trkpt lat="43.46418155526743" lon="11.3573129293681"><ele>365.3333333333333</ele><time>2026-04-11T06:24:17Z</time></trkpt><trkpt lat="43.464251727638484" lon="11.357347015393826"><ele>364.66666666666663</ele><time>2026-04-11T06:24:19Z</time></trkpt><trkpt lat="43.46430999139184" lon="11.35742640209188"><ele>364.0</ele><time>2026-04-11T06:24:21Z</time></trkpt><trkpt lat="43.46438996871934" lon="11.357504080112395"><ele>364.0</ele><time>2026-04-11T06:24:23Z</time></trkpt><trkpt lat="43.46445725831609" lon="11.357612210115077"><ele>364.0</ele><time>2026-04-11T06:24:25Z</time></trkpt><trkpt lat="43.46454083269249" lon="11.357701084099268"><ele>364.0</ele><time>2026-04-11T06:24:27Z</time></trkpt><trkpt lat="43.46459118418141" lon="11.357795564465622"><ele>364.0</ele><time>2026-04-11T06:24:29Z</time></trkpt><trkpt lat="43.46464756458725" lon="11.357907707712407"><ele>364.0</ele><time>2026-04-11T06:24:31Z</time></trkpt><trkpt lat="43.46469071586652" lon="11.35801088428222"><ele>365.0</ele><time>2026-04-11T06:24:33Z</time></trkpt><trkpt lat="43.46472807629022" lon="11.358107390039168"><ele>366.0</ele><time>2026-04-11T06:24:35Z</time></trkpt><trkpt lat="43.464757271610445" lon="11.358220144500391"><ele>367.0</ele><time>2026-04-11T06:24:37Z</time></trkpt><trkpt lat="43.464800310797536" lon="11.35834565702887"><ele>368.0</ele><time>2026-04-11T06:24:39Z</time></trkpt><trkpt lat="43.46483343501938" lon="11.358480830585473"><ele>369.0</ele><time>2026-04-11T06:24:41Z</time></trkpt><trkpt lat="43.464877363160774" lon="11.35862403082582"><ele>369.0</ele><time>2026-04-11T06:24:43Z</time></trkpt><trkpt lat="43.46490740642959" lon="11.358763185666058"><ele>369.0</ele><time>2026-04-11T06:24:45Z</time></trkpt><trkpt lat="43.46492154522514" lon="11.35890067120485"><ele>369.0</ele><time>2026-04-11T06:24:47Z</time></trkpt><trkpt lat="43.46493062668288" lon="11.359031497299577"><ele>369.0</ele><time>2026-04-11T06:24:49Z</time></trkpt><trkpt lat="43.464959337443766" lon="11.359142530685133"><ele>369.0</ele><time>2026-04-11T06:24:51Z</time></trkpt><trkpt lat="43.46497484752066" lon="11.359282051195029"><ele>368.2</ele><time>2026-04-11T06:24:53Z</time></trkpt><trkpt lat="43.465008741477966" lon="11.359414467393478"><ele>367.4</ele><time>2026-04-11T06:24:55Z</time></trkpt><trkpt lat="43.465039809313474" lon="11.359520442707636"><ele>366.6</ele><time>2026-04-11T06:24:57Z</time></trkpt><trkpt lat="43.46506106887025" lon="11.359666540118313"><ele>365.8</ele><time>2026-04-11T06:24:59Z</time></trkpt><trkpt lat="43.46511213944185" lon="11.359792571254344"><ele>365.0</ele><time>2026-04-11T06:25:01Z</time></trkpt><trkpt lat="43.465159796056966" lon="11.359919389089939"><ele>364.6</ele><time>2026-04-11T06:25:03Z</time></trkpt><trkpt lat="43.465214175222854" lon="11.360019482044262"><ele>364.2</ele><time>2026-04-11T06:25:05Z</time></trkpt><trkpt lat="43.46529111439092" lon="11.360110898070035"><ele>363.79999999999995</ele><time>2026-04-11T06:25:07Z</time></trkpt><trkpt lat="43.465345201811736" lon="11.360195126425907"><ele>363.4</ele><time>2026-04-11T06:25:09Z</time></trkpt><trkpt lat="43.465429883735595" lon="11.360266828432986"><ele>363.0</ele><time>2026-04-11T06:25:11Z</time></trkpt><trkpt lat="43.46548445610077" lon="11.360373470312934"><ele>364.1666666666667</ele><time>2026-04-11T06:25:13Z</time></trkpt><trkpt lat="43.46554042759509" lon="11.360482577546382"><ele>365.3333333333333</ele><time>2026-04-11T06:25:15Z</time></trkpt><trkpt lat="43.465579865996304" lon="11.360588734951842"><ele>366.5</ele><time>2026-04-11T06:25:17Z</time></trkpt><trkpt lat="43.4656222961974" lon="11.3606535492777"><ele>367.66666666666663</ele><time>2026-04-11T06:25:18.999Z</time></trkpt><trkpt lat="43.46566889722822" lon="11.36074360168399"><ele>368.8333333333333</ele><time>2026-04-11T06:25:20.999Z</time></trkpt><trkpt lat="43.46570623771566" lon="11.36082119465792"><ele>370.0</ele><time>2026-04-11T06:25:22.999Z</time></trkpt><trkpt lat="43.46577021342094" lon="11.360892390136748"><ele>369.99999999999994</ele><time>2026-04-11T06:25:24.999Z</time></trkpt><trkpt lat="43.4658228621603" lon="11.360950726288381"><ele>370.0</ele><time>2026-04-11T06:25:26.999Z</time></trkpt><trkpt lat="43.465880909225675" lon="11.361013641523407"><ele>370.0</ele><time>2026-04-11T06:25:28.999Z</time></trkpt><trkpt lat="43.46595934986717" lon="11.361045532413165"><ele>370.0</ele><time>2026-04-11T06:25:31.999Z</time></trkpt><trkpt lat="43.46602536172006" lon="11.361079746339852"><ele>370.0</ele><time>2026-04-11T06:25:34.999Z</time></trkpt><trkpt lat="43.46607986577002" lon="11.361144430944616"><ele>369.99999999999994</ele><time>2026-04-11T06:25:38.999Z</time></trkpt><trkpt lat="43.46612912435247" lon="11.361232641712125"><ele>370.0</ele><time>2026-04-11T06:25:42.999Z</time></trkpt><trkpt lat="43.46616779329159" lon="11.36132395714295"><ele>369.5</ele><time>2026-04-11T06:25:45.999Z</time></trkpt><trkpt lat="43.46619276612282" lon="11.361407331546522"><ele>369.0</ele><time>2026-04-11T06:25:47.999Z</time></trkpt><trkpt lat="43.46621697129577" lon="11.361525637138751"><ele>368.5</ele><time>2026-04-11T06:25:50.999Z</time></trkpt><trkpt lat="43.46625681731778" lon="11.361622429857148"><ele>368.0</ele><time>2026-04-11T06:25:52.999Z</time></trkpt><trkpt lat="43.466289552139315" lon="11.361733458652733"><ele>367.5</ele><time>2026-04-11T06:25:54.999Z</time></trkpt><trkpt lat="43.46631529601797" lon="11.3618586930994"><ele>367.0</ele><time>2026-04-11T06:25:56.999Z</time></trkpt><trkpt lat="43.4663614688356" lon="11.361971572990186"><ele>367.40000000000003</ele><time>2026-04-11T06:25:58.999Z</time></trkpt><trkpt lat="43.46640059777212" lon="11.362092449825886"><ele>367.8</ele><time>2026-04-11T06:26:00.999Z</time></trkpt><trkpt lat="43.46644989822101" lon="11.362217141280492"><ele>368.2</ele><time>2026-04-11T06:26:02.999Z</time></trkpt><trkpt lat="43.46650222449475" lon="11.362336935118872"><ele>368.6</ele><time>2026-04-11T06:26:04.999Z</time></trkpt><trkpt lat="43.46654997318961" lon="11.36244591581934"><ele>369.0</ele><time>2026-04-11T06:26:06.999Z</time></trkpt><trkpt lat="43.46661256016924" lon="11.36256607746344"><ele>369.0</ele><time>2026-04-11T06:26:08.999Z</time></trkpt><trkpt lat="43.466679576797326" lon="11.362656610195925"><ele>369.0</ele><time>2026-04-11T06:26:10.999Z</time></trkpt><trkpt lat="43.466749228072224" lon="11.362762494324596"><ele>369.0</ele><time>2026-04-11T06:26:13Z</time></trkpt><trkpt lat="43.46682702852157" lon="11.36285886910349"><ele>369.0</ele><time>2026-04-11T06:26:15Z</time></trkpt><trkpt lat="43.4668616662996" lon="11.36300096907825"><ele>369.0</ele><time>2026-04-11T06:26:17Z</time></trkpt><trkpt lat="43.46683836154083" lon="11.363150453600456"><ele>368.4</ele><time>2026-04-11T06:26:19Z</time></trkpt><trkpt lat="43.46680815449239" lon="11.363283611761668"><ele>367.79999999999995</ele><time>2026-04-11T06:26:21Z</time></trkpt><trkpt lat="43.46678647345809" lon="11.363416993575742"><ele>367.20000000000005</ele><time>2026-04-11T06:26:23Z</time></trkpt><trkpt lat="43.466749792900806" lon="11.363555111620716"><ele>366.6</ele><time>2026-04-11T06:26:25Z</time></trkpt><trkpt lat="43.466719110514084" lon="11.363680522473029"><ele>366.0</ele><time>2026-04-11T06:26:27Z</time></trkpt><trkpt lat="43.4666960956956" lon="11.36380711797095"><ele>366.5</ele><time>2026-04-11T06:26:29Z</time></trkpt><trkpt lat="43.466660083896" lon="11.363922055368494"><ele>367.0</ele><time>2026-04-11T06:26:31Z</time></trkpt><trkpt lat="43.466636619540196" lon="11.364040781707752"><ele>367.5</ele><time>2026-04-11T06:26:33Z</time></trkpt><trkpt lat="43.46661218482776" lon="11.364153178763376"><ele>368.0</ele><time>2026-04-11T06:26:35Z</time></trkpt><trkpt lat="43.46659053877174" lon="11.364265491904838"><ele>368.5</ele><time>2026-04-11T06:26:37Z</time></trkpt><trkpt lat="43.46656221104697" lon="11.364367923383627"><ele>369.0</ele><time>2026-04-11T06:26:39Z</time></trkpt><trkpt lat="43.46654958300621" lon="11.364475726411245"><ele>369.0</ele><time>2026-04-11T06:26:41Z</time></trkpt><trkpt lat="43.46651543692968" lon="11.364561089500127"><ele>369.0</ele><time>2026-04-11T06:26:43Z</time></trkpt><trkpt lat="43.46650208164796" lon="11.36465761809695"><ele>369.0</ele><time>2026-04-11T06:26:45Z</time></trkpt><trkpt lat="43.4664782370772" lon="11.364751894401262"><ele>369.0</ele><time>2026-04-11T06:26:47Z</time></trkpt><trkpt lat="43.46646207246435" lon="11.364841244178743"><ele>369.0</ele><time>2026-04-11T06:26:49Z</time></trkpt><trkpt lat="43.4664417228893" lon="11.364951612534417"><ele>369.0</ele><time>2026-04-11T06:26:51Z</time></trkpt><trkpt lat="43.46642095644625" lon="11.36504214776217"><ele>369.0</ele><time>2026-04-11T06:26:53Z</time></trkpt><trkpt lat="43.46639705160343" lon="11.365146294428113"><ele>369.1428571428571</ele><time>2026-04-11T06:26:55Z</time></trkpt><trkpt lat="43.466381012777944" lon="11.365253552847195"><ele>369.2857142857143</ele><time>2026-04-11T06:26:57Z</time></trkpt><trkpt lat="43.46635403879358" lon="11.36534078502007"><ele>369.42857142857144</ele><time>2026-04-11T06:26:59Z</time></trkpt><trkpt lat="43.46632887456785" lon="11.365435086623398"><ele>369.57142857142856</ele><time>2026-04-11T06:27:01Z</time></trkpt><trkpt lat="43.46631269509519" lon="11.3655417231287"><ele>369.7142857142857</ele><time>2026-04-11T06:27:03Z</time></trkpt><trkpt lat="43.46629377544455" lon="11.365634402253963"><ele>369.85714285714283</ele><time>2026-04-11T06:27:05Z</time></trkpt><trkpt lat="43.466271715137054" lon="11.365725634690826"><ele>370.0</ele><time>2026-04-11T06:27:07Z</time></trkpt><trkpt lat="43.46625888412285" lon="11.36581659205294"><ele>369.8333333333333</ele><time>2026-04-11T06:27:09Z</time></trkpt><trkpt lat="43.466241307224834" lon="11.365901671983265"><ele>369.66666666666663</ele><time>2026-04-11T06:27:11Z</time></trkpt><trkpt lat="43.46620879928481" lon="11.366022903984165"><ele>369.5</ele><time>2026-04-11T06:27:14Z</time></trkpt><trkpt lat="43.46619272627266" lon="11.366108937762105"><ele>369.3333333333333</ele><time>2026-04-11T06:27:16Z</time></trkpt><trkpt lat="43.466170040858536" lon="11.366192341673305"><ele>369.1666666666667</ele><time>2026-04-11T06:27:17.999Z</time></trkpt><trkpt lat="43.46614526296736" lon="11.366319989653375"><ele>369.0</ele><time>2026-04-11T06:27:20.999Z</time></trkpt><trkpt lat="43.46612162023324" lon="11.366440532604441"><ele>369.0</ele><time>2026-04-11T06:27:23.999Z</time></trkpt><trkpt lat="43.46609718222541" lon="11.366554943939988"><ele>369.0</ele><time>2026-04-11T06:27:26.999Z</time></trkpt><trkpt lat="43.466054797245974" lon="11.366673476772348"><ele>369.0</ele><time>2026-04-11T06:27:29.999Z</time></trkpt><trkpt lat="43.4660376631075" lon="11.366795278147949"><ele>369.0</ele><time>2026-04-11T06:27:32.999Z</time></trkpt><trkpt lat="43.46602064266012" lon="11.366883649043283"><ele>369.0</ele><time>2026-04-11T06:27:34.999Z</time></trkpt><trkpt lat="43.465991051532406" lon="11.367010654602659"><ele>369.0</ele><time>2026-04-11T06:27:37.999Z</time></trkpt><trkpt lat="43.465976722933085" lon="11.36709854122389"><ele>369.0</ele><time>2026-04-11T06:27:39.999Z</time></trkpt><trkpt lat="43.46595766581446" lon="11.36718549451384"><ele>369.0</ele><time>2026-04-11T06:27:41.999Z</time></trkpt><trkpt lat="43.46593906592746" lon="11.367274908755839"><ele>369.0</ele><time>2026-04-11T06:27:43.999Z</time></trkpt><trkpt lat="43.465923723699326" lon="11.367371814038513"><ele>369.0</ele><time>2026-04-11T06:27:45.999Z</time></trkpt><trkpt lat="43.46590129293395" lon="11.36746728763356"><ele>369.0</ele><time>2026-04-11T06:27:47.999Z</time></trkpt><trkpt lat="43.46587936764928" lon="11.367570743509239"><ele>369.0</ele><time>2026-04-11T06:27:49.999Z</time></trkpt><trkpt lat="43.465860072343496" lon="11.367687096522648"><ele>369.0</ele><time>2026-04-11T06:27:51.999Z</time></trkpt><trkpt lat="43.46583467550183" lon="11.367795563988386"><ele>369.4</ele><time>2026-04-11T06:27:53.999Z</time></trkpt><trkpt lat="43.465810313972334" lon="11.367918597276692"><ele>369.79999999999995</ele><time>2026-04-11T06:27:55.999Z</time></trkpt><trkpt lat="43.465785044729294" lon="11.368034376619683"><ele>370.20000000000005</ele><time>2026-04-11T06:27:57.999Z</time></trkpt><trkpt lat="43.46576449722961" lon="11.36816487123007"><ele>370.6</ele><time>2026-04-11T06:27:59.999Z</time></trkpt><trkpt lat="43.465730443324695" lon="11.368276279362851"><ele>371.0</ele><time>2026-04-11T06:28:01.999Z</time></trkpt><trkpt lat="43.46571700057797" lon="11.36839525890782"><ele>371.5</ele><time>2026-04-11T06:28:03.999Z</time></trkpt><trkpt lat="43.46571454956918" lon="11.368518530367519"><ele>372.0</ele><time>2026-04-11T06:28:05.999Z</time></trkpt><trkpt lat="43.46574781734147" lon="11.368635060358162"><ele>372.5</ele><time>2026-04-11T06:28:07.999Z</time></trkpt><trkpt lat="43.46575302005349" lon="11.36876110416058"><ele>373.0</ele><time>2026-04-11T06:28:09.999Z</time></trkpt><trkpt lat="43.46578354638128" lon="11.368865677730746"><ele>373.5</ele><time>2026-04-11T06:28:11.999Z</time></trkpt><trkpt lat="43.46581132684748" lon="11.3689687172131"><ele>374.0</ele><time>2026-04-11T06:28:13.999Z</time></trkpt><trkpt lat="43.46584561156023" lon="11.369110270031177"><ele>374.0</ele><time>2026-04-11T06:28:15.999Z</time></trkpt><trkpt lat="43.46586837756893" lon="11.369220559287003"><ele>374.0</ele><time>2026-04-11T06:28:18Z</time></trkpt><trkpt lat="43.465897250854574" lon="11.369334399299005"><ele>374.0</ele><time>2026-04-11T06:28:20Z</time></trkpt><trkpt lat="43.465925993243005" lon="11.369452082098977"><ele>374.0</ele><time>2026-04-11T06:28:22Z</time></trkpt><trkpt lat="43.465949430863695" lon="11.369560445458639"><ele>374.0</ele><time>2026-04-11T06:28:24Z</time></trkpt><trkpt lat="43.46598575603778" lon="11.369677193765677"><ele>374.0</ele><time>2026-04-11T06:28:26Z</time></trkpt><trkpt lat="43.46602470397147" lon="11.369783117249947"><ele>374.33333333333337</ele><time>2026-04-11T06:28:28Z</time></trkpt><trkpt lat="43.4660461505784" lon="11.369890936570089"><ele>374.6666666666667</ele><time>2026-04-11T06:28:30Z</time></trkpt><trkpt lat="43.46608944763029" lon="11.36999052651528"><ele>375.0</ele><time>2026-04-11T06:28:32Z</time></trkpt><trkpt lat="43.46612988226916" lon="11.370084316333449"><ele>375.3333333333333</ele><time>2026-04-11T06:28:34Z</time></trkpt><trkpt lat="43.46617076879125" lon="11.370161045128492"><ele>375.66666666666663</ele><time>2026-04-11T06:28:36Z</time></trkpt><trkpt lat="43.466219670036935" lon="11.370264134442506"><ele>376.0</ele><time>2026-04-11T06:28:39Z</time></trkpt><trkpt lat="43.46625091437896" lon="11.370363581513208"><ele>376.0</ele><time>2026-04-11T06:28:41Z</time></trkpt><trkpt lat="43.46626688837692" lon="11.37046285981357"><ele>376.0</ele><time>2026-04-11T06:28:43Z</time></trkpt><trkpt lat="43.466311732019925" lon="11.370553590071491"><ele>376.0</ele><time>2026-04-11T06:28:45Z</time></trkpt><trkpt lat="43.466359754748375" lon="11.370646444925821"><ele>376.0</ele><time>2026-04-11T06:28:47Z</time></trkpt><trkpt lat="43.46641941355246" lon="11.370728283061247"><ele>376.0</ele><time>2026-04-11T06:28:49Z</time></trkpt><trkpt lat="43.46648897454495" lon="11.370804480034842"><ele>376.0</ele><time>2026-04-11T06:28:51Z</time></trkpt><trkpt lat="43.46654654595228" lon="11.370886489533975"><ele>376.5</ele><time>2026-04-11T06:28:53Z</time></trkpt><trkpt lat="43.466601380976826" lon="11.370979759542209"><ele>377.0</ele><time>2026-04-11T06:28:55Z</time></trkpt><trkpt lat="43.46666234689378" lon="11.371060963186316"><ele>377.5</ele><time>2026-04-11T06:28:57Z</time></trkpt><trkpt lat="43.466714249612096" lon="11.37114365741296"><ele>378.0</ele><time>2026-04-11T06:28:59Z</time></trkpt><trkpt lat="43.46678375550891" lon="11.371210334147841"><ele>378.5</ele><time>2026-04-11T06:29:01Z</time></trkpt><trkpt lat="43.46684251482201" lon="11.37127122842112"><ele>379.0</ele><time>2026-04-11T06:29:03Z</time></trkpt><trkpt lat="43.466922958048094" lon="11.371296118335964"><ele>379.0</ele><time>2026-04-11T06:29:05Z</time></trkpt><trkpt lat="43.466984879262014" lon="11.371354784382625"><ele>379.0</ele><time>2026-04-11T06:29:07Z</time></trkpt><trkpt lat="43.46705781767247" lon="11.371408127926905"><ele>379.0</ele><time>2026-04-11T06:29:09Z</time></trkpt><trkpt lat="43.46713580029759" lon="11.371429872935305"><ele>379.0</ele><time>2026-04-11T06:29:11Z</time></trkpt><trkpt lat="43.467203109465785" lon="11.37150594607921"><ele>379.0</ele><time>2026-04-11T06:29:14Z</time></trkpt><trkpt lat="43.46727653157075" lon="11.371573943521383"><ele>379.0</ele><time>2026-04-11T06:29:16Z</time></trkpt><trkpt lat="43.46733658600457" lon="11.371619918215881"><ele>379.16666666666663</ele><time>2026-04-11T06:29:18Z</time></trkpt><trkpt lat="43.46738665612244" lon="11.371689252695615"><ele>379.3333333333333</ele><time>2026-04-11T06:29:20Z</time></trkpt><trkpt lat="43.46744198520032" lon="11.371743624831172"><ele>379.5</ele><time>2026-04-11T06:29:22Z</time></trkpt><trkpt lat="43.4674963817988" lon="11.371828196672308"><ele>379.6666666666667</ele><time>2026-04-11T06:29:24Z</time></trkpt><trkpt lat="43.467553461847054" lon="11.37192800140905"><ele>379.83333333333337</ele><time>2026-04-11T06:29:26Z</time></trkpt><trkpt lat="43.46759519845594" lon="11.372032179314502"><ele>380.0</ele><time>2026-04-11T06:29:27.999Z</time></trkpt><trkpt lat="43.46763628346793" lon="11.372138839285883"><ele>379.2</ele><time>2026-04-11T06:29:29.999Z</time></trkpt><trkpt lat="43.467676972342716" lon="11.372235206793604"><ele>378.4</ele><time>2026-04-11T06:29:31.999Z</time></trkpt><trkpt lat="43.46772140162968" lon="11.372348246727727"><ele>377.6</ele><time>2026-04-11T06:29:33.999Z</time></trkpt><trkpt lat="43.4677576233092" lon="11.372466744683853"><ele>376.8</ele><time>2026-04-11T06:29:35.999Z</time></trkpt><trkpt lat="43.46779772495337" lon="11.37258983431819"><ele>376.0</ele><time>2026-04-11T06:29:37.999Z</time></trkpt><trkpt lat="43.46782378756687" lon="11.372713626222058"><ele>376.0</ele><time>2026-04-11T06:29:39.999Z</time></trkpt><trkpt lat="43.46784391826655" lon="11.37284715518022"><ele>376.0</ele><time>2026-04-11T06:29:41.999Z</time></trkpt><trkpt lat="43.46785622427497" lon="11.372972213803994"><ele>376.0</ele><time>2026-04-11T06:29:43.999Z</time></trkpt><trkpt lat="43.467869836171765" lon="11.373069523014092"><ele>376.0</ele><time>2026-04-11T06:29:45.999Z</time></trkpt><trkpt lat="43.46785235633861" lon="11.37316053758693"><ele>376.0</ele><time>2026-04-11T06:29:47.999Z</time></trkpt><trkpt lat="43.467846436182434" lon="11.373248014765045"><ele>376.0</ele><time>2026-04-11T06:29:50.999Z</time></trkpt><trkpt lat="43.46796171444333" lon="11.373294078623461"><ele>377.0</ele><time>2026-04-11T06:29:51.999Z</time></trkpt><trkpt lat="43.46802780222147" lon="11.373327332564774"><ele>378.0</ele><time>2026-04-11T06:29:53.999Z</time></trkpt><trkpt lat="43.468091561863545" lon="11.373351642932748"><ele>379.0</ele><time>2026-04-11T06:29:55.999Z</time></trkpt><trkpt lat="43.468160127682935" lon="11.373387848804839"><ele>380.0</ele><time>2026-04-11T06:29:57.999Z</time></trkpt><trkpt lat="43.46823011083088" lon="11.37341098544612"><ele>381.0</ele><time>2026-04-11T06:29:59.999Z</time></trkpt><trkpt lat="43.468287773064056" lon="11.373450821703507"><ele>382.0</ele><time>2026-04-11T06:30:01.999Z</time></trkpt><trkpt lat="43.468347713000746" lon="11.373487759886837"><ele>383.0</ele><time>2026-04-11T06:30:03.999Z</time></trkpt><trkpt lat="43.46841450042281" lon="11.373528289953883"><ele>383.0</ele><time>2026-04-11T06:30:05.999Z</time></trkpt><trkpt lat="43.4684793791893" lon="11.373566129259752"><ele>383.0</ele><time>2026-04-11T06:30:07.999Z</time></trkpt><trkpt lat="43.46852575667178" lon="11.373643915844598"><ele>383.0</ele><time>2026-04-11T06:30:09.999Z</time></trkpt><trkpt lat="43.468582763381484" lon="11.373708937119035"><ele>383.0</ele><time>2026-04-11T06:30:11.999Z</time></trkpt><trkpt lat="43.468631246903016" lon="11.373773986365826"><ele>383.0</ele><time>2026-04-11T06:30:13.999Z</time></trkpt><trkpt lat="43.46868139058292" lon="11.373845289496538"><ele>383.0</ele><time>2026-04-11T06:30:15.999Z</time></trkpt><trkpt lat="43.46874365639745" lon="11.373922937655127"><ele>383.0</ele><time>2026-04-11T06:30:17.999Z</time></trkpt><trkpt lat="43.46879393236022" lon="11.374006747123383"><ele>383.33333333333337</ele><time>2026-04-11T06:30:19.999Z</time></trkpt><trkpt lat="43.46885880709725" lon="11.374074970214505"><ele>383.6666666666667</ele><time>2026-04-11T06:30:21.999Z</time></trkpt><trkpt lat="43.46893891307355" lon="11.374143427633665"><ele>384.0</ele><time>2026-04-11T06:30:24Z</time></trkpt><trkpt lat="43.46901178110309" lon="11.374213602676965"><ele>384.33333333333337</ele><time>2026-04-11T06:30:26Z</time></trkpt><trkpt lat="43.469080847189794" lon="11.37424541929642"><ele>384.6666666666667</ele><time>2026-04-11T06:30:28Z</time></trkpt><trkpt lat="43.46915741564362" lon="11.374260606460714"><ele>385.0</ele><time>2026-04-11T06:30:30Z</time></trkpt><trkpt lat="43.469222373507385" lon="11.37426510511127"><ele>385.0</ele><time>2026-04-11T06:30:32Z</time></trkpt><trkpt lat="43.46929083764459" lon="11.374259994632286"><ele>385.0</ele><time>2026-04-11T06:30:34Z</time></trkpt><trkpt lat="43.46936252280268" lon="11.374274414899295"><ele>385.0</ele><time>2026-04-11T06:30:36Z</time></trkpt><trkpt lat="43.46943530931635" lon="11.374288560303293"><ele>385.0</ele><time>2026-04-11T06:30:38Z</time></trkpt><trkpt lat="43.46951202313804" lon="11.374279533264371"><ele>385.0</ele><time>2026-04-11T06:30:42Z</time></trkpt><trkpt lat="43.46959525891441" lon="11.374282383043633"><ele>385.0</ele><time>2026-04-11T06:30:45Z</time></trkpt><trkpt lat="43.46966921995742" lon="11.374282914888806"><ele>385.0</ele><time>2026-04-11T06:30:49Z</time></trkpt><trkpt lat="43.469758333499186" lon="11.374284254234446"><ele>386.1666666666667</ele><time>2026-04-11T06:30:52Z</time></trkpt><trkpt lat="43.469836249140116" lon="11.374286898177653"><ele>387.33333333333337</ele><time>2026-04-11T06:30:55Z</time></trkpt><trkpt lat="43.469919718537874" lon="11.374290486033674"><ele>388.5</ele><time>2026-04-11T06:30:58Z</time></trkpt><trkpt lat="43.46999030591329" lon="11.37427144179732"><ele>389.66666666666663</ele><time>2026-04-11T06:31:01Z</time></trkpt><trkpt lat="43.4700727385421" lon="11.374297063462091"><ele>390.8333333333333</ele><time>2026-04-11T06:31:04Z</time></trkpt><trkpt lat="43.47013757291541" lon="11.374298176184613"><ele>392.0</ele><time>2026-04-11T06:31:08Z</time></trkpt><trkpt lat="43.47020974644425" lon="11.374301554160446"><ele>391.99999999999994</ele><time>2026-04-11T06:31:10Z</time></trkpt><trkpt lat="43.47028347065894" lon="11.374301318099336"><ele>392.0</ele><time>2026-04-11T06:31:13Z</time></trkpt><trkpt lat="43.470350279948406" lon="11.37429660037895"><ele>392.0</ele><time>2026-04-11T06:31:16Z</time></trkpt><trkpt lat="43.47042262818688" lon="11.37431074730236"><ele>392.0</ele><time>2026-04-11T06:31:19Z</time></trkpt><trkpt lat="43.47050913826718" lon="11.37430705771252"><ele>391.99999999999994</ele><time>2026-04-11T06:31:22Z</time></trkpt><trkpt lat="43.470587261604386" lon="11.374307209346979"><ele>392.0</ele><time>2026-04-11T06:31:25Z</time></trkpt><trkpt lat="43.47065881242786" lon="11.37429088953078"><ele>392.42857142857144</ele><time>2026-04-11T06:31:28Z</time></trkpt><trkpt lat="43.47073653997564" lon="11.37427886654493"><ele>392.8571428571429</ele><time>2026-04-11T06:31:31.999Z</time></trkpt><trkpt lat="43.47081593536975" lon="11.374278574265222"><ele>393.2857142857143</ele><time>2026-04-11T06:31:35.999Z</time></trkpt><trkpt lat="43.47088286369222" lon="11.37426627367441"><ele>393.7142857142857</ele><time>2026-04-11T06:31:38.999Z</time></trkpt><trkpt lat="43.47094936780257" lon="11.374264227391924"><ele>394.14285714285717</ele><time>2026-04-11T06:31:41.999Z</time></trkpt><trkpt lat="43.47103017523622" lon="11.374252461563437"><ele>394.57142857142856</ele><time>2026-04-11T06:31:45.999Z</time></trkpt><trkpt lat="43.47110282524095" lon="11.374221648470337"><ele>395.0</ele><time>2026-04-11T06:31:48.999Z</time></trkpt><trkpt lat="43.47117279285343" lon="11.374221584351288"><ele>394.99999999999994</ele><time>2026-04-11T06:31:51.999Z</time></trkpt><trkpt lat="43.471249979387515" lon="11.374203610909417"><ele>395.0</ele><time>2026-04-11T06:31:54.999Z</time></trkpt><trkpt lat="43.471327232465455" lon="11.374166174675617"><ele>395.0</ele><time>2026-04-11T06:31:57.999Z</time></trkpt><trkpt lat="43.47140568603136" lon="11.374151340844373"><ele>395.0</ele><time>2026-04-11T06:32:00.999Z</time></trkpt><trkpt lat="43.47146290556794" lon="11.374105210410772"><ele>394.99999999999994</ele><time>2026-04-11T06:32:02.999Z</time></trkpt><trkpt lat="43.47154089375305" lon="11.374099481643293"><ele>395.0</ele><time>2026-04-11T06:32:05.999Z</time></trkpt><trkpt lat="43.47162041009242" lon="11.374070450724641"><ele>395.3333333333333</ele><time>2026-04-11T06:32:08.999Z</time></trkpt><trkpt lat="43.47169729114333" lon="11.374050673620117"><ele>395.66666666666663</ele><time>2026-04-11T06:32:11.999Z</time></trkpt><trkpt lat="43.471769852853214" lon="11.374033435410501"><ele>396.0</ele><time>2026-04-11T06:32:14.999Z</time></trkpt><trkpt lat="43.47185604879649" lon="11.374012744986162"><ele>396.33333333333337</ele><time>2026-04-11T06:32:18.999Z</time></trkpt><trkpt lat="43.471923920882034" lon="11.373987768136839"><ele>396.6666666666667</ele><time>2026-04-11T06:32:21.999Z</time></trkpt><trkpt lat="43.47200540026509" lon="11.37396769240625"><ele>397.0</ele><time>2026-04-11T06:32:25.999Z</time></trkpt><trkpt lat="43.472069849776666" lon="11.373957068993832"><ele>398.00000000000006</ele><time>2026-04-11T06:32:28.999Z</time></trkpt><trkpt lat="43.47214675081934" lon="11.373947396023052"><ele>399.0</ele><time>2026-04-11T06:32:33Z</time></trkpt><trkpt lat="43.47221682991586" lon="11.373922988770975"><ele>400.0</ele><time>2026-04-11T06:32:36Z</time></trkpt><trkpt lat="43.47228329841468" lon="11.373941367814776"><ele>401.0</ele><time>2026-04-11T06:32:39Z</time></trkpt><trkpt lat="43.472368047482824" lon="11.373944250317859"><ele>402.00000000000006</ele><time>2026-04-11T06:32:42Z</time></trkpt><trkpt lat="43.47244047603823" lon="11.373954296049908"><ele>403.0</ele><time>2026-04-11T06:32:45Z</time></trkpt><trkpt lat="43.47251866906642" lon="11.37397609035679"><ele>403.0</ele><time>2026-04-11T06:32:48Z</time></trkpt><trkpt lat="43.472579581696834" lon="11.374008529859198"><ele>403.0</ele><time>2026-04-11T06:32:51Z</time></trkpt><trkpt lat="43.47264871827709" lon="11.374029329465623"><ele>403.0</ele><time>2026-04-11T06:32:54Z</time></trkpt><trkpt lat="43.472717200712836" lon="11.374098345499025"><ele>403.0</ele><time>2026-04-11T06:32:58Z</time></trkpt><trkpt lat="43.47278775574267" lon="11.374119726655554"><ele>403.0</ele><time>2026-04-11T06:33:01Z</time></trkpt><trkpt lat="43.472857281924455" lon="11.374168072788716"><ele>403.0</ele><time>2026-04-11T06:33:05Z</time></trkpt><trkpt lat="43.47291730627041" lon="11.37421312473431"><ele>403.0</ele><time>2026-04-11T06:33:08Z</time></trkpt><trkpt lat="43.47298050999724" lon="11.37424144016232"><ele>404.5714285714286</ele><time>2026-04-11T06:33:11Z</time></trkpt><trkpt lat="43.473042435100275" lon="11.37427079370336"><ele>406.1428571428571</ele><time>2026-04-11T06:33:14Z</time></trkpt><trkpt lat="43.47311060742181" lon="11.37430077631763"><ele>407.7142857142857</ele><time>2026-04-11T06:33:17Z</time></trkpt><trkpt lat="43.47319178775309" lon="11.374331931752469"><ele>409.28571428571433</ele><time>2026-04-11T06:33:21Z</time></trkpt><trkpt lat="43.47325743266788" lon="11.374366905473279"><ele>410.8571428571429</ele><time>2026-04-11T06:33:24Z</time></trkpt><trkpt lat="43.473331720521124" lon="11.374377614132062"><ele>412.42857142857144</ele><time>2026-04-11T06:33:28Z</time></trkpt><trkpt lat="43.47341236111365" lon="11.374390089793321"><ele>414.0</ele><time>2026-04-11T06:33:32Z</time></trkpt><trkpt lat="43.473496153717136" lon="11.374383234451873"><ele>414.00000000000006</ele><time>2026-04-11T06:33:36Z</time></trkpt><trkpt lat="43.4735599946038" lon="11.374375084473403"><ele>414.0</ele><time>2026-04-11T06:33:38.999Z</time></trkpt><trkpt lat="43.473623614378255" lon="11.374343645457976"><ele>414.0</ele><time>2026-04-11T06:33:41.999Z</time></trkpt><trkpt lat="43.47368219430749" lon="11.374300881462485"><ele>414.0</ele><time>2026-04-11T06:33:44.999Z</time></trkpt><trkpt lat="43.47374758326212" lon="11.37423896091125"><ele>414.0</ele><time>2026-04-11T06:33:48.999Z</time></trkpt><trkpt lat="43.47380581835001" lon="11.37416233043969"><ele>414.00000000000006</ele><time>2026-04-11T06:33:52.999Z</time></trkpt><trkpt lat="43.47385210343947" lon="11.374076348244259"><ele>414.0</ele><time>2026-04-11T06:33:56.999Z</time></trkpt><trkpt lat="43.47390077023405" lon="11.373978639806689"><ele>414.0</ele><time>2026-04-11T06:34:00.999Z</time></trkpt><trkpt lat="43.473944015566175" lon="11.373903353554907"><ele>414.0</ele><time>2026-04-11T06:34:03.999Z</time></trkpt><trkpt lat="43.47399508448102" lon="11.373827132436118"><ele>414.0</ele><time>2026-04-11T06:34:06.999Z</time></trkpt><trkpt lat="43.47404341671672" lon="11.373758694859324"><ele>414.0</ele><time>2026-04-11T06:34:09.999Z</time></trkpt><trkpt lat="43.47412481642349" lon="11.373671531243316"><ele>414.0</ele><time>2026-04-11T06:34:13.999Z</time></trkpt><trkpt lat="43.474185249924524" lon="11.37362635163585"><ele>414.0</ele><time>2026-04-11T06:34:17.999Z</time></trkpt><trkpt lat="43.47425529567058" lon="11.373573316807146"><ele>416.5</ele><time>2026-04-11T06:34:21.999Z</time></trkpt><trkpt lat="43.47434699927674" lon="11.373539185573682"><ele>419.0</ele><time>2026-04-11T06:34:26.999Z</time></trkpt><trkpt lat="43.47442678919615" lon="11.373538766772729"><ele>421.5</ele><time>2026-04-11T06:34:29.999Z</time></trkpt><trkpt lat="43.474487671087054" lon="11.373581917822603"><ele>424.0</ele><time>2026-04-11T06:34:32.999Z</time></trkpt><trkpt lat="43.47455923157547" lon="11.37363241787501"><ele>426.5</ele><time>2026-04-11T06:34:37Z</time></trkpt><trkpt lat="43.47462463619593" lon="11.373706708489616"><ele>429.0</ele><time>2026-04-11T06:34:41Z</time></trkpt><trkpt lat="43.47467651089887" lon="11.373789124568157"><ele>429.7142857142857</ele><time>2026-04-11T06:34:45Z</time></trkpt><trkpt lat="43.47473818488895" lon="11.373843321199427"><ele>430.42857142857144</ele><time>2026-04-11T06:34:49Z</time></trkpt><trkpt lat="43.47479564293649" lon="11.373898358049548"><ele>431.1428571428571</ele><time>2026-04-11T06:34:52Z</time></trkpt><trkpt lat="43.47486582563408" lon="11.373914343930075"><ele>431.8571428571429</ele><time>2026-04-11T06:34:56Z</time></trkpt><trkpt lat="43.47494219557503" lon="11.373921712361952"><ele>432.57142857142856</ele><time>2026-04-11T06:35:00Z</time></trkpt><trkpt lat="43.47502264486909" lon="11.373913249930652"><ele>433.2857142857143</ele><time>2026-04-11T06:35:03Z</time></trkpt><trkpt lat="43.47509610392387" lon="11.373902955303299"><ele>434.0</ele><time>2026-04-11T06:35:06Z</time></trkpt><trkpt lat="43.4751690700561" lon="11.373899358769991"><ele>434.99999999999994</ele><time>2026-04-11T06:35:09Z</time></trkpt><trkpt lat="43.47525016101421" lon="11.373899625446967"><ele>436.0</ele><time>2026-04-11T06:35:13Z</time></trkpt><trkpt lat="43.47532427460218" lon="11.373901185622302"><ele>437.0</ele><time>2026-04-11T06:35:17Z</time></trkpt><trkpt lat="43.47539206336358" lon="11.373888983695982"><ele>438.0</ele><time>2026-04-11T06:35:20Z</time></trkpt><trkpt lat="43.47547156544613" lon="11.373869797835047"><ele>438.99999999999994</ele><time>2026-04-11T06:35:24Z</time></trkpt><trkpt lat="43.47556471053988" lon="11.373856897529135"><ele>440.0</ele><time>2026-04-11T06:35:27Z</time></trkpt><trkpt lat="43.47564071705069" lon="11.373830913660862"><ele>439.99999999999994</ele><time>2026-04-11T06:35:32Z</time></trkpt><trkpt lat="43.47571996749303" lon="11.373816367554411"><ele>440.0</ele><time>2026-04-11T06:35:36Z</time></trkpt><trkpt lat="43.47578832768361" lon="11.373811085068539"><ele>440.0</ele><time>2026-04-11T06:35:39Z</time></trkpt><trkpt lat="43.47585557852123" lon="11.373785195733452"><ele>440.0</ele><time>2026-04-11T06:35:42Z</time></trkpt><trkpt lat="43.475922122486914" lon="11.373793001813363"><ele>440.0</ele><time>2026-04-11T06:35:44.999Z</time></trkpt><trkpt lat="43.475984411793895" lon="11.373809100995425"><ele>439.99999999999994</ele><time>2026-04-11T06:35:47.999Z</time></trkpt><trkpt lat="43.476059522756515" lon="11.373790191678202"><ele>440.0</ele><time>2026-04-11T06:35:51.999Z</time></trkpt><trkpt lat="43.4761403813287" lon="11.373775133086063"><ele>439.99999999999994</ele><time>2026-04-11T06:35:55.999Z</time></trkpt><trkpt lat="43.47620356427234" lon="11.373769420927642"><ele>440.0</ele><time>2026-04-11T06:35:58.999Z</time></trkpt><trkpt lat="43.47627130816923" lon="11.373757885165562"><ele>440.0</ele><time>2026-04-11T06:36:01.999Z</time></trkpt><trkpt lat="43.47633466709095" lon="11.373750354430358"><ele>440.0</ele><time>2026-04-11T06:36:04.999Z</time></trkpt><trkpt lat="43.47639596041595" lon="11.373726630324242"><ele>440.0</ele><time>2026-04-11T06:36:07.999Z</time></trkpt><trkpt lat="43.476450296032986" lon="11.373673560962228"><ele>439.99999999999994</ele><time>2026-04-11T06:36:10.999Z</time></trkpt><trkpt lat="43.47649503439906" lon="11.37361099579273"><ele>440.0</ele><time>2026-04-11T06:36:13.999Z</time></trkpt><trkpt lat="43.47651927972466" lon="11.373530633233935"><ele>439.1428571428571</ele><time>2026-04-11T06:36:16.999Z</time></trkpt><trkpt lat="43.47654322219876" lon="11.37344752445089"><ele>438.2857142857143</ele><time>2026-04-11T06:36:19.999Z</time></trkpt><trkpt lat="43.47656266828506" lon="11.37333230122408"><ele>437.42857142857144</ele><time>2026-04-11T06:36:23.999Z</time></trkpt><trkpt lat="43.47657242588945" lon="11.373244666315278"><ele>436.57142857142856</ele><time>2026-04-11T06:36:26.999Z</time></trkpt><trkpt lat="43.47658581322813" lon="11.373154947560709"><ele>435.7142857142857</ele><time>2026-04-11T06:36:29.999Z</time></trkpt><trkpt lat="43.47660736168736" lon="11.373044072856704"><ele>434.85714285714283</ele><time>2026-04-11T06:36:33.999Z</time></trkpt><trkpt lat="43.47662044897476" lon="11.372951027953837"><ele>434.0</ele><time>2026-04-11T06:36:36.999Z</time></trkpt><trkpt lat="43.47663525319154" lon="11.372864293749043"><ele>435.7142857142857</ele><time>2026-04-11T06:36:39.999Z</time></trkpt><trkpt lat="43.47663911073637" lon="11.372765741752668"><ele>437.42857142857144</ele><time>2026-04-11T06:36:43Z</time></trkpt><trkpt lat="43.47665211762088" lon="11.372673054529313"><ele>439.1428571428571</ele><time>2026-04-11T06:36:46Z</time></trkpt><trkpt lat="43.47666022601771" lon="11.3725844478964"><ele>440.8571428571429</ele><time>2026-04-11T06:36:49Z</time></trkpt><trkpt lat="43.47667056546792" lon="11.37248834930974"><ele>442.57142857142856</ele><time>2026-04-11T06:36:52Z</time></trkpt><trkpt lat="43.476684721037415" lon="11.372401991919393"><ele>444.2857142857143</ele><time>2026-04-11T06:36:55Z</time></trkpt><trkpt lat="43.47669966678579" lon="11.372315528755886"><ele>446.0</ele><time>2026-04-11T06:36:58Z</time></trkpt><trkpt lat="43.476719254886056" lon="11.372226101945484"><ele>447.2857142857143</ele><time>2026-04-11T06:37:01Z</time></trkpt><trkpt lat="43.47672906782846" lon="11.372130440919245"><ele>448.57142857142856</ele><time>2026-04-11T06:37:04Z</time></trkpt><trkpt lat="43.4767587566231" lon="11.372036692429841"><ele>449.8571428571429</ele><time>2026-04-11T06:37:07Z</time></trkpt><trkpt lat="43.476792783320185" lon="11.371956358135547"><ele>451.1428571428571</ele><time>2026-04-11T06:37:10Z</time></trkpt><trkpt lat="43.4768358784886" lon="11.371884086878747"><ele>452.42857142857144</ele><time>2026-04-11T06:37:13Z</time></trkpt><trkpt lat="43.476895595751735" lon="11.371837944761394"><ele>453.7142857142857</ele><time>2026-04-11T06:37:17Z</time></trkpt><trkpt lat="43.47696422268292" lon="11.371812251717714"><ele>455.0</ele><time>2026-04-11T06:37:21Z</time></trkpt><trkpt lat="43.47704609690922" lon="11.371810943119161"><ele>455.3333333333333</ele><time>2026-04-11T06:37:26Z</time></trkpt><trkpt lat="43.47712510894165" lon="11.371809894606049"><ele>455.66666666666663</ele><time>2026-04-11T06:37:30Z</time></trkpt><trkpt lat="43.477190882633614" lon="11.371857769701068"><ele>456.0</ele><time>2026-04-11T06:37:34Z</time></trkpt><trkpt lat="43.477262053860564" lon="11.37187822152987"><ele>456.33333333333337</ele><time>2026-04-11T06:37:38Z</time></trkpt><trkpt lat="43.47733979847424" lon="11.371916157572269"><ele>456.6666666666667</ele><time>2026-04-11T06:37:42Z</time></trkpt><trkpt lat="43.47741374186168" lon="11.371956004312421"><ele>457.0</ele><time>2026-04-11T06:37:46Z</time></trkpt><trkpt lat="43.477489173143134" lon="11.371980829885612"><ele>457.00000000000006</ele><time>2026-04-11T06:37:50Z</time></trkpt><trkpt lat="43.47755147080737" lon="11.371995940164249"><ele>457.0</ele><time>2026-04-11T06:37:52.999Z</time></trkpt><trkpt lat="43.477629424521254" lon="11.37201482410484"><ele>457.00000000000006</ele><time>2026-04-11T06:37:56.999Z</time></trkpt><trkpt lat="43.477708414508115" lon="11.372012275707437"><ele>457.00000000000006</ele><time>2026-04-11T06:38:00.999Z</time></trkpt><trkpt lat="43.477775657812266" lon="11.37199957970613"><ele>457.0</ele><time>2026-04-11T06:38:03.999Z</time></trkpt><trkpt lat="43.47785877990892" lon="11.371979975153982"><ele>457.00000000000006</ele><time>2026-04-11T06:38:07.999Z</time></trkpt><trkpt lat="43.47793007482248" lon="11.371967119948465"><ele>457.00000000000006</ele><time>2026-04-11T06:38:10.999Z</time></trkpt><trkpt lat="43.47799935135978" lon="11.371925465075126"><ele>456.57142857142867</ele><time>2026-04-11T06:38:14.999Z</time></trkpt><trkpt lat="43.47805675507702" lon="11.37188294441461"><ele>456.14285714285717</ele><time>2026-04-11T06:38:17.999Z</time></trkpt><trkpt lat="43.47811067578804" lon="11.371833714482525"><ele>455.7142857142858</ele><time>2026-04-11T06:38:20.999Z</time></trkpt><trkpt lat="43.478158478977434" lon="11.371767589321651"><ele>455.28571428571433</ele><time>2026-04-11T06:38:23.999Z</time></trkpt><trkpt lat="43.478202661317766" lon="11.371675890518805"><ele>454.8571428571429</ele><time>2026-04-11T06:38:27.999Z</time></trkpt><trkpt lat="43.478238397509884" lon="11.371575126085737"><ele>454.42857142857144</ele><time>2026-04-11T06:38:31.999Z</time></trkpt><trkpt lat="43.478260730428694" lon="11.371468585172671"><ele>454.0</ele><time>2026-04-11T06:38:35.999Z</time></trkpt><trkpt lat="43.478258388192515" lon="11.371369495905112"><ele>455.28571428571433</ele><time>2026-04-11T06:38:38.999Z</time></trkpt><trkpt lat="43.4782492072505" lon="11.371282873643553"><ele>456.5714285714286</ele><time>2026-04-11T06:38:41.999Z</time></trkpt><trkpt lat="43.47824403880279" lon="11.371195257958401"><ele>457.8571428571429</ele><time>2026-04-11T06:38:44.999Z</time></trkpt><trkpt lat="43.47821561830196" lon="11.37111075620003"><ele>459.1428571428571</ele><time>2026-04-11T06:38:48Z</time></trkpt><trkpt lat="43.47818662599023" lon="11.370995431127906"><ele>460.4285714285714</ele><time>2026-04-11T06:38:52Z</time></trkpt><trkpt lat="43.478170883385914" lon="11.3709044691192"><ele>461.71428571428567</ele><time>2026-04-11T06:38:55Z</time></trkpt><trkpt lat="43.478138464685905" lon="11.370818304593753"><ele>463.0</ele><time>2026-04-11T06:38:58Z</time></trkpt><trkpt lat="43.47811558147814" lon="11.370737126582256"><ele>463.00000000000006</ele><time>2026-04-11T06:39:01Z</time></trkpt><trkpt lat="43.478096926115036" lon="11.370634985791815"><ele>463.0</ele><time>2026-04-11T06:39:05Z</time></trkpt><trkpt lat="43.478066639091246" lon="11.370532245365961"><ele>463.0</ele><time>2026-04-11T06:39:09Z</time></trkpt><trkpt lat="43.47804383616585" lon="11.370425304209272"><ele>463.0</ele><time>2026-04-11T06:39:13Z</time></trkpt><trkpt lat="43.478016297788116" lon="11.370343363034836"><ele>463.00000000000006</ele><time>2026-04-11T06:39:16Z</time></trkpt><trkpt lat="43.47799578050451" lon="11.370238333575264"><ele>463.0</ele><time>2026-04-11T06:39:20Z</time></trkpt><trkpt lat="43.477987512475394" lon="11.370143040762832"><ele>464.33333333333337</ele><time>2026-04-11T06:39:23Z</time></trkpt><trkpt lat="43.477968483382696" lon="11.370039862489415"><ele>465.6666666666667</ele><time>2026-04-11T06:39:27Z</time></trkpt><trkpt lat="43.47798742221368" lon="11.36993074214884"><ele>467.0</ele><time>2026-04-11T06:39:31Z</time></trkpt><trkpt lat="43.478024499911626" lon="11.369829155413715"><ele>468.33333333333337</ele><time>2026-04-11T06:39:35Z</time></trkpt><trkpt lat="43.47809155332745" lon="11.36978200883803"><ele>469.6666666666667</ele><time>2026-04-11T06:39:38Z</time></trkpt><trkpt lat="43.47817139126719" lon="11.369766685102173"><ele>471.0</ele><time>2026-04-11T06:39:42Z</time></trkpt><trkpt lat="43.47824319063398" lon="11.369790303839304"><ele>471.0</ele><time>2026-04-11T06:39:46Z</time></trkpt><trkpt lat="43.478319902587906" lon="11.369815316937867"><ele>471.0</ele><time>2026-04-11T06:39:50Z</time></trkpt><trkpt lat="43.47839506046647" lon="11.369825958686237"><ele>471.0</ele><time>2026-04-11T06:39:54Z</time></trkpt><trkpt lat="43.478463061983355" lon="11.369830545586922"><ele>471.0</ele><time>2026-04-11T06:39:56.999Z</time></trkpt><trkpt lat="43.478544151612056" lon="11.36982038745874"><ele>471.0</ele><time>2026-04-11T06:39:59.999Z</time></trkpt><trkpt lat="43.47862371680242" lon="11.369799735205211"><ele>471.0</ele><time>2026-04-11T06:40:02.999Z</time></trkpt><trkpt lat="43.47869551919333" lon="11.369745226359552"><ele>472.4285714285715</ele><time>2026-04-11T06:40:05.999Z</time></trkpt><trkpt lat="43.478760802090385" lon="11.369684496772718"><ele>473.8571428571429</ele><time>2026-04-11T06:40:08.999Z</time></trkpt><trkpt lat="43.47881494636435" lon="11.369620930074094"><ele>475.2857142857143</ele><time>2026-04-11T06:40:11.999Z</time></trkpt><trkpt lat="43.478860067298484" lon="11.369544214054912"><ele>476.7142857142857</ele><time>2026-04-11T06:40:14.999Z</time></trkpt><trkpt lat="43.47891191417879" lon="11.369475062878704"><ele>478.1428571428571</ele><time>2026-04-11T06:40:17.999Z</time></trkpt><trkpt lat="43.47895911392632" lon="11.36940219222956"><ele>479.5714285714285</ele><time>2026-04-11T06:40:20.999Z</time></trkpt><trkpt lat="43.47901413383903" lon="11.369348740317742"><ele>480.99999999999994</ele><time>2026-04-11T06:40:23.999Z</time></trkpt><trkpt lat="43.47906273313462" lon="11.369288247994843"><ele>480.99999999999994</ele><time>2026-04-11T06:40:26.999Z</time></trkpt><trkpt lat="43.47911068493841" lon="11.369203605009693"><ele>481.0</ele><time>2026-04-11T06:40:30.999Z</time></trkpt><trkpt lat="43.47915710602626" lon="11.36914325109698"><ele>480.99999999999994</ele><time>2026-04-11T06:40:34.999Z</time></trkpt><trkpt lat="43.47920319260127" lon="11.369081381356999"><ele>480.99999999999994</ele><time>2026-04-11T06:40:37.999Z</time></trkpt><trkpt lat="43.479255976648126" lon="11.36899888288524"><ele>481.0</ele><time>2026-04-11T06:40:41.999Z</time></trkpt><trkpt lat="43.47931678470869" lon="11.3689248232168"><ele>480.99999999999994</ele><time>2026-04-11T06:40:45.999Z</time></trkpt><trkpt lat="43.47937213148049" lon="11.368850167615365"><ele>480.99999999999994</ele><time>2026-04-11T06:40:49.999Z</time></trkpt><trkpt lat="43.479429014798846" lon="11.368770843314676"><ele>481.1428571428571</ele><time>2026-04-11T06:40:54Z</time></trkpt><trkpt lat="43.479484271742905" lon="11.368694862116278"><ele>481.2857142857143</ele><time>2026-04-11T06:40:57Z</time></trkpt><trkpt lat="43.47952221592656" lon="11.368621886810422"><ele>481.42857142857144</ele><time>2026-04-11T06:41:00Z</time></trkpt><trkpt lat="43.47957151290902" lon="11.368546607117494"><ele>481.57142857142856</ele><time>2026-04-11T06:41:03Z</time></trkpt><trkpt lat="43.47962030976051" lon="11.368480023919812"><ele>481.7142857142858</ele><time>2026-04-11T06:41:06Z</time></trkpt><trkpt lat="43.479676480808706" lon="11.368401862108696"><ele>481.8571428571429</ele><time>2026-04-11T06:41:09Z</time></trkpt><trkpt lat="43.4797293512398" lon="11.368324515958864"><ele>482.0</ele><time>2026-04-11T06:41:12Z</time></trkpt><trkpt lat="43.47977743845815" lon="11.368248918388772"><ele>481.99999999999994</ele><time>2026-04-11T06:41:15Z</time></trkpt><trkpt lat="43.479844095695725" lon="11.368186840182688"><ele>482.0</ele><time>2026-04-11T06:41:18Z</time></trkpt><trkpt lat="43.479884621611895" lon="11.368104154945016"><ele>482.0</ele><time>2026-04-11T06:41:21Z</time></trkpt><trkpt lat="43.47994422571816" lon="11.368024636468524"><ele>482.0</ele><time>2026-04-11T06:41:24Z</time></trkpt><trkpt lat="43.480005722716015" lon="11.367943127825257"><ele>481.99999999999994</ele><time>2026-04-11T06:41:27Z</time></trkpt><trkpt lat="43.48005324543233" lon="11.367852438463956"><ele>482.0</ele><time>2026-04-11T06:41:30Z</time></trkpt><trkpt lat="43.48011915983271" lon="11.367768914620028"><ele>483.14285714285717</ele><time>2026-04-11T06:41:33Z</time></trkpt><trkpt lat="43.48016976966563" lon="11.367715073725986"><ele>484.28571428571433</ele><time>2026-04-11T06:41:35Z</time></trkpt><trkpt lat="43.48022631610125" lon="11.367666172101208"><ele>485.42857142857144</ele><time>2026-04-11T06:41:37Z</time></trkpt><trkpt lat="43.480290404575165" lon="11.367660651652194"><ele>486.57142857142856</ele><time>2026-04-11T06:41:39Z</time></trkpt><trkpt lat="43.48037488896051" lon="11.367684257875414"><ele>487.7142857142857</ele><time>2026-04-11T06:41:42Z</time></trkpt><trkpt lat="43.48044915250106" lon="11.367720342830523"><ele>488.8571428571429</ele><time>2026-04-11T06:41:45Z</time></trkpt><trkpt lat="43.48053057166279" lon="11.367763589064229"><ele>490.0</ele><time>2026-04-11T06:41:48Z</time></trkpt><trkpt lat="43.48061889894025" lon="11.367775767685725"><ele>490.00000000000006</ele><time>2026-04-11T06:41:51Z</time></trkpt><trkpt lat="43.48071119620035" lon="11.36774987846564"><ele>490.0</ele><time>2026-04-11T06:41:54Z</time></trkpt><trkpt lat="43.48076668527126" lon="11.367708078262526"><ele>490.0</ele><time>2026-04-11T06:41:56Z</time></trkpt><trkpt lat="43.48083598160744" lon="11.367611151455637"><ele>490.0</ele><time>2026-04-11T06:41:59Z</time></trkpt><trkpt lat="43.48088122898741" lon="11.367508696802803"><ele>490.00000000000006</ele><time>2026-04-11T06:42:02Z</time></trkpt><trkpt lat="43.48092028453041" lon="11.367429274004676"><ele>490.0</ele><time>2026-04-11T06:42:04Z</time></trkpt><trkpt lat="43.48096586879392" lon="11.367339760230019"><ele>490.0</ele><time>2026-04-11T06:42:05.999Z</time></trkpt><trkpt lat="43.48101454689291" lon="11.367273771597391"><ele>490.0</ele><time>2026-04-11T06:42:07.999Z</time></trkpt><trkpt lat="43.48107741699747" lon="11.367209704161153"><ele>490.0</ele><time>2026-04-11T06:42:09.999Z</time></trkpt><trkpt lat="43.48113275764235" lon="11.367158811396987"><ele>490.0</ele><time>2026-04-11T06:42:11.999Z</time></trkpt><trkpt lat="43.481200364513974" lon="11.36713247394671"><ele>490.0</ele><time>2026-04-11T06:42:13.999Z</time></trkpt><trkpt lat="43.481265099324474" lon="11.36713621444809"><ele>490.0</ele><time>2026-04-11T06:42:15.999Z</time></trkpt><trkpt lat="43.48135546933302" lon="11.367112168545182"><ele>490.0</ele><time>2026-04-11T06:42:18.999Z</time></trkpt><trkpt lat="43.481424292652754" lon="11.367124157722497"><ele>491.00000000000006</ele><time>2026-04-11T06:42:20.999Z</time></trkpt><trkpt lat="43.48148813098566" lon="11.3671346783543"><ele>492.0</ele><time>2026-04-11T06:42:22.999Z</time></trkpt><trkpt lat="43.48157316905645" lon="11.367118534734217"><ele>493.0</ele><time>2026-04-11T06:42:25.999Z</time></trkpt><trkpt lat="43.48166045651281" lon="11.367095779365956"><ele>494.0</ele><time>2026-04-11T06:42:28.999Z</time></trkpt><trkpt lat="43.48174436931836" lon="11.367049300871345"><ele>495.00000000000006</ele><time>2026-04-11T06:42:31.999Z</time></trkpt><trkpt lat="43.481824498138316" lon="11.366991449470754"><ele>496.0</ele><time>2026-04-11T06:42:34.999Z</time></trkpt><trkpt lat="43.48187783177423" lon="11.366944289168742"><ele>496.0</ele><time>2026-04-11T06:42:36.999Z</time></trkpt><trkpt lat="43.481929120659416" lon="11.366891922521736"><ele>496.00000000000006</ele><time>2026-04-11T06:42:38.999Z</time></trkpt><trkpt lat="43.48196978668008" lon="11.366823510154012"><ele>496.0</ele><time>2026-04-11T06:42:40.999Z</time></trkpt><trkpt lat="43.48202918416145" lon="11.366723316489741"><ele>496.0</ele><time>2026-04-11T06:42:43.999Z</time></trkpt><trkpt lat="43.48206957649468" lon="11.366653790793269"><ele>496.00000000000006</ele><time>2026-04-11T06:42:45.999Z</time></trkpt><trkpt lat="43.48211394422133" lon="11.366586776616474"><ele>496.0</ele><time>2026-04-11T06:42:47.999Z</time></trkpt><trkpt lat="43.482161281568075" lon="11.366515585957815"><ele>496.0</ele><time>2026-04-11T06:42:49.999Z</time></trkpt><trkpt lat="43.48221936674485" lon="11.36644986151054"><ele>495.33333333333337</ele><time>2026-04-11T06:42:51.999Z</time></trkpt><trkpt lat="43.48229339705964" lon="11.366408506364488"><ele>494.6666666666667</ele><time>2026-04-11T06:42:53.999Z</time></trkpt><trkpt lat="43.482371662777865" lon="11.36637908217146"><ele>494.0</ele><time>2026-04-11T06:42:55.999Z</time></trkpt><trkpt lat="43.48245574658499" lon="11.366376153790274"><ele>493.33333333333337</ele><time>2026-04-11T06:42:57.999Z</time></trkpt><trkpt lat="43.48253715054041" lon="11.366400130254094"><ele>492.6666666666667</ele><time>2026-04-11T06:43:00Z</time></trkpt><trkpt lat="43.48262685217664" lon="11.36643495018424"><ele>492.0</ele><time>2026-04-11T06:43:02Z</time></trkpt><trkpt lat="43.48269904650008" lon="11.366443072712103"><ele>492.0</ele><time>2026-04-11T06:43:04Z</time></trkpt><trkpt lat="43.48276455724573" lon="11.366466427400129"><ele>492.0</ele><time>2026-04-11T06:43:06Z</time></trkpt><trkpt lat="43.4828294385541" lon="11.366477083787888"><ele>492.0</ele><time>2026-04-11T06:43:08Z</time></trkpt><trkpt lat="43.48291392874328" lon="11.366502562162013"><ele>492.0</ele><time>2026-04-11T06:43:11Z</time></trkpt><trkpt lat="43.48299051690787" lon="11.366516132509814"><ele>492.0</ele><time>2026-04-11T06:43:14Z</time></trkpt><trkpt lat="43.48307066556271" lon="11.366506774285538"><ele>492.0</ele><time>2026-04-11T06:43:17Z</time></trkpt><trkpt lat="43.483147012715634" lon="11.366480914702095"><ele>492.1666666666667</ele><time>2026-04-11T06:43:20Z</time></trkpt><trkpt lat="43.48323366215622" lon="11.366422604793087"><ele>492.33333333333337</ele><time>2026-04-11T06:43:23Z</time></trkpt><trkpt lat="43.48328908316352" lon="11.366375687355657"><ele>492.5</ele><time>2026-04-11T06:43:25Z</time></trkpt><trkpt lat="43.483344510800315" lon="11.366318882600238"><ele>492.6666666666667</ele><time>2026-04-11T06:43:27Z</time></trkpt><trkpt lat="43.483393936017585" lon="11.36626233857041"><ele>492.83333333333337</ele><time>2026-04-11T06:43:29Z</time></trkpt><trkpt lat="43.48346272156966" lon="11.36617674999134"><ele>493.0</ele><time>2026-04-11T06:43:32Z</time></trkpt><trkpt lat="43.483520283545495" lon="11.36612209401155"><ele>494.33333333333337</ele><time>2026-04-11T06:43:34Z</time></trkpt><trkpt lat="43.483570702894916" lon="11.366021207077946"><ele>495.6666666666667</ele><time>2026-04-11T06:43:37Z</time></trkpt><trkpt lat="43.48363306839997" lon="11.365923145475024"><ele>497.0</ele><time>2026-04-11T06:43:40Z</time></trkpt><trkpt lat="43.48367826050163" lon="11.365862582577343"><ele>498.33333333333337</ele><time>2026-04-11T06:43:42Z</time></trkpt><trkpt lat="43.483736315518364" lon="11.365761705941011"><ele>499.6666666666667</ele><time>2026-04-11T06:43:45Z</time></trkpt><trkpt lat="43.48378190128285" lon="11.365697974683085"><ele>501.0</ele><time>2026-04-11T06:43:47Z</time></trkpt><trkpt lat="43.4838334921069" lon="11.365639986771658"><ele>501.0</ele><time>2026-04-11T06:43:49Z</time></trkpt><trkpt lat="43.48388817288801" lon="11.36558849651288"><ele>501.0</ele><time>2026-04-11T06:43:51Z</time></trkpt><trkpt lat="43.48394991907274" lon="11.365547140095703"><ele>501.0</ele><time>2026-04-11T06:43:53Z</time></trkpt><trkpt lat="43.484015053418496" lon="11.36551257980054"><ele>501.0</ele><time>2026-04-11T06:43:55Z</time></trkpt><trkpt lat="43.48408461114058" lon="11.365490230826472"><ele>501.0</ele><time>2026-04-11T06:43:57Z</time></trkpt><trkpt lat="43.48414043237001" lon="11.365536248094617"><ele>501.0</ele><time>2026-04-11T06:43:58Z</time></trkpt><trkpt lat="43.48422737095777" lon="11.365616103593064"><ele>501.0</ele><time>2026-04-11T06:44:00Z</time></trkpt><trkpt lat="43.48430675744063" lon="11.365711586034088"><ele>501.0</ele><time>2026-04-11T06:44:02Z</time></trkpt><trkpt lat="43.484380478177734" lon="11.365792828873543"><ele>501.0</ele><time>2026-04-11T06:44:04Z</time></trkpt><trkpt lat="43.484412091016395" lon="11.365942177836173"><ele>501.0</ele><time>2026-04-11T06:44:06Z</time></trkpt><trkpt lat="43.484395379723495" lon="11.366106034309343"><ele>501.0</ele><time>2026-04-11T06:44:07.999Z</time></trkpt><trkpt lat="43.48436937588459" lon="11.366267477473636"><ele>501.0</ele><time>2026-04-11T06:44:09.999Z</time></trkpt><trkpt lat="43.48434632487029" lon="11.36643564146184"><ele>500.0</ele><time>2026-04-11T06:44:11.999Z</time></trkpt><trkpt lat="43.48433067630705" lon="11.366602344915286"><ele>499.0</ele><time>2026-04-11T06:44:13.999Z</time></trkpt><trkpt lat="43.4843342330066" lon="11.366690791499789"><ele>498.0</ele><time>2026-04-11T06:44:14.999Z</time></trkpt><trkpt lat="43.48434626610275" lon="11.36677814523677"><ele>497.0</ele><time>2026-04-11T06:44:15.999Z</time></trkpt><trkpt lat="43.48439247949075" lon="11.366937136548259"><ele>496.0</ele><time>2026-04-11T06:44:17.999Z</time></trkpt><trkpt lat="43.4844207178641" lon="11.36701470190505"><ele>495.0</ele><time>2026-04-11T06:44:18.999Z</time></trkpt><trkpt lat="43.48444810009564" lon="11.367093537768564"><ele>494.8</ele><time>2026-04-11T06:44:19.999Z</time></trkpt><trkpt lat="43.484480078796174" lon="11.367254346973446"><ele>494.6</ele><time>2026-04-11T06:44:21.999Z</time></trkpt><trkpt lat="43.48451572306161" lon="11.367393340694898"><ele>494.4</ele><time>2026-04-11T06:44:23.999Z</time></trkpt><trkpt lat="43.484552086882786" lon="11.367532138799987"><ele>494.2</ele><time>2026-04-11T06:44:25.999Z</time></trkpt><trkpt lat="43.48457766734852" lon="11.367663263002633"><ele>494.0</ele><time>2026-04-11T06:44:27.999Z</time></trkpt><trkpt lat="43.48459958863385" lon="11.367787662114257"><ele>493.49999999999994</ele><time>2026-04-11T06:44:29.999Z</time></trkpt><trkpt lat="43.484615502870696" lon="11.367906686659227"><ele>493.0</ele><time>2026-04-11T06:44:31.999Z</time></trkpt><trkpt lat="43.484629811746984" lon="11.368019586804564"><ele>492.5</ele><time>2026-04-11T06:44:33.999Z</time></trkpt><trkpt lat="43.484647250546175" lon="11.368123826682512"><ele>492.0</ele><time>2026-04-11T06:44:35.999Z</time></trkpt><trkpt lat="43.48466077073724" lon="11.36822302569641"><ele>491.49999999999994</ele><time>2026-04-11T06:44:37.999Z</time></trkpt><trkpt lat="43.48467437342533" lon="11.368324241074093"><ele>491.0</ele><time>2026-04-11T06:44:39.999Z</time></trkpt><trkpt lat="43.48469052973979" lon="11.368416606908971"><ele>492.8333333333333</ele><time>2026-04-11T06:44:41.999Z</time></trkpt><trkpt lat="43.484698142916336" lon="11.368506995431511"><ele>494.66666666666663</ele><time>2026-04-11T06:44:43.999Z</time></trkpt><trkpt lat="43.484712638974784" lon="11.368630624898275"><ele>496.5</ele><time>2026-04-11T06:44:46.999Z</time></trkpt><trkpt lat="43.484723781555225" lon="11.368754834083429"><ele>498.33333333333337</ele><time>2026-04-11T06:44:49.999Z</time></trkpt><trkpt lat="43.484743688346995" lon="11.368868687397375"><ele>500.1666666666667</ele><time>2026-04-11T06:44:52.999Z</time></trkpt><trkpt lat="43.484758054002356" lon="11.368980481323323"><ele>502.0</ele><time>2026-04-11T06:44:55.999Z</time></trkpt><trkpt lat="43.48477931419389" lon="11.36908518001589"><ele>502.83333333333337</ele><time>2026-04-11T06:44:58.999Z</time></trkpt><trkpt lat="43.484803206947994" lon="11.369187306686205"><ele>503.6666666666667</ele><time>2026-04-11T06:45:01.999Z</time></trkpt><trkpt lat="43.48482762548432" lon="11.369278406230867"><ele>504.5</ele><time>2026-04-11T06:45:04.999Z</time></trkpt><trkpt lat="43.484871615393175" lon="11.369367524662087"><ele>505.33333333333337</ele><time>2026-04-11T06:45:08Z</time></trkpt><trkpt lat="43.484931413982636" lon="11.369461994348418"><ele>506.1666666666667</ele><time>2026-04-11T06:45:11Z</time></trkpt><trkpt lat="43.4849959238944" lon="11.369554929697593"><ele>507.0</ele><time>2026-04-11T06:45:14Z</time></trkpt><trkpt lat="43.48506645851526" lon="11.369644613037021"><ele>507.8333333333333</ele><time>2026-04-11T06:45:17Z</time></trkpt><trkpt lat="43.485140911686074" lon="11.369724314795373"><ele>508.66666666666663</ele><time>2026-04-11T06:45:20Z</time></trkpt><trkpt lat="43.485210431327204" lon="11.369790160669424"><ele>509.5</ele><time>2026-04-11T06:45:23Z</time></trkpt><trkpt lat="43.48529616347214" lon="11.369833701094166"><ele>510.3333333333333</ele><time>2026-04-11T06:45:26Z</time></trkpt><trkpt lat="43.48537608212472" lon="11.369865024765907"><ele>511.16666666666663</ele><time>2026-04-11T06:45:29Z</time></trkpt><trkpt lat="43.485461953809335" lon="11.369879249937311"><ele>512.0</ele><time>2026-04-11T06:45:32Z</time></trkpt><trkpt lat="43.48554653735469" lon="11.36990973031463"><ele>511.99999999999994</ele><time>2026-04-11T06:45:35Z</time></trkpt><trkpt lat="43.48563077134904" lon="11.369932759960697"><ele>512.0</ele><time>2026-04-11T06:45:38Z</time></trkpt><trkpt lat="43.485704448386024" lon="11.369988669585307"><ele>512.0</ele><time>2026-04-11T06:45:41Z</time></trkpt><trkpt lat="43.4857687114302" lon="11.370033087402733"><ele>512.0</ele><time>2026-04-11T06:45:44Z</time></trkpt><trkpt lat="43.485823923319764" lon="11.370090912158258"><ele>511.99999999999994</ele><time>2026-04-11T06:45:47Z</time></trkpt><trkpt lat="43.485874035043494" lon="11.37018397121651"><ele>512.0</ele><time>2026-04-11T06:45:50Z</time></trkpt><trkpt lat="43.48591110922347" lon="11.37028350900368"><ele>511.99999999999994</ele><time>2026-04-11T06:45:53Z</time></trkpt><trkpt lat="43.48594538117944" lon="11.37036437791718"><ele>512.0</ele><time>2026-04-11T06:45:55Z</time></trkpt><trkpt lat="43.48599018640642" lon="11.370476186971981"><ele>512.0</ele><time>2026-04-11T06:45:58Z</time></trkpt><trkpt lat="43.48601418674074" lon="11.370558113616502"><ele>512.0</ele><time>2026-04-11T06:46:00Z</time></trkpt><trkpt lat="43.4860495190709" lon="11.370657298289602"><ele>511.99999999999994</ele><time>2026-04-11T06:46:03Z</time></trkpt><trkpt lat="43.4860809786121" lon="11.370758040042809"><ele>512.0</ele><time>2026-04-11T06:46:06Z</time></trkpt><trkpt lat="43.48611384097169" lon="11.370856203031352"><ele>513.0</ele><time>2026-04-11T06:46:09Z</time></trkpt><trkpt lat="43.486144026973754" lon="11.370967368213165"><ele>514.0</ele><time>2026-04-11T06:46:13Z</time></trkpt><trkpt lat="43.4861752861165" lon="11.371046826858423"><ele>515.0</ele><time>2026-04-11T06:46:15.999Z</time></trkpt><trkpt lat="43.4861890210302" lon="11.371132355690037"><ele>516.0</ele><time>2026-04-11T06:46:18.999Z</time></trkpt><trkpt lat="43.486190638022" lon="11.371225727030383"><ele>517.0</ele><time>2026-04-11T06:46:21.999Z</time></trkpt><trkpt lat="43.48620850523622" lon="11.371342513968951"><ele>518.0</ele><time>2026-04-11T06:46:25.999Z</time></trkpt><trkpt lat="43.48623677485254" lon="11.371429453703852"><ele>519.0</ele><time>2026-04-11T06:46:28.999Z</time></trkpt><trkpt lat="43.48625810063359" lon="11.371519657760363"><ele>516.8571428571429</ele><time>2026-04-11T06:46:31.999Z</time></trkpt><trkpt lat="43.48627081256903" lon="11.37161446928578"><ele>514.7142857142857</ele><time>2026-04-11T06:46:34.999Z</time></trkpt><trkpt lat="43.48627828298644" lon="11.371704889515678"><ele>512.5714285714286</ele><time>2026-04-11T06:46:37.999Z</time></trkpt><trkpt lat="43.48629051854861" lon="11.371820827376975"><ele>510.42857142857144</ele><time>2026-04-11T06:46:41.999Z</time></trkpt><trkpt lat="43.486307971887925" lon="11.371910869209035"><ele>508.2857142857143</ele><time>2026-04-11T06:46:44.999Z</time></trkpt><trkpt lat="43.4863039321202" lon="11.372005237197401"><ele>506.1428571428571</ele><time>2026-04-11T06:46:47.999Z</time></trkpt><trkpt lat="43.4863323020307" lon="11.372091764994494"><ele>504.0</ele><time>2026-04-11T06:46:50.999Z</time></trkpt><trkpt lat="43.48634870149939" lon="11.372179022553281"><ele>505.57142857142856</ele><time>2026-04-11T06:46:53.999Z</time></trkpt><trkpt lat="43.48636015237088" lon="11.372271009863717"><ele>507.1428571428571</ele><time>2026-04-11T06:46:56.999Z</time></trkpt><trkpt lat="43.48637002950289" lon="11.372359486348486"><ele>508.7142857142857</ele><time>2026-04-11T06:46:59.999Z</time></trkpt><trkpt lat="43.48637674685886" lon="11.372456858235354"><ele>510.2857142857143</ele><time>2026-04-11T06:47:02.999Z</time></trkpt><trkpt lat="43.48637087114817" lon="11.372546640333063"><ele>511.85714285714283</ele><time>2026-04-11T06:47:05.999Z</time></trkpt><trkpt lat="43.486369658991414" lon="11.372652649472277"><ele>513.4285714285714</ele><time>2026-04-11T06:47:09.999Z</time></trkpt><trkpt lat="43.486380923094714" lon="11.372739977047965"><ele>515.0</ele><time>2026-04-11T06:47:13Z</time></trkpt><trkpt lat="43.486400095054215" lon="11.372831104824296"><ele>515.0</ele><time>2026-04-11T06:47:17Z</time></trkpt><trkpt lat="43.486436048175044" lon="11.372914607602452"><ele>515.0</ele><time>2026-04-11T06:47:20Z</time></trkpt><trkpt lat="43.486442959160364" lon="11.373020047580798"><ele>515.0</ele><time>2026-04-11T06:47:24Z</time></trkpt><trkpt lat="43.48642157518616" lon="11.373122040774465"><ele>515.0</ele><time>2026-04-11T06:47:28Z</time></trkpt><trkpt lat="43.486406873911825" lon="11.373234394443337"><ele>515.0</ele><time>2026-04-11T06:47:32Z</time></trkpt><trkpt lat="43.486398801880924" lon="11.373321721459169"><ele>515.0</ele><time>2026-04-11T06:47:35Z</time></trkpt><trkpt lat="43.48636233876816" lon="11.37343629741481"><ele>515.6666666666666</ele><time>2026-04-11T06:47:38Z</time></trkpt><trkpt lat="43.48632619842248" lon="11.373554784929139"><ele>516.3333333333333</ele><time>2026-04-11T06:47:41Z</time></trkpt><trkpt lat="43.486296976238236" lon="11.373639227429571"><ele>517.0</ele><time>2026-04-11T06:47:43Z</time></trkpt><trkpt lat="43.48627173905007" lon="11.37374362394084"><ele>517.6666666666666</ele><time>2026-04-11T06:47:45Z</time></trkpt><trkpt lat="43.48624402992647" lon="11.373836642896826"><ele>518.3333333333334</ele><time>2026-04-11T06:47:47Z</time></trkpt><trkpt lat="43.48621282532707" lon="11.373934538157975"><ele>519.0</ele><time>2026-04-11T06:47:49Z</time></trkpt><trkpt lat="43.486189582898646" lon="11.374041569528108"><ele>519.4</ele><time>2026-04-11T06:47:51Z</time></trkpt><trkpt lat="43.486164630526595" lon="11.374145664481542"><ele>519.8</ele><time>2026-04-11T06:47:53Z</time></trkpt><trkpt lat="43.486144190903495" lon="11.374251210501528"><ele>520.2</ele><time>2026-04-11T06:47:55Z</time></trkpt><trkpt lat="43.48613330330388" lon="11.374376106125846"><ele>520.6</ele><time>2026-04-11T06:47:57Z</time></trkpt><trkpt lat="43.48612662758002" lon="11.37451248921824"><ele>521.0</ele><time>2026-04-11T06:47:59Z</time></trkpt><trkpt lat="43.48617237508359" lon="11.374652435698135"><ele>520.5</ele><time>2026-04-11T06:48:01Z</time></trkpt><trkpt lat="43.48624914129952" lon="11.37478414535178"><ele>520.0</ele><time>2026-04-11T06:48:03Z</time></trkpt><trkpt lat="43.48632500715873" lon="11.37491152640729"><ele>519.5</ele><time>2026-04-11T06:48:05Z</time></trkpt><trkpt lat="43.48636714125549" lon="11.374980515204939"><ele>519.0</ele><time>2026-04-11T06:48:06Z</time></trkpt><trkpt lat="43.486408196796205" lon="11.375048128042556"><ele>518.5</ele><time>2026-04-11T06:48:07Z</time></trkpt><trkpt lat="43.48645467819853" lon="11.375124676529515"><ele>518.0</ele><time>2026-04-11T06:48:08Z</time></trkpt><trkpt lat="43.48649599215118" lon="11.375192714939308"><ele>518.8</ele><time>2026-04-11T06:48:09Z</time></trkpt><trkpt lat="43.4865380066259" lon="11.375261907010666"><ele>519.5999999999999</ele><time>2026-04-11T06:48:10Z</time></trkpt><trkpt lat="43.48662211553455" lon="11.375400422834494"><ele>520.4000000000001</ele><time>2026-04-11T06:48:12Z</time></trkpt><trkpt lat="43.48670430781978" lon="11.375536504710077"><ele>521.2</ele><time>2026-04-11T06:48:14Z</time></trkpt><trkpt lat="43.48674577631859" lon="11.375605246723755"><ele>522.0</ele><time>2026-04-11T06:48:15Z</time></trkpt><trkpt lat="43.486821698207216" lon="11.375731101840575"><ele>522.0</ele><time>2026-04-11T06:48:17Z</time></trkpt><trkpt lat="43.486882119413124" lon="11.375863118583084"><ele>522.0</ele><time>2026-04-11T06:48:19Z</time></trkpt><trkpt lat="43.48691052545872" lon="11.376014164727021"><ele>522.0</ele><time>2026-04-11T06:48:20.999Z</time></trkpt><trkpt lat="43.48690625003498" lon="11.376106982247954"><ele>522.0</ele><time>2026-04-11T06:48:21.999Z</time></trkpt><trkpt lat="43.486900364201524" lon="11.376206388903448"><ele>522.0</ele><time>2026-04-11T06:48:22.999Z</time></trkpt><trkpt lat="43.48689330061811" lon="11.376316498406613"><ele>522.0</ele><time>2026-04-11T06:48:23.999Z</time></trkpt><trkpt lat="43.4868851632013" lon="11.376431422550658"><ele>520.8333333333334</ele><time>2026-04-11T06:48:24.999Z</time></trkpt><trkpt lat="43.486892548901956" lon="11.37654880605606"><ele>519.6666666666666</ele><time>2026-04-11T06:48:25.999Z</time></trkpt><trkpt lat="43.48687477288411" lon="11.376654771872333"><ele>518.5</ele><time>2026-04-11T06:48:26.999Z</time></trkpt><trkpt lat="43.486871499024616" lon="11.376777158913407"><ele>517.3333333333333</ele><time>2026-04-11T06:48:27.999Z</time></trkpt><trkpt lat="43.486862071726904" lon="11.37690321369533"><ele>516.1666666666666</ele><time>2026-04-11T06:48:28.999Z</time></trkpt><trkpt lat="43.48685449087112" lon="11.377040333061364"><ele>515.0</ele><time>2026-04-11T06:48:29.999Z</time></trkpt><trkpt lat="43.486843703285565" lon="11.377172992002182"><ele>515.0</ele><time>2026-04-11T06:48:30.999Z</time></trkpt><trkpt lat="43.48682266341217" lon="11.377307537552971"><ele>515.0</ele><time>2026-04-11T06:48:31.999Z</time></trkpt><trkpt lat="43.486813942398925" lon="11.37743850179035"><ele>515.0</ele><time>2026-04-11T06:48:32.999Z</time></trkpt><trkpt lat="43.486802819625176" lon="11.377559814222291"><ele>515.0</ele><time>2026-04-11T06:48:33.999Z</time></trkpt><trkpt lat="43.48679989733489" lon="11.37768732968263"><ele>515.0</ele><time>2026-04-11T06:48:34.999Z</time></trkpt><trkpt lat="43.486811041672915" lon="11.377816994479991"><ele>515.0</ele><time>2026-04-11T06:48:35.999Z</time></trkpt><trkpt lat="43.48682371735275" lon="11.377951465775281"><ele>515.0</ele><time>2026-04-11T06:48:36.999Z</time></trkpt><trkpt lat="43.486848118880445" lon="11.378086759972907"><ele>515.0</ele><time>2026-04-11T06:48:37.999Z</time></trkpt><trkpt lat="43.486877147516154" lon="11.378219337589776"><ele>515.0</ele><time>2026-04-11T06:48:38.999Z</time></trkpt><trkpt lat="43.486914558164514" lon="11.378355340549229"><ele>515.0</ele><time>2026-04-11T06:48:39.999Z</time></trkpt><trkpt lat="43.48696750083365" lon="11.378489789284563"><ele>516.0</ele><time>2026-04-11T06:48:40.999Z</time></trkpt><trkpt lat="43.48702522064821" lon="11.378616643513896"><ele>517.0</ele><time>2026-04-11T06:48:41.999Z</time></trkpt><trkpt lat="43.48709681353819" lon="11.378741593642678"><ele>518.0</ele><time>2026-04-11T06:48:42.999Z</time></trkpt><trkpt lat="43.48717073019716" lon="11.378865508285562"><ele>519.0</ele><time>2026-04-11T06:48:43.999Z</time></trkpt><trkpt lat="43.48724104097011" lon="11.378995610637526"><ele>516.4</ele><time>2026-04-11T06:48:44.999Z</time></trkpt><trkpt lat="43.4873127683076" lon="11.379126640235004"><ele>513.8</ele><time>2026-04-11T06:48:45.999Z</time></trkpt><trkpt lat="43.48738369684268" lon="11.3792410840048"><ele>511.20000000000005</ele><time>2026-04-11T06:48:46.999Z</time></trkpt><trkpt lat="43.48744072835501" lon="11.37935072476366"><ele>508.6</ele><time>2026-04-11T06:48:47.999Z</time></trkpt><trkpt lat="43.487504818723515" lon="11.379459201827533"><ele>506.0</ele><time>2026-04-11T06:48:48.999Z</time></trkpt><trkpt lat="43.48759557329513" lon="11.379540360798657"><ele>506.0</ele><time>2026-04-11T06:48:49.999Z</time></trkpt><trkpt lat="43.48767687116858" lon="11.379625157252173"><ele>506.0</ele><time>2026-04-11T06:48:50.999Z</time></trkpt><trkpt lat="43.487750362941775" lon="11.379720822518477"><ele>506.0</ele><time>2026-04-11T06:48:51.999Z</time></trkpt><trkpt lat="43.48780543633602" lon="11.379838509750522"><ele>506.0</ele><time>2026-04-11T06:48:52.999Z</time></trkpt><trkpt lat="43.48782731327032" lon="11.38000675550348"><ele>506.0</ele><time>2026-04-11T06:48:53.999Z</time></trkpt><trkpt lat="43.48784753106477" lon="11.380162322975156"><ele>505.25</ele><time>2026-04-11T06:48:54.999Z</time></trkpt><trkpt lat="43.48785399994744" lon="11.380319621690568"><ele>504.5</ele><time>2026-04-11T06:48:55.999Z</time></trkpt><trkpt lat="43.48787087457232" lon="11.380482728757434"><ele>503.75</ele><time>2026-04-11T06:48:56.999Z</time></trkpt><trkpt lat="43.487888959747636" lon="11.38064487978717"><ele>503.0</ele><time>2026-04-11T06:48:57.999Z</time></trkpt><trkpt lat="43.48791077372496" lon="11.380808921345826"><ele>498.75</ele><time>2026-04-11T06:48:58.999Z</time></trkpt><trkpt lat="43.487946301337004" lon="11.380969303227932"><ele>494.5</ele><time>2026-04-11T06:48:59.999Z</time></trkpt><trkpt lat="43.48798552265211" lon="11.381136121205996"><ele>490.25</ele><time>2026-04-11T06:49:00.999Z</time></trkpt><trkpt lat="43.48802998496817" lon="11.381298512222767"><ele>486.0</ele><time>2026-04-11T06:49:01.999Z</time></trkpt><trkpt lat="43.48808687277143" lon="11.381455960569015"><ele>486.0</ele><time>2026-04-11T06:49:02.999Z</time></trkpt><trkpt lat="43.48814501336217" lon="11.38160688280305"><ele>486.0</ele><time>2026-04-11T06:49:03.999Z</time></trkpt><trkpt lat="43.48820571343913" lon="11.381747163000162"><ele>486.0</ele><time>2026-04-11T06:49:04.999Z</time></trkpt><trkpt lat="43.488256275424746" lon="11.381882238920024"><ele>486.0</ele><time>2026-04-11T06:49:05.999Z</time></trkpt><trkpt lat="43.48830501314064" lon="11.38200100982113"><ele>486.0</ele><time>2026-04-11T06:49:06.999Z</time></trkpt><trkpt lat="43.48835528809379" lon="11.382118362327265"><ele>486.0</ele><time>2026-04-11T06:49:07.999Z</time></trkpt><trkpt lat="43.48840850111674" lon="11.382224783832847"><ele>486.0</ele><time>2026-04-11T06:49:08.999Z</time></trkpt><trkpt lat="43.488460661452066" lon="11.382317390248366"><ele>486.0</ele><time>2026-04-11T06:49:09.999Z</time></trkpt><trkpt lat="43.48850978329792" lon="11.382396534957735"><ele>486.0</ele><time>2026-04-11T06:49:10.999Z</time></trkpt><trkpt lat="43.488570543178575" lon="11.382471597336757"><ele>486.0</ele><time>2026-04-11T06:49:11.999Z</time></trkpt><trkpt lat="43.48863775228379" lon="11.382545490547413"><ele>484.8</ele><time>2026-04-11T06:49:12.999Z</time></trkpt><trkpt lat="43.48871986823394" lon="11.382620498054798"><ele>483.6</ele><time>2026-04-11T06:49:13.999Z</time></trkpt><trkpt lat="43.488805636062786" lon="11.382686652055908"><ele>482.4</ele><time>2026-04-11T06:49:14.999Z</time></trkpt><trkpt lat="43.488892101314214" lon="11.382760460976012"><ele>481.2</ele><time>2026-04-11T06:49:15.999Z</time></trkpt><trkpt lat="43.48898293500818" lon="11.382842036912567"><ele>480.0</ele><time>2026-04-11T06:49:16.999Z</time></trkpt><trkpt lat="43.4890650821274" lon="11.382938832979006"><ele>477.5</ele><time>2026-04-11T06:49:18Z</time></trkpt><trkpt lat="43.489150618150624" lon="11.383040533436072"><ele>475.0</ele><time>2026-04-11T06:49:19Z</time></trkpt><trkpt lat="43.48924666735473" lon="11.383128734240104"><ele>472.5</ele><time>2026-04-11T06:49:20Z</time></trkpt><trkpt lat="43.48934029938499" lon="11.383223060783363"><ele>470.0</ele><time>2026-04-11T06:49:21Z</time></trkpt><trkpt lat="43.489432904466426" lon="11.38332706548548"><ele>470.0</ele><time>2026-04-11T06:49:22Z</time></trkpt><trkpt lat="43.489523115067136" lon="11.383429777939789"><ele>470.0</ele><time>2026-04-11T06:49:23Z</time></trkpt><trkpt lat="43.48961775451983" lon="11.383531053812485"><ele>470.0</ele><time>2026-04-11T06:49:24Z</time></trkpt><trkpt lat="43.48971233957669" lon="11.383632226890832"><ele>470.0</ele><time>2026-04-11T06:49:25Z</time></trkpt><trkpt lat="43.48980189581679" lon="11.38373464002174"><ele>468.6</ele><time>2026-04-11T06:49:26Z</time></trkpt><trkpt lat="43.489878436866064" lon="11.383837395020372"><ele>467.2</ele><time>2026-04-11T06:49:27Z</time></trkpt><trkpt lat="43.48993054089999" lon="11.383952291055637"><ele>465.79999999999995</ele><time>2026-04-11T06:49:28Z</time></trkpt><trkpt lat="43.48998166889331" lon="11.384067860016563"><ele>464.4</ele><time>2026-04-11T06:49:29Z</time></trkpt><trkpt lat="43.490016673952596" lon="11.384193155013202"><ele>463.0</ele><time>2026-04-11T06:49:30Z</time></trkpt><trkpt lat="43.490029590855" lon="11.384329753410764"><ele>463.0</ele><time>2026-04-11T06:49:31Z</time></trkpt><trkpt lat="43.490041642626196" lon="11.384467467063358"><ele>462.99999999999994</ele><time>2026-04-11T06:49:32Z</time></trkpt><trkpt lat="43.49005117083687" lon="11.384602537775697"><ele>462.99999999999994</ele><time>2026-04-11T06:49:33Z</time></trkpt><trkpt lat="43.49007556649249" lon="11.384727505034625"><ele>463.0</ele><time>2026-04-11T06:49:34Z</time></trkpt><trkpt lat="43.49012055916958" lon="11.384840299155055"><ele>463.0</ele><time>2026-04-11T06:49:35Z</time></trkpt><trkpt lat="43.49016879905346" lon="11.38493270993269"><ele>462.33333333333337</ele><time>2026-04-11T06:49:36Z</time></trkpt><trkpt lat="43.490215227420904" lon="11.384998697960745"><ele>461.6666666666667</ele><time>2026-04-11T06:49:37Z</time></trkpt><trkpt lat="43.49027619252898" lon="11.385127611881826"><ele>461.0</ele><time>2026-04-11T06:49:39Z</time></trkpt><trkpt lat="43.49029566173502" lon="11.385290929348626"><ele>460.33333333333337</ele><time>2026-04-11T06:49:41Z</time></trkpt><trkpt lat="43.49030313312294" lon="11.385379312566075"><ele>459.6666666666667</ele><time>2026-04-11T06:49:42Z</time></trkpt><trkpt lat="43.49030106363339" lon="11.385470961748055"><ele>459.0</ele><time>2026-04-11T06:49:43Z</time></trkpt><trkpt lat="43.49029934940287" lon="11.385566824015399"><ele>459.0</ele><time>2026-04-11T06:49:44Z</time></trkpt><trkpt lat="43.4903016541556" lon="11.38566144523227"><ele>459.0</ele><time>2026-04-11T06:49:45Z</time></trkpt><trkpt lat="43.49030507788615" lon="11.385760249058665"><ele>459.0</ele><time>2026-04-11T06:49:46Z</time></trkpt><trkpt lat="43.4903021524616" lon="11.385860527415911"><ele>459.0</ele><time>2026-04-11T06:49:47Z</time></trkpt><trkpt lat="43.49027507160979" lon="11.38595563636943"><ele>459.0</ele><time>2026-04-11T06:49:48Z</time></trkpt><trkpt lat="43.49023264641839" lon="11.386045183448953"><ele>459.0</ele><time>2026-04-11T06:49:49Z</time></trkpt><trkpt lat="43.49019380612042" lon="11.386127237543324"><ele>459.0</ele><time>2026-04-11T06:49:50Z</time></trkpt><trkpt lat="43.490130088321116" lon="11.386195519679058"><ele>459.0</ele><time>2026-04-11T06:49:51Z</time></trkpt><trkpt lat="43.490070715354214" lon="11.386252263651317"><ele>459.0</ele><time>2026-04-11T06:49:52Z</time></trkpt><trkpt lat="43.49000915913387" lon="11.38629330603767"><ele>459.0</ele><time>2026-04-11T06:49:53Z</time></trkpt><trkpt lat="43.48994137169084" lon="11.386303859243853"><ele>459.0</ele><time>2026-04-11T06:49:54Z</time></trkpt><trkpt lat="43.489873534976866" lon="11.386280878167879"><ele>459.0</ele><time>2026-04-11T06:49:55Z</time></trkpt><trkpt lat="43.4898177354225" lon="11.386218628990108"><ele>459.0</ele><time>2026-04-11T06:49:56Z</time></trkpt><trkpt lat="43.48971189572529" lon="11.386188910251212"><ele>459.0</ele><time>2026-04-11T06:49:58Z</time></trkpt><trkpt lat="43.48965822491536" lon="11.38632588477299"><ele>459.0</ele><time>2026-04-11T06:50:00Z</time></trkpt><trkpt lat="43.489666800779446" lon="11.38646205688569"><ele>459.0</ele><time>2026-04-11T06:50:02Z</time></trkpt><trkpt lat="43.489629317925925" lon="11.386538803134211"><ele>459.0</ele><time>2026-04-11T06:50:03Z</time></trkpt><trkpt lat="43.489596780697156" lon="11.386677071900342"><ele>459.0</ele><time>2026-04-11T06:50:05Z</time></trkpt><trkpt lat="43.4895673059578" lon="11.38682387391927"><ele>456.25</ele><time>2026-04-11T06:50:07Z</time></trkpt><trkpt lat="43.48954067134394" lon="11.386968527379047"><ele>453.5</ele><time>2026-04-11T06:50:09Z</time></trkpt><trkpt lat="43.48951929939137" lon="11.38712490463843"><ele>450.75</ele><time>2026-04-11T06:50:11Z</time></trkpt><trkpt lat="43.48950967485564" lon="11.387293700683564"><ele>448.0</ele><time>2026-04-11T06:50:13Z</time></trkpt><trkpt lat="43.48949553931525" lon="11.38746023575427"><ele>448.0</ele><time>2026-04-11T06:50:15Z</time></trkpt><trkpt lat="43.48948791383398" lon="11.38754671559244"><ele>447.99999999999994</ele><time>2026-04-11T06:50:16Z</time></trkpt><trkpt lat="43.48947209077681" lon="11.387714346687662"><ele>447.99999999999994</ele><time>2026-04-11T06:50:18Z</time></trkpt><trkpt lat="43.4894622656205" lon="11.387880401133051"><ele>448.0</ele><time>2026-04-11T06:50:20Z</time></trkpt><trkpt lat="43.48944774775714" lon="11.388046748978507"><ele>448.0</ele><time>2026-04-11T06:50:22Z</time></trkpt><trkpt lat="43.48943220978824" lon="11.388214086853273"><ele>448.59999999999997</ele><time>2026-04-11T06:50:24Z</time></trkpt><trkpt lat="43.4894120257655" lon="11.388379699409697"><ele>449.19999999999993</ele><time>2026-04-11T06:50:26Z</time></trkpt><trkpt lat="43.48939985646044" lon="11.388465306687108"><ele>449.8</ele><time>2026-04-11T06:50:27Z</time></trkpt><trkpt lat="43.48938399082705" lon="11.388628401086823"><ele>450.4</ele><time>2026-04-11T06:50:28.999Z</time></trkpt><trkpt lat="43.48933804947498" lon="11.388782383293854"><ele>451.0</ele><time>2026-04-11T06:50:30.999Z</time></trkpt><trkpt lat="43.489297453511966" lon="11.388925667052561"><ele>451.8</ele><time>2026-04-11T06:50:32.999Z</time></trkpt><trkpt lat="43.48927517156118" lon="11.38905605776314"><ele>452.6</ele><time>2026-04-11T06:50:34.999Z</time></trkpt><trkpt lat="43.48924662768954" lon="11.389178135930843"><ele>453.4</ele><time>2026-04-11T06:50:36.999Z</time></trkpt><trkpt lat="43.489265730670006" lon="11.389315379265371"><ele>454.2</ele><time>2026-04-11T06:50:38.999Z</time></trkpt><trkpt lat="43.48930551975266" lon="11.389440402406972"><ele>455.0</ele><time>2026-04-11T06:50:40.999Z</time></trkpt><trkpt lat="43.489348195927" lon="11.38957019717051"><ele>454.6</ele><time>2026-04-11T06:50:42.999Z</time></trkpt><trkpt lat="43.48940403654425" lon="11.389687186589077"><ele>454.2</ele><time>2026-04-11T06:50:44.999Z</time></trkpt><trkpt lat="43.489437377727164" lon="11.38980688804141"><ele>453.79999999999995</ele><time>2026-04-11T06:50:46.999Z</time></trkpt><trkpt lat="43.489472758501044" lon="11.389915130856673"><ele>453.4</ele><time>2026-04-11T06:50:48.999Z</time></trkpt><trkpt lat="43.48950902960551" lon="11.390017457182966"><ele>453.0</ele><time>2026-04-11T06:50:50.999Z</time></trkpt><trkpt lat="43.4895454274334" lon="11.390128422951324"><ele>452.99999999999994</ele><time>2026-04-11T06:50:52.999Z</time></trkpt><trkpt lat="43.48957757557048" lon="11.390228627400706"><ele>453.0</ele><time>2026-04-11T06:50:54.999Z</time></trkpt><trkpt lat="43.489600355019064" lon="11.390328158771519"><ele>452.99999999999994</ele><time>2026-04-11T06:50:57.999Z</time></trkpt><trkpt lat="43.489631675124436" lon="11.390404904296846"><ele>452.99999999999994</ele><time>2026-04-11T06:51:01.999Z</time></trkpt><trkpt lat="43.489685404607386" lon="11.390478301795758"><ele>453.0</ele><time>2026-04-11T06:52:23Z</time></trkpt><trkpt lat="43.48971915659221" lon="11.390558597620949"><ele>452.99999999999994</ele><time>2026-04-11T06:52:28Z</time></trkpt><trkpt lat="43.489765811136124" lon="11.390635220253126"><ele>452.99999999999994</ele><time>2026-04-11T06:52:30.999Z</time></trkpt><trkpt lat="43.489803194576425" lon="11.390712709228787"><ele>454.2</ele><time>2026-04-11T06:52:32.999Z</time></trkpt><trkpt lat="43.489847705648295" lon="11.390801330777427"><ele>455.4</ele><time>2026-04-11T06:52:34.999Z</time></trkpt><trkpt lat="43.489901107773505" lon="11.39089508700447"><ele>456.59999999999997</ele><time>2026-04-11T06:52:36.999Z</time></trkpt><trkpt lat="43.48997326826392" lon="11.390983207157912"><ele>457.79999999999995</ele><time>2026-04-11T06:52:38.999Z</time></trkpt><trkpt lat="43.49005650702087" lon="11.391076224509575"><ele>459.0</ele><time>2026-04-11T06:52:40.999Z</time></trkpt><trkpt lat="43.490131482969886" lon="11.391190683263993"><ele>459.0</ele><time>2026-04-11T06:52:42.999Z</time></trkpt><trkpt lat="43.49020789689555" lon="11.391315285169053"><ele>459.0</ele><time>2026-04-11T06:52:44.999Z</time></trkpt><trkpt lat="43.490190514999334" lon="11.391477939616715"><ele>459.0</ele><time>2026-04-11T06:52:46.999Z</time></trkpt><trkpt lat="43.490185064489566" lon="11.391615896870245"><ele>459.0</ele><time>2026-04-11T06:52:48.999Z</time></trkpt><trkpt lat="43.49017745536682" lon="11.391760470233713"><ele>459.0</ele><time>2026-04-11T06:52:50.999Z</time></trkpt><trkpt lat="43.490170856612814" lon="11.391898500324228"><ele>458.6666666666667</ele><time>2026-04-11T06:52:52.999Z</time></trkpt><trkpt lat="43.49016653082509" lon="11.392029541860193"><ele>458.33333333333337</ele><time>2026-04-11T06:52:54.999Z</time></trkpt><trkpt lat="43.4901671453676" lon="11.392152637775803"><ele>458.0</ele><time>2026-04-11T06:52:56.999Z</time></trkpt><trkpt lat="43.49017285310692" lon="11.392274632097223"><ele>457.6666666666667</ele><time>2026-04-11T06:52:58.999Z</time></trkpt><trkpt lat="43.4901808204654" lon="11.392392481239757"><ele>457.33333333333337</ele><time>2026-04-11T06:53:00.999Z</time></trkpt><trkpt lat="43.49020470234147" lon="11.392510471263481"><ele>457.0</ele><time>2026-04-11T06:53:02.999Z</time></trkpt><trkpt lat="43.490230241164944" lon="11.392620624878745"><ele>457.00000000000006</ele><time>2026-04-11T06:53:04.999Z</time></trkpt><trkpt lat="43.49025762138628" lon="11.392721858713035"><ele>457.0</ele><time>2026-04-11T06:53:06.999Z</time></trkpt><trkpt lat="43.49031674125334" lon="11.39280383901072"><ele>457.0</ele><time>2026-04-11T06:53:08.999Z</time></trkpt><trkpt lat="43.49034984404122" lon="11.392901199930746"><ele>457.0</ele><time>2026-04-11T06:53:10.999Z</time></trkpt><trkpt lat="43.490381667547105" lon="11.392999501024905"><ele>457.00000000000006</ele><time>2026-04-11T06:53:12.999Z</time></trkpt><trkpt lat="43.4904097724358" lon="11.393093755404346"><ele>457.0</ele><time>2026-04-11T06:53:14.999Z</time></trkpt><trkpt lat="43.490431012368326" lon="11.393190129325347"><ele>457.50000000000006</ele><time>2026-04-11T06:53:16.999Z</time></trkpt><trkpt lat="43.4904394681022" lon="11.393287737540271"><ele>458.0</ele><time>2026-04-11T06:53:18.999Z</time></trkpt><trkpt lat="43.49040199822082" lon="11.393382702320748"><ele>458.5</ele><time>2026-04-11T06:53:20.999Z</time></trkpt><trkpt lat="43.490390326984496" lon="11.393502559056238"><ele>459.0</ele><time>2026-04-11T06:53:23.999Z</time></trkpt><trkpt lat="43.49036623483921" lon="11.393621817158934"><ele>459.50000000000006</ele><time>2026-04-11T06:53:26.999Z</time></trkpt><trkpt lat="43.49033317077447" lon="11.393740530121988"><ele>460.0</ele><time>2026-04-11T06:53:30Z</time></trkpt><trkpt lat="43.49029982811984" lon="11.393823830835965"><ele>460.6666666666667</ele><time>2026-04-11T06:53:32Z</time></trkpt><trkpt lat="43.49026577103927" lon="11.393908273454791"><ele>461.33333333333337</ele><time>2026-04-11T06:53:34Z</time></trkpt><trkpt lat="43.490226986200376" lon="11.393996341143193"><ele>462.0</ele><time>2026-04-11T06:53:37Z</time></trkpt><trkpt lat="43.49018771472088" lon="11.39408836918202"><ele>462.66666666666663</ele><time>2026-04-11T06:53:39Z</time></trkpt><trkpt lat="43.490147306605074" lon="11.394191105716203"><ele>463.3333333333333</ele><time>2026-04-11T06:53:42Z</time></trkpt><trkpt lat="43.49011256483638" lon="11.394304743300431"><ele>464.0</ele><time>2026-04-11T06:53:45Z</time></trkpt><trkpt lat="43.49008825032361" lon="11.394418216606478"><ele>463.99999999999994</ele><time>2026-04-11T06:53:48Z</time></trkpt><trkpt lat="43.49007517098838" lon="11.394527254975527"><ele>464.0</ele><time>2026-04-11T06:53:51Z</time></trkpt><trkpt lat="43.49007274990724" lon="11.394645831973955"><ele>464.0</ele><time>2026-04-11T06:53:54Z</time></trkpt><trkpt lat="43.49010539179824" lon="11.394764342190673"><ele>464.0</ele><time>2026-04-11T06:53:57Z</time></trkpt><trkpt lat="43.4901032558553" lon="11.394879914584212"><ele>463.99999999999994</ele><time>2026-04-11T06:54:00Z</time></trkpt><trkpt lat="43.49011058738525" lon="11.394997599035843"><ele>464.0</ele><time>2026-04-11T06:54:03Z</time></trkpt><trkpt lat="43.49012307262854" lon="11.395101157070913"><ele>464.8333333333333</ele><time>2026-04-11T06:54:06Z</time></trkpt><trkpt lat="43.49012432173188" lon="11.395205447537535"><ele>465.66666666666663</ele><time>2026-04-11T06:54:09Z</time></trkpt><trkpt lat="43.490127918684166" lon="11.395307556603658"><ele>466.5</ele><time>2026-04-11T06:54:12Z</time></trkpt><trkpt lat="43.49012463053913" lon="11.395416552556185"><ele>467.33333333333337</ele><time>2026-04-11T06:54:15Z</time></trkpt><trkpt lat="43.4901128719382" lon="11.395522984566858"><ele>468.1666666666667</ele><time>2026-04-11T06:54:18Z</time></trkpt><trkpt lat="43.49010349801303" lon="11.39562125090712"><ele>469.0</ele><time>2026-04-11T06:54:21Z</time></trkpt><trkpt lat="43.49009326402831" lon="11.39572237089565"><ele>469.57142857142856</ele><time>2026-04-11T06:54:24Z</time></trkpt><trkpt lat="43.49008341547806" lon="11.39582231113534"><ele>470.1428571428571</ele><time>2026-04-11T06:54:27Z</time></trkpt><trkpt lat="43.49007314439705" lon="11.39592077537167"><ele>470.7142857142857</ele><time>2026-04-11T06:54:30Z</time></trkpt><trkpt lat="43.49006285532508" lon="11.396020070610351"><ele>471.2857142857143</ele><time>2026-04-11T06:54:33Z</time></trkpt><trkpt lat="43.49004523327616" lon="11.396118745434734"><ele>471.85714285714283</ele><time>2026-04-11T06:54:36Z</time></trkpt><trkpt lat="43.49002366057824" lon="11.396219145098524"><ele>472.42857142857144</ele><time>2026-04-11T06:54:39Z</time></trkpt><trkpt lat="43.48999418881001" lon="11.396315243596163"><ele>473.0</ele><time>2026-04-11T06:54:41.999Z</time></trkpt><trkpt lat="43.489955820115384" lon="11.39640705090366"><ele>472.99999999999994</ele><time>2026-04-11T06:54:44.999Z</time></trkpt><trkpt lat="43.48990595436105" lon="11.396487018511046"><ele>473.0</ele><time>2026-04-11T06:54:47.999Z</time></trkpt><trkpt lat="43.48984419729785" lon="11.39653930827967"><ele>473.0</ele><time>2026-04-11T06:54:50.999Z</time></trkpt><trkpt lat="43.4897801091484" lon="11.396609945622643"><ele>473.0</ele><time>2026-04-11T06:54:54.999Z</time></trkpt><trkpt lat="43.48972368408755" lon="11.39666365776607"><ele>472.99999999999994</ele><time>2026-04-11T06:54:57.999Z</time></trkpt><trkpt lat="43.4896726651701" lon="11.396763188766606"><ele>473.0</ele><time>2026-04-11T06:55:01.999Z</time></trkpt><trkpt lat="43.489625442511795" lon="11.39685687821102"><ele>475.14285714285717</ele><time>2026-04-11T06:55:04.999Z</time></trkpt><trkpt lat="43.48958496996549" lon="11.39693289097739"><ele>477.2857142857142</ele><time>2026-04-11T06:55:07.999Z</time></trkpt><trkpt lat="43.48955080838604" lon="11.397020247721493"><ele>479.4285714285714</ele><time>2026-04-11T06:55:10.999Z</time></trkpt><trkpt lat="43.48952519951293" lon="11.397122349697362"><ele>481.57142857142856</ele><time>2026-04-11T06:55:13.999Z</time></trkpt><trkpt lat="43.48947989982089" lon="11.397206297049436"><ele>483.71428571428567</ele><time>2026-04-11T06:55:16.999Z</time></trkpt><trkpt lat="43.48944803816201" lon="11.397297977847293"><ele>485.8571428571428</ele><time>2026-04-11T06:55:19.999Z</time></trkpt><trkpt lat="43.48940706873412" lon="11.397387431151198"><ele>487.99999999999994</ele><time>2026-04-11T06:55:22.999Z</time></trkpt><trkpt lat="43.48935572120056" lon="11.397445746631988"><ele>488.2857142857142</ele><time>2026-04-11T06:55:25.999Z</time></trkpt><trkpt lat="43.489323687988254" lon="11.397534352449384"><ele>488.57142857142856</ele><time>2026-04-11T06:55:28.999Z</time></trkpt><trkpt lat="43.48929277375717" lon="11.397620862040396"><ele>488.85714285714283</ele><time>2026-04-11T06:55:31.999Z</time></trkpt><trkpt lat="43.4892391004037" lon="11.39771692007386"><ele>489.1428571428571</ele><time>2026-04-11T06:55:36Z</time></trkpt><trkpt lat="43.48920528251182" lon="11.397802805998591"><ele>489.42857142857144</ele><time>2026-04-11T06:55:39Z</time></trkpt><trkpt lat="43.48916854065278" lon="11.39787761594795"><ele>489.7142857142857</ele><time>2026-04-11T06:55:42Z</time></trkpt><trkpt lat="43.48912949191564" lon="11.39795964990716"><ele>490.0</ele><time>2026-04-11T06:55:45Z</time></trkpt><trkpt lat="43.4890897743268" lon="11.398041761103189"><ele>489.1428571428571</ele><time>2026-04-11T06:55:48Z</time></trkpt><trkpt lat="43.489059875471234" lon="11.398121482843234"><ele>488.2857142857143</ele><time>2026-04-11T06:55:51Z</time></trkpt><trkpt lat="43.4890142356659" lon="11.398199819290891"><ele>487.42857142857144</ele><time>2026-04-11T06:55:54Z</time></trkpt><trkpt lat="43.48897298703065" lon="11.398277203860255"><ele>486.57142857142856</ele><time>2026-04-11T06:55:57Z</time></trkpt><trkpt lat="43.48894359486266" lon="11.398371975683284"><ele>485.71428571428567</ele><time>2026-04-11T06:56:00Z</time></trkpt><trkpt lat="43.48889652918794" lon="11.398461719350193"><ele>484.85714285714283</ele><time>2026-04-11T06:56:03Z</time></trkpt><trkpt lat="43.488850865017206" lon="11.39855279946932"><ele>484.0</ele><time>2026-04-11T06:56:06Z</time></trkpt><trkpt lat="43.48880071503534" lon="11.398629096815236"><ele>486.6666666666667</ele><time>2026-04-11T06:56:09Z</time></trkpt><trkpt lat="43.48875696448424" lon="11.398716755280242"><ele>489.33333333333337</ele><time>2026-04-11T06:56:12Z</time></trkpt><trkpt lat="43.48871770100531" lon="11.398795760068749"><ele>492.0</ele><time>2026-04-11T06:56:15Z</time></trkpt><trkpt lat="43.48867473161315" lon="11.398900082975358"><ele>494.66666666666663</ele><time>2026-04-11T06:56:18Z</time></trkpt><trkpt lat="43.48862441826992" lon="11.39898452189434"><ele>497.3333333333333</ele><time>2026-04-11T06:56:21Z</time></trkpt><trkpt lat="43.488592812072554" lon="11.399078586471944"><ele>500.0</ele><time>2026-04-11T06:56:24Z</time></trkpt><trkpt lat="43.4885436255345" lon="11.39916998298644"><ele>500.0</ele><time>2026-04-11T06:56:27Z</time></trkpt><trkpt lat="43.48850684048789" lon="11.399257909515724"><ele>500.0</ele><time>2026-04-11T06:56:30Z</time></trkpt><trkpt lat="43.488458942215864" lon="11.399345601632955"><ele>500.0</ele><time>2026-04-11T06:56:33Z</time></trkpt><trkpt lat="43.488424240297476" lon="11.399421724475287"><ele>500.0</ele><time>2026-04-11T06:56:36Z</time></trkpt><trkpt lat="43.48837342880132" lon="11.39948744100968"><ele>500.0</ele><time>2026-04-11T06:56:39Z</time></trkpt><trkpt lat="43.48831019855366" lon="11.399555598621463"><ele>500.0</ele><time>2026-04-11T06:56:42.999Z</time></trkpt><trkpt lat="43.48824749813878" lon="11.399618713252197"><ele>500.0</ele><time>2026-04-11T06:56:46.999Z</time></trkpt><trkpt lat="43.48816929151241" lon="11.39964427383556"><ele>500.16666666666663</ele><time>2026-04-11T06:56:50.999Z</time></trkpt><trkpt lat="43.488098890871804" lon="11.399689328869227"><ele>500.3333333333333</ele><time>2026-04-11T06:56:54.999Z</time></trkpt><trkpt lat="43.488032062256565" lon="11.399694144656847"><ele>500.5</ele><time>2026-04-11T06:56:57.999Z</time></trkpt><trkpt lat="43.487964141455805" lon="11.39971204292873"><ele>500.66666666666663</ele><time>2026-04-11T06:57:00.999Z</time></trkpt><trkpt lat="43.48789929170696" lon="11.399715598930758"><ele>500.8333333333333</ele><time>2026-04-11T06:57:03.999Z</time></trkpt><trkpt lat="43.48781864067344" lon="11.399723833411981"><ele>501.0</ele><time>2026-04-11T06:57:07.999Z</time></trkpt><trkpt lat="43.48772493223989" lon="11.399729651568993"><ele>501.0</ele><time>2026-04-11T06:57:10.999Z</time></trkpt><trkpt lat="43.487650668645955" lon="11.399732201140333"><ele>501.0</ele><time>2026-04-11T06:57:13.999Z</time></trkpt><trkpt lat="43.48758919686206" lon="11.399816418095378"><ele>501.0</ele><time>2026-04-11T06:57:16.999Z</time></trkpt><trkpt lat="43.487559070338946" lon="11.399917562145479"><ele>501.0</ele><time>2026-04-11T06:57:19.999Z</time></trkpt><trkpt lat="43.487546120489945" lon="11.400007290368393"><ele>501.0</ele><time>2026-04-11T06:57:22.999Z</time></trkpt><trkpt lat="43.487543687375364" lon="11.400111160137135"><ele>501.0</ele><time>2026-04-11T06:57:25.999Z</time></trkpt><trkpt lat="43.48755112744021" lon="11.400210755140302"><ele>501.0</ele><time>2026-04-11T06:57:28.999Z</time></trkpt><trkpt lat="43.48755226748383" lon="11.400314376686012"><ele>501.0</ele><time>2026-04-11T06:57:31.999Z</time></trkpt><trkpt lat="43.48755837337065" lon="11.400411199795341"><ele>501.0</ele><time>2026-04-11T06:57:34.999Z</time></trkpt><trkpt lat="43.48755949077375" lon="11.400505407257912"><ele>501.0</ele><time>2026-04-11T06:57:37.999Z</time></trkpt><trkpt lat="43.48755557534122" lon="11.400618960669096"><ele>501.0</ele><time>2026-04-11T06:57:42Z</time></trkpt><trkpt lat="43.48754658588649" lon="11.400714092796107"><ele>501.0</ele><time>2026-04-11T06:57:45Z</time></trkpt><trkpt lat="43.487520271831734" lon="11.400801729126542"><ele>501.0</ele><time>2026-04-11T06:57:48Z</time></trkpt><trkpt lat="43.48749769292816" lon="11.400902727244928"><ele>501.57142857142856</ele><time>2026-04-11T06:57:51Z</time></trkpt><trkpt lat="43.487480073005045" lon="11.400987668976079"><ele>502.1428571428571</ele><time>2026-04-11T06:57:54Z</time></trkpt><trkpt lat="43.48746742040316" lon="11.401077231339803"><ele>502.71428571428567</ele><time>2026-04-11T06:57:57Z</time></trkpt><trkpt lat="43.48747546613807" lon="11.401165396481112"><ele>503.2857142857143</ele><time>2026-04-11T06:58:00Z</time></trkpt><trkpt lat="43.48750254480526" lon="11.401261250449398"><ele>503.8571428571428</ele><time>2026-04-11T06:58:04Z</time></trkpt><trkpt lat="43.48756479186977" lon="11.401300375042355"><ele>504.4285714285714</ele><time>2026-04-11T06:58:08Z</time></trkpt><trkpt lat="43.487635788053616" lon="11.401301128286354"><ele>505.0</ele><time>2026-04-11T06:58:11Z</time></trkpt><trkpt lat="43.48768722413999" lon="11.401247254020499"><ele>505.00000000000006</ele><time>2026-04-11T06:58:14Z</time></trkpt><trkpt lat="43.48772823441561" lon="11.401168188036126"><ele>505.0</ele><time>2026-04-11T06:58:16Z</time></trkpt><trkpt lat="43.48777098577768" lon="11.401068672940298"><ele>505.0</ele><time>2026-04-11T06:58:19Z</time></trkpt><trkpt lat="43.48780984973672" lon="11.400965115605459"><ele>505.0</ele><time>2026-04-11T06:58:22Z</time></trkpt><trkpt lat="43.48785823001887" lon="11.40088220847601"><ele>505.00000000000006</ele><time>2026-04-11T06:58:25Z</time></trkpt><trkpt lat="43.48790384680303" lon="11.400795143428477"><ele>505.0</ele><time>2026-04-11T06:58:28Z</time></trkpt><trkpt lat="43.487964887674856" lon="11.400739357052778"><ele>506.33333333333337</ele><time>2026-04-11T06:58:31Z</time></trkpt><trkpt lat="43.488030689216544" lon="11.400701058170299"><ele>507.6666666666667</ele><time>2026-04-11T06:58:34Z</time></trkpt><trkpt lat="43.48810813769263" lon="11.400696566280187"><ele>509.0</ele><time>2026-04-11T06:58:37Z</time></trkpt><trkpt lat="43.4881964304469" lon="11.400736446712145"><ele>510.33333333333337</ele><time>2026-04-11T06:58:41Z</time></trkpt><trkpt lat="43.4882610152235" lon="11.400787330163409"><ele>511.6666666666667</ele><time>2026-04-11T06:58:44Z</time></trkpt><trkpt lat="43.48832096515823" lon="11.40083984293694"><ele>513.0</ele><time>2026-04-11T06:58:46.999Z</time></trkpt><trkpt lat="43.488385221139325" lon="11.400881222430183"><ele>513.0000000000001</ele><time>2026-04-11T06:58:49.999Z</time></trkpt><trkpt lat="43.48844859091035" lon="11.400917367267668"><ele>513.0</ele><time>2026-04-11T06:58:52.999Z</time></trkpt><trkpt lat="43.48850479364676" lon="11.400964440074842"><ele>513.0</ele><time>2026-04-11T06:58:55.999Z</time></trkpt><trkpt lat="43.488576033772404" lon="11.401006446552824"><ele>513.0</ele><time>2026-04-11T06:58:58.999Z</time></trkpt><trkpt lat="43.48863847421281" lon="11.401060507732353"><ele>513.0</ele><time>2026-04-11T06:59:01.999Z</time></trkpt><trkpt lat="43.48869830348691" lon="11.401123535068258"><ele>513.0000000000001</ele><time>2026-04-11T06:59:04.999Z</time></trkpt><trkpt lat="43.48876160052675" lon="11.401179976425993"><ele>513.0</ele><time>2026-04-11T06:59:07.999Z</time></trkpt><trkpt lat="43.488820559833655" lon="11.401247010855455"><ele>512.8571428571429</ele><time>2026-04-11T06:59:10.999Z</time></trkpt><trkpt lat="43.48887131090545" lon="11.401320182370823"><ele>512.7142857142858</ele><time>2026-04-11T06:59:13.999Z</time></trkpt><trkpt lat="43.48890638085484" lon="11.401410508257714"><ele>512.5714285714286</ele><time>2026-04-11T06:59:16.999Z</time></trkpt><trkpt lat="43.488925007693624" lon="11.401498511530002"><ele>512.4285714285714</ele><time>2026-04-11T06:59:19.999Z</time></trkpt><trkpt lat="43.48890891020482" lon="11.401594999822018"><ele>512.2857142857142</ele><time>2026-04-11T06:59:22.999Z</time></trkpt><trkpt lat="43.48889995113687" lon="11.401689507790866"><ele>512.1428571428571</ele><time>2026-04-11T06:59:25.999Z</time></trkpt><trkpt lat="43.48887870295431" lon="11.401779815431329"><ele>512.0</ele><time>2026-04-11T06:59:28.999Z</time></trkpt><trkpt lat="43.488855855199574" lon="11.401867263403997"><ele>512.0</ele><time>2026-04-11T06:59:31.999Z</time></trkpt><trkpt lat="43.48882710046361" lon="11.401951748901222"><ele>511.99999999999994</ele><time>2026-04-11T06:59:34.999Z</time></trkpt><trkpt lat="43.48879580669379" lon="11.402044339558389"><ele>512.0</ele><time>2026-04-11T06:59:38.999Z</time></trkpt><trkpt lat="43.488787085236" lon="11.402141499294766"><ele>512.0</ele><time>2026-04-11T06:59:41.999Z</time></trkpt><trkpt lat="43.488771280628015" lon="11.402249287763649"><ele>511.99999999999994</ele><time>2026-04-11T06:59:44.999Z</time></trkpt><trkpt lat="43.48877238236967" lon="11.402348170033966"><ele>512.0</ele><time>2026-04-11T06:59:48Z</time></trkpt><trkpt lat="43.488775329879246" lon="11.402444392886398"><ele>512.0</ele><time>2026-04-11T06:59:51Z</time></trkpt><trkpt lat="43.48876949561689" lon="11.402545250416088"><ele>515.2857142857142</ele><time>2026-04-11T06:59:54Z</time></trkpt><trkpt lat="43.488755761020144" lon="11.402641997386095"><ele>518.5714285714286</ele><time>2026-04-11T06:59:57Z</time></trkpt><trkpt lat="43.488746800363764" lon="11.402739248733349"><ele>521.8571428571429</ele><time>2026-04-11T07:00:00Z</time></trkpt><trkpt lat="43.488740736211454" lon="11.402830643253907"><ele>525.1428571428571</ele><time>2026-04-11T07:00:03Z</time></trkpt><trkpt lat="43.48873773785956" lon="11.402932126876669"><ele>528.4285714285714</ele><time>2026-04-11T07:00:06Z</time></trkpt><trkpt lat="43.48873206045605" lon="11.40304178335856"><ele>531.7142857142857</ele><time>2026-04-11T07:00:09Z</time></trkpt><trkpt lat="43.48872963969492" lon="11.403146358685975"><ele>535.0</ele><time>2026-04-11T07:00:12Z</time></trkpt><trkpt lat="43.488751903976" lon="11.403247190834525"><ele>535.5</ele><time>2026-04-11T07:00:15Z</time></trkpt><trkpt lat="43.48877158765964" lon="11.40335022810943"><ele>536.0</ele><time>2026-04-11T07:00:18Z</time></trkpt><trkpt lat="43.48876958770343" lon="11.403457696312518"><ele>536.5</ele><time>2026-04-11T07:00:21Z</time></trkpt><trkpt lat="43.48875503763174" lon="11.403573611576217"><ele>537.0</ele><time>2026-04-11T07:00:24Z</time></trkpt><trkpt lat="43.48873355691294" lon="11.403676186858123"><ele>537.5</ele><time>2026-04-11T07:00:27Z</time></trkpt><trkpt lat="43.4887138906364" lon="11.403771451226492"><ele>538.0</ele><time>2026-04-11T07:00:29Z</time></trkpt><trkpt lat="43.488694013832" lon="11.403863488145607"><ele>538.3333333333334</ele><time>2026-04-11T07:00:31Z</time></trkpt><trkpt lat="43.48868813624318" lon="11.403963227321414"><ele>538.6666666666667</ele><time>2026-04-11T07:00:33Z</time></trkpt><trkpt lat="43.48868242730685" lon="11.404059738927154"><ele>539.0</ele><time>2026-04-11T07:00:35Z</time></trkpt><trkpt lat="43.48868430015141" lon="11.404156628358422"><ele>539.3333333333334</ele><time>2026-04-11T07:00:37Z</time></trkpt><trkpt lat="43.48869035546782" lon="11.404246180083677"><ele>539.6666666666666</ele><time>2026-04-11T07:00:39Z</time></trkpt><trkpt lat="43.48869591735624" lon="11.404376243652273"><ele>540.0</ele><time>2026-04-11T07:00:42Z</time></trkpt><trkpt lat="43.48870432782473" lon="11.404485244075515"><ele>540.0</ele><time>2026-04-11T07:00:45Z</time></trkpt><trkpt lat="43.488729400433336" lon="11.4045908460339"><ele>540.0</ele><time>2026-04-11T07:00:48Z</time></trkpt><trkpt lat="43.488758974990255" lon="11.404698407771814"><ele>540.0</ele><time>2026-04-11T07:00:50.999Z</time></trkpt><trkpt lat="43.48880720676063" lon="11.404799879365704"><ele>540.0</ele><time>2026-04-11T07:00:53.999Z</time></trkpt><trkpt lat="43.4888457683597" lon="11.40490417370115"><ele>540.0</ele><time>2026-04-11T07:00:56.999Z</time></trkpt><trkpt lat="43.488886033335824" lon="11.404996144390383"><ele>540.0</ele><time>2026-04-11T07:00:59.999Z</time></trkpt><trkpt lat="43.488910632992315" lon="11.405094667658199"><ele>539.0</ele><time>2026-04-11T07:01:02.999Z</time></trkpt><trkpt lat="43.488938618696785" lon="11.405192465881283"><ele>538.0</ele><time>2026-04-11T07:01:05.999Z</time></trkpt><trkpt lat="43.48896586115032" lon="11.405300437545359"><ele>537.0</ele><time>2026-04-11T07:01:08.999Z</time></trkpt><trkpt lat="43.48899690213154" lon="11.405417902718495"><ele>536.0</ele><time>2026-04-11T07:01:11.999Z</time></trkpt><trkpt lat="43.48901663864037" lon="11.405535954939857"><ele>535.0</ele><time>2026-04-11T07:01:14.999Z</time></trkpt><trkpt lat="43.489026696856605" lon="11.40562175714116"><ele>534.0</ele><time>2026-04-11T07:01:16.999Z</time></trkpt><trkpt lat="43.489036102852936" lon="11.405713252309067"><ele>534.0</ele><time>2026-04-11T07:01:18.999Z</time></trkpt><trkpt lat="43.489050059676195" lon="11.405803361916137"><ele>534.0</ele><time>2026-04-11T07:01:20.999Z</time></trkpt><trkpt lat="43.4890728489857" lon="11.405925698011925"><ele>534.0</ele><time>2026-04-11T07:01:23.999Z</time></trkpt><trkpt lat="43.48910159471978" lon="11.406049666924865"><ele>534.0</ele><time>2026-04-11T07:01:26.999Z</time></trkpt><trkpt lat="43.489128767262926" lon="11.406140118097102"><ele>534.0</ele><time>2026-04-11T07:01:28.999Z</time></trkpt><trkpt lat="43.489153971440814" lon="11.406225074760155"><ele>534.0</ele><time>2026-04-11T07:01:30.999Z</time></trkpt><trkpt lat="43.489179032968295" lon="11.406305095989516"><ele>534.0</ele><time>2026-04-11T07:01:32.999Z</time></trkpt><trkpt lat="43.48922916857276" lon="11.40640589101736"><ele>534.0</ele><time>2026-04-11T07:01:35.999Z</time></trkpt><trkpt lat="43.48927754995377" lon="11.406498884420293"><ele>534.0</ele><time>2026-04-11T07:01:38.999Z</time></trkpt><trkpt lat="43.489323915901004" lon="11.406584865962785"><ele>534.0</ele><time>2026-04-11T07:01:41.999Z</time></trkpt><trkpt lat="43.48937480720046" lon="11.406679629651574"><ele>534.0</ele><time>2026-04-11T07:01:44.999Z</time></trkpt><trkpt lat="43.489438050061224" lon="11.406759151709672"><ele>534.0</ele><time>2026-04-11T07:01:47.999Z</time></trkpt><trkpt lat="43.48949150770931" lon="11.406844998608731"><ele>534.0000000000001</ele><time>2026-04-11T07:01:50.999Z</time></trkpt><trkpt lat="43.48954999159615" lon="11.406924401050208"><ele>534.0</ele><time>2026-04-11T07:01:54Z</time></trkpt><trkpt lat="43.48960529208031" lon="11.40699529249467"><ele>534.0</ele><time>2026-04-11T07:01:57Z</time></trkpt><trkpt lat="43.48965460862515" lon="11.407049869360101"><ele>534.0</ele><time>2026-04-11T07:02:00Z</time></trkpt><trkpt lat="43.48969699074796" lon="11.407120281710366"><ele>534.0</ele><time>2026-04-11T07:02:03Z</time></trkpt><trkpt lat="43.489739287996336" lon="11.407197719693377"><ele>534.0000000000001</ele><time>2026-04-11T07:02:06Z</time></trkpt><trkpt lat="43.4897823209262" lon="11.407270425182727"><ele>534.0</ele><time>2026-04-11T07:02:09Z</time></trkpt><trkpt lat="43.489825720574785" lon="11.407338854029154"><ele>535.0</ele><time>2026-04-11T07:02:12Z</time></trkpt><trkpt lat="43.489861713109775" lon="11.407416627549663"><ele>536.0</ele><time>2026-04-11T07:02:15Z</time></trkpt><trkpt lat="43.48989639145545" lon="11.407504155784844"><ele>537.0</ele><time>2026-04-11T07:02:18Z</time></trkpt><trkpt lat="43.48993107605624" lon="11.407606657198983"><ele>538.0</ele><time>2026-04-11T07:02:21Z</time></trkpt><trkpt lat="43.48995698880262" lon="11.407718773900772"><ele>539.0</ele><time>2026-04-11T07:02:24Z</time></trkpt><trkpt lat="43.489972441421315" lon="11.407842567334944"><ele>540.0</ele><time>2026-04-11T07:02:27Z</time></trkpt><trkpt lat="43.48997959058337" lon="11.407963361945848"><ele>540.3333333333334</ele><time>2026-04-11T07:02:30Z</time></trkpt><trkpt lat="43.48999005616127" lon="11.40808223904145"><ele>540.6666666666666</ele><time>2026-04-11T07:02:33Z</time></trkpt><trkpt lat="43.48999668087607" lon="11.408195841954038"><ele>541.0</ele><time>2026-04-11T07:02:36Z</time></trkpt><trkpt lat="43.49000381913809" lon="11.40831263457755"><ele>541.3333333333333</ele><time>2026-04-11T07:02:39Z</time></trkpt><trkpt lat="43.49001065263149" lon="11.408426299157513"><ele>541.6666666666666</ele><time>2026-04-11T07:02:42Z</time></trkpt><trkpt lat="43.490018484243954" lon="11.408540190192598"><ele>542.0</ele><time>2026-04-11T07:02:45Z</time></trkpt><trkpt lat="43.490021070215576" lon="11.408661031943023"><ele>542.0</ele><time>2026-04-11T07:02:48Z</time></trkpt><trkpt lat="43.49002231344367" lon="11.408783556533058"><ele>542.0</ele><time>2026-04-11T07:02:51Z</time></trkpt><trkpt lat="43.490028726055996" lon="11.408870832551605"><ele>542.0</ele><time>2026-04-11T07:02:53Z</time></trkpt><trkpt lat="43.490021647126994" lon="11.408963279741446"><ele>542.0</ele><time>2026-04-11T07:02:55Z</time></trkpt><trkpt lat="43.490024342139975" lon="11.409056786768934"><ele>542.0</ele><time>2026-04-11T07:02:57Z</time></trkpt><trkpt lat="43.49002199840825" lon="11.409152854573307"><ele>542.0</ele><time>2026-04-11T07:02:59Z</time></trkpt><trkpt lat="43.49001020637133" lon="11.409253185612938"><ele>542.0</ele><time>2026-04-11T07:03:01Z</time></trkpt><trkpt lat="43.49000123906539" lon="11.409357838725473"><ele>542.6666666666666</ele><time>2026-04-11T07:03:02.999Z</time></trkpt><trkpt lat="43.489999785743656" lon="11.409465605718847"><ele>543.3333333333333</ele><time>2026-04-11T07:03:04.999Z</time></trkpt><trkpt lat="43.489989728880786" lon="11.40957564544624"><ele>544.0</ele><time>2026-04-11T07:03:06.999Z</time></trkpt><trkpt lat="43.4899830369057" lon="11.40968237222646"><ele>544.6666666666666</ele><time>2026-04-11T07:03:08.999Z</time></trkpt><trkpt lat="43.489979861302054" lon="11.409784531897536"><ele>545.3333333333334</ele><time>2026-04-11T07:03:10.999Z</time></trkpt><trkpt lat="43.48997186745384" lon="11.40987462985465"><ele>546.0</ele><time>2026-04-11T07:03:12.999Z</time></trkpt><trkpt lat="43.48994574514242" lon="11.409990397600211"><ele>546.2857142857143</ele><time>2026-04-11T07:03:15.999Z</time></trkpt><trkpt lat="43.489911834630185" lon="11.410078812664109"><ele>546.5714285714286</ele><time>2026-04-11T07:03:18.999Z</time></trkpt><trkpt lat="43.48988408619267" lon="11.410172090822652"><ele>546.8571428571429</ele><time>2026-04-11T07:03:21.999Z</time></trkpt><trkpt lat="43.489852121841565" lon="11.410261940776717"><ele>547.1428571428571</ele><time>2026-04-11T07:03:24.999Z</time></trkpt><trkpt lat="43.48980999687323" lon="11.410333937530014"><ele>547.4285714285714</ele><time>2026-04-11T07:03:27.999Z</time></trkpt><trkpt lat="43.48976664212728" lon="11.410416279204714"><ele>547.7142857142858</ele><time>2026-04-11T07:03:30.999Z</time></trkpt><trkpt lat="43.489729137749976" lon="11.410515430289648"><ele>548.0</ele><time>2026-04-11T07:03:34.999Z</time></trkpt><trkpt lat="43.48968074618924" lon="11.410580458049568"><ele>548.1428571428572</ele><time>2026-04-11T07:03:37.999Z</time></trkpt><trkpt lat="43.48962798263932" lon="11.410658133340819"><ele>548.2857142857143</ele><time>2026-04-11T07:03:41.999Z</time></trkpt><trkpt lat="43.489583356169625" lon="11.410722304823938"><ele>548.4285714285714</ele><time>2026-04-11T07:03:44.999Z</time></trkpt><trkpt lat="43.48952549298697" lon="11.410800305215568"><ele>548.5714285714287</ele><time>2026-04-11T07:03:48.999Z</time></trkpt><trkpt lat="43.489480878882844" lon="11.41089104713864"><ele>548.7142857142858</ele><time>2026-04-11T07:03:52.999Z</time></trkpt><trkpt lat="43.48945267003264" lon="11.410973719985952"><ele>548.8571428571429</ele><time>2026-04-11T07:03:55.999Z</time></trkpt><trkpt lat="43.48942529670443" lon="11.411062487412266"><ele>549.0</ele><time>2026-04-11T07:03:58.999Z</time></trkpt><trkpt lat="43.48940731829402" lon="11.411174538749249"><ele>549.0</ele><time>2026-04-11T07:04:02Z</time></trkpt><trkpt lat="43.489419789809105" lon="11.411285839559962"><ele>549.0</ele><time>2026-04-11T07:04:05Z</time></trkpt><trkpt lat="43.4894224165674" lon="11.411388368008096"><ele>549.0</ele><time>2026-04-11T07:04:08Z</time></trkpt><trkpt lat="43.48944641932995" lon="11.411495887726542"><ele>549.0</ele><time>2026-04-11T07:04:11Z</time></trkpt><trkpt lat="43.48947368786251" lon="11.411610968809553"><ele>549.0</ele><time>2026-04-11T07:04:14Z</time></trkpt><trkpt lat="43.489506624138436" lon="11.411726782916839"><ele>549.0</ele><time>2026-04-11T07:04:17Z</time></trkpt><trkpt lat="43.489554026423285" lon="11.411857834842895"><ele>550.5</ele><time>2026-04-11T07:04:20Z</time></trkpt><trkpt lat="43.48959739511284" lon="11.411942206929508"><ele>552.0</ele><time>2026-04-11T07:04:22Z</time></trkpt><trkpt lat="43.489639766690445" lon="11.412016137030866"><ele>553.5</ele><time>2026-04-11T07:04:24Z</time></trkpt><trkpt lat="43.48969646009522" lon="11.412082533897966"><ele>555.0</ele><time>2026-04-11T07:04:26Z</time></trkpt><trkpt lat="43.48977988659736" lon="11.412160385166272"><ele>556.5</ele><time>2026-04-11T07:04:29Z</time></trkpt><trkpt lat="43.48984067722646" lon="11.412235238494889"><ele>558.0</ele><time>2026-04-11T07:04:31Z</time></trkpt><trkpt lat="43.48991467360607" lon="11.412311601712032"><ele>558.0</ele><time>2026-04-11T07:04:33Z</time></trkpt><trkpt lat="43.49000227716184" lon="11.412389114499144"><ele>558.0</ele><time>2026-04-11T07:04:35Z</time></trkpt><trkpt lat="43.49009021562299" lon="11.41248949830783"><ele>558.0</ele><time>2026-04-11T07:04:37Z</time></trkpt><trkpt lat="43.49016802454035" lon="11.412626264371937"><ele>558.0</ele><time>2026-04-11T07:04:39Z</time></trkpt><trkpt lat="43.49021433308636" lon="11.412687420987385"><ele>558.0</ele><time>2026-04-11T07:04:40Z</time></trkpt><trkpt lat="43.49026102283475" lon="11.412749080963982"><ele>557.9999999999999</ele><time>2026-04-11T07:04:41Z</time></trkpt><trkpt lat="43.49030607748914" lon="11.412813029010369"><ele>558.0</ele><time>2026-04-11T07:04:42Z</time></trkpt><trkpt lat="43.49035334288047" lon="11.412880496260485"><ele>558.0</ele><time>2026-04-11T07:04:43Z</time></trkpt><trkpt lat="43.49040151091084" lon="11.41295002232266"><ele>558.0</ele><time>2026-04-11T07:04:44Z</time></trkpt><trkpt lat="43.49045351150358" lon="11.413009438474251"><ele>558.0</ele><time>2026-04-11T07:04:45Z</time></trkpt><trkpt lat="43.49049940599658" lon="11.413085997305313"><ele>557.9999999999999</ele><time>2026-04-11T07:04:46Z</time></trkpt><trkpt lat="43.49053982455818" lon="11.413165497192425"><ele>558.0</ele><time>2026-04-11T07:04:47Z</time></trkpt><trkpt lat="43.4905563434074" lon="11.413266436406062"><ele>557.1666666666666</ele><time>2026-04-11T07:04:48Z</time></trkpt><trkpt lat="43.490577839097014" lon="11.41335821093838"><ele>556.3333333333334</ele><time>2026-04-11T07:04:49Z</time></trkpt><trkpt lat="43.4905863915922" lon="11.413452973216353"><ele>555.5</ele><time>2026-04-11T07:04:50Z</time></trkpt><trkpt lat="43.490586432058706" lon="11.413546628347701"><ele>554.6666666666667</ele><time>2026-04-11T07:04:51Z</time></trkpt><trkpt lat="43.49057601244264" lon="11.413633097917028"><ele>553.8333333333334</ele><time>2026-04-11T07:04:52Z</time></trkpt><trkpt lat="43.4905776438807" lon="11.413720394519931"><ele>553.0</ele><time>2026-04-11T07:04:53Z</time></trkpt><trkpt lat="43.49054430854204" lon="11.413878361160439"><ele>553.0</ele><time>2026-04-11T07:04:55Z</time></trkpt><trkpt lat="43.490519301245854" lon="11.41403274205798"><ele>553.0</ele><time>2026-04-11T07:04:57Z</time></trkpt><trkpt lat="43.49049320972271" lon="11.414148796247249"><ele>553.0</ele><time>2026-04-11T07:04:59Z</time></trkpt><trkpt lat="43.490470768716314" lon="11.414286743759652"><ele>553.0</ele><time>2026-04-11T07:05:01Z</time></trkpt><trkpt lat="43.49045065893677" lon="11.41441982545647"><ele>553.0</ele><time>2026-04-11T07:05:03Z</time></trkpt><trkpt lat="43.49043320293015" lon="11.414536414254213"><ele>553.1666666666667</ele><time>2026-04-11T07:05:04.999Z</time></trkpt><trkpt lat="43.49042433101065" lon="11.414650936268359"><ele>553.3333333333334</ele><time>2026-04-11T07:05:06.999Z</time></trkpt><trkpt lat="43.49041318687557" lon="11.414766503423632"><ele>553.5</ele><time>2026-04-11T07:05:08.999Z</time></trkpt><trkpt lat="43.4903817761068" lon="11.414883770223915"><ele>553.6666666666666</ele><time>2026-04-11T07:05:10.999Z</time></trkpt><trkpt lat="43.49037690033356" lon="11.415013757978855"><ele>553.8333333333333</ele><time>2026-04-11T07:05:12.999Z</time></trkpt><trkpt lat="43.49035429297291" lon="11.415135489592778"><ele>554.0</ele><time>2026-04-11T07:05:14.999Z</time></trkpt><trkpt lat="43.490318820844536" lon="11.415271988320653"><ele>554.0</ele><time>2026-04-11T07:05:16.999Z</time></trkpt><trkpt lat="43.490311314807954" lon="11.415402642454701"><ele>554.0</ele><time>2026-04-11T07:05:18.999Z</time></trkpt><trkpt lat="43.49026817557238" lon="11.415539201660705"><ele>554.0</ele><time>2026-04-11T07:05:20.999Z</time></trkpt><trkpt lat="43.49025268479121" lon="11.415680307392273"><ele>554.0</ele><time>2026-04-11T07:05:22.999Z</time></trkpt><trkpt lat="43.490222067643955" lon="11.415806531584384"><ele>554.0</ele><time>2026-04-11T07:05:24.999Z</time></trkpt><trkpt lat="43.490185791863134" lon="11.415931781926655"><ele>554.3333333333333</ele><time>2026-04-11T07:05:26.999Z</time></trkpt><trkpt lat="43.49016303642806" lon="11.416047621165362"><ele>554.6666666666666</ele><time>2026-04-11T07:05:28.999Z</time></trkpt><trkpt lat="43.49013380544379" lon="11.416156592662372"><ele>555.0</ele><time>2026-04-11T07:05:30.999Z</time></trkpt><trkpt lat="43.490110312398755" lon="11.416261860140429"><ele>555.3333333333334</ele><time>2026-04-11T07:05:32.999Z</time></trkpt><trkpt lat="43.49008541652864" lon="11.416374062351895"><ele>555.6666666666667</ele><time>2026-04-11T07:05:34.999Z</time></trkpt><trkpt lat="43.490073876297586" lon="11.416478903251043"><ele>556.0</ele><time>2026-04-11T07:05:36.999Z</time></trkpt><trkpt lat="43.4900653393835" lon="11.416615991569726"><ele>557.0</ele><time>2026-04-11T07:05:39.999Z</time></trkpt><trkpt lat="43.4900557428639" lon="11.416735488341807"><ele>558.0</ele><time>2026-04-11T07:05:42.999Z</time></trkpt><trkpt lat="43.490060706772034" lon="11.416839680386119"><ele>559.0</ele><time>2026-04-11T07:05:45.999Z</time></trkpt><trkpt lat="43.49008217288985" lon="11.41694396386323"><ele>560.0</ele><time>2026-04-11T07:05:48.999Z</time></trkpt><trkpt lat="43.49010136929118" lon="11.417044540013721"><ele>561.0</ele><time>2026-04-11T07:05:51.999Z</time></trkpt><trkpt lat="43.49013188812404" lon="11.417167461595273"><ele>562.0</ele><time>2026-04-11T07:05:54.999Z</time></trkpt><trkpt lat="43.49013798210779" lon="11.417262877088147"><ele>562.5714285714287</ele><time>2026-04-11T07:05:56.999Z</time></trkpt><trkpt lat="43.49015846941498" lon="11.41734759889705"><ele>563.1428571428571</ele><time>2026-04-11T07:05:58.999Z</time></trkpt><trkpt lat="43.49019034462907" lon="11.417427522055581"><ele>563.7142857142858</ele><time>2026-04-11T07:06:00.999Z</time></trkpt><trkpt lat="43.49021164477956" lon="11.417509287215575"><ele>564.2857142857143</ele><time>2026-04-11T07:06:02.999Z</time></trkpt><trkpt lat="43.49023968938755" lon="11.417590282039749"><ele>564.8571428571429</ele><time>2026-04-11T07:06:04.999Z</time></trkpt><trkpt lat="43.49027032032259" lon="11.41766713832735"><ele>565.4285714285714</ele><time>2026-04-11T07:06:07Z</time></trkpt><trkpt lat="43.49031998154679" lon="11.417786199507367"><ele>566.0</ele><time>2026-04-11T07:06:10Z</time></trkpt><trkpt lat="43.49037911635631" lon="11.417850365795333"><ele>566.2857142857143</ele><time>2026-04-11T07:06:12Z</time></trkpt><trkpt lat="43.4904323285938" lon="11.417913488089757"><ele>566.5714285714287</ele><time>2026-04-11T07:06:14Z</time></trkpt><trkpt lat="43.49048331093456" lon="11.417972183444919"><ele>566.8571428571429</ele><time>2026-04-11T07:06:16Z</time></trkpt><trkpt lat="43.49054702167702" lon="11.4180124196389"><ele>567.1428571428571</ele><time>2026-04-11T07:06:18Z</time></trkpt><trkpt lat="43.49061152755392" lon="11.418035809206241"><ele>567.4285714285713</ele><time>2026-04-11T07:06:20Z</time></trkpt><trkpt lat="43.49068411799503" lon="11.418073600862733"><ele>567.7142857142857</ele><time>2026-04-11T07:06:22Z</time></trkpt><trkpt lat="43.49075585935063" lon="11.418113648964368"><ele>568.0</ele><time>2026-04-11T07:06:24Z</time></trkpt><trkpt lat="43.49082442900211" lon="11.418181856306461"><ele>568.0</ele><time>2026-04-11T07:06:26Z</time></trkpt><trkpt lat="43.49089277180403" lon="11.418249183373653"><ele>568.0</ele><time>2026-04-11T07:06:28Z</time></trkpt><trkpt lat="43.490933698518155" lon="11.418345785967936"><ele>568.0</ele><time>2026-04-11T07:06:30Z</time></trkpt><trkpt lat="43.490950704629405" lon="11.41846477813561"><ele>568.0</ele><time>2026-04-11T07:06:32Z</time></trkpt><trkpt lat="43.490963289300026" lon="11.418595521381663"><ele>568.0</ele><time>2026-04-11T07:06:34Z</time></trkpt><trkpt lat="43.4909600910838" lon="11.418734502063037"><ele>567.0</ele><time>2026-04-11T07:06:36Z</time></trkpt><trkpt lat="43.4909484959595" lon="11.418888099294104"><ele>566.0</ele><time>2026-04-11T07:06:38Z</time></trkpt><trkpt lat="43.4909696860956" lon="11.419042104740123"><ele>565.0</ele><time>2026-04-11T07:06:40Z</time></trkpt><trkpt lat="43.4910081344146" lon="11.419194771516894"><ele>564.0</ele><time>2026-04-11T07:06:42Z</time></trkpt><trkpt lat="43.49103386715974" lon="11.419275558389623"><ele>563.0</ele><time>2026-04-11T07:06:43Z</time></trkpt><trkpt lat="43.49107542114625" lon="11.419445528790936"><ele>563.0</ele><time>2026-04-11T07:06:45Z</time></trkpt><trkpt lat="43.49109671143329" lon="11.419543891469107"><ele>563.0</ele><time>2026-04-11T07:06:46Z</time></trkpt><trkpt lat="43.49111087138417" lon="11.419645426261908"><ele>563.0</ele><time>2026-04-11T07:06:47Z</time></trkpt><trkpt lat="43.491126695372834" lon="11.419745678947946"><ele>563.0</ele><time>2026-04-11T07:06:48Z</time></trkpt><trkpt lat="43.49113998894793" lon="11.419841361614804"><ele>563.0</ele><time>2026-04-11T07:06:49Z</time></trkpt><trkpt lat="43.49115598866751" lon="11.419938703870677"><ele>563.0</ele><time>2026-04-11T07:06:50Z</time></trkpt><trkpt lat="43.491180054953546" lon="11.420058717522922"><ele>562.5</ele><time>2026-04-11T07:06:51Z</time></trkpt><trkpt lat="43.49119164586863" lon="11.420170543961094"><ele>562.0</ele><time>2026-04-11T07:06:52Z</time></trkpt><trkpt lat="43.49120999625663" lon="11.420282959088334"><ele>561.5</ele><time>2026-04-11T07:06:53Z</time></trkpt><trkpt lat="43.49122787142043" lon="11.420387190301524"><ele>561.0</ele><time>2026-04-11T07:06:54Z</time></trkpt><trkpt lat="43.49124661704607" lon="11.420481879697848"><ele>560.5</ele><time>2026-04-11T07:06:55Z</time></trkpt><trkpt lat="43.49126344777317" lon="11.42057599992971"><ele>560.0</ele><time>2026-04-11T07:06:56Z</time></trkpt><trkpt lat="43.49127482409543" lon="11.420665004859144"><ele>560.0</ele><time>2026-04-11T07:06:57Z</time></trkpt><trkpt lat="43.49129235310675" lon="11.42075126844179"><ele>560.0</ele><time>2026-04-11T07:06:58Z</time></trkpt><trkpt lat="43.49131056269152" lon="11.420898144492492"><ele>560.0</ele><time>2026-04-11T07:07:00Z</time></trkpt><trkpt lat="43.49131351288272" lon="11.421023467784357"><ele>560.0</ele><time>2026-04-11T07:07:02Z</time></trkpt><trkpt lat="43.49125910468613" lon="11.42112382384855"><ele>560.0</ele><time>2026-04-11T07:07:04Z</time></trkpt><trkpt lat="43.491177474868245" lon="11.42126198664672"><ele>560.0</ele><time>2026-04-11T07:07:07Z</time></trkpt><trkpt lat="43.491114955503726" lon="11.421193720815182"><ele>560.0</ele><time>2026-04-11T07:07:08Z</time></trkpt><trkpt lat="43.49102149582241" lon="11.42121480207764"><ele>560.0</ele><time>2026-04-11T07:07:10Z</time></trkpt><trkpt lat="43.49091941437178" lon="11.421239405505808"><ele>560.0</ele><time>2026-04-11T07:07:11.999Z</time></trkpt><trkpt lat="43.49081012061241" lon="11.421267184619055"><ele>560.0</ele><time>2026-04-11T07:07:13.999Z</time></trkpt><trkpt lat="43.4907010330304" lon="11.421293537035291"><ele>562.0</ele><time>2026-04-11T07:07:15.999Z</time></trkpt><trkpt lat="43.49059469356942" lon="11.421324535580847"><ele>564.0</ele><time>2026-04-11T07:07:17.999Z</time></trkpt><trkpt lat="43.4904758350128" lon="11.421362292825929"><ele>566.0</ele><time>2026-04-11T07:07:19.999Z</time></trkpt><trkpt lat="43.4903587699318" lon="11.42140189186941"><ele>568.0</ele><time>2026-04-11T07:07:21.999Z</time></trkpt><trkpt lat="43.49023583904425" lon="11.42144489514185"><ele>568.0</ele><time>2026-04-11T07:07:23.999Z</time></trkpt><trkpt lat="43.49017353933702" lon="11.421459166318067"><ele>568.0</ele><time>2026-04-11T07:07:24.999Z</time></trkpt><trkpt lat="43.49005211956046" lon="11.421501485039345"><ele>568.0</ele><time>2026-04-11T07:07:26.999Z</time></trkpt><trkpt lat="43.48998846514299" lon="11.42153538364802"><ele>568.0</ele><time>2026-04-11T07:07:27.999Z</time></trkpt><trkpt lat="43.489919271946576" lon="11.421555989905569"><ele>568.0</ele><time>2026-04-11T07:07:28.999Z</time></trkpt><trkpt lat="43.48984513337885" lon="11.421574477607347"><ele>568.0</ele><time>2026-04-11T07:07:29.999Z</time></trkpt><trkpt lat="43.48976913458602" lon="11.42160164698598"><ele>568.0</ele><time>2026-04-11T07:07:30.999Z</time></trkpt><trkpt lat="43.489688752759804" lon="11.42163140283264"><ele>568.0</ele><time>2026-04-11T07:07:31.999Z</time></trkpt><trkpt lat="43.48960188887332" lon="11.421670424164477"><ele>568.0</ele><time>2026-04-11T07:07:32.999Z</time></trkpt><trkpt lat="43.489514760856444" lon="11.421735448267244"><ele>568.0</ele><time>2026-04-11T07:07:33.999Z</time></trkpt><trkpt lat="43.489425411862605" lon="11.421791771524228"><ele>568.0</ele><time>2026-04-11T07:07:34.999Z</time></trkpt><trkpt lat="43.48933660241265" lon="11.421849529615411"><ele>564.8</ele><time>2026-04-11T07:07:35.999Z</time></trkpt><trkpt lat="43.48924997163647" lon="11.421894569763804"><ele>561.5999999999999</ele><time>2026-04-11T07:07:36.999Z</time></trkpt><trkpt lat="43.48916005531941" lon="11.421888448663994"><ele>558.4000000000001</ele><time>2026-04-11T07:07:37.999Z</time></trkpt><trkpt lat="43.489079533830974" lon="11.421882845070861"><ele>555.2</ele><time>2026-04-11T07:07:38.999Z</time></trkpt><trkpt lat="43.48900006221674" lon="11.421879929958314"><ele>552.0</ele><time>2026-04-11T07:07:39.999Z</time></trkpt><trkpt lat="43.48887659741893" lon="11.421911473812928"><ele>552.0</ele><time>2026-04-11T07:07:41.999Z</time></trkpt><trkpt lat="43.48876317923265" lon="11.421937008448317"><ele>552.0</ele><time>2026-04-11T07:07:43.999Z</time></trkpt><trkpt lat="43.48864495415744" lon="11.421986771606253"><ele>552.0</ele><time>2026-04-11T07:07:45.999Z</time></trkpt><trkpt lat="43.488581178931696" lon="11.422020962147853"><ele>552.0</ele><time>2026-04-11T07:07:46.999Z</time></trkpt><trkpt lat="43.48852194013285" lon="11.422065939560817"><ele>552.0</ele><time>2026-04-11T07:07:47.999Z</time></trkpt><trkpt lat="43.48842498377646" lon="11.422130760753275"><ele>553.2</ele><time>2026-04-11T07:07:49.999Z</time></trkpt><trkpt lat="43.48836674725635" lon="11.42225670603311"><ele>554.4000000000001</ele><time>2026-04-11T07:07:51.999Z</time></trkpt><trkpt lat="43.48833819473289" lon="11.422335669842546"><ele>555.5999999999999</ele><time>2026-04-11T07:07:52.999Z</time></trkpt><trkpt lat="43.48829353040329" lon="11.42246405782354"><ele>556.8</ele><time>2026-04-11T07:07:54.999Z</time></trkpt><trkpt lat="43.488266029508054" lon="11.422613108912708"><ele>558.0</ele><time>2026-04-11T07:07:56.999Z</time></trkpt><trkpt lat="43.488223895824625" lon="11.422731349748725"><ele>558.0</ele><time>2026-04-11T07:07:58.999Z</time></trkpt><trkpt lat="43.488135120059226" lon="11.42279176425774"><ele>558.0</ele><time>2026-04-11T07:08:00.999Z</time></trkpt><trkpt lat="43.4880720221556" lon="11.422771240126162"><ele>558.0</ele><time>2026-04-11T07:08:01.999Z</time></trkpt><trkpt lat="43.48799239310393" lon="11.422686300304656"><ele>558.0</ele><time>2026-04-11T07:08:03.999Z</time></trkpt><trkpt lat="43.4879160479665" lon="11.422611794733388"><ele>558.0</ele><time>2026-04-11T07:08:05.999Z</time></trkpt><trkpt lat="43.48786012385407" lon="11.422566219676112"><ele>558.0</ele><time>2026-04-11T07:08:07.999Z</time></trkpt><trkpt lat="43.487792952912166" lon="11.422526367503844"><ele>557.1999999999999</ele><time>2026-04-11T07:08:09.999Z</time></trkpt><trkpt lat="43.48772121482527" lon="11.422474642860044"><ele>556.4</ele><time>2026-04-11T07:08:12Z</time></trkpt><trkpt lat="43.48763962317311" lon="11.42239133917321"><ele>555.5999999999999</ele><time>2026-04-11T07:08:14Z</time></trkpt><trkpt lat="43.48754839970351" lon="11.422300000543032"><ele>554.8</ele><time>2026-04-11T07:08:16Z</time></trkpt><trkpt lat="43.487435456193616" lon="11.422212440948748"><ele>554.0</ele><time>2026-04-11T07:08:18Z</time></trkpt><trkpt lat="43.48733352911179" lon="11.422091681438216"><ele>552.1666666666666</ele><time>2026-04-11T07:08:20Z</time></trkpt><trkpt lat="43.4872716454413" lon="11.422032360958964"><ele>550.3333333333333</ele><time>2026-04-11T07:08:21Z</time></trkpt><trkpt lat="43.48722040392168" lon="11.421958034023621"><ele>548.5</ele><time>2026-04-11T07:08:22Z</time></trkpt><trkpt lat="43.4871612257052" lon="11.42187084130017"><ele>546.6666666666666</ele><time>2026-04-11T07:08:23Z</time></trkpt><trkpt lat="43.48708978948442" lon="11.42182092264986"><ele>544.8333333333334</ele><time>2026-04-11T07:08:24Z</time></trkpt><trkpt lat="43.48705062222052" lon="11.421737689789133"><ele>543.0</ele><time>2026-04-11T07:08:25Z</time></trkpt><trkpt lat="43.48701316775118" lon="11.421662159168926"><ele>543.0</ele><time>2026-04-11T07:08:26Z</time></trkpt><trkpt lat="43.48697320298138" lon="11.421579608451667"><ele>543.0</ele><time>2026-04-11T07:08:27Z</time></trkpt><trkpt lat="43.486946273154196" lon="11.421469580190314"><ele>543.0</ele><time>2026-04-11T07:08:28Z</time></trkpt><trkpt lat="43.486904872753314" lon="11.42139163358385"><ele>543.0</ele><time>2026-04-11T07:08:29Z</time></trkpt><trkpt lat="43.486864396747364" lon="11.421314592600384"><ele>543.0</ele><time>2026-04-11T07:08:30Z</time></trkpt><trkpt lat="43.48681936085107" lon="11.421228872476108"><ele>543.0</ele><time>2026-04-11T07:08:31Z</time></trkpt><trkpt lat="43.48676265213875" lon="11.421154470736345"><ele>542.8571428571429</ele><time>2026-04-11T07:08:32Z</time></trkpt><trkpt lat="43.4867224208133" lon="11.421069159355282"><ele>542.7142857142857</ele><time>2026-04-11T07:08:33Z</time></trkpt><trkpt lat="43.486676512110996" lon="11.42098997430276"><ele>542.5714285714286</ele><time>2026-04-11T07:08:34Z</time></trkpt><trkpt lat="43.4866266935182" lon="11.420906132307032"><ele>542.4285714285714</ele><time>2026-04-11T07:08:35Z</time></trkpt><trkpt lat="43.48658479465975" lon="11.420827133324202"><ele>542.2857142857143</ele><time>2026-04-11T07:08:36Z</time></trkpt><trkpt lat="43.486539322122326" lon="11.420748347798753"><ele>542.1428571428571</ele><time>2026-04-11T07:08:37Z</time></trkpt><trkpt lat="43.48649099781804" lon="11.420675532737226"><ele>542.0</ele><time>2026-04-11T07:08:38Z</time></trkpt><trkpt lat="43.48644380727433" lon="11.42061551217391"><ele>542.0</ele><time>2026-04-11T07:08:39Z</time></trkpt><trkpt lat="43.48639235170847" lon="11.420558587629817"><ele>542.0</ele><time>2026-04-11T07:08:40Z</time></trkpt><trkpt lat="43.486342168713335" lon="11.420500539645856"><ele>542.0</ele><time>2026-04-11T07:08:41Z</time></trkpt><trkpt lat="43.48628741436927" lon="11.42044844986812"><ele>542.0</ele><time>2026-04-11T07:08:42Z</time></trkpt><trkpt lat="43.48619167874291" lon="11.420369186697092"><ele>542.0</ele><time>2026-04-11T07:08:44Z</time></trkpt><trkpt lat="43.48609328588981" lon="11.420305696041458"><ele>542.0</ele><time>2026-04-11T07:08:46Z</time></trkpt><trkpt lat="43.48600175644251" lon="11.420246940638167"><ele>543.0</ele><time>2026-04-11T07:08:48Z</time></trkpt><trkpt lat="43.485911958443914" lon="11.420193082959482"><ele>544.0</ele><time>2026-04-11T07:08:50Z</time></trkpt><trkpt lat="43.485833422497606" lon="11.420145162163609"><ele>545.0</ele><time>2026-04-11T07:08:52Z</time></trkpt><trkpt lat="43.48573869572882" lon="11.420093520903217"><ele>546.0</ele><time>2026-04-11T07:08:54Z</time></trkpt><trkpt lat="43.48565472611422" lon="11.420049964870964"><ele>547.0</ele><time>2026-04-11T07:08:56Z</time></trkpt><trkpt lat="43.48557528630833" lon="11.419996753905341"><ele>547.0</ele><time>2026-04-11T07:08:58Z</time></trkpt><trkpt lat="43.48549124137987" lon="11.419942441401378"><ele>547.0</ele><time>2026-04-11T07:09:00Z</time></trkpt><trkpt lat="43.485408058330336" lon="11.41990258910126"><ele>547.0</ele><time>2026-04-11T07:09:02Z</time></trkpt><trkpt lat="43.485316936279105" lon="11.419851756732655"><ele>547.0</ele><time>2026-04-11T07:09:04Z</time></trkpt><trkpt lat="43.48523828046242" lon="11.419808379790128"><ele>547.0</ele><time>2026-04-11T07:09:06Z</time></trkpt><trkpt lat="43.48516475393684" lon="11.41976512110597"><ele>547.0</ele><time>2026-04-11T07:09:08Z</time></trkpt><trkpt lat="43.485094258753875" lon="11.419718949453166"><ele>546.8333333333334</ele><time>2026-04-11T07:09:10Z</time></trkpt><trkpt lat="43.485021664702735" lon="11.419680400647511"><ele>546.6666666666667</ele><time>2026-04-11T07:09:12Z</time></trkpt><trkpt lat="43.48494610247445" lon="11.419631994568205"><ele>546.5</ele><time>2026-04-11T07:09:13.999Z</time></trkpt><trkpt lat="43.48486921460679" lon="11.419588179787485"><ele>546.3333333333334</ele><time>2026-04-11T07:09:15.999Z</time></trkpt><trkpt lat="43.48479946660384" lon="11.419542402320477"><ele>546.1666666666666</ele><time>2026-04-11T07:09:17.999Z</time></trkpt><trkpt lat="43.48472680099449" lon="11.419500131449814"><ele>546.0</ele><time>2026-04-11T07:09:19.999Z</time></trkpt><trkpt lat="43.48464508808497" lon="11.41946203939759"><ele>546.3333333333334</ele><time>2026-04-11T07:09:21.999Z</time></trkpt><trkpt lat="43.48456709654909" lon="11.419431138136668"><ele>546.6666666666666</ele><time>2026-04-11T07:09:23.999Z</time></trkpt><trkpt lat="43.484482894682706" lon="11.41940686778378"><ele>547.0</ele><time>2026-04-11T07:09:25.999Z</time></trkpt><trkpt lat="43.48440142049032" lon="11.419403093104023"><ele>547.3333333333333</ele><time>2026-04-11T07:09:27.999Z</time></trkpt><trkpt lat="43.484311440334864" lon="11.419404911910222"><ele>547.6666666666666</ele><time>2026-04-11T07:09:29.999Z</time></trkpt><trkpt lat="43.48422600458005" lon="11.419427317213067"><ele>548.0</ele><time>2026-04-11T07:09:31.999Z</time></trkpt><trkpt lat="43.484125364711325" lon="11.419464924025338"><ele>548.0</ele><time>2026-04-11T07:09:33.999Z</time></trkpt><trkpt lat="43.484024497788525" lon="11.419505945019532"><ele>548.0</ele><time>2026-04-11T07:09:35.999Z</time></trkpt><trkpt lat="43.483911319001336" lon="11.419583071046015"><ele>548.0</ele><time>2026-04-11T07:09:37.999Z</time></trkpt><trkpt lat="43.48385033535099" lon="11.419611393264539"><ele>548.0</ele><time>2026-04-11T07:09:38.999Z</time></trkpt><trkpt lat="43.48373538274971" lon="11.419678518810025"><ele>548.0</ele><time>2026-04-11T07:09:40.999Z</time></trkpt><trkpt lat="43.48367535889336" lon="11.419727122335633"><ele>547.5714285714287</ele><time>2026-04-11T07:09:41.999Z</time></trkpt><trkpt lat="43.483612243100225" lon="11.419765430142798"><ele>547.1428571428571</ele><time>2026-04-11T07:09:42.999Z</time></trkpt><trkpt lat="43.483551501591336" lon="11.419800296946647"><ele>546.7142857142858</ele><time>2026-04-11T07:09:43.999Z</time></trkpt><trkpt lat="43.483486897744264" lon="11.419843806509874"><ele>546.2857142857143</ele><time>2026-04-11T07:09:44.999Z</time></trkpt><trkpt lat="43.48341736619771" lon="11.419893139791224"><ele>545.8571428571429</ele><time>2026-04-11T07:09:45.999Z</time></trkpt><trkpt lat="43.483358479049095" lon="11.419931831414448"><ele>545.4285714285714</ele><time>2026-04-11T07:09:46.999Z</time></trkpt><trkpt lat="43.483293428121875" lon="11.419978846406934"><ele>545.0</ele><time>2026-04-11T07:09:47.999Z</time></trkpt><trkpt lat="43.48322690626839" lon="11.42001240748476"><ele>545.0</ele><time>2026-04-11T07:09:48.999Z</time></trkpt><trkpt lat="43.48316653866063" lon="11.42005245999382"><ele>545.0</ele><time>2026-04-11T07:09:49.999Z</time></trkpt><trkpt lat="43.483102068275755" lon="11.420094092872603"><ele>545.0</ele><time>2026-04-11T07:09:50.999Z</time></trkpt><trkpt lat="43.483039171760986" lon="11.420142231529999"><ele>545.0</ele><time>2026-04-11T07:09:51.999Z</time></trkpt><trkpt lat="43.48297021130801" lon="11.420183120711561"><ele>545.0</ele><time>2026-04-11T07:09:52.999Z</time></trkpt><trkpt lat="43.48285330445364" lon="11.42026176788245"><ele>545.0</ele><time>2026-04-11T07:09:54.999Z</time></trkpt><trkpt lat="43.48279549427467" lon="11.420309323094537"><ele>544.8571428571429</ele><time>2026-04-11T07:09:55.999Z</time></trkpt><trkpt lat="43.48272955669896" lon="11.4203429183942"><ele>544.7142857142858</ele><time>2026-04-11T07:09:56.999Z</time></trkpt><trkpt lat="43.48266919277928" lon="11.420383748796686"><ele>544.5714285714286</ele><time>2026-04-11T07:09:57.999Z</time></trkpt><trkpt lat="43.48260571792476" lon="11.42042906169307"><ele>544.4285714285714</ele><time>2026-04-11T07:09:58.999Z</time></trkpt><trkpt lat="43.48254716708888" lon="11.420476032452761"><ele>544.2857142857142</ele><time>2026-04-11T07:09:59.999Z</time></trkpt><trkpt lat="43.482485113992084" lon="11.420519899792735"><ele>544.1428571428571</ele><time>2026-04-11T07:10:00.999Z</time></trkpt><trkpt lat="43.482425387028414" lon="11.420564449472781"><ele>544.0</ele><time>2026-04-11T07:10:01.999Z</time></trkpt><trkpt lat="43.482352326535576" lon="11.42061808413044"><ele>544.0</ele><time>2026-04-11T07:10:02.999Z</time></trkpt><trkpt lat="43.48228442883655" lon="11.420664357243403"><ele>544.0</ele><time>2026-04-11T07:10:03.999Z</time></trkpt><trkpt lat="43.48221594166819" lon="11.420713672371752"><ele>544.0</ele><time>2026-04-11T07:10:04.999Z</time></trkpt><trkpt lat="43.48215653965734" lon="11.420768033119327"><ele>544.0</ele><time>2026-04-11T07:10:05.999Z</time></trkpt><trkpt lat="43.482083941076894" lon="11.420815627889132"><ele>544.0</ele><time>2026-04-11T07:10:06.999Z</time></trkpt><trkpt lat="43.482012041276874" lon="11.420866022054085"><ele>544.0</ele><time>2026-04-11T07:10:07.999Z</time></trkpt><trkpt lat="43.48194985222411" lon="11.420919540008626"><ele>542.8333333333334</ele><time>2026-04-11T07:10:08.999Z</time></trkpt><trkpt lat="43.48188942640251" lon="11.420974505102306"><ele>541.6666666666667</ele><time>2026-04-11T07:10:09.999Z</time></trkpt><trkpt lat="43.48181862158533" lon="11.42102181677944"><ele>540.5</ele><time>2026-04-11T07:10:10.999Z</time></trkpt><trkpt lat="43.481756204799616" lon="11.421078744577128"><ele>539.3333333333334</ele><time>2026-04-11T07:10:11.999Z</time></trkpt><trkpt lat="43.48167510411282" lon="11.421128765130707"><ele>538.1666666666666</ele><time>2026-04-11T07:10:12.999Z</time></trkpt><trkpt lat="43.481609362853995" lon="11.421176263604922"><ele>537.0</ele><time>2026-04-11T07:10:13.999Z</time></trkpt><trkpt lat="43.48154443838464" lon="11.421235103022742"><ele>536.9999999999999</ele><time>2026-04-11T07:10:14.999Z</time></trkpt><trkpt lat="43.48147659535953" lon="11.421284965007558"><ele>537.0</ele><time>2026-04-11T07:10:15.999Z</time></trkpt><trkpt lat="43.48141054387983" lon="11.421336371763086"><ele>537.0</ele><time>2026-04-11T07:10:16.999Z</time></trkpt><trkpt lat="43.481348060753184" lon="11.421389962491661"><ele>537.0</ele><time>2026-04-11T07:10:18Z</time></trkpt><trkpt lat="43.48128299343957" lon="11.421448263122116"><ele>537.0</ele><time>2026-04-11T07:10:19Z</time></trkpt><trkpt lat="43.48121915370704" lon="11.42150142855083"><ele>536.9999999999999</ele><time>2026-04-11T07:10:20Z</time></trkpt><trkpt lat="43.48116331450646" lon="11.421552078578243"><ele>537.0</ele><time>2026-04-11T07:10:21Z</time></trkpt><trkpt lat="43.48111069451057" lon="11.421601282387783"><ele>537.1428571428571</ele><time>2026-04-11T07:10:22Z</time></trkpt><trkpt lat="43.4810465096638" lon="11.421655583047233"><ele>537.2857142857142</ele><time>2026-04-11T07:10:23Z</time></trkpt><trkpt lat="43.48097872487879" lon="11.421701863641934"><ele>537.4285714285714</ele><time>2026-04-11T07:10:24Z</time></trkpt><trkpt lat="43.480921405662585" lon="11.42174830884857"><ele>537.5714285714286</ele><time>2026-04-11T07:10:25Z</time></trkpt><trkpt lat="43.48086324578693" lon="11.421799950469609"><ele>537.7142857142858</ele><time>2026-04-11T07:10:26Z</time></trkpt><trkpt lat="43.48079912415788" lon="11.421848503127139"><ele>537.8571428571429</ele><time>2026-04-11T07:10:27Z</time></trkpt><trkpt lat="43.48072705068915" lon="11.421898806423718"><ele>538.0</ele><time>2026-04-11T07:10:28Z</time></trkpt><trkpt lat="43.48066054433669" lon="11.421956180468747"><ele>538.0</ele><time>2026-04-11T07:10:29Z</time></trkpt><trkpt lat="43.480593960596785" lon="11.422002531659384"><ele>538.0</ele><time>2026-04-11T07:10:30Z</time></trkpt><trkpt lat="43.48052885537438" lon="11.422046314750958"><ele>538.0</ele><time>2026-04-11T07:10:31Z</time></trkpt><trkpt lat="43.480456615663236" lon="11.422088055549407"><ele>538.0</ele><time>2026-04-11T07:10:32Z</time></trkpt><trkpt lat="43.48038178496261" lon="11.422136437977963"><ele>538.0</ele><time>2026-04-11T07:10:33Z</time></trkpt><trkpt lat="43.480324376074904" lon="11.422191656010519"><ele>538.0</ele><time>2026-04-11T07:10:34Z</time></trkpt><trkpt lat="43.480264122621655" lon="11.422245301432767"><ele>537.2857142857143</ele><time>2026-04-11T07:10:35Z</time></trkpt><trkpt lat="43.480206773402486" lon="11.422285623406562"><ele>536.5714285714287</ele><time>2026-04-11T07:10:36Z</time></trkpt><trkpt lat="43.4801578409235" lon="11.422345412332973"><ele>535.8571428571429</ele><time>2026-04-11T07:10:37Z</time></trkpt><trkpt lat="43.48009223356811" lon="11.42241059104262"><ele>535.1428571428571</ele><time>2026-04-11T07:10:38Z</time></trkpt><trkpt lat="43.48003671711714" lon="11.422464492183815"><ele>534.4285714285713</ele><time>2026-04-11T07:10:39Z</time></trkpt><trkpt lat="43.479986584654156" lon="11.422529296059578"><ele>533.7142857142857</ele><time>2026-04-11T07:10:40Z</time></trkpt><trkpt lat="43.479936309889496" lon="11.422586884935209"><ele>533.0</ele><time>2026-04-11T07:10:41Z</time></trkpt><trkpt lat="43.479880393536014" lon="11.42264050055409"><ele>533.0</ele><time>2026-04-11T07:10:42Z</time></trkpt><trkpt lat="43.47982516019407" lon="11.42270695671299"><ele>533.0</ele><time>2026-04-11T07:10:43Z</time></trkpt><trkpt lat="43.47977317187282" lon="11.422772126721352"><ele>533.0</ele><time>2026-04-11T07:10:44Z</time></trkpt><trkpt lat="43.479673688500895" lon="11.42288290253702"><ele>533.0</ele><time>2026-04-11T07:10:46Z</time></trkpt><trkpt lat="43.479622951478554" lon="11.422939623874575"><ele>533.0</ele><time>2026-04-11T07:10:47Z</time></trkpt><trkpt lat="43.47957269208087" lon="11.423007252676252"><ele>533.0</ele><time>2026-04-11T07:10:48Z</time></trkpt><trkpt lat="43.47952654276065" lon="11.423070932766"><ele>533.1999999999999</ele><time>2026-04-11T07:10:49Z</time></trkpt><trkpt lat="43.479483809460795" lon="11.423139414264448"><ele>533.4</ele><time>2026-04-11T07:10:50Z</time></trkpt><trkpt lat="43.47941555118957" lon="11.423278954259493"><ele>533.5999999999999</ele><time>2026-04-11T07:10:52Z</time></trkpt><trkpt lat="43.479348133647946" lon="11.423415503224264"><ele>533.8</ele><time>2026-04-11T07:10:54Z</time></trkpt><trkpt lat="43.47928584541941" lon="11.423539413774169"><ele>534.0</ele><time>2026-04-11T07:10:56Z</time></trkpt><trkpt lat="43.47922344843603" lon="11.423657357678138"><ele>534.0</ele><time>2026-04-11T07:10:58Z</time></trkpt><trkpt lat="43.47916120392004" lon="11.42375972047983"><ele>534.0</ele><time>2026-04-11T07:11:00Z</time></trkpt><trkpt lat="43.479116364496896" lon="11.423842352608519"><ele>534.0</ele><time>2026-04-11T07:11:01Z</time></trkpt><trkpt lat="43.47906136189704" lon="11.423891482225134"><ele>534.0</ele><time>2026-04-11T07:11:02Z</time></trkpt><trkpt lat="43.479009342696386" lon="11.423960861580591"><ele>534.0</ele><time>2026-04-11T07:11:03Z</time></trkpt><trkpt lat="43.47891625232952" lon="11.424082693032286"><ele>534.0</ele><time>2026-04-11T07:11:05Z</time></trkpt><trkpt lat="43.478843433472804" lon="11.424151531433502"><ele>531.6</ele><time>2026-04-11T07:11:06Z</time></trkpt><trkpt lat="43.478739173888286" lon="11.424256799860244"><ele>529.2</ele><time>2026-04-11T07:11:08Z</time></trkpt><trkpt lat="43.47866152065102" lon="11.424286123486855"><ele>526.8000000000001</ele><time>2026-04-11T07:11:09Z</time></trkpt><trkpt lat="43.478583391612716" lon="11.42432444668477"><ele>524.4</ele><time>2026-04-11T07:11:10Z</time></trkpt><trkpt lat="43.478519574171706" lon="11.424378654495085"><ele>522.0</ele><time>2026-04-11T07:11:11Z</time></trkpt><trkpt lat="43.47844380235401" lon="11.424429237883482"><ele>522.0</ele><time>2026-04-11T07:11:12Z</time></trkpt><trkpt lat="43.47838287709651" lon="11.42447398591108"><ele>522.0</ele><time>2026-04-11T07:11:13Z</time></trkpt><trkpt lat="43.47830215516765" lon="11.42451069875883"><ele>522.0</ele><time>2026-04-11T07:11:14Z</time></trkpt><trkpt lat="43.4782283516589" lon="11.424565832947948"><ele>522.0</ele><time>2026-04-11T07:11:15Z</time></trkpt><trkpt lat="43.47818742424263" lon="11.424638184035446"><ele>522.0</ele><time>2026-04-11T07:11:16Z</time></trkpt><trkpt lat="43.478122495794736" lon="11.424659224467918"><ele>522.0</ele><time>2026-04-11T07:11:17Z</time></trkpt><trkpt lat="43.47803584103774" lon="11.424693014940832"><ele>522.0</ele><time>2026-04-11T07:11:19Z</time></trkpt><trkpt lat="43.47795731462099" lon="11.424588177921864"><ele>522.0</ele><time>2026-04-11T07:11:21Z</time></trkpt><trkpt lat="43.47787457357039" lon="11.4244607272331"><ele>522.0</ele><time>2026-04-11T07:11:23Z</time></trkpt><trkpt lat="43.477820795058335" lon="11.424408587991318"><ele>522.0</ele><time>2026-04-11T07:11:24Z</time></trkpt><trkpt lat="43.47774302229115" lon="11.424256864231198"><ele>522.0</ele><time>2026-04-11T07:11:25.999Z</time></trkpt><trkpt lat="43.47769203116005" lon="11.424171355380306"><ele>519.2</ele><time>2026-04-11T07:11:26.999Z</time></trkpt><trkpt lat="43.47763435165815" lon="11.42408125760536"><ele>516.4000000000001</ele><time>2026-04-11T07:11:27.999Z</time></trkpt><trkpt lat="43.477567279455805" lon="11.423999296755479"><ele>513.5999999999999</ele><time>2026-04-11T07:11:28.999Z</time></trkpt><trkpt lat="43.4775073058188" lon="11.423904362674975"><ele>510.79999999999995</ele><time>2026-04-11T07:11:29.999Z</time></trkpt><trkpt lat="43.477433854242754" lon="11.423797194038087"><ele>508.0</ele><time>2026-04-11T07:11:30.999Z</time></trkpt><trkpt lat="43.477366619306665" lon="11.4237034983282"><ele>508.0</ele><time>2026-04-11T07:11:31.999Z</time></trkpt><trkpt lat="43.47730070163013" lon="11.423596990086505"><ele>507.99999999999994</ele><time>2026-04-11T07:11:32.999Z</time></trkpt><trkpt lat="43.477229426656066" lon="11.42349965798125"><ele>507.99999999999994</ele><time>2026-04-11T07:11:33.999Z</time></trkpt><trkpt lat="43.477162052447376" lon="11.423403816175881"><ele>508.0</ele><time>2026-04-11T07:11:34.999Z</time></trkpt><trkpt lat="43.47709674035132" lon="11.42331181787881"><ele>508.0</ele><time>2026-04-11T07:11:35.999Z</time></trkpt><trkpt lat="43.477041118553906" lon="11.423240917438758"><ele>507.59999999999997</ele><time>2026-04-11T07:11:36.999Z</time></trkpt><trkpt lat="43.47693923490907" lon="11.423114847423596"><ele>507.19999999999993</ele><time>2026-04-11T07:11:38.999Z</time></trkpt><trkpt lat="43.47689269748285" lon="11.423054003697553"><ele>506.8</ele><time>2026-04-11T07:11:39.999Z</time></trkpt><trkpt lat="43.47680498345878" lon="11.422959882346428"><ele>506.4</ele><time>2026-04-11T07:11:41.999Z</time></trkpt><trkpt lat="43.476705189987115" lon="11.422886996376493"><ele>506.0</ele><time>2026-04-11T07:11:43.999Z</time></trkpt><trkpt lat="43.47660018916641" lon="11.422814835562018"><ele>506.0</ele><time>2026-04-11T07:11:45.999Z</time></trkpt><trkpt lat="43.476497146645535" lon="11.422742018753555"><ele>506.0</ele><time>2026-04-11T07:11:47.999Z</time></trkpt><trkpt lat="43.47643167641876" lon="11.422704265951277"><ele>506.0</ele><time>2026-04-11T07:11:48.999Z</time></trkpt><trkpt lat="43.47635912178661" lon="11.422665128489173"><ele>506.0</ele><time>2026-04-11T07:11:49.999Z</time></trkpt><trkpt lat="43.47629046105588" lon="11.422628994196472"><ele>506.0</ele><time>2026-04-11T07:11:50.999Z</time></trkpt><trkpt lat="43.47616834330174" lon="11.422547996071726"><ele>505.99999999999994</ele><time>2026-04-11T07:11:52.999Z</time></trkpt><trkpt lat="43.476100419213346" lon="11.422510757390157"><ele>506.0</ele><time>2026-04-11T07:11:53.999Z</time></trkpt><trkpt lat="43.47603502893799" lon="11.42247141588793"><ele>506.0</ele><time>2026-04-11T07:11:54.999Z</time></trkpt><trkpt lat="43.47597204792691" lon="11.42243326958065"><ele>506.0</ele><time>2026-04-11T07:11:55.999Z</time></trkpt><trkpt lat="43.4758987040314" lon="11.42239568400896"><ele>505.99999999999994</ele><time>2026-04-11T07:11:56.999Z</time></trkpt><trkpt lat="43.475838262463924" lon="11.422369204064127"><ele>506.0</ele><time>2026-04-11T07:11:57.999Z</time></trkpt><trkpt lat="43.47572007865924" lon="11.422333325275684"><ele>506.0</ele><time>2026-04-11T07:11:59.999Z</time></trkpt><trkpt lat="43.47561350014228" lon="11.422327816676827"><ele>506.0</ele><time>2026-04-11T07:12:01.999Z</time></trkpt><trkpt lat="43.47552345440012" lon="11.42233004791098"><ele>506.0</ele><time>2026-04-11T07:12:03.999Z</time></trkpt><trkpt lat="43.47543988185169" lon="11.4223514241293"><ele>506.0</ele><time>2026-04-11T07:12:05.999Z</time></trkpt><trkpt lat="43.47535425126098" lon="11.42240575186792"><ele>506.0</ele><time>2026-04-11T07:12:08.999Z</time></trkpt><trkpt lat="43.4752779206627" lon="11.422440232010942"><ele>507.57142857142867</ele><time>2026-04-11T07:12:11.999Z</time></trkpt><trkpt lat="43.475203706538124" lon="11.422487764253239"><ele>509.14285714285717</ele><time>2026-04-11T07:12:15.999Z</time></trkpt><trkpt lat="43.47514326398171" lon="11.422527559697906"><ele>510.7142857142858</ele><time>2026-04-11T07:12:18.999Z</time></trkpt><trkpt lat="43.47507955783878" lon="11.422578008068909"><ele>512.2857142857143</ele><time>2026-04-11T07:12:22.999Z</time></trkpt><trkpt lat="43.47500339849437" lon="11.422598553315916"><ele>513.8571428571429</ele><time>2026-04-11T07:12:28Z</time></trkpt><trkpt lat="43.47493520380577" lon="11.42261653101698"><ele>515.4285714285714</ele><time>2026-04-11T07:12:33Z</time></trkpt><trkpt lat="43.474855528071956" lon="11.422627417632068"><ele>517.0</ele><time>2026-04-11T07:12:38Z</time></trkpt><trkpt lat="43.47478512019842" lon="11.422617524552106"><ele>517.0</ele><time>2026-04-11T07:12:43Z</time></trkpt><trkpt lat="43.47471925783747" lon="11.422600594824214"><ele>517.0</ele><time>2026-04-11T07:12:47Z</time></trkpt><trkpt lat="43.47464825417231" lon="11.422573421046257"><ele>517.0</ele><time>2026-04-11T07:12:50Z</time></trkpt><trkpt lat="43.47456960148547" lon="11.422545884199813"><ele>517.0</ele><time>2026-04-11T07:12:53Z</time></trkpt><trkpt lat="43.474483424461134" lon="11.422512306583211"><ele>517.0</ele><time>2026-04-11T07:12:56Z</time></trkpt><trkpt lat="43.47441959219483" lon="11.42249050363046"><ele>517.0</ele><time>2026-04-11T07:12:58Z</time></trkpt><trkpt lat="43.47435466088229" lon="11.422473027852302"><ele>517.0</ele><time>2026-04-11T07:13:00Z</time></trkpt><trkpt lat="43.474284806908145" lon="11.422452857349061"><ele>517.5</ele><time>2026-04-11T07:13:02Z</time></trkpt><trkpt lat="43.47421488042758" lon="11.42242913086211"><ele>518.0</ele><time>2026-04-11T07:13:04Z</time></trkpt><trkpt lat="43.47414401661591" lon="11.422409042484409"><ele>518.5</ele><time>2026-04-11T07:13:06Z</time></trkpt><trkpt lat="43.47406962428657" lon="11.422409452634161"><ele>519.0</ele><time>2026-04-11T07:13:08Z</time></trkpt><trkpt lat="43.4739919868896" lon="11.422406339074517"><ele>519.5</ele><time>2026-04-11T07:13:10Z</time></trkpt><trkpt lat="43.47391175812515" lon="11.422388512166446"><ele>520.0</ele><time>2026-04-11T07:13:12Z</time></trkpt><trkpt lat="43.47382882189514" lon="11.42237713661805"><ele>519.6666666666667</ele><time>2026-04-11T07:13:14Z</time></trkpt><trkpt lat="43.47374781896451" lon="11.422355468334297"><ele>519.3333333333334</ele><time>2026-04-11T07:13:16Z</time></trkpt><trkpt lat="43.47366029895773" lon="11.422323223325042"><ele>519.0</ele><time>2026-04-11T07:13:18Z</time></trkpt><trkpt lat="43.473551558821036" lon="11.422296679548955"><ele>518.6666666666666</ele><time>2026-04-11T07:13:20Z</time></trkpt><trkpt lat="43.473492752763775" lon="11.422238538216638"><ele>518.3333333333333</ele><time>2026-04-11T07:13:21Z</time></trkpt><trkpt lat="43.47342657523089" lon="11.422223248581581"><ele>518.0</ele><time>2026-04-11T07:13:22Z</time></trkpt><trkpt lat="43.473367990018325" lon="11.422188519994544"><ele>518.0</ele><time>2026-04-11T07:13:23Z</time></trkpt><trkpt lat="43.473301495840225" lon="11.422157075700746"><ele>518.0</ele><time>2026-04-11T07:13:24Z</time></trkpt><trkpt lat="43.473237448994524" lon="11.422122793089198"><ele>518.0</ele><time>2026-04-11T07:13:25Z</time></trkpt><trkpt lat="43.473168158715715" lon="11.422078896365441"><ele>518.0</ele><time>2026-04-11T07:13:26Z</time></trkpt><trkpt lat="43.4730934654642" lon="11.422023568941725"><ele>518.0</ele><time>2026-04-11T07:13:27Z</time></trkpt><trkpt lat="43.47303080455998" lon="11.421968265465184"><ele>518.0</ele><time>2026-04-11T07:13:28Z</time></trkpt><trkpt lat="43.47296414886679" lon="11.421911470063916"><ele>517.8333333333333</ele><time>2026-04-11T07:13:29Z</time></trkpt><trkpt lat="43.47291516004097" lon="11.42183980255964"><ele>517.6666666666666</ele><time>2026-04-11T07:13:30Z</time></trkpt><trkpt lat="43.47286128399604" lon="11.421775154266845"><ele>517.5</ele><time>2026-04-11T07:13:31Z</time></trkpt><trkpt lat="43.472811230213324" lon="11.42171916846172"><ele>517.3333333333334</ele><time>2026-04-11T07:13:31.999Z</time></trkpt><trkpt lat="43.47277061154672" lon="11.421650766066405"><ele>517.1666666666667</ele><time>2026-04-11T07:13:32.999Z</time></trkpt><trkpt lat="43.47268440945689" lon="11.421561500391427"><ele>517.0</ele><time>2026-04-11T07:13:34.999Z</time></trkpt><trkpt lat="43.472599949220225" lon="11.421488309010988"><ele>517.0</ele><time>2026-04-11T07:13:36.999Z</time></trkpt><trkpt lat="43.47253989361108" lon="11.421424492344507"><ele>517.0</ele><time>2026-04-11T07:13:38.999Z</time></trkpt><trkpt lat="43.47247455976529" lon="11.421389708027306"><ele>517.0</ele><time>2026-04-11T07:13:40.999Z</time></trkpt><trkpt lat="43.4724146206435" lon="11.421351289054158"><ele>517.0</ele><time>2026-04-11T07:13:42.999Z</time></trkpt><trkpt lat="43.47235371595256" lon="11.421305523193391"><ele>517.0</ele><time>2026-04-11T07:13:44.999Z</time></trkpt><trkpt lat="43.47228849351584" lon="11.421270456486335"><ele>517.0</ele><time>2026-04-11T07:13:46.999Z</time></trkpt><trkpt lat="43.47222291060182" lon="11.421237968666139"><ele>517.0</ele><time>2026-04-11T07:13:48.999Z</time></trkpt><trkpt lat="43.47215007678532" lon="11.421203632722179"><ele>517.8333333333334</ele><time>2026-04-11T07:13:50.999Z</time></trkpt><trkpt lat="43.472076486857965" lon="11.421151013667528"><ele>518.6666666666667</ele><time>2026-04-11T07:13:52.999Z</time></trkpt><trkpt lat="43.47200797574936" lon="11.421140073262443"><ele>519.5</ele><time>2026-04-11T07:13:54.999Z</time></trkpt><trkpt lat="43.47193250866415" lon="11.421068313698777"><ele>520.3333333333334</ele><time>2026-04-11T07:13:57.999Z</time></trkpt><trkpt lat="43.47186321531706" lon="11.42099364329728"><ele>521.1666666666666</ele><time>2026-04-11T07:14:00.999Z</time></trkpt><trkpt lat="43.47181198393758" lon="11.420935648208133"><ele>522.0</ele><time>2026-04-11T07:14:02.999Z</time></trkpt><trkpt lat="43.471755527483985" lon="11.420868866149322"><ele>522.0</ele><time>2026-04-11T07:14:04.999Z</time></trkpt><trkpt lat="43.47168878992797" lon="11.420785592871848"><ele>522.0</ele><time>2026-04-11T07:14:07.999Z</time></trkpt><trkpt lat="43.47163206442694" lon="11.420711874383311"><ele>522.0</ele><time>2026-04-11T07:14:09.999Z</time></trkpt><trkpt lat="43.4715842015816" lon="11.420643787494866"><ele>522.0</ele><time>2026-04-11T07:14:11.999Z</time></trkpt><trkpt lat="43.47152506387422" lon="11.42058484454796"><ele>522.0</ele><time>2026-04-11T07:14:13.999Z</time></trkpt><trkpt lat="43.471477193060316" lon="11.420477035019832"><ele>522.0</ele><time>2026-04-11T07:14:15.999Z</time></trkpt><trkpt lat="43.47141778359634" lon="11.420382692422201"><ele>521.3333333333334</ele><time>2026-04-11T07:14:17.999Z</time></trkpt><trkpt lat="43.47136146108735" lon="11.42029922231691"><ele>520.6666666666666</ele><time>2026-04-11T07:14:19.999Z</time></trkpt><trkpt lat="43.47131550069034" lon="11.42018116164518"><ele>520.0</ele><time>2026-04-11T07:14:21.999Z</time></trkpt><trkpt lat="43.47124504617786" lon="11.420062821204828"><ele>519.3333333333333</ele><time>2026-04-11T07:14:23.999Z</time></trkpt><trkpt lat="43.47119302018048" lon="11.420009386235604"><ele>518.6666666666666</ele><time>2026-04-11T07:14:24.999Z</time></trkpt><trkpt lat="43.471152694949325" lon="11.419927556724582"><ele>518.0</ele><time>2026-04-11T07:14:25.999Z</time></trkpt><trkpt lat="43.47110997666059" lon="11.419849533950366"><ele>517.2857142857143</ele><time>2026-04-11T07:14:26.999Z</time></trkpt><trkpt lat="43.471061496425584" lon="11.419781054720149"><ele>516.5714285714286</ele><time>2026-04-11T07:14:27.999Z</time></trkpt><trkpt lat="43.471019060753726" lon="11.419704929160313"><ele>515.8571428571429</ele><time>2026-04-11T07:14:28.999Z</time></trkpt><trkpt lat="43.47096510371761" lon="11.419647208115284"><ele>515.1428571428571</ele><time>2026-04-11T07:14:30Z</time></trkpt><trkpt lat="43.470913164071604" lon="11.4195744898043"><ele>514.4285714285714</ele><time>2026-04-11T07:14:31Z</time></trkpt><trkpt lat="43.47086383352139" lon="11.419489818205628"><ele>513.7142857142858</ele><time>2026-04-11T07:14:32Z</time></trkpt><trkpt lat="43.47082154097085" lon="11.41941333075501"><ele>513.0</ele><time>2026-04-11T07:14:33Z</time></trkpt><trkpt lat="43.47077451960265" lon="11.419326724282335"><ele>511.8333333333333</ele><time>2026-04-11T07:14:34Z</time></trkpt><trkpt lat="43.470711842147914" lon="11.419227912908305"><ele>510.66666666666663</ele><time>2026-04-11T07:14:35Z</time></trkpt><trkpt lat="43.470663256257396" lon="11.419132615219755"><ele>509.5</ele><time>2026-04-11T07:14:36Z</time></trkpt><trkpt lat="43.470611579131834" lon="11.419043482125474"><ele>508.3333333333333</ele><time>2026-04-11T07:14:37Z</time></trkpt><trkpt lat="43.47056604740344" lon="11.418957232645859"><ele>507.16666666666663</ele><time>2026-04-11T07:14:38Z</time></trkpt><trkpt lat="43.47051836661752" lon="11.41887294809226"><ele>506.0</ele><time>2026-04-11T07:14:39Z</time></trkpt><trkpt lat="43.4704723892866" lon="11.418795349102142"><ele>505.3333333333333</ele><time>2026-04-11T07:14:40Z</time></trkpt><trkpt lat="43.47043078375235" lon="11.418720499265214"><ele>504.66666666666663</ele><time>2026-04-11T07:14:41Z</time></trkpt><trkpt lat="43.470354123483276" lon="11.418595136337835"><ele>504.0</ele><time>2026-04-11T07:14:43Z</time></trkpt><trkpt lat="43.47029345385442" lon="11.418497800654244"><ele>503.33333333333337</ele><time>2026-04-11T07:14:45Z</time></trkpt><trkpt lat="43.470221456075095" lon="11.41846443253503"><ele>502.6666666666667</ele><time>2026-04-11T07:14:46Z</time></trkpt><trkpt lat="43.47015191934761" lon="11.418493056097242"><ele>502.0</ele><time>2026-04-11T07:14:47Z</time></trkpt><trkpt lat="43.47011189075891" lon="11.41861121371273"><ele>502.0</ele><time>2026-04-11T07:14:48Z</time></trkpt><trkpt lat="43.47007479092132" lon="11.418683115871099"><ele>502.00000000000006</ele><time>2026-04-11T07:14:49Z</time></trkpt><trkpt lat="43.470006089745205" lon="11.41880659700053"><ele>502.00000000000006</ele><time>2026-04-11T07:14:51Z</time></trkpt><trkpt lat="43.46992527272904" lon="11.41893171834007"><ele>502.0</ele><time>2026-04-11T07:14:53Z</time></trkpt><trkpt lat="43.46983936357705" lon="11.419065934043326"><ele>502.0</ele><time>2026-04-11T07:14:55Z</time></trkpt><trkpt lat="43.469794593737646" lon="11.41913769015761"><ele>501.83333333333337</ele><time>2026-04-11T07:14:56Z</time></trkpt><trkpt lat="43.469763664967935" lon="11.41922555309365"><ele>501.6666666666667</ele><time>2026-04-11T07:14:57Z</time></trkpt><trkpt lat="43.46970289539096" lon="11.419372316071119"><ele>501.5</ele><time>2026-04-11T07:14:59Z</time></trkpt><trkpt lat="43.46967021120928" lon="11.41945135592391"><ele>501.33333333333337</ele><time>2026-04-11T07:15:00Z</time></trkpt><trkpt lat="43.46969680627724" lon="11.419551283404054"><ele>501.1666666666667</ele><time>2026-04-11T07:15:01Z</time></trkpt><trkpt lat="43.469717496868164" lon="11.419648935479076"><ele>501.0</ele><time>2026-04-11T07:15:02Z</time></trkpt><trkpt lat="43.469744838364555" lon="11.419744908680604"><ele>501.0</ele><time>2026-04-11T07:15:03Z</time></trkpt><trkpt lat="43.469781276285076" lon="11.419832969808427"><ele>501.0</ele><time>2026-04-11T07:15:04Z</time></trkpt><trkpt lat="43.469815426215085" lon="11.419942669886463"><ele>501.0</ele><time>2026-04-11T07:15:05Z</time></trkpt><trkpt lat="43.46986390884513" lon="11.42004150321936"><ele>501.0</ele><time>2026-04-11T07:15:06Z</time></trkpt><trkpt lat="43.46991861517871" lon="11.420145180170543"><ele>501.0</ele><time>2026-04-11T07:15:07Z</time></trkpt><trkpt lat="43.46997223204169" lon="11.420242937482675"><ele>501.0</ele><time>2026-04-11T07:15:08Z</time></trkpt><trkpt lat="43.47002076163504" lon="11.420350611316154"><ele>501.0</ele><time>2026-04-11T07:15:09Z</time></trkpt><trkpt lat="43.47007523107041" lon="11.420460881761702"><ele>501.0</ele><time>2026-04-11T07:15:10Z</time></trkpt><trkpt lat="43.47012912554219" lon="11.42057501930084"><ele>501.0</ele><time>2026-04-11T07:15:11Z</time></trkpt><trkpt lat="43.47019019377892" lon="11.42067764106186"><ele>501.0</ele><time>2026-04-11T07:15:12Z</time></trkpt><trkpt lat="43.470249898989714" lon="11.42078713641052"><ele>501.0</ele><time>2026-04-11T07:15:13Z</time></trkpt><trkpt lat="43.47029903626282" lon="11.42090821574318"><ele>499.4</ele><time>2026-04-11T07:15:14Z</time></trkpt><trkpt lat="43.47034874686878" lon="11.421026541188105"><ele>497.8</ele><time>2026-04-11T07:15:15Z</time></trkpt><trkpt lat="43.470362440348886" lon="11.421158391087218"><ele>496.19999999999993</ele><time>2026-04-11T07:15:16Z</time></trkpt><trkpt lat="43.47035582459281" lon="11.421291909531721"><ele>494.59999999999997</ele><time>2026-04-11T07:15:17Z</time></trkpt><trkpt lat="43.47031377021683" lon="11.421416297664456"><ele>493.0</ele><time>2026-04-11T07:15:18Z</time></trkpt><trkpt lat="43.47021458729905" lon="11.421463534930185"><ele>493.00000000000006</ele><time>2026-04-11T07:15:19Z</time></trkpt><trkpt lat="43.470144281762046" lon="11.421536224717373"><ele>493.0</ele><time>2026-04-11T07:15:20Z</time></trkpt><trkpt lat="43.47007423986222" lon="11.42159945570186"><ele>493.0</ele><time>2026-04-11T07:15:21Z</time></trkpt><trkpt lat="43.46999776800966" lon="11.421659976520878"><ele>493.0</ele><time>2026-04-11T07:15:22Z</time></trkpt><trkpt lat="43.46992407545317" lon="11.42171918062549"><ele>493.00000000000006</ele><time>2026-04-11T07:15:23Z</time></trkpt><trkpt lat="43.46984315934942" lon="11.421754691599215"><ele>493.0</ele><time>2026-04-11T07:15:24Z</time></trkpt><trkpt lat="43.469764626335134" lon="11.421805390583481"><ele>493.00000000000006</ele><time>2026-04-11T07:15:25Z</time></trkpt><trkpt lat="43.46969513872496" lon="11.42186868994837"><ele>493.0</ele><time>2026-04-11T07:15:26Z</time></trkpt><trkpt lat="43.46961906613632" lon="11.421909776363185"><ele>493.0</ele><time>2026-04-11T07:15:27Z</time></trkpt><trkpt lat="43.46954427645572" lon="11.421968720004873"><ele>493.0</ele><time>2026-04-11T07:15:28Z</time></trkpt><trkpt lat="43.46946987767743" lon="11.422026330253436"><ele>493.00000000000006</ele><time>2026-04-11T07:15:29Z</time></trkpt><trkpt lat="43.4693948426688" lon="11.422081989334204"><ele>493.0</ele><time>2026-04-11T07:15:30Z</time></trkpt><trkpt lat="43.46932536993532" lon="11.422127012374808"><ele>492.50000000000006</ele><time>2026-04-11T07:15:31Z</time></trkpt><trkpt lat="43.469248787202886" lon="11.422184043754566"><ele>492.0</ele><time>2026-04-11T07:15:32Z</time></trkpt><trkpt lat="43.469171336508175" lon="11.42224596883956"><ele>491.5</ele><time>2026-04-11T07:15:32.999Z</time></trkpt><trkpt lat="43.4690918478183" lon="11.42230197165067"><ele>491.0</ele><time>2026-04-11T07:15:33.999Z</time></trkpt><trkpt lat="43.46901209574763" lon="11.42236628095978"><ele>490.50000000000006</ele><time>2026-04-11T07:15:34.999Z</time></trkpt><trkpt lat="43.468930956635496" lon="11.422423521069831"><ele>490.0</ele><time>2026-04-11T07:15:35.999Z</time></trkpt><trkpt lat="43.46884602094707" lon="11.422481969673623"><ele>487.2</ele><time>2026-04-11T07:15:36.999Z</time></trkpt><trkpt lat="43.46876072133251" lon="11.42254236292732"><ele>484.4</ele><time>2026-04-11T07:15:37.999Z</time></trkpt><trkpt lat="43.468678918904615" lon="11.422607170871979"><ele>481.6</ele><time>2026-04-11T07:15:38.999Z</time></trkpt><trkpt lat="43.468590576959556" lon="11.422661205133188"><ele>478.8</ele><time>2026-04-11T07:15:39.999Z</time></trkpt><trkpt lat="43.468507381856675" lon="11.422735611117938"><ele>476.0</ele><time>2026-04-11T07:15:40.999Z</time></trkpt><trkpt lat="43.46842299164828" lon="11.422795702479466"><ele>476.0</ele><time>2026-04-11T07:15:41.999Z</time></trkpt><trkpt lat="43.46833308034769" lon="11.422852164584375"><ele>476.0</ele><time>2026-04-11T07:15:42.999Z</time></trkpt><trkpt lat="43.46825063381625" lon="11.422917029711416"><ele>476.0</ele><time>2026-04-11T07:15:43.999Z</time></trkpt><trkpt lat="43.46817028792734" lon="11.422977703104992"><ele>476.0</ele><time>2026-04-11T07:15:44.999Z</time></trkpt><trkpt lat="43.46808901951089" lon="11.423026057872796"><ele>476.0</ele><time>2026-04-11T07:15:45.999Z</time></trkpt><trkpt lat="43.468001770905694" lon="11.423053669039197"><ele>476.6</ele><time>2026-04-11T07:15:46.999Z</time></trkpt><trkpt lat="43.467919960560025" lon="11.423065208805715"><ele>477.20000000000005</ele><time>2026-04-11T07:15:47.999Z</time></trkpt><trkpt lat="43.467835775542355" lon="11.423066888593004"><ele>477.79999999999995</ele><time>2026-04-11T07:15:48.999Z</time></trkpt><trkpt lat="43.4677550868031" lon="11.42308308376217"><ele>478.4</ele><time>2026-04-11T07:15:49.999Z</time></trkpt><trkpt lat="43.46768952888161" lon="11.42311144388381"><ele>479.0</ele><time>2026-04-11T07:15:50.999Z</time></trkpt><trkpt lat="43.46764519073343" lon="11.423290134800217"><ele>478.99999999999994</ele><time>2026-04-11T07:15:52.999Z</time></trkpt><trkpt lat="43.4676379430035" lon="11.42338547363339"><ele>479.0</ele><time>2026-04-11T07:15:53.999Z</time></trkpt><trkpt lat="43.467655485089715" lon="11.423476490984083"><ele>479.0</ele><time>2026-04-11T07:15:54.999Z</time></trkpt><trkpt lat="43.46769575167967" lon="11.42356463750562"><ele>479.0</ele><time>2026-04-11T07:15:55.999Z</time></trkpt><trkpt lat="43.46777007735899" lon="11.423627277766878"><ele>478.99999999999994</ele><time>2026-04-11T07:15:56.999Z</time></trkpt><trkpt lat="43.46785158393232" lon="11.42367675049657"><ele>479.0</ele><time>2026-04-11T07:15:57.999Z</time></trkpt><trkpt lat="43.4679238882299" lon="11.423760970343228"><ele>477.0</ele><time>2026-04-11T07:15:58.999Z</time></trkpt><trkpt lat="43.468000282220075" lon="11.423826932664873"><ele>475.0</ele><time>2026-04-11T07:15:59.999Z</time></trkpt><trkpt lat="43.46808585581205" lon="11.42390696001048"><ele>473.0</ele><time>2026-04-11T07:16:00.999Z</time></trkpt><trkpt lat="43.4681799974819" lon="11.423984878002313"><ele>471.0</ele><time>2026-04-11T07:16:01.999Z</time></trkpt><trkpt lat="43.4682658013093" lon="11.424053470224518"><ele>469.0</ele><time>2026-04-11T07:16:02.999Z</time></trkpt><trkpt lat="43.468346989559656" lon="11.424129780480449"><ele>469.0</ele><time>2026-04-11T07:16:03.999Z</time></trkpt><trkpt lat="43.46842683536867" lon="11.424201057162461"><ele>469.0</ele><time>2026-04-11T07:16:04.999Z</time></trkpt><trkpt lat="43.46850723128137" lon="11.424257585122469"><ele>469.0</ele><time>2026-04-11T07:16:05.999Z</time></trkpt><trkpt lat="43.468607711992846" lon="11.42430221699112"><ele>469.0</ele><time>2026-04-11T07:16:06.999Z</time></trkpt><trkpt lat="43.46871602462149" lon="11.424333656955858"><ele>469.0</ele><time>2026-04-11T07:16:07.999Z</time></trkpt><trkpt lat="43.46882865778234" lon="11.424353823048648"><ele>468.5</ele><time>2026-04-11T07:16:08.999Z</time></trkpt><trkpt lat="43.46894042011392" lon="11.424372273446162"><ele>468.0</ele><time>2026-04-11T07:16:09.999Z</time></trkpt><trkpt lat="43.46905530218447" lon="11.424390049321634"><ele>467.5</ele><time>2026-04-11T07:16:10.999Z</time></trkpt><trkpt lat="43.46916543661571" lon="11.424409031591642"><ele>467.0</ele><time>2026-04-11T07:16:11.999Z</time></trkpt><trkpt lat="43.469280056968884" lon="11.424433017707404"><ele>467.0</ele><time>2026-04-11T07:16:12.999Z</time></trkpt><trkpt lat="43.46938811448058" lon="11.424465533874642"><ele>467.00000000000006</ele><time>2026-04-11T07:16:13.999Z</time></trkpt><trkpt lat="43.4694892345712" lon="11.424502924255858"><ele>467.00000000000006</ele><time>2026-04-11T07:16:14.999Z</time></trkpt><trkpt lat="43.46958348750954" lon="11.4245440089639"><ele>467.0</ele><time>2026-04-11T07:16:15.999Z</time></trkpt><trkpt lat="43.469675001694824" lon="11.424583305099764"><ele>467.0</ele><time>2026-04-11T07:16:16.999Z</time></trkpt><trkpt lat="43.469736320795185" lon="11.424670529229928"><ele>465.6</ele><time>2026-04-11T07:16:17.999Z</time></trkpt><trkpt lat="43.46979308320199" lon="11.42476435233457"><ele>464.20000000000005</ele><time>2026-04-11T07:16:18.999Z</time></trkpt><trkpt lat="43.46982569881736" lon="11.424890445400946"><ele>462.8</ele><time>2026-04-11T07:16:19.999Z</time></trkpt><trkpt lat="43.469840750121335" lon="11.425030636363848"><ele>461.4</ele><time>2026-04-11T07:16:20.999Z</time></trkpt><trkpt lat="43.46984970233373" lon="11.425171529139629"><ele>460.0</ele><time>2026-04-11T07:16:21.999Z</time></trkpt><trkpt lat="43.46984992307912" lon="11.425303999689708"><ele>460.0</ele><time>2026-04-11T07:16:22.999Z</time></trkpt><trkpt lat="43.469862951328764" lon="11.425451917679789"><ele>460.0</ele><time>2026-04-11T07:16:23.999Z</time></trkpt><trkpt lat="43.46986828283639" lon="11.4256009391711"><ele>460.0</ele><time>2026-04-11T07:16:24.999Z</time></trkpt><trkpt lat="43.469893795729014" lon="11.425750644325708"><ele>460.0</ele><time>2026-04-11T07:16:25.999Z</time></trkpt><trkpt lat="43.46989690447491" lon="11.42590602850947"><ele>460.0</ele><time>2026-04-11T07:16:26.999Z</time></trkpt><trkpt lat="43.46989661904778" lon="11.426064944873058"><ele>457.0</ele><time>2026-04-11T07:16:27.999Z</time></trkpt><trkpt lat="43.469899137684955" lon="11.426221106024702"><ele>454.0</ele><time>2026-04-11T07:16:28.999Z</time></trkpt><trkpt lat="43.469895522454415" lon="11.426376141750264"><ele>451.0</ele><time>2026-04-11T07:16:29.999Z</time></trkpt><trkpt lat="43.46988049532388" lon="11.426533637822514"><ele>448.0</ele><time>2026-04-11T07:16:30.999Z</time></trkpt><trkpt lat="43.46985516018702" lon="11.42668794091437"><ele>446.4</ele><time>2026-04-11T07:16:31.999Z</time></trkpt><trkpt lat="43.469830234567816" lon="11.426842112563365"><ele>444.79999999999995</ele><time>2026-04-11T07:16:32.999Z</time></trkpt><trkpt lat="43.46981032286343" lon="11.426996703317332"><ele>443.2</ele><time>2026-04-11T07:16:33.999Z</time></trkpt><trkpt lat="43.46978694804065" lon="11.42714045205827"><ele>441.6</ele><time>2026-04-11T07:16:34.999Z</time></trkpt><trkpt lat="43.469733085981424" lon="11.427268510185806"><ele>440.0</ele><time>2026-04-11T07:16:36Z</time></trkpt><trkpt lat="43.46967383378714" lon="11.427405113554887"><ele>435.5</ele><time>2026-04-11T07:16:37Z</time></trkpt><trkpt lat="43.4696027808825" lon="11.42754328465298"><ele>431.0</ele><time>2026-04-11T07:16:38Z</time></trkpt><trkpt lat="43.4695298100004" lon="11.42769387070809"><ele>426.5</ele><time>2026-04-11T07:16:39Z</time></trkpt><trkpt lat="43.46944594288692" lon="11.427834885662714"><ele>422.0</ele><time>2026-04-11T07:16:40Z</time></trkpt><trkpt lat="43.4693557089389" lon="11.42797112935858"><ele>421.75</ele><time>2026-04-11T07:16:41Z</time></trkpt><trkpt lat="43.46926644992548" lon="11.428111807377562"><ele>421.5</ele><time>2026-04-11T07:16:42Z</time></trkpt><trkpt lat="43.46917529001915" lon="11.428255822677226"><ele>421.25</ele><time>2026-04-11T07:16:43Z</time></trkpt><trkpt lat="43.46908415000328" lon="11.428404445569214"><ele>421.0</ele><time>2026-04-11T07:16:44Z</time></trkpt><trkpt lat="43.46899383109263" lon="11.428552387878952"><ele>421.0</ele><time>2026-04-11T07:16:45Z</time></trkpt><trkpt lat="43.46890182438457" lon="11.428699959305765"><ele>421.0</ele><time>2026-04-11T07:16:46Z</time></trkpt><trkpt lat="43.46881173711989" lon="11.42884435934208"><ele>421.0</ele><time>2026-04-11T07:16:47Z</time></trkpt><trkpt lat="43.468719818982386" lon="11.428985756555667"><ele>421.0</ele><time>2026-04-11T07:16:48Z</time></trkpt><trkpt lat="43.46863557875587" lon="11.429125976023986"><ele>417.75</ele><time>2026-04-11T07:16:49Z</time></trkpt><trkpt lat="43.468554043832505" lon="11.429263331486744"><ele>414.5</ele><time>2026-04-11T07:16:50Z</time></trkpt><trkpt lat="43.46847617723996" lon="11.429390491045455"><ele>411.25</ele><time>2026-04-11T07:16:51Z</time></trkpt><trkpt lat="43.468403955540765" lon="11.429500609289157"><ele>408.0</ele><time>2026-04-11T07:16:52Z</time></trkpt><trkpt lat="43.46831456286706" lon="11.429575769838442"><ele>406.75</ele><time>2026-04-11T07:16:53Z</time></trkpt><trkpt lat="43.46822453396271" lon="11.429661152254038"><ele>405.5</ele><time>2026-04-11T07:16:54Z</time></trkpt><trkpt lat="43.46812067799938" lon="11.429730524902427"><ele>404.25</ele><time>2026-04-11T07:16:55Z</time></trkpt><trkpt lat="43.46801796079213" lon="11.429795572643176"><ele>403.0</ele><time>2026-04-11T07:16:56Z</time></trkpt><trkpt lat="43.46790832485202" lon="11.429869658959824"><ele>402.0</ele><time>2026-04-11T07:16:57Z</time></trkpt><trkpt lat="43.467809223478014" lon="11.429931150195449"><ele>401.0</ele><time>2026-04-11T07:16:58Z</time></trkpt><trkpt lat="43.46770809335468" lon="11.430000619977429"><ele>400.0</ele><time>2026-04-11T07:16:59Z</time></trkpt><trkpt lat="43.46761403214268" lon="11.430078797453497"><ele>399.0</ele><time>2026-04-11T07:17:00Z</time></trkpt><trkpt lat="43.46751358844551" lon="11.430148860047215"><ele>398.0</ele><time>2026-04-11T07:17:01Z</time></trkpt><trkpt lat="43.46741415606062" lon="11.430206032819708"><ele>398.0</ele><time>2026-04-11T07:17:02Z</time></trkpt><trkpt lat="43.46732828780274" lon="11.43026200316264"><ele>398.0</ele><time>2026-04-11T07:17:03Z</time></trkpt><trkpt lat="43.46724225446788" lon="11.430317189087685"><ele>398.0</ele><time>2026-04-11T07:17:04Z</time></trkpt><trkpt lat="43.46715954759026" lon="11.43038174270022"><ele>398.0</ele><time>2026-04-11T07:17:05Z</time></trkpt><trkpt lat="43.46707270373301" lon="11.430425763171819"><ele>398.0</ele><time>2026-04-11T07:17:06Z</time></trkpt><trkpt lat="43.46697957279746" lon="11.430487658642512"><ele>396.3333333333333</ele><time>2026-04-11T07:17:07Z</time></trkpt><trkpt lat="43.46688741603639" lon="11.43054821604806"><ele>394.66666666666663</ele><time>2026-04-11T07:17:08Z</time></trkpt><trkpt lat="43.46681004295317" lon="11.430592833022304"><ele>393.0</ele><time>2026-04-11T07:17:09Z</time></trkpt><trkpt lat="43.46674032464699" lon="11.43063717812707"><ele>391.33333333333337</ele><time>2026-04-11T07:17:10Z</time></trkpt><trkpt lat="43.466679980729" lon="11.430682304437706"><ele>389.6666666666667</ele><time>2026-04-11T07:17:11Z</time></trkpt><trkpt lat="43.466605397835444" lon="11.430782799038589"><ele>388.0</ele><time>2026-04-11T07:17:13Z</time></trkpt><trkpt lat="43.466583738779306" lon="11.430923910226916"><ele>388.00000000000006</ele><time>2026-04-11T07:17:15Z</time></trkpt><trkpt lat="43.46665553109816" lon="11.431013368195709"><ele>388.0</ele><time>2026-04-11T07:17:16Z</time></trkpt><trkpt lat="43.46670571149706" lon="11.431080353497977"><ele>388.0</ele><time>2026-04-11T07:17:17Z</time></trkpt><trkpt lat="43.466764185731776" lon="11.431145498616472"><ele>388.0</ele><time>2026-04-11T07:17:18Z</time></trkpt><trkpt lat="43.46682814153827" lon="11.431207494315977"><ele>388.00000000000006</ele><time>2026-04-11T07:17:19Z</time></trkpt><trkpt lat="43.466903738419504" lon="11.43126603982105"><ele>388.0</ele><time>2026-04-11T07:17:20Z</time></trkpt><trkpt lat="43.46699539348129" lon="11.431311528719958"><ele>385.59999999999997</ele><time>2026-04-11T07:17:21Z</time></trkpt><trkpt lat="43.46709436633779" lon="11.431339192020959"><ele>383.2</ele><time>2026-04-11T07:17:22Z</time></trkpt><trkpt lat="43.46719735920717" lon="11.431373185194607"><ele>380.8</ele><time>2026-04-11T07:17:23Z</time></trkpt><trkpt lat="43.4673052803912" lon="11.431413129769673"><ele>378.4</ele><time>2026-04-11T07:17:24Z</time></trkpt><trkpt lat="43.46741315362615" lon="11.431478702631576"><ele>376.0</ele><time>2026-04-11T07:17:25Z</time></trkpt><trkpt lat="43.467526510200955" lon="11.431554122397163"><ele>376.0</ele><time>2026-04-11T07:17:26Z</time></trkpt><trkpt lat="43.46762967455536" lon="11.431648471465678"><ele>376.0</ele><time>2026-04-11T07:17:27Z</time></trkpt><trkpt lat="43.46773334715279" lon="11.431724832248566"><ele>376.0</ele><time>2026-04-11T07:17:28Z</time></trkpt><trkpt lat="43.46783457559942" lon="11.431819459246837"><ele>376.0</ele><time>2026-04-11T07:17:29Z</time></trkpt><trkpt lat="43.4679120299858" lon="11.431929113317796"><ele>375.8</ele><time>2026-04-11T07:17:30Z</time></trkpt><trkpt lat="43.46798066102153" lon="11.432009171659766"><ele>375.6</ele><time>2026-04-11T07:17:31Z</time></trkpt><trkpt lat="43.468078306967286" lon="11.432101141531806"><ele>375.4</ele><time>2026-04-11T07:17:32Z</time></trkpt><trkpt lat="43.46818096115493" lon="11.43223658394384"><ele>375.2</ele><time>2026-04-11T07:17:33Z</time></trkpt><trkpt lat="43.46823896258376" lon="11.432324390361135"><ele>375.0</ele><time>2026-04-11T07:17:34Z</time></trkpt><trkpt lat="43.46827611502811" lon="11.432397681541733"><ele>373.1666666666667</ele><time>2026-04-11T07:17:35Z</time></trkpt><trkpt lat="43.46833827044356" lon="11.432477625892991"><ele>371.3333333333333</ele><time>2026-04-11T07:17:36Z</time></trkpt><trkpt lat="43.468392213404805" lon="11.43254127057642"><ele>369.5</ele><time>2026-04-11T07:17:37Z</time></trkpt><trkpt lat="43.46843549846553" lon="11.432621801869354"><ele>367.66666666666663</ele><time>2026-04-11T07:17:38Z</time></trkpt><trkpt lat="43.4684487306056" lon="11.432715757349099"><ele>365.8333333333333</ele><time>2026-04-11T07:17:39Z</time></trkpt><trkpt lat="43.46846329865376" lon="11.432813023653548"><ele>364.0</ele><time>2026-04-11T07:17:40Z</time></trkpt><trkpt lat="43.468494784391915" lon="11.432972901834631"><ele>363.16666666666663</ele><time>2026-04-11T07:17:42Z</time></trkpt><trkpt lat="43.46853867733892" lon="11.433090090289157"><ele>362.3333333333333</ele><time>2026-04-11T07:17:44Z</time></trkpt><trkpt lat="43.46856353321408" lon="11.433187416064108"><ele>361.5</ele><time>2026-04-11T07:17:47.999Z</time></trkpt><trkpt lat="43.468669760446865" lon="11.433189839194155"><ele>360.6666666666667</ele><time>2026-04-11T07:17:49.999Z</time></trkpt><trkpt lat="43.46874231800969" lon="11.433175154928001"><ele>359.83333333333337</ele><time>2026-04-11T07:17:52.999Z</time></trkpt><trkpt lat="43.46882276402955" lon="11.433161042652547"><ele>359.0</ele><time>2026-04-11T07:17:55.999Z</time></trkpt><trkpt lat="43.4688955960901" lon="11.433129912479313"><ele>359.0</ele><time>2026-04-11T07:17:58.999Z</time></trkpt><trkpt lat="43.46897816885886" lon="11.433126209473587"><ele>359.0</ele><time>2026-04-11T07:18:01.999Z</time></trkpt><trkpt lat="43.4690426115462" lon="11.4331381388682"><ele>359.0</ele><time>2026-04-11T07:18:03.999Z</time></trkpt><trkpt lat="43.46912044827115" lon="11.43314257584724"><ele>359.0</ele><time>2026-04-11T07:18:07.999Z</time></trkpt><trkpt lat="43.46918386177805" lon="11.43314697731115"><ele>359.0</ele><time>2026-04-11T07:18:09.999Z</time></trkpt><trkpt lat="43.469228080486324" lon="11.433219959514702"><ele>359.0</ele><time>2026-04-11T07:18:13.999Z</time></trkpt><trkpt lat="43.46919723270042" lon="11.43331517864885"><ele>359.0</ele><time>2026-04-11T07:18:15.999Z</time></trkpt><trkpt lat="43.469079709066634" lon="11.433362478298418"><ele>359.0</ele><time>2026-04-11T07:18:18.999Z</time></trkpt><trkpt lat="43.468996414766465" lon="11.433365156408568"><ele>359.0</ele><time>2026-04-11T07:18:20.999Z</time></trkpt><trkpt lat="43.46889917426993" lon="11.433395709418363"><ele>359.0</ele><time>2026-04-11T07:18:22.999Z</time></trkpt><trkpt lat="43.46882940229179" lon="11.433401165680799"><ele>359.0</ele><time>2026-04-11T07:18:24.999Z</time></trkpt><trkpt lat="43.468743673770916" lon="11.433426894256383"><ele>359.0</ele><time>2026-04-11T07:18:26.999Z</time></trkpt><trkpt lat="43.468675348469304" lon="11.433481812091678"><ele>359.0</ele><time>2026-04-11T07:18:28.999Z</time></trkpt><trkpt lat="43.468608883590754" lon="11.433547838111526"><ele>358.8571428571429</ele><time>2026-04-11T07:18:30.999Z</time></trkpt><trkpt lat="43.46855518528116" lon="11.433617567326575"><ele>358.7142857142857</ele><time>2026-04-11T07:18:32.999Z</time></trkpt><trkpt lat="43.46850406198308" lon="11.433717895070277"><ele>358.57142857142856</ele><time>2026-04-11T07:18:34.999Z</time></trkpt><trkpt lat="43.46845095847266" lon="11.433772181637725"><ele>358.42857142857144</ele><time>2026-04-11T07:18:36.999Z</time></trkpt><trkpt lat="43.46838768415593" lon="11.433784545180739"><ele>358.2857142857143</ele><time>2026-04-11T07:18:53Z</time></trkpt><trkpt lat="43.468393858058405" lon="11.433876761733888"><ele>358.14285714285717</ele><time>2026-04-11T07:24:07Z</time></trkpt><trkpt lat="43.468414598570156" lon="11.433782409403092"><ele>358.0</ele><time>2026-04-11T07:24:11.999Z</time></trkpt><trkpt lat="43.46835467096089" lon="11.43382310947028"><ele>358.0</ele><time>2026-04-11T07:24:20.999Z</time></trkpt><trkpt lat="43.468427929498255" lon="11.433943938032444"><ele>358.0</ele><time>2026-04-11T07:34:04Z</time></trkpt><trkpt lat="43.46836443192478" lon="11.433940162911426"><ele>358.0</ele><time>2026-04-11T07:35:44Z</time></trkpt><trkpt lat="43.468299097230854" lon="11.433958597960181"><ele>358.0</ele><time>2026-04-11T07:35:47Z</time></trkpt><trkpt lat="43.46824675580439" lon="11.434025191160762"><ele>358.0</ele><time>2026-04-11T07:35:50Z</time></trkpt><trkpt lat="43.46818333318275" lon="11.434086307526394"><ele>358.0</ele><time>2026-04-11T07:35:53Z</time></trkpt><trkpt lat="43.46812608344582" lon="11.434142244278988"><ele>358.0</ele><time>2026-04-11T07:35:55Z</time></trkpt><trkpt lat="43.46807252830344" lon="11.434207832335973"><ele>358.0</ele><time>2026-04-11T07:35:56Z</time></trkpt><trkpt lat="43.46799817785075" lon="11.434278408254794"><ele>358.0</ele><time>2026-04-11T07:35:59Z</time></trkpt><trkpt lat="43.46791663673291" lon="11.434302936995405"><ele>358.0</ele><time>2026-04-11T07:36:01Z</time></trkpt><trkpt lat="43.467815827378175" lon="11.434327126054871"><ele>358.0</ele><time>2026-04-11T07:36:03Z</time></trkpt><trkpt lat="43.467723096362874" lon="11.434337843743645"><ele>358.0</ele><time>2026-04-11T07:36:05Z</time></trkpt><trkpt lat="43.46763730320836" lon="11.43437121871333"><ele>357.2</ele><time>2026-04-11T07:36:07Z</time></trkpt><trkpt lat="43.46755523947013" lon="11.434345541905959"><ele>356.4</ele><time>2026-04-11T07:36:09Z</time></trkpt><trkpt lat="43.467496099330695" lon="11.434308679050847"><ele>355.59999999999997</ele><time>2026-04-11T07:36:11Z</time></trkpt><trkpt lat="43.467343361710746" lon="11.434198477535801"><ele>354.79999999999995</ele><time>2026-04-11T07:36:45Z</time></trkpt><trkpt lat="43.467275482862256" lon="11.434199559069368"><ele>354.0</ele><time>2026-04-11T07:36:47Z</time></trkpt><trkpt lat="43.46719651164196" lon="11.434220417209128"><ele>353.4</ele><time>2026-04-11T07:36:49Z</time></trkpt><trkpt lat="43.46710301450555" lon="11.434229358250498"><ele>352.79999999999995</ele><time>2026-04-11T07:36:51Z</time></trkpt><trkpt lat="43.46700094470349" lon="11.434258073003575"><ele>352.20000000000005</ele><time>2026-04-11T07:36:53Z</time></trkpt><trkpt lat="43.46688524896532" lon="11.434285470931117"><ele>351.6</ele><time>2026-04-11T07:36:55Z</time></trkpt><trkpt lat="43.46677188271563" lon="11.434310579431646"><ele>351.0</ele><time>2026-04-11T07:36:57Z</time></trkpt><trkpt lat="43.466647481905234" lon="11.434316492911881"><ele>351.0</ele><time>2026-04-11T07:36:59Z</time></trkpt><trkpt lat="43.466584150733745" lon="11.434311319337525"><ele>351.0</ele><time>2026-04-11T07:37:00Z</time></trkpt><trkpt lat="43.46651920381778" lon="11.434310727274637"><ele>351.0</ele><time>2026-04-11T07:37:01Z</time></trkpt><trkpt lat="43.46639113994187" lon="11.434313797817392"><ele>351.0</ele><time>2026-04-11T07:37:03Z</time></trkpt><trkpt lat="43.46632841124907" lon="11.434304052148683"><ele>351.0</ele><time>2026-04-11T07:37:04Z</time></trkpt><trkpt lat="43.46626072612769" lon="11.434291615607073"><ele>351.0</ele><time>2026-04-11T07:37:05Z</time></trkpt><trkpt lat="43.466190812243134" lon="11.434287269628644"><ele>350.4</ele><time>2026-04-11T07:37:05.999Z</time></trkpt><trkpt lat="43.46612251791553" lon="11.434269088387401"><ele>349.8</ele><time>2026-04-11T07:37:06.999Z</time></trkpt><trkpt lat="43.46605693706564" lon="11.434258021263053"><ele>349.2</ele><time>2026-04-11T07:37:07.999Z</time></trkpt><trkpt lat="43.46593920006367" lon="11.43420966559109"><ele>348.59999999999997</ele><time>2026-04-11T07:37:09.999Z</time></trkpt><trkpt lat="43.465823562802186" lon="11.43416924211822"><ele>348.0</ele><time>2026-04-11T07:37:11.999Z</time></trkpt><trkpt lat="43.465709604697174" lon="11.43411374436014"><ele>348.0</ele><time>2026-04-11T07:37:13.999Z</time></trkpt><trkpt lat="43.4655888773215" lon="11.434042052565502"><ele>348.0</ele><time>2026-04-11T07:37:15.999Z</time></trkpt><trkpt lat="43.46553140589433" lon="11.433991170077187"><ele>348.0</ele><time>2026-04-11T07:37:16.999Z</time></trkpt><trkpt lat="43.46548247351716" lon="11.433931805514893"><ele>348.0</ele><time>2026-04-11T07:37:17.999Z</time></trkpt><trkpt lat="43.46540042175903" lon="11.433803365521701"><ele>348.0</ele><time>2026-04-11T07:37:19.999Z</time></trkpt><trkpt lat="43.4653227498629" lon="11.433688931115423"><ele>348.0</ele><time>2026-04-11T07:37:21.999Z</time></trkpt><trkpt lat="43.465245359521425" lon="11.433570150471178"><ele>348.0</ele><time>2026-04-11T07:37:23.999Z</time></trkpt><trkpt lat="43.46516575959496" lon="11.433451075844063"><ele>348.0</ele><time>2026-04-11T07:37:25.999Z</time></trkpt><trkpt lat="43.46508727299624" lon="11.433336855563248"><ele>348.0</ele><time>2026-04-11T07:37:27.999Z</time></trkpt><trkpt lat="43.46499223909207" lon="11.433242861959451"><ele>348.0</ele><time>2026-04-11T07:37:29.999Z</time></trkpt><trkpt lat="43.46488705803043" lon="11.433155175708398"><ele>348.0</ele><time>2026-04-11T07:37:31.999Z</time></trkpt><trkpt lat="43.464781518931424" lon="11.433067657326534"><ele>348.0</ele><time>2026-04-11T07:37:33.999Z</time></trkpt><trkpt lat="43.46467451445717" lon="11.43300039878947"><ele>348.0</ele><time>2026-04-11T07:37:36Z</time></trkpt><trkpt lat="43.46461693652808" lon="11.43295731099799"><ele>348.0</ele><time>2026-04-11T07:37:37Z</time></trkpt><trkpt lat="43.46451442455087" lon="11.43287060114161"><ele>348.1666666666667</ele><time>2026-04-11T07:37:39Z</time></trkpt><trkpt lat="43.46446167657628" lon="11.432819167340956"><ele>348.3333333333333</ele><time>2026-04-11T07:37:40Z</time></trkpt><trkpt lat="43.46441262291784" lon="11.432763160302073"><ele>348.5</ele><time>2026-04-11T07:37:41Z</time></trkpt><trkpt lat="43.46436486024368" lon="11.432701487777686"><ele>348.66666666666663</ele><time>2026-04-11T07:37:42Z</time></trkpt><trkpt lat="43.46426753813854" lon="11.432573648870573"><ele>348.8333333333333</ele><time>2026-04-11T07:37:44Z</time></trkpt><trkpt lat="43.46422545085321" lon="11.432497469198786"><ele>349.0</ele><time>2026-04-11T07:37:45Z</time></trkpt><trkpt lat="43.4641888019097" lon="11.432417028023583"><ele>348.99999999999994</ele><time>2026-04-11T07:37:46Z</time></trkpt><trkpt lat="43.46415379267507" lon="11.432329687506227"><ele>349.0</ele><time>2026-04-11T07:37:47Z</time></trkpt><trkpt lat="43.464123649019044" lon="11.432238763927677"><ele>349.0</ele><time>2026-04-11T07:37:48Z</time></trkpt><trkpt lat="43.46409008432192" lon="11.432147892665396"><ele>349.0</ele><time>2026-04-11T07:37:49Z</time></trkpt><trkpt lat="43.464060185581474" lon="11.432056167665735"><ele>349.0</ele><time>2026-04-11T07:37:50Z</time></trkpt><trkpt lat="43.464023604812304" lon="11.431970357784492"><ele>348.99999999999994</ele><time>2026-04-11T07:37:51Z</time></trkpt><trkpt lat="43.463987387197875" lon="11.431872879036755"><ele>349.0</ele><time>2026-04-11T07:37:52Z</time></trkpt><trkpt lat="43.46395082894215" lon="11.431787360187535"><ele>348.71428571428567</ele><time>2026-04-11T07:37:53Z</time></trkpt><trkpt lat="43.46390117725901" lon="11.431701008895553"><ele>348.42857142857144</ele><time>2026-04-11T07:37:54Z</time></trkpt><trkpt lat="43.46387749281407" lon="11.431607479826317"><ele>348.1428571428571</ele><time>2026-04-11T07:37:55Z</time></trkpt><trkpt lat="43.4638450426605" lon="11.431518402422046"><ele>347.85714285714283</ele><time>2026-04-11T07:37:56Z</time></trkpt><trkpt lat="43.463803736963264" lon="11.431435459258893"><ele>347.57142857142856</ele><time>2026-04-11T07:37:57Z</time></trkpt><trkpt lat="43.46376435994645" lon="11.43134573804849"><ele>347.2857142857143</ele><time>2026-04-11T07:37:58Z</time></trkpt><trkpt lat="43.46372846882536" lon="11.431254331928377"><ele>347.0</ele><time>2026-04-11T07:37:59Z</time></trkpt><trkpt lat="43.46369303808511" lon="11.431167739628204"><ele>347.0</ele><time>2026-04-11T07:38:00Z</time></trkpt><trkpt lat="43.46366052284018" lon="11.431082208589181"><ele>347.0</ele><time>2026-04-11T07:38:01Z</time></trkpt><trkpt lat="43.463614668726564" lon="11.430995600340134"><ele>347.0</ele><time>2026-04-11T07:38:02Z</time></trkpt><trkpt lat="43.463580563691714" lon="11.430903865747354"><ele>347.0</ele><time>2026-04-11T07:38:03Z</time></trkpt><trkpt lat="43.46353759925787" lon="11.430820418484418"><ele>347.0</ele><time>2026-04-11T07:38:04Z</time></trkpt><trkpt lat="43.463488119626824" lon="11.43074264424681"><ele>347.0</ele><time>2026-04-11T07:38:05Z</time></trkpt><trkpt lat="43.46342020880578" lon="11.430667787185548"><ele>347.0</ele><time>2026-04-11T07:38:06Z</time></trkpt><trkpt lat="43.46334885404487" lon="11.430586868553146"><ele>347.0</ele><time>2026-04-11T07:38:07Z</time></trkpt><trkpt lat="43.46328653682802" lon="11.43051935550275"><ele>347.0</ele><time>2026-04-11T07:38:08Z</time></trkpt><trkpt lat="43.46324540526838" lon="11.430425363146295"><ele>347.0</ele><time>2026-04-11T07:38:09Z</time></trkpt><trkpt lat="43.46319363118175" lon="11.430352198078328"><ele>347.0</ele><time>2026-04-11T07:38:10Z</time></trkpt><trkpt lat="43.46313943627024" lon="11.430278393053445"><ele>347.0</ele><time>2026-04-11T07:38:11Z</time></trkpt><trkpt lat="43.463093330491134" lon="11.43018769612643"><ele>346.83333333333337</ele><time>2026-04-11T07:38:12Z</time></trkpt><trkpt lat="43.46305253606486" lon="11.430095604581805"><ele>346.6666666666667</ele><time>2026-04-11T07:38:13Z</time></trkpt><trkpt lat="43.46301154203542" lon="11.43000348997513"><ele>346.5</ele><time>2026-04-11T07:38:14Z</time></trkpt><trkpt lat="43.4629669554552" lon="11.429916193647728"><ele>346.3333333333333</ele><time>2026-04-11T07:38:15Z</time></trkpt><trkpt lat="43.462910139803746" lon="11.429835716789901"><ele>346.16666666666663</ele><time>2026-04-11T07:38:16Z</time></trkpt><trkpt lat="43.462862006381684" lon="11.42975484434881"><ele>346.0</ele><time>2026-04-11T07:38:17Z</time></trkpt><trkpt lat="43.46282044957538" lon="11.429683671190515"><ele>346.0</ele><time>2026-04-11T07:38:18Z</time></trkpt><trkpt lat="43.46276525775602" lon="11.42960864476131"><ele>346.0</ele><time>2026-04-11T07:38:19Z</time></trkpt><trkpt lat="43.462727311221435" lon="11.429519156562922"><ele>346.0</ele><time>2026-04-11T07:38:20Z</time></trkpt><trkpt lat="43.46265293725718" lon="11.429443373436348"><ele>346.0</ele><time>2026-04-11T07:38:21Z</time></trkpt><trkpt lat="43.462548829302506" lon="11.429312067251745"><ele>346.0</ele><time>2026-04-11T07:38:23Z</time></trkpt><trkpt lat="43.462485859629915" lon="11.42924019851807"><ele>346.0</ele><time>2026-04-11T07:38:24Z</time></trkpt><trkpt lat="43.462426343026614" lon="11.429171626269133"><ele>346.0</ele><time>2026-04-11T07:38:25Z</time></trkpt><trkpt lat="43.46235596140261" lon="11.429096036332334"><ele>346.0</ele><time>2026-04-11T07:38:26Z</time></trkpt><trkpt lat="43.462305570556445" lon="11.42901933225339"><ele>346.0</ele><time>2026-04-11T07:38:27Z</time></trkpt><trkpt lat="43.46225035316878" lon="11.428944318357377"><ele>346.0</ele><time>2026-04-11T07:38:28Z</time></trkpt><trkpt lat="43.46219219034345" lon="11.42887344374224"><ele>346.0</ele><time>2026-04-11T07:38:29Z</time></trkpt><trkpt lat="43.46212738279026" lon="11.428799809641962"><ele>345.3333333333333</ele><time>2026-04-11T07:38:30Z</time></trkpt><trkpt lat="43.46207218261834" lon="11.428731820738745"><ele>344.66666666666663</ele><time>2026-04-11T07:38:31Z</time></trkpt><trkpt lat="43.46201722035139" lon="11.428661492250356"><ele>344.0</ele><time>2026-04-11T07:38:32Z</time></trkpt><trkpt lat="43.46196098429334" lon="11.428586459700302"><ele>343.3333333333333</ele><time>2026-04-11T07:38:33Z</time></trkpt><trkpt lat="43.46189781556869" lon="11.428514174963095"><ele>342.6666666666667</ele><time>2026-04-11T07:38:34Z</time></trkpt><trkpt lat="43.46183825430503" lon="11.428436843515454"><ele>342.0</ele><time>2026-04-11T07:38:35Z</time></trkpt><trkpt lat="43.46177878288751" lon="11.428367095676842"><ele>342.0</ele><time>2026-04-11T07:38:36Z</time></trkpt><trkpt lat="43.461718753756806" lon="11.428297975756067"><ele>342.0</ele><time>2026-04-11T07:38:37Z</time></trkpt><trkpt lat="43.461658105747404" lon="11.428232486579253"><ele>342.0</ele><time>2026-04-11T07:38:38Z</time></trkpt><trkpt lat="43.46159611853242" lon="11.428166899417159"><ele>342.0</ele><time>2026-04-11T07:38:39Z</time></trkpt><trkpt lat="43.461532177274194" lon="11.4281034587435"><ele>342.0</ele><time>2026-04-11T07:38:40Z</time></trkpt><trkpt lat="43.461468161001704" lon="11.42803985509686"><ele>342.0</ele><time>2026-04-11T07:38:41Z</time></trkpt><trkpt lat="43.461412850384235" lon="11.427973742083413"><ele>341.6666666666667</ele><time>2026-04-11T07:38:42Z</time></trkpt><trkpt lat="43.461353048286355" lon="11.427910048197871"><ele>341.3333333333333</ele><time>2026-04-11T07:38:43Z</time></trkpt><trkpt lat="43.46129276222186" lon="11.427849826200292"><ele>341.0</ele><time>2026-04-11T07:38:44Z</time></trkpt><trkpt lat="43.461230901492" lon="11.427787851418863"><ele>340.66666666666663</ele><time>2026-04-11T07:38:45Z</time></trkpt><trkpt lat="43.461166635105194" lon="11.427728136081992"><ele>340.3333333333333</ele><time>2026-04-11T07:38:46Z</time></trkpt><trkpt lat="43.46110804768358" lon="11.42766762834441"><ele>340.0</ele><time>2026-04-11T07:38:47Z</time></trkpt><trkpt lat="43.461053904037065" lon="11.42759338753382"><ele>340.0</ele><time>2026-04-11T07:38:48Z</time></trkpt><trkpt lat="43.46099334646678" lon="11.427529378636487"><ele>340.0</ele><time>2026-04-11T07:38:49Z</time></trkpt><trkpt lat="43.46093330892672" lon="11.427465337265438"><ele>340.0</ele><time>2026-04-11T07:38:50Z</time></trkpt><trkpt lat="43.460869569994856" lon="11.427404255747707"><ele>340.0</ele><time>2026-04-11T07:38:51Z</time></trkpt><trkpt lat="43.460806329553506" lon="11.427339706342098"><ele>340.0</ele><time>2026-04-11T07:38:52Z</time></trkpt><trkpt lat="43.4607419824233" lon="11.427275174636472"><ele>340.0</ele><time>2026-04-11T07:38:53Z</time></trkpt><trkpt lat="43.46067832360825" lon="11.427213807389556"><ele>340.0</ele><time>2026-04-11T07:38:54Z</time></trkpt><trkpt lat="43.46059900284119" lon="11.427176456617262"><ele>340.0</ele><time>2026-04-11T07:38:55Z</time></trkpt><trkpt lat="43.460535568083515" lon="11.427115165069317"><ele>340.0</ele><time>2026-04-11T07:38:56Z</time></trkpt><trkpt lat="43.46045990196241" lon="11.427076520303226"><ele>340.0</ele><time>2026-04-11T07:38:57Z</time></trkpt><trkpt lat="43.46038327209682" lon="11.42703873284645"><ele>340.0</ele><time>2026-04-11T07:38:58Z</time></trkpt><trkpt lat="43.46030486914662" lon="11.427006773113531"><ele>340.0</ele><time>2026-04-11T07:38:59Z</time></trkpt><trkpt lat="43.460230690793395" lon="11.426972471396509"><ele>340.5</ele><time>2026-04-11T07:39:00Z</time></trkpt><trkpt lat="43.46015507122495" lon="11.426938096098732"><ele>341.0</ele><time>2026-04-11T07:39:01Z</time></trkpt><trkpt lat="43.46007487193948" lon="11.426901565729313"><ele>341.5</ele><time>2026-04-11T07:39:02Z</time></trkpt><trkpt lat="43.460002954881375" lon="11.426866397928022"><ele>342.0</ele><time>2026-04-11T07:39:03Z</time></trkpt><trkpt lat="43.45993265361179" lon="11.426838001641917"><ele>342.5</ele><time>2026-04-11T07:39:03.999Z</time></trkpt><trkpt lat="43.45985816172328" lon="11.426808450825542"><ele>343.0</ele><time>2026-04-11T07:39:04.999Z</time></trkpt><trkpt lat="43.45978428783204" lon="11.426770802811426"><ele>343.0</ele><time>2026-04-11T07:39:05.999Z</time></trkpt><trkpt lat="43.459711301155146" lon="11.426734938478681"><ele>343.0</ele><time>2026-04-11T07:39:06.999Z</time></trkpt><trkpt lat="43.45964670001943" lon="11.426703727300984"><ele>343.0</ele><time>2026-04-11T07:39:07.999Z</time></trkpt><trkpt lat="43.459567156951614" lon="11.426667907518523"><ele>343.0</ele><time>2026-04-11T07:39:08.999Z</time></trkpt><trkpt lat="43.45949280581178" lon="11.426636896506972"><ele>343.0</ele><time>2026-04-11T07:39:09.999Z</time></trkpt><trkpt lat="43.459418613013035" lon="11.426603028294561"><ele>343.0</ele><time>2026-04-11T07:39:10.999Z</time></trkpt><trkpt lat="43.45934575303085" lon="11.426576576093616"><ele>342.3333333333333</ele><time>2026-04-11T07:39:11.999Z</time></trkpt><trkpt lat="43.459268331796544" lon="11.426540349490288"><ele>341.66666666666663</ele><time>2026-04-11T07:39:12.999Z</time></trkpt><trkpt lat="43.4592047704119" lon="11.42651076436458"><ele>341.0</ele><time>2026-04-11T07:39:13.999Z</time></trkpt><trkpt lat="43.459130487800174" lon="11.426479021514231"><ele>340.3333333333333</ele><time>2026-04-11T07:39:14.999Z</time></trkpt><trkpt lat="43.45905036955492" lon="11.426447267712229"><ele>339.6666666666667</ele><time>2026-04-11T07:39:15.999Z</time></trkpt><trkpt lat="43.458979469210476" lon="11.426414175867855"><ele>339.0</ele><time>2026-04-11T07:39:16.999Z</time></trkpt><trkpt lat="43.45890256316179" lon="11.426386202124723"><ele>339.0</ele><time>2026-04-11T07:39:17.999Z</time></trkpt><trkpt lat="43.45883050188684" lon="11.426358250422572"><ele>339.0</ele><time>2026-04-11T07:39:18.999Z</time></trkpt><trkpt lat="43.458750795615586" lon="11.42632913940828"><ele>339.0</ele><time>2026-04-11T07:39:19.999Z</time></trkpt><trkpt lat="43.45868125290524" lon="11.426299864232616"><ele>339.0</ele><time>2026-04-11T07:39:20.999Z</time></trkpt><trkpt lat="43.458606358765266" lon="11.426264801680906"><ele>339.0</ele><time>2026-04-11T07:39:21.999Z</time></trkpt><trkpt lat="43.45853712359227" lon="11.426231359576903"><ele>339.0</ele><time>2026-04-11T07:39:22.999Z</time></trkpt><trkpt lat="43.45846781860704" lon="11.426195537997437"><ele>338.5</ele><time>2026-04-11T07:39:23.999Z</time></trkpt><trkpt lat="43.45839719753229" lon="11.426164754395028"><ele>338.0</ele><time>2026-04-11T07:39:24.999Z</time></trkpt><trkpt lat="43.45832614741051" lon="11.426131811460923"><ele>337.5</ele><time>2026-04-11T07:39:25.999Z</time></trkpt><trkpt lat="43.45825559470267" lon="11.426104832224446"><ele>337.0</ele><time>2026-04-11T07:39:26.999Z</time></trkpt><trkpt lat="43.45818308331097" lon="11.42607264266174"><ele>336.5</ele><time>2026-04-11T07:39:27.999Z</time></trkpt><trkpt lat="43.45811065471137" lon="11.42603899403568"><ele>336.0</ele><time>2026-04-11T07:39:28.999Z</time></trkpt><trkpt lat="43.458034060275914" lon="11.426004706901393"><ele>336.0</ele><time>2026-04-11T07:39:29.999Z</time></trkpt><trkpt lat="43.45796219127611" lon="11.425969800322163"><ele>336.0</ele><time>2026-04-11T07:39:30.999Z</time></trkpt><trkpt lat="43.45789565687637" lon="11.425935454767655"><ele>336.0</ele><time>2026-04-11T07:39:31.999Z</time></trkpt><trkpt lat="43.457827965541846" lon="11.425904396536254"><ele>336.0</ele><time>2026-04-11T07:39:32.999Z</time></trkpt><trkpt lat="43.45775855764128" lon="11.42587039899023"><ele>336.0</ele><time>2026-04-11T07:39:33.999Z</time></trkpt><trkpt lat="43.457684255262734" lon="11.425839924942778"><ele>336.0</ele><time>2026-04-11T07:39:34.999Z</time></trkpt><trkpt lat="43.45760972227669" lon="11.425804120846681"><ele>336.0</ele><time>2026-04-11T07:39:35.999Z</time></trkpt><trkpt lat="43.45753518894449" lon="11.425775085442497"><ele>336.0</ele><time>2026-04-11T07:39:36.999Z</time></trkpt><trkpt lat="43.45746852886196" lon="11.42574228460929"><ele>336.0</ele><time>2026-04-11T07:39:37.999Z</time></trkpt><trkpt lat="43.45739926754447" lon="11.42571189419168"><ele>336.0</ele><time>2026-04-11T07:39:38.999Z</time></trkpt><trkpt lat="43.45732124622357" lon="11.425674993044652"><ele>336.0</ele><time>2026-04-11T07:39:39.999Z</time></trkpt><trkpt lat="43.45725028952965" lon="11.425651086594852"><ele>336.0</ele><time>2026-04-11T07:39:40.999Z</time></trkpt><trkpt lat="43.45718389708505" lon="11.425616919301607"><ele>336.0</ele><time>2026-04-11T07:39:42Z</time></trkpt><trkpt lat="43.45711300874529" lon="11.425588663900648"><ele>336.0</ele><time>2026-04-11T07:39:43Z</time></trkpt><trkpt lat="43.45704429712102" lon="11.425564574605735"><ele>336.85714285714283</ele><time>2026-04-11T07:39:44Z</time></trkpt><trkpt lat="43.45697702910802" lon="11.425544509868995"><ele>337.7142857142857</ele><time>2026-04-11T07:39:45Z</time></trkpt><trkpt lat="43.45690530400539" lon="11.425525575079249"><ele>338.57142857142856</ele><time>2026-04-11T07:39:46Z</time></trkpt><trkpt lat="43.45683682923544" lon="11.425513891224432"><ele>339.42857142857144</ele><time>2026-04-11T07:39:47Z</time></trkpt><trkpt lat="43.456770240669556" lon="11.425499117980447"><ele>340.2857142857143</ele><time>2026-04-11T07:39:48Z</time></trkpt><trkpt lat="43.456703365236564" lon="11.425470521579639"><ele>341.1428571428571</ele><time>2026-04-11T07:39:49Z</time></trkpt><trkpt lat="43.4566301202401" lon="11.425463815036311"><ele>342.0</ele><time>2026-04-11T07:39:50Z</time></trkpt><trkpt lat="43.45655964029897" lon="11.42545882089153"><ele>341.0</ele><time>2026-04-11T07:39:51Z</time></trkpt><trkpt lat="43.456431342456405" lon="11.425462976245498"><ele>340.0</ele><time>2026-04-11T07:39:53Z</time></trkpt><trkpt lat="43.4563674123581" lon="11.425461046063544"><ele>339.0</ele><time>2026-04-11T07:39:54Z</time></trkpt><trkpt lat="43.45624371766478" lon="11.425439416510903"><ele>338.0</ele><time>2026-04-11T07:39:56Z</time></trkpt><trkpt lat="43.45618128691146" lon="11.425406170349175"><ele>337.0</ele><time>2026-04-11T07:39:57Z</time></trkpt><trkpt lat="43.456075999268876" lon="11.425322076788662"><ele>337.0</ele><time>2026-04-11T07:39:59Z</time></trkpt><trkpt lat="43.45597387253718" lon="11.425227320495472"><ele>337.0</ele><time>2026-04-11T07:40:01Z</time></trkpt><trkpt lat="43.455916691396844" lon="11.425161351086444"><ele>337.0</ele><time>2026-04-11T07:40:02Z</time></trkpt><trkpt lat="43.45586451383035" lon="11.425104994700535"><ele>337.0</ele><time>2026-04-11T07:40:03Z</time></trkpt><trkpt lat="43.45580878389475" lon="11.425046674741221"><ele>337.0</ele><time>2026-04-11T07:40:04Z</time></trkpt><trkpt lat="43.45574993601398" lon="11.424986058435305"><ele>337.0</ele><time>2026-04-11T07:40:05Z</time></trkpt><trkpt lat="43.455690940375405" lon="11.424914869924178"><ele>337.0</ele><time>2026-04-11T07:40:06Z</time></trkpt><trkpt lat="43.45563414530142" lon="11.424846875650383"><ele>337.0</ele><time>2026-04-11T07:40:07Z</time></trkpt><trkpt lat="43.45556965995347" lon="11.42477959798575"><ele>337.0</ele><time>2026-04-11T07:40:08Z</time></trkpt><trkpt lat="43.45550686270511" lon="11.424713013842888"><ele>337.0</ele><time>2026-04-11T07:40:09Z</time></trkpt><trkpt lat="43.45544391514734" lon="11.424642960098518"><ele>337.0</ele><time>2026-04-11T07:40:10Z</time></trkpt><trkpt lat="43.455381317460876" lon="11.424580050416987"><ele>337.0</ele><time>2026-04-11T07:40:11Z</time></trkpt><trkpt lat="43.455316353478075" lon="11.424513800770756"><ele>336.3333333333333</ele><time>2026-04-11T07:40:12Z</time></trkpt><trkpt lat="43.45525477712014" lon="11.424448390404184"><ele>335.66666666666663</ele><time>2026-04-11T07:40:13Z</time></trkpt><trkpt lat="43.455190224343326" lon="11.424379072842836"><ele>335.0</ele><time>2026-04-11T07:40:14Z</time></trkpt><trkpt lat="43.45512758092506" lon="11.4243153408009"><ele>334.3333333333333</ele><time>2026-04-11T07:40:15Z</time></trkpt><trkpt lat="43.45506219962379" lon="11.424251910535112"><ele>333.6666666666667</ele><time>2026-04-11T07:40:16Z</time></trkpt><trkpt lat="43.45499992451734" lon="11.424182739954293"><ele>333.0</ele><time>2026-04-11T07:40:17Z</time></trkpt><trkpt lat="43.454942553805274" lon="11.424117293205036"><ele>333.0</ele><time>2026-04-11T07:40:18Z</time></trkpt><trkpt lat="43.454872663121044" lon="11.42405722632602"><ele>333.0</ele><time>2026-04-11T07:40:19Z</time></trkpt><trkpt lat="43.45481211094382" lon="11.423999726939108"><ele>333.0</ele><time>2026-04-11T07:40:20Z</time></trkpt><trkpt lat="43.454750264093924" lon="11.423936062350212"><ele>333.0</ele><time>2026-04-11T07:40:21Z</time></trkpt><trkpt lat="43.45468489609948" lon="11.423866587550753"><ele>333.0</ele><time>2026-04-11T07:40:22Z</time></trkpt><trkpt lat="43.45462723454681" lon="11.423801222360813"><ele>333.0</ele><time>2026-04-11T07:40:23Z</time></trkpt><trkpt lat="43.45456672315929" lon="11.423743064071234"><ele>332.6666666666667</ele><time>2026-04-11T07:40:24Z</time></trkpt><trkpt lat="43.45451020833258" lon="11.423675920264758"><ele>332.3333333333333</ele><time>2026-04-11T07:40:25Z</time></trkpt><trkpt lat="43.4544477854798" lon="11.4236109804556"><ele>332.0</ele><time>2026-04-11T07:40:26Z</time></trkpt><trkpt lat="43.454387646818724" lon="11.423544299029448"><ele>331.66666666666663</ele><time>2026-04-11T07:40:27Z</time></trkpt><trkpt lat="43.454334067807785" lon="11.423461585397872"><ele>331.3333333333333</ele><time>2026-04-11T07:40:28Z</time></trkpt><trkpt lat="43.45427667191213" lon="11.42338208338306"><ele>331.0</ele><time>2026-04-11T07:40:29Z</time></trkpt><trkpt lat="43.45422477221532" lon="11.423287911378443"><ele>331.0</ele><time>2026-04-11T07:40:30Z</time></trkpt><trkpt lat="43.45416058855047" lon="11.423196573675504"><ele>331.0</ele><time>2026-04-11T07:40:31Z</time></trkpt><trkpt lat="43.45410230852003" lon="11.423109816373282"><ele>331.0</ele><time>2026-04-11T07:40:32Z</time></trkpt><trkpt lat="43.454042515356164" lon="11.423020074535826"><ele>331.0</ele><time>2026-04-11T07:40:33Z</time></trkpt><trkpt lat="43.45397441924801" lon="11.422934547583383"><ele>331.0</ele><time>2026-04-11T07:40:34Z</time></trkpt><trkpt lat="43.453915185471836" lon="11.422840319078489"><ele>331.0</ele><time>2026-04-11T07:40:35Z</time></trkpt><trkpt lat="43.45385879093751" lon="11.422741333870038"><ele>331.66666666666663</ele><time>2026-04-11T07:40:36Z</time></trkpt><trkpt lat="43.45381346030118" lon="11.422646155562056"><ele>332.3333333333333</ele><time>2026-04-11T07:40:37Z</time></trkpt><trkpt lat="43.45375070856824" lon="11.422558957754083"><ele>333.0</ele><time>2026-04-11T07:40:38Z</time></trkpt><trkpt lat="43.453690897656976" lon="11.42246987336797"><ele>333.6666666666667</ele><time>2026-04-11T07:40:39Z</time></trkpt><trkpt lat="43.45362877984231" lon="11.422376508838571"><ele>334.33333333333337</ele><time>2026-04-11T07:40:40Z</time></trkpt><trkpt lat="43.453578614824416" lon="11.422292935344519"><ele>335.0</ele><time>2026-04-11T07:40:41Z</time></trkpt><trkpt lat="43.453551270424235" lon="11.422173585835289"><ele>334.5</ele><time>2026-04-11T07:40:42Z</time></trkpt><trkpt lat="43.453468859250115" lon="11.422115185802944"><ele>334.0</ele><time>2026-04-11T07:40:43Z</time></trkpt><trkpt lat="43.453407729559125" lon="11.422032924441254"><ele>333.5</ele><time>2026-04-11T07:40:44Z</time></trkpt><trkpt lat="43.45335251561111" lon="11.421953258173186"><ele>333.0</ele><time>2026-04-11T07:40:45Z</time></trkpt><trkpt lat="43.453314175428794" lon="11.42187021228941"><ele>332.5</ele><time>2026-04-11T07:40:46Z</time></trkpt><trkpt lat="43.453260602457746" lon="11.421803223880115"><ele>332.0</ele><time>2026-04-11T07:40:47Z</time></trkpt><trkpt lat="43.45320074807235" lon="11.421717399910785"><ele>332.0</ele><time>2026-04-11T07:40:48Z</time></trkpt><trkpt lat="43.45315667246891" lon="11.421640140906327"><ele>332.0</ele><time>2026-04-11T07:40:49Z</time></trkpt><trkpt lat="43.453095879242746" lon="11.421565932764212"><ele>332.0</ele><time>2026-04-11T07:40:50Z</time></trkpt><trkpt lat="43.45299751907525" lon="11.421436023589418"><ele>332.0</ele><time>2026-04-11T07:40:52Z</time></trkpt><trkpt lat="43.45293549627679" lon="11.421404349039644"><ele>332.0</ele><time>2026-04-11T07:40:53Z</time></trkpt><trkpt lat="43.452875773179976" lon="11.421361523758158"><ele>332.0</ele><time>2026-04-11T07:40:54Z</time></trkpt><trkpt lat="43.45277108973369" lon="11.421261823938382"><ele>332.6</ele><time>2026-04-11T07:40:56Z</time></trkpt><trkpt lat="43.45270480502001" lon="11.42122718193148"><ele>333.20000000000005</ele><time>2026-04-11T07:40:57Z</time></trkpt><trkpt lat="43.452651006254655" lon="11.421162542912969"><ele>333.8</ele><time>2026-04-11T07:40:58Z</time></trkpt><trkpt lat="43.452540671847515" lon="11.421059844119709"><ele>334.4</ele><time>2026-04-11T07:41:00Z</time></trkpt><trkpt lat="43.45249437611555" lon="11.4209829306398"><ele>335.0</ele><time>2026-04-11T07:41:01Z</time></trkpt><trkpt lat="43.45240588712185" lon="11.420866231399588"><ele>335.0</ele><time>2026-04-11T07:41:03Z</time></trkpt><trkpt lat="43.4523303655709" lon="11.420746628080197"><ele>335.0</ele><time>2026-04-11T07:41:05Z</time></trkpt><trkpt lat="43.45226635793923" lon="11.420681411619977"><ele>335.0</ele><time>2026-04-11T07:41:06Z</time></trkpt><trkpt lat="43.45218701287732" lon="11.420574662711235"><ele>335.0</ele><time>2026-04-11T07:41:08Z</time></trkpt><trkpt lat="43.452123817574034" lon="11.420469380665491"><ele>335.0</ele><time>2026-04-11T07:41:10Z</time></trkpt><trkpt lat="43.45204320315406" lon="11.420361589443448"><ele>334.0</ele><time>2026-04-11T07:41:12Z</time></trkpt><trkpt lat="43.45194784882453" lon="11.42026091144823"><ele>333.0</ele><time>2026-04-11T07:41:14Z</time></trkpt><trkpt lat="43.451870284356275" lon="11.420140119365591"><ele>332.0</ele><time>2026-04-11T07:41:16Z</time></trkpt><trkpt lat="43.45179292815816" lon="11.420032251626523"><ele>331.0</ele><time>2026-04-11T07:41:18Z</time></trkpt><trkpt lat="43.45174254897107" lon="11.419905054939147"><ele>331.0</ele><time>2026-04-11T07:41:20Z</time></trkpt><trkpt lat="43.45166737742567" lon="11.419768196972534"><ele>331.0</ele><time>2026-04-11T07:41:22Z</time></trkpt><trkpt lat="43.45159701383338" lon="11.419653582842548"><ele>331.0</ele><time>2026-04-11T07:41:23.999Z</time></trkpt><trkpt lat="43.451495904390825" lon="11.419554070522768"><ele>331.0</ele><time>2026-04-11T07:41:25.999Z</time></trkpt><trkpt lat="43.45138191119069" lon="11.419454704375392"><ele>330.0</ele><time>2026-04-11T07:41:27.999Z</time></trkpt><trkpt lat="43.45127971983704" lon="11.419356036077051"><ele>329.0</ele><time>2026-04-11T07:41:29.999Z</time></trkpt><trkpt lat="43.451179649406114" lon="11.4192550918277"><ele>328.0</ele><time>2026-04-11T07:41:31.999Z</time></trkpt><trkpt lat="43.45111643086752" lon="11.419216679071218"><ele>327.0</ele><time>2026-04-11T07:41:32.999Z</time></trkpt><trkpt lat="43.45105864532239" lon="11.419166569235358"><ele>326.0</ele><time>2026-04-11T07:41:33.999Z</time></trkpt><trkpt lat="43.45099428600457" lon="11.419120523843336"><ele>326.0</ele><time>2026-04-11T07:41:34.999Z</time></trkpt><trkpt lat="43.45092781560584" lon="11.419083830593673"><ele>326.0</ele><time>2026-04-11T07:41:35.999Z</time></trkpt><trkpt lat="43.450855033077495" lon="11.41906729551651"><ele>326.0</ele><time>2026-04-11T07:41:36.999Z</time></trkpt><trkpt lat="43.45076346488981" lon="11.4190439312897"><ele>326.0</ele><time>2026-04-11T07:41:37.999Z</time></trkpt><trkpt lat="43.45067654005366" lon="11.41902439009876"><ele>326.0</ele><time>2026-04-11T07:41:38.999Z</time></trkpt><trkpt lat="43.45057812262909" lon="11.418993717776216"><ele>326.0</ele><time>2026-04-11T07:41:39.999Z</time></trkpt><trkpt lat="43.4504902282108" lon="11.418968347497307"><ele>325.6</ele><time>2026-04-11T07:41:40.999Z</time></trkpt><trkpt lat="43.450394653803244" lon="11.41894138311001"><ele>325.20000000000005</ele><time>2026-04-11T07:41:41.999Z</time></trkpt><trkpt lat="43.45029231338357" lon="11.418931041363335"><ele>324.79999999999995</ele><time>2026-04-11T07:41:42.999Z</time></trkpt><trkpt lat="43.45019349377219" lon="11.418925829975974"><ele>324.4</ele><time>2026-04-11T07:41:43.999Z</time></trkpt><trkpt lat="43.45009749380648" lon="11.41891338786689"><ele>324.0</ele><time>2026-04-11T07:41:44.999Z</time></trkpt><trkpt lat="43.450001466717595" lon="11.418879488340718"><ele>324.0</ele><time>2026-04-11T07:41:45.999Z</time></trkpt><trkpt lat="43.4499161417826" lon="11.418844831702458"><ele>324.0</ele><time>2026-04-11T07:41:46.999Z</time></trkpt><trkpt lat="43.44983278288208" lon="11.418805502949192"><ele>324.0</ele><time>2026-04-11T07:41:48Z</time></trkpt><trkpt lat="43.449748069678996" lon="11.418772042347841"><ele>324.0</ele><time>2026-04-11T07:41:49Z</time></trkpt><trkpt lat="43.44966912795101" lon="11.41874139540586"><ele>324.0</ele><time>2026-04-11T07:41:50Z</time></trkpt><trkpt lat="43.44959469738278" lon="11.418698949518499"><ele>324.0</ele><time>2026-04-11T07:41:51Z</time></trkpt><trkpt lat="43.44952029424886" lon="11.41866707880831"><ele>325.0</ele><time>2026-04-11T07:41:52Z</time></trkpt><trkpt lat="43.44944704280565" lon="11.418634408887577"><ele>326.0</ele><time>2026-04-11T07:41:53Z</time></trkpt><trkpt lat="43.449384235760895" lon="11.418598194101802"><ele>327.0</ele><time>2026-04-11T07:41:54Z</time></trkpt><trkpt lat="43.44931139944662" lon="11.418577641841484"><ele>328.0</ele><time>2026-04-11T07:41:55Z</time></trkpt><trkpt lat="43.44923467727603" lon="11.418563217089426"><ele>329.0</ele><time>2026-04-11T07:41:56Z</time></trkpt><trkpt lat="43.449170437012484" lon="11.41855711787785"><ele>330.0</ele><time>2026-04-11T07:41:57Z</time></trkpt><trkpt lat="43.449105821930736" lon="11.418555453164744"><ele>331.0</ele><time>2026-04-11T07:41:58Z</time></trkpt><trkpt lat="43.44903784532246" lon="11.418544338250495"><ele>331.0</ele><time>2026-04-11T07:41:59Z</time></trkpt><trkpt lat="43.4489749119044" lon="11.418530346385568"><ele>331.0</ele><time>2026-04-11T07:42:00Z</time></trkpt><trkpt lat="43.44885953348356" lon="11.418515682839578"><ele>331.0</ele><time>2026-04-11T07:42:02Z</time></trkpt><trkpt lat="43.44874432366684" lon="11.418517319379546"><ele>331.0</ele><time>2026-04-11T07:42:04Z</time></trkpt><trkpt lat="43.448643293596746" lon="11.418505387129002"><ele>331.0</ele><time>2026-04-11T07:42:06Z</time></trkpt><trkpt lat="43.44854473354079" lon="11.418478462268197"><ele>331.0</ele><time>2026-04-11T07:42:08Z</time></trkpt><trkpt lat="43.44844812845941" lon="11.418460654143734"><ele>331.0</ele><time>2026-04-11T07:42:10Z</time></trkpt><trkpt lat="43.44835081401868" lon="11.418431095264266"><ele>331.0</ele><time>2026-04-11T07:42:12Z</time></trkpt><trkpt lat="43.448267555227424" lon="11.418369167013832"><ele>331.0</ele><time>2026-04-11T07:42:14Z</time></trkpt><trkpt lat="43.448186179552" lon="11.418312057431049"><ele>331.0</ele><time>2026-04-11T07:42:16Z</time></trkpt><trkpt lat="43.44810302937789" lon="11.418235853623575"><ele>331.0</ele><time>2026-04-11T07:42:18Z</time></trkpt><trkpt lat="43.44803230614218" lon="11.418155411602724"><ele>331.0</ele><time>2026-04-11T07:42:20Z</time></trkpt><trkpt lat="43.44796723212972" lon="11.418064167213817"><ele>331.0</ele><time>2026-04-11T07:42:22Z</time></trkpt><trkpt lat="43.447895978042766" lon="11.418005574445546"><ele>331.0</ele><time>2026-04-11T07:42:24Z</time></trkpt><trkpt lat="43.447825353092334" lon="11.417939089629463"><ele>331.0</ele><time>2026-04-11T07:42:26Z</time></trkpt><trkpt lat="43.447778315961806" lon="11.417866130311582"><ele>331.0</ele><time>2026-04-11T07:42:28Z</time></trkpt><trkpt lat="43.44770423148472" lon="11.417819556659037"><ele>332.16666666666663</ele><time>2026-04-11T07:42:30Z</time></trkpt><trkpt lat="43.44763239155324" lon="11.41778774115498"><ele>333.3333333333333</ele><time>2026-04-11T07:42:32Z</time></trkpt><trkpt lat="43.447559300332664" lon="11.41774705365701"><ele>334.5</ele><time>2026-04-11T07:42:34Z</time></trkpt><trkpt lat="43.44748057544144" lon="11.41772358086703"><ele>335.6666666666667</ele><time>2026-04-11T07:42:36Z</time></trkpt><trkpt lat="43.44741190451115" lon="11.417719507481534"><ele>336.83333333333337</ele><time>2026-04-11T07:42:38Z</time></trkpt><trkpt lat="43.44735020148497" lon="11.41769398344201"><ele>338.0</ele><time>2026-04-11T07:42:40Z</time></trkpt><trkpt lat="43.44726481443236" lon="11.417671439791388"><ele>338.0</ele><time>2026-04-11T07:42:42Z</time></trkpt><trkpt lat="43.447187281133104" lon="11.417655554444577"><ele>338.0</ele><time>2026-04-11T07:42:44Z</time></trkpt><trkpt lat="43.447108723433026" lon="11.417644249139641"><ele>338.0</ele><time>2026-04-11T07:42:46Z</time></trkpt><trkpt lat="43.44702873210314" lon="11.417617728703743"><ele>338.0</ele><time>2026-04-11T07:42:48Z</time></trkpt><trkpt lat="43.446948269371624" lon="11.417596385015154"><ele>338.0</ele><time>2026-04-11T07:42:50Z</time></trkpt><trkpt lat="43.446877786550374" lon="11.417581102452443"><ele>338.0</ele><time>2026-04-11T07:42:52Z</time></trkpt><trkpt lat="43.446797489562584" lon="11.41755866758711"><ele>338.33333333333337</ele><time>2026-04-11T07:42:54Z</time></trkpt><trkpt lat="43.44672708760358" lon="11.417537412861167"><ele>338.6666666666667</ele><time>2026-04-11T07:42:56Z</time></trkpt><trkpt lat="43.44664988453971" lon="11.417518581025824"><ele>339.0</ele><time>2026-04-11T07:42:58Z</time></trkpt><trkpt lat="43.446567399461884" lon="11.417504485099734"><ele>339.3333333333333</ele><time>2026-04-11T07:43:00Z</time></trkpt><trkpt lat="43.44649985759357" lon="11.417488032775351"><ele>339.66666666666663</ele><time>2026-04-11T07:43:02Z</time></trkpt><trkpt lat="43.44642653887031" lon="11.417469701541998"><ele>340.0</ele><time>2026-04-11T07:43:04Z</time></trkpt><trkpt lat="43.44634833466827" lon="11.417464343220555"><ele>342.0</ele><time>2026-04-11T07:43:06Z</time></trkpt><trkpt lat="43.44626633784615" lon="11.417492827549323"><ele>344.0</ele><time>2026-04-11T07:43:08Z</time></trkpt><trkpt lat="43.44619746112242" lon="11.417489126168512"><ele>346.0</ele><time>2026-04-11T07:43:10Z</time></trkpt><trkpt lat="43.44612599736696" lon="11.417489434776384"><ele>348.0</ele><time>2026-04-11T07:43:12Z</time></trkpt><trkpt lat="43.446056194326964" lon="11.417524304939823"><ele>350.0</ele><time>2026-04-11T07:43:14Z</time></trkpt><trkpt lat="43.44598422056328" lon="11.417569515346344"><ele>352.0</ele><time>2026-04-11T07:43:16Z</time></trkpt><trkpt lat="43.44592528675806" lon="11.417634074920146"><ele>352.0</ele><time>2026-04-11T07:43:18Z</time></trkpt><trkpt lat="43.44587031169027" lon="11.417720357740029"><ele>352.0</ele><time>2026-04-11T07:43:20Z</time></trkpt><trkpt lat="43.4458275939399" lon="11.41780067272724"><ele>352.0</ele><time>2026-04-11T07:43:21.999Z</time></trkpt><trkpt lat="43.44578400394403" lon="11.417914305944533"><ele>352.0</ele><time>2026-04-11T07:43:23.999Z</time></trkpt><trkpt lat="43.445747308431756" lon="11.418023843099528"><ele>352.0</ele><time>2026-04-11T07:43:25.999Z</time></trkpt><trkpt lat="43.445712950797244" lon="11.418145909132512"><ele>352.0</ele><time>2026-04-11T07:43:27.999Z</time></trkpt><trkpt lat="43.44567432296079" lon="11.418281229026709"><ele>349.5</ele><time>2026-04-11T07:43:29.999Z</time></trkpt><trkpt lat="43.44564645775875" lon="11.418420193274176"><ele>347.0</ele><time>2026-04-11T07:43:31.999Z</time></trkpt><trkpt lat="43.445627146145625" lon="11.41857431424268"><ele>344.5</ele><time>2026-04-11T07:43:33.999Z</time></trkpt><trkpt lat="43.44560109872717" lon="11.41872602408524"><ele>342.0</ele><time>2026-04-11T07:43:35.999Z</time></trkpt><trkpt lat="43.4456046373512" lon="11.418888668245984"><ele>340.40000000000003</ele><time>2026-04-11T07:43:37.999Z</time></trkpt><trkpt lat="43.44561059576942" lon="11.418976737565659"><ele>338.8</ele><time>2026-04-11T07:43:38.999Z</time></trkpt><trkpt lat="43.44562013307354" lon="11.419136154475412"><ele>337.2</ele><time>2026-04-11T07:43:40.999Z</time></trkpt><trkpt lat="43.445609183735094" lon="11.419295713335698"><ele>335.6</ele><time>2026-04-11T07:43:42.999Z</time></trkpt><trkpt lat="43.44560426717101" lon="11.419456293858296"><ele>334.0</ele><time>2026-04-11T07:43:44.999Z</time></trkpt><trkpt lat="43.445558754650555" lon="11.419601883249982"><ele>335.0</ele><time>2026-04-11T07:43:46.999Z</time></trkpt><trkpt lat="43.445507139261096" lon="11.419653827609947"><ele>336.0</ele><time>2026-04-11T07:43:47.999Z</time></trkpt><trkpt lat="43.44539372823008" lon="11.419731406541294"><ele>337.0</ele><time>2026-04-11T07:43:49.999Z</time></trkpt><trkpt lat="43.4453346403651" lon="11.419764873003484"><ele>338.0</ele><time>2026-04-11T07:43:50.999Z</time></trkpt><trkpt lat="43.44521678635884" lon="11.419835398619266"><ele>339.0</ele><time>2026-04-11T07:43:52.999Z</time></trkpt><trkpt lat="43.44515146470924" lon="11.41987553966586"><ele>339.0</ele><time>2026-04-11T07:43:54Z</time></trkpt><trkpt lat="43.44509222472817" lon="11.419911918703518"><ele>339.0</ele><time>2026-04-11T07:43:55Z</time></trkpt><trkpt lat="43.44497402504232" lon="11.419988909482461"><ele>339.0</ele><time>2026-04-11T07:43:57Z</time></trkpt><trkpt lat="43.44490990924052" lon="11.42002385130908"><ele>339.0</ele><time>2026-04-11T07:43:58Z</time></trkpt><trkpt lat="43.44484170534047" lon="11.420059254417204"><ele>339.0</ele><time>2026-04-11T07:43:59Z</time></trkpt><trkpt lat="43.44477961872361" lon="11.420096199142689"><ele>339.0</ele><time>2026-04-11T07:44:00Z</time></trkpt><trkpt lat="43.444706587000276" lon="11.42013015794483"><ele>339.0</ele><time>2026-04-11T07:44:01Z</time></trkpt><trkpt lat="43.44464695132649" lon="11.420179026961893"><ele>339.0</ele><time>2026-04-11T07:44:02Z</time></trkpt><trkpt lat="43.44459076515792" lon="11.420240080422223"><ele>339.0</ele><time>2026-04-11T07:44:03Z</time></trkpt><trkpt lat="43.44453297412961" lon="11.420307442291477"><ele>339.0</ele><time>2026-04-11T07:44:04Z</time></trkpt><trkpt lat="43.44447968186827" lon="11.420378469262172"><ele>339.0</ele><time>2026-04-11T07:44:05Z</time></trkpt><trkpt lat="43.44443075982847" lon="11.420454835054949"><ele>339.0</ele><time>2026-04-11T07:44:06Z</time></trkpt><trkpt lat="43.44438289239342" lon="11.42053445752341"><ele>339.0</ele><time>2026-04-11T07:44:07Z</time></trkpt><trkpt lat="43.444340697784" lon="11.42060995154575"><ele>338.6666666666667</ele><time>2026-04-11T07:44:08Z</time></trkpt><trkpt lat="43.44429377260501" lon="11.420686332748263"><ele>338.3333333333333</ele><time>2026-04-11T07:44:09Z</time></trkpt><trkpt lat="43.44423840692532" lon="11.420754939605176"><ele>338.0</ele><time>2026-04-11T07:44:10Z</time></trkpt><trkpt lat="43.44417928701266" lon="11.420822311148484"><ele>337.66666666666663</ele><time>2026-04-11T07:44:11Z</time></trkpt><trkpt lat="43.44411650786672" lon="11.420885069662107"><ele>337.3333333333333</ele><time>2026-04-11T07:44:12Z</time></trkpt><trkpt lat="43.44405060990938" lon="11.420934055703661"><ele>337.0</ele><time>2026-04-11T07:44:13Z</time></trkpt><trkpt lat="43.44398294006941" lon="11.420982704880537"><ele>337.0</ele><time>2026-04-11T07:44:14Z</time></trkpt><trkpt lat="43.443917081241025" lon="11.42103083372403"><ele>337.0</ele><time>2026-04-11T07:44:15Z</time></trkpt><trkpt lat="43.44384778227363" lon="11.42108084723009"><ele>337.0</ele><time>2026-04-11T07:44:16Z</time></trkpt><trkpt lat="43.44378057813521" lon="11.421127292035667"><ele>337.0</ele><time>2026-04-11T07:44:17Z</time></trkpt><trkpt lat="43.44371529428848" lon="11.42117174439813"><ele>337.0</ele><time>2026-04-11T07:44:18Z</time></trkpt><trkpt lat="43.443646328262204" lon="11.421221890183899"><ele>337.0</ele><time>2026-04-11T07:44:19Z</time></trkpt><trkpt lat="43.44358156785458" lon="11.421270449923027"><ele>335.7142857142857</ele><time>2026-04-11T07:44:20Z</time></trkpt><trkpt lat="43.443516985393636" lon="11.421316504435664"><ele>334.42857142857144</ele><time>2026-04-11T07:44:21Z</time></trkpt><trkpt lat="43.443452318415915" lon="11.421365091528129"><ele>333.1428571428571</ele><time>2026-04-11T07:44:22Z</time></trkpt><trkpt lat="43.443386930059" lon="11.421408400447207"><ele>331.8571428571429</ele><time>2026-04-11T07:44:23Z</time></trkpt><trkpt lat="43.44331251307977" lon="11.42145319419983"><ele>330.57142857142856</ele><time>2026-04-11T07:44:24Z</time></trkpt><trkpt lat="43.44324360011457" lon="11.421489417569404"><ele>329.2857142857143</ele><time>2026-04-11T07:44:25Z</time></trkpt><trkpt lat="43.443172606853366" lon="11.421519869437814"><ele>328.0</ele><time>2026-04-11T07:44:26Z</time></trkpt><trkpt lat="43.44310013505192" lon="11.42153708386569"><ele>328.0</ele><time>2026-04-11T07:44:27Z</time></trkpt><trkpt lat="43.44302743026688" lon="11.42154517243555"><ele>328.0</ele><time>2026-04-11T07:44:28Z</time></trkpt><trkpt lat="43.44295395814222" lon="11.421548927624231"><ele>328.0</ele><time>2026-04-11T07:44:29Z</time></trkpt><trkpt lat="43.44287626703119" lon="11.421550285861139"><ele>328.0</ele><time>2026-04-11T07:44:30Z</time></trkpt><trkpt lat="43.44279659126029" lon="11.421551024233974"><ele>328.0</ele><time>2026-04-11T07:44:31Z</time></trkpt><trkpt lat="43.44271884094137" lon="11.421551984603745"><ele>328.0</ele><time>2026-04-11T07:44:32Z</time></trkpt><trkpt lat="43.44264356141784" lon="11.421552733202212"><ele>328.0</ele><time>2026-04-11T07:44:33Z</time></trkpt><trkpt lat="43.44256623490104" lon="11.42154540200826"><ele>328.0</ele><time>2026-04-11T07:44:34Z</time></trkpt><trkpt lat="43.44248986926362" lon="11.421532863581866"><ele>328.0</ele><time>2026-04-11T07:44:35Z</time></trkpt><trkpt lat="43.442411508071096" lon="11.421518916165962"><ele>328.0</ele><time>2026-04-11T07:44:36Z</time></trkpt><trkpt lat="43.44231830584793" lon="11.421501774479419"><ele>328.0</ele><time>2026-04-11T07:44:37Z</time></trkpt><trkpt lat="43.442237048720756" lon="11.421496042882188"><ele>328.0</ele><time>2026-04-11T07:44:38Z</time></trkpt><trkpt lat="43.44217174456483" lon="11.421488775076105"><ele>327.16666666666663</ele><time>2026-04-11T07:44:39Z</time></trkpt><trkpt lat="43.44209604179316" lon="11.421473115718076"><ele>326.3333333333333</ele><time>2026-04-11T07:44:40Z</time></trkpt><trkpt lat="43.44201997403251" lon="11.42145878345164"><ele>325.5</ele><time>2026-04-11T07:44:41Z</time></trkpt><trkpt lat="43.441944311966694" lon="11.42146217540815"><ele>324.6666666666667</ele><time>2026-04-11T07:44:42Z</time></trkpt><trkpt lat="43.441867977919316" lon="11.421453184495135"><ele>323.83333333333337</ele><time>2026-04-11T07:44:43Z</time></trkpt><trkpt lat="43.44179193959056" lon="11.421439180715435"><ele>323.0</ele><time>2026-04-11T07:44:44Z</time></trkpt><trkpt lat="43.44171238794622" lon="11.421417839446995"><ele>323.0</ele><time>2026-04-11T07:44:45Z</time></trkpt><trkpt lat="43.44163607036071" lon="11.421404108715667"><ele>323.0</ele><time>2026-04-11T07:44:46Z</time></trkpt><trkpt lat="43.4415556367257" lon="11.42139234461518"><ele>323.0</ele><time>2026-04-11T07:44:47Z</time></trkpt><trkpt lat="43.441475238950936" lon="11.421376133304612"><ele>323.0</ele><time>2026-04-11T07:44:48Z</time></trkpt><trkpt lat="43.44139445689959" lon="11.42137087560797"><ele>323.0</ele><time>2026-04-11T07:44:49Z</time></trkpt><trkpt lat="43.4413172810093" lon="11.421354207984427"><ele>323.0</ele><time>2026-04-11T07:44:50Z</time></trkpt><trkpt lat="43.441237664843825" lon="11.421332550345713"><ele>324.1666666666667</ele><time>2026-04-11T07:44:51Z</time></trkpt><trkpt lat="43.44115902490711" lon="11.421300597257265"><ele>325.33333333333337</ele><time>2026-04-11T07:44:52Z</time></trkpt><trkpt lat="43.44108421866716" lon="11.421263156983686"><ele>326.5</ele><time>2026-04-11T07:44:53Z</time></trkpt><trkpt lat="43.441017067346394" lon="11.421219367864415"><ele>327.6666666666667</ele><time>2026-04-11T07:44:54Z</time></trkpt><trkpt lat="43.44094708813814" lon="11.421170954500113"><ele>328.8333333333333</ele><time>2026-04-11T07:44:55Z</time></trkpt><trkpt lat="43.440883143652336" lon="11.421123098527522"><ele>330.0</ele><time>2026-04-11T07:44:56Z</time></trkpt><trkpt lat="43.440817092949494" lon="11.42107264818824"><ele>330.0</ele><time>2026-04-11T07:44:57Z</time></trkpt><trkpt lat="43.4407531778908" lon="11.421018704705858"><ele>330.0</ele><time>2026-04-11T07:44:58Z</time></trkpt><trkpt lat="43.4406893258093" lon="11.420964309582292"><ele>330.0</ele><time>2026-04-11T07:44:59Z</time></trkpt><trkpt lat="43.44062600710266" lon="11.420909920650033"><ele>330.0</ele><time>2026-04-11T07:45:00Z</time></trkpt><trkpt lat="43.44056279011913" lon="11.420858221377275"><ele>330.0</ele><time>2026-04-11T07:45:01Z</time></trkpt><trkpt lat="43.44049831592767" lon="11.420801963174679"><ele>330.0</ele><time>2026-04-11T07:45:02Z</time></trkpt><trkpt lat="43.440434402951794" lon="11.420745263720146"><ele>329.8333333333333</ele><time>2026-04-11T07:45:03Z</time></trkpt><trkpt lat="43.44036906820819" lon="11.420689739631769"><ele>329.6666666666667</ele><time>2026-04-11T07:45:04Z</time></trkpt><trkpt lat="43.44030590705755" lon="11.420632679759066"><ele>329.5</ele><time>2026-04-11T07:45:05Z</time></trkpt><trkpt lat="43.440240131896225" lon="11.420573655722052"><ele>329.33333333333337</ele><time>2026-04-11T07:45:06Z</time></trkpt><trkpt lat="43.44017409063874" lon="11.420513202764905"><ele>329.1666666666667</ele><time>2026-04-11T07:45:07Z</time></trkpt><trkpt lat="43.44010897416021" lon="11.420454758126567"><ele>329.0</ele><time>2026-04-11T07:45:08Z</time></trkpt><trkpt lat="43.4400384888056" lon="11.420393337212651"><ele>329.0</ele><time>2026-04-11T07:45:09Z</time></trkpt><trkpt lat="43.43997000104687" lon="11.42033425972985"><ele>329.0</ele><time>2026-04-11T07:45:10Z</time></trkpt><trkpt lat="43.43990189744379" lon="11.420278282771356"><ele>329.0</ele><time>2026-04-11T07:45:11Z</time></trkpt><trkpt lat="43.43983351675316" lon="11.420222758160316"><ele>329.0</ele><time>2026-04-11T07:45:12Z</time></trkpt><trkpt lat="43.43976505880666" lon="11.420164145681213"><ele>329.0</ele><time>2026-04-11T07:45:13Z</time></trkpt><trkpt lat="43.439695455395736" lon="11.420105177200496"><ele>329.0</ele><time>2026-04-11T07:45:14Z</time></trkpt><trkpt lat="43.439627703300175" lon="11.420050857673445"><ele>327.1666666666667</ele><time>2026-04-11T07:45:15Z</time></trkpt><trkpt lat="43.43955726512428" lon="11.419995108810715"><ele>325.33333333333337</ele><time>2026-04-11T07:45:16Z</time></trkpt><trkpt lat="43.43948534291709" lon="11.419943040080648"><ele>323.5</ele><time>2026-04-11T07:45:17Z</time></trkpt><trkpt lat="43.439414270146656" lon="11.419885394631498"><ele>321.6666666666667</ele><time>2026-04-11T07:45:18Z</time></trkpt><trkpt lat="43.43934398628451" lon="11.419833550719213"><ele>319.8333333333333</ele><time>2026-04-11T07:45:19Z</time></trkpt><trkpt lat="43.439271952324475" lon="11.419783425738695"><ele>318.0</ele><time>2026-04-11T07:45:20Z</time></trkpt><trkpt lat="43.4391960485486" lon="11.419744997990511"><ele>318.0</ele><time>2026-04-11T07:45:21Z</time></trkpt><trkpt lat="43.439122514901314" lon="11.419702053197426"><ele>318.0</ele><time>2026-04-11T07:45:22Z</time></trkpt><trkpt lat="43.439044673512626" lon="11.41967270300049"><ele>318.0</ele><time>2026-04-11T07:45:23Z</time></trkpt><trkpt lat="43.43897023645946" lon="11.4196506743309"><ele>318.0</ele><time>2026-04-11T07:45:24Z</time></trkpt><trkpt lat="43.43889392312964" lon="11.41963288012741"><ele>318.0</ele><time>2026-04-11T07:45:24.999Z</time></trkpt><trkpt lat="43.43882260291101" lon="11.419609000222849"><ele>318.0</ele><time>2026-04-11T07:45:25.999Z</time></trkpt><trkpt lat="43.4387435840499" lon="11.419594021344713"><ele>319.6666666666667</ele><time>2026-04-11T07:45:26.999Z</time></trkpt><trkpt lat="43.438660899754964" lon="11.419580438768651"><ele>321.3333333333333</ele><time>2026-04-11T07:45:27.999Z</time></trkpt><trkpt lat="43.438581365891814" lon="11.419575792039964"><ele>323.0</ele><time>2026-04-11T07:45:28.999Z</time></trkpt><trkpt lat="43.43850415769331" lon="11.419565630849847"><ele>324.66666666666663</ele><time>2026-04-11T07:45:29.999Z</time></trkpt><trkpt lat="43.4384235572984" lon="11.419562284489281"><ele>326.3333333333333</ele><time>2026-04-11T07:45:30.999Z</time></trkpt><trkpt lat="43.43834447843626" lon="11.41955840731378"><ele>328.0</ele><time>2026-04-11T07:45:31.999Z</time></trkpt><trkpt lat="43.43826497164333" lon="11.419552874416388"><ele>328.0</ele><time>2026-04-11T07:45:32.999Z</time></trkpt><trkpt lat="43.438183005852494" lon="11.419545486151527"><ele>328.0</ele><time>2026-04-11T07:45:33.999Z</time></trkpt><trkpt lat="43.4381039147185" lon="11.419534300772913"><ele>328.0</ele><time>2026-04-11T07:45:34.999Z</time></trkpt><trkpt lat="43.43802944326428" lon="11.41952261676285"><ele>328.0</ele><time>2026-04-11T07:45:35.999Z</time></trkpt><trkpt lat="43.4379534203572" lon="11.419508896456696"><ele>328.0</ele><time>2026-04-11T07:45:36.999Z</time></trkpt><trkpt lat="43.43787795063743" lon="11.41949519582337"><ele>328.0</ele><time>2026-04-11T07:45:37.999Z</time></trkpt><trkpt lat="43.43780041754181" lon="11.41948674294357"><ele>327.16666666666663</ele><time>2026-04-11T07:45:38.999Z</time></trkpt><trkpt lat="43.437725452339826" lon="11.419476246743603"><ele>326.3333333333333</ele><time>2026-04-11T07:45:39.999Z</time></trkpt><trkpt lat="43.437648113156065" lon="11.419468129286237"><ele>325.5</ele><time>2026-04-11T07:45:40.999Z</time></trkpt><trkpt lat="43.437570946580045" lon="11.41945773536917"><ele>324.6666666666667</ele><time>2026-04-11T07:45:41.999Z</time></trkpt><trkpt lat="43.43748243244889" lon="11.419431815959054"><ele>323.83333333333337</ele><time>2026-04-11T07:45:42.999Z</time></trkpt><trkpt lat="43.437402782053134" lon="11.419414723754903"><ele>323.0</ele><time>2026-04-11T07:45:43.999Z</time></trkpt><trkpt lat="43.43732345316712" lon="11.419405460272054"><ele>323.0</ele><time>2026-04-11T07:45:44.999Z</time></trkpt><trkpt lat="43.43723847851947" lon="11.419400725828998"><ele>323.0</ele><time>2026-04-11T07:45:45.999Z</time></trkpt><trkpt lat="43.437161958600726" lon="11.419378282144073"><ele>323.0</ele><time>2026-04-11T07:45:46.999Z</time></trkpt><trkpt lat="43.437086919862196" lon="11.419361559873206"><ele>323.0</ele><time>2026-04-11T07:45:47.999Z</time></trkpt><trkpt lat="43.4370064308017" lon="11.419343474417218"><ele>323.0</ele><time>2026-04-11T07:45:48.999Z</time></trkpt><trkpt lat="43.43692574628411" lon="11.41932775944343"><ele>323.0</ele><time>2026-04-11T07:45:49.999Z</time></trkpt><trkpt lat="43.43684740615424" lon="11.419308369081117"><ele>322.5</ele><time>2026-04-11T07:45:50.999Z</time></trkpt><trkpt lat="43.43676617515731" lon="11.419286233586716"><ele>322.0</ele><time>2026-04-11T07:45:51.999Z</time></trkpt><trkpt lat="43.436691929535215" lon="11.419275313063146"><ele>321.5</ele><time>2026-04-11T07:45:52.999Z</time></trkpt><trkpt lat="43.43661312714196" lon="11.41926431537083"><ele>321.0</ele><time>2026-04-11T07:45:53.999Z</time></trkpt><trkpt lat="43.43653704300162" lon="11.419254611051132"><ele>320.5</ele><time>2026-04-11T07:45:54.999Z</time></trkpt><trkpt lat="43.436461283977444" lon="11.41924739951962"><ele>320.0</ele><time>2026-04-11T07:45:55.999Z</time></trkpt><trkpt lat="43.43637846416873" lon="11.41923235439444"><ele>320.0</ele><time>2026-04-11T07:45:56.999Z</time></trkpt><trkpt lat="43.43630319652564" lon="11.419215701514517"><ele>320.0</ele><time>2026-04-11T07:45:57.999Z</time></trkpt><trkpt lat="43.43622546218575" lon="11.419196762953895"><ele>320.0</ele><time>2026-04-11T07:45:58.999Z</time></trkpt><trkpt lat="43.436150290746234" lon="11.41918718245365"><ele>320.0</ele><time>2026-04-11T07:46:00Z</time></trkpt><trkpt lat="43.43607154204731" lon="11.419175393000593"><ele>320.0</ele><time>2026-04-11T07:46:01Z</time></trkpt><trkpt lat="43.43599190681086" lon="11.419160590070497"><ele>320.0</ele><time>2026-04-11T07:46:02Z</time></trkpt><trkpt lat="43.435907111478826" lon="11.419146697687623"><ele>319.83333333333337</ele><time>2026-04-11T07:46:03Z</time></trkpt><trkpt lat="43.435825296595695" lon="11.419137111402451"><ele>319.6666666666667</ele><time>2026-04-11T07:46:04Z</time></trkpt><trkpt lat="43.43574705291959" lon="11.419120907905286"><ele>319.5</ele><time>2026-04-11T07:46:05Z</time></trkpt><trkpt lat="43.43567481674001" lon="11.419109448242388"><ele>319.3333333333333</ele><time>2026-04-11T07:46:06Z</time></trkpt><trkpt lat="43.43559785330268" lon="11.419094103462939"><ele>319.16666666666663</ele><time>2026-04-11T07:46:07Z</time></trkpt><trkpt lat="43.43550869983538" lon="11.419079586296302"><ele>319.0</ele><time>2026-04-11T07:46:08Z</time></trkpt><trkpt lat="43.43542320620913" lon="11.419087325383154"><ele>319.0</ele><time>2026-04-11T07:46:09Z</time></trkpt><trkpt lat="43.435337348963195" lon="11.419095744012939"><ele>319.0</ele><time>2026-04-11T07:46:10Z</time></trkpt><trkpt lat="43.43525351836249" lon="11.41911949333214"><ele>319.0</ele><time>2026-04-11T07:46:11Z</time></trkpt><trkpt lat="43.43517518616702" lon="11.419135865739442"><ele>319.0</ele><time>2026-04-11T07:46:12Z</time></trkpt><trkpt lat="43.43505906229141" lon="11.41921078197876"><ele>319.0</ele><time>2026-04-11T07:46:14Z</time></trkpt><trkpt lat="43.435001211532395" lon="11.419266351810546"><ele>319.0</ele><time>2026-04-11T07:46:15Z</time></trkpt><trkpt lat="43.4349308158359" lon="11.419318380623581"><ele>319.0</ele><time>2026-04-11T07:46:16Z</time></trkpt><trkpt lat="43.43486314847764" lon="11.419377919976915"><ele>319.0</ele><time>2026-04-11T07:46:17Z</time></trkpt><trkpt lat="43.43479194868137" lon="11.419434218756887"><ele>319.0</ele><time>2026-04-11T07:46:18Z</time></trkpt><trkpt lat="43.43472024835585" lon="11.41949909606646"><ele>319.0</ele><time>2026-04-11T07:46:19Z</time></trkpt><trkpt lat="43.43464562538086" lon="11.41955359287076"><ele>319.0</ele><time>2026-04-11T07:46:20Z</time></trkpt><trkpt lat="43.434588891606154" lon="11.419621083555082"><ele>318.5</ele><time>2026-04-11T07:46:21Z</time></trkpt><trkpt lat="43.43451844757071" lon="11.419713671761299"><ele>318.0</ele><time>2026-04-11T07:46:22Z</time></trkpt><trkpt lat="43.43445586362895" lon="11.41979554369308"><ele>317.5</ele><time>2026-04-11T07:46:23Z</time></trkpt><trkpt lat="43.43439084233701" lon="11.419847467949456"><ele>317.0</ele><time>2026-04-11T07:46:24Z</time></trkpt><trkpt lat="43.43432322911737" lon="11.419915634560745"><ele>316.5</ele><time>2026-04-11T07:46:25Z</time></trkpt><trkpt lat="43.434255202319264" lon="11.419994957507011"><ele>316.0</ele><time>2026-04-11T07:46:26Z</time></trkpt><trkpt lat="43.434191070996924" lon="11.420067571359905"><ele>316.0</ele><time>2026-04-11T07:46:27Z</time></trkpt><trkpt lat="43.434130276933146" lon="11.420139031236229"><ele>316.0</ele><time>2026-04-11T07:46:28Z</time></trkpt><trkpt lat="43.434071734689205" lon="11.42021060404102"><ele>316.0</ele><time>2026-04-11T07:46:29Z</time></trkpt><trkpt lat="43.43399833303799" lon="11.420289715357574"><ele>316.0</ele><time>2026-04-11T07:46:30Z</time></trkpt><trkpt lat="43.433931812942184" lon="11.420361385947528"><ele>316.0</ele><time>2026-04-11T07:46:31Z</time></trkpt><trkpt lat="43.43387569798505" lon="11.420428656370374"><ele>316.0</ele><time>2026-04-11T07:46:32Z</time></trkpt><trkpt lat="43.433801713477756" lon="11.420508399766346"><ele>313.8333333333333</ele><time>2026-04-11T07:46:33Z</time></trkpt><trkpt lat="43.433749415292674" lon="11.420587185401125"><ele>311.66666666666663</ele><time>2026-04-11T07:46:34Z</time></trkpt><trkpt lat="43.433691855993395" lon="11.420668932077232"><ele>309.5</ele><time>2026-04-11T07:46:35Z</time></trkpt><trkpt lat="43.43362990044445" lon="11.420747366191938"><ele>307.3333333333333</ele><time>2026-04-11T07:46:36Z</time></trkpt><trkpt lat="43.43357112895917" lon="11.420826804817962"><ele>305.1666666666667</ele><time>2026-04-11T07:46:37Z</time></trkpt><trkpt lat="43.433493874851074" lon="11.420869609624333"><ele>303.0</ele><time>2026-04-11T07:46:38Z</time></trkpt><trkpt lat="43.43341436264677" lon="11.420873655287615"><ele>303.0</ele><time>2026-04-11T07:46:39Z</time></trkpt><trkpt lat="43.43333766423781" lon="11.420857957480235"><ele>303.0</ele><time>2026-04-11T07:46:40Z</time></trkpt><trkpt lat="43.433256922185365" lon="11.420773217679365"><ele>303.0</ele><time>2026-04-11T07:46:41Z</time></trkpt><trkpt lat="43.433195930741114" lon="11.420697212012918"><ele>303.0</ele><time>2026-04-11T07:46:42Z</time></trkpt><trkpt lat="43.43313680510072" lon="11.420602724555634"><ele>303.0</ele><time>2026-04-11T07:46:43Z</time></trkpt><trkpt lat="43.43308216680436" lon="11.420515793811333"><ele>303.0</ele><time>2026-04-11T07:46:44Z</time></trkpt><trkpt lat="43.43303910270307" lon="11.420420223996977"><ele>302.6666666666667</ele><time>2026-04-11T07:46:45Z</time></trkpt><trkpt lat="43.43300661242877" lon="11.420317670703977"><ele>302.3333333333333</ele><time>2026-04-11T07:46:46Z</time></trkpt><trkpt lat="43.43297656686332" lon="11.420214297161303"><ele>302.0</ele><time>2026-04-11T07:46:47Z</time></trkpt><trkpt lat="43.4329342632208" lon="11.420119954099773"><ele>301.66666666666663</ele><time>2026-04-11T07:46:48Z</time></trkpt><trkpt lat="43.43289746081549" lon="11.420022004739353"><ele>301.3333333333333</ele><time>2026-04-11T07:46:49Z</time></trkpt><trkpt lat="43.43285650689234" lon="11.419925768992128"><ele>301.0</ele><time>2026-04-11T07:46:50Z</time></trkpt><trkpt lat="43.43282363845911" lon="11.419833696057552"><ele>301.0</ele><time>2026-04-11T07:46:51Z</time></trkpt><trkpt lat="43.432780917921704" lon="11.419745076083355"><ele>301.0</ele><time>2026-04-11T07:46:52Z</time></trkpt><trkpt lat="43.432739939440424" lon="11.419657833470335"><ele>301.0</ele><time>2026-04-11T07:46:53Z</time></trkpt><trkpt lat="43.43270405727085" lon="11.419564380709112"><ele>301.0</ele><time>2026-04-11T07:46:54Z</time></trkpt><trkpt lat="43.43265825559493" lon="11.419477818768572"><ele>301.0</ele><time>2026-04-11T07:46:55Z</time></trkpt><trkpt lat="43.43259419392285" lon="11.4194106822107"><ele>301.0</ele><time>2026-04-11T07:46:56Z</time></trkpt><trkpt lat="43.43253794548599" lon="11.419340278495405"><ele>301.5</ele><time>2026-04-11T07:46:57Z</time></trkpt><trkpt lat="43.432493685039006" lon="11.419265494412517"><ele>302.0</ele><time>2026-04-11T07:46:58Z</time></trkpt><trkpt lat="43.43243622489199" lon="11.419190385062056"><ele>302.5</ele><time>2026-04-11T07:46:59Z</time></trkpt><trkpt lat="43.43239095422049" lon="11.419101745685742"><ele>303.0</ele><time>2026-04-11T07:47:00Z</time></trkpt><trkpt lat="43.432336950177785" lon="11.419005938576783"><ele>303.5</ele><time>2026-04-11T07:47:01Z</time></trkpt><trkpt lat="43.43228848354219" lon="11.418928368785389"><ele>304.0</ele><time>2026-04-11T07:47:02Z</time></trkpt><trkpt lat="43.432236421417834" lon="11.41885683275001"><ele>303.16666666666663</ele><time>2026-04-11T07:47:03Z</time></trkpt><trkpt lat="43.43218086223176" lon="11.418789687367452"><ele>302.3333333333333</ele><time>2026-04-11T07:47:04Z</time></trkpt><trkpt lat="43.43212863100117" lon="11.41872021950199"><ele>301.5</ele><time>2026-04-11T07:47:05Z</time></trkpt><trkpt lat="43.43208179859965" lon="11.418638505093735"><ele>300.6666666666667</ele><time>2026-04-11T07:47:06Z</time></trkpt><trkpt lat="43.43202996983368" lon="11.418564219684379"><ele>299.83333333333337</ele><time>2026-04-11T07:47:07Z</time></trkpt><trkpt lat="43.43197692992649" lon="11.41848537663189"><ele>299.0</ele><time>2026-04-11T07:47:08Z</time></trkpt><trkpt lat="43.431921925637674" lon="11.418415442417851"><ele>299.0</ele><time>2026-04-11T07:47:09Z</time></trkpt><trkpt lat="43.43186846557664" lon="11.41833289547023"><ele>299.0</ele><time>2026-04-11T07:47:10Z</time></trkpt><trkpt lat="43.431812094658135" lon="11.418259310861536"><ele>299.0</ele><time>2026-04-11T07:47:11Z</time></trkpt><trkpt lat="43.431760038000874" lon="11.418181670125653"><ele>299.0</ele><time>2026-04-11T07:47:12Z</time></trkpt><trkpt lat="43.43170781706267" lon="11.418100421820656"><ele>299.0</ele><time>2026-04-11T07:47:13Z</time></trkpt><trkpt lat="43.43165629656069" lon="11.418028294961482"><ele>299.0</ele><time>2026-04-11T07:47:14Z</time></trkpt><trkpt lat="43.431605069177834" lon="11.417960545114118"><ele>299.33333333333337</ele><time>2026-04-11T07:47:15Z</time></trkpt><trkpt lat="43.431549821894066" lon="11.417895993606157"><ele>299.6666666666667</ele><time>2026-04-11T07:47:16Z</time></trkpt><trkpt lat="43.43149708165359" lon="11.417829398145491"><ele>300.0</ele><time>2026-04-11T07:47:17Z</time></trkpt><trkpt lat="43.431451775832926" lon="11.417760428721682"><ele>300.3333333333333</ele><time>2026-04-11T07:47:18Z</time></trkpt><trkpt lat="43.43137941955369" lon="11.417627811991125"><ele>300.66666666666663</ele><time>2026-04-11T07:47:20Z</time></trkpt><trkpt lat="43.431305816350495" lon="11.417517294107766"><ele>301.0</ele><time>2026-04-11T07:47:22Z</time></trkpt><trkpt lat="43.431194450903206" lon="11.417604443971523"><ele>301.0</ele><time>2026-04-11T07:47:23Z</time></trkpt><trkpt lat="43.43107879329582" lon="11.417664945501002"><ele>301.0</ele><time>2026-04-11T07:47:25Z</time></trkpt><trkpt lat="43.43102527577087" lon="11.417711068295612"><ele>301.0</ele><time>2026-04-11T07:47:26Z</time></trkpt><trkpt lat="43.43092827124138" lon="11.4178020678916"><ele>301.0</ele><time>2026-04-11T07:47:27.999Z</time></trkpt><trkpt lat="43.430864052198636" lon="11.417842964985354"><ele>301.0</ele><time>2026-04-11T07:47:28.999Z</time></trkpt><trkpt lat="43.43074698586222" lon="11.417919207269232"><ele>301.25</ele><time>2026-04-11T07:47:30.999Z</time></trkpt><trkpt lat="43.43063590500359" lon="11.417997846038658"><ele>301.5</ele><time>2026-04-11T07:47:32.999Z</time></trkpt><trkpt lat="43.43053560392318" lon="11.418061698521505"><ele>301.75</ele><time>2026-04-11T07:47:34.999Z</time></trkpt><trkpt lat="43.4304275583109" lon="11.418134700921568"><ele>302.0</ele><time>2026-04-11T07:47:36.999Z</time></trkpt><trkpt lat="43.43031467108633" lon="11.41819555438411"><ele>302.0</ele><time>2026-04-11T07:47:38.999Z</time></trkpt><trkpt lat="43.43021224848699" lon="11.418281413522292"><ele>302.0</ele><time>2026-04-11T07:47:40.999Z</time></trkpt><trkpt lat="43.430105321131045" lon="11.418356221953244"><ele>302.0</ele><time>2026-04-11T07:47:42.999Z</time></trkpt><trkpt lat="43.42999948427924" lon="11.418434008546852"><ele>302.0</ele><time>2026-04-11T07:47:44.999Z</time></trkpt><trkpt lat="43.429887074710344" lon="11.418509607274128"><ele>302.0</ele><time>2026-04-11T07:47:46.999Z</time></trkpt><trkpt lat="43.42978714560315" lon="11.418587064336279"><ele>302.0</ele><time>2026-04-11T07:47:48.999Z</time></trkpt><trkpt lat="43.42968210355843" lon="11.418671192965936"><ele>302.0</ele><time>2026-04-11T07:47:50.999Z</time></trkpt><trkpt lat="43.429581758985826" lon="11.418752043205135"><ele>302.0</ele><time>2026-04-11T07:47:52.999Z</time></trkpt><trkpt lat="43.42948234862866" lon="11.418811613521815"><ele>303.6</ele><time>2026-04-11T07:47:54.999Z</time></trkpt><trkpt lat="43.42939478636399" lon="11.418879078491758"><ele>305.2</ele><time>2026-04-11T07:47:56.999Z</time></trkpt><trkpt lat="43.42930461205008" lon="11.418923343715852"><ele>306.8</ele><time>2026-04-11T07:47:58.999Z</time></trkpt><trkpt lat="43.429239169279704" lon="11.418981663128802"><ele>308.4</ele><time>2026-04-11T07:48:00.999Z</time></trkpt><trkpt lat="43.42911322887851" lon="11.419033130233982"><ele>310.0</ele><time>2026-04-11T07:48:02.999Z</time></trkpt><trkpt lat="43.429032093067114" lon="11.419070590142836"><ele>310.0</ele><time>2026-04-11T07:48:04.999Z</time></trkpt><trkpt lat="43.42895328412869" lon="11.419089226142738"><ele>310.0</ele><time>2026-04-11T07:48:07Z</time></trkpt><trkpt lat="43.42886747621052" lon="11.419093022068441"><ele>310.0</ele><time>2026-04-11T07:48:09Z</time></trkpt><trkpt lat="43.428788451259855" lon="11.419119054123856"><ele>310.0</ele><time>2026-04-11T07:48:11Z</time></trkpt><trkpt lat="43.42870006131123" lon="11.419116378608397"><ele>310.0</ele><time>2026-04-11T07:48:13Z</time></trkpt><trkpt lat="43.42862040254084" lon="11.419135509512166"><ele>310.0</ele><time>2026-04-11T07:48:15Z</time></trkpt><trkpt lat="43.42854811122068" lon="11.419180006855212"><ele>310.16666666666663</ele><time>2026-04-11T07:48:17Z</time></trkpt><trkpt lat="43.428464231244455" lon="11.41919778866413"><ele>310.3333333333333</ele><time>2026-04-11T07:48:19Z</time></trkpt><trkpt lat="43.428395098515516" lon="11.419230468296803"><ele>310.5</ele><time>2026-04-11T07:48:21Z</time></trkpt><trkpt lat="43.42833296058749" lon="11.419285906011728"><ele>310.6666666666667</ele><time>2026-04-11T07:48:23Z</time></trkpt><trkpt lat="43.428260003735616" lon="11.419329106288494"><ele>310.83333333333337</ele><time>2026-04-11T07:48:25Z</time></trkpt><trkpt lat="43.42820053562802" lon="11.419381651858767"><ele>311.0</ele><time>2026-04-11T07:48:27Z</time></trkpt><trkpt lat="43.4281369581227" lon="11.419441939353769"><ele>311.0</ele><time>2026-04-11T07:48:29Z</time></trkpt><trkpt lat="43.428075486022166" lon="11.419502240399334"><ele>311.0</ele><time>2026-04-11T07:48:31Z</time></trkpt><trkpt lat="43.42801339198927" lon="11.41957640335512"><ele>311.0</ele><time>2026-04-11T07:48:33Z</time></trkpt><trkpt lat="43.42795717856148" lon="11.419650685335652"><ele>311.0</ele><time>2026-04-11T07:48:35Z</time></trkpt><trkpt lat="43.42791101755689" lon="11.419729516516226"><ele>311.0</ele><time>2026-04-11T07:48:37Z</time></trkpt><trkpt lat="43.42787572893391" lon="11.419807709853334"><ele>311.0</ele><time>2026-04-11T07:48:39Z</time></trkpt><trkpt lat="43.42781878378197" lon="11.419873830351994"><ele>311.0</ele><time>2026-04-11T07:48:41Z</time></trkpt><trkpt lat="43.4277873291604" lon="11.419951289001638"><ele>311.0</ele><time>2026-04-11T07:48:43Z</time></trkpt><trkpt lat="43.42773912611786" lon="11.420049769502679"><ele>311.0</ele><time>2026-04-11T07:48:45Z</time></trkpt><trkpt lat="43.42771823834172" lon="11.420138110181494"><ele>311.0</ele><time>2026-04-11T07:48:47Z</time></trkpt><trkpt lat="43.42771215583633" lon="11.420244262343262"><ele>311.0</ele><time>2026-04-11T07:48:49Z</time></trkpt><trkpt lat="43.42770542319149" lon="11.420351976613617"><ele>311.0</ele><time>2026-04-11T07:48:51Z</time></trkpt><trkpt lat="43.42772362219747" lon="11.420443320259523"><ele>311.0</ele><time>2026-04-11T07:48:53Z</time></trkpt><trkpt lat="43.42772724956875" lon="11.420548891743813"><ele>311.0</ele><time>2026-04-11T07:48:55Z</time></trkpt><trkpt lat="43.427759835004245" lon="11.42063888790632"><ele>311.0</ele><time>2026-04-11T07:48:57Z</time></trkpt><trkpt lat="43.4277725143803" lon="11.420746101118567"><ele>311.0</ele><time>2026-04-11T07:48:59Z</time></trkpt><trkpt lat="43.42779275611097" lon="11.420848779210475"><ele>311.0</ele><time>2026-04-11T07:49:01Z</time></trkpt><trkpt lat="43.42780457917109" lon="11.420976842875985"><ele>311.0</ele><time>2026-04-11T07:49:04Z</time></trkpt><trkpt lat="43.42780804031597" lon="11.421070797113936"><ele>311.0</ele><time>2026-04-11T07:49:06Z</time></trkpt><trkpt lat="43.42782425551837" lon="11.421176621916993"><ele>311.0</ele><time>2026-04-11T07:49:08Z</time></trkpt><trkpt lat="43.42781491573438" lon="11.421283223248185"><ele>311.0</ele><time>2026-04-11T07:49:10Z</time></trkpt><trkpt lat="43.427817439073024" lon="11.42137905895305"><ele>311.0</ele><time>2026-04-11T07:49:12Z</time></trkpt><trkpt lat="43.42780731331386" lon="11.421471658522899"><ele>311.0</ele><time>2026-04-11T07:49:14Z</time></trkpt><trkpt lat="43.427808579612595" lon="11.421568947124177"><ele>311.0</ele><time>2026-04-11T07:49:16Z</time></trkpt><trkpt lat="43.4277990644294" lon="11.421669827308914"><ele>311.0</ele><time>2026-04-11T07:49:18Z</time></trkpt><trkpt lat="43.427786435298934" lon="11.421765815579882"><ele>311.0</ele><time>2026-04-11T07:49:20Z</time></trkpt><trkpt lat="43.42777007941461" lon="11.421857301078605"><ele>310.83333333333337</ele><time>2026-04-11T07:49:22Z</time></trkpt><trkpt lat="43.427745433684386" lon="11.421962214572238"><ele>310.6666666666667</ele><time>2026-04-11T07:49:24Z</time></trkpt><trkpt lat="43.42772054133499" lon="11.422051261864885"><ele>310.5</ele><time>2026-04-11T07:49:26Z</time></trkpt><trkpt lat="43.42769112761345" lon="11.422153541577439"><ele>310.3333333333333</ele><time>2026-04-11T07:49:28Z</time></trkpt><trkpt lat="43.4276449931352" lon="11.42225153670933"><ele>310.16666666666663</ele><time>2026-04-11T07:49:29.999Z</time></trkpt><trkpt lat="43.42761654386819" lon="11.422349275701798"><ele>310.0</ele><time>2026-04-11T07:49:31.999Z</time></trkpt><trkpt lat="43.427584606409695" lon="11.422442880351415"><ele>310.57142857142856</ele><time>2026-04-11T07:49:33.999Z</time></trkpt><trkpt lat="43.427543378554915" lon="11.422514212331837"><ele>311.1428571428571</ele><time>2026-04-11T07:49:35.999Z</time></trkpt><trkpt lat="43.427484012080605" lon="11.4225834092161"><ele>311.71428571428567</ele><time>2026-04-11T07:49:37.999Z</time></trkpt><trkpt lat="43.42742606015347" lon="11.422631030294125"><ele>312.2857142857143</ele><time>2026-04-11T07:49:39.999Z</time></trkpt><trkpt lat="43.427359112585414" lon="11.422670315382128"><ele>312.85714285714283</ele><time>2026-04-11T07:49:41.999Z</time></trkpt><trkpt lat="43.42729237711068" lon="11.422685206258937"><ele>313.4285714285714</ele><time>2026-04-11T07:49:43.999Z</time></trkpt><trkpt lat="43.42722177586165" lon="11.422684052855885"><ele>314.0</ele><time>2026-04-11T07:49:45.999Z</time></trkpt><trkpt lat="43.427131983620534" lon="11.422713273301177"><ele>314.0</ele><time>2026-04-11T07:49:48.999Z</time></trkpt><trkpt lat="43.4270510092421" lon="11.422732244334565"><ele>314.0</ele><time>2026-04-11T07:49:50.999Z</time></trkpt><trkpt lat="43.426981295514246" lon="11.422755999756212"><ele>314.0</ele><time>2026-04-11T07:49:52.999Z</time></trkpt><trkpt lat="43.4268862735337" lon="11.422774680262028"><ele>314.0</ele><time>2026-04-11T07:49:55.999Z</time></trkpt><trkpt lat="43.426816489719954" lon="11.422774646868401"><ele>314.0</ele><time>2026-04-11T07:49:57.999Z</time></trkpt><trkpt lat="43.426739102190595" lon="11.42278198140285"><ele>314.0</ele><time>2026-04-11T07:50:00.999Z</time></trkpt><trkpt lat="43.426652600858766" lon="11.422794292362207"><ele>314.0</ele><time>2026-04-11T07:50:02.999Z</time></trkpt><trkpt lat="43.426560814739524" lon="11.422817752759418"><ele>314.0</ele><time>2026-04-11T07:50:05.999Z</time></trkpt><trkpt lat="43.42648797429232" lon="11.422840965431334"><ele>314.0</ele><time>2026-04-11T07:50:07.999Z</time></trkpt><trkpt lat="43.42639241951014" lon="11.422870412641451"><ele>314.0</ele><time>2026-04-11T07:50:10.999Z</time></trkpt><trkpt lat="43.426327434311894" lon="11.422906019462223"><ele>314.0</ele><time>2026-04-11T07:50:13Z</time></trkpt><trkpt lat="43.42626902825835" lon="11.422950482612281"><ele>314.0</ele><time>2026-04-11T07:50:15Z</time></trkpt><trkpt lat="43.42620610352823" lon="11.422983576861773"><ele>314.1666666666667</ele><time>2026-04-11T07:50:17Z</time></trkpt><trkpt lat="43.426157943268606" lon="11.42305241230518"><ele>314.33333333333337</ele><time>2026-04-11T07:50:19Z</time></trkpt><trkpt lat="43.42612204918697" lon="11.423143965528064"><ele>314.5</ele><time>2026-04-11T07:50:21Z</time></trkpt><trkpt lat="43.4261109523293" lon="11.423246696538625"><ele>314.6666666666667</ele><time>2026-04-11T07:50:23Z</time></trkpt><trkpt lat="43.42610958665978" lon="11.423349642736165"><ele>314.8333333333333</ele><time>2026-04-11T07:50:25Z</time></trkpt><trkpt lat="43.4261326733276" lon="11.423457055857655"><ele>315.0</ele><time>2026-04-11T07:50:27Z</time></trkpt><trkpt lat="43.4261621032038" lon="11.423559138180035"><ele>315.0</ele><time>2026-04-11T07:50:29Z</time></trkpt><trkpt lat="43.42619315492488" lon="11.423665825769962"><ele>315.0</ele><time>2026-04-11T07:50:31Z</time></trkpt><trkpt lat="43.42622163302883" lon="11.423777071466693"><ele>315.0</ele><time>2026-04-11T07:50:33Z</time></trkpt><trkpt lat="43.426254037636895" lon="11.423885991846797"><ele>315.0</ele><time>2026-04-11T07:50:35Z</time></trkpt><trkpt lat="43.426285277541716" lon="11.424001010869457"><ele>315.0</ele><time>2026-04-11T07:50:37Z</time></trkpt><trkpt lat="43.42630860519965" lon="11.424111861099714"><ele>315.0</ele><time>2026-04-11T07:50:39Z</time></trkpt><trkpt lat="43.42632972331599" lon="11.42422758891645"><ele>317.8</ele><time>2026-04-11T07:50:41Z</time></trkpt><trkpt lat="43.4263599945584" lon="11.424346030343152"><ele>320.6</ele><time>2026-04-11T07:50:43Z</time></trkpt><trkpt lat="43.42638727195007" lon="11.424465762886902"><ele>323.4</ele><time>2026-04-11T07:50:45Z</time></trkpt><trkpt lat="43.42640665892298" lon="11.424581892273695"><ele>326.2</ele><time>2026-04-11T07:50:47Z</time></trkpt><trkpt lat="43.42643000677729" lon="11.424710254632423"><ele>329.0</ele><time>2026-04-11T07:50:49Z</time></trkpt><trkpt lat="43.42645198527697" lon="11.424830921496653"><ele>329.0</ele><time>2026-04-11T07:50:51Z</time></trkpt><trkpt lat="43.42647762768625" lon="11.424950090832008"><ele>329.0</ele><time>2026-04-11T07:50:53Z</time></trkpt><trkpt lat="43.42650463365882" lon="11.425064315216064"><ele>329.0</ele><time>2026-04-11T07:50:55Z</time></trkpt><trkpt lat="43.426524976014456" lon="11.42518713811431"><ele>329.0</ele><time>2026-04-11T07:50:57Z</time></trkpt><trkpt lat="43.42654659965098" lon="11.425306977876245"><ele>329.0</ele><time>2026-04-11T07:50:59Z</time></trkpt><trkpt lat="43.42655853284346" lon="11.425425029564986"><ele>329.0</ele><time>2026-04-11T07:51:01Z</time></trkpt><trkpt lat="43.42655620877952" lon="11.425546645003191"><ele>329.1666666666667</ele><time>2026-04-11T07:51:03Z</time></trkpt><trkpt lat="43.42655514775793" lon="11.425666831258546"><ele>329.33333333333337</ele><time>2026-04-11T07:51:05Z</time></trkpt><trkpt lat="43.42654049880547" lon="11.42578640636305"><ele>329.5</ele><time>2026-04-11T07:51:07Z</time></trkpt><trkpt lat="43.42652944612747" lon="11.425902877409218"><ele>329.6666666666667</ele><time>2026-04-11T07:51:09Z</time></trkpt><trkpt lat="43.426513223090915" lon="11.426023263529874"><ele>329.8333333333333</ele><time>2026-04-11T07:51:11Z</time></trkpt><trkpt lat="43.42649245439942" lon="11.426147390381102"><ele>330.0</ele><time>2026-04-11T07:51:13Z</time></trkpt><trkpt lat="43.426470365916465" lon="11.426273335144737"><ele>330.1666666666667</ele><time>2026-04-11T07:51:15Z</time></trkpt><trkpt lat="43.42644995833809" lon="11.42640446653589"><ele>330.3333333333333</ele><time>2026-04-11T07:51:17Z</time></trkpt><trkpt lat="43.42642956080103" lon="11.426514214468549"><ele>330.5</ele><time>2026-04-11T07:51:19Z</time></trkpt><trkpt lat="43.42639774435594" lon="11.426620855258637"><ele>330.66666666666663</ele><time>2026-04-11T07:51:21Z</time></trkpt><trkpt lat="43.42637196527288" lon="11.426728297205441"><ele>330.8333333333333</ele><time>2026-04-11T07:51:23Z</time></trkpt><trkpt lat="43.42633079453169" lon="11.426828190447505"><ele>331.0</ele><time>2026-04-11T07:51:25Z</time></trkpt><trkpt lat="43.426289605390735" lon="11.426928101964094"><ele>331.0</ele><time>2026-04-11T07:51:27Z</time></trkpt><trkpt lat="43.42624112491979" lon="11.427020544844844"><ele>331.0</ele><time>2026-04-11T07:51:29Z</time></trkpt><trkpt lat="43.42618202409958" lon="11.427103700146695"><ele>331.0</ele><time>2026-04-11T07:51:31Z</time></trkpt><trkpt lat="43.426122652633175" lon="11.427180922671397"><ele>331.0</ele><time>2026-04-11T07:51:33Z</time></trkpt><trkpt lat="43.426062457589914" lon="11.427255612762357"><ele>331.0</ele><time>2026-04-11T07:51:35Z</time></trkpt><trkpt lat="43.426000989849456" lon="11.427324055667997"><ele>331.0</ele><time>2026-04-11T07:51:36.999Z</time></trkpt><trkpt lat="43.42594979927021" lon="11.427405183108661"><ele>330.5</ele><time>2026-04-11T07:51:38.999Z</time></trkpt><trkpt lat="43.42591443207351" lon="11.427505710282853"><ele>330.0</ele><time>2026-04-11T07:51:40.999Z</time></trkpt><trkpt lat="43.42589783283979" lon="11.427615016739644"><ele>329.5</ele><time>2026-04-11T07:51:42.999Z</time></trkpt><trkpt lat="43.42589092145997" lon="11.427733503686655"><ele>329.0</ele><time>2026-04-11T07:51:44.999Z</time></trkpt><trkpt lat="43.42589348725608" lon="11.427853603013865"><ele>328.5</ele><time>2026-04-11T07:51:46.999Z</time></trkpt><trkpt lat="43.42589461703116" lon="11.42797431885701"><ele>328.0</ele><time>2026-04-11T07:51:48.999Z</time></trkpt><trkpt lat="43.42589409356352" lon="11.428100641339743"><ele>328.0</ele><time>2026-04-11T07:51:50.999Z</time></trkpt><trkpt lat="43.42589802029296" lon="11.4282252674056"><ele>328.0</ele><time>2026-04-11T07:51:52.999Z</time></trkpt><trkpt lat="43.42589806336141" lon="11.428347990236809"><ele>328.0</ele><time>2026-04-11T07:51:54.999Z</time></trkpt><trkpt lat="43.42589895049077" lon="11.428471072440296"><ele>328.0</ele><time>2026-04-11T07:51:56.999Z</time></trkpt><trkpt lat="43.42589938068811" lon="11.428594136254874"><ele>328.0</ele><time>2026-04-11T07:51:58.999Z</time></trkpt><trkpt lat="43.425904452257015" lon="11.42871139492884"><ele>328.0</ele><time>2026-04-11T07:52:00.999Z</time></trkpt><trkpt lat="43.42589610211396" lon="11.428825771974244"><ele>328.66666666666663</ele><time>2026-04-11T07:52:02.999Z</time></trkpt><trkpt lat="43.42590235013267" lon="11.428949525620167"><ele>329.3333333333333</ele><time>2026-04-11T07:52:04.999Z</time></trkpt><trkpt lat="43.42590488871868" lon="11.429070036710899"><ele>330.0</ele><time>2026-04-11T07:52:06.999Z</time></trkpt><trkpt lat="43.42590129109943" lon="11.42918502202492"><ele>330.6666666666667</ele><time>2026-04-11T07:52:08.999Z</time></trkpt><trkpt lat="43.42590336263616" lon="11.429293014245598"><ele>331.33333333333337</ele><time>2026-04-11T07:52:10.999Z</time></trkpt><trkpt lat="43.425907920942095" lon="11.429399398055661"><ele>332.0</ele><time>2026-04-11T07:52:12.999Z</time></trkpt><trkpt lat="43.42590119353729" lon="11.429506694784072"><ele>332.0</ele><time>2026-04-11T07:52:14.999Z</time></trkpt><trkpt lat="43.42589339219392" lon="11.42962140197512"><ele>332.0</ele><time>2026-04-11T07:52:16.999Z</time></trkpt><trkpt lat="43.425906388341005" lon="11.429737155971592"><ele>332.0</ele><time>2026-04-11T07:52:19Z</time></trkpt><trkpt lat="43.42590447934228" lon="11.429851291627836"><ele>332.0</ele><time>2026-04-11T07:52:21Z</time></trkpt><trkpt lat="43.425904963805415" lon="11.429960984441712"><ele>332.0</ele><time>2026-04-11T07:52:23Z</time></trkpt><trkpt lat="43.42591665378944" lon="11.430075293876925"><ele>332.0</ele><time>2026-04-11T07:52:25Z</time></trkpt><trkpt lat="43.425913899338596" lon="11.430195308897872"><ele>332.0</ele><time>2026-04-11T07:52:27Z</time></trkpt><trkpt lat="43.42590179162791" lon="11.430309510933858"><ele>332.0</ele><time>2026-04-11T07:52:29Z</time></trkpt><trkpt lat="43.42588316341804" lon="11.430420580064089"><ele>332.0</ele><time>2026-04-11T07:52:31Z</time></trkpt><trkpt lat="43.425868104080784" lon="11.430528181016047"><ele>332.0</ele><time>2026-04-11T07:52:33Z</time></trkpt><trkpt lat="43.42584218763343" lon="11.430633239763566"><ele>332.0</ele><time>2026-04-11T07:52:35Z</time></trkpt><trkpt lat="43.42580221853845" lon="11.43073964568669"><ele>332.0</ele><time>2026-04-11T07:52:37Z</time></trkpt><trkpt lat="43.425753313588075" lon="11.430841427359642"><ele>332.33333333333337</ele><time>2026-04-11T07:52:39Z</time></trkpt><trkpt lat="43.42571177919442" lon="11.430946279373252"><ele>332.6666666666667</ele><time>2026-04-11T07:52:41Z</time></trkpt><trkpt lat="43.42567392854577" lon="11.431057380603203"><ele>333.0</ele><time>2026-04-11T07:52:43Z</time></trkpt><trkpt lat="43.425633846558014" lon="11.43116989632981"><ele>333.3333333333333</ele><time>2026-04-11T07:52:45Z</time></trkpt><trkpt lat="43.42559234328651" lon="11.431280352199401"><ele>333.66666666666663</ele><time>2026-04-11T07:52:47Z</time></trkpt><trkpt lat="43.425551491149555" lon="11.431391930450648"><ele>334.0</ele><time>2026-04-11T07:52:49Z</time></trkpt><trkpt lat="43.42550780993036" lon="11.431505292891215"><ele>335.0</ele><time>2026-04-11T07:52:51Z</time></trkpt><trkpt lat="43.42546690628996" lon="11.431618030406048"><ele>336.0</ele><time>2026-04-11T07:52:53Z</time></trkpt><trkpt lat="43.42543226141657" lon="11.431733504358505"><ele>337.0</ele><time>2026-04-11T07:52:55Z</time></trkpt><trkpt lat="43.425394500118244" lon="11.431844147714603"><ele>338.0</ele><time>2026-04-11T07:52:57Z</time></trkpt><trkpt lat="43.42535285751998" lon="11.431952942628255"><ele>339.0</ele><time>2026-04-11T07:52:59Z</time></trkpt><trkpt lat="43.42531678439188" lon="11.432054072311233"><ele>340.0</ele><time>2026-04-11T07:53:01Z</time></trkpt><trkpt lat="43.425262761110716" lon="11.432160588928902"><ele>340.0</ele><time>2026-04-11T07:53:03Z</time></trkpt><trkpt lat="43.42517564866896" lon="11.432195046351588"><ele>340.0</ele><time>2026-04-11T07:53:05Z</time></trkpt><trkpt lat="43.42508697989447" lon="11.432218356275433"><ele>340.0</ele><time>2026-04-11T07:53:07Z</time></trkpt><trkpt lat="43.425001131506086" lon="11.432270418462528"><ele>340.0</ele><time>2026-04-11T07:53:09Z</time></trkpt><trkpt lat="43.42495014406206" lon="11.432351503764636"><ele>340.0</ele><time>2026-04-11T07:53:11Z</time></trkpt><trkpt lat="43.424916257083375" lon="11.432450356227259"><ele>340.0</ele><time>2026-04-11T07:53:13Z</time></trkpt><trkpt lat="43.424882016486876" lon="11.432545488441686"><ele>340.0</ele><time>2026-04-11T07:53:15Z</time></trkpt><trkpt lat="43.42484380870285" lon="11.432635797956033"><ele>340.0</ele><time>2026-04-11T07:53:17Z</time></trkpt><trkpt lat="43.424801695073015" lon="11.432701125103694"><ele>340.0</ele><time>2026-04-11T07:53:19Z</time></trkpt><trkpt lat="43.42475354094141" lon="11.432814249169569"><ele>340.0</ele><time>2026-04-11T07:53:22Z</time></trkpt><trkpt lat="43.42473890388309" lon="11.432904942006434"><ele>340.0</ele><time>2026-04-11T07:53:24Z</time></trkpt><trkpt lat="43.4247026006011" lon="11.432989087139774"><ele>340.0</ele><time>2026-04-11T07:53:27Z</time></trkpt><trkpt lat="43.424671066263194" lon="11.433075649014707"><ele>340.0</ele><time>2026-04-11T07:53:30Z</time></trkpt><trkpt lat="43.42462920330594" lon="11.433169370456243"><ele>344.0</ele><time>2026-04-11T07:53:33Z</time></trkpt><trkpt lat="43.42459041869268" lon="11.433276268773193"><ele>348.0</ele><time>2026-04-11T07:53:36Z</time></trkpt><trkpt lat="43.42456293423226" lon="11.433357960038592"><ele>352.0</ele><time>2026-04-11T07:53:38Z</time></trkpt><trkpt lat="43.424531489845926" lon="11.433464873434858"><ele>356.0</ele><time>2026-04-11T07:53:41Z</time></trkpt><trkpt lat="43.4245103851111" lon="11.433556321305801"><ele>360.0</ele><time>2026-04-11T07:53:43Z</time></trkpt><trkpt lat="43.424483972875414" lon="11.43363532966518"><ele>364.0</ele><time>2026-04-11T07:53:45Z</time></trkpt><trkpt lat="43.42445175651013" lon="11.433749185330468"><ele>361.8333333333333</ele><time>2026-04-11T07:53:48Z</time></trkpt><trkpt lat="43.424416808257995" lon="11.433859274005076"><ele>359.66666666666663</ele><time>2026-04-11T07:53:51Z</time></trkpt><trkpt lat="43.424388260735235" lon="11.433975232982627"><ele>357.5</ele><time>2026-04-11T07:53:53.999Z</time></trkpt><trkpt lat="43.42437570692488" lon="11.434089190703276"><ele>355.3333333333333</ele><time>2026-04-11T07:53:56.999Z</time></trkpt><trkpt lat="43.424359497614304" lon="11.43421188074754"><ele>353.1666666666667</ele><time>2026-04-11T07:53:59.999Z</time></trkpt><trkpt lat="43.42435306589625" lon="11.434330824629583"><ele>351.0</ele><time>2026-04-11T07:54:02.999Z</time></trkpt><trkpt lat="43.42434169384403" lon="11.434442118338055"><ele>351.0</ele><time>2026-04-11T07:54:05.999Z</time></trkpt><trkpt lat="43.42434503282997" lon="11.434563803707345"><ele>351.0</ele><time>2026-04-11T07:54:08.999Z</time></trkpt><trkpt lat="43.42436889627271" lon="11.434686381490037"><ele>351.0</ele><time>2026-04-11T07:54:11.999Z</time></trkpt><trkpt lat="43.424393021920636" lon="11.43476661148078"><ele>351.0</ele><time>2026-04-11T07:54:13.999Z</time></trkpt><trkpt lat="43.42443115078445" lon="11.434849964882774"><ele>351.0</ele><time>2026-04-11T07:54:15.999Z</time></trkpt><trkpt lat="43.42448391827449" lon="11.434921132997054"><ele>351.0</ele><time>2026-04-11T07:54:17.999Z</time></trkpt><trkpt lat="43.42453553961277" lon="11.434992170781191"><ele>350.6666666666667</ele><time>2026-04-11T07:54:19.999Z</time></trkpt><trkpt lat="43.42459749213844" lon="11.435048243415538"><ele>350.3333333333333</ele><time>2026-04-11T07:54:21.999Z</time></trkpt><trkpt lat="43.424673499171334" lon="11.435106230516489"><ele>350.0</ele><time>2026-04-11T07:54:24Z</time></trkpt><trkpt lat="43.424741530033636" lon="11.435151502187397"><ele>349.66666666666663</ele><time>2026-04-11T07:54:26Z</time></trkpt><trkpt lat="43.42482466523063" lon="11.435180017742878"><ele>349.3333333333333</ele><time>2026-04-11T07:54:29Z</time></trkpt><trkpt lat="43.42488437752795" lon="11.435237980063322"><ele>349.0</ele><time>2026-04-11T07:54:31Z</time></trkpt><trkpt lat="43.42494522512821" lon="11.43528057970671"><ele>349.5</ele><time>2026-04-11T07:54:33Z</time></trkpt><trkpt lat="43.42502509532464" lon="11.435332249734216"><ele>350.0</ele><time>2026-04-11T07:54:36Z</time></trkpt><trkpt lat="43.42509051494315" lon="11.43536702565233"><ele>350.5</ele><time>2026-04-11T07:54:38Z</time></trkpt><trkpt lat="43.42514650416706" lon="11.435418031386986"><ele>351.0</ele><time>2026-04-11T07:54:40Z</time></trkpt><trkpt lat="43.425229181506445" lon="11.43549197680841"><ele>351.5</ele><time>2026-04-11T07:54:43Z</time></trkpt><trkpt lat="43.42528131282067" lon="11.435545470345513"><ele>352.0</ele><time>2026-04-11T07:54:45Z</time></trkpt><trkpt lat="43.425330993378914" lon="11.435650303742216"><ele>352.0</ele><time>2026-04-11T07:54:48Z</time></trkpt><trkpt lat="43.42535143507723" lon="11.435742504901695"><ele>352.0</ele><time>2026-04-11T07:54:50Z</time></trkpt><trkpt lat="43.4253408869127" lon="11.435859931242721"><ele>352.0</ele><time>2026-04-11T07:54:53Z</time></trkpt><trkpt lat="43.4252945506582" lon="11.435927289090895"><ele>352.0</ele><time>2026-04-11T07:54:55Z</time></trkpt><trkpt lat="43.42522502850447" lon="11.436006340654684"><ele>352.0</ele><time>2026-04-11T07:54:58Z</time></trkpt><trkpt lat="43.42515031825201" lon="11.436086201735732"><ele>352.0</ele><time>2026-04-11T07:55:01Z</time></trkpt><trkpt lat="43.425093877476414" lon="11.43618674267515"><ele>352.0</ele><time>2026-04-11T07:55:04Z</time></trkpt><trkpt lat="43.425040266355744" lon="11.436291608463874"><ele>352.0</ele><time>2026-04-11T07:55:07Z</time></trkpt><trkpt lat="43.424997835840045" lon="11.4363869652353"><ele>352.0</ele><time>2026-04-11T07:55:10Z</time></trkpt><trkpt lat="43.42496957247518" lon="11.436528723091614"><ele>352.0</ele><time>2026-04-11T07:55:13Z</time></trkpt><trkpt lat="43.42494529217092" lon="11.436639891577194"><ele>352.0</ele><time>2026-04-11T07:55:16Z</time></trkpt><trkpt lat="43.42493587178504" lon="11.436765524945283"><ele>352.5</ele><time>2026-04-11T07:55:19Z</time></trkpt><trkpt lat="43.42492109726176" lon="11.436886351105748"><ele>353.0</ele><time>2026-04-11T07:55:22Z</time></trkpt><trkpt lat="43.424914359844344" lon="11.436973930566307"><ele>353.5</ele><time>2026-04-11T07:55:24Z</time></trkpt><trkpt lat="43.42491707303869" lon="11.437099486386376"><ele>354.0</ele><time>2026-04-11T07:55:27Z</time></trkpt><trkpt lat="43.42490722850591" lon="11.43722582560973"><ele>354.5</ele><time>2026-04-11T07:55:30Z</time></trkpt><trkpt lat="43.424907423509445" lon="11.437346672469468"><ele>355.0</ele><time>2026-04-11T07:55:33Z</time></trkpt><trkpt lat="43.42491562419843" lon="11.437433155908428"><ele>355.0</ele><time>2026-04-11T07:55:35Z</time></trkpt><trkpt lat="43.424930142515066" lon="11.437544511421686"><ele>355.0</ele><time>2026-04-11T07:55:38Z</time></trkpt><trkpt lat="43.424941042666454" lon="11.437663291480183"><ele>355.0</ele><time>2026-04-11T07:55:41Z</time></trkpt><trkpt lat="43.42495297439998" lon="11.437749194777723"><ele>355.0</ele><time>2026-04-11T07:55:43Z</time></trkpt><trkpt lat="43.42497228595816" lon="11.437834803407855"><ele>355.0</ele><time>2026-04-11T07:55:45Z</time></trkpt><trkpt lat="43.4250056533141" lon="11.437961014503426"><ele>355.0</ele><time>2026-04-11T07:55:48Z</time></trkpt><trkpt lat="43.425017296787054" lon="11.438065368403349"><ele>356.0</ele><time>2026-04-11T07:55:51Z</time></trkpt><trkpt lat="43.42505378719367" lon="11.438172463608588"><ele>357.0</ele><time>2026-04-11T07:55:54Z</time></trkpt><trkpt lat="43.42507253355975" lon="11.438255922813708"><ele>358.0</ele><time>2026-04-11T07:55:55.999Z</time></trkpt><trkpt lat="43.42509947272615" lon="11.43837453658197"><ele>359.0</ele><time>2026-04-11T07:55:58.999Z</time></trkpt><trkpt lat="43.425128157964586" lon="11.438496128606547"><ele>360.0</ele><time>2026-04-11T07:56:01.999Z</time></trkpt><trkpt lat="43.42515627495201" lon="11.438576563494987"><ele>361.0</ele><time>2026-04-11T07:56:03.999Z</time></trkpt><trkpt lat="43.42518138878363" lon="11.438700202637005"><ele>362.16666666666663</ele><time>2026-04-11T07:56:06.999Z</time></trkpt><trkpt lat="43.42522075443442" lon="11.438810189648382"><ele>363.3333333333333</ele><time>2026-04-11T07:56:09.999Z</time></trkpt><trkpt lat="43.425247609092565" lon="11.438933966129277"><ele>364.5</ele><time>2026-04-11T07:56:12.999Z</time></trkpt><trkpt lat="43.42526147751304" lon="11.439056217714365"><ele>365.6666666666667</ele><time>2026-04-11T07:56:15.999Z</time></trkpt><trkpt lat="43.425286420326074" lon="11.439142104765741"><ele>366.83333333333337</ele><time>2026-04-11T07:56:17.999Z</time></trkpt><trkpt lat="43.425321147392985" lon="11.439216988618101"><ele>368.0</ele><time>2026-04-11T07:56:19.999Z</time></trkpt><trkpt lat="43.42538610208127" lon="11.439297234362172"><ele>368.0</ele><time>2026-04-11T07:56:22.999Z</time></trkpt><trkpt lat="43.425450657718116" lon="11.439336018749266"><ele>368.0</ele><time>2026-04-11T07:56:24.999Z</time></trkpt><trkpt lat="43.42565275445387" lon="11.439336589991624"><ele>368.0</ele><time>2026-04-11T07:56:31Z</time></trkpt><trkpt lat="43.42574129453232" lon="11.439330267461962"><ele>368.0</ele><time>2026-04-11T07:56:34Z</time></trkpt><trkpt lat="43.42583364862459" lon="11.439326892922132"><ele>366.83333333333337</ele><time>2026-04-11T07:56:37Z</time></trkpt><trkpt lat="43.425899023358575" lon="11.439357156919371"><ele>365.6666666666667</ele><time>2026-04-11T07:56:39Z</time></trkpt><trkpt lat="43.42595370717032" lon="11.439414119619054"><ele>364.5</ele><time>2026-04-11T07:56:41Z</time></trkpt><trkpt lat="43.42601751497061" lon="11.439505415312185"><ele>363.3333333333333</ele><time>2026-04-11T07:56:44Z</time></trkpt><trkpt lat="43.4260595055407" lon="11.439618113818005"><ele>362.16666666666663</ele><time>2026-04-11T07:56:47Z</time></trkpt><trkpt lat="43.426083491968434" lon="11.439744706379898"><ele>361.0</ele><time>2026-04-11T07:56:50Z</time></trkpt><trkpt lat="43.426097806208574" lon="11.439840460886588"><ele>361.0</ele><time>2026-04-11T07:56:53Z</time></trkpt><trkpt lat="43.42609572607253" lon="11.439961138201323"><ele>361.0</ele><time>2026-04-11T07:56:56Z</time></trkpt><trkpt lat="43.42611421762576" lon="11.440071778931342"><ele>361.0</ele><time>2026-04-11T07:56:59Z</time></trkpt><trkpt lat="43.42611223750889" lon="11.440186336826185"><ele>361.0</ele><time>2026-04-11T07:57:02Z</time></trkpt><trkpt lat="43.426111723324766" lon="11.44027331839786"><ele>361.0</ele><time>2026-04-11T07:57:04Z</time></trkpt><trkpt lat="43.426115538632885" lon="11.44036878551487"><ele>361.0</ele><time>2026-04-11T07:57:06Z</time></trkpt><trkpt lat="43.42612654302654" lon="11.44049534457198"><ele>361.7142857142857</ele><time>2026-04-11T07:57:09Z</time></trkpt><trkpt lat="43.426126129836796" lon="11.440587800720623"><ele>362.4285714285714</ele><time>2026-04-11T07:57:11Z</time></trkpt><trkpt lat="43.42614505349491" lon="11.440681734654722"><ele>363.1428571428571</ele><time>2026-04-11T07:57:13Z</time></trkpt><trkpt lat="43.42613306014843" lon="11.440769276404726"><ele>363.8571428571429</ele><time>2026-04-11T07:57:15Z</time></trkpt><trkpt lat="43.426131045355454" lon="11.440866081879518"><ele>364.57142857142856</ele><time>2026-04-11T07:57:17Z</time></trkpt><trkpt lat="43.426137951451665" lon="11.44100174011435"><ele>365.2857142857143</ele><time>2026-04-11T07:57:20Z</time></trkpt><trkpt lat="43.426148627063796" lon="11.441098954011142"><ele>366.0</ele><time>2026-04-11T07:57:22Z</time></trkpt><trkpt lat="43.42614136053795" lon="11.441192394843194"><ele>366.0</ele><time>2026-04-11T07:57:24Z</time></trkpt><trkpt lat="43.42612408141308" lon="11.441298239422402"><ele>366.0</ele><time>2026-04-11T07:57:26Z</time></trkpt><trkpt lat="43.42609385636471" lon="11.441405394608182"><ele>366.0</ele><time>2026-04-11T07:57:28Z</time></trkpt><trkpt lat="43.426020593734066" lon="11.441470981198348"><ele>366.0</ele><time>2026-04-11T07:57:30Z</time></trkpt><trkpt lat="43.42594062610954" lon="11.441520681852872"><ele>366.0</ele><time>2026-04-11T07:57:32Z</time></trkpt><trkpt lat="43.42585355831815" lon="11.441565198921687"><ele>366.0</ele><time>2026-04-11T07:57:34Z</time></trkpt><trkpt lat="43.425758843864955" lon="11.44159535684886"><ele>365.6</ele><time>2026-04-11T07:57:36Z</time></trkpt><trkpt lat="43.42566412193553" lon="11.441643607182321"><ele>365.20000000000005</ele><time>2026-04-11T07:57:38Z</time></trkpt><trkpt lat="43.42556910149667" lon="11.44168525938067"><ele>364.79999999999995</ele><time>2026-04-11T07:57:40Z</time></trkpt><trkpt lat="43.425477637943295" lon="11.44173571640745"><ele>364.4</ele><time>2026-04-11T07:57:42Z</time></trkpt><trkpt lat="43.42538777777944" lon="11.441789846457995"><ele>364.0</ele><time>2026-04-11T07:57:44Z</time></trkpt><trkpt lat="43.42530348233366" lon="11.441855117676033"><ele>365.0</ele><time>2026-04-11T07:57:46Z</time></trkpt><trkpt lat="43.42521992828737" lon="11.44192114878494"><ele>366.0</ele><time>2026-04-11T07:57:48Z</time></trkpt><trkpt lat="43.42514851895691" lon="11.44200875999058"><ele>367.0</ele><time>2026-04-11T07:57:50Z</time></trkpt><trkpt lat="43.42509514467073" lon="11.442112800380908"><ele>368.0</ele><time>2026-04-11T07:57:52Z</time></trkpt><trkpt lat="43.42505247508973" lon="11.442224531057908"><ele>369.0</ele><time>2026-04-11T07:57:54Z</time></trkpt><trkpt lat="43.42502325107114" lon="11.44233858870609"><ele>369.0</ele><time>2026-04-11T07:57:56Z</time></trkpt><trkpt lat="43.42498147590844" lon="11.442438638032579"><ele>369.0</ele><time>2026-04-11T07:57:57.999Z</time></trkpt><trkpt lat="43.42494343402706" lon="11.442534576626445"><ele>369.0</ele><time>2026-04-11T07:57:59.999Z</time></trkpt><trkpt lat="43.4249162052009" lon="11.442639911443816"><ele>369.0</ele><time>2026-04-11T07:58:01.999Z</time></trkpt><trkpt lat="43.42489532937854" lon="11.442737994542492"><ele>369.0</ele><time>2026-04-11T07:58:03.999Z</time></trkpt><trkpt lat="43.42487486543686" lon="11.442831324737895"><ele>369.0</ele><time>2026-04-11T07:58:05.999Z</time></trkpt><trkpt lat="43.42485491321523" lon="11.44293410351637"><ele>368.85714285714283</ele><time>2026-04-11T07:58:07.999Z</time></trkpt><trkpt lat="43.42485050762978" lon="11.443035045754398"><ele>368.71428571428567</ele><time>2026-04-11T07:58:09.999Z</time></trkpt><trkpt lat="43.42484769321013" lon="11.44313402363076"><ele>368.57142857142856</ele><time>2026-04-11T07:58:11.999Z</time></trkpt><trkpt lat="43.42484698808699" lon="11.44323443252604"><ele>368.42857142857144</ele><time>2026-04-11T07:58:13.999Z</time></trkpt><trkpt lat="43.42484245018577" lon="11.443332263157497"><ele>368.2857142857143</ele><time>2026-04-11T07:58:15.999Z</time></trkpt><trkpt lat="43.42483162815193" lon="11.443432154599893"><ele>368.14285714285717</ele><time>2026-04-11T07:58:17.999Z</time></trkpt><trkpt lat="43.424818808705375" lon="11.443529296032363"><ele>368.0</ele><time>2026-04-11T07:58:19.999Z</time></trkpt><trkpt lat="43.42482185955995" lon="11.443668011310248"><ele>368.0</ele><time>2026-04-11T07:58:22.999Z</time></trkpt><trkpt lat="43.424792817492026" lon="11.443752396724548"><ele>368.0</ele><time>2026-04-11T07:58:24.999Z</time></trkpt><trkpt lat="43.42476354130287" lon="11.443837428217428"><ele>368.0</ele><time>2026-04-11T07:58:26.999Z</time></trkpt><trkpt lat="43.42473110356345" lon="11.44392012219755"><ele>368.0</ele><time>2026-04-11T07:58:28.999Z</time></trkpt><trkpt lat="43.42467657329257" lon="11.444012973981334"><ele>368.0</ele><time>2026-04-11T07:58:31.999Z</time></trkpt><trkpt lat="43.424614024374314" lon="11.444084529615205"><ele>368.0</ele><time>2026-04-11T07:58:34.999Z</time></trkpt><trkpt lat="43.424546304235704" lon="11.444166385267179"><ele>370.0</ele><time>2026-04-11T07:58:38Z</time></trkpt><trkpt lat="43.42450055262264" lon="11.444233311603536"><ele>372.0</ele><time>2026-04-11T07:58:41Z</time></trkpt><trkpt lat="43.42444189514791" lon="11.444297161111205"><ele>374.0</ele><time>2026-04-11T07:58:44Z</time></trkpt><trkpt lat="43.42439251185105" lon="11.444392227560213"><ele>376.0</ele><time>2026-04-11T07:58:47Z</time></trkpt><trkpt lat="43.42434270264627" lon="11.444489488683985"><ele>378.0</ele><time>2026-04-11T07:58:50Z</time></trkpt><trkpt lat="43.42429480063877" lon="11.444586491599985"><ele>380.0</ele><time>2026-04-11T07:58:53Z</time></trkpt><trkpt lat="43.42425943756529" lon="11.444688934855114"><ele>380.0</ele><time>2026-04-11T07:58:57Z</time></trkpt><trkpt lat="43.424222126469" lon="11.444762923830854"><ele>380.0</ele><time>2026-04-11T07:59:00Z</time></trkpt><trkpt lat="43.42419221365575" lon="11.444844405384476"><ele>380.0</ele><time>2026-04-11T07:59:03Z</time></trkpt><trkpt lat="43.42415451749135" lon="11.444938777235214"><ele>380.0</ele><time>2026-04-11T07:59:06Z</time></trkpt><trkpt lat="43.42411482402062" lon="11.445036045822896"><ele>380.0</ele><time>2026-04-11T07:59:09Z</time></trkpt><trkpt lat="43.424065817982296" lon="11.445184624696896"><ele>380.0</ele><time>2026-04-11T07:59:12Z</time></trkpt><trkpt lat="43.424033449609475" lon="11.445268458520454"><ele>380.0</ele><time>2026-04-11T07:59:14Z</time></trkpt><trkpt lat="43.423987801591146" lon="11.445383937716288"><ele>380.0</ele><time>2026-04-11T07:59:17Z</time></trkpt><trkpt lat="43.423949309741815" lon="11.445458798812572"><ele>380.0</ele><time>2026-04-11T07:59:19Z</time></trkpt><trkpt lat="43.423923528192255" lon="11.445543146440324"><ele>380.0</ele><time>2026-04-11T07:59:21Z</time></trkpt><trkpt lat="43.42389332690955" lon="11.44562732054912"><ele>380.0</ele><time>2026-04-11T07:59:23Z</time></trkpt><trkpt lat="43.423878382002826" lon="11.445740025066389"><ele>380.0</ele><time>2026-04-11T07:59:26Z</time></trkpt><trkpt lat="43.42387855499803" lon="11.445827568939517"><ele>380.0</ele><time>2026-04-11T07:59:28Z</time></trkpt><trkpt lat="43.42390465412033" lon="11.445944313593587"><ele>380.0</ele><time>2026-04-11T07:59:31Z</time></trkpt><trkpt lat="43.423966142068586" lon="11.446044281554181"><ele>380.0</ele><time>2026-04-11T07:59:34Z</time></trkpt><trkpt lat="43.42404549097436" lon="11.446099090419333"><ele>380.0</ele><time>2026-04-11T07:59:37Z</time></trkpt><trkpt lat="43.42415894061436" lon="11.446122254479699"><ele>380.0</ele><time>2026-04-11T07:59:41Z</time></trkpt><trkpt lat="43.42421766964456" lon="11.446154807043825"><ele>380.0</ele><time>2026-04-11T07:59:43Z</time></trkpt><trkpt lat="43.42428607262052" lon="11.446203343333364"><ele>380.0</ele><time>2026-04-11T07:59:45Z</time></trkpt><trkpt lat="43.42433680430435" lon="11.446261222437647"><ele>381.6666666666667</ele><time>2026-04-11T07:59:47Z</time></trkpt><trkpt lat="43.424374314386725" lon="11.446333849538563"><ele>383.33333333333337</ele><time>2026-04-11T07:59:49Z</time></trkpt><trkpt lat="43.42442486518303" lon="11.446428707353652"><ele>385.0</ele><time>2026-04-11T07:59:52Z</time></trkpt><trkpt lat="43.42445297269604" lon="11.446514424267384"><ele>386.6666666666667</ele><time>2026-04-11T07:59:55Z</time></trkpt><trkpt lat="43.42446458795403" lon="11.446623602664895"><ele>388.3333333333333</ele><time>2026-04-11T07:59:58Z</time></trkpt><trkpt lat="43.42447573458504" lon="11.446734027251303"><ele>390.0</ele><time>2026-04-11T08:00:01Z</time></trkpt><trkpt lat="43.424475933365926" lon="11.446832137555718"><ele>390.0</ele><time>2026-04-11T08:00:03.999Z</time></trkpt><trkpt lat="43.42446140869104" lon="11.446928283665978"><ele>390.0</ele><time>2026-04-11T08:00:06.999Z</time></trkpt><trkpt lat="43.424447312921004" lon="11.44703140099705"><ele>390.0</ele><time>2026-04-11T08:00:09.999Z</time></trkpt><trkpt lat="43.42443528988271" lon="11.44711702738204"><ele>390.0</ele><time>2026-04-11T08:00:12.999Z</time></trkpt><trkpt lat="43.42441328677175" lon="11.4472154011405"><ele>390.0</ele><time>2026-04-11T08:00:15.999Z</time></trkpt><trkpt lat="43.42438237424357" lon="11.447304912800554"><ele>390.0</ele><time>2026-04-11T08:00:18.999Z</time></trkpt><trkpt lat="43.424334038991375" lon="11.4473912758917"><ele>390.0</ele><time>2026-04-11T08:00:21.999Z</time></trkpt><trkpt lat="43.424288558990746" lon="11.447469384826375"><ele>390.6666666666667</ele><time>2026-04-11T08:00:24.999Z</time></trkpt><trkpt lat="43.424232904824564" lon="11.44754409041818"><ele>391.33333333333337</ele><time>2026-04-11T08:00:27.999Z</time></trkpt><trkpt lat="43.42417773953473" lon="11.44761741498036"><ele>392.0</ele><time>2026-04-11T08:00:30.999Z</time></trkpt><trkpt lat="43.424125992216695" lon="11.447668040251447"><ele>392.6666666666667</ele><time>2026-04-11T08:00:33.999Z</time></trkpt><trkpt lat="43.42405753371497" lon="11.44772296333049"><ele>393.33333333333337</ele><time>2026-04-11T08:00:36.999Z</time></trkpt><trkpt lat="43.42400012299089" lon="11.447790709232237"><ele>394.0</ele><time>2026-04-11T08:00:39.999Z</time></trkpt><trkpt lat="43.42392735207879" lon="11.44786298584972"><ele>394.00000000000006</ele><time>2026-04-11T08:00:43Z</time></trkpt><trkpt lat="43.423878778374345" lon="11.447953223732386"><ele>394.0</ele><time>2026-04-11T08:00:46Z</time></trkpt><trkpt lat="43.42383548149153" lon="11.448051654162906"><ele>394.0</ele><time>2026-04-11T08:00:49Z</time></trkpt><trkpt lat="43.4238082257987" lon="11.448164176631648"><ele>394.0</ele><time>2026-04-11T08:00:52Z</time></trkpt><trkpt lat="43.423807325460444" lon="11.448285239179565"><ele>394.00000000000006</ele><time>2026-04-11T08:00:55Z</time></trkpt><trkpt lat="43.42380327962953" lon="11.448375704858744"><ele>394.0</ele><time>2026-04-11T08:00:57Z</time></trkpt><trkpt lat="43.423824182733064" lon="11.448458576928768"><ele>393.7142857142857</ele><time>2026-04-11T08:00:59Z</time></trkpt><trkpt lat="43.42385461338116" lon="11.448539413612243"><ele>393.42857142857144</ele><time>2026-04-11T08:01:01Z</time></trkpt><trkpt lat="43.42388532447332" lon="11.448665031533265"><ele>393.1428571428571</ele><time>2026-04-11T08:01:04Z</time></trkpt><trkpt lat="43.423910138875044" lon="11.44875413687118"><ele>392.8571428571429</ele><time>2026-04-11T08:01:06Z</time></trkpt><trkpt lat="43.42393287338996" lon="11.448846003880695"><ele>392.57142857142856</ele><time>2026-04-11T08:01:08Z</time></trkpt><trkpt lat="43.4239603883496" lon="11.4489457140494"><ele>392.2857142857143</ele><time>2026-04-11T08:01:10Z</time></trkpt><trkpt lat="43.42398378925169" lon="11.449027218110968"><ele>392.0</ele><time>2026-04-11T08:01:12Z</time></trkpt><trkpt lat="43.42399220862273" lon="11.44913755355507"><ele>391.99999999999994</ele><time>2026-04-11T08:01:14Z</time></trkpt><trkpt lat="43.42399995775334" lon="11.449239915579124"><ele>392.0</ele><time>2026-04-11T08:01:16Z</time></trkpt><trkpt lat="43.42398694524482" lon="11.449347264853172"><ele>392.0</ele><time>2026-04-11T08:01:18Z</time></trkpt><trkpt lat="43.42397674864245" lon="11.449452907680373"><ele>392.0</ele><time>2026-04-11T08:01:20Z</time></trkpt><trkpt lat="43.42394295851495" lon="11.449555409427578"><ele>391.99999999999994</ele><time>2026-04-11T08:01:22Z</time></trkpt><trkpt lat="43.423917429867366" lon="11.449658847544825"><ele>392.0</ele><time>2026-04-11T08:01:24Z</time></trkpt><trkpt lat="43.423887534798055" lon="11.449763125093396"><ele>390.66666666666663</ele><time>2026-04-11T08:01:26Z</time></trkpt><trkpt lat="43.42383801167491" lon="11.449866561406557"><ele>389.3333333333333</ele><time>2026-04-11T08:01:28Z</time></trkpt><trkpt lat="43.423782161411864" lon="11.449931691316309"><ele>388.0</ele><time>2026-04-11T08:01:30Z</time></trkpt><trkpt lat="43.423723064595" lon="11.450002876562419"><ele>386.66666666666663</ele><time>2026-04-11T08:01:32Z</time></trkpt><trkpt lat="43.42366874252211" lon="11.450069613666958"><ele>385.3333333333333</ele><time>2026-04-11T08:01:34Z</time></trkpt><trkpt lat="43.423621912354356" lon="11.450142447819882"><ele>384.0</ele><time>2026-04-11T08:01:36Z</time></trkpt><trkpt lat="43.42356332851608" lon="11.450203539637462"><ele>385.85714285714283</ele><time>2026-04-11T08:01:38Z</time></trkpt><trkpt lat="43.42350807839778" lon="11.450297707772464"><ele>387.7142857142857</ele><time>2026-04-11T08:01:41Z</time></trkpt><trkpt lat="43.4234570429435" lon="11.450355217750136"><ele>389.57142857142856</ele><time>2026-04-11T08:01:43Z</time></trkpt><trkpt lat="43.42340599185923" lon="11.450427060107677"><ele>391.42857142857144</ele><time>2026-04-11T08:01:45Z</time></trkpt><trkpt lat="43.423346806538305" lon="11.450506794128673"><ele>393.2857142857143</ele><time>2026-04-11T08:01:47Z</time></trkpt><trkpt lat="43.4233051642353" lon="11.45058030421518"><ele>395.1428571428571</ele><time>2026-04-11T08:01:49Z</time></trkpt><trkpt lat="43.423246376985176" lon="11.450632193193002"><ele>397.0</ele><time>2026-04-11T08:01:51Z</time></trkpt><trkpt lat="43.42319575426578" lon="11.45069393403054"><ele>397.00000000000006</ele><time>2026-04-11T08:01:53Z</time></trkpt><trkpt lat="43.42313937746473" lon="11.450758305626444"><ele>397.0</ele><time>2026-04-11T08:01:55Z</time></trkpt><trkpt lat="43.423080853211445" lon="11.450807421170406"><ele>397.0</ele><time>2026-04-11T08:01:57Z</time></trkpt><trkpt lat="43.42302822413659" lon="11.450873089345317"><ele>397.0</ele><time>2026-04-11T08:01:59Z</time></trkpt><trkpt lat="43.42296546485187" lon="11.450943033614246"><ele>397.00000000000006</ele><time>2026-04-11T08:02:00.999Z</time></trkpt><trkpt lat="43.42288620696576" lon="11.45101688573595"><ele>397.0</ele><time>2026-04-11T08:02:03.999Z</time></trkpt><trkpt lat="43.42280017902293" lon="11.45110115174183"><ele>396.85714285714283</ele><time>2026-04-11T08:02:06.999Z</time></trkpt><trkpt lat="43.4227393329089" lon="11.451135967298212"><ele>396.71428571428567</ele><time>2026-04-11T08:02:08.999Z</time></trkpt><trkpt lat="43.422671464365266" lon="11.451184330975346"><ele>396.57142857142856</ele><time>2026-04-11T08:02:10.999Z</time></trkpt><trkpt lat="43.422610615638604" lon="11.451221730463027"><ele>396.42857142857144</ele><time>2026-04-11T08:02:12.999Z</time></trkpt><trkpt lat="43.42253483794647" lon="11.451238799595053"><ele>396.2857142857143</ele><time>2026-04-11T08:02:14.999Z</time></trkpt><trkpt lat="43.42244430913384" lon="11.451280851483679"><ele>396.14285714285717</ele><time>2026-04-11T08:02:17.999Z</time></trkpt><trkpt lat="43.42237783227091" lon="11.451299761021403"><ele>396.0</ele><time>2026-04-11T08:02:19.999Z</time></trkpt><trkpt lat="43.42231311306944" lon="11.451309632047424"><ele>396.0</ele><time>2026-04-11T08:02:21.999Z</time></trkpt><trkpt lat="43.42225013392443" lon="11.451315687905284"><ele>396.0</ele><time>2026-04-11T08:02:23.999Z</time></trkpt><trkpt lat="43.42218609355216" lon="11.451320327429173"><ele>396.0</ele><time>2026-04-11T08:02:25.999Z</time></trkpt><trkpt lat="43.4221087918765" lon="11.451322683929604"><ele>396.0</ele><time>2026-04-11T08:02:28.999Z</time></trkpt><trkpt lat="43.42203692605031" lon="11.45131764446536"><ele>396.0</ele><time>2026-04-11T08:02:31.999Z</time></trkpt><trkpt lat="43.42196042275406" lon="11.45134490481902"><ele>396.0</ele><time>2026-04-11T08:02:34.999Z</time></trkpt><trkpt lat="43.421895092694484" lon="11.451367725898967"><ele>396.0</ele><time>2026-04-11T08:02:36.999Z</time></trkpt><trkpt lat="43.42183367294911" lon="11.451457309741318"><ele>399.8333333333333</ele><time>2026-04-11T08:02:39.999Z</time></trkpt><trkpt lat="43.421794560003775" lon="11.451551182614958"><ele>403.66666666666663</ele><time>2026-04-11T08:02:41.999Z</time></trkpt><trkpt lat="43.42177162113831" lon="11.451643501927103"><ele>407.5</ele><time>2026-04-11T08:02:43.999Z</time></trkpt><trkpt lat="43.421753735322184" lon="11.451785542736275"><ele>411.3333333333333</ele><time>2026-04-11T08:02:48Z</time></trkpt><trkpt lat="43.42175987724493" lon="11.451901023200424"><ele>415.16666666666663</ele><time>2026-04-11T08:02:51Z</time></trkpt><trkpt lat="43.42175934806579" lon="11.45202720002521"><ele>419.0</ele><time>2026-04-11T08:02:54Z</time></trkpt><trkpt lat="43.42175344178108" lon="11.452150378104927"><ele>418.99999999999994</ele><time>2026-04-11T08:02:57Z</time></trkpt><trkpt lat="43.42173034430283" lon="11.452256612931272"><ele>419.0</ele><time>2026-04-11T08:03:00Z</time></trkpt><trkpt lat="43.42169474146475" lon="11.45236415533003"><ele>419.0</ele><time>2026-04-11T08:03:03Z</time></trkpt><trkpt lat="43.421657626001455" lon="11.452468703910222"><ele>419.0</ele><time>2026-04-11T08:03:06Z</time></trkpt><trkpt lat="43.42162734506996" lon="11.452548065109964"><ele>418.99999999999994</ele><time>2026-04-11T08:03:08Z</time></trkpt><trkpt lat="43.421581864089354" lon="11.452643755194032"><ele>419.0</ele><time>2026-04-11T08:03:11Z</time></trkpt><trkpt lat="43.42154788589632" lon="11.452744508624596"><ele>418.99999999999994</ele><time>2026-04-11T08:03:14Z</time></trkpt><trkpt lat="43.421543561368665" lon="11.45283365587401"><ele>419.0</ele><time>2026-04-11T08:03:16Z</time></trkpt><trkpt lat="43.42154091892419" lon="11.452939885755097"><ele>419.0</ele><time>2026-04-11T08:03:19Z</time></trkpt><trkpt lat="43.42156963641658" lon="11.453055393575681"><ele>419.0</ele><time>2026-04-11T08:03:22Z</time></trkpt><trkpt lat="43.42161219458067" lon="11.453128859460154"><ele>418.99999999999994</ele><time>2026-04-11T08:03:24Z</time></trkpt><trkpt lat="43.42166155253951" lon="11.453229499788243"><ele>419.0</ele><time>2026-04-11T08:03:27Z</time></trkpt><trkpt lat="43.42172289997473" lon="11.453319368292899"><ele>418.3333333333333</ele><time>2026-04-11T08:03:30Z</time></trkpt><trkpt lat="43.42177447357049" lon="11.453417994687333"><ele>417.66666666666663</ele><time>2026-04-11T08:03:33Z</time></trkpt><trkpt lat="43.42180767329686" lon="11.45351423713815"><ele>417.0</ele><time>2026-04-11T08:03:36Z</time></trkpt><trkpt lat="43.42182659874377" lon="11.453611667452279"><ele>416.33333333333337</ele><time>2026-04-11T08:03:39Z</time></trkpt><trkpt lat="43.42182198563752" lon="11.453724738145471"><ele>415.6666666666667</ele><time>2026-04-11T08:03:42Z</time></trkpt><trkpt lat="43.42181268695882" lon="11.453829360147049"><ele>415.0</ele><time>2026-04-11T08:03:45Z</time></trkpt><trkpt lat="43.42178886632411" lon="11.453918582593444"><ele>414.6666666666667</ele><time>2026-04-11T08:03:48Z</time></trkpt><trkpt lat="43.42176248623275" lon="11.454002629563393"><ele>414.33333333333337</ele><time>2026-04-11T08:03:51Z</time></trkpt><trkpt lat="43.42170134130317" lon="11.454075756896183"><ele>414.0</ele><time>2026-04-11T08:03:54Z</time></trkpt><trkpt lat="43.42163106163696" lon="11.454146238878542"><ele>413.66666666666663</ele><time>2026-04-11T08:03:57Z</time></trkpt><trkpt lat="43.42155944597599" lon="11.454211938170175"><ele>413.3333333333333</ele><time>2026-04-11T08:04:00Z</time></trkpt><trkpt lat="43.421498869700265" lon="11.454271160710746"><ele>413.0</ele><time>2026-04-11T08:04:03Z</time></trkpt><trkpt lat="43.42142735225346" lon="11.454317472736026"><ele>413.0</ele><time>2026-04-11T08:04:05.999Z</time></trkpt><trkpt lat="43.42137836085353" lon="11.454373826882085"><ele>413.0</ele><time>2026-04-11T08:04:08.999Z</time></trkpt><trkpt lat="43.42132018507531" lon="11.4544190346764"><ele>413.0</ele><time>2026-04-11T08:04:11.999Z</time></trkpt><trkpt lat="43.421252710849316" lon="11.454465184650735"><ele>413.0</ele><time>2026-04-11T08:04:14.999Z</time></trkpt><trkpt lat="43.42117865315232" lon="11.454503251412936"><ele>413.0</ele><time>2026-04-11T08:04:17.999Z</time></trkpt><trkpt lat="43.42111265063612" lon="11.454577766996143"><ele>413.0</ele><time>2026-04-11T08:04:20.999Z</time></trkpt><trkpt lat="43.42105100249538" lon="11.454631577630433"><ele>413.0</ele><time>2026-04-11T08:04:23.999Z</time></trkpt><trkpt lat="43.420990913784365" lon="11.454713241969207"><ele>414.49999999999994</ele><time>2026-04-11T08:04:26.999Z</time></trkpt><trkpt lat="43.42094204143586" lon="11.454785543700787"><ele>416.0</ele><time>2026-04-11T08:04:29.999Z</time></trkpt><trkpt lat="43.420901852850655" lon="11.45486302244168"><ele>417.5</ele><time>2026-04-11T08:04:32.999Z</time></trkpt><trkpt lat="43.42085262007733" lon="11.454943546376239"><ele>419.0</ele><time>2026-04-11T08:04:35.999Z</time></trkpt><trkpt lat="43.42080618460431" lon="11.455040172834195"><ele>420.49999999999994</ele><time>2026-04-11T08:04:38.999Z</time></trkpt><trkpt lat="43.42077024335808" lon="11.4551346967191"><ele>422.0</ele><time>2026-04-11T08:04:41.999Z</time></trkpt><trkpt lat="43.42072483867914" lon="11.455221845245557"><ele>421.99999999999994</ele><time>2026-04-11T08:04:44.999Z</time></trkpt><trkpt lat="43.420670608910726" lon="11.455303295777234"><ele>422.0</ele><time>2026-04-11T08:04:47.999Z</time></trkpt><trkpt lat="43.42060928872366" lon="11.455360804664808"><ele>422.0</ele><time>2026-04-11T08:04:50.999Z</time></trkpt><trkpt lat="43.42054508980135" lon="11.455437576730034"><ele>422.0</ele><time>2026-04-11T08:04:54Z</time></trkpt><trkpt lat="43.4204969476629" lon="11.455516347020284"><ele>421.99999999999994</ele><time>2026-04-11T08:04:57Z</time></trkpt><trkpt lat="43.420444256927155" lon="11.455585608009443"><ele>422.0</ele><time>2026-04-11T08:05:00Z</time></trkpt><trkpt lat="43.42038768359417" lon="11.455654327570407"><ele>422.8571428571429</ele><time>2026-04-11T08:05:03Z</time></trkpt><trkpt lat="43.42032771435273" lon="11.455720714235412"><ele>423.7142857142857</ele><time>2026-04-11T08:05:06Z</time></trkpt><trkpt lat="43.42028160040395" lon="11.45579272422143"><ele>424.57142857142856</ele><time>2026-04-11T08:05:09Z</time></trkpt><trkpt lat="43.420225849649256" lon="11.45586241695455"><ele>425.42857142857144</ele><time>2026-04-11T08:05:12Z</time></trkpt><trkpt lat="43.42018047859418" lon="11.455943018016324"><ele>426.2857142857143</ele><time>2026-04-11T08:05:15Z</time></trkpt><trkpt lat="43.420130592140154" lon="11.456017588418092"><ele>427.14285714285717</ele><time>2026-04-11T08:05:18Z</time></trkpt><trkpt lat="43.420080722253886" lon="11.45609142003974"><ele>428.0</ele><time>2026-04-11T08:05:21Z</time></trkpt><trkpt lat="43.42002419300888" lon="11.456165946044715"><ele>427.99999999999994</ele><time>2026-04-11T08:05:24Z</time></trkpt><trkpt lat="43.4199718335672" lon="11.456245764303562"><ele>428.0</ele><time>2026-04-11T08:05:27Z</time></trkpt><trkpt lat="43.419912832020366" lon="11.456320992462782"><ele>428.0</ele><time>2026-04-11T08:05:30Z</time></trkpt><trkpt lat="43.4198550723309" lon="11.456402220775331"><ele>428.0</ele><time>2026-04-11T08:05:33Z</time></trkpt><trkpt lat="43.41980642316706" lon="11.456489023135166"><ele>427.99999999999994</ele><time>2026-04-11T08:05:36Z</time></trkpt><trkpt lat="43.41974536842966" lon="11.456562425257077"><ele>428.0</ele><time>2026-04-11T08:05:39Z</time></trkpt><trkpt lat="43.41968566250452" lon="11.45664340255133"><ele>429.3333333333333</ele><time>2026-04-11T08:05:42Z</time></trkpt><trkpt lat="43.41962283208983" lon="11.456714789912438"><ele>430.66666666666663</ele><time>2026-04-11T08:05:45Z</time></trkpt><trkpt lat="43.41953792414836" lon="11.456772441517636"><ele>432.0</ele><time>2026-04-11T08:05:48Z</time></trkpt><trkpt lat="43.41947342510176" lon="11.456793922133567"><ele>433.33333333333337</ele><time>2026-04-11T08:05:50Z</time></trkpt><trkpt lat="43.41940096568636" lon="11.456807104258166"><ele>434.6666666666667</ele><time>2026-04-11T08:05:52Z</time></trkpt><trkpt lat="43.41933168542958" lon="11.45682546176996"><ele>436.0</ele><time>2026-04-11T08:05:54Z</time></trkpt><trkpt lat="43.41925115684775" lon="11.45683522176777"><ele>436.0</ele><time>2026-04-11T08:05:56Z</time></trkpt><trkpt lat="43.419174802111506" lon="11.4568605589824"><ele>436.0</ele><time>2026-04-11T08:05:58Z</time></trkpt><trkpt lat="43.41910576099125" lon="11.456897946161684"><ele>436.0</ele><time>2026-04-11T08:06:00Z</time></trkpt><trkpt lat="43.419052589230446" lon="11.456959390678744"><ele>436.0</ele><time>2026-04-11T08:06:02Z</time></trkpt><trkpt lat="43.41901604277867" lon="11.457044101553345"><ele>436.0</ele><time>2026-04-11T08:06:04Z</time></trkpt><trkpt lat="43.41899602208811" lon="11.457142754200003"><ele>436.0</ele><time>2026-04-11T08:06:06Z</time></trkpt><trkpt lat="43.41898532859812" lon="11.457233966823075"><ele>436.0</ele><time>2026-04-11T08:06:08Z</time></trkpt><trkpt lat="43.41897052372703" lon="11.457320357840267"><ele>435.57142857142856</ele><time>2026-04-11T08:06:10Z</time></trkpt><trkpt lat="43.418973288667395" lon="11.457437159631489"><ele>435.14285714285717</ele><time>2026-04-11T08:06:11.999Z</time></trkpt><trkpt lat="43.41896626848156" lon="11.45752693543939"><ele>434.71428571428567</ele><time>2026-04-11T08:06:13.999Z</time></trkpt><trkpt lat="43.418924607403376" lon="11.457611036502607"><ele>434.2857142857143</ele><time>2026-04-11T08:06:15.999Z</time></trkpt><trkpt lat="43.41888102592044" lon="11.45768185677115"><ele>433.85714285714283</ele><time>2026-04-11T08:06:17.999Z</time></trkpt><trkpt lat="43.41883623893674" lon="11.45774558945708"><ele>433.4285714285714</ele><time>2026-04-11T08:06:19.999Z</time></trkpt><trkpt lat="43.41877441498721" lon="11.457793684577778"><ele>433.0</ele><time>2026-04-11T08:06:21.999Z</time></trkpt><trkpt lat="43.418714542347935" lon="11.457856227242496"><ele>432.99999999999994</ele><time>2026-04-11T08:06:23.999Z</time></trkpt><trkpt lat="43.418654034878685" lon="11.457903352415792"><ele>433.0</ele><time>2026-04-11T08:06:25.999Z</time></trkpt><trkpt lat="43.41858858019014" lon="11.457942414785062"><ele>433.0</ele><time>2026-04-11T08:06:27.999Z</time></trkpt><trkpt lat="43.41852133926403" lon="11.458012739654581"><ele>433.0</ele><time>2026-04-11T08:06:29.999Z</time></trkpt><trkpt lat="43.41845075636208" lon="11.458056022714228"><ele>433.0</ele><time>2026-04-11T08:06:31.999Z</time></trkpt><trkpt lat="43.41838814381045" lon="11.458100762521699"><ele>432.99999999999994</ele><time>2026-04-11T08:06:33.999Z</time></trkpt><trkpt lat="43.4183223926041" lon="11.458149344000475"><ele>433.0</ele><time>2026-04-11T08:06:35.999Z</time></trkpt><trkpt lat="43.41826439210427" lon="11.458207858403743"><ele>432.99999999999994</ele><time>2026-04-11T08:06:37.999Z</time></trkpt><trkpt lat="43.41820199498293" lon="11.458264017081316"><ele>433.0</ele><time>2026-04-11T08:06:39.999Z</time></trkpt><trkpt lat="43.41814396887981" lon="11.458303971533528"><ele>433.0</ele><time>2026-04-11T08:06:41.999Z</time></trkpt><trkpt lat="43.418080185801855" lon="11.45834173021013"><ele>433.0</ele><time>2026-04-11T08:06:43.999Z</time></trkpt><trkpt lat="43.417990119743585" lon="11.458368328557306"><ele>433.0</ele><time>2026-04-11T08:06:46.999Z</time></trkpt><trkpt lat="43.41791925159615" lon="11.458376970385814"><ele>432.99999999999994</ele><time>2026-04-11T08:06:48.999Z</time></trkpt><trkpt lat="43.41785196020336" lon="11.458364149607581"><ele>433.0</ele><time>2026-04-11T08:06:50.999Z</time></trkpt><trkpt lat="43.41778658061641" lon="11.45835306014184"><ele>433.85714285714283</ele><time>2026-04-11T08:06:52.999Z</time></trkpt><trkpt lat="43.41772529036184" lon="11.45832538712916"><ele>434.7142857142857</ele><time>2026-04-11T08:06:54.999Z</time></trkpt><trkpt lat="43.417657901849275" lon="11.458289705458068"><ele>435.57142857142856</ele><time>2026-04-11T08:06:56.999Z</time></trkpt><trkpt lat="43.4175935842965" lon="11.458246117710493"><ele>436.42857142857144</ele><time>2026-04-11T08:06:58.999Z</time></trkpt><trkpt lat="43.417531415255574" lon="11.45820754759466"><ele>437.2857142857143</ele><time>2026-04-11T08:07:01Z</time></trkpt><trkpt lat="43.41746844326712" lon="11.458165123485543"><ele>438.1428571428571</ele><time>2026-04-11T08:07:03Z</time></trkpt><trkpt lat="43.41740994177047" lon="11.458125590739407"><ele>439.0</ele><time>2026-04-11T08:07:05Z</time></trkpt><trkpt lat="43.41735215741967" lon="11.4580827280829"><ele>439.00000000000006</ele><time>2026-04-11T08:07:07Z</time></trkpt><trkpt lat="43.41729026989124" lon="11.458046810379226"><ele>439.0</ele><time>2026-04-11T08:07:09Z</time></trkpt><trkpt lat="43.41720402401829" lon="11.458010958207886"><ele>439.0</ele><time>2026-04-11T08:07:12Z</time></trkpt><trkpt lat="43.41711241185856" lon="11.45798577940556"><ele>439.0</ele><time>2026-04-11T08:07:15Z</time></trkpt><trkpt lat="43.41703166935644" lon="11.457961850752673"><ele>439.00000000000006</ele><time>2026-04-11T08:07:18Z</time></trkpt><trkpt lat="43.41694268860422" lon="11.457960803828556"><ele>439.0</ele><time>2026-04-11T08:07:21Z</time></trkpt><trkpt lat="43.416855886449845" lon="11.457953515986286"><ele>439.33333333333337</ele><time>2026-04-11T08:07:24Z</time></trkpt><trkpt lat="43.416763588637664" lon="11.457953587325136"><ele>439.6666666666667</ele><time>2026-04-11T08:07:27Z</time></trkpt><trkpt lat="43.41669906373063" lon="11.457945059165802"><ele>440.0</ele><time>2026-04-11T08:07:29Z</time></trkpt><trkpt lat="43.41663640824516" lon="11.45793591790653"><ele>440.33333333333337</ele><time>2026-04-11T08:07:31Z</time></trkpt><trkpt lat="43.41654198484329" lon="11.457937491998551"><ele>440.6666666666667</ele><time>2026-04-11T08:07:34Z</time></trkpt><trkpt lat="43.416444346467166" lon="11.45795370845742"><ele>441.0</ele><time>2026-04-11T08:07:37Z</time></trkpt><trkpt lat="43.416385184865085" lon="11.457995552705004"><ele>441.0</ele><time>2026-04-11T08:07:39Z</time></trkpt><trkpt lat="43.41632483913573" lon="11.458034516714777"><ele>441.0</ele><time>2026-04-11T08:07:41Z</time></trkpt><trkpt lat="43.416266553629114" lon="11.4580765537854"><ele>441.0</ele><time>2026-04-11T08:07:43Z</time></trkpt><trkpt lat="43.416197192795885" lon="11.458155552277534"><ele>441.0</ele><time>2026-04-11T08:07:46Z</time></trkpt><trkpt lat="43.416123174957804" lon="11.458231097158425"><ele>441.0</ele><time>2026-04-11T08:07:49Z</time></trkpt><trkpt lat="43.41606928438617" lon="11.458277876892428"><ele>441.0</ele><time>2026-04-11T08:07:51Z</time></trkpt><trkpt lat="43.416013376535936" lon="11.458374229254797"><ele>441.8333333333333</ele><time>2026-04-11T08:07:54Z</time></trkpt><trkpt lat="43.415961427236645" lon="11.458475578873157"><ele>442.66666666666663</ele><time>2026-04-11T08:07:57Z</time></trkpt><trkpt lat="43.41591254373303" lon="11.458538046871428"><ele>443.5</ele><time>2026-04-11T08:07:59Z</time></trkpt><trkpt lat="43.41589139474641" lon="11.458621677436101"><ele>444.3333333333333</ele><time>2026-04-11T08:08:01Z</time></trkpt><trkpt lat="43.41587548574274" lon="11.458708035999523"><ele>445.16666666666663</ele><time>2026-04-11T08:08:03Z</time></trkpt><trkpt lat="43.41585403957235" lon="11.458833774184974"><ele>446.0</ele><time>2026-04-11T08:08:06Z</time></trkpt><trkpt lat="43.41584802208203" lon="11.458957254786391"><ele>446.57142857142856</ele><time>2026-04-11T08:08:09Z</time></trkpt><trkpt lat="43.41584941305245" lon="11.459063294433502"><ele>447.1428571428571</ele><time>2026-04-11T08:08:12Z</time></trkpt><trkpt lat="43.415846428642794" lon="11.459165242766433"><ele>447.7142857142858</ele><time>2026-04-11T08:08:14.999Z</time></trkpt><trkpt lat="43.415860140623344" lon="11.45925471318697"><ele>448.28571428571433</ele><time>2026-04-11T08:08:17.999Z</time></trkpt><trkpt lat="43.4158669691495" lon="11.459342380235173"><ele>448.8571428571429</ele><time>2026-04-11T08:08:20.999Z</time></trkpt><trkpt lat="43.41586944141226" lon="11.459447064486167"><ele>449.4285714285715</ele><time>2026-04-11T08:08:23.999Z</time></trkpt><trkpt lat="43.41588652965906" lon="11.459532423553684"><ele>450.00000000000006</ele><time>2026-04-11T08:08:27.999Z</time></trkpt><trkpt lat="43.41589289730447" lon="11.459622337772968"><ele>451.00000000000006</ele><time>2026-04-11T08:08:32.999Z</time></trkpt><trkpt lat="43.41588980786306" lon="11.459728136667389"><ele>452.0</ele><time>2026-04-11T08:08:36.999Z</time></trkpt><trkpt lat="43.41587869944174" lon="11.459831766467184"><ele>453.00000000000006</ele><time>2026-04-11T08:08:40.999Z</time></trkpt><trkpt lat="43.41588826976708" lon="11.459922863392576"><ele>454.00000000000006</ele><time>2026-04-11T08:08:44.999Z</time></trkpt><trkpt lat="43.41589180150126" lon="11.460021949016806"><ele>455.0</ele><time>2026-04-11T08:08:48.999Z</time></trkpt><trkpt lat="43.41588731673114" lon="11.460132092955563"><ele>456.00000000000006</ele><time>2026-04-11T08:08:52.999Z</time></trkpt><trkpt lat="43.415908777291094" lon="11.460220096144337"><ele>457.00000000000006</ele><time>2026-04-11T08:08:56.999Z</time></trkpt><trkpt lat="43.41590116166704" lon="11.460322167002268"><ele>457.00000000000006</ele><time>2026-04-11T08:09:00.999Z</time></trkpt><trkpt lat="43.41590635732411" lon="11.460417240232486"><ele>457.0</ele><time>2026-04-11T08:09:06Z</time></trkpt><trkpt lat="43.415921897414236" lon="11.46053449938672"><ele>457.00000000000006</ele><time>2026-04-11T08:09:09Z</time></trkpt><trkpt lat="43.41594102638306" lon="11.460648359152383"><ele>457.00000000000006</ele><time>2026-04-11T08:09:14Z</time></trkpt><trkpt lat="43.41594768814072" lon="11.460751134908172"><ele>457.0</ele><time>2026-04-11T08:09:18Z</time></trkpt><trkpt lat="43.41598730370864" lon="11.46081976049224"><ele>457.00000000000006</ele><time>2026-04-11T08:09:22Z</time></trkpt><trkpt lat="43.41602799055571" lon="11.460889247917283"><ele>457.00000000000006</ele><time>2026-04-11T08:09:25Z</time></trkpt><trkpt lat="43.416102751411636" lon="11.460962668263383"><ele>459.00000000000006</ele><time>2026-04-11T08:09:30Z</time></trkpt><trkpt lat="43.41613984958944" lon="11.461032978453089"><ele>461.0</ele><time>2026-04-11T08:09:34Z</time></trkpt><trkpt lat="43.416153009117025" lon="11.461124061639657"><ele>463.00000000000006</ele><time>2026-04-11T08:09:37Z</time></trkpt><trkpt lat="43.416133829649034" lon="11.461232317499102"><ele>465.00000000000006</ele><time>2026-04-11T08:09:41Z</time></trkpt><trkpt lat="43.41609631662723" lon="11.461321684500342"><ele>467.0</ele><time>2026-04-11T08:09:46Z</time></trkpt><trkpt lat="43.416051274421" lon="11.461382335770107"><ele>469.00000000000006</ele><time>2026-04-11T08:09:51Z</time></trkpt><trkpt lat="43.41596577188812" lon="11.461422643516618"><ele>471.00000000000006</ele><time>2026-04-11T08:09:55Z</time></trkpt><trkpt lat="43.415895465880226" lon="11.46143760772948"><ele>471.00000000000006</ele><time>2026-04-11T08:09:59Z</time></trkpt><trkpt lat="43.415828263792534" lon="11.461430589276608"><ele>471.0</ele><time>2026-04-11T08:10:03Z</time></trkpt><trkpt lat="43.41576909686328" lon="11.461384591767832"><ele>471.00000000000006</ele><time>2026-04-11T08:10:07Z</time></trkpt><trkpt lat="43.415711168163014" lon="11.46132618416651"><ele>471.00000000000006</ele><time>2026-04-11T08:10:10Z</time></trkpt><trkpt lat="43.41565832705947" lon="11.46124943448323"><ele>471.0</ele><time>2026-04-11T08:10:12.999Z</time></trkpt><trkpt lat="43.41563207073496" lon="11.46114429026292"><ele>471.00000000000006</ele><time>2026-04-11T08:10:16.999Z</time></trkpt><trkpt lat="43.41563468171772" lon="11.461030101096506"><ele>471.00000000000006</ele><time>2026-04-11T08:10:20.999Z</time></trkpt><trkpt lat="43.4155968177366" lon="11.460957597899663"><ele>471.00000000000006</ele><time>2026-04-11T08:10:24.999Z</time></trkpt><trkpt lat="43.41554656176164" lon="11.460854260645293"><ele>471.0</ele><time>2026-04-11T08:10:29.999Z</time></trkpt><trkpt lat="43.41549940214612" lon="11.460766395568912"><ele>471.00000000000006</ele><time>2026-04-11T08:10:33.999Z</time></trkpt><trkpt lat="43.41544970141245" lon="11.460688547707212"><ele>471.00000000000006</ele><time>2026-04-11T08:10:37.999Z</time></trkpt><trkpt lat="43.41539148242648" lon="11.460635337958694"><ele>471.0</ele><time>2026-04-11T08:10:41.999Z</time></trkpt><trkpt lat="43.415335378622416" lon="11.46058603204389"><ele>471.00000000000006</ele><time>2026-04-11T08:10:45.999Z</time></trkpt><trkpt lat="43.41527467051944" lon="11.460562507178217"><ele>471.00000000000006</ele><time>2026-04-11T08:10:49.999Z</time></trkpt><trkpt lat="43.41522238467022" lon="11.460619409470386"><ele>472.5</ele><time>2026-04-11T08:10:53.999Z</time></trkpt><trkpt lat="43.41523724215296" lon="11.460714762731406"><ele>474.0</ele><time>2026-04-11T08:10:57.999Z</time></trkpt><trkpt lat="43.415315614319724" lon="11.46076632267072"><ele>475.5</ele><time>2026-04-11T08:11:02.999Z</time></trkpt><trkpt lat="43.41537620751597" lon="11.460842359658859"><ele>477.0</ele><time>2026-04-11T08:11:06.999Z</time></trkpt><trkpt lat="43.41542194836176" lon="11.460906950631324"><ele>478.5</ele><time>2026-04-11T08:11:10.999Z</time></trkpt><trkpt lat="43.41544837344015" lon="11.461007980637529"><ele>480.0</ele><time>2026-04-11T08:11:14Z</time></trkpt><trkpt lat="43.41546195323417" lon="11.461103620853343"><ele>480.0</ele><time>2026-04-11T08:11:18Z</time></trkpt><trkpt lat="43.41543613244854" lon="11.46121048646414"><ele>480.0</ele><time>2026-04-11T08:11:22Z</time></trkpt><trkpt lat="43.4154055279901" lon="11.461329580471977"><ele>480.0</ele><time>2026-04-11T08:11:26Z</time></trkpt><trkpt lat="43.4153878284785" lon="11.46142279403344"><ele>480.0</ele><time>2026-04-11T08:11:30Z</time></trkpt><trkpt lat="43.41535902731139" lon="11.461521023862263"><ele>480.0</ele><time>2026-04-11T08:11:34Z</time></trkpt><trkpt lat="43.41536057413558" lon="11.461637676695839"><ele>480.0</ele><time>2026-04-11T08:11:39Z</time></trkpt><trkpt lat="43.41535131054736" lon="11.461725738596266"><ele>481.42857142857144</ele><time>2026-04-11T08:11:43Z</time></trkpt><trkpt lat="43.41527161903667" lon="11.461765932434124"><ele>482.85714285714283</ele><time>2026-04-11T08:11:48Z</time></trkpt><trkpt lat="43.41522453961618" lon="11.461708024792093"><ele>484.2857142857143</ele><time>2026-04-11T08:11:52Z</time></trkpt><trkpt lat="43.4152246701334" lon="11.461605415926137"><ele>485.7142857142857</ele><time>2026-04-11T08:11:56Z</time></trkpt><trkpt lat="43.41519851997469" lon="11.461512589822082"><ele>487.1428571428571</ele><time>2026-04-11T08:12:01Z</time></trkpt><trkpt lat="43.415170101459886" lon="11.461413177338116"><ele>488.57142857142856</ele><time>2026-04-11T08:12:05Z</time></trkpt><trkpt lat="43.41512178502837" lon="11.461339159389935"><ele>490.0</ele><time>2026-04-11T08:12:09Z</time></trkpt><trkpt lat="43.4150377681411" lon="11.461340203788897"><ele>490.0</ele><time>2026-04-11T08:12:14Z</time></trkpt><trkpt lat="43.41498622197124" lon="11.461396015252395"><ele>490.0</ele><time>2026-04-11T08:12:17Z</time></trkpt><trkpt lat="43.414984960568404" lon="11.461490595854405"><ele>490.0</ele><time>2026-04-11T08:12:21Z</time></trkpt><trkpt lat="43.414967556200914" lon="11.461580837466121"><ele>490.0</ele><time>2026-04-11T08:12:24.999Z</time></trkpt><trkpt lat="43.41496053148443" lon="11.461684231091992"><ele>490.0</ele><time>2026-04-11T08:12:29.999Z</time></trkpt><trkpt lat="43.4149333187629" lon="11.461785286865986"><ele>490.0</ele><time>2026-04-11T08:12:33.999Z</time></trkpt><trkpt lat="43.414921302172125" lon="11.461885808974358"><ele>490.0</ele><time>2026-04-11T08:12:38.999Z</time></trkpt><trkpt lat="43.41487594174763" lon="11.461970940198823"><ele>490.00000000000006</ele><time>2026-04-11T08:12:43.999Z</time></trkpt><trkpt lat="43.414811418788446" lon="11.462063809089232"><ele>490.0</ele><time>2026-04-11T08:12:47.999Z</time></trkpt><trkpt lat="43.41477089329142" lon="11.462135451683576"><ele>490.0</ele><time>2026-04-11T08:12:53.999Z</time></trkpt><trkpt lat="43.414729665814846" lon="11.462220084450953"><ele>490.0</ele><time>2026-04-11T08:12:57.999Z</time></trkpt><trkpt lat="43.41471871417266" lon="11.462327053148984"><ele>490.00000000000006</ele><time>2026-04-11T08:13:01.999Z</time></trkpt><trkpt lat="43.414693881037714" lon="11.462431541266179"><ele>490.0</ele><time>2026-04-11T08:13:05.999Z</time></trkpt><trkpt lat="43.414662859566235" lon="11.462538704570076"><ele>492.8571428571429</ele><time>2026-04-11T08:13:09.999Z</time></trkpt><trkpt lat="43.41462279804429" lon="11.46263113838036"><ele>495.7142857142857</ele><time>2026-04-11T08:13:12.999Z</time></trkpt><trkpt lat="43.41456886376512" lon="11.462710896536143"><ele>498.57142857142856</ele><time>2026-04-11T08:13:16.999Z</time></trkpt><trkpt lat="43.41454756689414" lon="11.462804197687227"><ele>501.42857142857144</ele><time>2026-04-11T08:13:21Z</time></trkpt><trkpt lat="43.41453997871158" lon="11.46289761568744"><ele>504.28571428571433</ele><time>2026-04-11T08:13:25Z</time></trkpt><trkpt lat="43.41454209772399" lon="11.46299339738865"><ele>507.14285714285717</ele><time>2026-04-11T08:13:28Z</time></trkpt><trkpt lat="43.414573343078764" lon="11.46307060424017"><ele>510.0</ele><time>2026-04-11T08:13:32Z</time></trkpt><trkpt lat="43.41457821723222" lon="11.463175827020182"><ele>513.0</ele><time>2026-04-11T08:13:36Z</time></trkpt><trkpt lat="43.41460456159021" lon="11.463267020176698"><ele>516.0</ele><time>2026-04-11T08:13:41Z</time></trkpt><trkpt lat="43.41459939645746" lon="11.463368872280181"><ele>519.0</ele><time>2026-04-11T08:13:44Z</time></trkpt><trkpt lat="43.41459070533766" lon="11.463480792365914"><ele>522.0</ele><time>2026-04-11T08:13:47Z</time></trkpt><trkpt lat="43.41458793731383" lon="11.46358309198612"><ele>525.0</ele><time>2026-04-11T08:13:51Z</time></trkpt><trkpt lat="43.414572911634416" lon="11.463667730662825"><ele>528.0</ele><time>2026-04-11T08:13:54Z</time></trkpt><trkpt lat="43.41454024950598" lon="11.463777264100326"><ele>527.4285714285714</ele><time>2026-04-11T08:13:57Z</time></trkpt><trkpt lat="43.41452576150348" lon="11.463888717778305"><ele>526.8571428571429</ele><time>2026-04-11T08:14:01Z</time></trkpt><trkpt lat="43.41449912788113" lon="11.463968826584743"><ele>526.2857142857143</ele><time>2026-04-11T08:14:05Z</time></trkpt><trkpt lat="43.4144444874771" lon="11.464057888044993"><ele>525.7142857142858</ele><time>2026-04-11T08:14:10Z</time></trkpt><trkpt lat="43.41439288582496" lon="11.464130011793172"><ele>525.1428571428572</ele><time>2026-04-11T08:14:15Z</time></trkpt><trkpt lat="43.414337571334165" lon="11.464174447362522"><ele>524.5714285714286</ele><time>2026-04-11T08:14:18Z</time></trkpt><trkpt lat="43.41427941576474" lon="11.464224388681064"><ele>524.0</ele><time>2026-04-11T08:14:21Z</time></trkpt><trkpt lat="43.41421771590484" lon="11.464277888244332"><ele>524.0</ele><time>2026-04-11T08:14:25Z</time></trkpt><trkpt lat="43.41417342142905" lon="11.464347113277832"><ele>524.0</ele><time>2026-04-11T08:14:28Z</time></trkpt><trkpt lat="43.4140987306661" lon="11.464403372053201"><ele>524.0</ele><time>2026-04-11T08:14:31.999Z</time></trkpt><trkpt lat="43.41403047612158" lon="11.464446343445434"><ele>524.0</ele><time>2026-04-11T08:14:35.999Z</time></trkpt><trkpt lat="43.41395441017811" lon="11.464478326428502"><ele>524.0</ele><time>2026-04-11T08:14:40.999Z</time></trkpt><trkpt lat="43.41388572261409" lon="11.464513621819334"><ele>524.0</ele><time>2026-04-11T08:14:44.999Z</time></trkpt><trkpt lat="43.4138009174588" lon="11.464539552365903"><ele>525.0</ele><time>2026-04-11T08:14:48.999Z</time></trkpt><trkpt lat="43.413730980307086" lon="11.46456908224237"><ele>526.0</ele><time>2026-04-11T08:14:52.999Z</time></trkpt><trkpt lat="43.41366516605907" lon="11.464596706801375"><ele>527.0</ele><time>2026-04-11T08:14:56.999Z</time></trkpt><trkpt lat="43.41358063473289" lon="11.464602509429128"><ele>528.0</ele><time>2026-04-11T08:15:00.999Z</time></trkpt><trkpt lat="43.413512126029296" lon="11.46461542841334"><ele>529.0</ele><time>2026-04-11T08:15:03.999Z</time></trkpt><trkpt lat="43.41343417286315" lon="11.464608485366453"><ele>530.0</ele><time>2026-04-11T08:15:08.999Z</time></trkpt><trkpt lat="43.413362315494766" lon="11.464598439101533"><ele>531.0</ele><time>2026-04-11T08:15:12.999Z</time></trkpt><trkpt lat="43.41329794314791" lon="11.464558356700657"><ele>531.0</ele><time>2026-04-11T08:15:16.999Z</time></trkpt><trkpt lat="43.41323574951616" lon="11.464512070362638"><ele>531.0</ele><time>2026-04-11T08:15:20.999Z</time></trkpt><trkpt lat="43.41315413760745" lon="11.464466188505783"><ele>531.0</ele><time>2026-04-11T08:15:25Z</time></trkpt><trkpt lat="43.41308688237862" lon="11.464396953635339"><ele>531.0</ele><time>2026-04-11T08:15:29Z</time></trkpt><trkpt lat="43.41301094123208" lon="11.4643725794559"><ele>531.0</ele><time>2026-04-11T08:15:32Z</time></trkpt><trkpt lat="43.412943720170354" lon="11.464345693072215"><ele>531.0</ele><time>2026-04-11T08:15:36Z</time></trkpt><trkpt lat="43.412870263213875" lon="11.46435512643639"><ele>527.6</ele><time>2026-04-11T08:15:39Z</time></trkpt><trkpt lat="43.412784301048184" lon="11.464352707090898"><ele>524.2</ele><time>2026-04-11T08:15:42Z</time></trkpt><trkpt lat="43.41269158886581" lon="11.464353191306964"><ele>520.8</ele><time>2026-04-11T08:15:44Z</time></trkpt><trkpt lat="43.412596895311594" lon="11.464353185264317"><ele>517.4</ele><time>2026-04-11T08:15:46Z</time></trkpt><trkpt lat="43.41250463370413" lon="11.464344900231483"><ele>514.0</ele><time>2026-04-11T08:15:48Z</time></trkpt><trkpt lat="43.412400688683945" lon="11.464401040474197"><ele>514.0</ele><time>2026-04-11T08:15:50Z</time></trkpt><trkpt lat="43.412341329217654" lon="11.46443962841145"><ele>514.0</ele><time>2026-04-11T08:15:51Z</time></trkpt><trkpt lat="43.41222395098183" lon="11.464496833497364"><ele>514.0</ele><time>2026-04-11T08:15:53Z</time></trkpt><trkpt lat="43.41214403764625" lon="11.464563727226759"><ele>514.0</ele><time>2026-04-11T08:15:54Z</time></trkpt><trkpt lat="43.41206445458377" lon="11.464609580185718"><ele>514.0</ele><time>2026-04-11T08:15:55Z</time></trkpt><trkpt lat="43.41197195306889" lon="11.464674970595464"><ele>512.1666666666667</ele><time>2026-04-11T08:15:56Z</time></trkpt><trkpt lat="43.411907337156" lon="11.464718559079547"><ele>510.33333333333337</ele><time>2026-04-11T08:15:57Z</time></trkpt><trkpt lat="43.411836286595026" lon="11.464760415636531"><ele>508.5</ele><time>2026-04-11T08:15:58Z</time></trkpt><trkpt lat="43.4117470084332" lon="11.464783330202033"><ele>506.66666666666663</ele><time>2026-04-11T08:16:00Z</time></trkpt><trkpt lat="43.41168504859245" lon="11.46482252261044"><ele>504.8333333333333</ele><time>2026-04-11T08:16:01Z</time></trkpt><trkpt lat="43.411566775084104" lon="11.464793961151614"><ele>503.0</ele><time>2026-04-11T08:16:03Z</time></trkpt><trkpt lat="43.411481338200694" lon="11.464740753678766"><ele>502.99999999999994</ele><time>2026-04-11T08:16:05Z</time></trkpt><trkpt lat="43.41140333492926" lon="11.464711245233202"><ele>503.0</ele><time>2026-04-11T08:16:06Z</time></trkpt><trkpt lat="43.41134486524084" lon="11.464661367918568"><ele>503.0</ele><time>2026-04-11T08:16:07Z</time></trkpt><trkpt lat="43.411240102192465" lon="11.464586863485486"><ele>503.0</ele><time>2026-04-11T08:16:09Z</time></trkpt><trkpt lat="43.41118748278399" lon="11.464538294871055"><ele>502.99999999999994</ele><time>2026-04-11T08:16:10Z</time></trkpt><trkpt lat="43.41108498814145" lon="11.464459246214451"><ele>503.0</ele><time>2026-04-11T08:16:12Z</time></trkpt><trkpt lat="43.410961553530115" lon="11.464423323110443"><ele>501.2</ele><time>2026-04-11T08:16:14Z</time></trkpt><trkpt lat="43.41087712676303" lon="11.464432317063679"><ele>499.4</ele><time>2026-04-11T08:16:16Z</time></trkpt><trkpt lat="43.41078526802845" lon="11.464423337431073"><ele>497.59999999999997</ele><time>2026-04-11T08:16:18Z</time></trkpt><trkpt lat="43.41069439269932" lon="11.464478474069814"><ele>495.79999999999995</ele><time>2026-04-11T08:16:20Z</time></trkpt><trkpt lat="43.41059811635768" lon="11.464473784577969"><ele>494.0</ele><time>2026-04-11T08:16:22Z</time></trkpt><trkpt lat="43.410508427217856" lon="11.464466940170714"><ele>493.5</ele><time>2026-04-11T08:16:24Z</time></trkpt><trkpt lat="43.410397693056396" lon="11.464454092821212"><ele>493.0</ele><time>2026-04-11T08:16:26Z</time></trkpt><trkpt lat="43.41027923324338" lon="11.464447874625039"><ele>492.5</ele><time>2026-04-11T08:16:28Z</time></trkpt><trkpt lat="43.41015361936931" lon="11.46445336328125"><ele>492.0</ele><time>2026-04-11T08:16:30Z</time></trkpt><trkpt lat="43.41004123721005" lon="11.464458481823703"><ele>492.0</ele><time>2026-04-11T08:16:32Z</time></trkpt><trkpt lat="43.409929871330384" lon="11.464461445268968"><ele>492.00000000000006</ele><time>2026-04-11T08:16:34Z</time></trkpt><trkpt lat="43.40982321641822" lon="11.464460741302696"><ele>492.00000000000006</ele><time>2026-04-11T08:16:36Z</time></trkpt><trkpt lat="43.409718073433126" lon="11.46446187499822"><ele>492.0</ele><time>2026-04-11T08:16:38Z</time></trkpt><trkpt lat="43.4096033871136" lon="11.464462112394127"><ele>492.0</ele><time>2026-04-11T08:16:40Z</time></trkpt><trkpt lat="43.409489401333" lon="11.464471626812996"><ele>492.20000000000005</ele><time>2026-04-11T08:16:41.999Z</time></trkpt><trkpt lat="43.40937256564803" lon="11.46446983347739"><ele>492.40000000000003</ele><time>2026-04-11T08:16:43.999Z</time></trkpt><trkpt lat="43.40926264305228" lon="11.464487665902102"><ele>492.59999999999997</ele><time>2026-04-11T08:16:45.999Z</time></trkpt><trkpt lat="43.40916428114825" lon="11.464494298326668"><ele>492.79999999999995</ele><time>2026-04-11T08:16:47.999Z</time></trkpt><trkpt lat="43.4090878463093" lon="11.464512319147923"><ele>493.0</ele><time>2026-04-11T08:16:49.999Z</time></trkpt><trkpt lat="43.409015085752905" lon="11.464534102347988"><ele>493.00000000000006</ele><time>2026-04-11T08:16:51.999Z</time></trkpt><trkpt lat="43.40894574545648" lon="11.464558357652134"><ele>493.0</ele><time>2026-04-11T08:17:16.999Z</time></trkpt><trkpt lat="43.40889462333981" lon="11.464499348264209"><ele>493.0</ele><time>2026-04-11T08:20:55.999Z</time></trkpt><trkpt lat="43.408831055945164" lon="11.46450788324308"><ele>493.0</ele><time>2026-04-11T08:20:58.999Z</time></trkpt><trkpt lat="43.408733434897854" lon="11.464519212762466"><ele>493.00000000000006</ele><time>2026-04-11T08:21:01.999Z</time></trkpt><trkpt lat="43.408649469060634" lon="11.46451633256161"><ele>493.0</ele><time>2026-04-11T08:21:03.999Z</time></trkpt><trkpt lat="43.40855373003472" lon="11.464515527156351"><ele>492.33333333333337</ele><time>2026-04-11T08:21:05.999Z</time></trkpt><trkpt lat="43.40843724805956" lon="11.464494305308436"><ele>491.6666666666667</ele><time>2026-04-11T08:21:07.999Z</time></trkpt><trkpt lat="43.40836274787047" lon="11.464498128089563"><ele>491.0</ele><time>2026-04-11T08:21:08.999Z</time></trkpt><trkpt lat="43.4082947319533" lon="11.464494914205783"><ele>490.33333333333337</ele><time>2026-04-11T08:21:09.999Z</time></trkpt><trkpt lat="43.40822545519228" lon="11.464501856269662"><ele>489.6666666666667</ele><time>2026-04-11T08:21:10.999Z</time></trkpt><trkpt lat="43.40814862885683" lon="11.464498597074728"><ele>489.0</ele><time>2026-04-11T08:21:11.999Z</time></trkpt><trkpt lat="43.40807284501766" lon="11.464498032254156"><ele>489.0</ele><time>2026-04-11T08:21:12.999Z</time></trkpt><trkpt lat="43.407995466537386" lon="11.464502268383205"><ele>489.0</ele><time>2026-04-11T08:21:13.999Z</time></trkpt><trkpt lat="43.40791653191511" lon="11.464521798993157"><ele>489.0</ele><time>2026-04-11T08:21:14.999Z</time></trkpt><trkpt lat="43.4078464773306" lon="11.464522954610956"><ele>489.0</ele><time>2026-04-11T08:21:15.999Z</time></trkpt><trkpt lat="43.40776379510314" lon="11.464538595515181"><ele>489.0</ele><time>2026-04-11T08:21:16.999Z</time></trkpt><trkpt lat="43.40768989315304" lon="11.464558601554605"><ele>489.0</ele><time>2026-04-11T08:21:17.999Z</time></trkpt><trkpt lat="43.40761028449606" lon="11.46455843708529"><ele>487.8571428571429</ele><time>2026-04-11T08:21:18.999Z</time></trkpt><trkpt lat="43.4075394971369" lon="11.464566478421094"><ele>486.7142857142858</ele><time>2026-04-11T08:21:19.999Z</time></trkpt><trkpt lat="43.407471054099396" lon="11.464578036376354"><ele>485.57142857142856</ele><time>2026-04-11T08:21:20.999Z</time></trkpt><trkpt lat="43.40740416966829" lon="11.464590784973883"><ele>484.42857142857144</ele><time>2026-04-11T08:21:21.999Z</time></trkpt><trkpt lat="43.407338684130686" lon="11.464599437189731"><ele>483.2857142857143</ele><time>2026-04-11T08:21:22.999Z</time></trkpt><trkpt lat="43.407275974020294" lon="11.46460765614083"><ele>482.1428571428571</ele><time>2026-04-11T08:21:23.999Z</time></trkpt><trkpt lat="43.4071730118281" lon="11.46462571812048"><ele>480.99999999999994</ele><time>2026-04-11T08:21:25.999Z</time></trkpt><trkpt lat="43.40706072584653" lon="11.464644193592758"><ele>480.25</ele><time>2026-04-11T08:21:27.999Z</time></trkpt><trkpt lat="43.40694528536983" lon="11.46463121174533"><ele>479.5</ele><time>2026-04-11T08:21:29.999Z</time></trkpt><trkpt lat="43.40683976376622" lon="11.464611057545175"><ele>478.75</ele><time>2026-04-11T08:21:31.999Z</time></trkpt><trkpt lat="43.406718790727666" lon="11.46455869743644"><ele>478.0</ele><time>2026-04-11T08:21:33.999Z</time></trkpt><trkpt lat="43.40661006930163" lon="11.464519523110933"><ele>477.2</ele><time>2026-04-11T08:21:35.999Z</time></trkpt><trkpt lat="43.40648975158564" lon="11.464474155948775"><ele>476.4</ele><time>2026-04-11T08:21:37.999Z</time></trkpt><trkpt lat="43.406365013188605" lon="11.46444250885221"><ele>475.59999999999997</ele><time>2026-04-11T08:21:39.999Z</time></trkpt><trkpt lat="43.40629457778763" lon="11.464413096582492"><ele>474.79999999999995</ele><time>2026-04-11T08:21:40.999Z</time></trkpt><trkpt lat="43.40622558622016" lon="11.464397723782596"><ele>474.0</ele><time>2026-04-11T08:21:42Z</time></trkpt><trkpt lat="43.406154113844536" lon="11.464362398599944"><ele>472.79999999999995</ele><time>2026-04-11T08:21:43Z</time></trkpt><trkpt lat="43.40607983000717" lon="11.464333940435433"><ele>471.59999999999997</ele><time>2026-04-11T08:21:44Z</time></trkpt><trkpt lat="43.40600782908436" lon="11.464299066873997"><ele>470.4</ele><time>2026-04-11T08:21:45Z</time></trkpt><trkpt lat="43.4059503797857" lon="11.46423481724893"><ele>469.2</ele><time>2026-04-11T08:21:46Z</time></trkpt><trkpt lat="43.4058120128868" lon="11.46414854257427"><ele>468.0</ele><time>2026-04-11T08:21:48Z</time></trkpt><trkpt lat="43.40574504948718" lon="11.464087900918313"><ele>468.0</ele><time>2026-04-11T08:21:49Z</time></trkpt><trkpt lat="43.40568511738384" lon="11.464031635408965"><ele>467.99999999999994</ele><time>2026-04-11T08:21:50Z</time></trkpt><trkpt lat="43.40561659196367" lon="11.46395825399404"><ele>467.99999999999994</ele><time>2026-04-11T08:21:51Z</time></trkpt><trkpt lat="43.40552301944937" lon="11.463866619130403"><ele>468.0</ele><time>2026-04-11T08:21:53Z</time></trkpt><trkpt lat="43.40542347197946" lon="11.463775367495826"><ele>468.0</ele><time>2026-04-11T08:21:55Z</time></trkpt><trkpt lat="43.405371427207804" lon="11.463725267032771"><ele>465.0</ele><time>2026-04-11T08:21:56Z</time></trkpt><trkpt lat="43.405280833843186" lon="11.463614701356535"><ele>461.99999999999994</ele><time>2026-04-11T08:21:58Z</time></trkpt><trkpt lat="43.40519926497624" lon="11.463499989361866"><ele>458.99999999999994</ele><time>2026-04-11T08:22:00Z</time></trkpt><trkpt lat="43.405157479649006" lon="11.46343407065543"><ele>456.0</ele><time>2026-04-11T08:22:01Z</time></trkpt><trkpt lat="43.40506643449591" lon="11.463318283861046"><ele>453.0</ele><time>2026-04-11T08:22:03Z</time></trkpt><trkpt lat="43.40501669991934" lon="11.463260450991585"><ele>453.0</ele><time>2026-04-11T08:22:04Z</time></trkpt><trkpt lat="43.404980062435726" lon="11.46318783159126"><ele>452.99999999999994</ele><time>2026-04-11T08:22:05Z</time></trkpt><trkpt lat="43.40490719431357" lon="11.46305336487519"><ele>452.99999999999994</ele><time>2026-04-11T08:22:07Z</time></trkpt><trkpt lat="43.40481972872668" lon="11.462942881312891"><ele>453.0</ele><time>2026-04-11T08:22:09Z</time></trkpt><trkpt lat="43.40477376178127" lon="11.462874700792915"><ele>453.0</ele><time>2026-04-11T08:22:10Z</time></trkpt><trkpt lat="43.40475124820495" lon="11.462714147114042"><ele>453.59999999999997</ele><time>2026-04-11T08:22:12Z</time></trkpt><trkpt lat="43.404722720956904" lon="11.46256463345116"><ele>454.19999999999993</ele><time>2026-04-11T08:22:14Z</time></trkpt><trkpt lat="43.404707313377635" lon="11.462442004074207"><ele>454.8</ele><time>2026-04-11T08:22:16Z</time></trkpt><trkpt lat="43.40468584384085" lon="11.462311294477537"><ele>455.4</ele><time>2026-04-11T08:22:18Z</time></trkpt><trkpt lat="43.40467429370304" lon="11.462191193653515"><ele>456.0</ele><time>2026-04-11T08:22:20Z</time></trkpt><trkpt lat="43.404639884072" lon="11.462066058617653"><ele>456.0</ele><time>2026-04-11T08:22:22Z</time></trkpt><trkpt lat="43.40462460430339" lon="11.461949276022098"><ele>456.0</ele><time>2026-04-11T08:22:24Z</time></trkpt><trkpt lat="43.40459738634234" lon="11.461823046012789"><ele>456.0</ele><time>2026-04-11T08:22:26Z</time></trkpt><trkpt lat="43.404572964170534" lon="11.461708461477288"><ele>456.0</ele><time>2026-04-11T08:22:28Z</time></trkpt><trkpt lat="43.404537286459046" lon="11.461585716856876"><ele>456.0</ele><time>2026-04-11T08:22:30Z</time></trkpt><trkpt lat="43.40449594046664" lon="11.461476436579737"><ele>456.0</ele><time>2026-04-11T08:22:32Z</time></trkpt><trkpt lat="43.4044428353576" lon="11.461368528820516"><ele>456.0</ele><time>2026-04-11T08:22:34Z</time></trkpt><trkpt lat="43.40440565683884" lon="11.461266178166076"><ele>456.0</ele><time>2026-04-11T08:22:36Z</time></trkpt><trkpt lat="43.404349064084236" lon="11.461160369132259"><ele>456.0</ele><time>2026-04-11T08:22:38Z</time></trkpt><trkpt lat="43.404294412409094" lon="11.461048489557879"><ele>456.0</ele><time>2026-04-11T08:22:40Z</time></trkpt><trkpt lat="43.4042444244055" lon="11.460930951342112"><ele>456.0</ele><time>2026-04-11T08:22:42Z</time></trkpt><trkpt lat="43.404195199554024" lon="11.460818186098033"><ele>456.0</ele><time>2026-04-11T08:22:44Z</time></trkpt><trkpt lat="43.404147224157974" lon="11.460715948636754"><ele>456.0</ele><time>2026-04-11T08:22:46Z</time></trkpt><trkpt lat="43.404107862811315" lon="11.460590243723768"><ele>456.0</ele><time>2026-04-11T08:22:48Z</time></trkpt><trkpt lat="43.40408825316261" lon="11.460465690250224"><ele>456.0</ele><time>2026-04-11T08:22:50Z</time></trkpt><trkpt lat="43.40409626569075" lon="11.460345250464915"><ele>456.0</ele><time>2026-04-11T08:22:52Z</time></trkpt><trkpt lat="43.40410812798128" lon="11.460240810913476"><ele>456.0</ele><time>2026-04-11T08:22:54Z</time></trkpt><trkpt lat="43.40412629879104" lon="11.460115502011753"><ele>456.0</ele><time>2026-04-11T08:22:56Z</time></trkpt><trkpt lat="43.40414566566263" lon="11.459985051030483"><ele>456.0</ele><time>2026-04-11T08:22:57.999Z</time></trkpt><trkpt lat="43.40415619627219" lon="11.459861801348591"><ele>456.0</ele><time>2026-04-11T08:22:59.999Z</time></trkpt><trkpt lat="43.40417010373669" lon="11.459736410640671"><ele>456.0</ele><time>2026-04-11T08:23:01.999Z</time></trkpt><trkpt lat="43.40419742683746" lon="11.459607282690792"><ele>455.8</ele><time>2026-04-11T08:23:03.999Z</time></trkpt><trkpt lat="43.40425498868418" lon="11.459491631590673"><ele>455.6</ele><time>2026-04-11T08:23:05.999Z</time></trkpt><trkpt lat="43.40431335519725" lon="11.459371827307326"><ele>455.4</ele><time>2026-04-11T08:23:07.999Z</time></trkpt><trkpt lat="43.40437508673043" lon="11.459261512267618"><ele>455.2</ele><time>2026-04-11T08:23:09.999Z</time></trkpt><trkpt lat="43.40444101249001" lon="11.459153961920526"><ele>455.0</ele><time>2026-04-11T08:23:11.999Z</time></trkpt><trkpt lat="43.404509547871115" lon="11.459054330140392"><ele>455.0</ele><time>2026-04-11T08:23:13.999Z</time></trkpt><trkpt lat="43.40458248331093" lon="11.458961787372878"><ele>455.0</ele><time>2026-04-11T08:23:15.999Z</time></trkpt><trkpt lat="43.40463092504485" lon="11.458860369718174"><ele>455.0</ele><time>2026-04-11T08:23:17.999Z</time></trkpt><trkpt lat="43.40470036318551" lon="11.458793021181487"><ele>455.0</ele><time>2026-04-11T08:23:19.999Z</time></trkpt><trkpt lat="43.40477154968869" lon="11.458688171385115"><ele>455.0</ele><time>2026-04-11T08:23:21.999Z</time></trkpt><trkpt lat="43.40481470515548" lon="11.458536106344152"><ele>454.2</ele><time>2026-04-11T08:23:23.999Z</time></trkpt><trkpt lat="43.40485084313359" lon="11.458373846987133"><ele>453.4</ele><time>2026-04-11T08:23:25.999Z</time></trkpt><trkpt lat="43.40486979244872" lon="11.458290021504611"><ele>452.6</ele><time>2026-04-11T08:23:26.999Z</time></trkpt><trkpt lat="43.40489463021557" lon="11.458203573705473"><ele>451.8</ele><time>2026-04-11T08:23:27.999Z</time></trkpt><trkpt lat="43.40496469137664" lon="11.458101701941562"><ele>451.0</ele><time>2026-04-11T08:23:29.999Z</time></trkpt><trkpt lat="43.405022650883275" lon="11.457999550001507"><ele>449.6666666666667</ele><time>2026-04-11T08:23:31.999Z</time></trkpt><trkpt lat="43.405045732738785" lon="11.45783645914864"><ele>448.33333333333337</ele><time>2026-04-11T08:23:33.999Z</time></trkpt><trkpt lat="43.40504117613888" lon="11.457742399308632"><ele>447.0</ele><time>2026-04-11T08:23:34.999Z</time></trkpt><trkpt lat="43.40503802400987" lon="11.457638922408526"><ele>445.66666666666663</ele><time>2026-04-11T08:23:35.999Z</time></trkpt><trkpt lat="43.405032739847776" lon="11.45753182421567"><ele>444.3333333333333</ele><time>2026-04-11T08:23:36.999Z</time></trkpt><trkpt lat="43.40502618064201" lon="11.457430585200147"><ele>443.0</ele><time>2026-04-11T08:23:37.999Z</time></trkpt><trkpt lat="43.40501738273061" lon="11.45734098768505"><ele>443.0</ele><time>2026-04-11T08:23:38.999Z</time></trkpt><trkpt lat="43.405007841279925" lon="11.457250369682082"><ele>443.0</ele><time>2026-04-11T08:23:39.999Z</time></trkpt><trkpt lat="43.4049804788306" lon="11.457162785032562"><ele>443.0</ele><time>2026-04-11T08:23:40.999Z</time></trkpt><trkpt lat="43.40496859135631" lon="11.457073388796685"><ele>443.0</ele><time>2026-04-11T08:23:41.999Z</time></trkpt><trkpt lat="43.404964720836155" lon="11.45697797673592"><ele>443.0</ele><time>2026-04-11T08:23:42.999Z</time></trkpt><trkpt lat="43.40493562180872" lon="11.456880562306118"><ele>443.0</ele><time>2026-04-11T08:23:43.999Z</time></trkpt><trkpt lat="43.404892022927676" lon="11.456803599238174"><ele>443.0</ele><time>2026-04-11T08:23:44.999Z</time></trkpt><trkpt lat="43.404847603943125" lon="11.456645803465479"><ele>441.8333333333333</ele><time>2026-04-11T08:23:46.999Z</time></trkpt><trkpt lat="43.404805669751475" lon="11.456534857325089"><ele>440.66666666666663</ele><time>2026-04-11T08:23:49Z</time></trkpt><trkpt lat="43.40481237004315" lon="11.456414154389185"><ele>439.5</ele><time>2026-04-11T08:23:51Z</time></trkpt><trkpt lat="43.404903333224794" lon="11.456349605002943"><ele>438.33333333333337</ele><time>2026-04-11T08:23:53Z</time></trkpt><trkpt lat="43.4049813005608" lon="11.45635912035124"><ele>437.1666666666667</ele><time>2026-04-11T08:23:55Z</time></trkpt><trkpt lat="43.405058276685644" lon="11.45637147099585"><ele>436.0</ele><time>2026-04-11T08:23:57Z</time></trkpt><trkpt lat="43.40517398477751" lon="11.456385470792714"><ele>436.00000000000006</ele><time>2026-04-11T08:23:59Z</time></trkpt><trkpt lat="43.40523818385075" lon="11.456394226561459"><ele>436.0</ele><time>2026-04-11T08:24:00Z</time></trkpt><trkpt lat="43.40530390638972" lon="11.4564031901102"><ele>436.0</ele><time>2026-04-11T08:24:01Z</time></trkpt><trkpt lat="43.40536821446552" lon="11.45641061532257"><ele>436.0</ele><time>2026-04-11T08:24:02Z</time></trkpt><trkpt lat="43.4054827907888" lon="11.456404601667648"><ele>436.00000000000006</ele><time>2026-04-11T08:24:04Z</time></trkpt><trkpt lat="43.405588681817896" lon="11.456396338852322"><ele>436.0</ele><time>2026-04-11T08:24:06Z</time></trkpt><trkpt lat="43.40569256474628" lon="11.456347827655522"><ele>434.7142857142857</ele><time>2026-04-11T08:24:08Z</time></trkpt><trkpt lat="43.405747139948325" lon="11.456304135192957"><ele>433.42857142857144</ele><time>2026-04-11T08:24:09Z</time></trkpt><trkpt lat="43.405804489965824" lon="11.456234376079125"><ele>432.1428571428571</ele><time>2026-04-11T08:24:10Z</time></trkpt><trkpt lat="43.40585968662042" lon="11.456165560155142"><ele>430.8571428571429</ele><time>2026-04-11T08:24:11Z</time></trkpt><trkpt lat="43.405906790915175" lon="11.456091218467629"><ele>429.57142857142856</ele><time>2026-04-11T08:24:12Z</time></trkpt><trkpt lat="43.40594897884821" lon="11.456020957393996"><ele>428.2857142857143</ele><time>2026-04-11T08:24:13Z</time></trkpt><trkpt lat="43.405988430208446" lon="11.455939958655884"><ele>427.0</ele><time>2026-04-11T08:24:14Z</time></trkpt><trkpt lat="43.406021530625395" lon="11.455851163268804"><ele>426.83333333333337</ele><time>2026-04-11T08:24:15Z</time></trkpt><trkpt lat="43.40604141032037" lon="11.455747443155214"><ele>426.6666666666667</ele><time>2026-04-11T08:24:16Z</time></trkpt><trkpt lat="43.40606097492242" lon="11.455643931160825"><ele>426.5</ele><time>2026-04-11T08:24:17Z</time></trkpt><trkpt lat="43.40607312460695" lon="11.455537142658052"><ele>426.33333333333337</ele><time>2026-04-11T08:24:18Z</time></trkpt><trkpt lat="43.406081154869355" lon="11.455440198387056"><ele>426.1666666666667</ele><time>2026-04-11T08:24:19Z</time></trkpt><trkpt lat="43.40609405061555" lon="11.455339496794197"><ele>426.0</ele><time>2026-04-11T08:24:20Z</time></trkpt><trkpt lat="43.406110176150214" lon="11.45523879651181"><ele>425.3333333333333</ele><time>2026-04-11T08:24:21Z</time></trkpt><trkpt lat="43.40613441529416" lon="11.455136617959678"><ele>424.66666666666663</ele><time>2026-04-11T08:24:22Z</time></trkpt><trkpt lat="43.40616138648363" lon="11.455039898629149"><ele>424.0</ele><time>2026-04-11T08:24:23Z</time></trkpt><trkpt lat="43.40618965393236" lon="11.45493461620197"><ele>423.3333333333333</ele><time>2026-04-11T08:24:24Z</time></trkpt><trkpt lat="43.406212352116995" lon="11.454846666879726"><ele>422.66666666666663</ele><time>2026-04-11T08:24:25Z</time></trkpt><trkpt lat="43.40624196228811" lon="11.454749838129114"><ele>422.0</ele><time>2026-04-11T08:24:26Z</time></trkpt><trkpt lat="43.40627601395686" lon="11.454662515136727"><ele>421.42857142857144</ele><time>2026-04-11T08:24:27Z</time></trkpt><trkpt lat="43.40631033632769" lon="11.45458680456814"><ele>420.8571428571429</ele><time>2026-04-11T08:24:28Z</time></trkpt><trkpt lat="43.406358563532095" lon="11.454521098233167"><ele>420.2857142857143</ele><time>2026-04-11T08:24:29Z</time></trkpt><trkpt lat="43.406405625918296" lon="11.454448791721095"><ele>419.7142857142857</ele><time>2026-04-11T08:24:30Z</time></trkpt><trkpt lat="43.40645312122052" lon="11.454373089219533"><ele>419.1428571428571</ele><time>2026-04-11T08:24:31Z</time></trkpt><trkpt lat="43.40648862973204" lon="11.454279391109969"><ele>418.57142857142856</ele><time>2026-04-11T08:24:32Z</time></trkpt><trkpt lat="43.40651426094573" lon="11.454171829005395"><ele>418.0</ele><time>2026-04-11T08:24:33Z</time></trkpt><trkpt lat="43.406537867425044" lon="11.454068698998702"><ele>417.00000000000006</ele><time>2026-04-11T08:24:34Z</time></trkpt><trkpt lat="43.40655900599322" lon="11.45396336698746"><ele>416.0</ele><time>2026-04-11T08:24:35Z</time></trkpt><trkpt lat="43.406573928815156" lon="11.453858346890929"><ele>415.0</ele><time>2026-04-11T08:24:36Z</time></trkpt><trkpt lat="43.40657945282693" lon="11.453756009206185"><ele>414.0</ele><time>2026-04-11T08:24:37Z</time></trkpt><trkpt lat="43.40657410161279" lon="11.453657303230957"><ele>413.00000000000006</ele><time>2026-04-11T08:24:38Z</time></trkpt><trkpt lat="43.40654720009643" lon="11.453559115011792"><ele>412.0</ele><time>2026-04-11T08:24:39Z</time></trkpt><trkpt lat="43.406516649988255" lon="11.453469164472521"><ele>411.99999999999994</ele><time>2026-04-11T08:24:40Z</time></trkpt><trkpt lat="43.40648160218986" lon="11.45338717390689"><ele>412.0</ele><time>2026-04-11T08:24:41Z</time></trkpt><trkpt lat="43.4064636652532" lon="11.453302671264213"><ele>412.0</ele><time>2026-04-11T08:24:42Z</time></trkpt><trkpt lat="43.4064475592631" lon="11.453201396338118"><ele>412.0</ele><time>2026-04-11T08:24:43Z</time></trkpt><trkpt lat="43.40643970578157" lon="11.453101558041999"><ele>412.0</ele><time>2026-04-11T08:24:44Z</time></trkpt><trkpt lat="43.406439639277224" lon="11.452998600473109"><ele>411.99999999999994</ele><time>2026-04-11T08:24:45Z</time></trkpt><trkpt lat="43.40647081747353" lon="11.452903050083716"><ele>412.0</ele><time>2026-04-11T08:24:46Z</time></trkpt><trkpt lat="43.406492794650745" lon="11.452814282420867"><ele>411.50000000000006</ele><time>2026-04-11T08:24:47Z</time></trkpt><trkpt lat="43.40650056041122" lon="11.452717649144965"><ele>411.0</ele><time>2026-04-11T08:24:48Z</time></trkpt><trkpt lat="43.40651187055345" lon="11.45261165802252"><ele>410.5</ele><time>2026-04-11T08:24:49Z</time></trkpt><trkpt lat="43.40651642376759" lon="11.452502038218245"><ele>410.0</ele><time>2026-04-11T08:24:50Z</time></trkpt><trkpt lat="43.406519404433794" lon="11.45239588663364"><ele>409.50000000000006</ele><time>2026-04-11T08:24:51Z</time></trkpt><trkpt lat="43.40652392906492" lon="11.452284646219514"><ele>409.0</ele><time>2026-04-11T08:24:52Z</time></trkpt><trkpt lat="43.40652680258051" lon="11.452171281809845"><ele>408.00000000000006</ele><time>2026-04-11T08:24:53Z</time></trkpt><trkpt lat="43.40652166046568" lon="11.452057517072069"><ele>407.0</ele><time>2026-04-11T08:24:54Z</time></trkpt><trkpt lat="43.406507617808586" lon="11.451947459970242"><ele>406.0</ele><time>2026-04-11T08:24:55Z</time></trkpt><trkpt lat="43.406477682326695" lon="11.451851336328906"><ele>405.0</ele><time>2026-04-11T08:24:56Z</time></trkpt><trkpt lat="43.40643788406864" lon="11.451760575099312"><ele>404.00000000000006</ele><time>2026-04-11T08:24:57Z</time></trkpt><trkpt lat="43.406392096896276" lon="11.451674455341873"><ele>403.0</ele><time>2026-04-11T08:24:58Z</time></trkpt><trkpt lat="43.40635892639807" lon="11.451588173903962"><ele>404.59999999999997</ele><time>2026-04-11T08:24:59Z</time></trkpt><trkpt lat="43.40631522855503" lon="11.451503993674025"><ele>406.2</ele><time>2026-04-11T08:25:00Z</time></trkpt><trkpt lat="43.406233802526344" lon="11.451365532778564"><ele>407.8</ele><time>2026-04-11T08:25:01.999Z</time></trkpt><trkpt lat="43.40614819127791" lon="11.451222717889557"><ele>409.4</ele><time>2026-04-11T08:25:03.999Z</time></trkpt><trkpt lat="43.40610959935652" lon="11.451145951220793"><ele>411.0</ele><time>2026-04-11T08:25:04.999Z</time></trkpt><trkpt lat="43.406067298060684" lon="11.451063625328368"><ele>411.0</ele><time>2026-04-11T08:25:05.999Z</time></trkpt><trkpt lat="43.4060280703434" lon="11.450976966060818"><ele>411.0</ele><time>2026-04-11T08:25:06.999Z</time></trkpt><trkpt lat="43.4059921654485" lon="11.450881108712426"><ele>411.0</ele><time>2026-04-11T08:25:07.999Z</time></trkpt><trkpt lat="43.405959944494924" lon="11.450790528250923"><ele>411.0</ele><time>2026-04-11T08:25:08.999Z</time></trkpt><trkpt lat="43.405928111768745" lon="11.45069202045378"><ele>411.0</ele><time>2026-04-11T08:25:09.999Z</time></trkpt><trkpt lat="43.405907467603015" lon="11.450593536310766"><ele>411.0</ele><time>2026-04-11T08:25:10.999Z</time></trkpt><trkpt lat="43.40588329618673" lon="11.450496014408566"><ele>410.5</ele><time>2026-04-11T08:25:11.999Z</time></trkpt><trkpt lat="43.4058759112782" lon="11.450395238035709"><ele>410.0</ele><time>2026-04-11T08:25:12.999Z</time></trkpt><trkpt lat="43.40583081519155" lon="11.450312251794408"><ele>409.5</ele><time>2026-04-11T08:25:13.999Z</time></trkpt><trkpt lat="43.40578065316734" lon="11.45014397041352"><ele>409.0</ele><time>2026-04-11T08:25:15.999Z</time></trkpt><trkpt lat="43.40574485196638" lon="11.450059744599153"><ele>408.5</ele><time>2026-04-11T08:25:16.999Z</time></trkpt><trkpt lat="43.40570642248409" lon="11.449975196199624"><ele>408.0</ele><time>2026-04-11T08:25:17.999Z</time></trkpt><trkpt lat="43.40566758992344" lon="11.449886124130993"><ele>408.0</ele><time>2026-04-11T08:25:18.999Z</time></trkpt><trkpt lat="43.40562272763421" lon="11.449803179681572"><ele>408.0</ele><time>2026-04-11T08:25:19.999Z</time></trkpt><trkpt lat="43.40557423045033" lon="11.449715696010612"><ele>408.0</ele><time>2026-04-11T08:25:20.999Z</time></trkpt><trkpt lat="43.40552883084095" lon="11.449622794973116"><ele>408.0</ele><time>2026-04-11T08:25:21.999Z</time></trkpt><trkpt lat="43.40547713360234" lon="11.449535207993568"><ele>408.0</ele><time>2026-04-11T08:25:22.999Z</time></trkpt><trkpt lat="43.405421191278215" lon="11.449448379135196"><ele>408.0</ele><time>2026-04-11T08:25:23.999Z</time></trkpt><trkpt lat="43.4053632451108" lon="11.449368315957697"><ele>406.8333333333333</ele><time>2026-04-11T08:25:24.999Z</time></trkpt><trkpt lat="43.405305515815996" lon="11.449270453405315"><ele>405.66666666666663</ele><time>2026-04-11T08:25:25.999Z</time></trkpt><trkpt lat="43.40525510032385" lon="11.449179318485111"><ele>404.5</ele><time>2026-04-11T08:25:26.999Z</time></trkpt><trkpt lat="43.405202198868515" lon="11.449098026928082"><ele>403.3333333333333</ele><time>2026-04-11T08:25:27.999Z</time></trkpt><trkpt lat="43.405153975998765" lon="11.449019507386101"><ele>402.16666666666663</ele><time>2026-04-11T08:25:28.999Z</time></trkpt><trkpt lat="43.40512529962052" lon="11.448930924316796"><ele>401.0</ele><time>2026-04-11T08:25:29.999Z</time></trkpt><trkpt lat="43.405097788487524" lon="11.448839788002719"><ele>400.66666666666663</ele><time>2026-04-11T08:25:30.999Z</time></trkpt><trkpt lat="43.405071841908" lon="11.448742744127435"><ele>400.3333333333333</ele><time>2026-04-11T08:25:31.999Z</time></trkpt><trkpt lat="43.404993384388895" lon="11.44865456926468"><ele>400.0</ele><time>2026-04-11T08:25:32.999Z</time></trkpt><trkpt lat="43.40493341680174" lon="11.448600871325263"><ele>399.66666666666663</ele><time>2026-04-11T08:25:33.999Z</time></trkpt><trkpt lat="43.40487295944705" lon="11.448556676276128"><ele>399.3333333333333</ele><time>2026-04-11T08:25:34.999Z</time></trkpt><trkpt lat="43.40480240717693" lon="11.448509713430584"><ele>399.0</ele><time>2026-04-11T08:25:35.999Z</time></trkpt><trkpt lat="43.40475235520879" lon="11.44844625927172"><ele>399.0</ele><time>2026-04-11T08:25:36.999Z</time></trkpt><trkpt lat="43.404700333932965" lon="11.448384781979353"><ele>399.0</ele><time>2026-04-11T08:25:37.999Z</time></trkpt><trkpt lat="43.404637006012166" lon="11.44833670709993"><ele>399.0</ele><time>2026-04-11T08:25:38.999Z</time></trkpt><trkpt lat="43.40457115860246" lon="11.448299477046112"><ele>399.0</ele><time>2026-04-11T08:25:39.999Z</time></trkpt><trkpt lat="43.404506217311265" lon="11.448252988714417"><ele>399.0</ele><time>2026-04-11T08:25:40.999Z</time></trkpt><trkpt lat="43.40444741202461" lon="11.44819733218664"><ele>399.0</ele><time>2026-04-11T08:25:41.999Z</time></trkpt><trkpt lat="43.404383775944545" lon="11.44814905904899"><ele>399.0</ele><time>2026-04-11T08:25:42.999Z</time></trkpt><trkpt lat="43.40431190090465" lon="11.448099635126908"><ele>398.8333333333333</ele><time>2026-04-11T08:25:43.999Z</time></trkpt><trkpt lat="43.404245849480446" lon="11.44805256224436"><ele>398.66666666666663</ele><time>2026-04-11T08:25:44.999Z</time></trkpt><trkpt lat="43.40418034841767" lon="11.448001927194326"><ele>398.5</ele><time>2026-04-11T08:25:45.999Z</time></trkpt><trkpt lat="43.404109256261464" lon="11.447948961687052"><ele>398.3333333333333</ele><time>2026-04-11T08:25:46.999Z</time></trkpt><trkpt lat="43.404038935965204" lon="11.44789609321182"><ele>398.16666666666663</ele><time>2026-04-11T08:25:47.999Z</time></trkpt><trkpt lat="43.40396951806398" lon="11.447855848544501"><ele>398.0</ele><time>2026-04-11T08:25:48.999Z</time></trkpt><trkpt lat="43.40389310327645" lon="11.447816282227773"><ele>398.16666666666663</ele><time>2026-04-11T08:25:49.999Z</time></trkpt><trkpt lat="43.40382197390592" lon="11.44779077548305"><ele>398.3333333333333</ele><time>2026-04-11T08:25:50.999Z</time></trkpt><trkpt lat="43.40375212984432" lon="11.44776038588443"><ele>398.5</ele><time>2026-04-11T08:25:51.999Z</time></trkpt><trkpt lat="43.40367691836252" lon="11.447744429001611"><ele>398.66666666666663</ele><time>2026-04-11T08:25:52.999Z</time></trkpt><trkpt lat="43.4036032378115" lon="11.447715904073718"><ele>398.8333333333333</ele><time>2026-04-11T08:25:54Z</time></trkpt><trkpt lat="43.40352991773631" lon="11.44768258567033"><ele>399.0</ele><time>2026-04-11T08:25:55Z</time></trkpt><trkpt lat="43.403458369846625" lon="11.447653587268864"><ele>399.0</ele><time>2026-04-11T08:25:56Z</time></trkpt><trkpt lat="43.403380216403775" lon="11.447622946087114"><ele>399.0</ele><time>2026-04-11T08:25:57Z</time></trkpt><trkpt lat="43.40330558040767" lon="11.447582146786624"><ele>399.0</ele><time>2026-04-11T08:25:58Z</time></trkpt><trkpt lat="43.40322623094903" lon="11.447532388786342"><ele>399.0</ele><time>2026-04-11T08:25:59Z</time></trkpt><trkpt lat="43.40314984670264" lon="11.447487003280981"><ele>399.0</ele><time>2026-04-11T08:26:00Z</time></trkpt><trkpt lat="43.40307387488934" lon="11.447445178642726"><ele>399.0</ele><time>2026-04-11T08:26:01Z</time></trkpt><trkpt lat="43.402999318658296" lon="11.447403465822951"><ele>397.6666666666667</ele><time>2026-04-11T08:26:02Z</time></trkpt><trkpt lat="43.40291340512127" lon="11.447346851603669"><ele>396.33333333333337</ele><time>2026-04-11T08:26:03Z</time></trkpt><trkpt lat="43.402829653303876" lon="11.447307005106337"><ele>395.0</ele><time>2026-04-11T08:26:04Z</time></trkpt><trkpt lat="43.40276693785924" lon="11.447267227114747"><ele>393.6666666666667</ele><time>2026-04-11T08:26:05Z</time></trkpt><trkpt lat="43.40269211841348" lon="11.447220145704822"><ele>392.33333333333337</ele><time>2026-04-11T08:26:06Z</time></trkpt><trkpt lat="43.402616865366156" lon="11.4471756144573"><ele>391.0</ele><time>2026-04-11T08:26:07Z</time></trkpt><trkpt lat="43.40254176916061" lon="11.447131436475274"><ele>390.50000000000006</ele><time>2026-04-11T08:26:08Z</time></trkpt><trkpt lat="43.40246572317681" lon="11.447085118259267"><ele>390.0</ele><time>2026-04-11T08:26:09Z</time></trkpt><trkpt lat="43.4023849471877" lon="11.447034927339743"><ele>389.5</ele><time>2026-04-11T08:26:10Z</time></trkpt><trkpt lat="43.40230464590338" lon="11.446985795290201"><ele>389.0</ele><time>2026-04-11T08:26:11Z</time></trkpt><trkpt lat="43.40222123612773" lon="11.446932129352012"><ele>388.50000000000006</ele><time>2026-04-11T08:26:12Z</time></trkpt><trkpt lat="43.40214688384396" lon="11.446875467502624"><ele>388.0</ele><time>2026-04-11T08:26:13Z</time></trkpt><trkpt lat="43.40206618796717" lon="11.446823840188232"><ele>388.0</ele><time>2026-04-11T08:26:14Z</time></trkpt><trkpt lat="43.40200010214616" lon="11.446747710445965"><ele>388.0</ele><time>2026-04-11T08:26:15Z</time></trkpt><trkpt lat="43.4019223973645" lon="11.446686845359702"><ele>388.0</ele><time>2026-04-11T08:26:16Z</time></trkpt><trkpt lat="43.4018433157069" lon="11.446608149481113"><ele>388.0</ele><time>2026-04-11T08:26:17Z</time></trkpt><trkpt lat="43.40177260885533" lon="11.44651927233092"><ele>388.0</ele><time>2026-04-11T08:26:18Z</time></trkpt><trkpt lat="43.40170438564379" lon="11.446431997001335"><ele>388.0</ele><time>2026-04-11T08:26:19Z</time></trkpt><trkpt lat="43.40163306897597" lon="11.446346744018095"><ele>388.0</ele><time>2026-04-11T08:26:20Z</time></trkpt><trkpt lat="43.401564254495966" lon="11.44626043317963"><ele>388.0</ele><time>2026-04-11T08:26:21Z</time></trkpt><trkpt lat="43.40148989050161" lon="11.44617379953673"><ele>388.0</ele><time>2026-04-11T08:26:22Z</time></trkpt><trkpt lat="43.40142367534119" lon="11.446081681401235"><ele>388.0</ele><time>2026-04-11T08:26:23Z</time></trkpt><trkpt lat="43.40135610461371" lon="11.445984864858287"><ele>387.0</ele><time>2026-04-11T08:26:24Z</time></trkpt><trkpt lat="43.40129318710982" lon="11.445878033938472"><ele>386.0</ele><time>2026-04-11T08:26:25Z</time></trkpt><trkpt lat="43.40122796638539" lon="11.445775819407341"><ele>385.0</ele><time>2026-04-11T08:26:26Z</time></trkpt><trkpt lat="43.40116652626123" lon="11.445679940662414"><ele>384.0</ele><time>2026-04-11T08:26:27Z</time></trkpt><trkpt lat="43.40110802204712" lon="11.445578568990893"><ele>383.0</ele><time>2026-04-11T08:26:28Z</time></trkpt><trkpt lat="43.40105177181436" lon="11.445476486175268"><ele>382.79999999999995</ele><time>2026-04-11T08:26:29Z</time></trkpt><trkpt lat="43.40100132265257" lon="11.445381294278599"><ele>382.6</ele><time>2026-04-11T08:26:30Z</time></trkpt><trkpt lat="43.40091994372005" lon="11.445272470366582"><ele>382.4</ele><time>2026-04-11T08:26:31Z</time></trkpt><trkpt lat="43.400848964907354" lon="11.445175407990908"><ele>382.20000000000005</ele><time>2026-04-11T08:26:32Z</time></trkpt><trkpt lat="43.400790130433315" lon="11.44509295252481"><ele>382.0</ele><time>2026-04-11T08:26:33Z</time></trkpt><trkpt lat="43.40071582500195" lon="11.444995562115173"><ele>382.0</ele><time>2026-04-11T08:26:34Z</time></trkpt><trkpt lat="43.40063929406507" lon="11.444904806137059"><ele>382.0</ele><time>2026-04-11T08:26:35Z</time></trkpt><trkpt lat="43.40056929323536" lon="11.444813987902188"><ele>382.0</ele><time>2026-04-11T08:26:36Z</time></trkpt><trkpt lat="43.40049916286581" lon="11.4447189212985"><ele>382.0</ele><time>2026-04-11T08:26:37Z</time></trkpt><trkpt lat="43.40043623793175" lon="11.444618090177194"><ele>382.0</ele><time>2026-04-11T08:26:38Z</time></trkpt><trkpt lat="43.40036703990932" lon="11.444518858376759"><ele>381.0</ele><time>2026-04-11T08:26:39Z</time></trkpt><trkpt lat="43.400293105592375" lon="11.444421892688906"><ele>380.0</ele><time>2026-04-11T08:26:40Z</time></trkpt><trkpt lat="43.400218852732586" lon="11.444328138385616"><ele>379.0</ele><time>2026-04-11T08:26:41Z</time></trkpt><trkpt lat="43.40014478717446" lon="11.444236245510675"><ele>378.0</ele><time>2026-04-11T08:26:42Z</time></trkpt><trkpt lat="43.400069394657194" lon="11.444146673571785"><ele>377.0</ele><time>2026-04-11T08:26:43Z</time></trkpt><trkpt lat="43.40000609149254" lon="11.444053910434503"><ele>377.0</ele><time>2026-04-11T08:26:44Z</time></trkpt><trkpt lat="43.39993897585083" lon="11.44396395408324"><ele>377.0</ele><time>2026-04-11T08:26:45Z</time></trkpt><trkpt lat="43.39986656844904" lon="11.4438768681058"><ele>377.0</ele><time>2026-04-11T08:26:46Z</time></trkpt><trkpt lat="43.3997976142649" lon="11.443799880739748"><ele>377.0</ele><time>2026-04-11T08:26:47Z</time></trkpt><trkpt lat="43.399724846392395" lon="11.443730344719652"><ele>377.0</ele><time>2026-04-11T08:26:48Z</time></trkpt><trkpt lat="43.39965167515168" lon="11.443679674619965"><ele>377.0</ele><time>2026-04-11T08:26:49Z</time></trkpt><trkpt lat="43.39957139881111" lon="11.44364892592655"><ele>376.8</ele><time>2026-04-11T08:26:50Z</time></trkpt><trkpt lat="43.39949281865458" lon="11.443618512748307"><ele>376.6</ele><time>2026-04-11T08:26:51Z</time></trkpt><trkpt lat="43.399422919059774" lon="11.4435874312797"><ele>376.40000000000003</ele><time>2026-04-11T08:26:52Z</time></trkpt><trkpt lat="43.399295997898285" lon="11.443521139697376"><ele>376.20000000000005</ele><time>2026-04-11T08:26:54Z</time></trkpt><trkpt lat="43.39917451711255" lon="11.443484726609865"><ele>376.0</ele><time>2026-04-11T08:26:56Z</time></trkpt><trkpt lat="43.39911016891734" lon="11.443456307954257"><ele>376.0</ele><time>2026-04-11T08:26:57Z</time></trkpt><trkpt lat="43.398984691750876" lon="11.44344292330815"><ele>376.0</ele><time>2026-04-11T08:26:59Z</time></trkpt><trkpt lat="43.39891968672771" lon="11.443445315995008"><ele>376.0</ele><time>2026-04-11T08:27:00Z</time></trkpt><trkpt lat="43.39880621644716" lon="11.443468742540965"><ele>376.0</ele><time>2026-04-11T08:27:02Z</time></trkpt><trkpt lat="43.398670689232596" lon="11.443477496529711"><ele>376.0</ele><time>2026-04-11T08:27:04Z</time></trkpt><trkpt lat="43.39860403478839" lon="11.443486413217665"><ele>376.0</ele><time>2026-04-11T08:27:04.999Z</time></trkpt><trkpt lat="43.39853896177418" lon="11.443497545940383"><ele>376.0</ele><time>2026-04-11T08:27:05.999Z</time></trkpt><trkpt lat="43.398470935079786" lon="11.443510144651375"><ele>376.0</ele><time>2026-04-11T08:27:06.999Z</time></trkpt><trkpt lat="43.39840348741172" lon="11.443522523262502"><ele>376.0</ele><time>2026-04-11T08:27:07.999Z</time></trkpt><trkpt lat="43.39833598762024" lon="11.443536767801573"><ele>376.0</ele><time>2026-04-11T08:27:08.999Z</time></trkpt><trkpt lat="43.3982708276299" lon="11.443555355054379"><ele>376.0</ele><time>2026-04-11T08:27:09.999Z</time></trkpt><trkpt lat="43.39820354466282" lon="11.44356552482817"><ele>376.0</ele><time>2026-04-11T08:27:10.999Z</time></trkpt><trkpt lat="43.398135971177645" lon="11.443576482604097"><ele>376.0</ele><time>2026-04-11T08:27:11.999Z</time></trkpt><trkpt lat="43.39806799761204" lon="11.443585615991914"><ele>376.0</ele><time>2026-04-11T08:27:12.999Z</time></trkpt><trkpt lat="43.3980006907432" lon="11.443599958678547"><ele>376.0</ele><time>2026-04-11T08:27:13.999Z</time></trkpt><trkpt lat="43.397924642936175" lon="11.443613364209195"><ele>376.0</ele><time>2026-04-11T08:27:14.999Z</time></trkpt><trkpt lat="43.39785467859082" lon="11.443632960322335"><ele>376.0</ele><time>2026-04-11T08:27:15.999Z</time></trkpt><trkpt lat="43.39778370472164" lon="11.443620792315405"><ele>376.0</ele><time>2026-04-11T08:27:16.999Z</time></trkpt><trkpt lat="43.39771847970684" lon="11.443578484325924"><ele>376.0</ele><time>2026-04-11T08:27:17.999Z</time></trkpt><trkpt lat="43.39765108098371" lon="11.443540673323833"><ele>375.5</ele><time>2026-04-11T08:27:18.999Z</time></trkpt><trkpt lat="43.397582247928256" lon="11.443504358423041"><ele>375.0</ele><time>2026-04-11T08:27:19.999Z</time></trkpt><trkpt lat="43.39751005156532" lon="11.443477322781863"><ele>374.5</ele><time>2026-04-11T08:27:20.999Z</time></trkpt><trkpt lat="43.39744141883508" lon="11.443452025756201"><ele>374.0</ele><time>2026-04-11T08:27:21.999Z</time></trkpt><trkpt lat="43.39737256035006" lon="11.443426253633463"><ele>373.5</ele><time>2026-04-11T08:27:22.999Z</time></trkpt><trkpt lat="43.3972917046549" lon="11.44339959720274"><ele>373.0</ele><time>2026-04-11T08:27:23.999Z</time></trkpt><trkpt lat="43.39721863906896" lon="11.443371598099624"><ele>372.66666666666663</ele><time>2026-04-11T08:27:24.999Z</time></trkpt><trkpt lat="43.39714079853176" lon="11.443344435228562"><ele>372.3333333333333</ele><time>2026-04-11T08:27:25.999Z</time></trkpt><trkpt lat="43.39705982059638" lon="11.44331159295113"><ele>372.0</ele><time>2026-04-11T08:27:26.999Z</time></trkpt><trkpt lat="43.396982452877" lon="11.443277473493227"><ele>371.6666666666667</ele><time>2026-04-11T08:27:27.999Z</time></trkpt><trkpt lat="43.39690475558944" lon="11.443242314557626"><ele>371.33333333333337</ele><time>2026-04-11T08:27:28.999Z</time></trkpt><trkpt lat="43.39682201828065" lon="11.443201160784673"><ele>371.0</ele><time>2026-04-11T08:27:29.999Z</time></trkpt><trkpt lat="43.39673387474405" lon="11.443172458422417"><ele>371.0</ele><time>2026-04-11T08:27:30.999Z</time></trkpt><trkpt lat="43.39664843744271" lon="11.443141994805904"><ele>371.0</ele><time>2026-04-11T08:27:31.999Z</time></trkpt><trkpt lat="43.39656942547923" lon="11.443113588519653"><ele>371.0</ele><time>2026-04-11T08:27:32.999Z</time></trkpt><trkpt lat="43.39648481826279" lon="11.443080411094229"><ele>371.0</ele><time>2026-04-11T08:27:33.999Z</time></trkpt><trkpt lat="43.396403353195076" lon="11.443050549644378"><ele>371.0</ele><time>2026-04-11T08:27:34.999Z</time></trkpt><trkpt lat="43.39632064520874" lon="11.44302028693933"><ele>371.0</ele><time>2026-04-11T08:27:35.999Z</time></trkpt><trkpt lat="43.396239533718735" lon="11.442986624096134"><ele>370.20000000000005</ele><time>2026-04-11T08:27:36.999Z</time></trkpt><trkpt lat="43.396160618592" lon="11.442952443947211"><ele>369.40000000000003</ele><time>2026-04-11T08:27:37.999Z</time></trkpt><trkpt lat="43.396075575954306" lon="11.442921677187117"><ele>368.6</ele><time>2026-04-11T08:27:38.999Z</time></trkpt><trkpt lat="43.395988416377904" lon="11.442896507147157"><ele>367.8</ele><time>2026-04-11T08:27:39.999Z</time></trkpt><trkpt lat="43.395894627975" lon="11.442858265981693"><ele>367.0</ele><time>2026-04-11T08:27:40.999Z</time></trkpt><trkpt lat="43.395802460546484" lon="11.44281634592382"><ele>367.0</ele><time>2026-04-11T08:27:41.999Z</time></trkpt><trkpt lat="43.395713366181106" lon="11.442776882201859"><ele>367.0</ele><time>2026-04-11T08:27:42.999Z</time></trkpt><trkpt lat="43.395625341412426" lon="11.442741448203364"><ele>367.0</ele><time>2026-04-11T08:27:43.999Z</time></trkpt><trkpt lat="43.39554077975644" lon="11.442711260611388"><ele>367.0</ele><time>2026-04-11T08:27:44.999Z</time></trkpt><trkpt lat="43.39545591096565" lon="11.442680807152717"><ele>367.0</ele><time>2026-04-11T08:27:45.999Z</time></trkpt><trkpt lat="43.39536616665341" lon="11.442662862022443"><ele>367.16666666666663</ele><time>2026-04-11T08:27:46.999Z</time></trkpt><trkpt lat="43.39527665609541" lon="11.442647486593799"><ele>367.3333333333333</ele><time>2026-04-11T08:27:47.999Z</time></trkpt><trkpt lat="43.39519727478546" lon="11.442643930355375"><ele>367.5</ele><time>2026-04-11T08:27:48.999Z</time></trkpt><trkpt lat="43.395115171978986" lon="11.44264126877339"><ele>367.6666666666667</ele><time>2026-04-11T08:27:49.999Z</time></trkpt><trkpt lat="43.39503850847915" lon="11.442648743815209"><ele>367.83333333333337</ele><time>2026-04-11T08:27:50.999Z</time></trkpt><trkpt lat="43.39496564721707" lon="11.442653956424962"><ele>368.0</ele><time>2026-04-11T08:27:51.999Z</time></trkpt><trkpt lat="43.39489689150849" lon="11.442658578359346"><ele>368.0</ele><time>2026-04-11T08:27:52.999Z</time></trkpt><trkpt lat="43.39483057027572" lon="11.442665411828456"><ele>368.0</ele><time>2026-04-11T08:27:53.999Z</time></trkpt><trkpt lat="43.394711076600345" lon="11.442677639066101"><ele>368.0</ele><time>2026-04-11T08:27:55.999Z</time></trkpt><trkpt lat="43.39460217512918" lon="11.442676807578264"><ele>368.0</ele><time>2026-04-11T08:27:57.999Z</time></trkpt><trkpt lat="43.394498707151335" lon="11.442676794882125"><ele>368.0</ele><time>2026-04-11T08:28:00Z</time></trkpt><trkpt lat="43.39439728139988" lon="11.442668308780906"><ele>368.0</ele><time>2026-04-11T08:28:02Z</time></trkpt><trkpt lat="43.39429923570062" lon="11.44264863289386"><ele>368.0</ele><time>2026-04-11T08:28:04Z</time></trkpt><trkpt lat="43.394194041533645" lon="11.442629547668064"><ele>368.0</ele><time>2026-04-11T08:28:06Z</time></trkpt><trkpt lat="43.39413007081694" lon="11.442629081013228"><ele>368.0</ele><time>2026-04-11T08:28:07Z</time></trkpt><trkpt lat="43.39406670557822" lon="11.442617001767486"><ele>368.0</ele><time>2026-04-11T08:28:08Z</time></trkpt><trkpt lat="43.394001615901566" lon="11.442612550109393"><ele>368.0</ele><time>2026-04-11T08:28:09Z</time></trkpt><trkpt lat="43.39393679552383" lon="11.442605452938414"><ele>368.0</ele><time>2026-04-11T08:28:10Z</time></trkpt><trkpt lat="43.39381068202361" lon="11.442581837776581"><ele>368.0</ele><time>2026-04-11T08:28:12Z</time></trkpt><trkpt lat="43.39374490828399" lon="11.442578280316264"><ele>368.0</ele><time>2026-04-11T08:28:13Z</time></trkpt><trkpt lat="43.393677560712796" lon="11.44257013198572"><ele>368.0</ele><time>2026-04-11T08:28:14Z</time></trkpt><trkpt lat="43.393611119765445" lon="11.442551650987301"><ele>368.0</ele><time>2026-04-11T08:28:15Z</time></trkpt><trkpt lat="43.39354467521586" lon="11.442528492768988"><ele>368.0</ele><time>2026-04-11T08:28:16Z</time></trkpt><trkpt lat="43.393479630219396" lon="11.442501498293948"><ele>368.0</ele><time>2026-04-11T08:28:17Z</time></trkpt><trkpt lat="43.39341548906692" lon="11.442469788578508"><ele>368.0</ele><time>2026-04-11T08:28:18Z</time></trkpt><trkpt lat="43.39334941715626" lon="11.442440621024488"><ele>368.0</ele><time>2026-04-11T08:28:19Z</time></trkpt><trkpt lat="43.3932848226897" lon="11.44240040836936"><ele>368.0</ele><time>2026-04-11T08:28:20Z</time></trkpt><trkpt lat="43.39322265820921" lon="11.44236262178134"><ele>368.0</ele><time>2026-04-11T08:28:21Z</time></trkpt><trkpt lat="43.39309423077812" lon="11.442331969730581"><ele>368.0</ele><time>2026-04-11T08:28:23Z</time></trkpt><trkpt lat="43.393030122661344" lon="11.442318290243229"><ele>368.2</ele><time>2026-04-11T08:28:24Z</time></trkpt><trkpt lat="43.39295987936552" lon="11.442283183436945"><ele>368.4</ele><time>2026-04-11T08:28:25Z</time></trkpt><trkpt lat="43.392836384824854" lon="11.44228332854372"><ele>368.59999999999997</ele><time>2026-04-11T08:28:27Z</time></trkpt><trkpt lat="43.392716840063805" lon="11.442291147505392"><ele>368.79999999999995</ele><time>2026-04-11T08:28:29Z</time></trkpt><trkpt lat="43.39260335552972" lon="11.442320864650476"><ele>369.0</ele><time>2026-04-11T08:28:31Z</time></trkpt><trkpt lat="43.39249722178277" lon="11.442349602615627"><ele>369.0</ele><time>2026-04-11T08:28:33Z</time></trkpt><trkpt lat="43.39239147999344" lon="11.442390451772715"><ele>369.0</ele><time>2026-04-11T08:28:35Z</time></trkpt><trkpt lat="43.39227658192797" lon="11.442449897808574"><ele>369.0</ele><time>2026-04-11T08:28:37Z</time></trkpt><trkpt lat="43.39216528010436" lon="11.442518439563095"><ele>369.0</ele><time>2026-04-11T08:28:39Z</time></trkpt><trkpt lat="43.392049452197384" lon="11.44259233895315"><ele>368.4</ele><time>2026-04-11T08:28:41Z</time></trkpt><trkpt lat="43.39199351758703" lon="11.442633555695014"><ele>367.79999999999995</ele><time>2026-04-11T08:28:42Z</time></trkpt><trkpt lat="43.39188633960163" lon="11.442712249497879"><ele>367.20000000000005</ele><time>2026-04-11T08:28:44Z</time></trkpt><trkpt lat="43.39178127216661" lon="11.442785359397087"><ele>366.6</ele><time>2026-04-11T08:28:46Z</time></trkpt><trkpt lat="43.39171610584451" lon="11.442808972332614"><ele>366.0</ele><time>2026-04-11T08:28:47Z</time></trkpt><trkpt lat="43.39160129103775" lon="11.442833671366692"><ele>366.0</ele><time>2026-04-11T08:28:49Z</time></trkpt><trkpt lat="43.3914865781374" lon="11.442841340388448"><ele>366.0</ele><time>2026-04-11T08:28:51Z</time></trkpt><trkpt lat="43.39138701514771" lon="11.442841275603453"><ele>366.0</ele><time>2026-04-11T08:28:53Z</time></trkpt><trkpt lat="43.3912836178163" lon="11.442833990026932"><ele>366.0</ele><time>2026-04-11T08:28:55Z</time></trkpt><trkpt lat="43.39117825674286" lon="11.442840540068284"><ele>366.0</ele><time>2026-04-11T08:28:57Z</time></trkpt><trkpt lat="43.3910647296126" lon="11.442862718633222"><ele>366.4</ele><time>2026-04-11T08:28:59Z</time></trkpt><trkpt lat="43.39094596201873" lon="11.442883843456386"><ele>366.8</ele><time>2026-04-11T08:29:01Z</time></trkpt><trkpt lat="43.390821157989514" lon="11.442901183813282"><ele>367.2</ele><time>2026-04-11T08:29:03Z</time></trkpt><trkpt lat="43.39070081782867" lon="11.442925461319426"><ele>367.59999999999997</ele><time>2026-04-11T08:29:05Z</time></trkpt><trkpt lat="43.39063768633399" lon="11.442945804552963"><ele>368.0</ele><time>2026-04-11T08:29:05.999Z</time></trkpt><trkpt lat="43.39057338577359" lon="11.442954346249644"><ele>367.5714285714286</ele><time>2026-04-11T08:29:06.999Z</time></trkpt><trkpt lat="43.39050777995508" lon="11.442952624897204"><ele>367.1428571428571</ele><time>2026-04-11T08:29:07.999Z</time></trkpt><trkpt lat="43.390443095123665" lon="11.442943045145684"><ele>366.7142857142857</ele><time>2026-04-11T08:29:08.999Z</time></trkpt><trkpt lat="43.39037929622873" lon="11.442929642951635"><ele>366.28571428571433</ele><time>2026-04-11T08:29:09.999Z</time></trkpt><trkpt lat="43.39031249071524" lon="11.442919065783112"><ele>365.8571428571429</ele><time>2026-04-11T08:29:10.999Z</time></trkpt><trkpt lat="43.39024492323411" lon="11.44291153226502"><ele>365.42857142857144</ele><time>2026-04-11T08:29:11.999Z</time></trkpt><trkpt lat="43.390174397694864" lon="11.442904732620466"><ele>365.0</ele><time>2026-04-11T08:29:12.999Z</time></trkpt><trkpt lat="43.39010767766734" lon="11.442894259892851"><ele>365.0</ele><time>2026-04-11T08:29:13.999Z</time></trkpt><trkpt lat="43.390039812820596" lon="11.442882014800274"><ele>365.0</ele><time>2026-04-11T08:29:14.999Z</time></trkpt><trkpt lat="43.389967776454014" lon="11.442865972359694"><ele>365.0</ele><time>2026-04-11T08:29:15.999Z</time></trkpt><trkpt lat="43.389891994498164" lon="11.442831954992197"><ele>365.0</ele><time>2026-04-11T08:29:16.999Z</time></trkpt><trkpt lat="43.38982404809965" lon="11.442794151990396"><ele>365.0</ele><time>2026-04-11T08:29:17.999Z</time></trkpt><trkpt lat="43.38977836779959" lon="11.442685952355802"><ele>365.0</ele><time>2026-04-11T08:29:18.999Z</time></trkpt><trkpt lat="43.389743889370024" lon="11.442583342189"><ele>365.0</ele><time>2026-04-11T08:29:19.999Z</time></trkpt><trkpt lat="43.38969837847199" lon="11.44247381420688"><ele>365.0</ele><time>2026-04-11T08:29:20.999Z</time></trkpt><trkpt lat="43.38965126445687" lon="11.442390548774492"><ele>365.0</ele><time>2026-04-11T08:29:21.999Z</time></trkpt><trkpt lat="43.38961642438048" lon="11.442299923678817"><ele>365.0</ele><time>2026-04-11T08:29:22.999Z</time></trkpt><trkpt lat="43.389573890170425" lon="11.442212381606097"><ele>365.0</ele><time>2026-04-11T08:29:23.999Z</time></trkpt><trkpt lat="43.3895247369242" lon="11.442126371320757"><ele>365.0</ele><time>2026-04-11T08:29:24.999Z</time></trkpt><trkpt lat="43.389475833399445" lon="11.442046692227246"><ele>363.6666666666667</ele><time>2026-04-11T08:29:25.999Z</time></trkpt><trkpt lat="43.389424874631324" lon="11.441974827736543"><ele>362.33333333333337</ele><time>2026-04-11T08:29:26.999Z</time></trkpt><trkpt lat="43.38937203174737" lon="11.441895411271323"><ele>361.0</ele><time>2026-04-11T08:29:27.999Z</time></trkpt><trkpt lat="43.38931899696574" lon="11.441818268486912"><ele>359.6666666666667</ele><time>2026-04-11T08:29:28.999Z</time></trkpt><trkpt lat="43.38926925087531" lon="11.44173643808267"><ele>358.3333333333333</ele><time>2026-04-11T08:29:29.999Z</time></trkpt><trkpt lat="43.38922658345765" lon="11.441649683428784"><ele>357.0</ele><time>2026-04-11T08:29:30.999Z</time></trkpt><trkpt lat="43.38916940038136" lon="11.44156803713342"><ele>357.0</ele><time>2026-04-11T08:29:31.999Z</time></trkpt><trkpt lat="43.38911363332943" lon="11.441481259493676"><ele>357.0</ele><time>2026-04-11T08:29:32.999Z</time></trkpt><trkpt lat="43.38905880377948" lon="11.441398598107044"><ele>357.0</ele><time>2026-04-11T08:29:33.999Z</time></trkpt><trkpt lat="43.38899581097945" lon="11.441310119619258"><ele>357.0</ele><time>2026-04-11T08:29:34.999Z</time></trkpt><trkpt lat="43.388932320701116" lon="11.441220231888902"><ele>357.0</ele><time>2026-04-11T08:29:35.999Z</time></trkpt><trkpt lat="43.388863156445325" lon="11.44112695321063"><ele>357.0</ele><time>2026-04-11T08:29:36.999Z</time></trkpt><trkpt lat="43.38880524524862" lon="11.441031986363104"><ele>356.40000000000003</ele><time>2026-04-11T08:29:37.999Z</time></trkpt><trkpt lat="43.38874440854335" lon="11.440934133069936"><ele>355.8</ele><time>2026-04-11T08:29:38.999Z</time></trkpt><trkpt lat="43.38866928227036" lon="11.440851188582407"><ele>355.2</ele><time>2026-04-11T08:29:39.999Z</time></trkpt><trkpt lat="43.38859551746337" lon="11.440769065852145"><ele>354.6</ele><time>2026-04-11T08:29:40.999Z</time></trkpt><trkpt lat="43.388515030867275" lon="11.440688326747066"><ele>354.0</ele><time>2026-04-11T08:29:41.999Z</time></trkpt><trkpt lat="43.38843021020583" lon="11.440604179986902"><ele>354.0</ele><time>2026-04-11T08:29:42.999Z</time></trkpt><trkpt lat="43.38835139794351" lon="11.440517865740691"><ele>354.0</ele><time>2026-04-11T08:29:43.999Z</time></trkpt><trkpt lat="43.38827728049409" lon="11.440418684843884"><ele>354.0</ele><time>2026-04-11T08:29:44.999Z</time></trkpt><trkpt lat="43.38821434400425" lon="11.440311888818197"><ele>354.0</ele><time>2026-04-11T08:29:45.999Z</time></trkpt><trkpt lat="43.38814335360072" lon="11.440209088629251"><ele>354.0</ele><time>2026-04-11T08:29:46.999Z</time></trkpt><trkpt lat="43.38807086330749" lon="11.440104283662789"><ele>352.4</ele><time>2026-04-11T08:29:47.999Z</time></trkpt><trkpt lat="43.3879985695726" lon="11.43999619765369"><ele>350.79999999999995</ele><time>2026-04-11T08:29:48.999Z</time></trkpt><trkpt lat="43.38794130461855" lon="11.439867050361991"><ele>349.20000000000005</ele><time>2026-04-11T08:29:49.999Z</time></trkpt><trkpt lat="43.38787014366461" lon="11.439760056340402"><ele>347.6</ele><time>2026-04-11T08:29:50.999Z</time></trkpt><trkpt lat="43.38780728232233" lon="11.439636549707533"><ele>346.0</ele><time>2026-04-11T08:29:51.999Z</time></trkpt><trkpt lat="43.387737798056946" lon="11.439520391800626"><ele>345.0</ele><time>2026-04-11T08:29:52.999Z</time></trkpt><trkpt lat="43.38766820179278" lon="11.439395095677353"><ele>344.0</ele><time>2026-04-11T08:29:53.999Z</time></trkpt><trkpt lat="43.38759944093564" lon="11.439272741242583"><ele>343.0</ele><time>2026-04-11T08:29:54.999Z</time></trkpt><trkpt lat="43.38752324196004" lon="11.43915643289085"><ele>342.0</ele><time>2026-04-11T08:29:55.999Z</time></trkpt><trkpt lat="43.3874498516069" lon="11.439036355246163"><ele>342.0</ele><time>2026-04-11T08:29:56.999Z</time></trkpt><trkpt lat="43.38737740328207" lon="11.438922318160742"><ele>342.0</ele><time>2026-04-11T08:29:57.999Z</time></trkpt><trkpt lat="43.38731040494673" lon="11.438815044239456"><ele>342.0</ele><time>2026-04-11T08:29:58.999Z</time></trkpt><trkpt lat="43.38726064938769" lon="11.438692183645992"><ele>342.0</ele><time>2026-04-11T08:29:59.999Z</time></trkpt><trkpt lat="43.38720619865953" lon="11.438590311607522"><ele>342.0</ele><time>2026-04-11T08:30:00.999Z</time></trkpt><trkpt lat="43.38715683032862" lon="11.438485840504216"><ele>342.1666666666667</ele><time>2026-04-11T08:30:01.999Z</time></trkpt><trkpt lat="43.38711537536605" lon="11.438378223961134"><ele>342.3333333333333</ele><time>2026-04-11T08:30:02.999Z</time></trkpt><trkpt lat="43.3870853275749" lon="11.438270656142523"><ele>342.5</ele><time>2026-04-11T08:30:03.999Z</time></trkpt><trkpt lat="43.38705291644823" lon="11.438163909497044"><ele>342.66666666666663</ele><time>2026-04-11T08:30:04.999Z</time></trkpt><trkpt lat="43.38702857874999" lon="11.438054461042947"><ele>342.8333333333333</ele><time>2026-04-11T08:30:06Z</time></trkpt><trkpt lat="43.387000787660355" lon="11.437951101440566"><ele>343.0</ele><time>2026-04-11T08:30:07Z</time></trkpt><trkpt lat="43.3869727768176" lon="11.437846666448523"><ele>343.16666666666663</ele><time>2026-04-11T08:30:08Z</time></trkpt><trkpt lat="43.38694590484066" lon="11.437745218274253"><ele>343.3333333333333</ele><time>2026-04-11T08:30:09Z</time></trkpt><trkpt lat="43.38693752841563" lon="11.43764267102922"><ele>343.5</ele><time>2026-04-11T08:30:10Z</time></trkpt><trkpt lat="43.38691264567847" lon="11.437546769326364"><ele>343.6666666666667</ele><time>2026-04-11T08:30:11Z</time></trkpt><trkpt lat="43.386860542190334" lon="11.43736691353155"><ele>343.83333333333337</ele><time>2026-04-11T08:30:13Z</time></trkpt><trkpt lat="43.38682082771503" lon="11.437282665733042"><ele>344.0</ele><time>2026-04-11T08:30:14Z</time></trkpt><trkpt lat="43.386806922844016" lon="11.43717825674872"><ele>342.8571428571429</ele><time>2026-04-11T08:30:15Z</time></trkpt><trkpt lat="43.38677593855769" lon="11.437084776850538"><ele>341.7142857142857</ele><time>2026-04-11T08:30:16Z</time></trkpt><trkpt lat="43.3867322042052" lon="11.437004764394816"><ele>340.57142857142856</ele><time>2026-04-11T08:30:17Z</time></trkpt><trkpt lat="43.386686310202776" lon="11.436934810927541"><ele>339.42857142857144</ele><time>2026-04-11T08:30:18Z</time></trkpt><trkpt lat="43.38662941343836" lon="11.436880291876431"><ele>338.2857142857143</ele><time>2026-04-11T08:30:19Z</time></trkpt><trkpt lat="43.38656724822231" lon="11.436818964429245"><ele>337.14285714285717</ele><time>2026-04-11T08:30:20Z</time></trkpt><trkpt lat="43.38651447572529" lon="11.436770474498324"><ele>336.0</ele><time>2026-04-11T08:30:21Z</time></trkpt><trkpt lat="43.38645666152257" lon="11.436722062148673"><ele>336.0</ele><time>2026-04-11T08:30:22Z</time></trkpt><trkpt lat="43.38640698885808" lon="11.436668359328683"><ele>336.0</ele><time>2026-04-11T08:30:23Z</time></trkpt><trkpt lat="43.386357466675314" lon="11.436605669458956"><ele>336.0</ele><time>2026-04-11T08:30:24Z</time></trkpt><trkpt lat="43.386303798009266" lon="11.436544505638677"><ele>336.0</ele><time>2026-04-11T08:30:25Z</time></trkpt><trkpt lat="43.38624727359007" lon="11.436484971592401"><ele>336.0</ele><time>2026-04-11T08:30:26Z</time></trkpt><trkpt lat="43.38619427329444" lon="11.436424100979043"><ele>336.0</ele><time>2026-04-11T08:30:27Z</time></trkpt><trkpt lat="43.386142563975056" lon="11.436361548624376"><ele>336.0</ele><time>2026-04-11T08:30:28Z</time></trkpt><trkpt lat="43.38608986762465" lon="11.436296715240811"><ele>336.0</ele><time>2026-04-11T08:30:29Z</time></trkpt><trkpt lat="43.3860418103722" lon="11.436230711168603"><ele>336.0</ele><time>2026-04-11T08:30:30Z</time></trkpt><trkpt lat="43.385984959971566" lon="11.436170713583444"><ele>336.0</ele><time>2026-04-11T08:30:31Z</time></trkpt><trkpt lat="43.385939661973275" lon="11.436095088580814"><ele>336.0</ele><time>2026-04-11T08:30:32Z</time></trkpt><trkpt lat="43.385892380905624" lon="11.436022212679786"><ele>336.0</ele><time>2026-04-11T08:30:33Z</time></trkpt><trkpt lat="43.3858378850928" lon="11.435957369098672"><ele>336.0</ele><time>2026-04-11T08:30:34Z</time></trkpt><trkpt lat="43.385778079573655" lon="11.435895660581867"><ele>336.0</ele><time>2026-04-11T08:30:35Z</time></trkpt><trkpt lat="43.38572217040233" lon="11.43583288513649"><ele>336.0</ele><time>2026-04-11T08:30:36Z</time></trkpt><trkpt lat="43.38564976393389" lon="11.435783314854778"><ele>336.0</ele><time>2026-04-11T08:30:37Z</time></trkpt><trkpt lat="43.38557690264056" lon="11.435730497088715"><ele>336.0</ele><time>2026-04-11T08:30:38Z</time></trkpt><trkpt lat="43.38549886036456" lon="11.435673079170972"><ele>336.0</ele><time>2026-04-11T08:30:39Z</time></trkpt><trkpt lat="43.38543081945486" lon="11.435591771432971"><ele>336.0</ele><time>2026-04-11T08:30:40Z</time></trkpt><trkpt lat="43.385348219617775" lon="11.435521234861662"><ele>336.0</ele><time>2026-04-11T08:30:41Z</time></trkpt><trkpt lat="43.385258227088165" lon="11.435451487356582"><ele>334.6</ele><time>2026-04-11T08:30:42Z</time></trkpt><trkpt lat="43.38516991599237" lon="11.435381611309989"><ele>333.20000000000005</ele><time>2026-04-11T08:30:43Z</time></trkpt><trkpt lat="43.38507772647978" lon="11.435312426915413"><ele>331.79999999999995</ele><time>2026-04-11T08:30:44Z</time></trkpt><trkpt lat="43.384983478750115" lon="11.43524905356479"><ele>330.4</ele><time>2026-04-11T08:30:45Z</time></trkpt><trkpt lat="43.38488329460225" lon="11.435200484126616"><ele>329.0</ele><time>2026-04-11T08:30:46Z</time></trkpt><trkpt lat="43.38478332059695" lon="11.435166440348189"><ele>329.0</ele><time>2026-04-11T08:30:47Z</time></trkpt><trkpt lat="43.38467983490612" lon="11.43514494505835"><ele>329.0</ele><time>2026-04-11T08:30:48Z</time></trkpt><trkpt lat="43.384572990266555" lon="11.435124549885481"><ele>329.0</ele><time>2026-04-11T08:30:49Z</time></trkpt><trkpt lat="43.38447262437104" lon="11.435110933133743"><ele>329.0</ele><time>2026-04-11T08:30:50Z</time></trkpt><trkpt lat="43.3843667879047" lon="11.435092011489294"><ele>329.0</ele><time>2026-04-11T08:30:51Z</time></trkpt><trkpt lat="43.384267488033586" lon="11.435059356007923"><ele>328.2</ele><time>2026-04-11T08:30:52Z</time></trkpt><trkpt lat="43.38417594287782" lon="11.435018770000221"><ele>327.4</ele><time>2026-04-11T08:30:53Z</time></trkpt><trkpt lat="43.38408487985882" lon="11.434994195771463"><ele>326.6</ele><time>2026-04-11T08:30:54Z</time></trkpt><trkpt lat="43.38398997482065" lon="11.434975419918487"><ele>325.8</ele><time>2026-04-11T08:30:55Z</time></trkpt><trkpt lat="43.383886285805296" lon="11.434951278005116"><ele>325.0</ele><time>2026-04-11T08:30:56Z</time></trkpt><trkpt lat="43.38378701535911" lon="11.434918519036653"><ele>324.8</ele><time>2026-04-11T08:30:57Z</time></trkpt><trkpt lat="43.38368700646033" lon="11.434885129119552"><ele>324.6</ele><time>2026-04-11T08:30:58Z</time></trkpt><trkpt lat="43.38359236883137" lon="11.434846980319007"><ele>324.4</ele><time>2026-04-11T08:30:59Z</time></trkpt><trkpt lat="43.38349809903769" lon="11.434805678253932"><ele>324.2</ele><time>2026-04-11T08:31:00Z</time></trkpt><trkpt lat="43.38341476602853" lon="11.434738764012351"><ele>324.0</ele><time>2026-04-11T08:31:01Z</time></trkpt><trkpt lat="43.383334356885406" lon="11.434678564367454"><ele>324.5</ele><time>2026-04-11T08:31:02Z</time></trkpt><trkpt lat="43.38325866064959" lon="11.43461612192733"><ele>325.0</ele><time>2026-04-11T08:31:03Z</time></trkpt><trkpt lat="43.38318381217609" lon="11.434568812339151"><ele>325.5</ele><time>2026-04-11T08:31:04Z</time></trkpt><trkpt lat="43.383117370183015" lon="11.434504183891704"><ele>326.0</ele><time>2026-04-11T08:31:05Z</time></trkpt><trkpt lat="43.38305183093065" lon="11.434434598760214"><ele>326.5</ele><time>2026-04-11T08:31:06Z</time></trkpt><trkpt lat="43.382990830219136" lon="11.434358377734899"><ele>327.0</ele><time>2026-04-11T08:31:07Z</time></trkpt><trkpt lat="43.382928761356084" lon="11.434294435262085"><ele>327.0</ele><time>2026-04-11T08:31:08Z</time></trkpt><trkpt lat="43.3828728093495" lon="11.434239986835262"><ele>327.0</ele><time>2026-04-11T08:31:09Z</time></trkpt><trkpt lat="43.382814474043336" lon="11.434196960984577"><ele>327.0</ele><time>2026-04-11T08:31:10Z</time></trkpt><trkpt lat="43.382752310977786" lon="11.434164538955194"><ele>327.0</ele><time>2026-04-11T08:31:11Z</time></trkpt><trkpt lat="43.382688489030166" lon="11.434137318929004"><ele>327.0</ele><time>2026-04-11T08:31:12Z</time></trkpt><trkpt lat="43.38257583647034" lon="11.434083235254368"><ele>327.0</ele><time>2026-04-11T08:31:14Z</time></trkpt><trkpt lat="43.382468926837184" lon="11.434063363038199"><ele>327.0</ele><time>2026-04-11T08:31:16Z</time></trkpt><trkpt lat="43.38236713790342" lon="11.434047411058854"><ele>327.0</ele><time>2026-04-11T08:31:17.999Z</time></trkpt><trkpt lat="43.38226385318024" lon="11.434016632380038"><ele>327.0</ele><time>2026-04-11T08:31:19.999Z</time></trkpt><trkpt lat="43.38215394855546" lon="11.433998434313251"><ele>327.0</ele><time>2026-04-11T08:31:21.999Z</time></trkpt><trkpt lat="43.382043631826136" lon="11.433982213571761"><ele>327.0</ele><time>2026-04-11T08:31:23.999Z</time></trkpt><trkpt lat="43.38192647907455" lon="11.43397325122045"><ele>326.6</ele><time>2026-04-11T08:31:25.999Z</time></trkpt><trkpt lat="43.38180968435458" lon="11.433958838599283"><ele>326.20000000000005</ele><time>2026-04-11T08:31:27.999Z</time></trkpt><trkpt lat="43.38169287593918" lon="11.433932062768651"><ele>325.8</ele><time>2026-04-11T08:31:29.999Z</time></trkpt><trkpt lat="43.3816290824158" lon="11.433905500973452"><ele>325.4</ele><time>2026-04-11T08:31:30.999Z</time></trkpt><trkpt lat="43.38156182301945" lon="11.433862982050377"><ele>325.0</ele><time>2026-04-11T08:31:31.999Z</time></trkpt><trkpt lat="43.38149481053405" lon="11.433807998697139"><ele>324.0</ele><time>2026-04-11T08:31:32.999Z</time></trkpt><trkpt lat="43.381418054400704" lon="11.433752299789534"><ele>323.0</ele><time>2026-04-11T08:31:33.999Z</time></trkpt><trkpt lat="43.38133637838909" lon="11.433694783720144"><ele>322.0</ele><time>2026-04-11T08:31:34.999Z</time></trkpt><trkpt lat="43.38123953371367" lon="11.433648445188876"><ele>321.0</ele><time>2026-04-11T08:31:35.999Z</time></trkpt><trkpt lat="43.38114562852606" lon="11.433565211387585"><ele>320.0</ele><time>2026-04-11T08:31:36.999Z</time></trkpt><trkpt lat="43.381059350511016" lon="11.433498136979583"><ele>319.4</ele><time>2026-04-11T08:31:37.999Z</time></trkpt><trkpt lat="43.38097586455737" lon="11.433415170023853"><ele>318.8</ele><time>2026-04-11T08:31:38.999Z</time></trkpt><trkpt lat="43.38089998346156" lon="11.433324540415942"><ele>318.2</ele><time>2026-04-11T08:31:39.999Z</time></trkpt><trkpt lat="43.38083778403509" lon="11.433224721652715"><ele>317.6</ele><time>2026-04-11T08:31:40.999Z</time></trkpt><trkpt lat="43.38078195106296" lon="11.43310787306725"><ele>317.0</ele><time>2026-04-11T08:31:41.999Z</time></trkpt><trkpt lat="43.380730431307455" lon="11.432987700240295"><ele>317.2</ele><time>2026-04-11T08:31:42.999Z</time></trkpt><trkpt lat="43.38067016711783" lon="11.432884779625835"><ele>317.4</ele><time>2026-04-11T08:31:43.999Z</time></trkpt><trkpt lat="43.38061204662572" lon="11.432794706236459"><ele>317.6</ele><time>2026-04-11T08:31:44.999Z</time></trkpt><trkpt lat="43.38052509863882" lon="11.432735394289871"><ele>317.8</ele><time>2026-04-11T08:31:45.999Z</time></trkpt><trkpt lat="43.38042956025286" lon="11.432711301355596"><ele>318.0</ele><time>2026-04-11T08:31:46.999Z</time></trkpt><trkpt lat="43.380362850187545" lon="11.432669704749028"><ele>318.4285714285714</ele><time>2026-04-11T08:31:47.999Z</time></trkpt><trkpt lat="43.38029683783559" lon="11.432667953678155"><ele>318.8571428571429</ele><time>2026-04-11T08:31:48.999Z</time></trkpt><trkpt lat="43.38023022344481" lon="11.432646683154086"><ele>319.2857142857143</ele><time>2026-04-11T08:31:49.999Z</time></trkpt><trkpt lat="43.380164109871544" lon="11.432633660297597"><ele>319.71428571428567</ele><time>2026-04-11T08:31:50.999Z</time></trkpt><trkpt lat="43.38009479333197" lon="11.43261743146163"><ele>320.1428571428571</ele><time>2026-04-11T08:31:51.999Z</time></trkpt><trkpt lat="43.3800289598751" lon="11.432598430522134"><ele>320.57142857142856</ele><time>2026-04-11T08:31:52.999Z</time></trkpt><trkpt lat="43.37995917868344" lon="11.432592753622679"><ele>321.0</ele><time>2026-04-11T08:31:53.999Z</time></trkpt><trkpt lat="43.3798908620651" lon="11.432584250924577"><ele>320.99999999999994</ele><time>2026-04-11T08:31:54.999Z</time></trkpt><trkpt lat="43.379821542282016" lon="11.432577906537587"><ele>321.0</ele><time>2026-04-11T08:31:55.999Z</time></trkpt><trkpt lat="43.37975233539385" lon="11.432566733922615"><ele>321.0</ele><time>2026-04-11T08:31:56.999Z</time></trkpt><trkpt lat="43.37968714802949" lon="11.432547339098125"><ele>321.0</ele><time>2026-04-11T08:31:57.999Z</time></trkpt><trkpt lat="43.37962078250253" lon="11.432523546817531"><ele>321.0</ele><time>2026-04-11T08:31:58.999Z</time></trkpt><trkpt lat="43.37955944743408" lon="11.432493629340115"><ele>320.99999999999994</ele><time>2026-04-11T08:31:59.999Z</time></trkpt><trkpt lat="43.37949599249355" lon="11.432453070980333"><ele>321.0</ele><time>2026-04-11T08:32:00.999Z</time></trkpt><trkpt lat="43.379378094322526" lon="11.432394509451205"><ele>320.40000000000003</ele><time>2026-04-11T08:32:02.999Z</time></trkpt><trkpt lat="43.379263722310796" lon="11.432324222754694"><ele>319.8</ele><time>2026-04-11T08:32:04.999Z</time></trkpt><trkpt lat="43.37919893363511" lon="11.43230679857412"><ele>319.20000000000005</ele><time>2026-04-11T08:32:05.999Z</time></trkpt><trkpt lat="43.37913920543825" lon="11.432278207075075"><ele>318.6</ele><time>2026-04-11T08:32:06.999Z</time></trkpt><trkpt lat="43.3790782810377" lon="11.432247683767635"><ele>318.0</ele><time>2026-04-11T08:32:07.999Z</time></trkpt><trkpt lat="43.37895366522405" lon="11.432195768126702"><ele>318.0</ele><time>2026-04-11T08:32:09.999Z</time></trkpt><trkpt lat="43.37889041229317" lon="11.432169089555272"><ele>318.0</ele><time>2026-04-11T08:32:10.999Z</time></trkpt><trkpt lat="43.37883090381365" lon="11.432138938321973"><ele>318.0</ele><time>2026-04-11T08:32:12Z</time></trkpt><trkpt lat="43.37871212358338" lon="11.432078433645847"><ele>318.0</ele><time>2026-04-11T08:32:14Z</time></trkpt><trkpt lat="43.37865050375556" lon="11.432050153971437"><ele>318.0</ele><time>2026-04-11T08:32:15Z</time></trkpt><trkpt lat="43.378530540979646" lon="11.431995069484755"><ele>318.0</ele><time>2026-04-11T08:32:17Z</time></trkpt><trkpt lat="43.37846991963765" lon="11.431968785389845"><ele>317.8333333333333</ele><time>2026-04-11T08:32:18Z</time></trkpt><trkpt lat="43.37835188410467" lon="11.431903821840368"><ele>317.6666666666667</ele><time>2026-04-11T08:32:20Z</time></trkpt><trkpt lat="43.378294656808364" lon="11.431866795912601"><ele>317.5</ele><time>2026-04-11T08:32:21Z</time></trkpt><trkpt lat="43.37823324122506" lon="11.431837696002587"><ele>317.33333333333337</ele><time>2026-04-11T08:32:22Z</time></trkpt><trkpt lat="43.378172446308426" lon="11.43180499177492"><ele>317.1666666666667</ele><time>2026-04-11T08:32:23Z</time></trkpt><trkpt lat="43.37810911122701" lon="11.431776698948063"><ele>317.0</ele><time>2026-04-11T08:32:24Z</time></trkpt><trkpt lat="43.37804566343005" lon="11.431749089688447"><ele>317.33333333333337</ele><time>2026-04-11T08:32:25Z</time></trkpt><trkpt lat="43.37798400677836" lon="11.431704202814743"><ele>317.6666666666667</ele><time>2026-04-11T08:32:26Z</time></trkpt><trkpt lat="43.377924610510505" lon="11.43167422612091"><ele>318.0</ele><time>2026-04-11T08:32:27Z</time></trkpt><trkpt lat="43.377861965841824" lon="11.431652123767183"><ele>318.3333333333333</ele><time>2026-04-11T08:32:28Z</time></trkpt><trkpt lat="43.377797005031994" lon="11.431619575908423"><ele>318.66666666666663</ele><time>2026-04-11T08:32:29Z</time></trkpt><trkpt lat="43.37773186500307" lon="11.431588921210222"><ele>319.0</ele><time>2026-04-11T08:32:30Z</time></trkpt><trkpt lat="43.37760580989755" lon="11.431521904812435"><ele>319.0</ele><time>2026-04-11T08:32:32Z</time></trkpt><trkpt lat="43.37754370600911" lon="11.431489213049108"><ele>319.0</ele><time>2026-04-11T08:32:33Z</time></trkpt><trkpt lat="43.37747891084671" lon="11.431460192031613"><ele>319.0</ele><time>2026-04-11T08:32:34Z</time></trkpt><trkpt lat="43.37735314795889" lon="11.431395399229633"><ele>319.0</ele><time>2026-04-11T08:32:36Z</time></trkpt><trkpt lat="43.377290372000225" lon="11.431381787549926"><ele>319.0</ele><time>2026-04-11T08:32:37Z</time></trkpt><trkpt lat="43.37722154044801" lon="11.431367756810971"><ele>319.0</ele><time>2026-04-11T08:32:38Z</time></trkpt><trkpt lat="43.37715571531802" lon="11.431351582559595"><ele>318.5</ele><time>2026-04-11T08:32:39Z</time></trkpt><trkpt lat="43.37708439119269" lon="11.431338658991905"><ele>318.0</ele><time>2026-04-11T08:32:40Z</time></trkpt><trkpt lat="43.37701416482408" lon="11.431334477806748"><ele>317.5</ele><time>2026-04-11T08:32:41Z</time></trkpt><trkpt lat="43.37693652074796" lon="11.43132503204292"><ele>317.0</ele><time>2026-04-11T08:32:42Z</time></trkpt><trkpt lat="43.37686269837577" lon="11.431319269021188"><ele>316.5</ele><time>2026-04-11T08:32:43Z</time></trkpt><trkpt lat="43.37678797547666" lon="11.431308767371371"><ele>316.0</ele><time>2026-04-11T08:32:44Z</time></trkpt><trkpt lat="43.37670650356714" lon="11.431295305164774"><ele>315.5</ele><time>2026-04-11T08:32:45Z</time></trkpt><trkpt lat="43.37662421323131" lon="11.431283133428217"><ele>315.0</ele><time>2026-04-11T08:32:46Z</time></trkpt><trkpt lat="43.37654335381982" lon="11.431272470335815"><ele>314.5</ele><time>2026-04-11T08:32:47Z</time></trkpt><trkpt lat="43.37645981221529" lon="11.431266530546505"><ele>314.0</ele><time>2026-04-11T08:32:48Z</time></trkpt><trkpt lat="43.37637378065698" lon="11.431247951567412"><ele>313.5</ele><time>2026-04-11T08:32:49Z</time></trkpt><trkpt lat="43.37628853291145" lon="11.431241979650498"><ele>313.0</ele><time>2026-04-11T08:32:50Z</time></trkpt><trkpt lat="43.376199925824515" lon="11.431232456536804"><ele>313.0</ele><time>2026-04-11T08:32:51Z</time></trkpt><trkpt lat="43.376112144558554" lon="11.431219491170168"><ele>313.0</ele><time>2026-04-11T08:32:52Z</time></trkpt><trkpt lat="43.376022757953535" lon="11.431194774386805"><ele>313.0</ele><time>2026-04-11T08:32:53Z</time></trkpt><trkpt lat="43.375922631439046" lon="11.431166877023532"><ele>313.0</ele><time>2026-04-11T08:32:54Z</time></trkpt><trkpt lat="43.375825047051705" lon="11.431149245140928"><ele>313.0</ele><time>2026-04-11T08:32:55Z</time></trkpt><trkpt lat="43.37572332405466" lon="11.431104968454896"><ele>313.0</ele><time>2026-04-11T08:32:56Z</time></trkpt><trkpt lat="43.37562861504174" lon="11.431040594401633"><ele>313.0</ele><time>2026-04-11T08:32:57Z</time></trkpt><trkpt lat="43.375532889082564" lon="11.430968654537505"><ele>313.0</ele><time>2026-04-11T08:32:58Z</time></trkpt><trkpt lat="43.375444109859274" lon="11.430880136389815"><ele>313.0</ele><time>2026-04-11T08:32:59Z</time></trkpt><trkpt lat="43.37534870536627" lon="11.430810452546085"><ele>313.0</ele><time>2026-04-11T08:33:00Z</time></trkpt><trkpt lat="43.37525717649054" lon="11.430729300111981"><ele>311.2</ele><time>2026-04-11T08:33:01Z</time></trkpt><trkpt lat="43.37516133300241" lon="11.430665992652"><ele>309.4</ele><time>2026-04-11T08:33:02Z</time></trkpt><trkpt lat="43.37507020792763" lon="11.430602202627204"><ele>307.59999999999997</ele><time>2026-04-11T08:33:03Z</time></trkpt><trkpt lat="43.3749789931988" lon="11.43055433214021"><ele>305.8</ele><time>2026-04-11T08:33:04Z</time></trkpt><trkpt lat="43.37488550603065" lon="11.430505965210399"><ele>304.0</ele><time>2026-04-11T08:33:05Z</time></trkpt><trkpt lat="43.374800768543615" lon="11.430485255677844"><ele>304.16666666666663</ele><time>2026-04-11T08:33:06Z</time></trkpt><trkpt lat="43.37471179188358" lon="11.430460053037613"><ele>304.3333333333333</ele><time>2026-04-11T08:33:07Z</time></trkpt><trkpt lat="43.37463099231388" lon="11.43042288328496"><ele>304.5</ele><time>2026-04-11T08:33:08Z</time></trkpt><trkpt lat="43.374546348864925" lon="11.430391267317608"><ele>304.6666666666667</ele><time>2026-04-11T08:33:09Z</time></trkpt><trkpt lat="43.374462961665955" lon="11.430366583966372"><ele>304.83333333333337</ele><time>2026-04-11T08:33:10Z</time></trkpt><trkpt lat="43.374378480314476" lon="11.430340660401912"><ele>305.0</ele><time>2026-04-11T08:33:11Z</time></trkpt><trkpt lat="43.37429139861922" lon="11.430318081780005"><ele>305.0</ele><time>2026-04-11T08:33:12Z</time></trkpt><trkpt lat="43.374205823547655" lon="11.430287939282387"><ele>305.0</ele><time>2026-04-11T08:33:13Z</time></trkpt><trkpt lat="43.37412204831784" lon="11.43025696942514"><ele>305.0</ele><time>2026-04-11T08:33:14Z</time></trkpt><trkpt lat="43.374036037624684" lon="11.430231891022203"><ele>305.0</ele><time>2026-04-11T08:33:15Z</time></trkpt><trkpt lat="43.37395238802968" lon="11.430197403813095"><ele>305.0</ele><time>2026-04-11T08:33:16Z</time></trkpt><trkpt lat="43.37386403473303" lon="11.43017395574017"><ele>305.0</ele><time>2026-04-11T08:33:17Z</time></trkpt><trkpt lat="43.37378088774183" lon="11.43013456789786"><ele>304.8</ele><time>2026-04-11T08:33:18Z</time></trkpt><trkpt lat="43.37369485161824" lon="11.430092867211746"><ele>304.6</ele><time>2026-04-11T08:33:19Z</time></trkpt><trkpt lat="43.37360514085681" lon="11.430060072238367"><ele>304.4</ele><time>2026-04-11T08:33:20Z</time></trkpt><trkpt lat="43.37351837523364" lon="11.430005444303884"><ele>304.2</ele><time>2026-04-11T08:33:20.999Z</time></trkpt><trkpt lat="43.37343974717722" lon="11.429960934797489"><ele>304.0</ele><time>2026-04-11T08:33:21.999Z</time></trkpt><trkpt lat="43.37334733478766" lon="11.429917628028436"><ele>304.0</ele><time>2026-04-11T08:33:22.999Z</time></trkpt><trkpt lat="43.37326185259678" lon="11.429866224717484"><ele>304.0</ele><time>2026-04-11T08:33:23.999Z</time></trkpt><trkpt lat="43.373175146482545" lon="11.429821474998782"><ele>304.0</ele><time>2026-04-11T08:33:24.999Z</time></trkpt><trkpt lat="43.37309653328503" lon="11.429762549063797"><ele>304.0</ele><time>2026-04-11T08:33:25.999Z</time></trkpt><trkpt lat="43.37301694299438" lon="11.429705601355286"><ele>304.0</ele><time>2026-04-11T08:33:26.999Z</time></trkpt><trkpt lat="43.37291261975609" lon="11.42966044110939"><ele>302.59999999999997</ele><time>2026-04-11T08:33:27.999Z</time></trkpt><trkpt lat="43.37282817751996" lon="11.429616227210296"><ele>301.2</ele><time>2026-04-11T08:33:28.999Z</time></trkpt><trkpt lat="43.37275089313444" lon="11.429565542850908"><ele>299.79999999999995</ele><time>2026-04-11T08:33:29.999Z</time></trkpt><trkpt lat="43.37266505906406" lon="11.429516410074664"><ele>298.4</ele><time>2026-04-11T08:33:30.999Z</time></trkpt><trkpt lat="43.37257861230476" lon="11.429471617626403"><ele>297.0</ele><time>2026-04-11T08:33:31.999Z</time></trkpt><trkpt lat="43.372497793021694" lon="11.42941935756099"><ele>297.0</ele><time>2026-04-11T08:33:32.999Z</time></trkpt><trkpt lat="43.3724149041805" lon="11.429370063551765"><ele>297.0</ele><time>2026-04-11T08:33:33.999Z</time></trkpt><trkpt lat="43.37233435028398" lon="11.429315573687697"><ele>297.0</ele><time>2026-04-11T08:33:34.999Z</time></trkpt><trkpt lat="43.37225510203896" lon="11.429268017775119"><ele>297.0</ele><time>2026-04-11T08:33:35.999Z</time></trkpt><trkpt lat="43.37218357071975" lon="11.429226435288165"><ele>297.0</ele><time>2026-04-11T08:33:36.999Z</time></trkpt><trkpt lat="43.372099206706835" lon="11.429176087186974"><ele>297.0</ele><time>2026-04-11T08:33:37.999Z</time></trkpt><trkpt lat="43.372022299889565" lon="11.429133782685627"><ele>296.3333333333333</ele><time>2026-04-11T08:33:38.999Z</time></trkpt><trkpt lat="43.37194320614706" lon="11.42909002945338"><ele>295.6666666666667</ele><time>2026-04-11T08:33:39.999Z</time></trkpt><trkpt lat="43.37186383103733" lon="11.4290385158168"><ele>295.0</ele><time>2026-04-11T08:33:40.999Z</time></trkpt><trkpt lat="43.37178388278974" lon="11.428994718682194"><ele>294.33333333333337</ele><time>2026-04-11T08:33:41.999Z</time></trkpt><trkpt lat="43.37170887832468" lon="11.428949898551872"><ele>293.6666666666667</ele><time>2026-04-11T08:33:42.999Z</time></trkpt><trkpt lat="43.37162997172841" lon="11.42890488407297"><ele>293.0</ele><time>2026-04-11T08:33:43.999Z</time></trkpt><trkpt lat="43.37154852870417" lon="11.428865916688775"><ele>293.0</ele><time>2026-04-11T08:33:44.999Z</time></trkpt><trkpt lat="43.37146505902783" lon="11.428828581422627"><ele>293.0</ele><time>2026-04-11T08:33:45.999Z</time></trkpt><trkpt lat="43.37138650790573" lon="11.428795326470269"><ele>293.0</ele><time>2026-04-11T08:33:46.999Z</time></trkpt><trkpt lat="43.371308710188494" lon="11.428759299428597"><ele>293.0</ele><time>2026-04-11T08:33:47.999Z</time></trkpt><trkpt lat="43.371234276803335" lon="11.42874129116739"><ele>293.0</ele><time>2026-04-11T08:33:48.999Z</time></trkpt><trkpt lat="43.37115637488701" lon="11.42872246455617"><ele>293.0</ele><time>2026-04-11T08:33:49.999Z</time></trkpt><trkpt lat="43.37107417424048" lon="11.428702728309288"><ele>293.1666666666667</ele><time>2026-04-11T08:33:50.999Z</time></trkpt><trkpt lat="43.370994257301824" lon="11.428682812102721"><ele>293.33333333333337</ele><time>2026-04-11T08:33:51.999Z</time></trkpt><trkpt lat="43.3709118801624" lon="11.42866866759425"><ele>293.5</ele><time>2026-04-11T08:33:52.999Z</time></trkpt><trkpt lat="43.37083302698227" lon="11.4286536498738"><ele>293.6666666666667</ele><time>2026-04-11T08:33:53.999Z</time></trkpt><trkpt lat="43.37074967614295" lon="11.42864212660055"><ele>293.8333333333333</ele><time>2026-04-11T08:33:54.999Z</time></trkpt><trkpt lat="43.370666882144945" lon="11.428628276720094"><ele>294.0</ele><time>2026-04-11T08:33:55.999Z</time></trkpt><trkpt lat="43.370584887970104" lon="11.428612295999294"><ele>292.8333333333333</ele><time>2026-04-11T08:33:56.999Z</time></trkpt><trkpt lat="43.37050129413597" lon="11.42860538754746"><ele>291.6666666666667</ele><time>2026-04-11T08:33:57.999Z</time></trkpt><trkpt lat="43.370415899178376" lon="11.428598620047337"><ele>290.5</ele><time>2026-04-11T08:33:58.999Z</time></trkpt><trkpt lat="43.37033218064343" lon="11.428584101652536"><ele>289.33333333333337</ele><time>2026-04-11T08:33:59.999Z</time></trkpt><trkpt lat="43.37024964067197" lon="11.428570341914552"><ele>288.1666666666667</ele><time>2026-04-11T08:34:00.999Z</time></trkpt><trkpt lat="43.37016484898658" lon="11.42855675770284"><ele>287.0</ele><time>2026-04-11T08:34:01.999Z</time></trkpt><trkpt lat="43.37007749230287" lon="11.428543811297136"><ele>287.0</ele><time>2026-04-11T08:34:02.999Z</time></trkpt><trkpt lat="43.36998802685135" lon="11.428533553185025"><ele>287.0</ele><time>2026-04-11T08:34:03.999Z</time></trkpt><trkpt lat="43.3698924072504" lon="11.42852426588703"><ele>287.0</ele><time>2026-04-11T08:34:04.999Z</time></trkpt><trkpt lat="43.369803002602296" lon="11.428522026721174"><ele>287.0</ele><time>2026-04-11T08:34:05.999Z</time></trkpt><trkpt lat="43.36970822135147" lon="11.428519358093725"><ele>287.0</ele><time>2026-04-11T08:34:06.999Z</time></trkpt><trkpt lat="43.36961522492173" lon="11.428509508219184"><ele>286.1666666666667</ele><time>2026-04-11T08:34:07.999Z</time></trkpt><trkpt lat="43.36952593273186" lon="11.428501384753904"><ele>285.33333333333337</ele><time>2026-04-11T08:34:08.999Z</time></trkpt><trkpt lat="43.36943813270415" lon="11.428490263404722"><ele>284.5</ele><time>2026-04-11T08:34:09.999Z</time></trkpt><trkpt lat="43.369346367247594" lon="11.428479057669188"><ele>283.6666666666667</ele><time>2026-04-11T08:34:10.999Z</time></trkpt><trkpt lat="43.36925740917093" lon="11.428480542785373"><ele>282.8333333333333</ele><time>2026-04-11T08:34:11.999Z</time></trkpt><trkpt lat="43.36916798700254" lon="11.428479309062464"><ele>282.0</ele><time>2026-04-11T08:34:12.999Z</time></trkpt><trkpt lat="43.36908230119217" lon="11.428475659205603"><ele>282.0</ele><time>2026-04-11T08:34:13.999Z</time></trkpt><trkpt lat="43.36899475860006" lon="11.428466797218771"><ele>282.0</ele><time>2026-04-11T08:34:14.999Z</time></trkpt><trkpt lat="43.368909298491374" lon="11.428457697814416"><ele>282.0</ele><time>2026-04-11T08:34:15.999Z</time></trkpt><trkpt lat="43.3688226052769" lon="11.428442582321143"><ele>282.0</ele><time>2026-04-11T08:34:16.999Z</time></trkpt><trkpt lat="43.368739569749415" lon="11.428424887805448"><ele>282.0</ele><time>2026-04-11T08:34:18Z</time></trkpt><trkpt lat="43.3686574846039" lon="11.428392277196242"><ele>282.0</ele><time>2026-04-11T08:34:19Z</time></trkpt><trkpt lat="43.368579097117745" lon="11.428343902713289"><ele>282.3333333333333</ele><time>2026-04-11T08:34:20Z</time></trkpt><trkpt lat="43.36850153183701" lon="11.428289472778923"><ele>282.6666666666667</ele><time>2026-04-11T08:34:21Z</time></trkpt><trkpt lat="43.36843478161453" lon="11.428228212241306"><ele>283.0</ele><time>2026-04-11T08:34:22Z</time></trkpt><trkpt lat="43.36836410815337" lon="11.428163714202602"><ele>283.33333333333337</ele><time>2026-04-11T08:34:23Z</time></trkpt><trkpt lat="43.368297439373144" lon="11.42809702415948"><ele>283.6666666666667</ele><time>2026-04-11T08:34:24Z</time></trkpt><trkpt lat="43.36823220055075" lon="11.428024940350745"><ele>284.0</ele><time>2026-04-11T08:34:25Z</time></trkpt><trkpt lat="43.368190702226954" lon="11.42792637584915"><ele>283.83333333333337</ele><time>2026-04-11T08:34:26Z</time></trkpt><trkpt lat="43.368125895563196" lon="11.427839645837919"><ele>283.6666666666667</ele><time>2026-04-11T08:34:27Z</time></trkpt><trkpt lat="43.36809355065266" lon="11.4277232661581"><ele>283.5</ele><time>2026-04-11T08:34:28Z</time></trkpt><trkpt lat="43.36806745099729" lon="11.427613138287732"><ele>283.3333333333333</ele><time>2026-04-11T08:34:29Z</time></trkpt><trkpt lat="43.36804260444471" lon="11.427503483134409"><ele>283.16666666666663</ele><time>2026-04-11T08:34:30Z</time></trkpt><trkpt lat="43.368016843844615" lon="11.42739497908658"><ele>283.0</ele><time>2026-04-11T08:34:31Z</time></trkpt><trkpt lat="43.367991666011775" lon="11.427295085639232"><ele>283.0</ele><time>2026-04-11T08:34:32Z</time></trkpt><trkpt lat="43.367961011224736" lon="11.427198894095133"><ele>283.0</ele><time>2026-04-11T08:34:33Z</time></trkpt><trkpt lat="43.367927668577785" lon="11.427111740620123"><ele>283.0</ele><time>2026-04-11T08:34:34Z</time></trkpt><trkpt lat="43.367858902819634" lon="11.426968448415774"><ele>283.0</ele><time>2026-04-11T08:34:36Z</time></trkpt><trkpt lat="43.36781292051603" lon="11.426904371504566"><ele>283.0</ele><time>2026-04-11T08:34:37Z</time></trkpt><trkpt lat="43.36772277669414" lon="11.426806671809677"><ele>283.2</ele><time>2026-04-11T08:34:39Z</time></trkpt><trkpt lat="43.367636165772176" lon="11.426745437276322"><ele>283.4</ele><time>2026-04-11T08:34:41Z</time></trkpt><trkpt lat="43.367535752094795" lon="11.426712168775284"><ele>283.59999999999997</ele><time>2026-04-11T08:34:43Z</time></trkpt><trkpt lat="43.367440164002446" lon="11.426675044088109"><ele>283.8</ele><time>2026-04-11T08:34:45Z</time></trkpt><trkpt lat="43.36734487972262" lon="11.42662820979061"><ele>284.0</ele><time>2026-04-11T08:34:47Z</time></trkpt><trkpt lat="43.36724536511613" lon="11.426588790955513"><ele>285.0</ele><time>2026-04-11T08:34:49Z</time></trkpt><trkpt lat="43.36714367682854" lon="11.426552523429452"><ele>286.0</ele><time>2026-04-11T08:34:51Z</time></trkpt><trkpt lat="43.36705913824971" lon="11.426507310425459"><ele>287.0</ele><time>2026-04-11T08:34:53Z</time></trkpt><trkpt lat="43.36696561464202" lon="11.426470478576295"><ele>288.0</ele><time>2026-04-11T08:34:55Z</time></trkpt><trkpt lat="43.36687007492598" lon="11.426427822600058"><ele>289.0</ele><time>2026-04-11T08:34:57Z</time></trkpt><trkpt lat="43.3667887194578" lon="11.426383924180936"><ele>289.0</ele><time>2026-04-11T08:34:59Z</time></trkpt><trkpt lat="43.36669184046918" lon="11.426353366522271"><ele>289.0</ele><time>2026-04-11T08:35:01Z</time></trkpt><trkpt lat="43.36659671860402" lon="11.426328598531924"><ele>289.0</ele><time>2026-04-11T08:35:03Z</time></trkpt><trkpt lat="43.366494431486814" lon="11.426308140399525"><ele>289.0</ele><time>2026-04-11T08:35:05Z</time></trkpt><trkpt lat="43.366385367644945" lon="11.426305002930397"><ele>289.0</ele><time>2026-04-11T08:35:07Z</time></trkpt><trkpt lat="43.36627604859366" lon="11.426325839295881"><ele>289.14285714285717</ele><time>2026-04-11T08:35:09Z</time></trkpt><trkpt lat="43.366155288022874" lon="11.426357586471605"><ele>289.2857142857143</ele><time>2026-04-11T08:35:11Z</time></trkpt><trkpt lat="43.36609107927741" lon="11.426370126732131"><ele>289.42857142857144</ele><time>2026-04-11T08:35:12Z</time></trkpt><trkpt lat="43.36602724214532" lon="11.426375739039392"><ele>289.57142857142856</ele><time>2026-04-11T08:35:13Z</time></trkpt><trkpt lat="43.36596421027852" lon="11.42636596040846"><ele>289.7142857142857</ele><time>2026-04-11T08:35:14Z</time></trkpt><trkpt lat="43.365899602462456" lon="11.426348906236647"><ele>289.8571428571429</ele><time>2026-04-11T08:35:15Z</time></trkpt><trkpt lat="43.365835473120164" lon="11.426319262319405"><ele>290.0</ele><time>2026-04-11T08:35:16Z</time></trkpt><trkpt lat="43.36574031756778" lon="11.42619323818925"><ele>290.0</ele><time>2026-04-11T08:35:18Z</time></trkpt><trkpt lat="43.3656529884233" lon="11.42606205241658"><ele>290.0</ele><time>2026-04-11T08:35:20Z</time></trkpt><trkpt lat="43.36561551030937" lon="11.425991557886089"><ele>290.0</ele><time>2026-04-11T08:35:21Z</time></trkpt><trkpt lat="43.36553159464706" lon="11.425850528704801"><ele>290.0</ele><time>2026-04-11T08:35:22.999Z</time></trkpt><trkpt lat="43.36548430937793" lon="11.425773731353143"><ele>290.0</ele><time>2026-04-11T08:35:23.999Z</time></trkpt><trkpt lat="43.36542973798866" lon="11.425685826914128"><ele>288.6666666666667</ele><time>2026-04-11T08:35:24.999Z</time></trkpt><trkpt lat="43.36537633388738" lon="11.425603568241339"><ele>287.33333333333337</ele><time>2026-04-11T08:35:25.999Z</time></trkpt><trkpt lat="43.36531999391678" lon="11.425512734563569"><ele>286.0</ele><time>2026-04-11T08:35:26.999Z</time></trkpt><trkpt lat="43.36527019453033" lon="11.425420275489197"><ele>284.6666666666667</ele><time>2026-04-11T08:35:27.999Z</time></trkpt><trkpt lat="43.365214593459186" lon="11.42532652363344"><ele>283.3333333333333</ele><time>2026-04-11T08:35:28.999Z</time></trkpt><trkpt lat="43.36515212975503" lon="11.425216496824182"><ele>282.0</ele><time>2026-04-11T08:35:29.999Z</time></trkpt><trkpt lat="43.36507880226246" lon="11.425112695617567"><ele>281.75</ele><time>2026-04-11T08:35:30.999Z</time></trkpt><trkpt lat="43.36499733319776" lon="11.42500167159155"><ele>281.5</ele><time>2026-04-11T08:35:31.999Z</time></trkpt><trkpt lat="43.36492836152174" lon="11.424888554808765"><ele>281.25</ele><time>2026-04-11T08:35:32.999Z</time></trkpt><trkpt lat="43.364859015995165" lon="11.42475156132981"><ele>281.0</ele><time>2026-04-11T08:35:33.999Z</time></trkpt><trkpt lat="43.364795139567526" lon="11.424622883528047"><ele>280.5</ele><time>2026-04-11T08:35:34.999Z</time></trkpt><trkpt lat="43.364732546299386" lon="11.424483206126213"><ele>280.0</ele><time>2026-04-11T08:35:35.999Z</time></trkpt><trkpt lat="43.364677568306504" lon="11.424326051065407"><ele>279.5</ele><time>2026-04-11T08:35:36.999Z</time></trkpt><trkpt lat="43.36463621223935" lon="11.424165222625675"><ele>279.0</ele><time>2026-04-11T08:35:37.999Z</time></trkpt><trkpt lat="43.36459766731594" lon="11.424003785724869"><ele>278.75</ele><time>2026-04-11T08:35:38.999Z</time></trkpt><trkpt lat="43.36457099449122" lon="11.42383466708139"><ele>278.5</ele><time>2026-04-11T08:35:39.999Z</time></trkpt><trkpt lat="43.36454747375148" lon="11.423662834886503"><ele>278.25</ele><time>2026-04-11T08:35:40.999Z</time></trkpt><trkpt lat="43.36452782143758" lon="11.423483810822807"><ele>278.0</ele><time>2026-04-11T08:35:41.999Z</time></trkpt><trkpt lat="43.364526632969174" lon="11.423310738130661"><ele>276.25</ele><time>2026-04-11T08:35:42.999Z</time></trkpt><trkpt lat="43.36451722340965" lon="11.423124659108897"><ele>274.5</ele><time>2026-04-11T08:35:43.999Z</time></trkpt><trkpt lat="43.364510926510796" lon="11.422947552027303"><ele>272.75</ele><time>2026-04-11T08:35:44.999Z</time></trkpt><trkpt lat="43.364499313748944" lon="11.422770757811621"><ele>271.0</ele><time>2026-04-11T08:35:45.999Z</time></trkpt><trkpt lat="43.364482084792336" lon="11.422591118642472"><ele>269.25</ele><time>2026-04-11T08:35:46.999Z</time></trkpt><trkpt lat="43.36447448867173" lon="11.422416728003034"><ele>267.5</ele><time>2026-04-11T08:35:47.999Z</time></trkpt><trkpt lat="43.364466038407926" lon="11.42224646413187"><ele>265.75</ele><time>2026-04-11T08:35:48.999Z</time></trkpt><trkpt lat="43.364457755435" lon="11.422070769394152"><ele>264.0</ele><time>2026-04-11T08:35:49.999Z</time></trkpt><trkpt lat="43.36444641338626" lon="11.421898379581103"><ele>262.25</ele><time>2026-04-11T08:35:50.999Z</time></trkpt><trkpt lat="43.36444131488096" lon="11.421732718221815"><ele>260.5</ele><time>2026-04-11T08:35:51.999Z</time></trkpt><trkpt lat="43.36442972629308" lon="11.421571980168686"><ele>258.75</ele><time>2026-04-11T08:35:52.999Z</time></trkpt><trkpt lat="43.36441510580454" lon="11.421403532023616"><ele>257.0</ele><time>2026-04-11T08:35:53.999Z</time></trkpt><trkpt lat="43.36438459134768" lon="11.421250386431094"><ele>256.8</ele><time>2026-04-11T08:35:54.999Z</time></trkpt><trkpt lat="43.364339040493284" lon="11.421106430551399"><ele>256.6</ele><time>2026-04-11T08:35:55.999Z</time></trkpt><trkpt lat="43.364288939789695" lon="11.420964211125137"><ele>256.40000000000003</ele><time>2026-04-11T08:35:56.999Z</time></trkpt><trkpt lat="43.36424945864686" lon="11.420823129822686"><ele>256.2</ele><time>2026-04-11T08:35:57.999Z</time></trkpt><trkpt lat="43.36419969816356" lon="11.42069335022817"><ele>256.0</ele><time>2026-04-11T08:35:58.999Z</time></trkpt><trkpt lat="43.364160965661604" lon="11.420553387855"><ele>255.60000000000002</ele><time>2026-04-11T08:35:59.999Z</time></trkpt><trkpt lat="43.364136783773866" lon="11.420408926955089"><ele>255.20000000000002</ele><time>2026-04-11T08:36:00.999Z</time></trkpt><trkpt lat="43.36411401338351" lon="11.420265694369505"><ele>254.79999999999998</ele><time>2026-04-11T08:36:01.999Z</time></trkpt><trkpt lat="43.36410259788031" lon="11.420124936178832"><ele>254.39999999999998</ele><time>2026-04-11T08:36:02.999Z</time></trkpt><trkpt lat="43.364099175761154" lon="11.419994212578985"><ele>254.0</ele><time>2026-04-11T08:36:03.999Z</time></trkpt><trkpt lat="43.36408203363877" lon="11.419861682415096"><ele>254.0</ele><time>2026-04-11T08:36:04.999Z</time></trkpt><trkpt lat="43.364060206943414" lon="11.41973051035166"><ele>253.99999999999997</ele><time>2026-04-11T08:36:05.999Z</time></trkpt><trkpt lat="43.36404436167296" lon="11.419606530914306"><ele>253.99999999999997</ele><time>2026-04-11T08:36:06.999Z</time></trkpt><trkpt lat="43.36403531415085" lon="11.419486376480082"><ele>254.0</ele><time>2026-04-11T08:36:07.999Z</time></trkpt><trkpt lat="43.36403093388973" lon="11.419362162101411"><ele>254.0</ele><time>2026-04-11T08:36:08.999Z</time></trkpt><trkpt lat="43.36403084729727" lon="11.419238992291282"><ele>253.2</ele><time>2026-04-11T08:36:09.999Z</time></trkpt><trkpt lat="43.3640265200151" lon="11.419104721101277"><ele>252.39999999999998</ele><time>2026-04-11T08:36:10.999Z</time></trkpt><trkpt lat="43.36402295696088" lon="11.418980097216034"><ele>251.6</ele><time>2026-04-11T08:36:11.999Z</time></trkpt><trkpt lat="43.36402023231457" lon="11.418856625614783"><ele>250.8</ele><time>2026-04-11T08:36:12.999Z</time></trkpt><trkpt lat="43.36401023732863" lon="11.418750091730411"><ele>250.0</ele><time>2026-04-11T08:36:13.999Z</time></trkpt><trkpt lat="43.36403163037286" lon="11.41861794423455"><ele>248.5</ele><time>2026-04-11T08:36:15.999Z</time></trkpt><trkpt lat="43.36387278123126" lon="11.418562228732759"><ele>247.0</ele><time>2026-04-11T08:36:16.999Z</time></trkpt><trkpt lat="43.36380892024397" lon="11.418541384529824"><ele>245.5</ele><time>2026-04-11T08:36:17.999Z</time></trkpt><trkpt lat="43.3637111500477" lon="11.418485699263405"><ele>244.0</ele><time>2026-04-11T08:36:19.999Z</time></trkpt><trkpt lat="43.363589751027966" lon="11.418442589387018"><ele>243.33333333333331</ele><time>2026-04-11T08:36:21.999Z</time></trkpt><trkpt lat="43.36352380288195" lon="11.418425184705335"><ele>242.66666666666666</ele><time>2026-04-11T08:36:22.999Z</time></trkpt><trkpt lat="43.36339171514179" lon="11.418413578393972"><ele>242.0</ele><time>2026-04-11T08:36:25Z</time></trkpt><trkpt lat="43.36332009169184" lon="11.418415676222963"><ele>241.33333333333331</ele><time>2026-04-11T08:36:26Z</time></trkpt><trkpt lat="43.363242908014584" lon="11.418423640412342"><ele>240.66666666666666</ele><time>2026-04-11T08:36:27Z</time></trkpt><trkpt lat="43.363164959388904" lon="11.418413260018472"><ele>240.0</ele><time>2026-04-11T08:36:28Z</time></trkpt><trkpt lat="43.363086292372984" lon="11.418407167300971"><ele>239.5</ele><time>2026-04-11T08:36:29Z</time></trkpt><trkpt lat="43.36300565185359" lon="11.418392649840658"><ele>239.0</ele><time>2026-04-11T08:36:30Z</time></trkpt><trkpt lat="43.362925506678486" lon="11.418373919450826"><ele>238.5</ele><time>2026-04-11T08:36:31Z</time></trkpt><trkpt lat="43.36284010631267" lon="11.41834885759864"><ele>238.0</ele><time>2026-04-11T08:36:32Z</time></trkpt><trkpt lat="43.36275807584077" lon="11.418328363107115"><ele>237.5</ele><time>2026-04-11T08:36:33Z</time></trkpt><trkpt lat="43.36267613636368" lon="11.418304085476809"><ele>237.0</ele><time>2026-04-11T08:36:34Z</time></trkpt><trkpt lat="43.36259856894318" lon="11.418277443022454"><ele>237.0</ele><time>2026-04-11T08:36:35Z</time></trkpt><trkpt lat="43.36251841916323" lon="11.418252776672484"><ele>237.0</ele><time>2026-04-11T08:36:36Z</time></trkpt><trkpt lat="43.362432341322716" lon="11.418228392333711"><ele>237.0</ele><time>2026-04-11T08:36:37Z</time></trkpt><trkpt lat="43.362344041477165" lon="11.41820640698051"><ele>237.0</ele><time>2026-04-11T08:36:38Z</time></trkpt><trkpt lat="43.362256089477896" lon="11.41821655391046"><ele>237.0</ele><time>2026-04-11T08:36:39Z</time></trkpt><trkpt lat="43.36216738435194" lon="11.418250974813084"><ele>237.0</ele><time>2026-04-11T08:36:40Z</time></trkpt><trkpt lat="43.36208630961384" lon="11.4183179738385"><ele>235.8</ele><time>2026-04-11T08:36:41Z</time></trkpt><trkpt lat="43.36201426390072" lon="11.418396716938766"><ele>234.6</ele><time>2026-04-11T08:36:42Z</time></trkpt><trkpt lat="43.36195553216758" lon="11.418487941394359"><ele>233.40000000000003</ele><time>2026-04-11T08:36:43Z</time></trkpt><trkpt lat="43.361898466430226" lon="11.418576276477552"><ele>232.20000000000002</ele><time>2026-04-11T08:36:44Z</time></trkpt><trkpt lat="43.36184223291049" lon="11.418674712798458"><ele>231.0</ele><time>2026-04-11T08:36:45Z</time></trkpt><trkpt lat="43.3617801132303" lon="11.4187699276218"><ele>232.4</ele><time>2026-04-11T08:36:46Z</time></trkpt><trkpt lat="43.36172568100562" lon="11.41886410159856"><ele>233.8</ele><time>2026-04-11T08:36:47Z</time></trkpt><trkpt lat="43.361669036779546" lon="11.418959617988904"><ele>235.20000000000002</ele><time>2026-04-11T08:36:48Z</time></trkpt><trkpt lat="43.3616061022795" lon="11.419048201778653"><ele>236.60000000000002</ele><time>2026-04-11T08:36:49Z</time></trkpt><trkpt lat="43.361524147514494" lon="11.41910973344734"><ele>238.0</ele><time>2026-04-11T08:36:50Z</time></trkpt><trkpt lat="43.36143423076896" lon="11.419143624508708"><ele>236.99999999999997</ele><time>2026-04-11T08:36:51Z</time></trkpt><trkpt lat="43.36134308321022" lon="11.419160034465566"><ele>236.0</ele><time>2026-04-11T08:36:52Z</time></trkpt><trkpt lat="43.3612602438816" lon="11.419197822533983"><ele>235.0</ele><time>2026-04-11T08:36:53Z</time></trkpt><trkpt lat="43.36117890221279" lon="11.419230655595804"><ele>234.0</ele><time>2026-04-11T08:36:54Z</time></trkpt><trkpt lat="43.36109392608102" lon="11.419254874428832"><ele>232.99999999999997</ele><time>2026-04-11T08:36:55Z</time></trkpt><trkpt lat="43.361009315960075" lon="11.419276117567485"><ele>232.0</ele><time>2026-04-11T08:36:56Z</time></trkpt><trkpt lat="43.360929322718384" lon="11.419310522229212"><ele>231.99999999999997</ele><time>2026-04-11T08:36:57Z</time></trkpt><trkpt lat="43.36084596999828" lon="11.419342368390705"><ele>232.0</ele><time>2026-04-11T08:36:58Z</time></trkpt><trkpt lat="43.36076499450719" lon="11.419374639300218"><ele>232.0</ele><time>2026-04-11T08:36:59Z</time></trkpt><trkpt lat="43.360678311050194" lon="11.419395479676874"><ele>232.0</ele><time>2026-04-11T08:37:00Z</time></trkpt><trkpt lat="43.36058996018232" lon="11.419425006537228"><ele>231.99999999999997</ele><time>2026-04-11T08:37:01Z</time></trkpt><trkpt lat="43.360505047837215" lon="11.419454463525494"><ele>232.0</ele><time>2026-04-11T08:37:02Z</time></trkpt><trkpt lat="43.36042216993747" lon="11.419493138386615"><ele>231.99999999999997</ele><time>2026-04-11T08:37:03Z</time></trkpt><trkpt lat="43.36033864579203" lon="11.41952489764982"><ele>232.0</ele><time>2026-04-11T08:37:04Z</time></trkpt><trkpt lat="43.36025564194911" lon="11.419558572567153"><ele>232.0</ele><time>2026-04-11T08:37:05Z</time></trkpt><trkpt lat="43.360171179044656" lon="11.419598469160132"><ele>232.0</ele><time>2026-04-11T08:37:06Z</time></trkpt><trkpt lat="43.3600835454769" lon="11.419624808321736"><ele>231.99999999999997</ele><time>2026-04-11T08:37:07Z</time></trkpt><trkpt lat="43.36000137720517" lon="11.419653174289598"><ele>232.0</ele><time>2026-04-11T08:37:08Z</time></trkpt><trkpt lat="43.359919140416395" lon="11.419687322703131"><ele>231.99999999999997</ele><time>2026-04-11T08:37:09Z</time></trkpt><trkpt lat="43.359834675545656" lon="11.419717472720528"><ele>232.0</ele><time>2026-04-11T08:37:10Z</time></trkpt><trkpt lat="43.359750085610955" lon="11.419751685695172"><ele>232.0</ele><time>2026-04-11T08:37:11Z</time></trkpt><trkpt lat="43.35966561467029" lon="11.419786985462554"><ele>232.0</ele><time>2026-04-11T08:37:12Z</time></trkpt><trkpt lat="43.35957758113031" lon="11.419810837014513"><ele>231.99999999999997</ele><time>2026-04-11T08:37:13Z</time></trkpt><trkpt lat="43.359492636479345" lon="11.419835068446037"><ele>232.0</ele><time>2026-04-11T08:37:14Z</time></trkpt><trkpt lat="43.35940563060604" lon="11.419865817512632"><ele>231.33333333333331</ele><time>2026-04-11T08:37:15Z</time></trkpt><trkpt lat="43.3593213847339" lon="11.41990203790829"><ele>230.66666666666666</ele><time>2026-04-11T08:37:16Z</time></trkpt><trkpt lat="43.35923798460915" lon="11.419929704733477"><ele>230.0</ele><time>2026-04-11T08:37:17Z</time></trkpt><trkpt lat="43.35915030626635" lon="11.419935225990784"><ele>229.33333333333331</ele><time>2026-04-11T08:37:18Z</time></trkpt><trkpt lat="43.359063479826844" lon="11.41992569995023"><ele>228.66666666666666</ele><time>2026-04-11T08:37:19Z</time></trkpt><trkpt lat="43.35897964526374" lon="11.419878142268006"><ele>228.0</ele><time>2026-04-11T08:37:20Z</time></trkpt><trkpt lat="43.358912712397476" lon="11.4197952210552"><ele>227.5</ele><time>2026-04-11T08:37:21Z</time></trkpt><trkpt lat="43.35885521479101" lon="11.419701542304802"><ele>227.0</ele><time>2026-04-11T08:37:22Z</time></trkpt><trkpt lat="43.35880361289658" lon="11.419601115303497"><ele>226.5</ele><time>2026-04-11T08:37:23Z</time></trkpt><trkpt lat="43.35874921942037" lon="11.419505793583753"><ele>226.0</ele><time>2026-04-11T08:37:24Z</time></trkpt><trkpt lat="43.35869180836683" lon="11.41941023426451"><ele>225.5</ele><time>2026-04-11T08:37:25Z</time></trkpt><trkpt lat="43.35863169885247" lon="11.419325487560622"><ele>225.0</ele><time>2026-04-11T08:37:26Z</time></trkpt><trkpt lat="43.35857256569897" lon="11.419236453953335"><ele>224.5</ele><time>2026-04-11T08:37:27Z</time></trkpt><trkpt lat="43.35851634308004" lon="11.419147186430074"><ele>224.0</ele><time>2026-04-11T08:37:28Z</time></trkpt><trkpt lat="43.35846288807904" lon="11.419055247874665"><ele>223.5</ele><time>2026-04-11T08:37:29Z</time></trkpt><trkpt lat="43.35840382497744" lon="11.418963868123328"><ele>223.0</ele><time>2026-04-11T08:37:30Z</time></trkpt><trkpt lat="43.358351486756334" lon="11.418874400881377"><ele>222.5</ele><time>2026-04-11T08:37:30.999Z</time></trkpt><trkpt lat="43.358294463153484" lon="11.418786859125161"><ele>222.0</ele><time>2026-04-11T08:37:31.999Z</time></trkpt><trkpt lat="43.358240202347865" lon="11.418701483982842"><ele>221.83333333333334</ele><time>2026-04-11T08:37:32.999Z</time></trkpt><trkpt lat="43.35818125571022" lon="11.41861598962066"><ele>221.66666666666669</ele><time>2026-04-11T08:37:33.999Z</time></trkpt><trkpt lat="43.358124294462094" lon="11.418528838823702"><ele>221.5</ele><time>2026-04-11T08:37:34.999Z</time></trkpt><trkpt lat="43.35806503841367" lon="11.418441535612283"><ele>221.33333333333334</ele><time>2026-04-11T08:37:35.999Z</time></trkpt><trkpt lat="43.35800936515535" lon="11.418357679966837"><ele>221.16666666666669</ele><time>2026-04-11T08:37:36.999Z</time></trkpt><trkpt lat="43.35795149252706" lon="11.418272979863765"><ele>221.0</ele><time>2026-04-11T08:37:37.999Z</time></trkpt><trkpt lat="43.35789576518241" lon="11.418188364150417"><ele>220.83333333333334</ele><time>2026-04-11T08:37:38.999Z</time></trkpt><trkpt lat="43.35783998179066" lon="11.4180991373957"><ele>220.66666666666669</ele><time>2026-04-11T08:37:39.999Z</time></trkpt><trkpt lat="43.357785447149766" lon="11.418011736811723"><ele>220.5</ele><time>2026-04-11T08:37:40.999Z</time></trkpt><trkpt lat="43.35773151249001" lon="11.417925840191216"><ele>220.33333333333331</ele><time>2026-04-11T08:37:41.999Z</time></trkpt><trkpt lat="43.35767574599827" lon="11.417844523869615"><ele>220.16666666666666</ele><time>2026-04-11T08:37:42.999Z</time></trkpt><trkpt lat="43.35762126189314" lon="11.417760499458184"><ele>220.0</ele><time>2026-04-11T08:37:43.999Z</time></trkpt><trkpt lat="43.35757252712867" lon="11.417671421970041"><ele>219.99999999999997</ele><time>2026-04-11T08:37:44.999Z</time></trkpt><trkpt lat="43.35751843370109" lon="11.417587339429508"><ele>220.0</ele><time>2026-04-11T08:37:45.999Z</time></trkpt><trkpt lat="43.35745951568652" lon="11.417504352180446"><ele>220.0</ele><time>2026-04-11T08:37:46.999Z</time></trkpt><trkpt lat="43.35740540350637" lon="11.417419422518211"><ele>220.0</ele><time>2026-04-11T08:37:47.999Z</time></trkpt><trkpt lat="43.35734874416199" lon="11.417348701672779"><ele>219.99999999999997</ele><time>2026-04-11T08:37:48.999Z</time></trkpt><trkpt lat="43.3573070346713" lon="11.417280484645596"><ele>220.0</ele><time>2026-04-11T08:37:49.999Z</time></trkpt><trkpt lat="43.35726901560522" lon="11.417202930382269"><ele>219.83333333333331</ele><time>2026-04-11T08:37:50.999Z</time></trkpt><trkpt lat="43.35722089584754" lon="11.417131551549277"><ele>219.66666666666666</ele><time>2026-04-11T08:37:51.999Z</time></trkpt><trkpt lat="43.35717118308702" lon="11.41706495284884"><ele>219.5</ele><time>2026-04-11T08:37:52.999Z</time></trkpt><trkpt lat="43.35712513198551" lon="11.416996459712092"><ele>219.33333333333331</ele><time>2026-04-11T08:37:53.999Z</time></trkpt><trkpt lat="43.35708299035193" lon="11.416928019893168"><ele>219.16666666666666</ele><time>2026-04-11T08:37:54.999Z</time></trkpt><trkpt lat="43.357042295482536" lon="11.41685925146118"><ele>219.0</ele><time>2026-04-11T08:37:55.999Z</time></trkpt><trkpt lat="43.35695152666176" lon="11.41673066687834"><ele>219.0</ele><time>2026-04-11T08:37:57.999Z</time></trkpt><trkpt lat="43.35687228483307" lon="11.4166041203302"><ele>219.0</ele><time>2026-04-11T08:37:59.999Z</time></trkpt><trkpt lat="43.35680419552034" lon="11.416479062480214"><ele>219.0</ele><time>2026-04-11T08:38:01.999Z</time></trkpt><trkpt lat="43.356725264314214" lon="11.416369093391266"><ele>219.0</ele><time>2026-04-11T08:38:03.999Z</time></trkpt><trkpt lat="43.35665470372071" lon="11.416252072321273"><ele>219.39999999999998</ele><time>2026-04-11T08:38:05.999Z</time></trkpt><trkpt lat="43.35658171454255" lon="11.416133016498133"><ele>219.79999999999998</ele><time>2026-04-11T08:38:07.999Z</time></trkpt><trkpt lat="43.3565146232398" lon="11.416015321589176"><ele>220.20000000000002</ele><time>2026-04-11T08:38:09.999Z</time></trkpt><trkpt lat="43.35643881631964" lon="11.4159028851502"><ele>220.60000000000002</ele><time>2026-04-11T08:38:11.999Z</time></trkpt><trkpt lat="43.35635002631774" lon="11.41582404020999"><ele>221.0</ele><time>2026-04-11T08:38:13.999Z</time></trkpt><trkpt lat="43.35624030270833" lon="11.415802812860647"><ele>221.20000000000002</ele><time>2026-04-11T08:38:15.999Z</time></trkpt><trkpt lat="43.356133293432286" lon="11.415818788341209"><ele>221.40000000000003</ele><time>2026-04-11T08:38:17.999Z</time></trkpt><trkpt lat="43.356020693334685" lon="11.415869865305119"><ele>221.6</ele><time>2026-04-11T08:38:19.999Z</time></trkpt><trkpt lat="43.355915220783594" lon="11.415917916132873"><ele>221.8</ele><time>2026-04-11T08:38:21.999Z</time></trkpt><trkpt lat="43.35581811117458" lon="11.415993962130665"><ele>222.0</ele><time>2026-04-11T08:38:23.999Z</time></trkpt><trkpt lat="43.355719982905555" lon="11.416068907151034"><ele>222.0</ele><time>2026-04-11T08:38:25.999Z</time></trkpt><trkpt lat="43.35562601644575" lon="11.416135264304202"><ele>222.0</ele><time>2026-04-11T08:38:27.999Z</time></trkpt><trkpt lat="43.35552361825745" lon="11.416184748713892"><ele>222.0</ele><time>2026-04-11T08:38:30Z</time></trkpt><trkpt lat="43.35541836372138" lon="11.416226759712812"><ele>222.0</ele><time>2026-04-11T08:38:32Z</time></trkpt><trkpt lat="43.3553036193055" lon="11.41623382830999"><ele>222.0</ele><time>2026-04-11T08:38:34Z</time></trkpt><trkpt lat="43.355235722856435" lon="11.4162299734427"><ele>223.25</ele><time>2026-04-11T08:38:35Z</time></trkpt><trkpt lat="43.35513317329223" lon="11.41620170427338"><ele>224.5</ele><time>2026-04-11T08:38:37Z</time></trkpt><trkpt lat="43.35501894496736" lon="11.416192637039467"><ele>225.75</ele><time>2026-04-11T08:38:39Z</time></trkpt><trkpt lat="43.35489610749307" lon="11.416179463566428"><ele>227.0</ele><time>2026-04-11T08:38:41Z</time></trkpt><trkpt lat="43.354769537897205" lon="11.416172911828983"><ele>226.66666666666669</ele><time>2026-04-11T08:38:43Z</time></trkpt><trkpt lat="43.35470240337459" lon="11.416173028114626"><ele>226.33333333333334</ele><time>2026-04-11T08:38:44Z</time></trkpt><trkpt lat="43.35463933279803" lon="11.416164311019154"><ele>226.0</ele><time>2026-04-11T08:38:45Z</time></trkpt><trkpt lat="43.354518622934926" lon="11.416149740502844"><ele>225.66666666666669</ele><time>2026-04-11T08:38:47Z</time></trkpt><trkpt lat="43.35439981845916" lon="11.416133217886646"><ele>225.33333333333334</ele><time>2026-04-11T08:38:49Z</time></trkpt><trkpt lat="43.35433465423423" lon="11.416128077306524"><ele>225.0</ele><time>2026-04-11T08:38:50Z</time></trkpt><trkpt lat="43.35421497796377" lon="11.416110773840739"><ele>225.0</ele><time>2026-04-11T08:38:52Z</time></trkpt><trkpt lat="43.35409502320301" lon="11.416093935217932"><ele>225.0</ele><time>2026-04-11T08:38:54Z</time></trkpt><trkpt lat="43.35396953031088" lon="11.41608051468446"><ele>225.0</ele><time>2026-04-11T08:38:56Z</time></trkpt><trkpt lat="43.353852062653374" lon="11.416068088123156"><ele>225.0</ele><time>2026-04-11T08:38:58Z</time></trkpt><trkpt lat="43.35373649610418" lon="11.416050650953919"><ele>224.6</ele><time>2026-04-11T08:39:00Z</time></trkpt><trkpt lat="43.35362168665487" lon="11.416032408178229"><ele>224.2</ele><time>2026-04-11T08:39:02Z</time></trkpt><trkpt lat="43.353504439930184" lon="11.415998630076727"><ele>223.8</ele><time>2026-04-11T08:39:04Z</time></trkpt><trkpt lat="43.35344269730009" lon="11.415975457864295"><ele>223.4</ele><time>2026-04-11T08:39:05Z</time></trkpt><trkpt lat="43.35332438501938" lon="11.415929909992037"><ele>223.0</ele><time>2026-04-11T08:39:07Z</time></trkpt><trkpt lat="43.35326153236958" lon="11.415903150447907"><ele>222.99999999999997</ele><time>2026-04-11T08:39:08Z</time></trkpt><trkpt lat="43.35319773913347" lon="11.41588353043534"><ele>223.0</ele><time>2026-04-11T08:39:09Z</time></trkpt><trkpt lat="43.353131861294784" lon="11.415862935115426"><ele>223.0</ele><time>2026-04-11T08:39:10Z</time></trkpt><trkpt lat="43.353061759762326" lon="11.415840059583413"><ele>223.0</ele><time>2026-04-11T08:39:11Z</time></trkpt><trkpt lat="43.35299565404098" lon="11.415825169791944"><ele>222.99999999999997</ele><time>2026-04-11T08:39:12Z</time></trkpt><trkpt lat="43.352932569667914" lon="11.415812731792869"><ele>223.0</ele><time>2026-04-11T08:39:13Z</time></trkpt><trkpt lat="43.35281173412397" lon="11.4157803975217"><ele>223.0</ele><time>2026-04-11T08:39:15Z</time></trkpt><trkpt lat="43.35274877997212" lon="11.415757231840034"><ele>223.0</ele><time>2026-04-11T08:39:16Z</time></trkpt><trkpt lat="43.352684739716594" lon="11.415737224740678"><ele>223.0</ele><time>2026-04-11T08:39:17Z</time></trkpt><trkpt lat="43.35261368997748" lon="11.415726276230425"><ele>223.0</ele><time>2026-04-11T08:39:18Z</time></trkpt><trkpt lat="43.35254622919279" lon="11.415707790179436"><ele>223.0</ele><time>2026-04-11T08:39:19Z</time></trkpt><trkpt lat="43.352480041750894" lon="11.415692678082788"><ele>223.0</ele><time>2026-04-11T08:39:20Z</time></trkpt><trkpt lat="43.35241304260915" lon="11.415667874179219"><ele>223.0</ele><time>2026-04-11T08:39:21Z</time></trkpt><trkpt lat="43.35234751123063" lon="11.415651103061045"><ele>223.0</ele><time>2026-04-11T08:39:22Z</time></trkpt><trkpt lat="43.35227855495678" lon="11.415639845752832"><ele>223.0</ele><time>2026-04-11T08:39:23Z</time></trkpt><trkpt lat="43.352215724272334" lon="11.415622331224956"><ele>223.0</ele><time>2026-04-11T08:39:24Z</time></trkpt><trkpt lat="43.352149732756516" lon="11.415605248522045"><ele>223.0</ele><time>2026-04-11T08:39:25Z</time></trkpt><trkpt lat="43.352088394455365" lon="11.415585109878299"><ele>223.0</ele><time>2026-04-11T08:39:26Z</time></trkpt><trkpt lat="43.352024252447286" lon="11.415568668990762"><ele>223.0</ele><time>2026-04-11T08:39:27Z</time></trkpt><trkpt lat="43.351960852580305" lon="11.41555343045513"><ele>223.0</ele><time>2026-04-11T08:39:28Z</time></trkpt><trkpt lat="43.351896976276514" lon="11.415530399057559"><ele>222.66666666666666</ele><time>2026-04-11T08:39:29Z</time></trkpt><trkpt lat="43.35176757701037" lon="11.415498318118253"><ele>222.33333333333331</ele><time>2026-04-11T08:39:31Z</time></trkpt><trkpt lat="43.35170108561607" lon="11.41547883484929"><ele>222.0</ele><time>2026-04-11T08:39:31.999Z</time></trkpt><trkpt lat="43.35163514543846" lon="11.415465681853648"><ele>221.66666666666669</ele><time>2026-04-11T08:39:32.999Z</time></trkpt><trkpt lat="43.35157026214088" lon="11.41543835312799"><ele>221.33333333333334</ele><time>2026-04-11T08:39:33.999Z</time></trkpt><trkpt lat="43.35150364870116" lon="11.415412300745128"><ele>221.0</ele><time>2026-04-11T08:39:34.999Z</time></trkpt><trkpt lat="43.35144048956121" lon="11.415390929832025"><ele>221.00000000000003</ele><time>2026-04-11T08:39:35.999Z</time></trkpt><trkpt lat="43.351375340174954" lon="11.415376169885176"><ele>221.0</ele><time>2026-04-11T08:39:36.999Z</time></trkpt><trkpt lat="43.3513126347512" lon="11.41536110661103"><ele>221.0</ele><time>2026-04-11T08:39:37.999Z</time></trkpt><trkpt lat="43.351248949508246" lon="11.41534271701972"><ele>221.0</ele><time>2026-04-11T08:39:38.999Z</time></trkpt><trkpt lat="43.351131122963196" lon="11.415311228029605"><ele>221.00000000000003</ele><time>2026-04-11T08:39:40.999Z</time></trkpt><trkpt lat="43.35106612852895" lon="11.415290180661811"><ele>221.0</ele><time>2026-04-11T08:39:41.999Z</time></trkpt><trkpt lat="43.35095750181592" lon="11.415244686550762"><ele>220.8</ele><time>2026-04-11T08:39:43.999Z</time></trkpt><trkpt lat="43.35083819160885" lon="11.41522560477707"><ele>220.60000000000002</ele><time>2026-04-11T08:39:45.999Z</time></trkpt><trkpt lat="43.35073472381814" lon="11.415181534033866"><ele>220.4</ele><time>2026-04-11T08:39:47.999Z</time></trkpt><trkpt lat="43.350629047222085" lon="11.415149710973418"><ele>220.2</ele><time>2026-04-11T08:39:49.999Z</time></trkpt><trkpt lat="43.350535165439815" lon="11.415125527233464"><ele>220.0</ele><time>2026-04-11T08:39:51.999Z</time></trkpt><trkpt lat="43.350441469332885" lon="11.415102303281225"><ele>220.99999999999997</ele><time>2026-04-11T08:39:53.999Z</time></trkpt><trkpt lat="43.350359146847666" lon="11.415088031438975"><ele>222.0</ele><time>2026-04-11T08:39:55.999Z</time></trkpt><trkpt lat="43.35028312074258" lon="11.415054852683122"><ele>223.0</ele><time>2026-04-11T08:39:57.999Z</time></trkpt><trkpt lat="43.35021039052843" lon="11.415040794614304"><ele>224.0</ele><time>2026-04-11T08:39:59.999Z</time></trkpt><trkpt lat="43.350146130351185" lon="11.414979384616998"><ele>224.99999999999997</ele><time>2026-04-11T08:40:01.999Z</time></trkpt><trkpt lat="43.350084103417174" lon="11.414925936219698"><ele>226.0</ele><time>2026-04-11T08:40:03.999Z</time></trkpt><trkpt lat="43.35004242689621" lon="11.414851709045525"><ele>226.0</ele><time>2026-04-11T08:40:05.999Z</time></trkpt><trkpt lat="43.35000036657615" lon="11.414780415749368"><ele>226.0</ele><time>2026-04-11T08:40:07.999Z</time></trkpt><trkpt lat="43.34995926937509" lon="11.414708392455836"><ele>226.0</ele><time>2026-04-11T08:40:09.999Z</time></trkpt><trkpt lat="43.349918127940064" lon="11.414634317440585"><ele>226.0</ele><time>2026-04-11T08:40:11.999Z</time></trkpt><trkpt lat="43.349870127393146" lon="11.414574036890066"><ele>226.0</ele><time>2026-04-11T08:40:13.999Z</time></trkpt><trkpt lat="43.34982958441337" lon="11.41450481511918"><ele>226.0</ele><time>2026-04-11T08:40:15.999Z</time></trkpt><trkpt lat="43.34979246085252" lon="11.414430513968046"><ele>226.0</ele><time>2026-04-11T08:40:17.999Z</time></trkpt><trkpt lat="43.34975232518881" lon="11.41436008957208"><ele>226.16666666666666</ele><time>2026-04-11T08:40:19.999Z</time></trkpt><trkpt lat="43.34971721964869" lon="11.414282496866246"><ele>226.33333333333331</ele><time>2026-04-11T08:40:21.999Z</time></trkpt><trkpt lat="43.349673479041165" lon="11.414207130732638"><ele>226.5</ele><time>2026-04-11T08:40:23.999Z</time></trkpt><trkpt lat="43.349621538296645" lon="11.414105807321272"><ele>226.66666666666669</ele><time>2026-04-11T08:40:26.999Z</time></trkpt><trkpt lat="43.34957289588991" lon="11.413997093018908"><ele>226.83333333333334</ele><time>2026-04-11T08:40:29.999Z</time></trkpt><trkpt lat="43.34953614660239" lon="11.413922648712495"><ele>227.0</ele><time>2026-04-11T08:40:31.999Z</time></trkpt><trkpt lat="43.34949924891954" lon="11.413817204813931"><ele>227.0</ele><time>2026-04-11T08:40:34.999Z</time></trkpt><trkpt lat="43.349474696065755" lon="11.413734712694026"><ele>227.00000000000003</ele><time>2026-04-11T08:40:37Z</time></trkpt><trkpt lat="43.34944250899715" lon="11.413617535172113"><ele>227.0</ele><time>2026-04-11T08:40:40Z</time></trkpt><trkpt lat="43.3494172115978" lon="11.413533078910271"><ele>227.0</ele><time>2026-04-11T08:40:42Z</time></trkpt><trkpt lat="43.34938752470309" lon="11.413454509932148"><ele>227.00000000000003</ele><time>2026-04-11T08:40:44Z</time></trkpt><trkpt lat="43.34935505694206" lon="11.41337293776167"><ele>227.0</ele><time>2026-04-11T08:40:46Z</time></trkpt><trkpt lat="43.349328041025295" lon="11.413281532451167"><ele>227.0</ele><time>2026-04-11T08:40:48Z</time></trkpt><trkpt lat="43.349297043168896" lon="11.413192695536413"><ele>227.00000000000003</ele><time>2026-04-11T08:40:50Z</time></trkpt><trkpt lat="43.34925059160167" lon="11.413116884860832"><ele>227.0</ele><time>2026-04-11T08:40:52Z</time></trkpt><trkpt lat="43.34920365301337" lon="11.413046123765353"><ele>227.0</ele><time>2026-04-11T08:40:54Z</time></trkpt><trkpt lat="43.349146413344776" lon="11.412966990722225"><ele>227.0</ele><time>2026-04-11T08:40:56Z</time></trkpt><trkpt lat="43.34909494343531" lon="11.412889391430765"><ele>227.00000000000003</ele><time>2026-04-11T08:40:58Z</time></trkpt><trkpt lat="43.34903739458915" lon="11.412810662659517"><ele>227.0</ele><time>2026-04-11T08:41:00Z</time></trkpt><trkpt lat="43.34897490246626" lon="11.412725155086628"><ele>226.66666666666669</ele><time>2026-04-11T08:41:02Z</time></trkpt><trkpt lat="43.348912637043206" lon="11.412640566397732"><ele>226.33333333333334</ele><time>2026-04-11T08:41:04Z</time></trkpt><trkpt lat="43.3488559218758" lon="11.412544029049952"><ele>226.0</ele><time>2026-04-11T08:41:06Z</time></trkpt><trkpt lat="43.348810209739156" lon="11.412445115660121"><ele>225.66666666666669</ele><time>2026-04-11T08:41:08Z</time></trkpt><trkpt lat="43.348759315789025" lon="11.412337671701808"><ele>225.33333333333334</ele><time>2026-04-11T08:41:10Z</time></trkpt><trkpt lat="43.34872067427907" lon="11.41223085196488"><ele>225.0</ele><time>2026-04-11T08:41:12Z</time></trkpt><trkpt lat="43.34868521475995" lon="11.412120954014645"><ele>226.16666666666666</ele><time>2026-04-11T08:41:14Z</time></trkpt><trkpt lat="43.348647669709294" lon="11.41200901534401"><ele>227.33333333333331</ele><time>2026-04-11T08:41:16Z</time></trkpt><trkpt lat="43.34861728734429" lon="11.411893198619476"><ele>228.5</ele><time>2026-04-11T08:41:18Z</time></trkpt><trkpt lat="43.34859015179416" lon="11.411779914521098"><ele>229.66666666666666</ele><time>2026-04-11T08:41:20Z</time></trkpt><trkpt lat="43.34856558027567" lon="11.411671684518751"><ele>230.83333333333331</ele><time>2026-04-11T08:41:22Z</time></trkpt><trkpt lat="43.34855116710581" lon="11.41155376963355"><ele>232.0</ele><time>2026-04-11T08:41:24Z</time></trkpt><trkpt lat="43.348543371610845" lon="11.411442095245826"><ele>231.99999999999997</ele><time>2026-04-11T08:41:26Z</time></trkpt><trkpt lat="43.348537287388005" lon="11.41134266352556"><ele>232.0</ele><time>2026-04-11T08:41:28Z</time></trkpt><trkpt lat="43.34853269100538" lon="11.411252510901264"><ele>232.0</ele><time>2026-04-11T08:41:30Z</time></trkpt><trkpt lat="43.34852475125323" lon="11.41112957633969"><ele>232.0</ele><time>2026-04-11T08:41:33Z</time></trkpt><trkpt lat="43.348516092994394" lon="11.41100958726963"><ele>231.99999999999997</ele><time>2026-04-11T08:41:36Z</time></trkpt><trkpt lat="43.34849993205337" lon="11.410885950579726"><ele>232.0</ele><time>2026-04-11T08:41:39Z</time></trkpt><trkpt lat="43.348489393136724" lon="11.410760570414983"><ele>232.99999999999997</ele><time>2026-04-11T08:41:41.999Z</time></trkpt><trkpt lat="43.348462555438026" lon="11.41064070910573"><ele>234.0</ele><time>2026-04-11T08:41:44.999Z</time></trkpt><trkpt lat="43.34843638178891" lon="11.41052272869135"><ele>235.0</ele><time>2026-04-11T08:41:47.999Z</time></trkpt><trkpt lat="43.34841211568451" lon="11.410413150573117"><ele>236.0</ele><time>2026-04-11T08:41:50.999Z</time></trkpt><trkpt lat="43.34838997428347" lon="11.410304733177332"><ele>236.99999999999997</ele><time>2026-04-11T08:41:53.999Z</time></trkpt><trkpt lat="43.34835796461151" lon="11.41019265676301"><ele>238.0</ele><time>2026-04-11T08:41:56.999Z</time></trkpt><trkpt lat="43.34833184001428" lon="11.41008490792298"><ele>238.33333333333331</ele><time>2026-04-11T08:41:59.999Z</time></trkpt><trkpt lat="43.34830240361867" lon="11.409973503959455"><ele>238.66666666666666</ele><time>2026-04-11T08:42:02.999Z</time></trkpt><trkpt lat="43.34827848246844" lon="11.409861548221043"><ele>239.0</ele><time>2026-04-11T08:42:05.999Z</time></trkpt><trkpt lat="43.34824613796603" lon="11.409751896587947"><ele>239.33333333333331</ele><time>2026-04-11T08:42:08.999Z</time></trkpt><trkpt lat="43.348219235047694" lon="11.409654284264157"><ele>239.66666666666666</ele><time>2026-04-11T08:42:11.999Z</time></trkpt><trkpt lat="43.34819461059525" lon="11.409555914208783"><ele>240.0</ele><time>2026-04-11T08:42:14.999Z</time></trkpt><trkpt lat="43.3481644736413" lon="11.40945746620888"><ele>240.0</ele><time>2026-04-11T08:42:17.999Z</time></trkpt><trkpt lat="43.348137174406595" lon="11.409358431256049"><ele>240.0</ele><time>2026-04-11T08:42:20.999Z</time></trkpt><trkpt lat="43.348118885766205" lon="11.409267335726291"><ele>240.0</ele><time>2026-04-11T08:42:23.999Z</time></trkpt><trkpt lat="43.34810377625686" lon="11.409177709744025"><ele>240.0</ele><time>2026-04-11T08:42:26.999Z</time></trkpt><trkpt lat="43.34808659181924" lon="11.409093963051957"><ele>240.0</ele><time>2026-04-11T08:42:29.999Z</time></trkpt><trkpt lat="43.348070661486695" lon="11.408987726970281"><ele>240.0</ele><time>2026-04-11T08:42:33.999Z</time></trkpt><trkpt lat="43.34805932549263" lon="11.4088823617432"><ele>240.0</ele><time>2026-04-11T08:42:36.999Z</time></trkpt><trkpt lat="43.34805014697427" lon="11.408790721349494"><ele>240.5</ele><time>2026-04-11T08:42:39.999Z</time></trkpt><trkpt lat="43.34804543538987" lon="11.408689636826338"><ele>241.0</ele><time>2026-04-11T08:42:43Z</time></trkpt><trkpt lat="43.348036452006276" lon="11.408580925440868"><ele>241.5</ele><time>2026-04-11T08:42:46Z</time></trkpt><trkpt lat="43.34802733316969" lon="11.408463160710962"><ele>242.0</ele><time>2026-04-11T08:42:50Z</time></trkpt><trkpt lat="43.3480162742221" lon="11.40837296355186"><ele>242.5</ele><time>2026-04-11T08:42:52Z</time></trkpt><trkpt lat="43.34801536141631" lon="11.408268335688103"><ele>243.0</ele><time>2026-04-11T08:42:55Z</time></trkpt><trkpt lat="43.348020817701745" lon="11.408156867279562"><ele>246.5</ele><time>2026-04-11T08:42:58Z</time></trkpt><trkpt lat="43.34801244493548" lon="11.408052922456008"><ele>250.0</ele><time>2026-04-11T08:43:01Z</time></trkpt><trkpt lat="43.34801171556581" lon="11.40794428228712"><ele>253.5</ele><time>2026-04-11T08:43:04Z</time></trkpt><trkpt lat="43.34802303314943" lon="11.40782366355561"><ele>257.0</ele><time>2026-04-11T08:43:07Z</time></trkpt><trkpt lat="43.348025184417835" lon="11.407706142802832"><ele>260.5</ele><time>2026-04-11T08:43:10Z</time></trkpt><trkpt lat="43.34802640033058" lon="11.40757492990789"><ele>264.0</ele><time>2026-04-11T08:43:13Z</time></trkpt><trkpt lat="43.348037207519006" lon="11.407455187511392"><ele>265.0</ele><time>2026-04-11T08:43:16Z</time></trkpt><trkpt lat="43.34803396527596" lon="11.407334535537547"><ele>266.0</ele><time>2026-04-11T08:43:19Z</time></trkpt><trkpt lat="43.34804411563743" lon="11.407219953411726"><ele>267.0</ele><time>2026-04-11T08:43:22Z</time></trkpt><trkpt lat="43.348048783634724" lon="11.407108018920848"><ele>268.0</ele><time>2026-04-11T08:43:25Z</time></trkpt><trkpt lat="43.348058807975846" lon="11.40699953098502"><ele>269.0</ele><time>2026-04-11T08:43:28Z</time></trkpt><trkpt lat="43.34806725558176" lon="11.406881560710094"><ele>270.0</ele><time>2026-04-11T08:43:31Z</time></trkpt><trkpt lat="43.348080108005156" lon="11.406763935360962"><ele>267.6666666666667</ele><time>2026-04-11T08:43:34Z</time></trkpt><trkpt lat="43.34808729172447" lon="11.406644593456553"><ele>265.3333333333333</ele><time>2026-04-11T08:43:37Z</time></trkpt><trkpt lat="43.348092723937896" lon="11.406532840809259"><ele>263.0</ele><time>2026-04-11T08:43:40Z</time></trkpt><trkpt lat="43.34811239052854" lon="11.406444523041246"><ele>260.66666666666663</ele><time>2026-04-11T08:43:43Z</time></trkpt><trkpt lat="43.34813829517117" lon="11.406328421201898"><ele>258.3333333333333</ele><time>2026-04-11T08:43:46Z</time></trkpt><trkpt lat="43.348160109053055" lon="11.406232535949398"><ele>256.0</ele><time>2026-04-11T08:43:49Z</time></trkpt><trkpt lat="43.348201610986166" lon="11.406130193523687"><ele>256.0</ele><time>2026-04-11T08:43:52Z</time></trkpt><trkpt lat="43.348233408945084" lon="11.406052867059245"><ele>255.99999999999997</ele><time>2026-04-11T08:43:53.999Z</time></trkpt><trkpt lat="43.348264268438605" lon="11.405960011175548"><ele>256.0</ele><time>2026-04-11T08:43:56.999Z</time></trkpt><trkpt lat="43.3482861149223" lon="11.405872512084"><ele>256.0</ele><time>2026-04-11T08:43:59.999Z</time></trkpt><trkpt lat="43.34831417955077" lon="11.405782980451374"><ele>255.99999999999997</ele><time>2026-04-11T08:44:02.999Z</time></trkpt><trkpt lat="43.348339844880826" lon="11.405699765454607"><ele>256.0</ele><time>2026-04-11T08:44:05.999Z</time></trkpt><trkpt lat="43.34836370020675" lon="11.405609703224185"><ele>256.0</ele><time>2026-04-11T08:44:08.999Z</time></trkpt><trkpt lat="43.348386561761664" lon="11.405499085844832"><ele>257.57142857142856</ele><time>2026-04-11T08:44:12.999Z</time></trkpt><trkpt lat="43.34841212008182" lon="11.405388873808631"><ele>259.1428571428571</ele><time>2026-04-11T08:44:16.999Z</time></trkpt><trkpt lat="43.34842372852843" lon="11.405280130595427"><ele>260.7142857142857</ele><time>2026-04-11T08:44:20.999Z</time></trkpt><trkpt lat="43.34843731826606" lon="11.405185761626685"><ele>262.2857142857143</ele><time>2026-04-11T08:44:23.999Z</time></trkpt><trkpt lat="43.348439921362974" lon="11.405097431158369"><ele>263.8571428571429</ele><time>2026-04-11T08:44:26.999Z</time></trkpt><trkpt lat="43.34844135499505" lon="11.405002197766963"><ele>265.42857142857144</ele><time>2026-04-11T08:44:29.999Z</time></trkpt><trkpt lat="43.34844720498489" lon="11.4049015428353"><ele>267.0</ele><time>2026-04-11T08:44:32.999Z</time></trkpt><trkpt lat="43.34845941033653" lon="11.404807835778788"><ele>267.00000000000006</ele><time>2026-04-11T08:44:35.999Z</time></trkpt><trkpt lat="43.34847850274802" lon="11.404699335746248"><ele>267.0</ele><time>2026-04-11T08:44:38.999Z</time></trkpt><trkpt lat="43.348502186914914" lon="11.404603856430986"><ele>267.0</ele><time>2026-04-11T08:44:41.999Z</time></trkpt><trkpt lat="43.348523818996284" lon="11.404506962303302"><ele>267.0</ele><time>2026-04-11T08:44:44.999Z</time></trkpt><trkpt lat="43.34855400821442" lon="11.404429680591466"><ele>267.0</ele><time>2026-04-11T08:44:48Z</time></trkpt><trkpt lat="43.3485934553012" lon="11.404334359024412"><ele>267.00000000000006</ele><time>2026-04-11T08:44:52Z</time></trkpt><trkpt lat="43.34863268981" lon="11.404263264304742"><ele>267.0</ele><time>2026-04-11T08:44:55Z</time></trkpt><trkpt lat="43.34866055865229" lon="11.404185447337012"><ele>267.3333333333333</ele><time>2026-04-11T08:44:58Z</time></trkpt><trkpt lat="43.34871430713084" lon="11.404104243513105"><ele>267.6666666666667</ele><time>2026-04-11T08:45:02Z</time></trkpt><trkpt lat="43.348768486275546" lon="11.404028005905962"><ele>268.0</ele><time>2026-04-11T08:45:06Z</time></trkpt><trkpt lat="43.34881183799553" lon="11.403958134353053"><ele>268.33333333333337</ele><time>2026-04-11T08:45:09Z</time></trkpt><trkpt lat="43.34888165292679" lon="11.403883911011198"><ele>268.6666666666667</ele><time>2026-04-11T08:45:12Z</time></trkpt><trkpt lat="43.348937767707596" lon="11.403814183600003"><ele>269.0</ele><time>2026-04-11T08:45:15Z</time></trkpt><trkpt lat="43.34898162695685" lon="11.403729862527376"><ele>269.5</ele><time>2026-04-11T08:45:18Z</time></trkpt><trkpt lat="43.349020888685246" lon="11.403645425053663"><ele>270.0</ele><time>2026-04-11T08:45:21Z</time></trkpt><trkpt lat="43.34905493902257" lon="11.403546139811429"><ele>270.5</ele><time>2026-04-11T08:45:24Z</time></trkpt><trkpt lat="43.34908607542738" lon="11.403452449620648"><ele>271.0</ele><time>2026-04-11T08:45:27Z</time></trkpt><trkpt lat="43.34911024615092" lon="11.40334850986255"><ele>271.5</ele><time>2026-04-11T08:45:30Z</time></trkpt><trkpt lat="43.349123933705805" lon="11.40324512456365"><ele>272.0</ele><time>2026-04-11T08:45:33Z</time></trkpt><trkpt lat="43.34913688904898" lon="11.40315120833801"><ele>272.0</ele><time>2026-04-11T08:45:36Z</time></trkpt><trkpt lat="43.349133473112516" lon="11.403041284234641"><ele>272.0</ele><time>2026-04-11T08:45:39Z</time></trkpt><trkpt lat="43.349148855993825" lon="11.40292826304733"><ele>272.0</ele><time>2026-04-11T08:45:42Z</time></trkpt><trkpt lat="43.34916522763622" lon="11.402832227959708"><ele>272.0</ele><time>2026-04-11T08:45:45Z</time></trkpt><trkpt lat="43.349177040373974" lon="11.402734843858031"><ele>272.0</ele><time>2026-04-11T08:45:48Z</time></trkpt><trkpt lat="43.34917105574968" lon="11.402639896350827"><ele>272.0</ele><time>2026-04-11T08:45:51Z</time></trkpt><trkpt lat="43.34918493065882" lon="11.402529665023716"><ele>273.1666666666667</ele><time>2026-04-11T08:45:54Z</time></trkpt><trkpt lat="43.34919780748807" lon="11.402428566868272"><ele>274.33333333333337</ele><time>2026-04-11T08:45:56.999Z</time></trkpt><trkpt lat="43.34920324944339" lon="11.40232150347375"><ele>275.5</ele><time>2026-04-11T08:45:59.999Z</time></trkpt><trkpt lat="43.34920939022762" lon="11.402214357458451"><ele>276.6666666666667</ele><time>2026-04-11T08:46:02.999Z</time></trkpt><trkpt lat="43.349218577716655" lon="11.402096405632756"><ele>277.8333333333333</ele><time>2026-04-11T08:46:05.999Z</time></trkpt><trkpt lat="43.3492437076448" lon="11.40198651853576"><ele>279.0</ele><time>2026-04-11T08:46:08.999Z</time></trkpt><trkpt lat="43.3492686609635" lon="11.401882890727583"><ele>280.1428571428571</ele><time>2026-04-11T08:46:11.999Z</time></trkpt><trkpt lat="43.349294110680496" lon="11.401798464890948"><ele>281.2857142857143</ele><time>2026-04-11T08:46:13.999Z</time></trkpt><trkpt lat="43.34933951984083" lon="11.401692610470963"><ele>282.42857142857144</ele><time>2026-04-11T08:46:16.999Z</time></trkpt><trkpt lat="43.34937758029966" lon="11.401622097107083"><ele>283.57142857142856</ele><time>2026-04-11T08:46:18.999Z</time></trkpt><trkpt lat="43.349428818484995" lon="11.401567376491219"><ele>284.7142857142857</ele><time>2026-04-11T08:46:20.999Z</time></trkpt><trkpt lat="43.349486650886284" lon="11.401529741551691"><ele>285.85714285714283</ele><time>2026-04-11T08:46:22.999Z</time></trkpt><trkpt lat="43.349548407664535" lon="11.401510269065287"><ele>287.0</ele><time>2026-04-11T08:46:24.999Z</time></trkpt><trkpt lat="43.34962081907469" lon="11.401501546494398"><ele>287.0</ele><time>2026-04-11T08:46:27.999Z</time></trkpt><trkpt lat="43.34967876954247" lon="11.401547252983221"><ele>287.0</ele><time>2026-04-11T08:46:29.999Z</time></trkpt><trkpt lat="43.34976426037068" lon="11.401549609356996"><ele>287.0</ele><time>2026-04-11T08:46:32.999Z</time></trkpt><trkpt lat="43.349842823861735" lon="11.401569612587627"><ele>287.0</ele><time>2026-04-11T08:46:35.999Z</time></trkpt><trkpt lat="43.349923970783166" lon="11.401582718956938"><ele>287.0</ele><time>2026-04-11T08:46:38.999Z</time></trkpt><trkpt lat="43.349990066221174" lon="11.401598072040205"><ele>287.0</ele><time>2026-04-11T08:46:41.999Z</time></trkpt><trkpt lat="43.35005518283594" lon="11.401608590232406"><ele>287.0</ele><time>2026-04-11T08:46:44.999Z</time></trkpt><trkpt lat="43.350120223728105" lon="11.401589360415112"><ele>286.2857142857143</ele><time>2026-04-11T08:46:47.999Z</time></trkpt><trkpt lat="43.35018180756519" lon="11.40154828617626"><ele>285.57142857142856</ele><time>2026-04-11T08:46:50.999Z</time></trkpt><trkpt lat="43.3502240611302" lon="11.401480019809073"><ele>284.8571428571429</ele><time>2026-04-11T08:46:54Z</time></trkpt><trkpt lat="43.35024778172103" lon="11.401392687303842"><ele>284.1428571428571</ele><time>2026-04-11T08:46:57Z</time></trkpt><trkpt lat="43.350250775061085" lon="11.401286823877951"><ele>283.42857142857144</ele><time>2026-04-11T08:47:00Z</time></trkpt><trkpt lat="43.350237231559646" lon="11.401188509693384"><ele>282.7142857142857</ele><time>2026-04-11T08:47:03Z</time></trkpt><trkpt lat="43.35019662258807" lon="11.401098113965482"><ele>282.0</ele><time>2026-04-11T08:47:06Z</time></trkpt><trkpt lat="43.350146206032605" lon="11.401018515723177"><ele>283.42857142857144</ele><time>2026-04-11T08:47:09Z</time></trkpt><trkpt lat="43.350093417299604" lon="11.400951346156566"><ele>284.85714285714283</ele><time>2026-04-11T08:47:12Z</time></trkpt><trkpt lat="43.3500354793772" lon="11.400883317102622"><ele>286.2857142857143</ele><time>2026-04-11T08:47:15Z</time></trkpt><trkpt lat="43.34997915740744" lon="11.40082051545488"><ele>287.7142857142857</ele><time>2026-04-11T08:47:18Z</time></trkpt><trkpt lat="43.34991136032767" lon="11.400756669050347"><ele>289.14285714285717</ele><time>2026-04-11T08:47:21Z</time></trkpt><trkpt lat="43.34985841557962" lon="11.400692244712626"><ele>290.57142857142856</ele><time>2026-04-11T08:47:24Z</time></trkpt><trkpt lat="43.34979816843155" lon="11.400640900838072"><ele>292.0</ele><time>2026-04-11T08:47:27Z</time></trkpt><trkpt lat="43.349718096884416" lon="11.400612850764649"><ele>292.3333333333333</ele><time>2026-04-11T08:47:30Z</time></trkpt><trkpt lat="43.34964414570048" lon="11.400591413091599"><ele>292.66666666666663</ele><time>2026-04-11T08:47:33Z</time></trkpt><trkpt lat="43.34955381960904" lon="11.40060548415453"><ele>293.0</ele><time>2026-04-11T08:47:36Z</time></trkpt><trkpt lat="43.349482549020244" lon="11.400618483450573"><ele>293.3333333333333</ele><time>2026-04-11T08:47:39Z</time></trkpt><trkpt lat="43.349414543336074" lon="11.400652396057243"><ele>293.6666666666667</ele><time>2026-04-11T08:47:42Z</time></trkpt><trkpt lat="43.349345321826426" lon="11.400678009405036"><ele>294.0</ele><time>2026-04-11T08:47:45Z</time></trkpt><trkpt lat="43.34927295350181" lon="11.400705935992915"><ele>294.0</ele><time>2026-04-11T08:47:48Z</time></trkpt><trkpt lat="43.349191428635024" lon="11.400744018065605"><ele>294.0</ele><time>2026-04-11T08:47:51Z</time></trkpt><trkpt lat="43.34911760628747" lon="11.400788425777488"><ele>294.0</ele><time>2026-04-11T08:47:54Z</time></trkpt><trkpt lat="43.34904498105238" lon="11.40084244944772"><ele>294.0</ele><time>2026-04-11T08:47:57Z</time></trkpt><trkpt lat="43.34896636756221" lon="11.400881198342594"><ele>294.0</ele><time>2026-04-11T08:48:00Z</time></trkpt><trkpt lat="43.34889354691111" lon="11.40092996302325"><ele>294.0</ele><time>2026-04-11T08:48:03Z</time></trkpt><trkpt lat="43.348820403056465" lon="11.400972723923605"><ele>295.0</ele><time>2026-04-11T08:48:06Z</time></trkpt><trkpt lat="43.34874729366742" lon="11.401026357080273"><ele>296.0</ele><time>2026-04-11T08:48:08.999Z</time></trkpt><trkpt lat="43.34866767390474" lon="11.40104792971752"><ele>297.0</ele><time>2026-04-11T08:48:11.999Z</time></trkpt><trkpt lat="43.34859762856067" lon="11.401030704645168"><ele>298.0</ele><time>2026-04-11T08:48:14.999Z</time></trkpt><trkpt lat="43.348535905763626" lon="11.400987137040968"><ele>299.0</ele><time>2026-04-11T08:48:17.999Z</time></trkpt><trkpt lat="43.348471959014205" lon="11.400927492344524"><ele>300.0</ele><time>2026-04-11T08:48:20.999Z</time></trkpt><trkpt lat="43.348420353521554" lon="11.400842731129332"><ele>300.0</ele><time>2026-04-11T08:48:23.999Z</time></trkpt><trkpt lat="43.3483669338496" lon="11.400760522476137"><ele>300.0</ele><time>2026-04-11T08:48:26.999Z</time></trkpt><trkpt lat="43.34830032563839" lon="11.4006857892658"><ele>300.0</ele><time>2026-04-11T08:48:29.999Z</time></trkpt><trkpt lat="43.34823908109675" lon="11.400612352418234"><ele>300.0</ele><time>2026-04-11T08:48:32.999Z</time></trkpt><trkpt lat="43.348169199916846" lon="11.400542791574338"><ele>300.0</ele><time>2026-04-11T08:48:35.999Z</time></trkpt><trkpt lat="43.348099812371316" lon="11.400479525896879"><ele>300.0</ele><time>2026-04-11T08:48:38.999Z</time></trkpt><trkpt lat="43.34802813631194" lon="11.400421050758656"><ele>301.1666666666667</ele><time>2026-04-11T08:48:41.999Z</time></trkpt><trkpt lat="43.34796772876181" lon="11.400359374755206"><ele>302.3333333333333</ele><time>2026-04-11T08:48:44.999Z</time></trkpt><trkpt lat="43.347879209778476" lon="11.400320416520266"><ele>303.5</ele><time>2026-04-11T08:48:47.999Z</time></trkpt><trkpt lat="43.347802240348685" lon="11.40026818677484"><ele>304.66666666666663</ele><time>2026-04-11T08:48:50.999Z</time></trkpt><trkpt lat="43.347720759430864" lon="11.400224962293708"><ele>305.8333333333333</ele><time>2026-04-11T08:48:53.999Z</time></trkpt><trkpt lat="43.34763951671733" lon="11.400172888441858"><ele>307.0</ele><time>2026-04-11T08:48:56.999Z</time></trkpt><trkpt lat="43.34755687093668" lon="11.400121748504322"><ele>307.0</ele><time>2026-04-11T08:49:00Z</time></trkpt><trkpt lat="43.34750269768626" lon="11.400029521264349"><ele>307.0</ele><time>2026-04-11T08:49:03Z</time></trkpt><trkpt lat="43.347455148401316" lon="11.399924752513037"><ele>307.0</ele><time>2026-04-11T08:49:06Z</time></trkpt><trkpt lat="43.34742424445227" lon="11.399849260226272"><ele>307.0</ele><time>2026-04-11T08:49:08Z</time></trkpt><trkpt lat="43.34741682958922" lon="11.399724302635782"><ele>307.0</ele><time>2026-04-11T08:49:11Z</time></trkpt><trkpt lat="43.34741829860442" lon="11.399636116383103"><ele>307.0</ele><time>2026-04-11T08:49:13Z</time></trkpt><trkpt lat="43.34746818712657" lon="11.399530689937496"><ele>307.1428571428571</ele><time>2026-04-11T08:49:16Z</time></trkpt><trkpt lat="43.34752401463393" lon="11.399427850106441"><ele>307.2857142857143</ele><time>2026-04-11T08:49:19Z</time></trkpt><trkpt lat="43.34757023464735" lon="11.399361781136726"><ele>307.42857142857144</ele><time>2026-04-11T08:49:21Z</time></trkpt><trkpt lat="43.3476286865591" lon="11.39932083779838"><ele>307.57142857142856</ele><time>2026-04-11T08:49:23Z</time></trkpt><trkpt lat="43.34768797729864" lon="11.399260904380451"><ele>307.7142857142857</ele><time>2026-04-11T08:49:25Z</time></trkpt><trkpt lat="43.34775823972415" lon="11.39922231258243"><ele>307.85714285714283</ele><time>2026-04-11T08:49:27Z</time></trkpt><trkpt lat="43.34782144599673" lon="11.39916884031199"><ele>308.0</ele><time>2026-04-11T08:49:29Z</time></trkpt><trkpt lat="43.347889051252004" lon="11.3991231638522"><ele>308.0</ele><time>2026-04-11T08:49:31Z</time></trkpt><trkpt lat="43.347968121050606" lon="11.399096122487025"><ele>308.0</ele><time>2026-04-11T08:49:33Z</time></trkpt><trkpt lat="43.348039233625" lon="11.399070756702026"><ele>308.0</ele><time>2026-04-11T08:49:35Z</time></trkpt><trkpt lat="43.34811575027462" lon="11.399034975645655"><ele>308.0</ele><time>2026-04-11T08:49:37Z</time></trkpt><trkpt lat="43.34819472592985" lon="11.398998037429083"><ele>308.0</ele><time>2026-04-11T08:49:39Z</time></trkpt><trkpt lat="43.34827830499489" lon="11.398982039764627"><ele>308.0</ele><time>2026-04-11T08:49:41Z</time></trkpt><trkpt lat="43.34836075917186" lon="11.398962451930219"><ele>308.2857142857143</ele><time>2026-04-11T08:49:43Z</time></trkpt><trkpt lat="43.34842473872092" lon="11.398944411481972"><ele>308.57142857142856</ele><time>2026-04-11T08:49:45Z</time></trkpt><trkpt lat="43.34842458117953" lon="11.398839928067519"><ele>308.8571428571429</ele><time>2026-04-11T08:49:47Z</time></trkpt><trkpt lat="43.34837270889975" lon="11.398746397067383"><ele>309.1428571428571</ele><time>2026-04-11T08:49:49Z</time></trkpt><trkpt lat="43.34832967377855" lon="11.398659250547674"><ele>309.42857142857144</ele><time>2026-04-11T08:49:51Z</time></trkpt><trkpt lat="43.34827309386699" lon="11.398615669197422"><ele>309.7142857142857</ele><time>2026-04-11T08:50:12.999Z</time></trkpt><trkpt lat="43.348234347668296" lon="11.398526024451773"><ele>310.0</ele><time>2026-04-11T08:50:23.999Z</time></trkpt><trkpt lat="43.34814843378523" lon="11.398465966424762"><ele>309.0</ele><time>2026-04-11T08:50:26.999Z</time></trkpt><trkpt lat="43.34806285888919" lon="11.39845926379413"><ele>308.0</ele><time>2026-04-11T08:50:28.999Z</time></trkpt><trkpt lat="43.34796984535541" lon="11.398508960938125"><ele>307.0</ele><time>2026-04-11T08:50:30.999Z</time></trkpt><trkpt lat="43.34787447953859" lon="11.398574435991065"><ele>306.0</ele><time>2026-04-11T08:50:32.999Z</time></trkpt><trkpt lat="43.347814605663395" lon="11.398604629520309"><ele>305.0</ele><time>2026-04-11T08:50:33.999Z</time></trkpt><trkpt lat="43.347683705483554" lon="11.398645752193966"><ele>304.0</ele><time>2026-04-11T08:50:35.999Z</time></trkpt><trkpt lat="43.347611977770526" lon="11.39864315021996"><ele>303.0</ele><time>2026-04-11T08:50:36.999Z</time></trkpt><trkpt lat="43.34754243480333" lon="11.398658912803306"><ele>302.0</ele><time>2026-04-11T08:50:37.999Z</time></trkpt><trkpt lat="43.34746622015488" lon="11.398670145328277"><ele>301.0</ele><time>2026-04-11T08:50:38.999Z</time></trkpt><trkpt lat="43.34739406834852" lon="11.398685095455043"><ele>300.0</ele><time>2026-04-11T08:50:39.999Z</time></trkpt><trkpt lat="43.34731364103222" lon="11.398698161046338"><ele>299.0</ele><time>2026-04-11T08:50:40.999Z</time></trkpt><trkpt lat="43.34723563177617" lon="11.398711626978171"><ele>299.5</ele><time>2026-04-11T08:50:41.999Z</time></trkpt><trkpt lat="43.347157717187585" lon="11.398721947177687"><ele>300.0</ele><time>2026-04-11T08:50:42.999Z</time></trkpt><trkpt lat="43.34707853375163" lon="11.398732286989716"><ele>300.5</ele><time>2026-04-11T08:50:43.999Z</time></trkpt><trkpt lat="43.347003325349725" lon="11.398748324627816"><ele>301.0</ele><time>2026-04-11T08:50:44.999Z</time></trkpt><trkpt lat="43.34692944589584" lon="11.398780850631347"><ele>301.5</ele><time>2026-04-11T08:50:45.999Z</time></trkpt><trkpt lat="43.34685714383396" lon="11.398827478345206"><ele>302.0</ele><time>2026-04-11T08:50:46.999Z</time></trkpt><trkpt lat="43.34679669942753" lon="11.398885441100035"><ele>302.0</ele><time>2026-04-11T08:50:47.999Z</time></trkpt><trkpt lat="43.34673762240654" lon="11.398961499337165"><ele>302.0</ele><time>2026-04-11T08:50:48.999Z</time></trkpt><trkpt lat="43.34668499642988" lon="11.399024588372727"><ele>302.0</ele><time>2026-04-11T08:50:49.999Z</time></trkpt><trkpt lat="43.346637005414394" lon="11.39910038038701"><ele>302.0</ele><time>2026-04-11T08:50:50.999Z</time></trkpt><trkpt lat="43.34659091525202" lon="11.399177873796368"><ele>302.0</ele><time>2026-04-11T08:50:51.999Z</time></trkpt><trkpt lat="43.346543519314245" lon="11.399261378940132"><ele>302.0</ele><time>2026-04-11T08:50:52.999Z</time></trkpt><trkpt lat="43.346495055498195" lon="11.399343792540794"><ele>302.0</ele><time>2026-04-11T08:50:53.999Z</time></trkpt><trkpt lat="43.34644240580876" lon="11.39942962446292"><ele>302.0</ele><time>2026-04-11T08:50:54.999Z</time></trkpt><trkpt lat="43.346376243988495" lon="11.399511886471608"><ele>302.0</ele><time>2026-04-11T08:50:55.999Z</time></trkpt><trkpt lat="43.34632142795378" lon="11.399603070795985"><ele>302.0</ele><time>2026-04-11T08:50:56.999Z</time></trkpt><trkpt lat="43.34626708963951" lon="11.399686436649201"><ele>302.0</ele><time>2026-04-11T08:50:57.999Z</time></trkpt><trkpt lat="43.346213959030734" lon="11.399769980299485"><ele>302.0</ele><time>2026-04-11T08:50:58.999Z</time></trkpt><trkpt lat="43.34615824959576" lon="11.399844368374145"><ele>301.4</ele><time>2026-04-11T08:50:59.999Z</time></trkpt><trkpt lat="43.34610759917971" lon="11.399919779838163"><ele>300.79999999999995</ele><time>2026-04-11T08:51:00.999Z</time></trkpt><trkpt lat="43.34605897412643" lon="11.400005733110374"><ele>300.2</ele><time>2026-04-11T08:51:01.999Z</time></trkpt><trkpt lat="43.34601211200039" lon="11.400074840514083"><ele>299.59999999999997</ele><time>2026-04-11T08:51:02.999Z</time></trkpt><trkpt lat="43.345934593839125" lon="11.400205824633568"><ele>299.0</ele><time>2026-04-11T08:51:04.999Z</time></trkpt><trkpt lat="43.34585041565652" lon="11.400316240699397"><ele>299.0</ele><time>2026-04-11T08:51:07Z</time></trkpt><trkpt lat="43.345778564945114" lon="11.400413866793015"><ele>299.0</ele><time>2026-04-11T08:51:09Z</time></trkpt><trkpt lat="43.345724868684925" lon="11.400510913602039"><ele>299.0</ele><time>2026-04-11T08:51:11Z</time></trkpt><trkpt lat="43.34565893100361" lon="11.400613586680503"><ele>299.0</ele><time>2026-04-11T08:51:13Z</time></trkpt><trkpt lat="43.345597684299" lon="11.400723880477186"><ele>299.0</ele><time>2026-04-11T08:51:15Z</time></trkpt><trkpt lat="43.34552972238971" lon="11.400826326788344"><ele>299.0</ele><time>2026-04-11T08:51:17Z</time></trkpt><trkpt lat="43.345453470566845" lon="11.400934664052748"><ele>299.0</ele><time>2026-04-11T08:51:19Z</time></trkpt><trkpt lat="43.34535877315771" lon="11.401026387909573"><ele>299.0</ele><time>2026-04-11T08:51:21Z</time></trkpt><trkpt lat="43.34524977875702" lon="11.401120482295052"><ele>299.0</ele><time>2026-04-11T08:51:23Z</time></trkpt><trkpt lat="43.345186013593455" lon="11.401152139113456"><ele>299.0</ele><time>2026-04-11T08:51:24Z</time></trkpt><trkpt lat="43.345109945027865" lon="11.401177683873891"><ele>299.0</ele><time>2026-04-11T08:51:25Z</time></trkpt><trkpt lat="43.3450357442048" lon="11.401211598514648"><ele>299.0</ele><time>2026-04-11T08:51:26Z</time></trkpt><trkpt lat="43.3449584398232" lon="11.401239234707608"><ele>299.0</ele><time>2026-04-11T08:51:27Z</time></trkpt><trkpt lat="43.344878263173655" lon="11.401265622342873"><ele>299.0</ele><time>2026-04-11T08:51:28Z</time></trkpt><trkpt lat="43.34479756690931" lon="11.4012881903912"><ele>299.0</ele><time>2026-04-11T08:51:29Z</time></trkpt><trkpt lat="43.344719198465235" lon="11.40130268340624"><ele>299.0</ele><time>2026-04-11T08:51:30Z</time></trkpt><trkpt lat="43.34464307221038" lon="11.401308074474032"><ele>298.6666666666667</ele><time>2026-04-11T08:51:31Z</time></trkpt><trkpt lat="43.344558303999825" lon="11.401302496634417"><ele>298.33333333333337</ele><time>2026-04-11T08:51:32Z</time></trkpt><trkpt lat="43.34447031710459" lon="11.401305952661984"><ele>298.0</ele><time>2026-04-11T08:51:33Z</time></trkpt><trkpt lat="43.3443911855544" lon="11.40129714325263"><ele>297.6666666666667</ele><time>2026-04-11T08:51:34Z</time></trkpt><trkpt lat="43.34431435562374" lon="11.401301554069502"><ele>297.3333333333333</ele><time>2026-04-11T08:51:35Z</time></trkpt><trkpt lat="43.344250382399906" lon="11.401316975621825"><ele>297.0</ele><time>2026-04-11T08:51:36Z</time></trkpt><trkpt lat="43.344172469680466" lon="11.401331444352667"><ele>296.3333333333333</ele><time>2026-04-11T08:51:37Z</time></trkpt><trkpt lat="43.34407585512197" lon="11.401361244860121"><ele>295.6666666666667</ele><time>2026-04-11T08:51:38Z</time></trkpt><trkpt lat="43.34399583790798" lon="11.401384218704296"><ele>295.0</ele><time>2026-04-11T08:51:39Z</time></trkpt><trkpt lat="43.34392766050975" lon="11.401410261184841"><ele>294.33333333333337</ele><time>2026-04-11T08:51:40Z</time></trkpt><trkpt lat="43.34385849937748" lon="11.401445680733628"><ele>293.6666666666667</ele><time>2026-04-11T08:51:41Z</time></trkpt><trkpt lat="43.34379153078606" lon="11.401482519396344"><ele>293.0</ele><time>2026-04-11T08:51:42Z</time></trkpt><trkpt lat="43.34371753366243" lon="11.401526595957113"><ele>292.83333333333337</ele><time>2026-04-11T08:51:43Z</time></trkpt><trkpt lat="43.343644034757546" lon="11.401561780156992"><ele>292.6666666666667</ele><time>2026-04-11T08:51:44Z</time></trkpt><trkpt lat="43.343577565622915" lon="11.40161895841957"><ele>292.5</ele><time>2026-04-11T08:51:45Z</time></trkpt><trkpt lat="43.343515698172226" lon="11.401653291079079"><ele>292.3333333333333</ele><time>2026-04-11T08:51:46Z</time></trkpt><trkpt lat="43.34345176106346" lon="11.401699825034187"><ele>292.16666666666663</ele><time>2026-04-11T08:51:47Z</time></trkpt><trkpt lat="43.343383562905636" lon="11.401754555041233"><ele>292.0</ele><time>2026-04-11T08:51:48Z</time></trkpt><trkpt lat="43.34332080727068" lon="11.401821582784802"><ele>292.0</ele><time>2026-04-11T08:51:49Z</time></trkpt><trkpt lat="43.34326020934509" lon="11.40188972692046"><ele>292.0</ele><time>2026-04-11T08:51:50Z</time></trkpt><trkpt lat="43.34321672338223" lon="11.401969015953508"><ele>292.0</ele><time>2026-04-11T08:51:51Z</time></trkpt><trkpt lat="43.34317242257831" lon="11.402050547151877"><ele>292.0</ele><time>2026-04-11T08:51:52Z</time></trkpt><trkpt lat="43.34313409523845" lon="11.402138991909053"><ele>292.0</ele><time>2026-04-11T08:51:53Z</time></trkpt><trkpt lat="43.34310654105823" lon="11.402227858884041"><ele>292.0</ele><time>2026-04-11T08:51:54Z</time></trkpt><trkpt lat="43.343089781024155" lon="11.40231374841374"><ele>292.0</ele><time>2026-04-11T08:51:55Z</time></trkpt><trkpt lat="43.343082221744204" lon="11.402410738683285"><ele>291.4</ele><time>2026-04-11T08:51:56Z</time></trkpt><trkpt lat="43.34306360180809" lon="11.402574878223703"><ele>290.79999999999995</ele><time>2026-04-11T08:51:58Z</time></trkpt><trkpt lat="43.343048106670274" lon="11.402738023860037"><ele>290.2</ele><time>2026-04-11T08:52:00Z</time></trkpt><trkpt lat="43.3430511098887" lon="11.402836429170556"><ele>289.59999999999997</ele><time>2026-04-11T08:52:01Z</time></trkpt><trkpt lat="43.343040232030454" lon="11.402935348353685"><ele>289.0</ele><time>2026-04-11T08:52:02Z</time></trkpt><trkpt lat="43.34300962055334" lon="11.403031912919989"><ele>289.0</ele><time>2026-04-11T08:52:03Z</time></trkpt><trkpt lat="43.34296916560679" lon="11.403117453671051"><ele>289.0</ele><time>2026-04-11T08:52:04Z</time></trkpt><trkpt lat="43.34291553339456" lon="11.403196953491909"><ele>289.0</ele><time>2026-04-11T08:52:05Z</time></trkpt><trkpt lat="43.342851444093085" lon="11.40326931444196"><ele>289.0</ele><time>2026-04-11T08:52:06Z</time></trkpt><trkpt lat="43.342769907363596" lon="11.403296963454949"><ele>289.0</ele><time>2026-04-11T08:52:07Z</time></trkpt><trkpt lat="43.3426895621859" lon="11.403307367531045"><ele>289.0</ele><time>2026-04-11T08:52:08Z</time></trkpt><trkpt lat="43.3426063499005" lon="11.403309513224006"><ele>289.0</ele><time>2026-04-11T08:52:09Z</time></trkpt><trkpt lat="43.342522541860916" lon="11.403318718560877"><ele>289.0</ele><time>2026-04-11T08:52:10Z</time></trkpt><trkpt lat="43.34242962308777" lon="11.403342568730652"><ele>289.0</ele><time>2026-04-11T08:52:11Z</time></trkpt><trkpt lat="43.34234299318274" lon="11.403386943230025"><ele>289.0</ele><time>2026-04-11T08:52:12Z</time></trkpt><trkpt lat="43.34227685803079" lon="11.40345560682641"><ele>289.0</ele><time>2026-04-11T08:52:13Z</time></trkpt><trkpt lat="43.342197146537984" lon="11.403543181379051"><ele>288.0</ele><time>2026-04-11T08:52:14Z</time></trkpt><trkpt lat="43.34212506519785" lon="11.403638492414123"><ele>287.0</ele><time>2026-04-11T08:52:15Z</time></trkpt><trkpt lat="43.34204461998133" lon="11.403731889378852"><ele>286.0</ele><time>2026-04-11T08:52:16Z</time></trkpt><trkpt lat="43.3419610354895" lon="11.403804929327475"><ele>285.0</ele><time>2026-04-11T08:52:17Z</time></trkpt><trkpt lat="43.341883416886596" lon="11.403889405368899"><ele>284.0</ele><time>2026-04-11T08:52:18Z</time></trkpt><trkpt lat="43.34181184919334" lon="11.403980663411996"><ele>284.0</ele><time>2026-04-11T08:52:19Z</time></trkpt><trkpt lat="43.341743393918186" lon="11.40404895068266"><ele>284.0</ele><time>2026-04-11T08:52:20Z</time></trkpt><trkpt lat="43.34169317851437" lon="11.404123021865624"><ele>284.0</ele><time>2026-04-11T08:52:21Z</time></trkpt><trkpt lat="43.341638880778895" lon="11.404187295877197"><ele>284.0</ele><time>2026-04-11T08:52:21.999Z</time></trkpt><trkpt lat="43.34158992062048" lon="11.40424975783537"><ele>284.0</ele><time>2026-04-11T08:52:22.999Z</time></trkpt><trkpt lat="43.341523328614436" lon="11.404315331675473"><ele>284.0</ele><time>2026-04-11T08:52:23.999Z</time></trkpt><trkpt lat="43.34142513993889" lon="11.404427868991284"><ele>285.2</ele><time>2026-04-11T08:52:25.999Z</time></trkpt><trkpt lat="43.34137777190889" lon="11.404485877266508"><ele>286.4</ele><time>2026-04-11T08:52:26.999Z</time></trkpt><trkpt lat="43.34129937848371" lon="11.404613199803343"><ele>287.6</ele><time>2026-04-11T08:52:28.999Z</time></trkpt><trkpt lat="43.34123000234849" lon="11.40471907304085"><ele>288.8</ele><time>2026-04-11T08:52:30.999Z</time></trkpt><trkpt lat="43.34117541522674" lon="11.404820608117333"><ele>290.0</ele><time>2026-04-11T08:52:32.999Z</time></trkpt><trkpt lat="43.34110952856122" lon="11.404915142554978"><ele>290.0</ele><time>2026-04-11T08:52:34.999Z</time></trkpt><trkpt lat="43.3410580911127" lon="11.405012489001477"><ele>290.0</ele><time>2026-04-11T08:52:36.999Z</time></trkpt><trkpt lat="43.34098899565737" lon="11.405100845089967"><ele>290.0</ele><time>2026-04-11T08:52:38.999Z</time></trkpt><trkpt lat="43.34091704849673" lon="11.405187389804755"><ele>290.0</ele><time>2026-04-11T08:52:40.999Z</time></trkpt><trkpt lat="43.34083456145417" lon="11.405262939066635"><ele>290.0</ele><time>2026-04-11T08:52:42.999Z</time></trkpt><trkpt lat="43.34075410828545" lon="11.40532708969091"><ele>290.0</ele><time>2026-04-11T08:52:44.999Z</time></trkpt><trkpt lat="43.34066679797356" lon="11.405380259970945"><ele>290.0</ele><time>2026-04-11T08:52:46.999Z</time></trkpt><trkpt lat="43.34058117644783" lon="11.405438032802614"><ele>290.0</ele><time>2026-04-11T08:52:48.999Z</time></trkpt><trkpt lat="43.340497757858955" lon="11.405498051157874"><ele>290.0</ele><time>2026-04-11T08:52:50.999Z</time></trkpt><trkpt lat="43.340404899003644" lon="11.40554903794051"><ele>290.0</ele><time>2026-04-11T08:52:52.999Z</time></trkpt><trkpt lat="43.34032080622338" lon="11.405594662274275"><ele>290.0</ele><time>2026-04-11T08:52:54.999Z</time></trkpt><trkpt lat="43.34024116577925" lon="11.405635257358028"><ele>290.0</ele><time>2026-04-11T08:52:56.999Z</time></trkpt><trkpt lat="43.34016463979997" lon="11.405684157473498"><ele>290.0</ele><time>2026-04-11T08:52:58.999Z</time></trkpt><trkpt lat="43.340099764375736" lon="11.405734093462653"><ele>290.0</ele><time>2026-04-11T08:53:00.999Z</time></trkpt><trkpt lat="43.3400225129559" lon="11.40578088625107"><ele>290.0</ele><time>2026-04-11T08:53:02.999Z</time></trkpt><trkpt lat="43.33996334966569" lon="11.405824462478693"><ele>290.0</ele><time>2026-04-11T08:53:04.999Z</time></trkpt><trkpt lat="43.339873713134736" lon="11.405876560262538"><ele>290.0</ele><time>2026-04-11T08:53:07.999Z</time></trkpt><trkpt lat="43.33981482422457" lon="11.405925264803741"><ele>290.0</ele><time>2026-04-11T08:53:09.999Z</time></trkpt><trkpt lat="43.339729530133226" lon="11.405982697973002"><ele>290.0</ele><time>2026-04-11T08:53:13Z</time></trkpt><trkpt lat="43.339651440700436" lon="11.40605187273967"><ele>290.0</ele><time>2026-04-11T08:53:16Z</time></trkpt><trkpt lat="43.339581128252284" lon="11.406137783617927"><ele>290.0</ele><time>2026-04-11T08:53:19Z</time></trkpt><trkpt lat="43.33952851707959" lon="11.40622974054971"><ele>290.0</ele><time>2026-04-11T08:53:22Z</time></trkpt><trkpt lat="43.33950192127692" lon="11.406310667736477"><ele>289.57142857142856</ele><time>2026-04-11T08:53:24Z</time></trkpt><trkpt lat="43.339471936234624" lon="11.406395682980188"><ele>289.14285714285717</ele><time>2026-04-11T08:53:26Z</time></trkpt><trkpt lat="43.33943761350304" lon="11.406477815493444"><ele>288.7142857142857</ele><time>2026-04-11T08:53:28Z</time></trkpt><trkpt lat="43.33939140501755" lon="11.406558210274811"><ele>288.2857142857143</ele><time>2026-04-11T08:53:30Z</time></trkpt><trkpt lat="43.33935017243915" lon="11.406624302667744"><ele>287.8571428571429</ele><time>2026-04-11T08:53:32Z</time></trkpt><trkpt lat="43.339287891659794" lon="11.406704627471544"><ele>287.42857142857144</ele><time>2026-04-11T08:53:35Z</time></trkpt><trkpt lat="43.339244620929506" lon="11.406772719317432"><ele>287.0</ele><time>2026-04-11T08:53:37Z</time></trkpt><trkpt lat="43.33918666584943" lon="11.406844124128595"><ele>287.0</ele><time>2026-04-11T08:53:39Z</time></trkpt><trkpt lat="43.339110236884174" lon="11.406920561485714"><ele>287.0</ele><time>2026-04-11T08:53:41Z</time></trkpt><trkpt lat="43.339051487019525" lon="11.40698794655207"><ele>287.0</ele><time>2026-04-11T08:53:43Z</time></trkpt><trkpt lat="43.33898237958333" lon="11.407066225264284"><ele>287.0</ele><time>2026-04-11T08:53:45Z</time></trkpt><trkpt lat="43.33891181148461" lon="11.40715175922115"><ele>287.0</ele><time>2026-04-11T08:53:47Z</time></trkpt><trkpt lat="43.33885804381005" lon="11.407225866936384"><ele>287.0</ele><time>2026-04-11T08:53:49Z</time></trkpt><trkpt lat="43.33878842292824" lon="11.407313495706259"><ele>287.33333333333337</ele><time>2026-04-11T08:53:51Z</time></trkpt><trkpt lat="43.33872916392169" lon="11.407384149001206"><ele>287.6666666666667</ele><time>2026-04-11T08:53:53Z</time></trkpt><trkpt lat="43.3386680150388" lon="11.407449597068398"><ele>288.0</ele><time>2026-04-11T08:53:55Z</time></trkpt><trkpt lat="43.338601134720655" lon="11.407511312461201"><ele>288.3333333333333</ele><time>2026-04-11T08:53:57Z</time></trkpt><trkpt lat="43.33854175920484" lon="11.407570489343815"><ele>288.66666666666663</ele><time>2026-04-11T08:53:59Z</time></trkpt><trkpt lat="43.33847858049157" lon="11.407632055860677"><ele>289.0</ele><time>2026-04-11T08:54:01Z</time></trkpt><trkpt lat="43.33840506679165" lon="11.407679232831239"><ele>289.0</ele><time>2026-04-11T08:54:03Z</time></trkpt><trkpt lat="43.33834058120519" lon="11.40772102366731"><ele>289.0</ele><time>2026-04-11T08:54:05Z</time></trkpt><trkpt lat="43.33825342408884" lon="11.407773652059833"><ele>289.0</ele><time>2026-04-11T08:54:07Z</time></trkpt><trkpt lat="43.33817199002433" lon="11.407805606955932"><ele>289.0</ele><time>2026-04-11T08:54:09Z</time></trkpt><trkpt lat="43.33809423225684" lon="11.407811640476124"><ele>289.0</ele><time>2026-04-11T08:54:11Z</time></trkpt><trkpt lat="43.33801067620546" lon="11.407766841748032"><ele>289.0</ele><time>2026-04-11T08:54:13Z</time></trkpt><trkpt lat="43.33794186021438" lon="11.40770903129223"><ele>289.4</ele><time>2026-04-11T08:54:15Z</time></trkpt><trkpt lat="43.33786787712444" lon="11.407630727159084"><ele>289.79999999999995</ele><time>2026-04-11T08:54:17Z</time></trkpt><trkpt lat="43.337792992897036" lon="11.407553253972967"><ele>290.20000000000005</ele><time>2026-04-11T08:54:19Z</time></trkpt><trkpt lat="43.3377169661285" lon="11.407474886603397"><ele>290.6</ele><time>2026-04-11T08:54:21Z</time></trkpt><trkpt lat="43.337647147611165" lon="11.407404480695968"><ele>291.0</ele><time>2026-04-11T08:54:22.999Z</time></trkpt><trkpt lat="43.3375680088917" lon="11.407331064877315"><ele>291.0</ele><time>2026-04-11T08:54:24.999Z</time></trkpt><trkpt lat="43.3374934284597" lon="11.40726459293265"><ele>291.0</ele><time>2026-04-11T08:54:26.999Z</time></trkpt><trkpt lat="43.33741932511601" lon="11.407197271478896"><ele>291.0</ele><time>2026-04-11T08:54:28.999Z</time></trkpt><trkpt lat="43.33735159532624" lon="11.407129355521256"><ele>291.0</ele><time>2026-04-11T08:54:30.999Z</time></trkpt><trkpt lat="43.337276410866906" lon="11.407067166282113"><ele>291.0</ele><time>2026-04-11T08:54:32.999Z</time></trkpt><trkpt lat="43.3372021685268" lon="11.407013504870985"><ele>291.0</ele><time>2026-04-11T08:54:34.999Z</time></trkpt><trkpt lat="43.33709847695411" lon="11.406972241342507"><ele>291.2</ele><time>2026-04-11T08:54:36.999Z</time></trkpt><trkpt lat="43.33699209378898" lon="11.406914755422457"><ele>291.40000000000003</ele><time>2026-04-11T08:54:38.999Z</time></trkpt><trkpt lat="43.336881923576975" lon="11.406869427220421"><ele>291.6</ele><time>2026-04-11T08:54:40.999Z</time></trkpt><trkpt lat="43.336787364618324" lon="11.40682348932962"><ele>291.8</ele><time>2026-04-11T08:54:42.999Z</time></trkpt><trkpt lat="43.33670810278179" lon="11.406780477641066"><ele>292.0</ele><time>2026-04-11T08:54:44.999Z</time></trkpt><trkpt lat="43.3365948959102" lon="11.406739186343422"><ele>292.0</ele><time>2026-04-11T08:54:46.999Z</time></trkpt><trkpt lat="43.33649306512267" lon="11.406691649383061"><ele>292.0</ele><time>2026-04-11T08:54:48.999Z</time></trkpt><trkpt lat="43.336390467348515" lon="11.406673455743267"><ele>292.0</ele><time>2026-04-11T08:54:50.999Z</time></trkpt><trkpt lat="43.33629041307496" lon="11.406635468113784"><ele>292.0</ele><time>2026-04-11T08:54:52.999Z</time></trkpt><trkpt lat="43.336180518265834" lon="11.406642134231461"><ele>292.0</ele><time>2026-04-11T08:54:54.999Z</time></trkpt><trkpt lat="43.33609852446674" lon="11.40669098883659"><ele>293.16666666666663</ele><time>2026-04-11T08:54:56.999Z</time></trkpt><trkpt lat="43.336015008809866" lon="11.406740524287683"><ele>294.3333333333333</ele><time>2026-04-11T08:54:58.999Z</time></trkpt><trkpt lat="43.335941769373115" lon="11.406784016078394"><ele>295.5</ele><time>2026-04-11T08:55:00.999Z</time></trkpt><trkpt lat="43.33586516517716" lon="11.4068502199412"><ele>296.6666666666667</ele><time>2026-04-11T08:55:02.999Z</time></trkpt><trkpt lat="43.335797961294524" lon="11.406924603684844"><ele>297.83333333333337</ele><time>2026-04-11T08:55:04.999Z</time></trkpt><trkpt lat="43.33572745088693" lon="11.407001428349682"><ele>299.0</ele><time>2026-04-11T08:55:06.999Z</time></trkpt><trkpt lat="43.335672142200245" lon="11.407086538986034"><ele>299.0</ele><time>2026-04-11T08:55:08.999Z</time></trkpt><trkpt lat="43.33560243197316" lon="11.40715520672399"><ele>299.0</ele><time>2026-04-11T08:55:10.999Z</time></trkpt><trkpt lat="43.33553469832556" lon="11.407227507375978"><ele>299.0</ele><time>2026-04-11T08:55:12.999Z</time></trkpt><trkpt lat="43.33547429547542" lon="11.40730035279392"><ele>299.0</ele><time>2026-04-11T08:55:14.999Z</time></trkpt><trkpt lat="43.33540699442466" lon="11.407321115342505"><ele>299.0</ele><time>2026-04-11T08:55:16.999Z</time></trkpt><trkpt lat="43.33531420210091" lon="11.407365930130926"><ele>299.0</ele><time>2026-04-11T08:55:20Z</time></trkpt><trkpt lat="43.33524331628618" lon="11.407374964437995"><ele>298.59999999999997</ele><time>2026-04-11T08:55:22Z</time></trkpt><trkpt lat="43.33516823076428" lon="11.407374693667425"><ele>298.2</ele><time>2026-04-11T08:55:24Z</time></trkpt><trkpt lat="43.33508528750763" lon="11.407378836933175"><ele>297.79999999999995</ele><time>2026-04-11T08:55:26Z</time></trkpt><trkpt lat="43.334988943508" lon="11.407403627404234"><ele>297.4</ele><time>2026-04-11T08:55:28Z</time></trkpt><trkpt lat="43.33487781362501" lon="11.407439196480206"><ele>297.0</ele><time>2026-04-11T08:55:30Z</time></trkpt><trkpt lat="43.33475799468282" lon="11.407445398405981"><ele>295.6</ele><time>2026-04-11T08:55:32Z</time></trkpt><trkpt lat="43.334650333926675" lon="11.407446262075117"><ele>294.2</ele><time>2026-04-11T08:55:34Z</time></trkpt><trkpt lat="43.33454529207765" lon="11.407455686445408"><ele>292.8</ele><time>2026-04-11T08:55:36Z</time></trkpt><trkpt lat="43.3344324848148" lon="11.407453501956"><ele>291.4</ele><time>2026-04-11T08:55:38Z</time></trkpt><trkpt lat="43.334329768143704" lon="11.407452517589723"><ele>290.0</ele><time>2026-04-11T08:55:40Z</time></trkpt><trkpt lat="43.334251156654595" lon="11.40734864023972"><ele>290.0</ele><time>2026-04-11T08:55:42Z</time></trkpt><trkpt lat="43.33423975201137" lon="11.407245143029279"><ele>290.0</ele><time>2026-04-11T08:55:43Z</time></trkpt><trkpt lat="43.334228453820536" lon="11.407066523412189"><ele>290.0</ele><time>2026-04-11T08:55:45Z</time></trkpt><trkpt lat="43.33421735926219" lon="11.406958850926683"><ele>290.0</ele><time>2026-04-11T08:55:46Z</time></trkpt><trkpt lat="43.33420729717331" lon="11.406859556605834"><ele>290.0</ele><time>2026-04-11T08:55:47Z</time></trkpt><trkpt lat="43.33419367672436" lon="11.406752263746949"><ele>290.0</ele><time>2026-04-11T08:55:48Z</time></trkpt><trkpt lat="43.33417578090135" lon="11.406641081768125"><ele>289.83333333333337</ele><time>2026-04-11T08:55:49Z</time></trkpt><trkpt lat="43.33416161115194" lon="11.40653967881347"><ele>289.6666666666667</ele><time>2026-04-11T08:55:50Z</time></trkpt><trkpt lat="43.334152229383484" lon="11.406434276341539"><ele>289.5</ele><time>2026-04-11T08:55:51Z</time></trkpt><trkpt lat="43.334139270906334" lon="11.406333347369243"><ele>289.3333333333333</ele><time>2026-04-11T08:55:52Z</time></trkpt><trkpt lat="43.334125392543946" lon="11.406241168565279"><ele>289.16666666666663</ele><time>2026-04-11T08:55:53Z</time></trkpt><trkpt lat="43.334117534694386" lon="11.406145836874517"><ele>289.0</ele><time>2026-04-11T08:55:54Z</time></trkpt><trkpt lat="43.33409545374965" lon="11.406032391823816"><ele>288.5</ele><time>2026-04-11T08:55:55Z</time></trkpt><trkpt lat="43.334087765693766" lon="11.405932542329856"><ele>288.0</ele><time>2026-04-11T08:55:56Z</time></trkpt><trkpt lat="43.33408476003413" lon="11.405832881858695"><ele>287.5</ele><time>2026-04-11T08:55:57Z</time></trkpt><trkpt lat="43.3340900447829" lon="11.405725659526688"><ele>287.0</ele><time>2026-04-11T08:55:58Z</time></trkpt><trkpt lat="43.33409569639502" lon="11.405610544299655"><ele>286.5</ele><time>2026-04-11T08:55:59Z</time></trkpt><trkpt lat="43.334111482083" lon="11.405500812754456"><ele>286.0</ele><time>2026-04-11T08:56:00Z</time></trkpt><trkpt lat="43.33413055795122" lon="11.405389006768914"><ele>285.3333333333333</ele><time>2026-04-11T08:56:01Z</time></trkpt><trkpt lat="43.334132711499606" lon="11.405268976837329"><ele>284.66666666666663</ele><time>2026-04-11T08:56:02Z</time></trkpt><trkpt lat="43.334142170041176" lon="11.405149137222226"><ele>284.0</ele><time>2026-04-11T08:56:03Z</time></trkpt><trkpt lat="43.3341545827513" lon="11.405029294503409"><ele>283.3333333333333</ele><time>2026-04-11T08:56:04Z</time></trkpt><trkpt lat="43.33416539301916" lon="11.404915250931948"><ele>282.6666666666667</ele><time>2026-04-11T08:56:05Z</time></trkpt><trkpt lat="43.334180755311834" lon="11.404805837096813"><ele>282.0</ele><time>2026-04-11T08:56:06Z</time></trkpt><trkpt lat="43.33419779219194" lon="11.404684289692392"><ele>282.0</ele><time>2026-04-11T08:56:07Z</time></trkpt><trkpt lat="43.33419958906167" lon="11.404573623304412"><ele>282.0</ele><time>2026-04-11T08:56:08Z</time></trkpt><trkpt lat="43.33420688660374" lon="11.404465799110003"><ele>282.0</ele><time>2026-04-11T08:56:09Z</time></trkpt><trkpt lat="43.33421044047508" lon="11.404370626605171"><ele>282.0</ele><time>2026-04-11T08:56:10Z</time></trkpt><trkpt lat="43.33422959662155" lon="11.404277404803679"><ele>282.0</ele><time>2026-04-11T08:56:11Z</time></trkpt><trkpt lat="43.33422984902101" lon="11.404184892953003"><ele>282.0</ele><time>2026-04-11T08:56:12Z</time></trkpt><trkpt lat="43.334202230459425" lon="11.404064589265714"><ele>282.0</ele><time>2026-04-11T08:56:14Z</time></trkpt><trkpt lat="43.33411932117955" lon="11.40399700161018"><ele>282.0</ele><time>2026-04-11T08:56:16Z</time></trkpt><trkpt lat="43.33405567477991" lon="11.404007895091954"><ele>282.0</ele><time>2026-04-11T08:56:17Z</time></trkpt><trkpt lat="43.333953853619875" lon="11.404063256735146"><ele>282.0</ele><time>2026-04-11T08:56:19Z</time></trkpt><trkpt lat="43.33385555194801" lon="11.40412087510543"><ele>282.0</ele><time>2026-04-11T08:56:21Z</time></trkpt><trkpt lat="43.33373494351793" lon="11.404166183323255"><ele>281.6666666666667</ele><time>2026-04-11T08:56:23Z</time></trkpt><trkpt lat="43.33366431357996" lon="11.404202820124684"><ele>281.3333333333333</ele><time>2026-04-11T08:56:24Z</time></trkpt><trkpt lat="43.33355744955151" lon="11.404263425015415"><ele>281.0</ele><time>2026-04-11T08:56:25.999Z</time></trkpt><trkpt lat="43.33348622687926" lon="11.404294941341496"><ele>280.66666666666663</ele><time>2026-04-11T08:56:26.999Z</time></trkpt><trkpt lat="43.33342259822571" lon="11.404329548541098"><ele>280.3333333333333</ele><time>2026-04-11T08:56:27.999Z</time></trkpt><trkpt lat="43.333357321153045" lon="11.404364003296868"><ele>280.0</ele><time>2026-04-11T08:56:28.999Z</time></trkpt><trkpt lat="43.33328932781908" lon="11.404396566456114"><ele>280.0</ele><time>2026-04-11T08:56:29.999Z</time></trkpt><trkpt lat="43.33321875170974" lon="11.404425851734754"><ele>280.0</ele><time>2026-04-11T08:56:30.999Z</time></trkpt><trkpt lat="43.333153471708926" lon="11.404463246523274"><ele>280.0</ele><time>2026-04-11T08:56:31.999Z</time></trkpt><trkpt lat="43.33307678334689" lon="11.404500687606049"><ele>280.0</ele><time>2026-04-11T08:56:32.999Z</time></trkpt><trkpt lat="43.33300840174289" lon="11.404529392908648"><ele>280.0</ele><time>2026-04-11T08:56:33.999Z</time></trkpt><trkpt lat="43.33294883339284" lon="11.404579506203525"><ele>280.0</ele><time>2026-04-11T08:56:34.999Z</time></trkpt><trkpt lat="43.332869705490005" lon="11.404612152389683"><ele>280.16666666666663</ele><time>2026-04-11T08:56:35.999Z</time></trkpt><trkpt lat="43.33280212764344" lon="11.404657261209245"><ele>280.3333333333333</ele><time>2026-04-11T08:56:36.999Z</time></trkpt><trkpt lat="43.33272744838714" lon="11.404695484986235"><ele>280.5</ele><time>2026-04-11T08:56:37.999Z</time></trkpt><trkpt lat="43.33265444781983" lon="11.404737302692286"><ele>280.6666666666667</ele><time>2026-04-11T08:56:38.999Z</time></trkpt><trkpt lat="43.3325857683632" lon="11.4047840029349"><ele>280.83333333333337</ele><time>2026-04-11T08:56:39.999Z</time></trkpt><trkpt lat="43.332506743430855" lon="11.404811893445792"><ele>281.0</ele><time>2026-04-11T08:56:40.999Z</time></trkpt><trkpt lat="43.33243855194721" lon="11.404857899214797"><ele>280.40000000000003</ele><time>2026-04-11T08:56:41.999Z</time></trkpt><trkpt lat="43.33236751012831" lon="11.404878870247332"><ele>279.8</ele><time>2026-04-11T08:56:42.999Z</time></trkpt><trkpt lat="43.33229368553393" lon="11.404918786739827"><ele>279.20000000000005</ele><time>2026-04-11T08:56:43.999Z</time></trkpt><trkpt lat="43.33216419986904" lon="11.40500904819792"><ele>278.6</ele><time>2026-04-11T08:56:45.999Z</time></trkpt><trkpt lat="43.332067198115354" lon="11.40502259055008"><ele>278.0</ele><time>2026-04-11T08:56:46.999Z</time></trkpt><trkpt lat="43.331989090278434" lon="11.405055411125815"><ele>278.0</ele><time>2026-04-11T08:56:47.999Z</time></trkpt><trkpt lat="43.331908198604026" lon="11.40509523221005"><ele>278.0</ele><time>2026-04-11T08:56:48.999Z</time></trkpt><trkpt lat="43.33184154530287" lon="11.405143465411443"><ele>278.0</ele><time>2026-04-11T08:56:49.999Z</time></trkpt><trkpt lat="43.33176120579234" lon="11.40518140388459"><ele>278.0</ele><time>2026-04-11T08:56:50.999Z</time></trkpt><trkpt lat="43.331684612464045" lon="11.405208147827347"><ele>278.0</ele><time>2026-04-11T08:56:51.999Z</time></trkpt><trkpt lat="43.33160570701143" lon="11.405224791743011"><ele>278.0</ele><time>2026-04-11T08:56:52.999Z</time></trkpt><trkpt lat="43.33153089885665" lon="11.405227006907"><ele>278.0</ele><time>2026-04-11T08:56:53.999Z</time></trkpt><trkpt lat="43.33146043536705" lon="11.405241113601898"><ele>278.0</ele><time>2026-04-11T08:56:54.999Z</time></trkpt><trkpt lat="43.33137716204106" lon="11.405276090373695"><ele>278.0</ele><time>2026-04-11T08:56:55.999Z</time></trkpt><trkpt lat="43.33129555468778" lon="11.405302556596927"><ele>278.0</ele><time>2026-04-11T08:56:56.999Z</time></trkpt><trkpt lat="43.33122738161804" lon="11.405326060024318"><ele>278.0</ele><time>2026-04-11T08:56:57.999Z</time></trkpt><trkpt lat="43.331145765780946" lon="11.40533946541751"><ele>278.0</ele><time>2026-04-11T08:56:58.999Z</time></trkpt><trkpt lat="43.33106848138442" lon="11.40535998822272"><ele>277.0</ele><time>2026-04-11T08:56:59.999Z</time></trkpt><trkpt lat="43.33098789007652" lon="11.405381410247811"><ele>276.0</ele><time>2026-04-11T08:57:00.999Z</time></trkpt><trkpt lat="43.33090330236424" lon="11.405400278537913"><ele>275.0</ele><time>2026-04-11T08:57:01.999Z</time></trkpt><trkpt lat="43.3308156863369" lon="11.40542581588392"><ele>274.0</ele><time>2026-04-11T08:57:02.999Z</time></trkpt><trkpt lat="43.33073574422346" lon="11.405457430161697"><ele>273.0</ele><time>2026-04-11T08:57:03.999Z</time></trkpt><trkpt lat="43.33065341563492" lon="11.405482585864592"><ele>272.0</ele><time>2026-04-11T08:57:04.999Z</time></trkpt><trkpt lat="43.330564793606925" lon="11.405500712277256"><ele>270.4</ele><time>2026-04-11T08:57:05.999Z</time></trkpt><trkpt lat="43.33047324119119" lon="11.405535185811784"><ele>268.79999999999995</ele><time>2026-04-11T08:57:06.999Z</time></trkpt><trkpt lat="43.33038459663597" lon="11.405556358507878"><ele>267.2</ele><time>2026-04-11T08:57:07.999Z</time></trkpt><trkpt lat="43.33029260499616" lon="11.405602295156791"><ele>265.59999999999997</ele><time>2026-04-11T08:57:08.999Z</time></trkpt><trkpt lat="43.3301953041327" lon="11.405645400814718"><ele>264.0</ele><time>2026-04-11T08:57:09.999Z</time></trkpt><trkpt lat="43.33010238065026" lon="11.405704898118524"><ele>264.0</ele><time>2026-04-11T08:57:10.999Z</time></trkpt><trkpt lat="43.33000313051751" lon="11.405771277721046"><ele>264.0</ele><time>2026-04-11T08:57:11.999Z</time></trkpt><trkpt lat="43.32991559423139" lon="11.405818601504805"><ele>264.0</ele><time>2026-04-11T08:57:12.999Z</time></trkpt><trkpt lat="43.32982930443765" lon="11.405877280887546"><ele>264.0</ele><time>2026-04-11T08:57:13.999Z</time></trkpt><trkpt lat="43.32973508642846" lon="11.40593575088647"><ele>264.0</ele><time>2026-04-11T08:57:14.999Z</time></trkpt><trkpt lat="43.32966067213675" lon="11.406012103349937"><ele>263.0</ele><time>2026-04-11T08:57:15.999Z</time></trkpt><trkpt lat="43.32957927371483" lon="11.40608406956401"><ele>262.0</ele><time>2026-04-11T08:57:16.999Z</time></trkpt><trkpt lat="43.32949030767487" lon="11.406146200105535"><ele>261.0</ele><time>2026-04-11T08:57:17.999Z</time></trkpt><trkpt lat="43.32941666288849" lon="11.406238509985744"><ele>260.0</ele><time>2026-04-11T08:57:18.999Z</time></trkpt><trkpt lat="43.32934558019741" lon="11.406328334737077"><ele>259.0</ele><time>2026-04-11T08:57:19.999Z</time></trkpt><trkpt lat="43.32927470330148" lon="11.406415719484013"><ele>258.8</ele><time>2026-04-11T08:57:20.999Z</time></trkpt><trkpt lat="43.32920730280325" lon="11.406497274447968"><ele>258.59999999999997</ele><time>2026-04-11T08:57:21.999Z</time></trkpt><trkpt lat="43.329132677432575" lon="11.406597405325352"><ele>258.4</ele><time>2026-04-11T08:57:22.999Z</time></trkpt><trkpt lat="43.32904490830124" lon="11.406686884115178"><ele>258.2</ele><time>2026-04-11T08:57:24Z</time></trkpt><trkpt lat="43.328982065608855" lon="11.406772486093297"><ele>258.0</ele><time>2026-04-11T08:57:25Z</time></trkpt><trkpt lat="43.32890223913551" lon="11.406876598892662"><ele>257.8</ele><time>2026-04-11T08:57:26Z</time></trkpt><trkpt lat="43.32882414916901" lon="11.406961828834381"><ele>257.6</ele><time>2026-04-11T08:57:27Z</time></trkpt><trkpt lat="43.32875112338405" lon="11.407058069794145"><ele>257.4</ele><time>2026-04-11T08:57:28Z</time></trkpt><trkpt lat="43.32869197746668" lon="11.407145369363764"><ele>257.2</ele><time>2026-04-11T08:57:29Z</time></trkpt><trkpt lat="43.32862462196684" lon="11.4072265309518"><ele>257.0</ele><time>2026-04-11T08:57:30Z</time></trkpt><trkpt lat="43.32855419031823" lon="11.407308373846957"><ele>256.2</ele><time>2026-04-11T08:57:31Z</time></trkpt><trkpt lat="43.328480609185725" lon="11.407395738557844"><ele>255.39999999999998</ele><time>2026-04-11T08:57:32Z</time></trkpt><trkpt lat="43.328416462169926" lon="11.407477674703351"><ele>254.60000000000002</ele><time>2026-04-11T08:57:33Z</time></trkpt><trkpt lat="43.32834659898806" lon="11.407565354371298"><ele>253.8</ele><time>2026-04-11T08:57:34Z</time></trkpt><trkpt lat="43.32827444163612" lon="11.407647892937824"><ele>253.0</ele><time>2026-04-11T08:57:35Z</time></trkpt><trkpt lat="43.32820171342769" lon="11.407724067526987"><ele>252.99999999999997</ele><time>2026-04-11T08:57:36Z</time></trkpt><trkpt lat="43.32813248567415" lon="11.407799329952278"><ele>253.0</ele><time>2026-04-11T08:57:37Z</time></trkpt><trkpt lat="43.32807439321769" lon="11.407869514710558"><ele>253.0</ele><time>2026-04-11T08:57:38Z</time></trkpt><trkpt lat="43.32801199222166" lon="11.407946909853871"><ele>253.0</ele><time>2026-04-11T08:57:39Z</time></trkpt><trkpt lat="43.32794974756438" lon="11.408028678158491"><ele>252.99999999999997</ele><time>2026-04-11T08:57:40Z</time></trkpt><trkpt lat="43.32789001790038" lon="11.408102162511964"><ele>253.0</ele><time>2026-04-11T08:57:41Z</time></trkpt><trkpt lat="43.327827433025334" lon="11.40818121204348"><ele>252.99999999999997</ele><time>2026-04-11T08:57:42Z</time></trkpt><trkpt lat="43.32776028224593" lon="11.408240055870529"><ele>253.0</ele><time>2026-04-11T08:57:43Z</time></trkpt><trkpt lat="43.327659274300764" lon="11.408364784605114"><ele>253.0</ele><time>2026-04-11T08:57:45Z</time></trkpt><trkpt lat="43.32760920958921" lon="11.408427607399364"><ele>253.0</ele><time>2026-04-11T08:57:46Z</time></trkpt><trkpt lat="43.32755030216569" lon="11.40849296196426"><ele>252.99999999999997</ele><time>2026-04-11T08:57:47Z</time></trkpt><trkpt lat="43.32748886954755" lon="11.408556637245697"><ele>253.0</ele><time>2026-04-11T08:57:48Z</time></trkpt><trkpt lat="43.32743489308323" lon="11.40862897177752"><ele>252.99999999999997</ele><time>2026-04-11T08:57:49Z</time></trkpt><trkpt lat="43.32737217633581" lon="11.408706042617395"><ele>253.0</ele><time>2026-04-11T08:57:50Z</time></trkpt><trkpt lat="43.32730555066045" lon="11.408773603132614"><ele>253.0</ele><time>2026-04-11T08:57:51Z</time></trkpt><trkpt lat="43.32724091949155" lon="11.408849850961458"><ele>253.0</ele><time>2026-04-11T08:57:52Z</time></trkpt><trkpt lat="43.32717106279761" lon="11.408920227272468"><ele>252.99999999999997</ele><time>2026-04-11T08:57:53Z</time></trkpt><trkpt lat="43.32711131430229" lon="11.408981939490367"><ele>253.0</ele><time>2026-04-11T08:57:54Z</time></trkpt><trkpt lat="43.32706000929051" lon="11.409033922421123"><ele>251.83333333333331</ele><time>2026-04-11T08:57:55Z</time></trkpt><trkpt lat="43.327020738145464" lon="11.409112577930635"><ele>250.66666666666666</ele><time>2026-04-11T08:57:56Z</time></trkpt><trkpt lat="43.32696938106922" lon="11.409206191471679"><ele>249.5</ele><time>2026-04-11T08:57:57Z</time></trkpt><trkpt lat="43.32692131823107" lon="11.409277282679323"><ele>248.33333333333331</ele><time>2026-04-11T08:57:58Z</time></trkpt><trkpt lat="43.326867536780966" lon="11.409357454340293"><ele>247.16666666666666</ele><time>2026-04-11T08:57:59Z</time></trkpt><trkpt lat="43.32682689483627" lon="11.409441215736884"><ele>246.0</ele><time>2026-04-11T08:58:00Z</time></trkpt><trkpt lat="43.32678186848364" lon="11.409522905563378"><ele>246.0</ele><time>2026-04-11T08:58:01Z</time></trkpt><trkpt lat="43.32672601675888" lon="11.40961560068178"><ele>246.0</ele><time>2026-04-11T08:58:02Z</time></trkpt><trkpt lat="43.326664699632275" lon="11.409689460540026"><ele>246.0</ele><time>2026-04-11T08:58:03Z</time></trkpt><trkpt lat="43.32659690242085" lon="11.409742697444223"><ele>246.0</ele><time>2026-04-11T08:58:04Z</time></trkpt><trkpt lat="43.326510288129754" lon="11.409801563647052"><ele>246.0</ele><time>2026-04-11T08:58:05Z</time></trkpt><trkpt lat="43.32644018345183" lon="11.409866267358453"><ele>246.0</ele><time>2026-04-11T08:58:06Z</time></trkpt><trkpt lat="43.32638051991603" lon="11.409938215347928"><ele>245.5</ele><time>2026-04-11T08:58:07Z</time></trkpt><trkpt lat="43.326323757277" lon="11.410007436572473"><ele>245.0</ele><time>2026-04-11T08:58:08Z</time></trkpt><trkpt lat="43.326274601717444" lon="11.410070007789805"><ele>244.5</ele><time>2026-04-11T08:58:09Z</time></trkpt><trkpt lat="43.3262077067027" lon="11.41014391778872"><ele>244.0</ele><time>2026-04-11T08:58:10Z</time></trkpt><trkpt lat="43.32613084446321" lon="11.41022529720996"><ele>243.5</ele><time>2026-04-11T08:58:12Z</time></trkpt><trkpt lat="43.32606923349135" lon="11.410291030385354"><ele>243.0</ele><time>2026-04-11T08:58:14Z</time></trkpt><trkpt lat="43.32599647285993" lon="11.41035589817349"><ele>243.0</ele><time>2026-04-11T08:58:16Z</time></trkpt><trkpt lat="43.32593639694581" lon="11.4102283378786"><ele>243.0</ele><time>2026-04-11T08:58:18Z</time></trkpt><trkpt lat="43.32589096455767" lon="11.410158984098004"><ele>243.0</ele><time>2026-04-11T08:58:19Z</time></trkpt><trkpt lat="43.32585820681839" lon="11.410058473640387"><ele>243.0</ele><time>2026-04-11T08:58:20Z</time></trkpt><trkpt lat="43.32582367241861" lon="11.409952231636849"><ele>243.0</ele><time>2026-04-11T08:58:21Z</time></trkpt><trkpt lat="43.32580384814159" lon="11.409831204003916"><ele>243.0</ele><time>2026-04-11T08:58:22Z</time></trkpt><trkpt lat="43.32580408289786" lon="11.4096886169736"><ele>241.4</ele><time>2026-04-11T08:58:23Z</time></trkpt><trkpt lat="43.32582772822103" lon="11.409538615478706"><ele>239.8</ele><time>2026-04-11T08:58:24Z</time></trkpt><trkpt lat="43.3258259015669" lon="11.409398922487973"><ele>238.2</ele><time>2026-04-11T08:58:25Z</time></trkpt><trkpt lat="43.32584632089248" lon="11.409292098133834"><ele>236.6</ele><time>2026-04-11T08:58:26Z</time></trkpt><trkpt lat="43.32585279984985" lon="11.409180983496483"><ele>235.0</ele><time>2026-04-11T08:58:27Z</time></trkpt><trkpt lat="43.325842977603955" lon="11.409043114895715"><ele>235.0</ele><time>2026-04-11T08:58:28Z</time></trkpt><trkpt lat="43.32582250959318" lon="11.408888887884089"><ele>235.0</ele><time>2026-04-11T08:58:28.999Z</time></trkpt><trkpt lat="43.32580097594907" lon="11.408733913847746"><ele>235.0</ele><time>2026-04-11T08:58:29.999Z</time></trkpt><trkpt lat="43.32578439866631" lon="11.408570493228043"><ele>235.0</ele><time>2026-04-11T08:58:30.999Z</time></trkpt><trkpt lat="43.325766581345476" lon="11.408404636095852"><ele>234.0</ele><time>2026-04-11T08:58:31.999Z</time></trkpt><trkpt lat="43.325748761365446" lon="11.408238031032829"><ele>233.0</ele><time>2026-04-11T08:58:32.999Z</time></trkpt><trkpt lat="43.325732495663324" lon="11.408068216307434"><ele>232.0</ele><time>2026-04-11T08:58:33.999Z</time></trkpt><trkpt lat="43.325710306670565" lon="11.407894322931732"><ele>231.0</ele><time>2026-04-11T08:58:34.999Z</time></trkpt><trkpt lat="43.32569680330048" lon="11.4077190732224"><ele>230.0</ele><time>2026-04-11T08:58:35.999Z</time></trkpt><trkpt lat="43.32567955631106" lon="11.407552328527272"><ele>229.0</ele><time>2026-04-11T08:58:36.999Z</time></trkpt><trkpt lat="43.32566224964593" lon="11.407384670840278"><ele>228.0</ele><time>2026-04-11T08:58:37.999Z</time></trkpt><trkpt lat="43.325645378347275" lon="11.407218276298146"><ele>227.0</ele><time>2026-04-11T08:58:38.999Z</time></trkpt><trkpt lat="43.32562861231257" lon="11.407056617305958"><ele>226.0</ele><time>2026-04-11T08:58:39.999Z</time></trkpt><trkpt lat="43.3256006003639" lon="11.40689600219883"><ele>225.0</ele><time>2026-04-11T08:58:40.999Z</time></trkpt><trkpt lat="43.32556724375126" lon="11.406747167554608"><ele>224.0</ele><time>2026-04-11T08:58:41.999Z</time></trkpt><trkpt lat="43.325516645992295" lon="11.406608247862223"><ele>223.0</ele><time>2026-04-11T08:58:42.999Z</time></trkpt><trkpt lat="43.3254555323691" lon="11.406479567536685"><ele>223.0</ele><time>2026-04-11T08:58:43.999Z</time></trkpt><trkpt lat="43.325389852914256" lon="11.406359984135156"><ele>223.0</ele><time>2026-04-11T08:58:44.999Z</time></trkpt><trkpt lat="43.32533163546973" lon="11.406242026379065"><ele>223.0</ele><time>2026-04-11T08:58:45.999Z</time></trkpt><trkpt lat="43.325270393729994" lon="11.406120443346396"><ele>223.0</ele><time>2026-04-11T08:58:46.999Z</time></trkpt><trkpt lat="43.32521894653391" lon="11.406001390998584"><ele>223.0</ele><time>2026-04-11T08:58:47.999Z</time></trkpt><trkpt lat="43.32517584230206" lon="11.405875082677374"><ele>221.8</ele><time>2026-04-11T08:58:48.999Z</time></trkpt><trkpt lat="43.325141134248035" lon="11.405745080030227"><ele>220.60000000000002</ele><time>2026-04-11T08:58:49.999Z</time></trkpt><trkpt lat="43.325101140577196" lon="11.405622357172778"><ele>219.39999999999998</ele><time>2026-04-11T08:58:50.999Z</time></trkpt><trkpt lat="43.325067527140575" lon="11.40550112236074"><ele>218.2</ele><time>2026-04-11T08:58:51.999Z</time></trkpt><trkpt lat="43.32503574090805" lon="11.405382879105895"><ele>217.0</ele><time>2026-04-11T08:58:52.999Z</time></trkpt><trkpt lat="43.325009539516444" lon="11.405265489136474"><ele>216.6</ele><time>2026-04-11T08:58:53.999Z</time></trkpt><trkpt lat="43.324988865818305" lon="11.405140513880589"><ele>216.2</ele><time>2026-04-11T08:58:54.999Z</time></trkpt><trkpt lat="43.32497639610941" lon="11.40501726163049"><ele>215.8</ele><time>2026-04-11T08:58:55.999Z</time></trkpt><trkpt lat="43.324966281452376" lon="11.404886867805399"><ele>215.4</ele><time>2026-04-11T08:58:56.999Z</time></trkpt><trkpt lat="43.32496440043963" lon="11.404769053983971"><ele>215.0</ele><time>2026-04-11T08:58:57.999Z</time></trkpt><trkpt lat="43.32495545498927" lon="11.404645862891801"><ele>214.83333333333334</ele><time>2026-04-11T08:58:58.999Z</time></trkpt><trkpt lat="43.32495326638231" lon="11.404531315537556"><ele>214.66666666666669</ele><time>2026-04-11T08:58:59.999Z</time></trkpt><trkpt lat="43.32494737222536" lon="11.404415058488794"><ele>214.5</ele><time>2026-04-11T08:59:00.999Z</time></trkpt><trkpt lat="43.324951528139856" lon="11.404301665732424"><ele>214.33333333333331</ele><time>2026-04-11T08:59:01.999Z</time></trkpt><trkpt lat="43.32494307125674" lon="11.40419643232414"><ele>214.16666666666666</ele><time>2026-04-11T08:59:02.999Z</time></trkpt><trkpt lat="43.324941102136" lon="11.404095188389281"><ele>214.0</ele><time>2026-04-11T08:59:03.999Z</time></trkpt><trkpt lat="43.32493991953974" lon="11.403984952304235"><ele>214.00000000000003</ele><time>2026-04-11T08:59:04.999Z</time></trkpt><trkpt lat="43.32494164396271" lon="11.403879232742156"><ele>214.0</ele><time>2026-04-11T08:59:05.999Z</time></trkpt><trkpt lat="43.324955443182084" lon="11.403780749658129"><ele>214.0</ele><time>2026-04-11T08:59:06.999Z</time></trkpt><trkpt lat="43.324958994441296" lon="11.403683492193771"><ele>214.0</ele><time>2026-04-11T08:59:07.999Z</time></trkpt><trkpt lat="43.324964633234515" lon="11.403595390457614"><ele>214.0</ele><time>2026-04-11T08:59:08.999Z</time></trkpt><trkpt lat="43.324969078883356" lon="11.403499472609807"><ele>214.00000000000003</ele><time>2026-04-11T08:59:09.999Z</time></trkpt><trkpt lat="43.32497550978378" lon="11.403405782028884"><ele>214.0</ele><time>2026-04-11T08:59:10.999Z</time></trkpt><trkpt lat="43.324982705679844" lon="11.403316098330622"><ele>213.6</ele><time>2026-04-11T08:59:11.999Z</time></trkpt><trkpt lat="43.324989451232824" lon="11.403228581505031"><ele>213.2</ele><time>2026-04-11T08:59:12.999Z</time></trkpt><trkpt lat="43.32499976904335" lon="11.40305881334076"><ele>212.79999999999998</ele><time>2026-04-11T08:59:14.999Z</time></trkpt><trkpt lat="43.32501421630548" lon="11.402911763561452"><ele>212.39999999999998</ele><time>2026-04-11T08:59:16.999Z</time></trkpt><trkpt lat="43.32502678953313" lon="11.402781822405547"><ele>212.0</ele><time>2026-04-11T08:59:18.999Z</time></trkpt><trkpt lat="43.32503916230666" lon="11.402672337935032"><ele>212.57142857142858</ele><time>2026-04-11T08:59:20.999Z</time></trkpt><trkpt lat="43.32504524577862" lon="11.402553077340688"><ele>213.14285714285714</ele><time>2026-04-11T08:59:23.999Z</time></trkpt><trkpt lat="43.32504865577111" lon="11.402465605430285"><ele>213.71428571428572</ele><time>2026-04-11T08:59:26.999Z</time></trkpt><trkpt lat="43.32506256375895" lon="11.40237750495156"><ele>214.28571428571428</ele><time>2026-04-11T08:59:30Z</time></trkpt><trkpt lat="43.32506625663165" lon="11.402287687320428"><ele>214.85714285714283</ele><time>2026-04-11T08:59:34Z</time></trkpt><trkpt lat="43.32507605917248" lon="11.40220152308347"><ele>215.42857142857142</ele><time>2026-04-11T08:59:38Z</time></trkpt><trkpt lat="43.32507634986985" lon="11.402101033346234"><ele>216.0</ele><time>2026-04-11T08:59:42Z</time></trkpt><trkpt lat="43.32507923662097" lon="11.402007882952734"><ele>217.42857142857142</ele><time>2026-04-11T08:59:46Z</time></trkpt><trkpt lat="43.32509656171965" lon="11.40191961117608"><ele>218.85714285714283</ele><time>2026-04-11T08:59:51Z</time></trkpt><trkpt lat="43.325097122410206" lon="11.401825563941346"><ele>220.28571428571428</ele><time>2026-04-11T08:59:56Z</time></trkpt><trkpt lat="43.32509105186437" lon="11.40173164812221"><ele>221.71428571428572</ele><time>2026-04-11T09:00:01Z</time></trkpt><trkpt lat="43.32509083732242" lon="11.401640465497556"><ele>223.14285714285714</ele><time>2026-04-11T09:00:06Z</time></trkpt><trkpt lat="43.32508680987752" lon="11.401544468457647"><ele>224.57142857142858</ele><time>2026-04-11T09:00:11Z</time></trkpt><trkpt lat="43.325089136066616" lon="11.401453993177883"><ele>226.0</ele><time>2026-04-11T09:00:16Z</time></trkpt><trkpt lat="43.325095910072854" lon="11.401358840893325"><ele>226.71428571428572</ele><time>2026-04-11T09:00:21Z</time></trkpt><trkpt lat="43.32508457402556" lon="11.401264640235139"><ele>227.42857142857142</ele><time>2026-04-11T09:00:26Z</time></trkpt><trkpt lat="43.32506327842655" lon="11.401175574055829"><ele>228.14285714285714</ele><time>2026-04-11T09:00:31Z</time></trkpt><trkpt lat="43.325059737420204" lon="11.401077279615306"><ele>228.85714285714286</ele><time>2026-04-11T09:00:36Z</time></trkpt><trkpt lat="43.32505713336049" lon="11.400972263559527"><ele>229.57142857142856</ele><time>2026-04-11T09:00:40.999Z</time></trkpt><trkpt lat="43.325068861243096" lon="11.400870016392917"><ele>230.28571428571428</ele><time>2026-04-11T09:00:45.999Z</time></trkpt><trkpt lat="43.32506710498656" lon="11.400782840696737"><ele>231.0</ele><time>2026-04-11T09:00:49.999Z</time></trkpt><trkpt lat="43.32508501588115" lon="11.400679888824685"><ele>231.0</ele><time>2026-04-11T09:00:53.999Z</time></trkpt><trkpt lat="43.32508302733794" lon="11.400570203595109"><ele>231.0</ele><time>2026-04-11T09:00:58.999Z</time></trkpt><trkpt lat="43.32508569072799" lon="11.400480119096988"><ele>231.0</ele><time>2026-04-11T09:01:02.999Z</time></trkpt><trkpt lat="43.325102966598045" lon="11.40037042544629"><ele>231.0</ele><time>2026-04-11T09:01:07.999Z</time></trkpt><trkpt lat="43.32510902842413" lon="11.400277055016993"><ele>231.0</ele><time>2026-04-11T09:01:11.999Z</time></trkpt><trkpt lat="43.32512087129464" lon="11.40017970155366"><ele>231.0</ele><time>2026-04-11T09:01:15.999Z</time></trkpt><trkpt lat="43.325126775986526" lon="11.400081849929846"><ele>231.0</ele><time>2026-04-11T09:01:19.999Z</time></trkpt><trkpt lat="43.325126555313936" lon="11.399972672606824"><ele>231.71428571428572</ele><time>2026-04-11T09:01:23.999Z</time></trkpt><trkpt lat="43.325127299220725" lon="11.399879206981604"><ele>232.42857142857144</ele><time>2026-04-11T09:01:26.999Z</time></trkpt><trkpt lat="43.325120872423334" lon="11.399789637583426"><ele>233.14285714285714</ele><time>2026-04-11T09:01:29.999Z</time></trkpt><trkpt lat="43.325115838499684" lon="11.39969661046744"><ele>233.85714285714286</ele><time>2026-04-11T09:01:32.999Z</time></trkpt><trkpt lat="43.32511023322159" lon="11.399599341511554"><ele>234.57142857142858</ele><time>2026-04-11T09:01:36Z</time></trkpt><trkpt lat="43.32510344860471" lon="11.399501425750849"><ele>235.28571428571428</ele><time>2026-04-11T09:01:39Z</time></trkpt><trkpt lat="43.32510032028143" lon="11.399413521496047"><ele>236.0</ele><time>2026-04-11T09:01:42Z</time></trkpt><trkpt lat="43.325095319259816" lon="11.399306052725459"><ele>236.83333333333334</ele><time>2026-04-11T09:01:45Z</time></trkpt><trkpt lat="43.325088460368455" lon="11.399203723586322"><ele>237.66666666666669</ele><time>2026-04-11T09:01:48Z</time></trkpt><trkpt lat="43.32508586121856" lon="11.399098793869443"><ele>238.5</ele><time>2026-04-11T09:01:51Z</time></trkpt><trkpt lat="43.325078598861424" lon="11.398987393229339"><ele>239.33333333333331</ele><time>2026-04-11T09:01:54Z</time></trkpt><trkpt lat="43.32507207151805" lon="11.39887625917652"><ele>240.16666666666666</ele><time>2026-04-11T09:01:57Z</time></trkpt><trkpt lat="43.32506472741708" lon="11.398762439095659"><ele>241.0</ele><time>2026-04-11T09:02:00Z</time></trkpt><trkpt lat="43.32506643418267" lon="11.398647656107164"><ele>241.99999999999997</ele><time>2026-04-11T09:02:03Z</time></trkpt><trkpt lat="43.325060278774814" lon="11.39853650372348"><ele>243.0</ele><time>2026-04-11T09:02:06Z</time></trkpt><trkpt lat="43.32506368084638" lon="11.398433103207678"><ele>244.0</ele><time>2026-04-11T09:02:09Z</time></trkpt><trkpt lat="43.32505563340479" lon="11.398311582230164"><ele>245.0</ele><time>2026-04-11T09:02:12Z</time></trkpt><trkpt lat="43.32505128609588" lon="11.398191871405624"><ele>245.99999999999997</ele><time>2026-04-11T09:02:15Z</time></trkpt><trkpt lat="43.32504803682975" lon="11.398073420360802"><ele>247.0</ele><time>2026-04-11T09:02:18Z</time></trkpt><trkpt lat="43.32504408979949" lon="11.39795149979728"><ele>247.28571428571428</ele><time>2026-04-11T09:02:21Z</time></trkpt><trkpt lat="43.32505298257525" lon="11.397830270232866"><ele>247.57142857142856</ele><time>2026-04-11T09:02:24Z</time></trkpt><trkpt lat="43.32507659723908" lon="11.397743931804376"><ele>247.85714285714283</ele><time>2026-04-11T09:02:26Z</time></trkpt><trkpt lat="43.325100098797385" lon="11.397657469401256"><ele>248.14285714285714</ele><time>2026-04-11T09:02:28Z</time></trkpt><trkpt lat="43.325137805214794" lon="11.39756824923913"><ele>248.4285714285714</ele><time>2026-04-11T09:02:30Z</time></trkpt><trkpt lat="43.32516375895305" lon="11.397474178571251"><ele>248.7142857142857</ele><time>2026-04-11T09:02:32Z</time></trkpt><trkpt lat="43.32521626472386" lon="11.39739465613098"><ele>249.0</ele><time>2026-04-11T09:02:34Z</time></trkpt><trkpt lat="43.3252284906724" lon="11.397303825085936"><ele>249.0</ele><time>2026-04-11T09:02:36Z</time></trkpt><trkpt lat="43.32526359393731" lon="11.397219016928386"><ele>249.0</ele><time>2026-04-11T09:02:38Z</time></trkpt><trkpt lat="43.32530116385313" lon="11.397126073732995"><ele>249.0</ele><time>2026-04-11T09:02:39.999Z</time></trkpt><trkpt lat="43.32532165011194" lon="11.39702717029696"><ele>249.0</ele><time>2026-04-11T09:02:41.999Z</time></trkpt><trkpt lat="43.32536311773858" lon="11.396938456435468"><ele>249.0</ele><time>2026-04-11T09:02:43.999Z</time></trkpt><trkpt lat="43.32539333623232" lon="11.396836307182529"><ele>249.0</ele><time>2026-04-11T09:02:45.999Z</time></trkpt><trkpt lat="43.32542314769182" lon="11.396724256379683"><ele>249.2</ele><time>2026-04-11T09:02:47.999Z</time></trkpt><trkpt lat="43.32545345941136" lon="11.396618007179358"><ele>249.39999999999998</ele><time>2026-04-11T09:02:49.999Z</time></trkpt><trkpt lat="43.325482105677544" lon="11.396502991668674"><ele>249.6</ele><time>2026-04-11T09:02:51.999Z</time></trkpt><trkpt lat="43.32551620757394" lon="11.396384445023623"><ele>249.8</ele><time>2026-04-11T09:02:53.999Z</time></trkpt><trkpt lat="43.32555517338051" lon="11.396271495006847"><ele>250.0</ele><time>2026-04-11T09:02:55.999Z</time></trkpt><trkpt lat="43.32558772796997" lon="11.396144253844225"><ele>250.0</ele><time>2026-04-11T09:02:57.999Z</time></trkpt><trkpt lat="43.32562935428483" lon="11.396018904678115"><ele>250.0</ele><time>2026-04-11T09:02:59.999Z</time></trkpt><trkpt lat="43.32568704509963" lon="11.395905983371591"><ele>250.0</ele><time>2026-04-11T09:03:01.999Z</time></trkpt><trkpt lat="43.32570623998152" lon="11.39576829190242"><ele>250.0</ele><time>2026-04-11T09:03:03.999Z</time></trkpt><trkpt lat="43.32571235572487" lon="11.395628718852546"><ele>250.0</ele><time>2026-04-11T09:03:05.999Z</time></trkpt><trkpt lat="43.32571145192258" lon="11.395495377647755"><ele>250.4</ele><time>2026-04-11T09:03:07.999Z</time></trkpt><trkpt lat="43.325707782093154" lon="11.395373506277117"><ele>250.8</ele><time>2026-04-11T09:03:09.999Z</time></trkpt><trkpt lat="43.32570378604136" lon="11.395241263193322"><ele>251.2</ele><time>2026-04-11T09:03:11.999Z</time></trkpt><trkpt lat="43.32568543615649" lon="11.395112085543575"><ele>251.6</ele><time>2026-04-11T09:03:13.999Z</time></trkpt><trkpt lat="43.325700171147986" lon="11.394989570319586"><ele>252.0</ele><time>2026-04-11T09:03:15.999Z</time></trkpt><trkpt lat="43.325694739542996" lon="11.394879282896044"><ele>252.0</ele><time>2026-04-11T09:03:17.999Z</time></trkpt><trkpt lat="43.32569427152191" lon="11.394764466370065"><ele>252.0</ele><time>2026-04-11T09:03:19.999Z</time></trkpt><trkpt lat="43.32568247342042" lon="11.394644913210552"><ele>252.0</ele><time>2026-04-11T09:03:21.999Z</time></trkpt><trkpt lat="43.32566947869502" lon="11.394532323454774"><ele>252.0</ele><time>2026-04-11T09:03:23.999Z</time></trkpt><trkpt lat="43.32565010602377" lon="11.394417555082205"><ele>252.0</ele><time>2026-04-11T09:03:25.999Z</time></trkpt><trkpt lat="43.325624927190596" lon="11.39430707944728"><ele>252.0</ele><time>2026-04-11T09:03:27.999Z</time></trkpt><trkpt lat="43.32559331360622" lon="11.394195936747861"><ele>252.6</ele><time>2026-04-11T09:03:29.999Z</time></trkpt><trkpt lat="43.32555468248495" lon="11.394090384147546"><ele>253.2</ele><time>2026-04-11T09:03:31.999Z</time></trkpt><trkpt lat="43.32553066306966" lon="11.393971373669357"><ele>253.8</ele><time>2026-04-11T09:03:33.999Z</time></trkpt><trkpt lat="43.32549448320572" lon="11.393852070946902"><ele>254.4</ele><time>2026-04-11T09:03:35.999Z</time></trkpt><trkpt lat="43.32546202082978" lon="11.393733986099527"><ele>255.0</ele><time>2026-04-11T09:03:37.999Z</time></trkpt><trkpt lat="43.32542804936274" lon="11.393619964649533"><ele>255.83333333333334</ele><time>2026-04-11T09:03:39.999Z</time></trkpt><trkpt lat="43.32538940268547" lon="11.393507453849413"><ele>256.6666666666667</ele><time>2026-04-11T09:03:42Z</time></trkpt><trkpt lat="43.325356842162186" lon="11.393396560284852"><ele>257.5</ele><time>2026-04-11T09:03:44Z</time></trkpt><trkpt lat="43.32532229780933" lon="11.393292378353093"><ele>258.33333333333337</ele><time>2026-04-11T09:03:46Z</time></trkpt><trkpt lat="43.325294419633096" lon="11.393197002951347"><ele>259.1666666666667</ele><time>2026-04-11T09:03:48Z</time></trkpt><trkpt lat="43.3252684711583" lon="11.393096515645086"><ele>260.0</ele><time>2026-04-11T09:03:50Z</time></trkpt><trkpt lat="43.32524054168482" lon="11.392999277135763"><ele>260.5714285714286</ele><time>2026-04-11T09:03:52Z</time></trkpt><trkpt lat="43.325209844508365" lon="11.392906456470097"><ele>261.14285714285717</ele><time>2026-04-11T09:03:54Z</time></trkpt><trkpt lat="43.3251773977734" lon="11.392815383851067"><ele>261.7142857142857</ele><time>2026-04-11T09:03:56Z</time></trkpt><trkpt lat="43.32514746034597" lon="11.39272690803194"><ele>262.28571428571433</ele><time>2026-04-11T09:03:58Z</time></trkpt><trkpt lat="43.325113455118405" lon="11.392650972903404"><ele>262.8571428571429</ele><time>2026-04-11T09:04:00Z</time></trkpt><trkpt lat="43.32507194236145" lon="11.392578174271033"><ele>263.42857142857144</ele><time>2026-04-11T09:04:02Z</time></trkpt><trkpt lat="43.32500722315044" lon="11.392505562873694"><ele>264.0</ele><time>2026-04-11T09:04:05Z</time></trkpt><trkpt lat="43.324921599815994" lon="11.392484808264973"><ele>264.0</ele><time>2026-04-11T09:04:08Z</time></trkpt><trkpt lat="43.324832906272356" lon="11.392504703276469"><ele>264.0</ele><time>2026-04-11T09:04:11Z</time></trkpt><trkpt lat="43.32474360994423" lon="11.392519721725671"><ele>264.0</ele><time>2026-04-11T09:04:14Z</time></trkpt><trkpt lat="43.3246616547527" lon="11.392527030436044"><ele>264.0</ele><time>2026-04-11T09:04:17Z</time></trkpt><trkpt lat="43.32458572963349" lon="11.392537099152252"><ele>264.0</ele><time>2026-04-11T09:04:20Z</time></trkpt><trkpt lat="43.32449792664561" lon="11.392520694827114"><ele>264.0</ele><time>2026-04-11T09:04:23Z</time></trkpt><trkpt lat="43.32443035047617" lon="11.392515023659946"><ele>264.2</ele><time>2026-04-11T09:04:25Z</time></trkpt><trkpt lat="43.32435325908201" lon="11.392489720424058"><ele>264.4</ele><time>2026-04-11T09:04:27Z</time></trkpt><trkpt lat="43.3242787583597" lon="11.392433328952928"><ele>264.6</ele><time>2026-04-11T09:04:29Z</time></trkpt><trkpt lat="43.32419835463841" lon="11.392376280361974"><ele>264.8</ele><time>2026-04-11T09:04:31Z</time></trkpt><trkpt lat="43.32410244604145" lon="11.392340492866104"><ele>265.0</ele><time>2026-04-11T09:04:33Z</time></trkpt><trkpt lat="43.323993278512" lon="11.3923175727129"><ele>264.8</ele><time>2026-04-11T09:04:35Z</time></trkpt><trkpt lat="43.32387588654156" lon="11.392286583122415"><ele>264.6</ele><time>2026-04-11T09:04:37Z</time></trkpt><trkpt lat="43.32381185244149" lon="11.39227255352823"><ele>264.4</ele><time>2026-04-11T09:04:38Z</time></trkpt><trkpt lat="43.32369133451188" lon="11.39224180542404"><ele>264.2</ele><time>2026-04-11T09:04:40Z</time></trkpt><trkpt lat="43.32358008184698" lon="11.392207201116538"><ele>264.0</ele><time>2026-04-11T09:04:42Z</time></trkpt><trkpt lat="43.32350593105106" lon="11.392200517242483"><ele>262.59999999999997</ele><time>2026-04-11T09:04:43Z</time></trkpt><trkpt lat="43.323384924170824" lon="11.392162768968353"><ele>261.2</ele><time>2026-04-11T09:04:45Z</time></trkpt><trkpt lat="43.323272279901055" lon="11.392154563099162"><ele>259.79999999999995</ele><time>2026-04-11T09:04:46.999Z</time></trkpt><trkpt lat="43.3231488187881" lon="11.392129965823026"><ele>258.4</ele><time>2026-04-11T09:04:48.999Z</time></trkpt><trkpt lat="43.323086862628315" lon="11.392109841772633"><ele>257.0</ele><time>2026-04-11T09:04:49.999Z</time></trkpt><trkpt lat="43.3229644416293" lon="11.392075187545291"><ele>257.0</ele><time>2026-04-11T09:04:51.999Z</time></trkpt><trkpt lat="43.322839375457704" lon="11.392041804533733"><ele>257.0</ele><time>2026-04-11T09:04:53.999Z</time></trkpt><trkpt lat="43.322770932840996" lon="11.392036542896147"><ele>257.0</ele><time>2026-04-11T09:04:54.999Z</time></trkpt><trkpt lat="43.32270652696433" lon="11.392018044436073"><ele>257.0</ele><time>2026-04-11T09:04:55.999Z</time></trkpt><trkpt lat="43.322635870310926" lon="11.391973949793972"><ele>257.0</ele><time>2026-04-11T09:04:56.999Z</time></trkpt><trkpt lat="43.322562482529875" lon="11.391952020550082"><ele>257.0</ele><time>2026-04-11T09:04:57.999Z</time></trkpt><trkpt lat="43.322485916828654" lon="11.391950351096531"><ele>257.0</ele><time>2026-04-11T09:04:58.999Z</time></trkpt><trkpt lat="43.32240844151256" lon="11.391928705321876"><ele>257.0</ele><time>2026-04-11T09:04:59.999Z</time></trkpt><trkpt lat="43.322331464350675" lon="11.391907086207848"><ele>257.0</ele><time>2026-04-11T09:05:00.999Z</time></trkpt><trkpt lat="43.322250079936516" lon="11.391877920246628"><ele>257.0</ele><time>2026-04-11T09:05:01.999Z</time></trkpt><trkpt lat="43.32216846510929" lon="11.391852604286983"><ele>257.0</ele><time>2026-04-11T09:05:02.999Z</time></trkpt><trkpt lat="43.32207539641547" lon="11.391815094907551"><ele>257.0</ele><time>2026-04-11T09:05:03.999Z</time></trkpt><trkpt lat="43.32198194192104" lon="11.391792209850085"><ele>256.2</ele><time>2026-04-11T09:05:04.999Z</time></trkpt><trkpt lat="43.32189016220854" lon="11.39177515715636"><ele>255.39999999999998</ele><time>2026-04-11T09:05:05.999Z</time></trkpt><trkpt lat="43.32179594844291" lon="11.391749996613202"><ele>254.60000000000002</ele><time>2026-04-11T09:05:06.999Z</time></trkpt><trkpt lat="43.32171134251288" lon="11.391725556924385"><ele>253.8</ele><time>2026-04-11T09:05:07.999Z</time></trkpt><trkpt lat="43.32161932261218" lon="11.39169353704166"><ele>253.0</ele><time>2026-04-11T09:05:08.999Z</time></trkpt><trkpt lat="43.321537519697266" lon="11.39163951467154"><ele>253.0</ele><time>2026-04-11T09:05:09.999Z</time></trkpt><trkpt lat="43.32144007298588" lon="11.391578295956979"><ele>253.0</ele><time>2026-04-11T09:05:10.999Z</time></trkpt><trkpt lat="43.32135680374324" lon="11.391520195803823"><ele>253.0</ele><time>2026-04-11T09:05:11.999Z</time></trkpt><trkpt lat="43.32128397357522" lon="11.391467363089971"><ele>253.0</ele><time>2026-04-11T09:05:12.999Z</time></trkpt><trkpt lat="43.3212035567708" lon="11.391408563184084"><ele>253.0</ele><time>2026-04-11T09:05:13.999Z</time></trkpt><trkpt lat="43.32112685696957" lon="11.391353499440976"><ele>251.99999999999997</ele><time>2026-04-11T09:05:14.999Z</time></trkpt><trkpt lat="43.32104537467191" lon="11.391296555922715"><ele>251.0</ele><time>2026-04-11T09:05:15.999Z</time></trkpt><trkpt lat="43.32096916463517" lon="11.39124467582616"><ele>250.0</ele><time>2026-04-11T09:05:16.999Z</time></trkpt><trkpt lat="43.32088953252242" lon="11.3911904668628"><ele>249.0</ele><time>2026-04-11T09:05:17.999Z</time></trkpt><trkpt lat="43.320816360836" lon="11.391140655493821"><ele>247.99999999999997</ele><time>2026-04-11T09:05:18.999Z</time></trkpt><trkpt lat="43.32074603557866" lon="11.391092781816594"><ele>247.0</ele><time>2026-04-11T09:05:19.999Z</time></trkpt><trkpt lat="43.3206644178671" lon="11.39106516339518"><ele>247.0</ele><time>2026-04-11T09:05:20.999Z</time></trkpt><trkpt lat="43.32059248922066" lon="11.39101577069162"><ele>247.0</ele><time>2026-04-11T09:05:21.999Z</time></trkpt><trkpt lat="43.32052149214577" lon="11.390986548090797"><ele>247.0</ele><time>2026-04-11T09:05:22.999Z</time></trkpt><trkpt lat="43.320449207846536" lon="11.39095756184071"><ele>247.0</ele><time>2026-04-11T09:05:23.999Z</time></trkpt><trkpt lat="43.320380294359985" lon="11.390934868152506"><ele>247.0</ele><time>2026-04-11T09:05:24.999Z</time></trkpt><trkpt lat="43.32031087391097" lon="11.390927267172259"><ele>247.0</ele><time>2026-04-11T09:05:25.999Z</time></trkpt><trkpt lat="43.3202472725186" lon="11.39091014432008"><ele>247.0</ele><time>2026-04-11T09:05:26.999Z</time></trkpt><trkpt lat="43.32017926730872" lon="11.390886391760551"><ele>246.99999999999997</ele><time>2026-04-11T09:05:27.999Z</time></trkpt><trkpt lat="43.320122936223676" lon="11.390826243678104"><ele>247.0</ele><time>2026-04-11T09:05:28.999Z</time></trkpt><trkpt lat="43.32010070111801" lon="11.390731529028425"><ele>247.0</ele><time>2026-04-11T09:05:29.999Z</time></trkpt><trkpt lat="43.32009003455972" lon="11.390626905771178"><ele>247.0</ele><time>2026-04-11T09:05:30.999Z</time></trkpt><trkpt lat="43.3200579165752" lon="11.390518162139905"><ele>246.99999999999997</ele><time>2026-04-11T09:05:31.999Z</time></trkpt><trkpt lat="43.3200540392153" lon="11.390403847530436"><ele>247.0</ele><time>2026-04-11T09:05:32.999Z</time></trkpt><trkpt lat="43.320037889145254" lon="11.39029184444943"><ele>246.99999999999997</ele><time>2026-04-11T09:05:33.999Z</time></trkpt><trkpt lat="43.320011248637165" lon="11.390178991727492"><ele>247.0</ele><time>2026-04-11T09:05:34.999Z</time></trkpt><trkpt lat="43.31998848602407" lon="11.390063279956657"><ele>247.0</ele><time>2026-04-11T09:05:35.999Z</time></trkpt><trkpt lat="43.3199699691271" lon="11.389950307318303"><ele>247.0</ele><time>2026-04-11T09:05:36.999Z</time></trkpt><trkpt lat="43.31994785230026" lon="11.389836976563052"><ele>246.99999999999997</ele><time>2026-04-11T09:05:37.999Z</time></trkpt><trkpt lat="43.319920707518776" lon="11.389721756950312"><ele>247.0</ele><time>2026-04-11T09:05:38.999Z</time></trkpt><trkpt lat="43.319883633140314" lon="11.389609146822472"><ele>246.2</ele><time>2026-04-11T09:05:39.999Z</time></trkpt><trkpt lat="43.31984931760156" lon="11.389498381557294"><ele>245.39999999999998</ele><time>2026-04-11T09:05:40.999Z</time></trkpt><trkpt lat="43.319814678202036" lon="11.389382407504723"><ele>244.60000000000002</ele><time>2026-04-11T09:05:41.999Z</time></trkpt><trkpt lat="43.31978202056408" lon="11.389260027289904"><ele>243.8</ele><time>2026-04-11T09:05:42.999Z</time></trkpt><trkpt lat="43.3197528721185" lon="11.389134813955131"><ele>243.0</ele><time>2026-04-11T09:05:43.999Z</time></trkpt><trkpt lat="43.31972063272099" lon="11.389006873177998"><ele>241.2</ele><time>2026-04-11T09:05:44.999Z</time></trkpt><trkpt lat="43.319689015657815" lon="11.388874885603387"><ele>239.4</ele><time>2026-04-11T09:05:45.999Z</time></trkpt><trkpt lat="43.31966257137626" lon="11.388740595100245"><ele>237.59999999999997</ele><time>2026-04-11T09:05:46.999Z</time></trkpt><trkpt lat="43.31963308884423" lon="11.388602861733442"><ele>235.79999999999998</ele><time>2026-04-11T09:05:48Z</time></trkpt><trkpt lat="43.319604750347715" lon="11.388462099207329"><ele>234.0</ele><time>2026-04-11T09:05:49Z</time></trkpt><trkpt lat="43.31958255704649" lon="11.38832184173106"><ele>233.0</ele><time>2026-04-11T09:05:50Z</time></trkpt><trkpt lat="43.31955432569971" lon="11.388180976952814"><ele>231.99999999999997</ele><time>2026-04-11T09:05:51Z</time></trkpt><trkpt lat="43.31952544412741" lon="11.388042611161083"><ele>230.99999999999997</ele><time>2026-04-11T09:05:52Z</time></trkpt><trkpt lat="43.31949994385204" lon="11.387903234051103"><ele>230.0</ele><time>2026-04-11T09:05:53Z</time></trkpt><trkpt lat="43.31947810761208" lon="11.387773653384214"><ele>229.0</ele><time>2026-04-11T09:05:54Z</time></trkpt><trkpt lat="43.31945765766683" lon="11.38765846186099"><ele>228.99999999999997</ele><time>2026-04-11T09:05:55Z</time></trkpt><trkpt lat="43.31942220258224" lon="11.387553558998988"><ele>229.0</ele><time>2026-04-11T09:05:56Z</time></trkpt><trkpt lat="43.31936003710355" lon="11.387470624669092"><ele>229.0</ele><time>2026-04-11T09:05:57Z</time></trkpt><trkpt lat="43.319274777718206" lon="11.38741145384991"><ele>229.0</ele><time>2026-04-11T09:05:58Z</time></trkpt><trkpt lat="43.31918453954339" lon="11.387371038885203"><ele>228.99999999999997</ele><time>2026-04-11T09:05:59Z</time></trkpt><trkpt lat="43.3191061803343" lon="11.38733242709404"><ele>229.0</ele><time>2026-04-11T09:06:00Z</time></trkpt><trkpt lat="43.31904912631006" lon="11.387266026385488"><ele>228.66666666666666</ele><time>2026-04-11T09:06:01Z</time></trkpt><trkpt lat="43.31901269382049" lon="11.387166423440892"><ele>228.33333333333331</ele><time>2026-04-11T09:06:02Z</time></trkpt><trkpt lat="43.31902755790323" lon="11.387049652734838"><ele>228.0</ele><time>2026-04-11T09:06:03Z</time></trkpt><trkpt lat="43.31903008996542" lon="11.386931890536689"><ele>227.66666666666669</ele><time>2026-04-11T09:06:04Z</time></trkpt><trkpt lat="43.31906108955714" lon="11.386826702852437"><ele>227.33333333333334</ele><time>2026-04-11T09:06:05Z</time></trkpt><trkpt lat="43.31909041493435" lon="11.386717308781392"><ele>227.0</ele><time>2026-04-11T09:06:06Z</time></trkpt><trkpt lat="43.31913646755875" lon="11.386615112457614"><ele>227.00000000000003</ele><time>2026-04-11T09:06:07Z</time></trkpt><trkpt lat="43.31919339656004" lon="11.386528357064474"><ele>227.0</ele><time>2026-04-11T09:06:08Z</time></trkpt><trkpt lat="43.31926238695794" lon="11.38646690093412"><ele>227.0</ele><time>2026-04-11T09:06:09Z</time></trkpt><trkpt lat="43.319345142504666" lon="11.386407651915171"><ele>227.0</ele><time>2026-04-11T09:06:10Z</time></trkpt><trkpt lat="43.31942733819367" lon="11.386359450163628"><ele>227.00000000000003</ele><time>2026-04-11T09:06:11Z</time></trkpt><trkpt lat="43.319513425740936" lon="11.386311773956463"><ele>227.0</ele><time>2026-04-11T09:06:12Z</time></trkpt><trkpt lat="43.31959768161166" lon="11.386265822414515"><ele>226.33333333333334</ele><time>2026-04-11T09:06:13Z</time></trkpt><trkpt lat="43.31968593712053" lon="11.386218999177126"><ele>225.66666666666669</ele><time>2026-04-11T09:06:14Z</time></trkpt><trkpt lat="43.31977717769654" lon="11.386173648606658"><ele>225.0</ele><time>2026-04-11T09:06:15Z</time></trkpt><trkpt lat="43.3198575188412" lon="11.386131949584941"><ele>224.33333333333331</ele><time>2026-04-11T09:06:16Z</time></trkpt><trkpt lat="43.31992958899529" lon="11.386089628621454"><ele>223.66666666666666</ele><time>2026-04-11T09:06:17Z</time></trkpt><trkpt lat="43.319998556255406" lon="11.386018484825154"><ele>223.0</ele><time>2026-04-11T09:06:18Z</time></trkpt><trkpt lat="43.32005402081517" lon="11.385921242112515"><ele>222.8</ele><time>2026-04-11T09:06:19Z</time></trkpt><trkpt lat="43.32009689192868" lon="11.385808482184983"><ele>222.60000000000002</ele><time>2026-04-11T09:06:20Z</time></trkpt><trkpt lat="43.3201244923534" lon="11.385684266565987"><ele>222.39999999999998</ele><time>2026-04-11T09:06:21Z</time></trkpt><trkpt lat="43.32012468659035" lon="11.385551667595978"><ele>222.2</ele><time>2026-04-11T09:06:22Z</time></trkpt><trkpt lat="43.320115928633676" lon="11.385413674212488"><ele>222.0</ele><time>2026-04-11T09:06:23Z</time></trkpt><trkpt lat="43.32010792386305" lon="11.38527074506428"><ele>221.0</ele><time>2026-04-11T09:06:24Z</time></trkpt><trkpt lat="43.320111079572015" lon="11.385131927700064"><ele>220.0</ele><time>2026-04-11T09:06:25Z</time></trkpt><trkpt lat="43.32015677347685" lon="11.384997613832818"><ele>219.0</ele><time>2026-04-11T09:06:26Z</time></trkpt><trkpt lat="43.32019740983426" lon="11.384861461112948"><ele>218.0</ele><time>2026-04-11T09:06:27Z</time></trkpt><trkpt lat="43.320255779888306" lon="11.384740216709096"><ele>217.0</ele><time>2026-04-11T09:06:28Z</time></trkpt><trkpt lat="43.32036350635205" lon="11.384647241131818"><ele>216.0</ele><time>2026-04-11T09:06:29Z</time></trkpt><trkpt lat="43.32045284148514" lon="11.384545039942099"><ele>215.0</ele><time>2026-04-11T09:06:30Z</time></trkpt><trkpt lat="43.32054519253415" lon="11.384437800133176"><ele>214.0</ele><time>2026-04-11T09:06:31Z</time></trkpt><trkpt lat="43.320629534708225" lon="11.384339860479212"><ele>213.0</ele><time>2026-04-11T09:06:32Z</time></trkpt><trkpt lat="43.320701417116084" lon="11.384237189333787"><ele>212.4</ele><time>2026-04-11T09:06:33Z</time></trkpt><trkpt lat="43.320743970706694" lon="11.384121409169882"><ele>211.8</ele><time>2026-04-11T09:06:34Z</time></trkpt><trkpt lat="43.32077218510335" lon="11.384007945535974"><ele>211.2</ele><time>2026-04-11T09:06:35Z</time></trkpt><trkpt lat="43.32077641373174" lon="11.383879583442232"><ele>210.6</ele><time>2026-04-11T09:06:36Z</time></trkpt><trkpt lat="43.320763364644854" lon="11.383758514537368"><ele>210.0</ele><time>2026-04-11T09:06:37Z</time></trkpt><trkpt lat="43.32073938093604" lon="11.383633560420751"><ele>208.4</ele><time>2026-04-11T09:06:38Z</time></trkpt><trkpt lat="43.32069549018619" lon="11.383516331274805"><ele>206.8</ele><time>2026-04-11T09:06:39Z</time></trkpt><trkpt lat="43.32065574453397" lon="11.383393751614053"><ele>205.2</ele><time>2026-04-11T09:06:40Z</time></trkpt><trkpt lat="43.32063395080408" lon="11.383266167863038"><ele>203.6</ele><time>2026-04-11T09:06:41Z</time></trkpt><trkpt lat="43.320605883211954" lon="11.38313462014817"><ele>202.0</ele><time>2026-04-11T09:06:42Z</time></trkpt><trkpt lat="43.320593959982936" lon="11.38299327706683"><ele>201.39999999999998</ele><time>2026-04-11T09:06:43Z</time></trkpt><trkpt lat="43.32059140774301" lon="11.382853682349868"><ele>200.79999999999998</ele><time>2026-04-11T09:06:44Z</time></trkpt><trkpt lat="43.32057867905259" lon="11.382713457928563"><ele>200.2</ele><time>2026-04-11T09:06:45Z</time></trkpt><trkpt lat="43.32056090035706" lon="11.382567869435743"><ele>199.6</ele><time>2026-04-11T09:06:46Z</time></trkpt><trkpt lat="43.320539446047235" lon="11.382429825047545"><ele>199.0</ele><time>2026-04-11T09:06:47Z</time></trkpt><trkpt lat="43.32051294053197" lon="11.382294375004216"><ele>198.79999999999998</ele><time>2026-04-11T09:06:48Z</time></trkpt><trkpt lat="43.320491779084676" lon="11.382158277386747"><ele>198.6</ele><time>2026-04-11T09:06:49Z</time></trkpt><trkpt lat="43.32046955616161" lon="11.382018497240349"><ele>198.4</ele><time>2026-04-11T09:06:50Z</time></trkpt><trkpt lat="43.32044826488163" lon="11.381890795946962"><ele>198.2</ele><time>2026-04-11T09:06:51Z</time></trkpt><trkpt lat="43.320426812490155" lon="11.381760197419302"><ele>198.0</ele><time>2026-04-11T09:06:52Z</time></trkpt><trkpt lat="43.320409003878446" lon="11.381634457333883"><ele>198.0</ele><time>2026-04-11T09:06:53Z</time></trkpt><trkpt lat="43.32038278616971" lon="11.381511947955802"><ele>198.0</ele><time>2026-04-11T09:06:54Z</time></trkpt><trkpt lat="43.32035753129154" lon="11.381388261152933"><ele>198.0</ele><time>2026-04-11T09:06:55Z</time></trkpt><trkpt lat="43.3203375300973" lon="11.381263945385628"><ele>198.0</ele><time>2026-04-11T09:06:56Z</time></trkpt><trkpt lat="43.32032326260563" lon="11.38114033330101"><ele>198.0</ele><time>2026-04-11T09:06:57Z</time></trkpt><trkpt lat="43.32031547841556" lon="11.381025611811992"><ele>197.83333333333334</ele><time>2026-04-11T09:06:58Z</time></trkpt><trkpt lat="43.32030847093264" lon="11.38090401197026"><ele>197.66666666666669</ele><time>2026-04-11T09:06:59Z</time></trkpt><trkpt lat="43.32030892752418" lon="11.3807810589842"><ele>197.5</ele><time>2026-04-11T09:07:00Z</time></trkpt><trkpt lat="43.32033629448053" lon="11.380672315413834"><ele>197.33333333333334</ele><time>2026-04-11T09:07:01Z</time></trkpt><trkpt lat="43.3203401029753" lon="11.380559030825586"><ele>197.16666666666669</ele><time>2026-04-11T09:07:02Z</time></trkpt><trkpt lat="43.32035658151325" lon="11.380453188314073"><ele>197.0</ele><time>2026-04-11T09:07:03Z</time></trkpt><trkpt lat="43.32036989918848" lon="11.380347210217074"><ele>197.00000000000003</ele><time>2026-04-11T09:07:03.999Z</time></trkpt><trkpt lat="43.32038351908194" lon="11.38024725854047"><ele>197.0</ele><time>2026-04-11T09:07:04.999Z</time></trkpt><trkpt lat="43.32039402803388" lon="11.380150755284124"><ele>197.0</ele><time>2026-04-11T09:07:05.999Z</time></trkpt><trkpt lat="43.32042214668943" lon="11.380062752590222"><ele>197.0</ele><time>2026-04-11T09:07:06.999Z</time></trkpt><trkpt lat="43.320434331798204" lon="11.37996971149332"><ele>197.00000000000003</ele><time>2026-04-11T09:07:07.999Z</time></trkpt><trkpt lat="43.32045583396499" lon="11.379806236692332"><ele>197.0</ele><time>2026-04-11T09:07:09.999Z</time></trkpt><trkpt lat="43.320476814763055" lon="11.379639497762037"><ele>197.33333333333334</ele><time>2026-04-11T09:07:11.999Z</time></trkpt><trkpt lat="43.32048767574585" lon="11.379553611489877"><ele>197.66666666666669</ele><time>2026-04-11T09:07:12.999Z</time></trkpt><trkpt lat="43.32050635321487" lon="11.379382657579715"><ele>198.0</ele><time>2026-04-11T09:07:14.999Z</time></trkpt><trkpt lat="43.3205132871592" lon="11.379295948050425"><ele>198.33333333333331</ele><time>2026-04-11T09:07:15.999Z</time></trkpt><trkpt lat="43.32052365647835" lon="11.379209924194482"><ele>198.66666666666666</ele><time>2026-04-11T09:07:16.999Z</time></trkpt><trkpt lat="43.320552910232564" lon="11.379045637986538"><ele>199.0</ele><time>2026-04-11T09:07:18.999Z</time></trkpt><trkpt lat="43.32057507219128" lon="11.37887682593842"><ele>200.16666666666666</ele><time>2026-04-11T09:07:20.999Z</time></trkpt><trkpt lat="43.32056951394564" lon="11.378788250184305"><ele>201.33333333333331</ele><time>2026-04-11T09:07:21.999Z</time></trkpt><trkpt lat="43.320579602863255" lon="11.378701696844203"><ele>202.5</ele><time>2026-04-11T09:07:22.999Z</time></trkpt><trkpt lat="43.32058970938109" lon="11.378529280639222"><ele>203.66666666666669</ele><time>2026-04-11T09:07:24.999Z</time></trkpt><trkpt lat="43.32059171553392" lon="11.37843604986339"><ele>204.83333333333334</ele><time>2026-04-11T09:07:25.999Z</time></trkpt><trkpt lat="43.32058914609331" lon="11.378347847373014"><ele>206.0</ele><time>2026-04-11T09:07:26.999Z</time></trkpt><trkpt lat="43.32058507960404" lon="11.378260066118566"><ele>206.0</ele><time>2026-04-11T09:07:27.999Z</time></trkpt><trkpt lat="43.32057589112596" lon="11.378172763407463"><ele>206.0</ele><time>2026-04-11T09:07:28.999Z</time></trkpt><trkpt lat="43.32056093501523" lon="11.378083840435375"><ele>206.0</ele><time>2026-04-11T09:07:29.999Z</time></trkpt><trkpt lat="43.320546473555005" lon="11.377922336990009"><ele>206.0</ele><time>2026-04-11T09:07:31.999Z</time></trkpt><trkpt lat="43.320522711411954" lon="11.37775734901809"><ele>206.0</ele><time>2026-04-11T09:07:33.999Z</time></trkpt><trkpt lat="43.320505726377675" lon="11.377596333981494"><ele>208.0</ele><time>2026-04-11T09:07:35.999Z</time></trkpt><trkpt lat="43.320485042942266" lon="11.377443291394037"><ele>210.0</ele><time>2026-04-11T09:07:37.999Z</time></trkpt><trkpt lat="43.32046001986544" lon="11.377289470281138"><ele>212.0</ele><time>2026-04-11T09:07:39.999Z</time></trkpt><trkpt lat="43.32043923983053" lon="11.37713076392374"><ele>214.0</ele><time>2026-04-11T09:07:41.999Z</time></trkpt><trkpt lat="43.32042561077995" lon="11.376980613395027"><ele>215.39999999999998</ele><time>2026-04-11T09:07:43.999Z</time></trkpt><trkpt lat="43.320423345974035" lon="11.376827588060381"><ele>216.79999999999998</ele><time>2026-04-11T09:07:45.999Z</time></trkpt><trkpt lat="43.32042444048338" lon="11.376678796359354"><ele>218.20000000000002</ele><time>2026-04-11T09:07:47.999Z</time></trkpt><trkpt lat="43.32044233225645" lon="11.376533198326012"><ele>219.60000000000002</ele><time>2026-04-11T09:07:49.999Z</time></trkpt><trkpt lat="43.32044863232521" lon="11.376390918330127"><ele>221.0</ele><time>2026-04-11T09:07:51.999Z</time></trkpt><trkpt lat="43.32046457872558" lon="11.376260461833548"><ele>221.00000000000003</ele><time>2026-04-11T09:07:54Z</time></trkpt><trkpt lat="43.32047716055485" lon="11.376149043349649"><ele>221.0</ele><time>2026-04-11T09:07:56Z</time></trkpt><trkpt lat="43.32048792758284" lon="11.376042055812386"><ele>221.0</ele><time>2026-04-11T09:07:58Z</time></trkpt><trkpt lat="43.32049314538995" lon="11.375921319292562"><ele>221.0</ele><time>2026-04-11T09:08:01Z</time></trkpt><trkpt lat="43.32048924479623" lon="11.375828272682043"><ele>221.00000000000003</ele><time>2026-04-11T09:08:04Z</time></trkpt><trkpt lat="43.32049078795732" lon="11.375720488417834"><ele>221.0</ele><time>2026-04-11T09:08:08Z</time></trkpt><trkpt lat="43.320499457166754" lon="11.37561586962519"><ele>220.71428571428572</ele><time>2026-04-11T09:08:12Z</time></trkpt><trkpt lat="43.32047607826582" lon="11.375513508811892"><ele>220.42857142857144</ele><time>2026-04-11T09:08:16Z</time></trkpt><trkpt lat="43.320445759401615" lon="11.375434130289344"><ele>220.14285714285717</ele><time>2026-04-11T09:08:20Z</time></trkpt><trkpt lat="43.32040073389854" lon="11.375369730547558"><ele>219.85714285714286</ele><time>2026-04-11T09:08:23Z</time></trkpt><trkpt lat="43.32034518953801" lon="11.375303789966388"><ele>219.57142857142856</ele><time>2026-04-11T09:08:28Z</time></trkpt><trkpt lat="43.32029783612767" lon="11.375243258593837"><ele>219.2857142857143</ele><time>2026-04-11T09:08:32Z</time></trkpt><trkpt lat="43.320247112185676" lon="11.375184538111728"><ele>219.0</ele><time>2026-04-11T09:08:36Z</time></trkpt><trkpt lat="43.320211826759625" lon="11.375094285316338"><ele>219.0</ele><time>2026-04-11T09:08:41Z</time></trkpt><trkpt lat="43.32019406897176" lon="11.375007894565101"><ele>219.0</ele><time>2026-04-11T09:08:45Z</time></trkpt><trkpt lat="43.32020006543049" lon="11.374917321216925"><ele>219.0</ele><time>2026-04-11T09:08:49Z</time></trkpt><trkpt lat="43.320221853716255" lon="11.374822334857988"><ele>219.0</ele><time>2026-04-11T09:08:53Z</time></trkpt><trkpt lat="43.320267491718745" lon="11.374734864939633"><ele>219.0</ele><time>2026-04-11T09:08:57Z</time></trkpt><trkpt lat="43.32028385420351" lon="11.374639190918431"><ele>219.0</ele><time>2026-04-11T09:09:01Z</time></trkpt><trkpt lat="43.32030719383759" lon="11.374546573349209"><ele>219.0</ele><time>2026-04-11T09:09:04.999Z</time></trkpt><trkpt lat="43.3203320420579" lon="11.374449350780871"><ele>219.2857142857143</ele><time>2026-04-11T09:09:08.999Z</time></trkpt><trkpt lat="43.320350994625734" lon="11.374348202565141"><ele>219.57142857142856</ele><time>2026-04-11T09:09:12.999Z</time></trkpt><trkpt lat="43.32037160396178" lon="11.37424798204746"><ele>219.85714285714286</ele><time>2026-04-11T09:09:16.999Z</time></trkpt><trkpt lat="43.32039599278352" lon="11.374146190314542"><ele>220.14285714285717</ele><time>2026-04-11T09:09:20.999Z</time></trkpt><trkpt lat="43.32042377695759" lon="11.374050616760137"><ele>220.42857142857144</ele><time>2026-04-11T09:09:24.999Z</time></trkpt><trkpt lat="43.32045583570379" lon="11.373960409404756"><ele>220.71428571428572</ele><time>2026-04-11T09:09:28.999Z</time></trkpt><trkpt lat="43.32048121203028" lon="11.373869820533963"><ele>221.0</ele><time>2026-04-11T09:09:32.999Z</time></trkpt><trkpt lat="43.320499038265446" lon="11.373769080791213"><ele>221.8571428571429</ele><time>2026-04-11T09:09:36.999Z</time></trkpt><trkpt lat="43.3205315473072" lon="11.373680613743861"><ele>222.71428571428572</ele><time>2026-04-11T09:09:40.999Z</time></trkpt><trkpt lat="43.32057071436921" lon="11.37358902181678"><ele>223.57142857142858</ele><time>2026-04-11T09:09:45.999Z</time></trkpt><trkpt lat="43.32060493032503" lon="11.373502389999167"><ele>224.42857142857144</ele><time>2026-04-11T09:09:50.999Z</time></trkpt><trkpt lat="43.32064553212812" lon="11.373422658953693"><ele>225.2857142857143</ele><time>2026-04-11T09:09:55.999Z</time></trkpt><trkpt lat="43.32068806336192" lon="11.373347831534844"><ele>226.14285714285717</ele><time>2026-04-11T09:10:01Z</time></trkpt><trkpt lat="43.32073173180467" lon="11.373271642008696"><ele>227.0</ele><time>2026-04-11T09:10:06Z</time></trkpt><trkpt lat="43.320773219822726" lon="11.373188613404569"><ele>227.2857142857143</ele><time>2026-04-11T09:10:11Z</time></trkpt><trkpt lat="43.320814482675175" lon="11.373112594087035"><ele>227.5714285714286</ele><time>2026-04-11T09:10:15Z</time></trkpt><trkpt lat="43.32085449434181" lon="11.373033016046504"><ele>227.85714285714286</ele><time>2026-04-11T09:10:19Z</time></trkpt><trkpt lat="43.320897731134046" lon="11.37295851371212"><ele>228.14285714285717</ele><time>2026-04-11T09:10:23Z</time></trkpt><trkpt lat="43.32093947035402" lon="11.37288223787676"><ele>228.42857142857144</ele><time>2026-04-11T09:10:27Z</time></trkpt><trkpt lat="43.32097237012707" lon="11.372787034085725"><ele>228.71428571428572</ele><time>2026-04-11T09:10:31Z</time></trkpt><trkpt lat="43.32099987994813" lon="11.372709157193125"><ele>229.0</ele><time>2026-04-11T09:10:34Z</time></trkpt><trkpt lat="43.32101597434872" lon="11.372623354263656"><ele>230.28571428571428</ele><time>2026-04-11T09:10:37Z</time></trkpt><trkpt lat="43.321030782149684" lon="11.37253611912289"><ele>231.57142857142858</ele><time>2026-04-11T09:10:40Z</time></trkpt><trkpt lat="43.32104972188105" lon="11.372431798197349"><ele>232.85714285714286</ele><time>2026-04-11T09:10:44Z</time></trkpt><trkpt lat="43.32106379332821" lon="11.37234680352138"><ele>234.14285714285714</ele><time>2026-04-11T09:10:47Z</time></trkpt><trkpt lat="43.32107806386849" lon="11.372243539895807"><ele>235.42857142857144</ele><time>2026-04-11T09:10:51Z</time></trkpt><trkpt lat="43.32108539687266" lon="11.372134979123983"><ele>236.71428571428572</ele><time>2026-04-11T09:10:55Z</time></trkpt><trkpt lat="43.32110343183348" lon="11.372034824474492"><ele>238.0</ele><time>2026-04-11T09:10:59Z</time></trkpt><trkpt lat="43.321117811091945" lon="11.371937479091184"><ele>239.49999999999997</ele><time>2026-04-11T09:11:03Z</time></trkpt><trkpt lat="43.321138146273455" lon="11.371832624369087"><ele>241.0</ele><time>2026-04-11T09:11:07Z</time></trkpt><trkpt lat="43.32114950586088" lon="11.371710521574192"><ele>242.5</ele><time>2026-04-11T09:11:11Z</time></trkpt><trkpt lat="43.32117336021551" lon="11.37162535645106"><ele>244.0</ele><time>2026-04-11T09:11:14Z</time></trkpt><trkpt lat="43.321188068529494" lon="11.371516488336727"><ele>245.49999999999997</ele><time>2026-04-11T09:11:16.999Z</time></trkpt><trkpt lat="43.32119485048739" lon="11.371406093564365"><ele>247.0</ele><time>2026-04-11T09:11:19.999Z</time></trkpt><trkpt lat="43.32121365952858" lon="11.371299489850376"><ele>247.71428571428572</ele><time>2026-04-11T09:11:22.999Z</time></trkpt><trkpt lat="43.321216920347055" lon="11.371209789341814"><ele>248.42857142857142</ele><time>2026-04-11T09:11:25.999Z</time></trkpt><trkpt lat="43.32123067880196" lon="11.371108278743087"><ele>249.14285714285714</ele><time>2026-04-11T09:11:28.999Z</time></trkpt><trkpt lat="43.321259915384545" lon="11.371014964802491"><ele>249.85714285714286</ele><time>2026-04-11T09:11:31.999Z</time></trkpt><trkpt lat="43.321271651460826" lon="11.370921376062876"><ele>250.57142857142856</ele><time>2026-04-11T09:11:34.999Z</time></trkpt><trkpt lat="43.32130136372617" lon="11.370830755038149"><ele>251.28571428571428</ele><time>2026-04-11T09:11:37.999Z</time></trkpt><trkpt lat="43.32132811794871" lon="11.370743288370727"><ele>252.0</ele><time>2026-04-11T09:11:40.999Z</time></trkpt><trkpt lat="43.321357875393495" lon="11.370662028246441"><ele>252.0</ele><time>2026-04-11T09:11:43.999Z</time></trkpt><trkpt lat="43.32138300789539" lon="11.37057913877872"><ele>252.0</ele><time>2026-04-11T09:11:46.999Z</time></trkpt><trkpt lat="43.32142285499166" lon="11.370501135841991"><ele>252.0</ele><time>2026-04-11T09:11:49.999Z</time></trkpt><trkpt lat="43.32146740370653" lon="11.37039763550441"><ele>252.0</ele><time>2026-04-11T09:11:53.999Z</time></trkpt><trkpt lat="43.32150914436798" lon="11.370327060667718"><ele>252.0</ele><time>2026-04-11T09:11:56.999Z</time></trkpt><trkpt lat="43.32154669384353" lon="11.370255320482801"><ele>252.0</ele><time>2026-04-11T09:11:59.999Z</time></trkpt><trkpt lat="43.32158786143582" lon="11.370184392027953"><ele>252.0</ele><time>2026-04-11T09:12:02.999Z</time></trkpt><trkpt lat="43.32162411278756" lon="11.37011051224399"><ele>252.0</ele><time>2026-04-11T09:12:06Z</time></trkpt><trkpt lat="43.32166044957722" lon="11.370035210356082"><ele>252.0</ele><time>2026-04-11T09:12:09Z</time></trkpt><trkpt lat="43.32169851278573" lon="11.369962096618146"><ele>252.0</ele><time>2026-04-11T09:12:12Z</time></trkpt><trkpt lat="43.32173294714322" lon="11.369886533721681"><ele>252.0</ele><time>2026-04-11T09:12:15Z</time></trkpt><trkpt lat="43.32177459052969" lon="11.369820861350231"><ele>252.0</ele><time>2026-04-11T09:12:18Z</time></trkpt><trkpt lat="43.32180688988123" lon="11.369742669450329"><ele>252.0</ele><time>2026-04-11T09:12:21Z</time></trkpt><trkpt lat="43.32184068437613" lon="11.369666477546701"><ele>252.0</ele><time>2026-04-11T09:12:24Z</time></trkpt><trkpt lat="43.32187696816438" lon="11.36959165315239"><ele>253.28571428571428</ele><time>2026-04-11T09:12:27Z</time></trkpt><trkpt lat="43.321919060109686" lon="11.36951490648843"><ele>254.57142857142856</ele><time>2026-04-11T09:12:30Z</time></trkpt><trkpt lat="43.32195816001962" lon="11.369438637360357"><ele>255.85714285714286</ele><time>2026-04-11T09:12:33Z</time></trkpt><trkpt lat="43.3219963652866" lon="11.369365368454917"><ele>257.1428571428571</ele><time>2026-04-11T09:12:36Z</time></trkpt><trkpt lat="43.3220310596255" lon="11.369263378465954"><ele>258.42857142857144</ele><time>2026-04-11T09:12:40Z</time></trkpt><trkpt lat="43.322016196903725" lon="11.369149910131076"><ele>259.7142857142857</ele><time>2026-04-11T09:12:45Z</time></trkpt><trkpt lat="43.32194193614725" lon="11.369137623028234"><ele>261.0</ele><time>2026-04-11T09:12:49Z</time></trkpt><trkpt lat="43.3218640260142" lon="11.369146722134168"><ele>261.0</ele><time>2026-04-11T09:12:53Z</time></trkpt><trkpt lat="43.32179303176437" lon="11.369206959666343"><ele>261.0</ele><time>2026-04-11T09:12:57Z</time></trkpt><trkpt lat="43.32173592288645" lon="11.369256719828437"><ele>261.0</ele><time>2026-04-11T09:13:00Z</time></trkpt><trkpt lat="43.321679900232475" lon="11.36931396118044"><ele>261.0</ele><time>2026-04-11T09:13:03Z</time></trkpt><trkpt lat="43.321623848189674" lon="11.369361467775782"><ele>261.0</ele><time>2026-04-11T09:13:06Z</time></trkpt><trkpt lat="43.32156353031489" lon="11.369394242357341"><ele>261.0</ele><time>2026-04-11T09:13:09Z</time></trkpt><trkpt lat="43.32149601609994" lon="11.36940624749439"><ele>261.0</ele><time>2026-04-11T09:13:12Z</time></trkpt><trkpt lat="43.32140936013105" lon="11.369398208821954"><ele>261.2857142857143</ele><time>2026-04-11T09:13:15.999Z</time></trkpt><trkpt lat="43.32135113589421" lon="11.369333487174654"><ele>261.57142857142856</ele><time>2026-04-11T09:13:19.999Z</time></trkpt><trkpt lat="43.32129408753434" lon="11.36928426103937"><ele>261.85714285714283</ele><time>2026-04-11T09:13:22.999Z</time></trkpt><trkpt lat="43.32124049868944" lon="11.369223177257583"><ele>262.1428571428571</ele><time>2026-04-11T09:13:25.999Z</time></trkpt><trkpt lat="43.32119277857181" lon="11.369162373853467"><ele>262.4285714285714</ele><time>2026-04-11T09:13:28.999Z</time></trkpt><trkpt lat="43.3211396642298" lon="11.369109663940673"><ele>262.7142857142857</ele><time>2026-04-11T09:13:31.999Z</time></trkpt><trkpt lat="43.32108985005665" lon="11.369048306206812"><ele>263.0</ele><time>2026-04-11T09:13:34.999Z</time></trkpt><trkpt lat="43.321037980254175" lon="11.368991161324509"><ele>263.0</ele><time>2026-04-11T09:13:37.999Z</time></trkpt><trkpt lat="43.320980612073654" lon="11.36893764499475"><ele>263.0</ele><time>2026-04-11T09:13:40.999Z</time></trkpt><trkpt lat="43.32093746817989" lon="11.368840720265933"><ele>263.0</ele><time>2026-04-11T09:13:44.999Z</time></trkpt><trkpt lat="43.32094287117665" lon="11.368752439887785"><ele>263.0</ele><time>2026-04-11T09:13:47.999Z</time></trkpt><trkpt lat="43.32097924242488" lon="11.368648627169819"><ele>263.0</ele><time>2026-04-11T09:13:50.999Z</time></trkpt><trkpt lat="43.32100057853454" lon="11.368552283804297"><ele>263.0</ele><time>2026-04-11T09:13:53.999Z</time></trkpt><trkpt lat="43.321028384329615" lon="11.368433482939961"><ele>263.0</ele><time>2026-04-11T09:13:56.999Z</time></trkpt><trkpt lat="43.32104505175833" lon="11.368336831405152"><ele>263.0</ele><time>2026-04-11T09:13:59.999Z</time></trkpt><trkpt lat="43.32106676866784" lon="11.368243240383498"><ele>263.0</ele><time>2026-04-11T09:14:02.999Z</time></trkpt><trkpt lat="43.32107301738579" lon="11.368153217358623"><ele>263.0</ele><time>2026-04-11T09:14:05.999Z</time></trkpt><trkpt lat="43.32107486943618" lon="11.36804956866771"><ele>263.0</ele><time>2026-04-11T09:14:08.999Z</time></trkpt><trkpt lat="43.321067609041116" lon="11.36793363407812"><ele>263.0</ele><time>2026-04-11T09:14:12Z</time></trkpt><trkpt lat="43.321085465514855" lon="11.367829916749674"><ele>263.0</ele><time>2026-04-11T09:14:15Z</time></trkpt><trkpt lat="43.32109471982338" lon="11.367723284765077"><ele>263.6666666666667</ele><time>2026-04-11T09:14:18Z</time></trkpt><trkpt lat="43.32108251871509" lon="11.367627177414112"><ele>264.33333333333337</ele><time>2026-04-11T09:14:21Z</time></trkpt><trkpt lat="43.321106272505936" lon="11.36754689090001"><ele>265.0</ele><time>2026-04-11T09:14:23Z</time></trkpt><trkpt lat="43.3210952235465" lon="11.367422946892255"><ele>265.6666666666667</ele><time>2026-04-11T09:14:26Z</time></trkpt><trkpt lat="43.32109836323562" lon="11.367310534945139"><ele>266.3333333333333</ele><time>2026-04-11T09:14:29Z</time></trkpt><trkpt lat="43.3210967847796" lon="11.367195188495526"><ele>267.0</ele><time>2026-04-11T09:14:32Z</time></trkpt><trkpt lat="43.321113427693355" lon="11.36707563007736"><ele>267.6666666666667</ele><time>2026-04-11T09:14:35Z</time></trkpt><trkpt lat="43.32110985369685" lon="11.366977009703001"><ele>268.3333333333333</ele><time>2026-04-11T09:14:38Z</time></trkpt><trkpt lat="43.32111525639798" lon="11.366860115317328"><ele>269.0</ele><time>2026-04-11T09:14:41Z</time></trkpt><trkpt lat="43.32112618755467" lon="11.36673602816457"><ele>269.66666666666663</ele><time>2026-04-11T09:14:44Z</time></trkpt><trkpt lat="43.32109741101621" lon="11.366620487632533"><ele>270.3333333333333</ele><time>2026-04-11T09:14:47Z</time></trkpt><trkpt lat="43.32107620150561" lon="11.366538767985134"><ele>271.0</ele><time>2026-04-11T09:14:49Z</time></trkpt><trkpt lat="43.32108055120185" lon="11.366424548957328"><ele>271.0</ele><time>2026-04-11T09:14:52Z</time></trkpt><trkpt lat="43.32106945399127" lon="11.366300345289005"><ele>271.0</ele><time>2026-04-11T09:14:55Z</time></trkpt><trkpt lat="43.32105022384912" lon="11.3661723156758"><ele>271.0</ele><time>2026-04-11T09:14:58Z</time></trkpt><trkpt lat="43.32104076350033" lon="11.366083607619956"><ele>271.0</ele><time>2026-04-11T09:15:00Z</time></trkpt><trkpt lat="43.321032455011675" lon="11.365984138587116"><ele>271.0</ele><time>2026-04-11T09:15:02Z</time></trkpt><trkpt lat="43.32100394504686" lon="11.365862140190297"><ele>271.0</ele><time>2026-04-11T09:15:04Z</time></trkpt><trkpt lat="43.32097668518793" lon="11.365733258233199"><ele>271.0</ele><time>2026-04-11T09:15:06Z</time></trkpt><trkpt lat="43.32092969506884" lon="11.365589033180969"><ele>271.0</ele><time>2026-04-11T09:15:08Z</time></trkpt><trkpt lat="43.3208805769569" lon="11.365453552390525"><ele>271.0</ele><time>2026-04-11T09:15:10Z</time></trkpt><trkpt lat="43.32083138936051" lon="11.365312332703079"><ele>271.0</ele><time>2026-04-11T09:15:12Z</time></trkpt><trkpt lat="43.32078158921102" lon="11.365178530507153"><ele>271.0</ele><time>2026-04-11T09:15:14Z</time></trkpt><trkpt lat="43.32072440939307" lon="11.36504054398591"><ele>271.2</ele><time>2026-04-11T09:15:16Z</time></trkpt><trkpt lat="43.3206799519771" lon="11.364910338464584"><ele>271.40000000000003</ele><time>2026-04-11T09:15:18Z</time></trkpt><trkpt lat="43.320616281418175" lon="11.36478688945879"><ele>271.6</ele><time>2026-04-11T09:15:19.999Z</time></trkpt><trkpt lat="43.32055941099392" lon="11.364667142282519"><ele>271.8</ele><time>2026-04-11T09:15:21.999Z</time></trkpt><trkpt lat="43.32049423539336" lon="11.36456659968748"><ele>272.0</ele><time>2026-04-11T09:15:23.999Z</time></trkpt><trkpt lat="43.32043992056912" lon="11.364483274715202"><ele>272.33333333333337</ele><time>2026-04-11T09:15:25.999Z</time></trkpt><trkpt lat="43.320391283266446" lon="11.36440713615771"><ele>272.6666666666667</ele><time>2026-04-11T09:15:27.999Z</time></trkpt><trkpt lat="43.320350255088904" lon="11.364316665610854"><ele>273.0</ele><time>2026-04-11T09:15:29.999Z</time></trkpt><trkpt lat="43.32030900433297" lon="11.36422580727231"><ele>273.3333333333333</ele><time>2026-04-11T09:15:31.999Z</time></trkpt><trkpt lat="43.32024226019009" lon="11.364143201089847"><ele>273.66666666666663</ele><time>2026-04-11T09:15:33.999Z</time></trkpt><trkpt lat="43.32017615197527" lon="11.364034874744942"><ele>274.0</ele><time>2026-04-11T09:15:35.999Z</time></trkpt><trkpt lat="43.320109195026724" lon="11.363901474796675"><ele>272.8</ele><time>2026-04-11T09:15:37.999Z</time></trkpt><trkpt lat="43.32006345152573" lon="11.363839195075434"><ele>271.59999999999997</ele><time>2026-04-11T09:15:38.999Z</time></trkpt><trkpt lat="43.320021818535906" lon="11.36377333319806"><ele>270.4</ele><time>2026-04-11T09:15:39.999Z</time></trkpt><trkpt lat="43.31993561435186" lon="11.363645141661321"><ele>269.2</ele><time>2026-04-11T09:15:41.999Z</time></trkpt><trkpt lat="43.31984674875641" lon="11.36352465441895"><ele>268.0</ele><time>2026-04-11T09:15:43.999Z</time></trkpt><trkpt lat="43.319757439101046" lon="11.363416257162932"><ele>268.4</ele><time>2026-04-11T09:15:45.999Z</time></trkpt><trkpt lat="43.31967953127614" lon="11.36331784106849"><ele>268.8</ele><time>2026-04-11T09:15:47.999Z</time></trkpt><trkpt lat="43.31960651953578" lon="11.363224249201377"><ele>269.2</ele><time>2026-04-11T09:15:49.999Z</time></trkpt><trkpt lat="43.319546877563376" lon="11.36311653692234"><ele>269.6</ele><time>2026-04-11T09:15:51.999Z</time></trkpt><trkpt lat="43.31949382836269" lon="11.362983257213456"><ele>270.0</ele><time>2026-04-11T09:15:53.999Z</time></trkpt><trkpt lat="43.319440380510315" lon="11.362833021352316"><ele>270.0</ele><time>2026-04-11T09:15:55.999Z</time></trkpt><trkpt lat="43.31942074064064" lon="11.362749672108317"><ele>270.0</ele><time>2026-04-11T09:15:56.999Z</time></trkpt><trkpt lat="43.31940293296878" lon="11.36266182781067"><ele>270.0</ele><time>2026-04-11T09:15:57.999Z</time></trkpt><trkpt lat="43.31935970699799" lon="11.362518351258098"><ele>270.0</ele><time>2026-04-11T09:15:59.999Z</time></trkpt><trkpt lat="43.319283909882" lon="11.362415578321832"><ele>270.0</ele><time>2026-04-11T09:16:01.999Z</time></trkpt><trkpt lat="43.31923725995656" lon="11.362329012264393"><ele>270.0</ele><time>2026-04-11T09:16:03.999Z</time></trkpt><trkpt lat="43.31912559038868" lon="11.362299907254842"><ele>270.0</ele><time>2026-04-11T09:16:05.999Z</time></trkpt><trkpt lat="43.319040195397264" lon="11.362208974130764"><ele>270.0</ele><time>2026-04-11T09:16:07.999Z</time></trkpt><trkpt lat="43.3190379717501" lon="11.36207555460339"><ele>270.0</ele><time>2026-04-11T09:16:08.999Z</time></trkpt><trkpt lat="43.31899476873488" lon="11.362004130733"><ele>270.0</ele><time>2026-04-11T09:16:09.999Z</time></trkpt><trkpt lat="43.31894814011028" lon="11.36192468075175"><ele>270.0</ele><time>2026-04-11T09:16:10.999Z</time></trkpt><trkpt lat="43.31889799051389" lon="11.361840365008867"><ele>270.0</ele><time>2026-04-11T09:16:11.999Z</time></trkpt><trkpt lat="43.31883594736453" lon="11.361756934328902"><ele>269.2</ele><time>2026-04-11T09:16:12.999Z</time></trkpt><trkpt lat="43.31878255374918" lon="11.361660956250356"><ele>268.4</ele><time>2026-04-11T09:16:13.999Z</time></trkpt><trkpt lat="43.31873950759606" lon="11.361561503541843"><ele>267.6</ele><time>2026-04-11T09:16:14.999Z</time></trkpt><trkpt lat="43.318699976658955" lon="11.361448574384271"><ele>266.8</ele><time>2026-04-11T09:16:15.999Z</time></trkpt><trkpt lat="43.31865564687391" lon="11.361333678454177"><ele>266.0</ele><time>2026-04-11T09:16:16.999Z</time></trkpt><trkpt lat="43.31862078060941" lon="11.361212112572812"><ele>264.40000000000003</ele><time>2026-04-11T09:16:18Z</time></trkpt><trkpt lat="43.318582285271354" lon="11.361089189766108"><ele>262.8</ele><time>2026-04-11T09:16:19Z</time></trkpt><trkpt lat="43.318540931749695" lon="11.360953865292572"><ele>261.20000000000005</ele><time>2026-04-11T09:16:20Z</time></trkpt><trkpt lat="43.31848582065333" lon="11.360827594202231"><ele>259.6</ele><time>2026-04-11T09:16:21Z</time></trkpt><trkpt lat="43.318427415491435" lon="11.360706684258219"><ele>258.0</ele><time>2026-04-11T09:16:22Z</time></trkpt><trkpt lat="43.31837210270219" lon="11.360574918222483"><ele>256.6</ele><time>2026-04-11T09:16:23Z</time></trkpt><trkpt lat="43.31832266910286" lon="11.360435884175278"><ele>255.20000000000002</ele><time>2026-04-11T09:16:24Z</time></trkpt><trkpt lat="43.31826845845703" lon="11.360337671391298"><ele>253.8</ele><time>2026-04-11T09:16:25Z</time></trkpt><trkpt lat="43.31821017814926" lon="11.360201224520948"><ele>252.4</ele><time>2026-04-11T09:16:26Z</time></trkpt><trkpt lat="43.31814701685781" lon="11.360077281905204"><ele>251.0</ele><time>2026-04-11T09:16:27Z</time></trkpt><trkpt lat="43.31807288575482" lon="11.359963506936532"><ele>251.0</ele><time>2026-04-11T09:16:28Z</time></trkpt><trkpt lat="43.317998076042336" lon="11.35985210645517"><ele>251.00000000000003</ele><time>2026-04-11T09:16:29Z</time></trkpt><trkpt lat="43.31792921799186" lon="11.359755539830237"><ele>251.00000000000003</ele><time>2026-04-11T09:16:30Z</time></trkpt><trkpt lat="43.317878730103715" lon="11.359646895970535"><ele>251.0</ele><time>2026-04-11T09:16:31Z</time></trkpt><trkpt lat="43.31783854302354" lon="11.359529065855657"><ele>251.0</ele><time>2026-04-11T09:16:32Z</time></trkpt><trkpt lat="43.31780617239066" lon="11.359413474172873"><ele>249.0</ele><time>2026-04-11T09:16:33Z</time></trkpt><trkpt lat="43.317775360038354" lon="11.35929186139751"><ele>247.00000000000003</ele><time>2026-04-11T09:16:34Z</time></trkpt><trkpt lat="43.31776432631263" lon="11.35916689623267"><ele>245.00000000000003</ele><time>2026-04-11T09:16:35Z</time></trkpt><trkpt lat="43.31774190453896" lon="11.359044356947361"><ele>243.0</ele><time>2026-04-11T09:16:36Z</time></trkpt><trkpt lat="43.31772054793889" lon="11.358926268824055"><ele>241.0</ele><time>2026-04-11T09:16:37Z</time></trkpt><trkpt lat="43.317697237119965" lon="11.35880914389253"><ele>240.20000000000002</ele><time>2026-04-11T09:16:38Z</time></trkpt><trkpt lat="43.31765860406757" lon="11.358686847416795"><ele>239.40000000000003</ele><time>2026-04-11T09:16:39Z</time></trkpt><trkpt lat="43.31760310374456" lon="11.358574008358442"><ele>238.6</ele><time>2026-04-11T09:16:40Z</time></trkpt><trkpt lat="43.31753620334179" lon="11.358475905219214"><ele>237.8</ele><time>2026-04-11T09:16:41Z</time></trkpt><trkpt lat="43.31745400839062" lon="11.358410795941362"><ele>237.0</ele><time>2026-04-11T09:16:42Z</time></trkpt><trkpt lat="43.31735639151479" lon="11.358344337200515"><ele>237.0</ele><time>2026-04-11T09:16:43Z</time></trkpt><trkpt lat="43.3172573232147" lon="11.35828832073803"><ele>237.0</ele><time>2026-04-11T09:16:44Z</time></trkpt><trkpt lat="43.317148910863985" lon="11.358276399162238"><ele>237.0</ele><time>2026-04-11T09:16:45Z</time></trkpt><trkpt lat="43.31703771801655" lon="11.35827138618139"><ele>237.0</ele><time>2026-04-11T09:16:46Z</time></trkpt><trkpt lat="43.31692231165523" lon="11.358277727832094"><ele>237.0</ele><time>2026-04-11T09:16:47Z</time></trkpt><trkpt lat="43.31680451436766" lon="11.358266272575225"><ele>236.0</ele><time>2026-04-11T09:16:48Z</time></trkpt><trkpt lat="43.31669713136281" lon="11.35822049399263"><ele>235.0</ele><time>2026-04-11T09:16:49Z</time></trkpt><trkpt lat="43.31662133274123" lon="11.358117217369443"><ele>234.0</ele><time>2026-04-11T09:16:50Z</time></trkpt><trkpt lat="43.31653795017022" lon="11.358017009599797"><ele>233.0</ele><time>2026-04-11T09:16:51Z</time></trkpt><trkpt lat="43.3164754873564" lon="11.357882829076425"><ele>232.0</ele><time>2026-04-11T09:16:52Z</time></trkpt><trkpt lat="43.31640827422792" lon="11.357751161576553"><ele>230.75</ele><time>2026-04-11T09:16:53Z</time></trkpt><trkpt lat="43.31633369501432" lon="11.35762535098211"><ele>229.5</ele><time>2026-04-11T09:16:54Z</time></trkpt><trkpt lat="43.31625909069861" lon="11.35750470507873"><ele>228.25</ele><time>2026-04-11T09:16:55Z</time></trkpt><trkpt lat="43.31617741111818" lon="11.357383442171525"><ele>227.0</ele><time>2026-04-11T09:16:56Z</time></trkpt><trkpt lat="43.316122073011066" lon="11.357253776884827"><ele>226.8</ele><time>2026-04-11T09:16:57Z</time></trkpt><trkpt lat="43.31609569839242" lon="11.357103428317064"><ele>226.6</ele><time>2026-04-11T09:16:58Z</time></trkpt><trkpt lat="43.316068768872555" lon="11.35695536621307"><ele>226.40000000000003</ele><time>2026-04-11T09:16:59Z</time></trkpt><trkpt lat="43.316055641203896" lon="11.356807728741813"><ele>226.20000000000002</ele><time>2026-04-11T09:17:00Z</time></trkpt><trkpt lat="43.3160452711014" lon="11.356667453016659"><ele>226.0</ele><time>2026-04-11T09:17:01Z</time></trkpt><trkpt lat="43.31604149983262" lon="11.356532113615192"><ele>225.99999999999997</ele><time>2026-04-11T09:17:02Z</time></trkpt><trkpt lat="43.31604178381496" lon="11.356425021165082"><ele>226.0</ele><time>2026-04-11T09:17:03Z</time></trkpt><trkpt lat="43.316037880257994" lon="11.356321159794787"><ele>226.0</ele><time>2026-04-11T09:17:04Z</time></trkpt><trkpt lat="43.31600986082956" lon="11.356174231634125"><ele>226.0</ele><time>2026-04-11T09:17:06Z</time></trkpt><trkpt lat="43.31606931558743" lon="11.356050466475084"><ele>225.99999999999997</ele><time>2026-04-11T09:17:08Z</time></trkpt><trkpt lat="43.31612497054627" lon="11.35598409397234"><ele>226.0</ele><time>2026-04-11T09:17:11Z</time></trkpt><trkpt lat="43.31617155535457" lon="11.355903198595737"><ele>225.83333333333331</ele><time>2026-04-11T09:17:15Z</time></trkpt><trkpt lat="43.316222542900796" lon="11.355827452797762"><ele>225.66666666666666</ele><time>2026-04-11T09:17:18Z</time></trkpt><trkpt lat="43.316277882509446" lon="11.355753688312703"><ele>225.5</ele><time>2026-04-11T09:17:21Z</time></trkpt><trkpt lat="43.3163403395751" lon="11.355649729275271"><ele>225.33333333333331</ele><time>2026-04-11T09:17:24Z</time></trkpt><trkpt lat="43.31638878333376" lon="11.355578176079302"><ele>225.16666666666666</ele><time>2026-04-11T09:17:26Z</time></trkpt><trkpt lat="43.316409737935274" lon="11.35547513373976"><ele>225.0</ele><time>2026-04-11T09:17:28Z</time></trkpt><trkpt lat="43.31640029938971" lon="11.355360549554668"><ele>225.33333333333334</ele><time>2026-04-11T09:17:30Z</time></trkpt><trkpt lat="43.31635191281413" lon="11.355275194056894"><ele>225.66666666666669</ele><time>2026-04-11T09:17:32Z</time></trkpt><trkpt lat="43.316282627060716" lon="11.355211193925587"><ele>226.0</ele><time>2026-04-11T09:17:34Z</time></trkpt><trkpt lat="43.31620624260707" lon="11.355187037801377"><ele>226.33333333333334</ele><time>2026-04-11T09:17:35.999Z</time></trkpt><trkpt lat="43.31612839498437" lon="11.355180973366021"><ele>226.66666666666669</ele><time>2026-04-11T09:17:37.999Z</time></trkpt><trkpt lat="43.3160360458936" lon="11.3550976680747"><ele>227.0</ele><time>2026-04-11T09:17:40.999Z</time></trkpt><trkpt lat="43.31599398357693" lon="11.35498713670023"><ele>227.0</ele><time>2026-04-11T09:17:43.999Z</time></trkpt><trkpt lat="43.31595757223758" lon="11.35488960844305"><ele>227.00000000000003</ele><time>2026-04-11T09:17:46.999Z</time></trkpt><trkpt lat="43.315929271621066" lon="11.354792806341834"><ele>227.0</ele><time>2026-04-11T09:17:49.999Z</time></trkpt><trkpt lat="43.31588957559695" lon="11.35471050906461"><ele>227.0</ele><time>2026-04-11T09:24:00.999Z</time></trkpt><trkpt lat="43.31585750333214" lon="11.354632029108878"><ele>227.00000000000003</ele><time>2026-04-11T09:24:09.999Z</time></trkpt><trkpt lat="43.31581541912788" lon="11.354564699246408"><ele>227.0</ele><time>2026-04-11T09:24:45Z</time></trkpt><trkpt lat="43.31578622552552" lon="11.35446394170002"><ele>227.0</ele><time>2026-04-11T09:24:50Z</time></trkpt><trkpt lat="43.31576392980479" lon="11.354376723502392"><ele>227.57142857142858</ele><time>2026-04-11T09:24:53Z</time></trkpt><trkpt lat="43.31574189579507" lon="11.354281410298453"><ele>228.14285714285717</ele><time>2026-04-11T09:24:56Z</time></trkpt><trkpt lat="43.315707429633825" lon="11.354183397008772"><ele>228.71428571428572</ele><time>2026-04-11T09:24:59Z</time></trkpt><trkpt lat="43.31568245259756" lon="11.354082790631569"><ele>229.28571428571428</ele><time>2026-04-11T09:25:02Z</time></trkpt><trkpt lat="43.31565537801555" lon="11.35398942530138"><ele>229.85714285714286</ele><time>2026-04-11T09:25:05Z</time></trkpt><trkpt lat="43.31567488003752" lon="11.353902828487263"><ele>230.42857142857144</ele><time>2026-04-11T09:25:12Z</time></trkpt><trkpt lat="43.31566148721205" lon="11.35379806371806"><ele>231.0</ele><time>2026-04-11T09:25:17Z</time></trkpt><trkpt lat="43.31563395868949" lon="11.35369660750786"><ele>231.5</ele><time>2026-04-11T09:25:21Z</time></trkpt><trkpt lat="43.31561042792776" lon="11.353613653573673"><ele>232.0</ele><time>2026-04-11T09:25:24Z</time></trkpt><trkpt lat="43.315593425467746" lon="11.35350813010294"><ele>232.5</ele><time>2026-04-11T09:25:27Z</time></trkpt><trkpt lat="43.31556367417085" lon="11.353408431715573"><ele>233.0</ele><time>2026-04-11T09:25:30Z</time></trkpt><trkpt lat="43.315536280246796" lon="11.353310121082131"><ele>233.5</ele><time>2026-04-11T09:25:33Z</time></trkpt><trkpt lat="43.315515446016384" lon="11.353204204149106"><ele>234.0</ele><time>2026-04-11T09:25:36Z</time></trkpt><trkpt lat="43.315487828733964" lon="11.353100102717711"><ele>234.5</ele><time>2026-04-11T09:25:39Z</time></trkpt><trkpt lat="43.31546002973369" lon="11.352999428072895"><ele>235.0</ele><time>2026-04-11T09:25:42Z</time></trkpt><trkpt lat="43.31544735584946" lon="11.352897784613214"><ele>235.5</ele><time>2026-04-11T09:25:45Z</time></trkpt><trkpt lat="43.31541563770934" lon="11.352799432922176"><ele>236.0</ele><time>2026-04-11T09:25:47.999Z</time></trkpt><trkpt lat="43.315389446981676" lon="11.352699719758629"><ele>236.5</ele><time>2026-04-11T09:25:50.999Z</time></trkpt><trkpt lat="43.315358598839424" lon="11.35260077936311"><ele>237.0</ele><time>2026-04-11T09:25:53.999Z</time></trkpt><trkpt lat="43.31533454540408" lon="11.352499004460663"><ele>237.0</ele><time>2026-04-11T09:25:56.999Z</time></trkpt><trkpt lat="43.31531015717124" lon="11.35239659825092"><ele>237.0</ele><time>2026-04-11T09:25:59.999Z</time></trkpt><trkpt lat="43.31527507811469" lon="11.35229961871155"><ele>237.0</ele><time>2026-04-11T09:26:02.999Z</time></trkpt><trkpt lat="43.315242798445944" lon="11.35220013934524"><ele>237.0</ele><time>2026-04-11T09:26:05.999Z</time></trkpt><trkpt lat="43.31521620485049" lon="11.352099004190007"><ele>237.0</ele><time>2026-04-11T09:26:08.999Z</time></trkpt><trkpt lat="43.315176818327295" lon="11.352000690473423"><ele>237.0</ele><time>2026-04-11T09:26:11.999Z</time></trkpt><trkpt lat="43.31514075673176" lon="11.351901441184259"><ele>237.99999999999997</ele><time>2026-04-11T09:26:14.999Z</time></trkpt><trkpt lat="43.315117534001445" lon="11.351792479620013"><ele>239.0</ele><time>2026-04-11T09:26:17.999Z</time></trkpt><trkpt lat="43.31508957936072" lon="11.351710954941217"><ele>239.99999999999997</ele><time>2026-04-11T09:26:20.999Z</time></trkpt><trkpt lat="43.31505664809478" lon="11.351614201935268"><ele>240.99999999999997</ele><time>2026-04-11T09:26:23.999Z</time></trkpt><trkpt lat="43.31501604588891" lon="11.351527871330259"><ele>242.0</ele><time>2026-04-11T09:26:26.999Z</time></trkpt><trkpt lat="43.314970941335936" lon="11.351449581291355"><ele>242.99999999999997</ele><time>2026-04-11T09:26:30.999Z</time></trkpt><trkpt lat="43.314917111147224" lon="11.351385419813889"><ele>243.99999999999997</ele><time>2026-04-11T09:26:33.999Z</time></trkpt><trkpt lat="43.31486979775209" lon="11.351323093507679"><ele>243.83333333333331</ele><time>2026-04-11T09:26:36.999Z</time></trkpt><trkpt lat="43.31484695659127" lon="11.351227288171414"><ele>243.66666666666666</ele><time>2026-04-11T09:26:39.999Z</time></trkpt><trkpt lat="43.31478122407233" lon="11.35116277139718"><ele>243.5</ele><time>2026-04-11T09:26:42.999Z</time></trkpt><trkpt lat="43.31471881665116" lon="11.351097501904286"><ele>243.33333333333331</ele><time>2026-04-11T09:26:45.999Z</time></trkpt><trkpt lat="43.31467575940094" lon="11.35100940225538"><ele>243.16666666666666</ele><time>2026-04-11T09:26:49Z</time></trkpt><trkpt lat="43.31463351027906" lon="11.35092664061205"><ele>243.0</ele><time>2026-04-11T09:26:52Z</time></trkpt><trkpt lat="43.314591299344286" lon="11.350837084840267"><ele>243.0</ele><time>2026-04-11T09:26:55Z</time></trkpt><trkpt lat="43.31454060931719" lon="11.350756754336867"><ele>243.0</ele><time>2026-04-11T09:26:58Z</time></trkpt><trkpt lat="43.31449590679798" lon="11.35067663994491"><ele>243.0</ele><time>2026-04-11T09:27:01Z</time></trkpt><trkpt lat="43.314443646964826" lon="11.350595764697594"><ele>243.0</ele><time>2026-04-11T09:27:04Z</time></trkpt><trkpt lat="43.31441127682674" lon="11.350481063616261"><ele>243.0</ele><time>2026-04-11T09:27:07Z</time></trkpt><trkpt lat="43.31440059662071" lon="11.350368797844595"><ele>243.0</ele><time>2026-04-11T09:27:10Z</time></trkpt><trkpt lat="43.314389662084075" lon="11.35024927643331"><ele>243.42857142857142</ele><time>2026-04-11T09:27:13Z</time></trkpt><trkpt lat="43.314411296579124" lon="11.350148025515356"><ele>243.8571428571429</ele><time>2026-04-11T09:27:16Z</time></trkpt><trkpt lat="43.31443190255993" lon="11.35005078804391"><ele>244.2857142857143</ele><time>2026-04-11T09:27:19Z</time></trkpt><trkpt lat="43.3144582807048" lon="11.349961262566042"><ele>244.71428571428572</ele><time>2026-04-11T09:27:22Z</time></trkpt><trkpt lat="43.314512366170014" lon="11.349913368383872"><ele>245.14285714285717</ele><time>2026-04-11T09:27:25Z</time></trkpt><trkpt lat="43.3145764640883" lon="11.349876931972437"><ele>245.5714285714286</ele><time>2026-04-11T09:27:28Z</time></trkpt><trkpt lat="43.314648527656026" lon="11.349853671642428"><ele>246.00000000000003</ele><time>2026-04-11T09:27:32Z</time></trkpt><trkpt lat="43.314722293377606" lon="11.349843892529364"><ele>248.5</ele><time>2026-04-11T09:27:35Z</time></trkpt><trkpt lat="43.314790862322766" lon="11.349838322054051"><ele>251.0</ele><time>2026-04-11T09:27:38Z</time></trkpt><trkpt lat="43.314870082814515" lon="11.34983060862147"><ele>253.5</ele><time>2026-04-11T09:27:41Z</time></trkpt><trkpt lat="43.314941724334744" lon="11.349794937119452"><ele>256.0</ele><time>2026-04-11T09:27:44Z</time></trkpt><trkpt lat="43.31501083039951" lon="11.34973362463009"><ele>258.5</ele><time>2026-04-11T09:27:47Z</time></trkpt><trkpt lat="43.31506860023224" lon="11.34966381387693"><ele>261.0</ele><time>2026-04-11T09:27:50Z</time></trkpt><trkpt lat="43.31511204897036" lon="11.349563626321947"><ele>261.5</ele><time>2026-04-11T09:27:52.999Z</time></trkpt><trkpt lat="43.31513532220161" lon="11.349450542554358"><ele>262.0</ele><time>2026-04-11T09:27:55.999Z</time></trkpt><trkpt lat="43.315140040433576" lon="11.34934879497044"><ele>262.5</ele><time>2026-04-11T09:27:58.999Z</time></trkpt><trkpt lat="43.3151094052529" lon="11.349237345179965"><ele>263.0</ele><time>2026-04-11T09:28:01.999Z</time></trkpt><trkpt lat="43.315079361101944" lon="11.349128048672094"><ele>263.5</ele><time>2026-04-11T09:28:04.999Z</time></trkpt><trkpt lat="43.315017360696324" lon="11.349036862514666"><ele>264.0</ele><time>2026-04-11T09:28:07.999Z</time></trkpt><trkpt lat="43.314942674816166" lon="11.348969103665494"><ele>264.0</ele><time>2026-04-11T09:28:10.999Z</time></trkpt><trkpt lat="43.3148605434014" lon="11.348917659314568"><ele>264.0</ele><time>2026-04-11T09:28:13.999Z</time></trkpt><trkpt lat="43.31477302429803" lon="11.348879057677385"><ele>264.0</ele><time>2026-04-11T09:28:16.999Z</time></trkpt><trkpt lat="43.314688791570084" lon="11.348824290122222"><ele>264.0</ele><time>2026-04-11T09:28:19.999Z</time></trkpt><trkpt lat="43.31462567245002" lon="11.348739769942421"><ele>264.0</ele><time>2026-04-11T09:28:22.999Z</time></trkpt><trkpt lat="43.31458377390484" lon="11.348637053644536"><ele>264.0</ele><time>2026-04-11T09:28:25.999Z</time></trkpt><trkpt lat="43.3145719842959" lon="11.348525840906461"><ele>262.5</ele><time>2026-04-11T09:28:28.999Z</time></trkpt><trkpt lat="43.31457768384246" lon="11.348413052325716"><ele>261.0</ele><time>2026-04-11T09:28:31.999Z</time></trkpt><trkpt lat="43.314571072335" lon="11.348296292962837"><ele>259.5</ele><time>2026-04-11T09:28:34.999Z</time></trkpt><trkpt lat="43.314592382463275" lon="11.348186216774279"><ele>258.0</ele><time>2026-04-11T09:28:37.999Z</time></trkpt><trkpt lat="43.31462955571088" lon="11.34808050755189"><ele>256.5</ele><time>2026-04-11T09:28:40.999Z</time></trkpt><trkpt lat="43.314659560123694" lon="11.3479788872501"><ele>255.0</ele><time>2026-04-11T09:28:43.999Z</time></trkpt><trkpt lat="43.31469667364916" lon="11.347906369464303"><ele>257.6666666666667</ele><time>2026-04-11T09:28:45.999Z</time></trkpt><trkpt lat="43.3147607460251" lon="11.347837123400957"><ele>260.3333333333333</ele><time>2026-04-11T09:28:48.999Z</time></trkpt><trkpt lat="43.31480968718902" lon="11.347752981608886"><ele>263.0</ele><time>2026-04-11T09:28:51.999Z</time></trkpt><trkpt lat="43.31487413900682" lon="11.347684176917756"><ele>265.66666666666663</ele><time>2026-04-11T09:28:55Z</time></trkpt><trkpt lat="43.31491326663386" lon="11.34758414534571"><ele>268.3333333333333</ele><time>2026-04-11T09:28:58Z</time></trkpt><trkpt lat="43.314953538613366" lon="11.34749655790725"><ele>271.0</ele><time>2026-04-11T09:29:01Z</time></trkpt><trkpt lat="43.3149967053488" lon="11.347414132466467"><ele>271.0</ele><time>2026-04-11T09:29:04Z</time></trkpt><trkpt lat="43.315040544035746" lon="11.347339094801992"><ele>271.0</ele><time>2026-04-11T09:29:07Z</time></trkpt><trkpt lat="43.31506444330228" lon="11.347239919352184"><ele>271.0</ele><time>2026-04-11T09:29:10Z</time></trkpt><trkpt lat="43.31509828595258" lon="11.34715325462002"><ele>271.0</ele><time>2026-04-11T09:29:13Z</time></trkpt><trkpt lat="43.31512733556495" lon="11.347053427334592"><ele>271.0</ele><time>2026-04-11T09:29:16Z</time></trkpt><trkpt lat="43.315161999962086" lon="11.346973724392733"><ele>271.0</ele><time>2026-04-11T09:29:19Z</time></trkpt><trkpt lat="43.31521104072582" lon="11.34690158463258"><ele>271.0</ele><time>2026-04-11T09:29:22Z</time></trkpt><trkpt lat="43.31526392120227" lon="11.346830809893858"><ele>270.57142857142856</ele><time>2026-04-11T09:29:25Z</time></trkpt><trkpt lat="43.315309113834495" lon="11.34675394680471"><ele>270.14285714285717</ele><time>2026-04-11T09:29:28Z</time></trkpt><trkpt lat="43.315371707041336" lon="11.346692668560044"><ele>269.7142857142857</ele><time>2026-04-11T09:29:31Z</time></trkpt><trkpt lat="43.315428251778094" lon="11.346634359309649"><ele>269.2857142857143</ele><time>2026-04-11T09:29:34Z</time></trkpt><trkpt lat="43.31547667930798" lon="11.346558284097853"><ele>268.85714285714283</ele><time>2026-04-11T09:29:37Z</time></trkpt><trkpt lat="43.315523970675784" lon="11.346486301189998"><ele>268.42857142857144</ele><time>2026-04-11T09:29:40Z</time></trkpt><trkpt lat="43.315562816180396" lon="11.346416743628366"><ele>268.0</ele><time>2026-04-11T09:29:43Z</time></trkpt><trkpt lat="43.31560197214522" lon="11.346340448718278"><ele>270.0</ele><time>2026-04-11T09:29:46Z</time></trkpt><trkpt lat="43.315648732798685" lon="11.346255983724234"><ele>272.0</ele><time>2026-04-11T09:29:49Z</time></trkpt><trkpt lat="43.315697166462066" lon="11.346171043369598"><ele>274.0</ele><time>2026-04-11T09:29:52Z</time></trkpt><trkpt lat="43.315750567955334" lon="11.346094814232089"><ele>276.0</ele><time>2026-04-11T09:29:55Z</time></trkpt><trkpt lat="43.31579809258506" lon="11.346017245542475"><ele>278.0</ele><time>2026-04-11T09:29:58Z</time></trkpt><trkpt lat="43.31584675161689" lon="11.345944086811746"><ele>280.0</ele><time>2026-04-11T09:30:01Z</time></trkpt><trkpt lat="43.31590001816729" lon="11.34587772874536"><ele>280.0</ele><time>2026-04-11T09:30:03.999Z</time></trkpt><trkpt lat="43.31595388178853" lon="11.34580631360652"><ele>280.0</ele><time>2026-04-11T09:30:06.999Z</time></trkpt><trkpt lat="43.31600248138054" lon="11.345732780067"><ele>280.0</ele><time>2026-04-11T09:30:09.999Z</time></trkpt><trkpt lat="43.31604606810452" lon="11.345653350168071"><ele>280.0</ele><time>2026-04-11T09:30:12.999Z</time></trkpt><trkpt lat="43.316083862260314" lon="11.345580741342944"><ele>280.0</ele><time>2026-04-11T09:30:15.999Z</time></trkpt><trkpt lat="43.316125069849754" lon="11.34549165284353"><ele>280.0</ele><time>2026-04-11T09:30:18.999Z</time></trkpt><trkpt lat="43.316170958637876" lon="11.345406051496703"><ele>280.0</ele><time>2026-04-11T09:30:21.999Z</time></trkpt><trkpt lat="43.316228752753474" lon="11.345339431999713"><ele>280.85714285714283</ele><time>2026-04-11T09:30:24.999Z</time></trkpt><trkpt lat="43.31628142307949" lon="11.345262053891833"><ele>281.7142857142857</ele><time>2026-04-11T09:30:27.999Z</time></trkpt><trkpt lat="43.31632742531682" lon="11.345186437949476"><ele>282.57142857142856</ele><time>2026-04-11T09:30:30.999Z</time></trkpt><trkpt lat="43.316389253789026" lon="11.345115877220556"><ele>283.42857142857144</ele><time>2026-04-11T09:30:33.999Z</time></trkpt><trkpt lat="43.31642789532963" lon="11.34502533359617"><ele>284.2857142857143</ele><time>2026-04-11T09:30:36.999Z</time></trkpt><trkpt lat="43.316473491339856" lon="11.344952120303892"><ele>285.1428571428571</ele><time>2026-04-11T09:30:39.999Z</time></trkpt><trkpt lat="43.31651594238898" lon="11.34487440354895"><ele>286.0</ele><time>2026-04-11T09:30:42.999Z</time></trkpt><trkpt lat="43.316571358370666" lon="11.344795318792189"><ele>286.0</ele><time>2026-04-11T09:30:45.999Z</time></trkpt><trkpt lat="43.316622221564074" lon="11.344721202859011"><ele>286.0</ele><time>2026-04-11T09:30:48.999Z</time></trkpt><trkpt lat="43.31667222967912" lon="11.344613748765196"><ele>286.0</ele><time>2026-04-11T09:30:52.999Z</time></trkpt><trkpt lat="43.31672113488166" lon="11.344529470897625"><ele>286.0</ele><time>2026-04-11T09:30:55.999Z</time></trkpt><trkpt lat="43.3167780485678" lon="11.34445237761825"><ele>286.0</ele><time>2026-04-11T09:30:58.999Z</time></trkpt><trkpt lat="43.31681271788512" lon="11.34434990049427"><ele>286.0</ele><time>2026-04-11T09:31:02Z</time></trkpt><trkpt lat="43.31683606202276" lon="11.344254489946827"><ele>285.66666666666663</ele><time>2026-04-11T09:31:05Z</time></trkpt><trkpt lat="43.316825703003595" lon="11.344161629378736"><ele>285.3333333333333</ele><time>2026-04-11T09:31:08Z</time></trkpt><trkpt lat="43.31674304075928" lon="11.344105801798056"><ele>285.0</ele><time>2026-04-11T09:31:11Z</time></trkpt><trkpt lat="43.31667616098933" lon="11.344049961328217"><ele>284.6666666666667</ele><time>2026-04-11T09:31:13Z</time></trkpt><trkpt lat="43.316604566436325" lon="11.343941318809229"><ele>284.33333333333337</ele><time>2026-04-11T09:31:15Z</time></trkpt><trkpt lat="43.31659407485588" lon="11.343854004646948"><ele>284.0</ele><time>2026-04-11T09:31:16Z</time></trkpt><trkpt lat="43.31662364069131" lon="11.343758349730999"><ele>283.6666666666667</ele><time>2026-04-11T09:31:17Z</time></trkpt><trkpt lat="43.31668258334163" lon="11.343692251741691"><ele>283.33333333333337</ele><time>2026-04-11T09:31:18Z</time></trkpt><trkpt lat="43.31671664152622" lon="11.343604858090568"><ele>283.0</ele><time>2026-04-11T09:31:19Z</time></trkpt><trkpt lat="43.31675586774906" lon="11.343525585585985"><ele>282.6666666666667</ele><time>2026-04-11T09:31:20Z</time></trkpt><trkpt lat="43.316782902418176" lon="11.343430749407991"><ele>282.3333333333333</ele><time>2026-04-11T09:31:21Z</time></trkpt><trkpt lat="43.31679109270085" lon="11.343321341851368"><ele>282.0</ele><time>2026-04-11T09:31:22Z</time></trkpt><trkpt lat="43.316807777930364" lon="11.343216238653534"><ele>282.0</ele><time>2026-04-11T09:31:23Z</time></trkpt><trkpt lat="43.316821405668136" lon="11.343109992007308"><ele>282.0</ele><time>2026-04-11T09:31:24Z</time></trkpt><trkpt lat="43.316841534461325" lon="11.342997115331913"><ele>282.0</ele><time>2026-04-11T09:31:25Z</time></trkpt><trkpt lat="43.31686016708698" lon="11.342879136828087"><ele>282.0</ele><time>2026-04-11T09:31:26Z</time></trkpt><trkpt lat="43.31688448812493" lon="11.342764384481534"><ele>282.0</ele><time>2026-04-11T09:31:27Z</time></trkpt><trkpt lat="43.316909472910716" lon="11.342650386228255"><ele>282.0</ele><time>2026-04-11T09:31:28Z</time></trkpt><trkpt lat="43.31691159478716" lon="11.342547870434696"><ele>281.3333333333333</ele><time>2026-04-11T09:31:29Z</time></trkpt><trkpt lat="43.316906116821585" lon="11.34245217159783"><ele>280.6666666666667</ele><time>2026-04-11T09:31:30Z</time></trkpt><trkpt lat="43.31684904018594" lon="11.342342916128068"><ele>280.0</ele><time>2026-04-11T09:31:31Z</time></trkpt><trkpt lat="43.31677619397197" lon="11.342290237576789"><ele>279.33333333333337</ele><time>2026-04-11T09:31:32Z</time></trkpt><trkpt lat="43.316692580878" lon="11.342263339840853"><ele>278.6666666666667</ele><time>2026-04-11T09:31:33Z</time></trkpt><trkpt lat="43.31660576606335" lon="11.342248249744252"><ele>278.0</ele><time>2026-04-11T09:31:34Z</time></trkpt><trkpt lat="43.31653565202455" lon="11.342227892334211"><ele>278.2857142857143</ele><time>2026-04-11T09:31:35Z</time></trkpt><trkpt lat="43.31646227804264" lon="11.342202259935494"><ele>278.57142857142856</ele><time>2026-04-11T09:31:36Z</time></trkpt><trkpt lat="43.316390029180724" lon="11.342180038148038"><ele>278.8571428571429</ele><time>2026-04-11T09:31:37Z</time></trkpt><trkpt lat="43.3163140733397" lon="11.34216104653643"><ele>279.1428571428571</ele><time>2026-04-11T09:31:38Z</time></trkpt><trkpt lat="43.316240084694975" lon="11.342138270979136"><ele>279.42857142857144</ele><time>2026-04-11T09:31:39Z</time></trkpt><trkpt lat="43.316168522997735" lon="11.342116498817397"><ele>279.7142857142857</ele><time>2026-04-11T09:31:40Z</time></trkpt><trkpt lat="43.316096625971625" lon="11.3421003375906"><ele>280.0</ele><time>2026-04-11T09:31:41Z</time></trkpt><trkpt lat="43.31602858758807" lon="11.342080847324535"><ele>280.14285714285717</ele><time>2026-04-11T09:31:42Z</time></trkpt><trkpt lat="43.31596309265012" lon="11.342061352065633"><ele>280.2857142857143</ele><time>2026-04-11T09:31:43Z</time></trkpt><trkpt lat="43.31589296114262" lon="11.342039635832482"><ele>280.42857142857144</ele><time>2026-04-11T09:31:44Z</time></trkpt><trkpt lat="43.31582762548233" lon="11.342020013350533"><ele>280.57142857142856</ele><time>2026-04-11T09:31:45Z</time></trkpt><trkpt lat="43.315759657965096" lon="11.342011413414397"><ele>280.7142857142857</ele><time>2026-04-11T09:31:46Z</time></trkpt><trkpt lat="43.315694329902655" lon="11.342014344877063"><ele>280.8571428571429</ele><time>2026-04-11T09:31:47Z</time></trkpt><trkpt lat="43.315629505974776" lon="11.34204272719606"><ele>281.0</ele><time>2026-04-11T09:31:48Z</time></trkpt><trkpt lat="43.315515441229756" lon="11.342110063265476"><ele>280.6</ele><time>2026-04-11T09:31:50Z</time></trkpt><trkpt lat="43.31540881349117" lon="11.342213669273054"><ele>280.20000000000005</ele><time>2026-04-11T09:31:52Z</time></trkpt><trkpt lat="43.31529749118548" lon="11.342311598507468"><ele>279.79999999999995</ele><time>2026-04-11T09:31:54Z</time></trkpt><trkpt lat="43.31524018337126" lon="11.342358257609234"><ele>279.4</ele><time>2026-04-11T09:31:55Z</time></trkpt><trkpt lat="43.31518453904594" lon="11.34242245540267"><ele>279.0</ele><time>2026-04-11T09:31:56Z</time></trkpt><trkpt lat="43.31513072880013" lon="11.342467460907459"><ele>278.99999999999994</ele><time>2026-04-11T09:31:57Z</time></trkpt><trkpt lat="43.31507168194658" lon="11.342512502860913"><ele>279.0</ele><time>2026-04-11T09:31:58Z</time></trkpt><trkpt lat="43.31502142546178" lon="11.342569846984201"><ele>279.0</ele><time>2026-04-11T09:31:59Z</time></trkpt><trkpt lat="43.31496457208154" lon="11.342626829956354"><ele>279.0</ele><time>2026-04-11T09:32:00Z</time></trkpt><trkpt lat="43.31490231355331" lon="11.342658845192991"><ele>279.0</ele><time>2026-04-11T09:32:01Z</time></trkpt><trkpt lat="43.314845778337975" lon="11.34269837486259"><ele>278.99999999999994</ele><time>2026-04-11T09:32:02Z</time></trkpt><trkpt lat="43.314785604036686" lon="11.342735599579134"><ele>279.0</ele><time>2026-04-11T09:32:03Z</time></trkpt><trkpt lat="43.31472574131019" lon="11.342777078991485"><ele>278.3333333333333</ele><time>2026-04-11T09:32:04Z</time></trkpt><trkpt lat="43.31460703182313" lon="11.342826740103613"><ele>277.6666666666667</ele><time>2026-04-11T09:32:06Z</time></trkpt><trkpt lat="43.31454035136269" lon="11.342818701932245"><ele>277.0</ele><time>2026-04-11T09:32:07Z</time></trkpt><trkpt lat="43.314481548531674" lon="11.342766518038"><ele>276.33333333333337</ele><time>2026-04-11T09:32:08Z</time></trkpt><trkpt lat="43.31443612940028" lon="11.342705290324298"><ele>275.6666666666667</ele><time>2026-04-11T09:32:09Z</time></trkpt><trkpt lat="43.3143921046838" lon="11.342549665553593"><ele>275.0</ele><time>2026-04-11T09:32:10.999Z</time></trkpt><trkpt lat="43.314369612888" lon="11.342396543354932"><ele>275.0</ele><time>2026-04-11T09:32:12.999Z</time></trkpt><trkpt lat="43.31435052488325" lon="11.342253876686671"><ele>275.0</ele><time>2026-04-11T09:32:14.999Z</time></trkpt><trkpt lat="43.31433509685467" lon="11.342168066354565"><ele>275.0</ele><time>2026-04-11T09:32:15.999Z</time></trkpt><trkpt lat="43.31429687896904" lon="11.342020442302882"><ele>275.0</ele><time>2026-04-11T09:32:17.999Z</time></trkpt><trkpt lat="43.31423478462532" lon="11.341887626299743"><ele>275.0</ele><time>2026-04-11T09:32:19.999Z</time></trkpt><trkpt lat="43.31414734324799" lon="11.341778339890128"><ele>275.4</ele><time>2026-04-11T09:32:21.999Z</time></trkpt><trkpt lat="43.31408890191818" lon="11.34174551817787"><ele>275.8</ele><time>2026-04-11T09:32:22.999Z</time></trkpt><trkpt lat="43.313975204083846" lon="11.3416974920686"><ele>276.2</ele><time>2026-04-11T09:32:24.999Z</time></trkpt><trkpt lat="43.31391018250252" lon="11.341683809409723"><ele>276.6</ele><time>2026-04-11T09:32:25.999Z</time></trkpt><trkpt lat="43.313788838233556" lon="11.341667868507534"><ele>277.0</ele><time>2026-04-11T09:32:27.999Z</time></trkpt><trkpt lat="43.31368455845885" lon="11.341630477684543"><ele>277.0</ele><time>2026-04-11T09:32:29.999Z</time></trkpt><trkpt lat="43.313606923556684" lon="11.341618607831398"><ele>277.0</ele><time>2026-04-11T09:32:30.999Z</time></trkpt><trkpt lat="43.313543568930804" lon="11.341597395816892"><ele>277.0</ele><time>2026-04-11T09:32:31.999Z</time></trkpt><trkpt lat="43.313484480271875" lon="11.34156340761374"><ele>277.0</ele><time>2026-04-11T09:32:32.999Z</time></trkpt><trkpt lat="43.3133626507175" lon="11.341528073841776"><ele>277.0</ele><time>2026-04-11T09:32:34.999Z</time></trkpt><trkpt lat="43.31329970245689" lon="11.341510688303345"><ele>277.0</ele><time>2026-04-11T09:32:35.999Z</time></trkpt><trkpt lat="43.313237620515864" lon="11.341491750424513"><ele>277.0</ele><time>2026-04-11T09:32:36.999Z</time></trkpt><trkpt lat="43.31311947534382" lon="11.341448689815069"><ele>277.0</ele><time>2026-04-11T09:32:38.999Z</time></trkpt><trkpt lat="43.313006268429646" lon="11.341387246557819"><ele>277.0</ele><time>2026-04-11T09:32:40.999Z</time></trkpt><trkpt lat="43.3129331745396" lon="11.341385008564147"><ele>277.0</ele><time>2026-04-11T09:32:41.999Z</time></trkpt><trkpt lat="43.31282569441421" lon="11.341339628588868"><ele>277.0</ele><time>2026-04-11T09:32:43.999Z</time></trkpt><trkpt lat="43.312762007267295" lon="11.34132621241171"><ele>278.4</ele><time>2026-04-11T09:32:44.999Z</time></trkpt><trkpt lat="43.31266487909688" lon="11.341261529342765"><ele>279.79999999999995</ele><time>2026-04-11T09:32:46.999Z</time></trkpt><trkpt lat="43.31259680773531" lon="11.34114073622455"><ele>281.2</ele><time>2026-04-11T09:32:48.999Z</time></trkpt><trkpt lat="43.312573259048776" lon="11.340995110333768"><ele>282.59999999999997</ele><time>2026-04-11T09:32:50.999Z</time></trkpt><trkpt lat="43.3125628716597" lon="11.340885489702096"><ele>284.0</ele><time>2026-04-11T09:32:52.999Z</time></trkpt><trkpt lat="43.312517536236406" lon="11.340801503296468"><ele>284.0</ele><time>2026-04-11T09:32:54.999Z</time></trkpt><trkpt lat="43.31246590672595" lon="11.340739020812848"><ele>284.0</ele><time>2026-04-11T09:32:56.999Z</time></trkpt><trkpt lat="43.31242872740618" lon="11.340664240644934"><ele>284.0</ele><time>2026-04-11T09:32:58.999Z</time></trkpt><trkpt lat="43.312363763437965" lon="11.340594769410075"><ele>284.0</ele><time>2026-04-11T09:33:01.999Z</time></trkpt><trkpt lat="43.3122950897241" lon="11.340541771208544"><ele>284.0</ele><time>2026-04-11T09:33:04.999Z</time></trkpt><trkpt lat="43.31223256446535" lon="11.340482589249365"><ele>284.0</ele><time>2026-04-11T09:33:08Z</time></trkpt><trkpt lat="43.31217135540038" lon="11.340430674380112"><ele>284.0</ele><time>2026-04-11T09:33:11Z</time></trkpt><trkpt lat="43.3121144569644" lon="11.340376450741996"><ele>284.5</ele><time>2026-04-11T09:33:14Z</time></trkpt><trkpt lat="43.31205297239712" lon="11.340329629631421"><ele>285.0</ele><time>2026-04-11T09:33:17Z</time></trkpt><trkpt lat="43.311976867992115" lon="11.340280808093327"><ele>285.5</ele><time>2026-04-11T09:33:21Z</time></trkpt><trkpt lat="43.31191550386547" lon="11.340214998674394"><ele>286.0</ele><time>2026-04-11T09:33:25Z</time></trkpt><trkpt lat="43.31189345604357" lon="11.340128087457522"><ele>286.5</ele><time>2026-04-11T09:33:28Z</time></trkpt><trkpt lat="43.31187487760744" lon="11.340022845148034"><ele>287.0</ele><time>2026-04-11T09:33:32Z</time></trkpt><trkpt lat="43.311850074728454" lon="11.339902400701149"><ele>287.0</ele><time>2026-04-11T09:33:36Z</time></trkpt><trkpt lat="43.31183354177275" lon="11.339816925994958"><ele>287.0</ele><time>2026-04-11T09:33:39Z</time></trkpt><trkpt lat="43.31182131917802" lon="11.33971640888726"><ele>287.0</ele><time>2026-04-11T09:33:42Z</time></trkpt><trkpt lat="43.31181447989362" lon="11.33962872204187"><ele>287.0</ele><time>2026-04-11T09:33:45Z</time></trkpt><trkpt lat="43.31179450053625" lon="11.339522265075868"><ele>287.0</ele><time>2026-04-11T09:33:48Z</time></trkpt><trkpt lat="43.31178002852916" lon="11.339430037333948"><ele>287.0</ele><time>2026-04-11T09:33:51Z</time></trkpt><trkpt lat="43.3117661527078" lon="11.339321201920173"><ele>287.0</ele><time>2026-04-11T09:33:55Z</time></trkpt><trkpt lat="43.31170139823294" lon="11.339313927254693"><ele>287.0</ele><time>2026-04-11T09:33:56Z</time></trkpt><trkpt lat="43.31159303797887" lon="11.339319257334775"><ele>287.0</ele><time>2026-04-11T09:33:58Z</time></trkpt><trkpt lat="43.311526429681415" lon="11.339342573749821"><ele>287.0</ele><time>2026-04-11T09:33:59Z</time></trkpt><trkpt lat="43.31140611515925" lon="11.339364587866562"><ele>287.0</ele><time>2026-04-11T09:34:01Z</time></trkpt><trkpt lat="43.31133961740829" lon="11.339323955594766"><ele>287.0</ele><time>2026-04-11T09:34:02Z</time></trkpt><trkpt lat="43.31121585684673" lon="11.339320968937239"><ele>287.0</ele><time>2026-04-11T09:34:04Z</time></trkpt><trkpt lat="43.31107672448849" lon="11.339318899502395"><ele>287.0</ele><time>2026-04-11T09:34:06Z</time></trkpt><trkpt lat="43.311002640648454" lon="11.339317413428924"><ele>287.0</ele><time>2026-04-11T09:34:07Z</time></trkpt><trkpt lat="43.310930055022055" lon="11.339315294984697"><ele>287.0</ele><time>2026-04-11T09:34:08Z</time></trkpt><trkpt lat="43.310856526988815" lon="11.339311288775267"><ele>287.0</ele><time>2026-04-11T09:34:09Z</time></trkpt><trkpt lat="43.310739497497984" lon="11.339302986296431"><ele>287.0</ele><time>2026-04-11T09:34:11Z</time></trkpt><trkpt lat="43.310673466907154" lon="11.339294102680537"><ele>287.0</ele><time>2026-04-11T09:34:12Z</time></trkpt><trkpt lat="43.310594816393916" lon="11.339282399864944"><ele>287.0</ele><time>2026-04-11T09:34:13Z</time></trkpt><trkpt lat="43.31046956758122" lon="11.339257158436157"><ele>287.0</ele><time>2026-04-11T09:34:15Z</time></trkpt><trkpt lat="43.31039932768884" lon="11.339243465425833"><ele>287.0</ele><time>2026-04-11T09:34:16Z</time></trkpt><trkpt lat="43.31032426647651" lon="11.339223009515663"><ele>287.0</ele><time>2026-04-11T09:34:17Z</time></trkpt><trkpt lat="43.310252735458334" lon="11.339218055354339"><ele>286.5</ele><time>2026-04-11T09:34:18Z</time></trkpt><trkpt lat="43.310179528840976" lon="11.339187283896619"><ele>286.0</ele><time>2026-04-11T09:34:19Z</time></trkpt><trkpt lat="43.31010965241781" lon="11.339174011075754"><ele>285.5</ele><time>2026-04-11T09:34:19.999Z</time></trkpt><trkpt lat="43.31003716625548" lon="11.339167203656016"><ele>285.0</ele><time>2026-04-11T09:34:20.999Z</time></trkpt><trkpt lat="43.30992418506039" lon="11.339099715124068"><ele>284.5</ele><time>2026-04-11T09:34:22.999Z</time></trkpt><trkpt lat="43.30983227542208" lon="11.339083212459203"><ele>284.0</ele><time>2026-04-11T09:34:23.999Z</time></trkpt><trkpt lat="43.309764117419434" lon="11.33906319075254"><ele>283.5</ele><time>2026-04-11T09:34:24.999Z</time></trkpt><trkpt lat="43.30968655888856" lon="11.339039460995071"><ele>283.0</ele><time>2026-04-11T09:34:25.999Z</time></trkpt><trkpt lat="43.30959480876609" lon="11.339027500129843"><ele>282.5</ele><time>2026-04-11T09:34:26.999Z</time></trkpt><trkpt lat="43.30952141816173" lon="11.33902214594978"><ele>282.0</ele><time>2026-04-11T09:34:27.999Z</time></trkpt><trkpt lat="43.309445105685505" lon="11.33903836030438"><ele>281.5</ele><time>2026-04-11T09:34:28.999Z</time></trkpt><trkpt lat="43.30937186485773" lon="11.339021311000492"><ele>281.0</ele><time>2026-04-11T09:34:29.999Z</time></trkpt><trkpt lat="43.309289734774964" lon="11.339019770208784"><ele>281.0</ele><time>2026-04-11T09:34:30.999Z</time></trkpt><trkpt lat="43.30920907470714" lon="11.339016640195416"><ele>281.0</ele><time>2026-04-11T09:34:31.999Z</time></trkpt><trkpt lat="43.30913241730002" lon="11.3390041473802"><ele>281.0</ele><time>2026-04-11T09:34:32.999Z</time></trkpt><trkpt lat="43.30906290866464" lon="11.338990744585615"><ele>281.0</ele><time>2026-04-11T09:34:33.999Z</time></trkpt><trkpt lat="43.30898559685464" lon="11.338995996552077"><ele>281.0</ele><time>2026-04-11T09:34:34.999Z</time></trkpt><trkpt lat="43.30890984286052" lon="11.339008226958825"><ele>281.0</ele><time>2026-04-11T09:34:35.999Z</time></trkpt><trkpt lat="43.30883912593751" lon="11.339002330380918"><ele>280.0</ele><time>2026-04-11T09:34:36.999Z</time></trkpt><trkpt lat="43.30876705009482" lon="11.33897905859211"><ele>279.0</ele><time>2026-04-11T09:34:37.999Z</time></trkpt><trkpt lat="43.30868399880594" lon="11.338974461535276"><ele>278.0</ele><time>2026-04-11T09:34:38.999Z</time></trkpt><trkpt lat="43.308605599268375" lon="11.33897262589656"><ele>277.0</ele><time>2026-04-11T09:34:39.999Z</time></trkpt><trkpt lat="43.30852827076965" lon="11.338960555303421"><ele>276.0</ele><time>2026-04-11T09:34:40.999Z</time></trkpt><trkpt lat="43.308452311897064" lon="11.33894340940693"><ele>275.0</ele><time>2026-04-11T09:34:41.999Z</time></trkpt><trkpt lat="43.308376284644304" lon="11.338946324324812"><ele>275.0</ele><time>2026-04-11T09:34:42.999Z</time></trkpt><trkpt lat="43.30824845474309" lon="11.338924876335382"><ele>275.0</ele><time>2026-04-11T09:34:44.999Z</time></trkpt><trkpt lat="43.308121112897204" lon="11.338938021390486"><ele>275.0</ele><time>2026-04-11T09:34:46.999Z</time></trkpt><trkpt lat="43.308048621674374" lon="11.33894788934256"><ele>275.0</ele><time>2026-04-11T09:34:47.999Z</time></trkpt><trkpt lat="43.30797487888644" lon="11.33895868569214"><ele>275.0</ele><time>2026-04-11T09:34:48.999Z</time></trkpt><trkpt lat="43.307853613170685" lon="11.338949054558412"><ele>276.1666666666667</ele><time>2026-04-11T09:34:50.999Z</time></trkpt><trkpt lat="43.307785026845536" lon="11.338962918086727"><ele>277.33333333333337</ele><time>2026-04-11T09:34:51.999Z</time></trkpt><trkpt lat="43.30772374219349" lon="11.33898429859567"><ele>278.5</ele><time>2026-04-11T09:34:52.999Z</time></trkpt><trkpt lat="43.307614798095976" lon="11.339017787649484"><ele>279.6666666666667</ele><time>2026-04-11T09:34:54.999Z</time></trkpt><trkpt lat="43.30754635709701" lon="11.3390285106286"><ele>280.8333333333333</ele><time>2026-04-11T09:34:55.999Z</time></trkpt><trkpt lat="43.30744689533617" lon="11.339068914086019"><ele>282.0</ele><time>2026-04-11T09:34:57.999Z</time></trkpt><trkpt lat="43.30733800631216" lon="11.339096797325015"><ele>282.0</ele><time>2026-04-11T09:34:59.999Z</time></trkpt><trkpt lat="43.30724625794245" lon="11.33913354881596"><ele>282.0</ele><time>2026-04-11T09:35:01.999Z</time></trkpt><trkpt lat="43.307134889947946" lon="11.339158315859578"><ele>282.0</ele><time>2026-04-11T09:35:03.999Z</time></trkpt><trkpt lat="43.30706571228236" lon="11.339173450133302"><ele>282.0</ele><time>2026-04-11T09:35:04.999Z</time></trkpt><trkpt lat="43.306993576600554" lon="11.339181935016168"><ele>282.0</ele><time>2026-04-11T09:35:05.999Z</time></trkpt><trkpt lat="43.306925828320246" lon="11.339183877251214"><ele>282.0</ele><time>2026-04-11T09:35:06.999Z</time></trkpt><trkpt lat="43.3068095862405" lon="11.339162506768451"><ele>281.8571428571429</ele><time>2026-04-11T09:35:08.999Z</time></trkpt><trkpt lat="43.30674144859165" lon="11.339150206914377"><ele>281.7142857142857</ele><time>2026-04-11T09:35:09.999Z</time></trkpt><trkpt lat="43.30667543126731" lon="11.33915982560809"><ele>281.57142857142856</ele><time>2026-04-11T09:35:10.999Z</time></trkpt><trkpt lat="43.306611220199486" lon="11.339121075438822"><ele>281.42857142857144</ele><time>2026-04-11T09:35:12Z</time></trkpt><trkpt lat="43.3065394055837" lon="11.339099847005913"><ele>281.2857142857143</ele><time>2026-04-11T09:35:13Z</time></trkpt><trkpt lat="43.30647572375792" lon="11.339075883054688"><ele>281.14285714285717</ele><time>2026-04-11T09:35:14Z</time></trkpt><trkpt lat="43.30641063563573" lon="11.339042212707001"><ele>281.0</ele><time>2026-04-11T09:35:15Z</time></trkpt><trkpt lat="43.30630939500047" lon="11.338978956965013"><ele>280.8</ele><time>2026-04-11T09:35:17Z</time></trkpt><trkpt lat="43.30619814974491" lon="11.338885501819366"><ele>280.6</ele><time>2026-04-11T09:35:19Z</time></trkpt><trkpt lat="43.306147404283344" lon="11.338833388915269"><ele>280.4</ele><time>2026-04-11T09:35:20Z</time></trkpt><trkpt lat="43.30605170898914" lon="11.338736938783583"><ele>280.2</ele><time>2026-04-11T09:35:22Z</time></trkpt><trkpt lat="43.30600893839623" lon="11.338656269639802"><ele>280.0</ele><time>2026-04-11T09:35:23Z</time></trkpt><trkpt lat="43.30596285332064" lon="11.33859272913848"><ele>280.0</ele><time>2026-04-11T09:35:24Z</time></trkpt><trkpt lat="43.30587138900034" lon="11.338471154235773"><ele>280.0</ele><time>2026-04-11T09:35:26Z</time></trkpt><trkpt lat="43.305816004207635" lon="11.338413668474885"><ele>280.0</ele><time>2026-04-11T09:35:27Z</time></trkpt><trkpt lat="43.30577084783735" lon="11.338345704306693"><ele>280.0</ele><time>2026-04-11T09:35:28Z</time></trkpt><trkpt lat="43.305720047971256" lon="11.338278775434997"><ele>280.0</ele><time>2026-04-11T09:35:29Z</time></trkpt><trkpt lat="43.30566872009579" lon="11.338218890545646"><ele>280.0</ele><time>2026-04-11T09:35:30Z</time></trkpt><trkpt lat="43.30561743325523" lon="11.338150864308316"><ele>280.14285714285717</ele><time>2026-04-11T09:35:31Z</time></trkpt><trkpt lat="43.30556422475212" lon="11.338091178283554"><ele>280.2857142857143</ele><time>2026-04-11T09:35:32Z</time></trkpt><trkpt lat="43.30551535549654" lon="11.338029584532288"><ele>280.42857142857144</ele><time>2026-04-11T09:35:33Z</time></trkpt><trkpt lat="43.305462975471904" lon="11.33796485294748"><ele>280.57142857142856</ele><time>2026-04-11T09:35:34Z</time></trkpt><trkpt lat="43.30542046596838" lon="11.337886340682214"><ele>280.7142857142857</ele><time>2026-04-11T09:35:35Z</time></trkpt><trkpt lat="43.30537122791002" lon="11.337821863891977"><ele>280.8571428571429</ele><time>2026-04-11T09:35:36Z</time></trkpt><trkpt lat="43.305319857789954" lon="11.337761549713044"><ele>281.0</ele><time>2026-04-11T09:35:37Z</time></trkpt><trkpt lat="43.30526325002739" lon="11.337696069589061"><ele>280.6666666666667</ele><time>2026-04-11T09:35:38Z</time></trkpt><trkpt lat="43.305207988164284" lon="11.337627494256553"><ele>280.33333333333337</ele><time>2026-04-11T09:35:39Z</time></trkpt><trkpt lat="43.30515046853639" lon="11.337560567418745"><ele>280.0</ele><time>2026-04-11T09:35:40Z</time></trkpt><trkpt lat="43.305083684188816" lon="11.337508195444517"><ele>279.6666666666667</ele><time>2026-04-11T09:35:41Z</time></trkpt><trkpt lat="43.30500589088834" lon="11.337459941100892"><ele>279.3333333333333</ele><time>2026-04-11T09:35:42Z</time></trkpt><trkpt lat="43.30492679431692" lon="11.33742915073217"><ele>279.0</ele><time>2026-04-11T09:35:43Z</time></trkpt><trkpt lat="43.30484367126641" lon="11.337377484241609"><ele>279.0</ele><time>2026-04-11T09:35:44Z</time></trkpt><trkpt lat="43.304765400728684" lon="11.337328053543034"><ele>279.0</ele><time>2026-04-11T09:35:45Z</time></trkpt><trkpt lat="43.30468400767845" lon="11.33728036690521"><ele>279.0</ele><time>2026-04-11T09:35:46Z</time></trkpt><trkpt lat="43.30460993555255" lon="11.337220974918644"><ele>279.0</ele><time>2026-04-11T09:35:47Z</time></trkpt><trkpt lat="43.30453904908616" lon="11.337150473901445"><ele>279.0</ele><time>2026-04-11T09:35:48Z</time></trkpt><trkpt lat="43.30447098665123" lon="11.3370941910947"><ele>279.0</ele><time>2026-04-11T09:35:49Z</time></trkpt><trkpt lat="43.304384755500045" lon="11.337039756838795"><ele>277.6666666666667</ele><time>2026-04-11T09:35:50Z</time></trkpt><trkpt lat="43.30430434784171" lon="11.336995669666386"><ele>276.3333333333333</ele><time>2026-04-11T09:35:51Z</time></trkpt><trkpt lat="43.304210442178324" lon="11.336968265593208"><ele>275.0</ele><time>2026-04-11T09:35:52Z</time></trkpt><trkpt lat="43.30411872560229" lon="11.336946087270078"><ele>273.66666666666663</ele><time>2026-04-11T09:35:53Z</time></trkpt><trkpt lat="43.304031735895876" lon="11.336952494439146"><ele>272.3333333333333</ele><time>2026-04-11T09:35:54Z</time></trkpt><trkpt lat="43.303954843279136" lon="11.336966083781023"><ele>271.0</ele><time>2026-04-11T09:35:55Z</time></trkpt><trkpt lat="43.303866207240695" lon="11.337015551186568"><ele>269.2</ele><time>2026-04-11T09:35:56Z</time></trkpt><trkpt lat="43.30378964656343" lon="11.337068458032482"><ele>267.40000000000003</ele><time>2026-04-11T09:35:57Z</time></trkpt><trkpt lat="43.30370548166436" lon="11.33711527469761"><ele>265.6</ele><time>2026-04-11T09:35:58Z</time></trkpt><trkpt lat="43.30361521303861" lon="11.33713642322463"><ele>263.8</ele><time>2026-04-11T09:35:59Z</time></trkpt><trkpt lat="43.30352456467357" lon="11.337166014804723"><ele>262.0</ele><time>2026-04-11T09:36:00Z</time></trkpt><trkpt lat="43.30343709190804" lon="11.33720636824651"><ele>263.0</ele><time>2026-04-11T09:36:01Z</time></trkpt><trkpt lat="43.30335165646224" lon="11.33725089270478"><ele>264.0</ele><time>2026-04-11T09:36:02Z</time></trkpt><trkpt lat="43.30327056387413" lon="11.337288141792786"><ele>265.0</ele><time>2026-04-11T09:36:03Z</time></trkpt><trkpt lat="43.30317829331719" lon="11.337313869824797"><ele>266.0</ele><time>2026-04-11T09:36:04Z</time></trkpt><trkpt lat="43.3030996826958" lon="11.337360208804984"><ele>267.0</ele><time>2026-04-11T09:36:05Z</time></trkpt><trkpt lat="43.30301852775231" lon="11.337415989911532"><ele>268.0</ele><time>2026-04-11T09:36:06Z</time></trkpt><trkpt lat="43.30293944692908" lon="11.337472825040075"><ele>268.0</ele><time>2026-04-11T09:36:07Z</time></trkpt><trkpt lat="43.302852837251976" lon="11.33750795883276"><ele>268.0</ele><time>2026-04-11T09:36:08Z</time></trkpt><trkpt lat="43.30277023846779" lon="11.337562737134304"><ele>268.0</ele><time>2026-04-11T09:36:09Z</time></trkpt><trkpt lat="43.302689473180834" lon="11.337633987163176"><ele>268.0</ele><time>2026-04-11T09:36:10Z</time></trkpt><trkpt lat="43.30260730443356" lon="11.337696838579385"><ele>268.0</ele><time>2026-04-11T09:36:11Z</time></trkpt><trkpt lat="43.302522763626946" lon="11.337780610310432"><ele>268.0</ele><time>2026-04-11T09:36:12Z</time></trkpt><trkpt lat="43.302423526860196" lon="11.337845741988415"><ele>268.0</ele><time>2026-04-11T09:36:13Z</time></trkpt><trkpt lat="43.30232328429144" lon="11.337870524336632"><ele>268.0</ele><time>2026-04-11T09:36:14Z</time></trkpt><trkpt lat="43.30221410307376" lon="11.337886537322797"><ele>268.0</ele><time>2026-04-11T09:36:15Z</time></trkpt><trkpt lat="43.30210666498768" lon="11.33791699138772"><ele>268.0</ele><time>2026-04-11T09:36:16Z</time></trkpt><trkpt lat="43.301997128572665" lon="11.337953000215684"><ele>265.6</ele><time>2026-04-11T09:36:17Z</time></trkpt><trkpt lat="43.30188589167125" lon="11.337982244905602"><ele>263.20000000000005</ele><time>2026-04-11T09:36:18Z</time></trkpt><trkpt lat="43.30177625294139" lon="11.337995213739825"><ele>260.8</ele><time>2026-04-11T09:36:19Z</time></trkpt><trkpt lat="43.30166603615953" lon="11.337995986618878"><ele>258.40000000000003</ele><time>2026-04-11T09:36:20Z</time></trkpt><trkpt lat="43.30155661577021" lon="11.337990247896203"><ele>256.0</ele><time>2026-04-11T09:36:21Z</time></trkpt><trkpt lat="43.30144565229094" lon="11.337974311028272"><ele>255.4</ele><time>2026-04-11T09:36:22Z</time></trkpt><trkpt lat="43.30135123223243" lon="11.337921963556314"><ele>254.8</ele><time>2026-04-11T09:36:23Z</time></trkpt><trkpt lat="43.301252100869384" lon="11.33787065247493"><ele>254.20000000000002</ele><time>2026-04-11T09:36:24Z</time></trkpt><trkpt lat="43.30115657573462" lon="11.337821214850344"><ele>253.60000000000002</ele><time>2026-04-11T09:36:25Z</time></trkpt><trkpt lat="43.30107163117385" lon="11.337752458044479"><ele>253.0</ele><time>2026-04-11T09:36:26Z</time></trkpt><trkpt lat="43.30099460691296" lon="11.337677277099164"><ele>253.0</ele><time>2026-04-11T09:36:26.999Z</time></trkpt><trkpt lat="43.300906467873155" lon="11.337617037048558"><ele>253.0</ele><time>2026-04-11T09:36:27.999Z</time></trkpt><trkpt lat="43.30082662343702" lon="11.337548805750192"><ele>253.0</ele><time>2026-04-11T09:36:28.999Z</time></trkpt><trkpt lat="43.300747343292564" lon="11.33748213087855"><ele>253.0</ele><time>2026-04-11T09:36:29.999Z</time></trkpt><trkpt lat="43.30066675780539" lon="11.337420477442095"><ele>253.0</ele><time>2026-04-11T09:36:30.999Z</time></trkpt><trkpt lat="43.30058860101349" lon="11.337359921718809"><ele>253.2</ele><time>2026-04-11T09:36:31.999Z</time></trkpt><trkpt lat="43.30050506462452" lon="11.337313436867905"><ele>253.4</ele><time>2026-04-11T09:36:32.999Z</time></trkpt><trkpt lat="43.30042302159814" lon="11.337272577865331"><ele>253.59999999999997</ele><time>2026-04-11T09:36:33.999Z</time></trkpt><trkpt lat="43.30034093940578" lon="11.337235097313053"><ele>253.79999999999998</ele><time>2026-04-11T09:36:34.999Z</time></trkpt><trkpt lat="43.30025055424826" lon="11.337196224501376"><ele>254.0</ele><time>2026-04-11T09:36:35.999Z</time></trkpt><trkpt lat="43.30015630287615" lon="11.337195492012288"><ele>253.00000000000003</ele><time>2026-04-11T09:36:36.999Z</time></trkpt><trkpt lat="43.300064426527804" lon="11.337180139110554"><ele>252.0</ele><time>2026-04-11T09:36:37.999Z</time></trkpt><trkpt lat="43.29997693991334" lon="11.337167039772037"><ele>251.0</ele><time>2026-04-11T09:36:38.999Z</time></trkpt><trkpt lat="43.29988754407837" lon="11.337153336439856"><ele>250.0</ele><time>2026-04-11T09:36:39.999Z</time></trkpt><trkpt lat="43.29980053007178" lon="11.33711660629318"><ele>249.00000000000003</ele><time>2026-04-11T09:36:40.999Z</time></trkpt><trkpt lat="43.29972082336256" lon="11.337097498694881"><ele>248.0</ele><time>2026-04-11T09:36:41.999Z</time></trkpt><trkpt lat="43.29963318836843" lon="11.33709548380953"><ele>247.33333333333334</ele><time>2026-04-11T09:36:42.999Z</time></trkpt><trkpt lat="43.299551896090215" lon="11.337099841066895"><ele>246.66666666666669</ele><time>2026-04-11T09:36:43.999Z</time></trkpt><trkpt lat="43.29948198530181" lon="11.337121458432698"><ele>246.0</ele><time>2026-04-11T09:36:44.999Z</time></trkpt><trkpt lat="43.2993944783644" lon="11.337157175206798"><ele>245.33333333333331</ele><time>2026-04-11T09:36:45.999Z</time></trkpt><trkpt lat="43.2993052241581" lon="11.337175543985603"><ele>244.66666666666666</ele><time>2026-04-11T09:36:46.999Z</time></trkpt><trkpt lat="43.2992311303913" lon="11.33718007869463"><ele>244.0</ele><time>2026-04-11T09:36:47.999Z</time></trkpt><trkpt lat="43.29915231644068" lon="11.337201286193784"><ele>243.99999999999997</ele><time>2026-04-11T09:36:48.999Z</time></trkpt><trkpt lat="43.29907581187132" lon="11.3372102036513"><ele>244.0</ele><time>2026-04-11T09:36:49.999Z</time></trkpt><trkpt lat="43.298997509384165" lon="11.337214599239191"><ele>244.0</ele><time>2026-04-11T09:36:50.999Z</time></trkpt><trkpt lat="43.29892121618027" lon="11.337233263802215"><ele>244.0</ele><time>2026-04-11T09:36:51.999Z</time></trkpt><trkpt lat="43.29884588588268" lon="11.337289098444872"><ele>243.99999999999997</ele><time>2026-04-11T09:36:52.999Z</time></trkpt><trkpt lat="43.29877087794644" lon="11.337323475153568"><ele>244.0</ele><time>2026-04-11T09:36:53.999Z</time></trkpt><trkpt lat="43.298694062965296" lon="11.337370455458338"><ele>243.99999999999997</ele><time>2026-04-11T09:36:54.999Z</time></trkpt><trkpt lat="43.29861994048592" lon="11.337417408996348"><ele>244.0</ele><time>2026-04-11T09:36:55.999Z</time></trkpt><trkpt lat="43.29854553067518" lon="11.337478841384147"><ele>244.0</ele><time>2026-04-11T09:36:56.999Z</time></trkpt><trkpt lat="43.2984743914709" lon="11.337535292762523"><ele>244.0</ele><time>2026-04-11T09:36:57.999Z</time></trkpt><trkpt lat="43.29839996282294" lon="11.337586468764743"><ele>243.99999999999997</ele><time>2026-04-11T09:36:58.999Z</time></trkpt><trkpt lat="43.29832329556545" lon="11.337641483114975"><ele>244.0</ele><time>2026-04-11T09:36:59.999Z</time></trkpt><trkpt lat="43.29825141541122" lon="11.337718143099732"><ele>244.0</ele><time>2026-04-11T09:37:00.999Z</time></trkpt><trkpt lat="43.29817935488405" lon="11.337807708467066"><ele>243.99999999999997</ele><time>2026-04-11T09:37:01.999Z</time></trkpt><trkpt lat="43.298107943916776" lon="11.337895995461388"><ele>243.99999999999997</ele><time>2026-04-11T09:37:02.999Z</time></trkpt><trkpt lat="43.29804630560226" lon="11.337995585343467"><ele>244.0</ele><time>2026-04-11T09:37:03.999Z</time></trkpt><trkpt lat="43.297982733425066" lon="11.338096696465204"><ele>244.0</ele><time>2026-04-11T09:37:04.999Z</time></trkpt><trkpt lat="43.2979123677235" lon="11.338203725714267"><ele>243.39999999999998</ele><time>2026-04-11T09:37:05.999Z</time></trkpt><trkpt lat="43.29785245404329" lon="11.338291350292115"><ele>242.79999999999998</ele><time>2026-04-11T09:37:06.999Z</time></trkpt><trkpt lat="43.29779534968257" lon="11.338386612136127"><ele>242.20000000000002</ele><time>2026-04-11T09:37:07.999Z</time></trkpt><trkpt lat="43.29772788302387" lon="11.338474983498667"><ele>241.60000000000002</ele><time>2026-04-11T09:37:08.999Z</time></trkpt><trkpt lat="43.297657551999045" lon="11.338559676241758"><ele>241.0</ele><time>2026-04-11T09:37:09.999Z</time></trkpt><trkpt lat="43.29759455526333" lon="11.338653287098312"><ele>240.99999999999997</ele><time>2026-04-11T09:37:10.999Z</time></trkpt><trkpt lat="43.29753411051167" lon="11.338740417952302"><ele>241.0</ele><time>2026-04-11T09:37:11.999Z</time></trkpt><trkpt lat="43.2974772475085" lon="11.338831472671659"><ele>241.0</ele><time>2026-04-11T09:37:12.999Z</time></trkpt><trkpt lat="43.29740347490386" lon="11.338914614118751"><ele>241.0</ele><time>2026-04-11T09:37:13.999Z</time></trkpt><trkpt lat="43.29734640586497" lon="11.339002160438229"><ele>240.99999999999997</ele><time>2026-04-11T09:37:14.999Z</time></trkpt><trkpt lat="43.29727834081322" lon="11.339082531724426"><ele>241.0</ele><time>2026-04-11T09:37:15.999Z</time></trkpt><trkpt lat="43.297217151305915" lon="11.339151464821065"><ele>240.83333333333331</ele><time>2026-04-11T09:37:16.999Z</time></trkpt><trkpt lat="43.29715144087591" lon="11.339222845426923"><ele>240.66666666666666</ele><time>2026-04-11T09:37:18Z</time></trkpt><trkpt lat="43.297091103584215" lon="11.339306342536632"><ele>240.5</ele><time>2026-04-11T09:37:19Z</time></trkpt><trkpt lat="43.2970268361302" lon="11.339374876662808"><ele>240.33333333333331</ele><time>2026-04-11T09:37:20Z</time></trkpt><trkpt lat="43.29695715231676" lon="11.339450542435534"><ele>240.16666666666666</ele><time>2026-04-11T09:37:21Z</time></trkpt><trkpt lat="43.29690364040535" lon="11.339527459326737"><ele>240.0</ele><time>2026-04-11T09:37:22Z</time></trkpt><trkpt lat="43.29686207336763" lon="11.339621007976152"><ele>240.0</ele><time>2026-04-11T09:37:23Z</time></trkpt><trkpt lat="43.29681006022049" lon="11.339704828610365"><ele>240.0</ele><time>2026-04-11T09:37:24Z</time></trkpt><trkpt lat="43.296756028355034" lon="11.339791388054104"><ele>240.0</ele><time>2026-04-11T09:37:25Z</time></trkpt><trkpt lat="43.296704981849416" lon="11.339874983507759"><ele>240.0</ele><time>2026-04-11T09:37:26Z</time></trkpt><trkpt lat="43.29664998588334" lon="11.3399542572919"><ele>240.0</ele><time>2026-04-11T09:37:27Z</time></trkpt><trkpt lat="43.29660498393946" lon="11.340034401523239"><ele>240.0</ele><time>2026-04-11T09:37:28Z</time></trkpt><trkpt lat="43.29656305051794" lon="11.340104520644921"><ele>240.4</ele><time>2026-04-11T09:37:29Z</time></trkpt><trkpt lat="43.296518074383286" lon="11.340181305677222"><ele>240.8</ele><time>2026-04-11T09:37:30Z</time></trkpt><trkpt lat="43.29647706607398" lon="11.340258682269578"><ele>241.2</ele><time>2026-04-11T09:37:31Z</time></trkpt><trkpt lat="43.29644405941926" lon="11.340336554261468"><ele>241.6</ele><time>2026-04-11T09:37:32Z</time></trkpt><trkpt lat="43.29636569167929" lon="11.340470843773097"><ele>242.0</ele><time>2026-04-11T09:37:34Z</time></trkpt><trkpt lat="43.29631231256778" lon="11.340620127936836"><ele>242.6</ele><time>2026-04-11T09:37:36Z</time></trkpt><trkpt lat="43.29626226997753" lon="11.340756763218181"><ele>243.2</ele><time>2026-04-11T09:37:38Z</time></trkpt><trkpt lat="43.296203199732886" lon="11.340889091786352"><ele>243.8</ele><time>2026-04-11T09:37:40Z</time></trkpt><trkpt lat="43.29615195391063" lon="11.341024603841769"><ele>244.4</ele><time>2026-04-11T09:37:42Z</time></trkpt><trkpt lat="43.296110206527594" lon="11.341114582656498"><ele>245.0</ele><time>2026-04-11T09:37:44Z</time></trkpt><trkpt lat="43.29605697402975" lon="11.341202649147982"><ele>245.00000000000003</ele><time>2026-04-11T09:37:46Z</time></trkpt><trkpt lat="43.296010052436394" lon="11.341301917095167"><ele>245.0</ele><time>2026-04-11T09:37:49Z</time></trkpt><trkpt lat="43.29597582543236" lon="11.341376140663098"><ele>245.0</ele><time>2026-04-11T09:37:54Z</time></trkpt><trkpt lat="43.295944999683655" lon="11.341462125864759"><ele>245.0</ele><time>2026-04-11T09:38:00Z</time></trkpt><trkpt lat="43.295901829810134" lon="11.341560738540657"><ele>245.00000000000003</ele><time>2026-04-11T09:38:03Z</time></trkpt><trkpt lat="43.29585496949118" lon="11.34167001257937"><ele>245.0</ele><time>2026-04-11T09:38:06Z</time></trkpt><trkpt lat="43.295813612208384" lon="11.341790228284992"><ele>245.0</ele><time>2026-04-11T09:38:09Z</time></trkpt><trkpt lat="43.295762165879985" lon="11.341872595749473"><ele>245.0</ele><time>2026-04-11T09:38:11Z</time></trkpt><trkpt lat="43.2957038813507" lon="11.341970125703"><ele>245.0</ele><time>2026-04-11T09:38:13Z</time></trkpt><trkpt lat="43.295627380421074" lon="11.342069362259451"><ele>245.0</ele><time>2026-04-11T09:38:15Z</time></trkpt><trkpt lat="43.295531535745184" lon="11.342159572525821"><ele>245.0</ele><time>2026-04-11T09:38:17Z</time></trkpt><trkpt lat="43.29542935122438" lon="11.342247296731042"><ele>245.00000000000003</ele><time>2026-04-11T09:38:19Z</time></trkpt><trkpt lat="43.29537806635321" lon="11.342307414327653"><ele>245.0</ele><time>2026-04-11T09:38:20Z</time></trkpt><trkpt lat="43.295278927122204" lon="11.34241437840831"><ele>245.0</ele><time>2026-04-11T09:38:22Z</time></trkpt><trkpt lat="43.29521940824468" lon="11.342464174858167"><ele>245.0</ele><time>2026-04-11T09:38:23Z</time></trkpt><trkpt lat="43.29515971734177" lon="11.342506562551227"><ele>245.00000000000003</ele><time>2026-04-11T09:38:24Z</time></trkpt><trkpt lat="43.29508903901333" lon="11.342537747724343"><ele>245.0</ele><time>2026-04-11T09:38:25Z</time></trkpt><trkpt lat="43.295030700347226" lon="11.342586957659963"><ele>245.0</ele><time>2026-04-11T09:38:26Z</time></trkpt><trkpt lat="43.294970400494975" lon="11.342628586525162"><ele>245.0</ele><time>2026-04-11T09:38:27Z</time></trkpt><trkpt lat="43.29490295187561" lon="11.342668231379108"><ele>245.0</ele><time>2026-04-11T09:38:28Z</time></trkpt><trkpt lat="43.29483713043926" lon="11.342711859422637"><ele>245.0</ele><time>2026-04-11T09:38:28.999Z</time></trkpt><trkpt lat="43.29477663799094" lon="11.342743467577781"><ele>245.0</ele><time>2026-04-11T09:38:29.999Z</time></trkpt><trkpt lat="43.29471305561142" lon="11.342780310519895"><ele>245.0</ele><time>2026-04-11T09:38:30.999Z</time></trkpt><trkpt lat="43.294642331747404" lon="11.342813060176898"><ele>245.0</ele><time>2026-04-11T09:38:31.999Z</time></trkpt><trkpt lat="43.29457380325601" lon="11.342847781104226"><ele>244.85714285714286</ele><time>2026-04-11T09:38:32.999Z</time></trkpt><trkpt lat="43.29451259385263" lon="11.342881449518686"><ele>244.71428571428572</ele><time>2026-04-11T09:38:33.999Z</time></trkpt><trkpt lat="43.29444924442851" lon="11.342916318616226"><ele>244.57142857142856</ele><time>2026-04-11T09:38:34.999Z</time></trkpt><trkpt lat="43.294383444842644" lon="11.342946826353927"><ele>244.42857142857142</ele><time>2026-04-11T09:38:35.999Z</time></trkpt><trkpt lat="43.294314996169355" lon="11.34297685180021"><ele>244.28571428571428</ele><time>2026-04-11T09:38:36.999Z</time></trkpt><trkpt lat="43.294245795775865" lon="11.343005484071433"><ele>244.1428571428571</ele><time>2026-04-11T09:38:37.999Z</time></trkpt><trkpt lat="43.294180240200966" lon="11.34303255500978"><ele>243.99999999999997</ele><time>2026-04-11T09:38:38.999Z</time></trkpt><trkpt lat="43.29410773150804" lon="11.343054992545472"><ele>243.99999999999997</ele><time>2026-04-11T09:38:39.999Z</time></trkpt><trkpt lat="43.29403767960991" lon="11.343070237225401"><ele>244.0</ele><time>2026-04-11T09:38:40.999Z</time></trkpt><trkpt lat="43.29396025971204" lon="11.343088960640163"><ele>243.99999999999997</ele><time>2026-04-11T09:38:41.999Z</time></trkpt><trkpt lat="43.293892659399766" lon="11.343108541966064"><ele>243.99999999999997</ele><time>2026-04-11T09:38:42.999Z</time></trkpt><trkpt lat="43.29382109064358" lon="11.343125549396294"><ele>244.0</ele><time>2026-04-11T09:38:43.999Z</time></trkpt><trkpt lat="43.293749609456505" lon="11.343145215155667"><ele>243.99999999999997</ele><time>2026-04-11T09:38:44.999Z</time></trkpt><trkpt lat="43.293674377013474" lon="11.343166673093442"><ele>243.99999999999997</ele><time>2026-04-11T09:38:45.999Z</time></trkpt><trkpt lat="43.293599133093984" lon="11.343187699982856"><ele>243.85714285714283</ele><time>2026-04-11T09:38:46.999Z</time></trkpt><trkpt lat="43.29353208602137" lon="11.343204496694378"><ele>243.71428571428572</ele><time>2026-04-11T09:38:47.999Z</time></trkpt><trkpt lat="43.29346350816262" lon="11.343231430703193"><ele>243.57142857142856</ele><time>2026-04-11T09:38:48.999Z</time></trkpt><trkpt lat="43.29338924734014" lon="11.343248656648589"><ele>243.42857142857142</ele><time>2026-04-11T09:38:49.999Z</time></trkpt><trkpt lat="43.29331997760988" lon="11.343259964074964"><ele>243.28571428571428</ele><time>2026-04-11T09:38:50.999Z</time></trkpt><trkpt lat="43.29325118644575" lon="11.343272078780766"><ele>243.14285714285714</ele><time>2026-04-11T09:38:51.999Z</time></trkpt><trkpt lat="43.29318204061015" lon="11.343292411672586"><ele>243.0</ele><time>2026-04-11T09:38:52.999Z</time></trkpt><trkpt lat="43.29311567934314" lon="11.343308543115665"><ele>243.66666666666666</ele><time>2026-04-11T09:38:53.999Z</time></trkpt><trkpt lat="43.293051007323385" lon="11.343328671731724"><ele>244.33333333333331</ele><time>2026-04-11T09:38:54.999Z</time></trkpt><trkpt lat="43.292985556529494" lon="11.34334681003917"><ele>245.0</ele><time>2026-04-11T09:38:55.999Z</time></trkpt><trkpt lat="43.292918017624984" lon="11.343370497107415"><ele>245.66666666666666</ele><time>2026-04-11T09:38:56.999Z</time></trkpt><trkpt lat="43.292855090486185" lon="11.343385622809569"><ele>246.33333333333331</ele><time>2026-04-11T09:38:57.999Z</time></trkpt><trkpt lat="43.29279312693096" lon="11.343420910281234"><ele>247.0</ele><time>2026-04-11T09:38:58.999Z</time></trkpt><trkpt lat="43.292675300448586" lon="11.343466766076423"><ele>247.0</ele><time>2026-04-11T09:39:00.999Z</time></trkpt><trkpt lat="43.292613373541045" lon="11.34348700845308"><ele>247.0</ele><time>2026-04-11T09:39:01.999Z</time></trkpt><trkpt lat="43.292498403582805" lon="11.343533542830215"><ele>247.0</ele><time>2026-04-11T09:39:03.999Z</time></trkpt><trkpt lat="43.29242243299371" lon="11.343542301429366"><ele>247.0</ele><time>2026-04-11T09:39:04.999Z</time></trkpt><trkpt lat="43.29232671918322" lon="11.343596464606913"><ele>247.0</ele><time>2026-04-11T09:39:06.999Z</time></trkpt><trkpt lat="43.292218185343174" lon="11.343639340920994"><ele>246.39999999999998</ele><time>2026-04-11T09:39:08.999Z</time></trkpt><trkpt lat="43.292097038871965" lon="11.343668879724696"><ele>245.79999999999998</ele><time>2026-04-11T09:39:10.999Z</time></trkpt><trkpt lat="43.29202887978198" lon="11.343684806631092"><ele>245.2</ele><time>2026-04-11T09:39:11.999Z</time></trkpt><trkpt lat="43.29191344260548" lon="11.343719332672409"><ele>244.6</ele><time>2026-04-11T09:39:13.999Z</time></trkpt><trkpt lat="43.29181440681367" lon="11.343747567118495"><ele>244.0</ele><time>2026-04-11T09:39:15.999Z</time></trkpt><trkpt lat="43.2916969869834" lon="11.343767019976177"><ele>244.0</ele><time>2026-04-11T09:39:17.999Z</time></trkpt><trkpt lat="43.291587252199584" lon="11.343789883960262"><ele>244.0</ele><time>2026-04-11T09:39:19.999Z</time></trkpt><trkpt lat="43.291479395305046" lon="11.343827185292016"><ele>244.0</ele><time>2026-04-11T09:39:21.999Z</time></trkpt><trkpt lat="43.29136047561359" lon="11.343860901378465"><ele>244.0</ele><time>2026-04-11T09:39:24Z</time></trkpt><trkpt lat="43.291237682099805" lon="11.343860092183101"><ele>244.0</ele><time>2026-04-11T09:39:26Z</time></trkpt><trkpt lat="43.29112262284174" lon="11.343848296351906"><ele>243.99999999999997</ele><time>2026-04-11T09:39:28Z</time></trkpt><trkpt lat="43.291058715541574" lon="11.343842031987853"><ele>243.99999999999997</ele><time>2026-04-11T09:39:29Z</time></trkpt><trkpt lat="43.290990723132076" lon="11.343879315261077"><ele>244.0</ele><time>2026-04-11T09:39:30Z</time></trkpt><trkpt lat="43.29086972313646" lon="11.343883091478997"><ele>244.0</ele><time>2026-04-11T09:39:32Z</time></trkpt><trkpt lat="43.29074479770208" lon="11.343877396138426"><ele>244.0</ele><time>2026-04-11T09:39:34Z</time></trkpt><trkpt lat="43.29063591211126" lon="11.343880907476699"><ele>243.99999999999997</ele><time>2026-04-11T09:39:36Z</time></trkpt><trkpt lat="43.290513078219725" lon="11.343877510363868"><ele>243.99999999999997</ele><time>2026-04-11T09:39:38Z</time></trkpt><trkpt lat="43.290403077008996" lon="11.343879343030167"><ele>244.0</ele><time>2026-04-11T09:39:40Z</time></trkpt><trkpt lat="43.29033128680183" lon="11.34385756082514"><ele>244.0</ele><time>2026-04-11T09:39:41Z</time></trkpt><trkpt lat="43.29023287163848" lon="11.343813228020096"><ele>244.6</ele><time>2026-04-11T09:39:43Z</time></trkpt><trkpt lat="43.2901120966235" lon="11.343786851697708"><ele>245.2</ele><time>2026-04-11T09:39:45Z</time></trkpt><trkpt lat="43.29000672614012" lon="11.343758722955185"><ele>245.79999999999998</ele><time>2026-04-11T09:39:47Z</time></trkpt><trkpt lat="43.28991174399661" lon="11.343723276047031"><ele>246.39999999999998</ele><time>2026-04-11T09:39:49Z</time></trkpt><trkpt lat="43.28980979473314" lon="11.343713606699026"><ele>247.0</ele><time>2026-04-11T09:39:51Z</time></trkpt><trkpt lat="43.28971666391931" lon="11.34369425673378"><ele>247.2</ele><time>2026-04-11T09:39:53Z</time></trkpt><trkpt lat="43.28962256766907" lon="11.343693883275295"><ele>247.39999999999998</ele><time>2026-04-11T09:39:55Z</time></trkpt><trkpt lat="43.2895275642585" lon="11.343694890405303"><ele>247.60000000000002</ele><time>2026-04-11T09:39:57Z</time></trkpt><trkpt lat="43.289444099152504" lon="11.343706847057843"><ele>247.8</ele><time>2026-04-11T09:39:59Z</time></trkpt><trkpt lat="43.289356690546704" lon="11.343729552672189"><ele>248.0</ele><time>2026-04-11T09:40:01Z</time></trkpt><trkpt lat="43.28926814967908" lon="11.34376878694905"><ele>248.0</ele><time>2026-04-11T09:40:03Z</time></trkpt><trkpt lat="43.28917450892456" lon="11.343771207930118"><ele>248.0</ele><time>2026-04-11T09:40:05Z</time></trkpt><trkpt lat="43.28907355023448" lon="11.343782801913433"><ele>248.0</ele><time>2026-04-11T09:40:07Z</time></trkpt><trkpt lat="43.2889727415236" lon="11.343812410485656"><ele>248.0</ele><time>2026-04-11T09:40:09Z</time></trkpt><trkpt lat="43.28886291850426" lon="11.343851081039311"><ele>248.0</ele><time>2026-04-11T09:40:11Z</time></trkpt><trkpt lat="43.28873945281833" lon="11.343884137894637"><ele>247.50000000000003</ele><time>2026-04-11T09:40:13Z</time></trkpt><trkpt lat="43.2886135124379" lon="11.343907277683323"><ele>247.0</ele><time>2026-04-11T09:40:15Z</time></trkpt><trkpt lat="43.28853222133744" lon="11.343919993746225"><ele>246.5</ele><time>2026-04-11T09:40:16Z</time></trkpt><trkpt lat="43.288469004121005" lon="11.343937360024665"><ele>246.0</ele><time>2026-04-11T09:40:17Z</time></trkpt><trkpt lat="43.28840494406056" lon="11.343951521648682"><ele>245.50000000000003</ele><time>2026-04-11T09:40:18Z</time></trkpt><trkpt lat="43.28833878434304" lon="11.343974934997462"><ele>245.0</ele><time>2026-04-11T09:40:19Z</time></trkpt><trkpt lat="43.288270759359115" lon="11.34399185929633"><ele>245.0</ele><time>2026-04-11T09:40:20Z</time></trkpt><trkpt lat="43.28819999346026" lon="11.344008767796744"><ele>245.0</ele><time>2026-04-11T09:40:21Z</time></trkpt><trkpt lat="43.28813068405415" lon="11.344040589061228"><ele>245.0</ele><time>2026-04-11T09:40:21.999Z</time></trkpt><trkpt lat="43.2880646598726" lon="11.344068807771261"><ele>245.0</ele><time>2026-04-11T09:40:22.999Z</time></trkpt><trkpt lat="43.28799529291983" lon="11.344095159276435"><ele>245.0</ele><time>2026-04-11T09:40:23.999Z</time></trkpt><trkpt lat="43.28793162125809" lon="11.344125451597295"><ele>245.0</ele><time>2026-04-11T09:40:24.999Z</time></trkpt><trkpt lat="43.28786106619852" lon="11.344161102100948"><ele>245.0</ele><time>2026-04-11T09:40:25.999Z</time></trkpt><trkpt lat="43.28779436299869" lon="11.344194240481476"><ele>245.42857142857144</ele><time>2026-04-11T09:40:26.999Z</time></trkpt><trkpt lat="43.28773947256359" lon="11.344261828567415"><ele>245.85714285714286</ele><time>2026-04-11T09:40:27.999Z</time></trkpt><trkpt lat="43.287683978015615" lon="11.344333236250167"><ele>246.28571428571428</ele><time>2026-04-11T09:40:28.999Z</time></trkpt><trkpt lat="43.28762418799016" lon="11.344377944456854"><ele>246.71428571428572</ele><time>2026-04-11T09:40:29.999Z</time></trkpt><trkpt lat="43.28758305413704" lon="11.344445914696708"><ele>247.14285714285717</ele><time>2026-04-11T09:40:30.999Z</time></trkpt><trkpt lat="43.287527171574865" lon="11.344513453019458"><ele>247.57142857142858</ele><time>2026-04-11T09:40:31.999Z</time></trkpt><trkpt lat="43.28747471858719" lon="11.344576309477041"><ele>248.0</ele><time>2026-04-11T09:40:32.999Z</time></trkpt><trkpt lat="43.28742302495947" lon="11.344644428824688"><ele>248.0</ele><time>2026-04-11T09:40:33.999Z</time></trkpt><trkpt lat="43.287375508182485" lon="11.34470562190464"><ele>248.00000000000003</ele><time>2026-04-11T09:40:34.999Z</time></trkpt><trkpt lat="43.28731546013515" lon="11.344785592862646"><ele>248.0</ele><time>2026-04-11T09:40:35.999Z</time></trkpt><trkpt lat="43.287264291440565" lon="11.344856786924447"><ele>248.0</ele><time>2026-04-11T09:40:36.999Z</time></trkpt><trkpt lat="43.28721727510396" lon="11.344931093207782"><ele>248.00000000000003</ele><time>2026-04-11T09:40:37.999Z</time></trkpt><trkpt lat="43.28717272208271" lon="11.345010655004758"><ele>248.0</ele><time>2026-04-11T09:40:38.999Z</time></trkpt><trkpt lat="43.28712700837885" lon="11.345089124020566"><ele>248.0</ele><time>2026-04-11T09:40:39.999Z</time></trkpt><trkpt lat="43.287080546256796" lon="11.345165020209762"><ele>247.57142857142858</ele><time>2026-04-11T09:40:40.999Z</time></trkpt><trkpt lat="43.287039721673565" lon="11.345244297940468"><ele>247.14285714285717</ele><time>2026-04-11T09:40:41.999Z</time></trkpt><trkpt lat="43.28700048043382" lon="11.345325693426714"><ele>246.71428571428572</ele><time>2026-04-11T09:40:42.999Z</time></trkpt><trkpt lat="43.28696109505635" lon="11.3454119823706"><ele>246.28571428571428</ele><time>2026-04-11T09:40:43.999Z</time></trkpt><trkpt lat="43.28693144996079" lon="11.345507011302944"><ele>245.85714285714286</ele><time>2026-04-11T09:40:44.999Z</time></trkpt><trkpt lat="43.28688669181703" lon="11.345591276128504"><ele>245.42857142857144</ele><time>2026-04-11T09:40:45.999Z</time></trkpt><trkpt lat="43.286860059992065" lon="11.345677915519904"><ele>245.0</ele><time>2026-04-11T09:40:46.999Z</time></trkpt><trkpt lat="43.28683025062729" lon="11.345774380726832"><ele>245.0</ele><time>2026-04-11T09:40:47.999Z</time></trkpt><trkpt lat="43.28681234833834" lon="11.345873457071256"><ele>245.0</ele><time>2026-04-11T09:40:48.999Z</time></trkpt><trkpt lat="43.28679079294024" lon="11.345975389957644"><ele>245.0</ele><time>2026-04-11T09:40:49.999Z</time></trkpt><trkpt lat="43.286769806758336" lon="11.346076329133705"><ele>245.0</ele><time>2026-04-11T09:40:50.999Z</time></trkpt><trkpt lat="43.28675335489098" lon="11.346173015957014"><ele>245.0</ele><time>2026-04-11T09:40:51.999Z</time></trkpt><trkpt lat="43.28673329577015" lon="11.346269000216312"><ele>245.0</ele><time>2026-04-11T09:40:52.999Z</time></trkpt><trkpt lat="43.2867207811951" lon="11.346372490476876"><ele>245.0</ele><time>2026-04-11T09:40:53.999Z</time></trkpt><trkpt lat="43.286709013290015" lon="11.346471958091923"><ele>244.33333333333334</ele><time>2026-04-11T09:40:54.999Z</time></trkpt><trkpt lat="43.286699586423985" lon="11.346572805680333"><ele>243.66666666666669</ele><time>2026-04-11T09:40:55.999Z</time></trkpt><trkpt lat="43.28669525115383" lon="11.346683656560703"><ele>243.0</ele><time>2026-04-11T09:40:56.999Z</time></trkpt><trkpt lat="43.28669123344106" lon="11.346789982870265"><ele>242.33333333333331</ele><time>2026-04-11T09:40:57.999Z</time></trkpt><trkpt lat="43.286688176773104" lon="11.346896845033351"><ele>241.66666666666666</ele><time>2026-04-11T09:40:58.999Z</time></trkpt><trkpt lat="43.286679087616115" lon="11.347005877201859"><ele>241.0</ele><time>2026-04-11T09:40:59.999Z</time></trkpt><trkpt lat="43.2866706133674" lon="11.34711624190131"><ele>240.99999999999997</ele><time>2026-04-11T09:41:00.999Z</time></trkpt><trkpt lat="43.28665805975737" lon="11.347228788763957"><ele>241.0</ele><time>2026-04-11T09:41:01.999Z</time></trkpt><trkpt lat="43.28663583434598" lon="11.347341662912902"><ele>241.0</ele><time>2026-04-11T09:41:02.999Z</time></trkpt><trkpt lat="43.2866129151495" lon="11.347455430169891"><ele>241.0</ele><time>2026-04-11T09:41:03.999Z</time></trkpt><trkpt lat="43.28658719955411" lon="11.347567167029133"><ele>240.99999999999997</ele><time>2026-04-11T09:41:04.999Z</time></trkpt><trkpt lat="43.28655970618495" lon="11.347677288643375"><ele>241.0</ele><time>2026-04-11T09:41:05.999Z</time></trkpt><trkpt lat="43.2865274244696" lon="11.347785732772817"><ele>240.99999999999997</ele><time>2026-04-11T09:41:06.999Z</time></trkpt><trkpt lat="43.28649440071396" lon="11.347893126542173"><ele>241.0</ele><time>2026-04-11T09:41:07.999Z</time></trkpt><trkpt lat="43.28645704881368" lon="11.348003332435665"><ele>241.0</ele><time>2026-04-11T09:41:08.999Z</time></trkpt><trkpt lat="43.28642410636608" lon="11.34810871026186"><ele>241.0</ele><time>2026-04-11T09:41:09.999Z</time></trkpt><trkpt lat="43.28639053687641" lon="11.348209823763478"><ele>240.99999999999997</ele><time>2026-04-11T09:41:10.999Z</time></trkpt><trkpt lat="43.286352759266954" lon="11.348317776724997"><ele>241.0</ele><time>2026-04-11T09:41:11.999Z</time></trkpt><trkpt lat="43.286306781360224" lon="11.348428346220679"><ele>239.60000000000002</ele><time>2026-04-11T09:41:12.999Z</time></trkpt><trkpt lat="43.28625824293948" lon="11.348541934575657"><ele>238.20000000000002</ele><time>2026-04-11T09:41:13.999Z</time></trkpt><trkpt lat="43.28621417749219" lon="11.348653075506906"><ele>236.79999999999998</ele><time>2026-04-11T09:41:14.999Z</time></trkpt><trkpt lat="43.28616734921983" lon="11.348768830864827"><ele>235.39999999999998</ele><time>2026-04-11T09:41:15.999Z</time></trkpt><trkpt lat="43.286141939196604" lon="11.348888558634942"><ele>234.0</ele><time>2026-04-11T09:41:16.999Z</time></trkpt><trkpt lat="43.286092530837216" lon="11.348998051672982"><ele>234.0</ele><time>2026-04-11T09:41:17.999Z</time></trkpt><trkpt lat="43.28604732080531" lon="11.349105372329628"><ele>234.0</ele><time>2026-04-11T09:41:18.999Z</time></trkpt><trkpt lat="43.286000193494814" lon="11.349210995020192"><ele>234.0</ele><time>2026-04-11T09:41:19.999Z</time></trkpt><trkpt lat="43.285954965620114" lon="11.349319785975736"><ele>234.0</ele><time>2026-04-11T09:41:20.999Z</time></trkpt><trkpt lat="43.28591719622655" lon="11.349422767100265"><ele>234.0</ele><time>2026-04-11T09:41:21.999Z</time></trkpt><trkpt lat="43.28587436182685" lon="11.3495218049024"><ele>234.0</ele><time>2026-04-11T09:41:22.999Z</time></trkpt><trkpt lat="43.28583491308257" lon="11.349622853636525"><ele>234.16666666666666</ele><time>2026-04-11T09:41:23.999Z</time></trkpt><trkpt lat="43.285794915870284" lon="11.34972272253425"><ele>234.33333333333331</ele><time>2026-04-11T09:41:24.999Z</time></trkpt><trkpt lat="43.285759670795514" lon="11.349817829576612"><ele>234.5</ele><time>2026-04-11T09:41:25.999Z</time></trkpt><trkpt lat="43.28572473388806" lon="11.34990793112071"><ele>234.66666666666666</ele><time>2026-04-11T09:41:26.999Z</time></trkpt><trkpt lat="43.285691420948865" lon="11.350002748284973"><ele>234.83333333333331</ele><time>2026-04-11T09:41:27.999Z</time></trkpt><trkpt lat="43.28566375991905" lon="11.350101026952172"><ele>235.0</ele><time>2026-04-11T09:41:28.999Z</time></trkpt><trkpt lat="43.28563522963934" lon="11.350188471679399"><ele>235.0</ele><time>2026-04-11T09:41:30Z</time></trkpt><trkpt lat="43.28560262458293" lon="11.350272290166757"><ele>234.99999999999997</ele><time>2026-04-11T09:41:31Z</time></trkpt><trkpt lat="43.2855740145624" lon="11.350361962629309"><ele>235.0</ele><time>2026-04-11T09:41:32Z</time></trkpt><trkpt lat="43.285546412047616" lon="11.350444607837712"><ele>235.0</ele><time>2026-04-11T09:41:33Z</time></trkpt><trkpt lat="43.28551717207939" lon="11.350531846398725"><ele>234.99999999999997</ele><time>2026-04-11T09:41:34Z</time></trkpt><trkpt lat="43.28549052314735" lon="11.350615431573592"><ele>235.0</ele><time>2026-04-11T09:41:35Z</time></trkpt><trkpt lat="43.285462669006" lon="11.350704140976992"><ele>235.0</ele><time>2026-04-11T09:41:36Z</time></trkpt><trkpt lat="43.28541688988023" lon="11.350872372314408"><ele>235.0</ele><time>2026-04-11T09:41:38Z</time></trkpt><trkpt lat="43.285378464595205" lon="11.350955876731426"><ele>234.99999999999997</ele><time>2026-04-11T09:41:39Z</time></trkpt><trkpt lat="43.28535216338911" lon="11.351035983677809"><ele>235.0</ele><time>2026-04-11T09:41:40Z</time></trkpt><trkpt lat="43.28532532230599" lon="11.35112233570043"><ele>235.0</ele><time>2026-04-11T09:41:41Z</time></trkpt><trkpt lat="43.28529855672555" lon="11.351205634895454"><ele>234.99999999999997</ele><time>2026-04-11T09:41:42Z</time></trkpt><trkpt lat="43.28527451414889" lon="11.35128634938311"><ele>235.0</ele><time>2026-04-11T09:41:43Z</time></trkpt><trkpt lat="43.28525344627222" lon="11.351375300788005"><ele>235.0</ele><time>2026-04-11T09:41:44Z</time></trkpt><trkpt lat="43.28522888058465" lon="11.351458057085287"><ele>235.0</ele><time>2026-04-11T09:41:45Z</time></trkpt><trkpt lat="43.28519833141521" lon="11.351538547592433"><ele>234.99999999999997</ele><time>2026-04-11T09:41:46Z</time></trkpt><trkpt lat="43.2851743119065" lon="11.35162870855075"><ele>235.0</ele><time>2026-04-11T09:41:47Z</time></trkpt><trkpt lat="43.28513821409822" lon="11.351713752586031"><ele>235.0</ele><time>2026-04-11T09:41:48Z</time></trkpt><trkpt lat="43.285114243589724" lon="11.351802175039508"><ele>234.99999999999997</ele><time>2026-04-11T09:41:49Z</time></trkpt><trkpt lat="43.28508512689648" lon="11.351884890642598"><ele>235.0</ele><time>2026-04-11T09:41:50Z</time></trkpt><trkpt lat="43.28505321303235" lon="11.351975003729617"><ele>235.0</ele><time>2026-04-11T09:41:51Z</time></trkpt><trkpt lat="43.28503156193893" lon="11.352059748908628"><ele>235.0</ele><time>2026-04-11T09:41:52Z</time></trkpt><trkpt lat="43.28500547839508" lon="11.35214087033438"><ele>234.99999999999997</ele><time>2026-04-11T09:41:53Z</time></trkpt><trkpt lat="43.28498538523956" lon="11.352226625748804"><ele>235.0</ele><time>2026-04-11T09:41:54Z</time></trkpt><trkpt lat="43.28495583191914" lon="11.352305743069182"><ele>235.0</ele><time>2026-04-11T09:41:55Z</time></trkpt><trkpt lat="43.28492976310534" lon="11.352390917933336"><ele>234.99999999999997</ele><time>2026-04-11T09:41:56Z</time></trkpt><trkpt lat="43.28489768355392" lon="11.352468605837965"><ele>235.0</ele><time>2026-04-11T09:41:57Z</time></trkpt><trkpt lat="43.28483450824466" lon="11.35261005603837"><ele>235.0</ele><time>2026-04-11T09:41:59Z</time></trkpt><trkpt lat="43.28476592782827" lon="11.352756935513"><ele>235.25</ele><time>2026-04-11T09:42:01Z</time></trkpt><trkpt lat="43.284686536413" lon="11.35288478015748"><ele>235.5</ele><time>2026-04-11T09:42:03Z</time></trkpt><trkpt lat="43.28459386603479" lon="11.352994744926432"><ele>235.75</ele><time>2026-04-11T09:42:05Z</time></trkpt><trkpt lat="43.28450146630194" lon="11.353101173526905"><ele>236.0</ele><time>2026-04-11T09:42:07Z</time></trkpt><trkpt lat="43.284399749457386" lon="11.353201606620843"><ele>236.00000000000003</ele><time>2026-04-11T09:42:09Z</time></trkpt><trkpt lat="43.28434893318428" lon="11.353253805904634"><ele>236.0</ele><time>2026-04-11T09:42:10Z</time></trkpt><trkpt lat="43.28429087406278" lon="11.353298868391937"><ele>236.0</ele><time>2026-04-11T09:42:11Z</time></trkpt><trkpt lat="43.2842428027815" lon="11.353354829465657"><ele>236.0</ele><time>2026-04-11T09:42:12Z</time></trkpt><trkpt lat="43.284138651735084" lon="11.353438316737433"><ele>236.00000000000003</ele><time>2026-04-11T09:42:14Z</time></trkpt><trkpt lat="43.28402684776665" lon="11.35349458677369"><ele>236.0</ele><time>2026-04-11T09:42:16Z</time></trkpt><trkpt lat="43.28390486016887" lon="11.353548551969629"><ele>236.33333333333334</ele><time>2026-04-11T09:42:18Z</time></trkpt><trkpt lat="43.28384328099793" lon="11.353571655094159"><ele>236.66666666666669</ele><time>2026-04-11T09:42:19Z</time></trkpt><trkpt lat="43.283730719591176" lon="11.353601257796008"><ele>237.0</ele><time>2026-04-11T09:42:21Z</time></trkpt><trkpt lat="43.28366739719237" lon="11.353619538061599"><ele>237.33333333333331</ele><time>2026-04-11T09:42:22Z</time></trkpt><trkpt lat="43.28360443406816" lon="11.35363048333466"><ele>237.66666666666666</ele><time>2026-04-11T09:42:23Z</time></trkpt><trkpt lat="43.28348924712271" lon="11.3536401921667"><ele>238.0</ele><time>2026-04-11T09:42:25Z</time></trkpt><trkpt lat="43.283425309929726" lon="11.353646199269292"><ele>238.0</ele><time>2026-04-11T09:42:26Z</time></trkpt><trkpt lat="43.283302401171994" lon="11.353640862998901"><ele>238.0</ele><time>2026-04-11T09:42:28Z</time></trkpt><trkpt lat="43.28318641509798" lon="11.353618923411283"><ele>238.0</ele><time>2026-04-11T09:42:30Z</time></trkpt><trkpt lat="43.28306776556088" lon="11.353593739222175"><ele>238.0</ele><time>2026-04-11T09:42:32Z</time></trkpt><trkpt lat="43.28294926194758" lon="11.353570296627227"><ele>238.0</ele><time>2026-04-11T09:42:34Z</time></trkpt><trkpt lat="43.28283271774083" lon="11.353545497194366"><ele>238.0</ele><time>2026-04-11T09:42:36Z</time></trkpt><trkpt lat="43.28276992167129" lon="11.353530594777515"><ele>238.0</ele><time>2026-04-11T09:42:36.999Z</time></trkpt><trkpt lat="43.28264716629148" lon="11.353504498042005"><ele>238.0</ele><time>2026-04-11T09:42:38.999Z</time></trkpt><trkpt lat="43.28252491186398" lon="11.353472304060922"><ele>238.0</ele><time>2026-04-11T09:42:40.999Z</time></trkpt><trkpt lat="43.28246014956" lon="11.35346188498463"><ele>238.0</ele><time>2026-04-11T09:42:41.999Z</time></trkpt><trkpt lat="43.28233698815183" lon="11.353436297985425"><ele>238.0</ele><time>2026-04-11T09:42:43.999Z</time></trkpt><trkpt lat="43.28220989844908" lon="11.353412712860763"><ele>238.0</ele><time>2026-04-11T09:42:45.999Z</time></trkpt><trkpt lat="43.2820860985913" lon="11.353386055117673"><ele>238.0</ele><time>2026-04-11T09:42:47.999Z</time></trkpt><trkpt lat="43.28196266248501" lon="11.353357010137502"><ele>238.0</ele><time>2026-04-11T09:42:49.999Z</time></trkpt><trkpt lat="43.28190004973111" lon="11.353340345748537"><ele>238.0</ele><time>2026-04-11T09:42:50.999Z</time></trkpt><trkpt lat="43.281775633749625" lon="11.353314962284822"><ele>238.0</ele><time>2026-04-11T09:42:52.999Z</time></trkpt><trkpt lat="43.281709288546594" lon="11.353296839166026"><ele>238.0</ele><time>2026-04-11T09:42:53.999Z</time></trkpt><trkpt lat="43.28158392981812" lon="11.35326818883291"><ele>238.0</ele><time>2026-04-11T09:42:55.999Z</time></trkpt><trkpt lat="43.28151989813277" lon="11.353249912204848"><ele>237.99999999999997</ele><time>2026-04-11T09:42:56.999Z</time></trkpt><trkpt lat="43.281456877557595" lon="11.353238120647664"><ele>238.0</ele><time>2026-04-11T09:42:57.999Z</time></trkpt><trkpt lat="43.28133563404079" lon="11.353209083662403"><ele>238.0</ele><time>2026-04-11T09:42:59.999Z</time></trkpt><trkpt lat="43.28121473204179" lon="11.353171003191823"><ele>238.0</ele><time>2026-04-11T09:43:01.999Z</time></trkpt><trkpt lat="43.281150178372314" lon="11.353155338375757"><ele>237.99999999999997</ele><time>2026-04-11T09:43:02.999Z</time></trkpt><trkpt lat="43.28108725867403" lon="11.353139006934443"><ele>238.0</ele><time>2026-04-11T09:43:03.999Z</time></trkpt><trkpt lat="43.281021860450736" lon="11.353115959676934"><ele>238.0</ele><time>2026-04-11T09:43:04.999Z</time></trkpt><trkpt lat="43.28095298189701" lon="11.3530932461106"><ele>238.0</ele><time>2026-04-11T09:43:05.999Z</time></trkpt><trkpt lat="43.28088603224844" lon="11.353064475363695"><ele>238.0</ele><time>2026-04-11T09:43:06.999Z</time></trkpt><trkpt lat="43.28081588733143" lon="11.353036885600275"><ele>238.0</ele><time>2026-04-11T09:43:07.999Z</time></trkpt><trkpt lat="43.28074424308055" lon="11.353016755757187"><ele>238.0</ele><time>2026-04-11T09:43:08.999Z</time></trkpt><trkpt lat="43.28067347400511" lon="11.352982023486895"><ele>238.0</ele><time>2026-04-11T09:43:09.999Z</time></trkpt><trkpt lat="43.2806017160461" lon="11.352954438907698"><ele>238.0</ele><time>2026-04-11T09:43:10.999Z</time></trkpt><trkpt lat="43.28052812446914" lon="11.35292916093186"><ele>236.85714285714286</ele><time>2026-04-11T09:43:11.999Z</time></trkpt><trkpt lat="43.28045438149532" lon="11.35290380488604"><ele>235.71428571428572</ele><time>2026-04-11T09:43:12.999Z</time></trkpt><trkpt lat="43.28038082469932" lon="11.352876723868748"><ele>234.57142857142856</ele><time>2026-04-11T09:43:13.999Z</time></trkpt><trkpt lat="43.28030869998473" lon="11.352858599145918"><ele>233.42857142857142</ele><time>2026-04-11T09:43:14.999Z</time></trkpt><trkpt lat="43.280236567301046" lon="11.352834779454323"><ele>232.28571428571428</ele><time>2026-04-11T09:43:15.999Z</time></trkpt><trkpt lat="43.28016216911411" lon="11.352810864366294"><ele>231.1428571428571</ele><time>2026-04-11T09:43:16.999Z</time></trkpt><trkpt lat="43.28009031922908" lon="11.352792371282163"><ele>229.99999999999997</ele><time>2026-04-11T09:43:17.999Z</time></trkpt><trkpt lat="43.28001598408978" lon="11.35276198138856"><ele>230.00000000000003</ele><time>2026-04-11T09:43:18.999Z</time></trkpt><trkpt lat="43.27994202803772" lon="11.352741937517758"><ele>230.0</ele><time>2026-04-11T09:43:19.999Z</time></trkpt><trkpt lat="43.279866765047124" lon="11.35272243283313"><ele>230.0</ele><time>2026-04-11T09:43:20.999Z</time></trkpt><trkpt lat="43.27978911073366" lon="11.352706513193326"><ele>230.0</ele><time>2026-04-11T09:43:21.999Z</time></trkpt><trkpt lat="43.27971168138986" lon="11.352681271835722"><ele>230.00000000000003</ele><time>2026-04-11T09:43:22.999Z</time></trkpt><trkpt lat="43.279636932012366" lon="11.352670526733052"><ele>230.0</ele><time>2026-04-11T09:43:23.999Z</time></trkpt><trkpt lat="43.27955715750117" lon="11.352652160308379"><ele>229.50000000000003</ele><time>2026-04-11T09:43:24.999Z</time></trkpt><trkpt lat="43.27947672325117" lon="11.352638063472648"><ele>229.0</ele><time>2026-04-11T09:43:25.999Z</time></trkpt><trkpt lat="43.27939781118266" lon="11.35262713047708"><ele>228.5</ele><time>2026-04-11T09:43:26.999Z</time></trkpt><trkpt lat="43.27932758928486" lon="11.352609196480605"><ele>228.0</ele><time>2026-04-11T09:43:27.999Z</time></trkpt><trkpt lat="43.27925339634783" lon="11.352612077504379"><ele>227.50000000000003</ele><time>2026-04-11T09:43:28.999Z</time></trkpt><trkpt lat="43.279173853020474" lon="11.352602654688706"><ele>227.0</ele><time>2026-04-11T09:43:29.999Z</time></trkpt><trkpt lat="43.279094747280766" lon="11.352598450714666"><ele>227.00000000000003</ele><time>2026-04-11T09:43:30.999Z</time></trkpt><trkpt lat="43.27901889440129" lon="11.35260187352763"><ele>227.0</ele><time>2026-04-11T09:43:31.999Z</time></trkpt><trkpt lat="43.27894508512413" lon="11.352606500164216"><ele>227.0</ele><time>2026-04-11T09:43:32.999Z</time></trkpt><trkpt lat="43.278871889330325" lon="11.352624089806453"><ele>227.0</ele><time>2026-04-11T09:43:33.999Z</time></trkpt><trkpt lat="43.2787903707349" lon="11.352649404770467"><ele>227.00000000000003</ele><time>2026-04-11T09:43:34.999Z</time></trkpt><trkpt lat="43.27871763698033" lon="11.352668110195344"><ele>227.0</ele><time>2026-04-11T09:43:36Z</time></trkpt><trkpt lat="43.278653666114636" lon="11.352699553849934"><ele>227.00000000000003</ele><time>2026-04-11T09:43:37Z</time></trkpt><trkpt lat="43.2785808132513" lon="11.352723268086079"><ele>227.0</ele><time>2026-04-11T09:43:38Z</time></trkpt><trkpt lat="43.27850614498231" lon="11.352759616127416"><ele>227.0</ele><time>2026-04-11T09:43:39Z</time></trkpt><trkpt lat="43.278435396350346" lon="11.35280466329923"><ele>227.0</ele><time>2026-04-11T09:43:40Z</time></trkpt><trkpt lat="43.27836802611516" lon="11.352846447471746"><ele>227.00000000000003</ele><time>2026-04-11T09:43:41Z</time></trkpt><trkpt lat="43.27830525072259" lon="11.352892722461247"><ele>227.0</ele><time>2026-04-11T09:43:42Z</time></trkpt><trkpt lat="43.27823260960875" lon="11.35293521975595"><ele>227.0</ele><time>2026-04-11T09:43:43Z</time></trkpt><trkpt lat="43.27816501723877" lon="11.352975465091943"><ele>227.00000000000003</ele><time>2026-04-11T09:43:44Z</time></trkpt><trkpt lat="43.278101828000636" lon="11.353019306523718"><ele>227.0</ele><time>2026-04-11T09:43:45Z</time></trkpt><trkpt lat="43.27803413455678" lon="11.353064797654804"><ele>227.0</ele><time>2026-04-11T09:43:46Z</time></trkpt><trkpt lat="43.277967153129914" lon="11.353109140783493"><ele>227.00000000000003</ele><time>2026-04-11T09:43:47Z</time></trkpt><trkpt lat="43.27789685370039" lon="11.353147496609541"><ele>227.0</ele><time>2026-04-11T09:43:48Z</time></trkpt><trkpt lat="43.277828224146404" lon="11.353188512219312"><ele>227.0</ele><time>2026-04-11T09:43:49Z</time></trkpt><trkpt lat="43.27776285757133" lon="11.35322499086124"><ele>227.57142857142858</ele><time>2026-04-11T09:43:50Z</time></trkpt><trkpt lat="43.27769229980619" lon="11.353266655888204"><ele>228.14285714285717</ele><time>2026-04-11T09:43:51Z</time></trkpt><trkpt lat="43.27762676642713" lon="11.353310745884395"><ele>228.71428571428572</ele><time>2026-04-11T09:43:52Z</time></trkpt><trkpt lat="43.27755960058517" lon="11.353347527747776"><ele>229.28571428571428</ele><time>2026-04-11T09:43:53Z</time></trkpt><trkpt lat="43.27749084498641" lon="11.353379891421115"><ele>229.85714285714286</ele><time>2026-04-11T09:43:54Z</time></trkpt><trkpt lat="43.277428177380145" lon="11.353426118251813"><ele>230.42857142857144</ele><time>2026-04-11T09:43:55Z</time></trkpt><trkpt lat="43.27735803121089" lon="11.353463147764122"><ele>231.0</ele><time>2026-04-11T09:43:56Z</time></trkpt><trkpt lat="43.277289359774876" lon="11.353505366578043"><ele>231.14285714285714</ele><time>2026-04-11T09:43:57Z</time></trkpt><trkpt lat="43.27722149367421" lon="11.353534777466653"><ele>231.28571428571428</ele><time>2026-04-11T09:43:58Z</time></trkpt><trkpt lat="43.27715186705672" lon="11.353567704433262"><ele>231.42857142857144</ele><time>2026-04-11T09:43:59Z</time></trkpt><trkpt lat="43.27708101608951" lon="11.353596206678503"><ele>231.57142857142858</ele><time>2026-04-11T09:44:00Z</time></trkpt><trkpt lat="43.27700701034106" lon="11.3536155687041"><ele>231.71428571428572</ele><time>2026-04-11T09:44:01Z</time></trkpt><trkpt lat="43.27693709143534" lon="11.35363603150412"><ele>231.8571428571429</ele><time>2026-04-11T09:44:02Z</time></trkpt><trkpt lat="43.276859571187245" lon="11.353654229948631"><ele>232.00000000000003</ele><time>2026-04-11T09:44:03Z</time></trkpt><trkpt lat="43.276779048590114" lon="11.353667845017755"><ele>231.99999999999997</ele><time>2026-04-11T09:44:04Z</time></trkpt><trkpt lat="43.2767008163993" lon="11.353681608869996"><ele>232.0</ele><time>2026-04-11T09:44:05Z</time></trkpt><trkpt lat="43.276626198880905" lon="11.353701446565795"><ele>232.0</ele><time>2026-04-11T09:44:06Z</time></trkpt><trkpt lat="43.276544018676006" lon="11.353714960109633"><ele>232.0</ele><time>2026-04-11T09:44:07Z</time></trkpt><trkpt lat="43.276461104224516" lon="11.353723405020553"><ele>231.99999999999997</ele><time>2026-04-11T09:44:08Z</time></trkpt><trkpt lat="43.27637715837229" lon="11.353740528266176"><ele>232.0</ele><time>2026-04-11T09:44:09Z</time></trkpt><trkpt lat="43.27629415753496" lon="11.353762582940684"><ele>231.0</ele><time>2026-04-11T09:44:10Z</time></trkpt><trkpt lat="43.276211592778616" lon="11.353775146378041"><ele>230.0</ele><time>2026-04-11T09:44:11Z</time></trkpt><trkpt lat="43.27607083443552" lon="11.353799984956996"><ele>229.0</ele><time>2026-04-11T09:44:13Z</time></trkpt><trkpt lat="43.275970481857236" lon="11.353817151209876"><ele>228.0</ele><time>2026-04-11T09:44:14Z</time></trkpt><trkpt lat="43.27588223452771" lon="11.353835802871211"><ele>227.0</ele><time>2026-04-11T09:44:15Z</time></trkpt><trkpt lat="43.275793808907196" lon="11.353852325969532"><ele>226.2</ele><time>2026-04-11T09:44:16Z</time></trkpt><trkpt lat="43.275704020719544" lon="11.353873001285072"><ele>225.39999999999998</ele><time>2026-04-11T09:44:17Z</time></trkpt><trkpt lat="43.27562313513125" lon="11.353886248378586"><ele>224.60000000000002</ele><time>2026-04-11T09:44:18Z</time></trkpt><trkpt lat="43.27552781954411" lon="11.35390808018972"><ele>223.8</ele><time>2026-04-11T09:44:19Z</time></trkpt><trkpt lat="43.27543420489567" lon="11.353924372068654"><ele>223.0</ele><time>2026-04-11T09:44:20Z</time></trkpt><trkpt lat="43.275347078672546" lon="11.353941639565813"><ele>222.83333333333331</ele><time>2026-04-11T09:44:21Z</time></trkpt><trkpt lat="43.27525894379821" lon="11.353956629309122"><ele>222.66666666666666</ele><time>2026-04-11T09:44:22Z</time></trkpt><trkpt lat="43.27516442547003" lon="11.353970732153568"><ele>222.5</ele><time>2026-04-11T09:44:23Z</time></trkpt><trkpt lat="43.27507698125225" lon="11.353989250955127"><ele>222.33333333333331</ele><time>2026-04-11T09:44:24Z</time></trkpt><trkpt lat="43.27498906926083" lon="11.354007835131506"><ele>222.16666666666666</ele><time>2026-04-11T09:44:25Z</time></trkpt><trkpt lat="43.27490603286145" lon="11.354030206233302"><ele>222.0</ele><time>2026-04-11T09:44:26Z</time></trkpt><trkpt lat="43.274830181110076" lon="11.354063888728495"><ele>222.5</ele><time>2026-04-11T09:44:27Z</time></trkpt><trkpt lat="43.27474956219883" lon="11.35409998572797"><ele>223.0</ele><time>2026-04-11T09:44:28Z</time></trkpt><trkpt lat="43.274674457401254" lon="11.354141495787637"><ele>223.5</ele><time>2026-04-11T09:44:29Z</time></trkpt><trkpt lat="43.27459939350003" lon="11.354201278375042"><ele>224.0</ele><time>2026-04-11T09:44:30Z</time></trkpt><trkpt lat="43.274522824661204" lon="11.354262980599229"><ele>224.5</ele><time>2026-04-11T09:44:31Z</time></trkpt><trkpt lat="43.27445774349222" lon="11.354333457859644"><ele>225.0</ele><time>2026-04-11T09:44:32Z</time></trkpt><trkpt lat="43.27439551042623" lon="11.354406946620648"><ele>225.0</ele><time>2026-04-11T09:44:33Z</time></trkpt><trkpt lat="43.27433937938878" lon="11.354482245950368"><ele>225.0</ele><time>2026-04-11T09:44:34Z</time></trkpt><trkpt lat="43.27428862857188" lon="11.354563650441563"><ele>225.0</ele><time>2026-04-11T09:44:35Z</time></trkpt><trkpt lat="43.27424051183199" lon="11.354644338152626"><ele>225.0</ele><time>2026-04-11T09:44:36Z</time></trkpt><trkpt lat="43.274189915635674" lon="11.354721947655163"><ele>225.0</ele><time>2026-04-11T09:44:37Z</time></trkpt><trkpt lat="43.274137301113626" lon="11.354793022322736"><ele>225.0</ele><time>2026-04-11T09:44:38Z</time></trkpt><trkpt lat="43.274084676969736" lon="11.354869865931553"><ele>224.5714285714286</ele><time>2026-04-11T09:44:39Z</time></trkpt><trkpt lat="43.27403323413161" lon="11.354945040366939"><ele>224.14285714285717</ele><time>2026-04-11T09:44:40Z</time></trkpt><trkpt lat="43.273982371860654" lon="11.355016828103626"><ele>223.71428571428572</ele><time>2026-04-11T09:44:41Z</time></trkpt><trkpt lat="43.273926132944425" lon="11.355081382105999"><ele>223.2857142857143</ele><time>2026-04-11T09:44:42Z</time></trkpt><trkpt lat="43.27386788279721" lon="11.355138293410539"><ele>222.8571428571429</ele><time>2026-04-11T09:44:43Z</time></trkpt><trkpt lat="43.27381571433598" lon="11.355194105647115"><ele>222.42857142857142</ele><time>2026-04-11T09:44:44Z</time></trkpt><trkpt lat="43.27376675199697" lon="11.355255184824644"><ele>222.0</ele><time>2026-04-11T09:44:44.999Z</time></trkpt><trkpt lat="43.27371769013852" lon="11.35531431731788"><ele>222.16666666666666</ele><time>2026-04-11T09:44:45.999Z</time></trkpt><trkpt lat="43.273666200433716" lon="11.355369421593704"><ele>222.33333333333331</ele><time>2026-04-11T09:44:46.999Z</time></trkpt><trkpt lat="43.27361524667188" lon="11.355420952833658"><ele>222.5</ele><time>2026-04-11T09:44:47.999Z</time></trkpt><trkpt lat="43.273520897744774" lon="11.35553102247195"><ele>222.66666666666666</ele><time>2026-04-11T09:44:49.999Z</time></trkpt><trkpt lat="43.273469805517514" lon="11.355584833221936"><ele>222.83333333333331</ele><time>2026-04-11T09:44:50.999Z</time></trkpt><trkpt lat="43.27337418608946" lon="11.35569510732562"><ele>223.0</ele><time>2026-04-11T09:44:52.999Z</time></trkpt><trkpt lat="43.27328378222293" lon="11.355803285398899"><ele>223.0</ele><time>2026-04-11T09:44:54.999Z</time></trkpt><trkpt lat="43.27319642269633" lon="11.355903422651092"><ele>223.0</ele><time>2026-04-11T09:44:56.999Z</time></trkpt><trkpt lat="43.27310053902349" lon="11.356008462713314"><ele>223.0</ele><time>2026-04-11T09:44:58.999Z</time></trkpt><trkpt lat="43.27301076207746" lon="11.356117088502058"><ele>223.0</ele><time>2026-04-11T09:45:00.999Z</time></trkpt><trkpt lat="43.27291900998947" lon="11.35621753206047"><ele>224.0</ele><time>2026-04-11T09:45:02.999Z</time></trkpt><trkpt lat="43.272828245295905" lon="11.356315377965352"><ele>225.0</ele><time>2026-04-11T09:45:04.999Z</time></trkpt><trkpt lat="43.27274271523167" lon="11.35642711345118"><ele>226.0</ele><time>2026-04-11T09:45:06.999Z</time></trkpt><trkpt lat="43.27265193765254" lon="11.356517636559644"><ele>227.0</ele><time>2026-04-11T09:45:08.999Z</time></trkpt><trkpt lat="43.27256372106382" lon="11.356621350869917"><ele>227.0</ele><time>2026-04-11T09:45:10.999Z</time></trkpt><trkpt lat="43.272473370385136" lon="11.356730884349188"><ele>227.0</ele><time>2026-04-11T09:45:12.999Z</time></trkpt><trkpt lat="43.272379923954" lon="11.356832650138145"><ele>227.0</ele><time>2026-04-11T09:45:14.999Z</time></trkpt><trkpt lat="43.27228532240255" lon="11.356932843737722"><ele>227.0</ele><time>2026-04-11T09:45:16.999Z</time></trkpt><trkpt lat="43.2721896641532" lon="11.357025213501819"><ele>226.2</ele><time>2026-04-11T09:45:18.999Z</time></trkpt><trkpt lat="43.27210940657709" lon="11.357132590390414"><ele>225.39999999999998</ele><time>2026-04-11T09:45:20.999Z</time></trkpt><trkpt lat="43.27202860937049" lon="11.357219554170916"><ele>224.60000000000002</ele><time>2026-04-11T09:45:22.999Z</time></trkpt><trkpt lat="43.27194411258733" lon="11.357299648033557"><ele>223.8</ele><time>2026-04-11T09:45:24.999Z</time></trkpt><trkpt lat="43.27188026586567" lon="11.357353161843282"><ele>223.0</ele><time>2026-04-11T09:45:26.999Z</time></trkpt><trkpt lat="43.27179258318491" lon="11.357376189717263"><ele>222.99999999999997</ele><time>2026-04-11T09:45:28.999Z</time></trkpt><trkpt lat="43.27172222922483" lon="11.357303838389655"><ele>223.0</ele><time>2026-04-11T09:45:29.999Z</time></trkpt><trkpt lat="43.27165890383803" lon="11.357228623062722"><ele>223.0</ele><time>2026-04-11T09:45:31.999Z</time></trkpt><trkpt lat="43.271596702591474" lon="11.357174557039086"><ele>223.0</ele><time>2026-04-11T09:45:33.999Z</time></trkpt><trkpt lat="43.27154687308571" lon="11.357110383360231"><ele>222.99999999999997</ele><time>2026-04-11T09:45:36.999Z</time></trkpt><trkpt lat="43.2714923709618" lon="11.357012165173577"><ele>223.0</ele><time>2026-04-11T09:46:34Z</time></trkpt><trkpt lat="43.27141965399528" lon="11.356938247505214"><ele>222.83333333333331</ele><time>2026-04-11T09:46:37Z</time></trkpt><trkpt lat="43.27134566492107" lon="11.35687211185878"><ele>222.66666666666666</ele><time>2026-04-11T09:46:40Z</time></trkpt><trkpt lat="43.27129326708679" lon="11.356817220437303"><ele>222.5</ele><time>2026-04-11T09:46:44Z</time></trkpt><trkpt lat="43.27124123937752" lon="11.356766749110172"><ele>222.33333333333331</ele><time>2026-04-11T09:48:30Z</time></trkpt><trkpt lat="43.27117494258628" lon="11.356702883500144"><ele>222.16666666666666</ele><time>2026-04-11T09:48:33Z</time></trkpt><trkpt lat="43.27111641501922" lon="11.356646202232909"><ele>222.0</ele><time>2026-04-11T09:48:35Z</time></trkpt><trkpt lat="43.27102852938257" lon="11.356570609388667"><ele>222.0</ele><time>2026-04-11T09:48:37Z</time></trkpt><trkpt lat="43.270945823102494" lon="11.35647867694251"><ele>222.0</ele><time>2026-04-11T09:48:39Z</time></trkpt><trkpt lat="43.2708508752577" lon="11.356373348778174"><ele>222.0</ele><time>2026-04-11T09:48:41Z</time></trkpt><trkpt lat="43.270751261514526" lon="11.356275977732308"><ele>222.0</ele><time>2026-04-11T09:48:43Z</time></trkpt><trkpt lat="43.270654081169745" lon="11.356176895465524"><ele>220.0</ele><time>2026-04-11T09:48:45Z</time></trkpt><trkpt lat="43.27060318791824" lon="11.356121700724502"><ele>218.0</ele><time>2026-04-11T09:48:46Z</time></trkpt><trkpt lat="43.270550350805934" lon="11.356066780498491"><ele>216.0</ele><time>2026-04-11T09:48:47Z</time></trkpt><trkpt lat="43.27049557173051" lon="11.356012708452994"><ele>214.0</ele><time>2026-04-11T09:48:48Z</time></trkpt><trkpt lat="43.27043697952415" lon="11.35596822539709"><ele>212.0</ele><time>2026-04-11T09:48:49Z</time></trkpt><trkpt lat="43.270321552479835" lon="11.355908233736999"><ele>210.0</ele><time>2026-04-11T09:48:51Z</time></trkpt><trkpt lat="43.270253332125556" lon="11.355894257574228"><ele>210.0</ele><time>2026-04-11T09:48:52Z</time></trkpt><trkpt lat="43.270177296919464" lon="11.35588538988077"><ele>210.0</ele><time>2026-04-11T09:48:53Z</time></trkpt><trkpt lat="43.270094341658904" lon="11.35587541903759"><ele>210.0</ele><time>2026-04-11T09:48:54Z</time></trkpt><trkpt lat="43.27001977887935" lon="11.355885238334729"><ele>210.0</ele><time>2026-04-11T09:48:54.999Z</time></trkpt><trkpt lat="43.269943824803384" lon="11.355896100118365"><ele>210.0</ele><time>2026-04-11T09:48:55.999Z</time></trkpt><trkpt lat="43.26986386576002" lon="11.355916178408771"><ele>210.0</ele><time>2026-04-11T09:48:56.999Z</time></trkpt><trkpt lat="43.26977835693535" lon="11.355938892507224"><ele>208.0</ele><time>2026-04-11T09:48:57.999Z</time></trkpt><trkpt lat="43.26969540007874" lon="11.355969538173586"><ele>206.0</ele><time>2026-04-11T09:48:58.999Z</time></trkpt><trkpt lat="43.269618465078366" lon="11.356018155682989"><ele>204.0</ele><time>2026-04-11T09:48:59.999Z</time></trkpt><trkpt lat="43.26953957242002" lon="11.356074792999824"><ele>202.0</ele><time>2026-04-11T09:49:00.999Z</time></trkpt><trkpt lat="43.26946476989008" lon="11.356144385267749"><ele>200.0</ele><time>2026-04-11T09:49:01.999Z</time></trkpt><trkpt lat="43.269378300247325" lon="11.356199781104806"><ele>198.0</ele><time>2026-04-11T09:49:02.999Z</time></trkpt><trkpt lat="43.26930538017739" lon="11.356284631858093"><ele>198.66666666666666</ele><time>2026-04-11T09:49:03.999Z</time></trkpt><trkpt lat="43.269246890020376" lon="11.356390084024165"><ele>199.33333333333331</ele><time>2026-04-11T09:49:04.999Z</time></trkpt><trkpt lat="43.26917489978891" lon="11.35646133736519"><ele>200.0</ele><time>2026-04-11T09:49:05.999Z</time></trkpt><trkpt lat="43.26912232868171" lon="11.356563709211237"><ele>200.66666666666666</ele><time>2026-04-11T09:49:06.999Z</time></trkpt><trkpt lat="43.26907353311204" lon="11.356671650049703"><ele>201.33333333333331</ele><time>2026-04-11T09:49:07.999Z</time></trkpt><trkpt lat="43.269052814860025" lon="11.356769619351073"><ele>202.0</ele><time>2026-04-11T09:49:08.999Z</time></trkpt><trkpt lat="43.269006289847404" lon="11.356847535199414"><ele>201.99999999999997</ele><time>2026-04-11T09:49:09.999Z</time></trkpt><trkpt lat="43.26897477635531" lon="11.356953513356336"><ele>202.0</ele><time>2026-04-11T09:49:10.999Z</time></trkpt><trkpt lat="43.26895187793201" lon="11.357068564931408"><ele>202.0</ele><time>2026-04-11T09:49:11.999Z</time></trkpt><trkpt lat="43.26893885368838" lon="11.357182942823444"><ele>202.0</ele><time>2026-04-11T09:49:12.999Z</time></trkpt><trkpt lat="43.2689302821025" lon="11.357307653930322"><ele>201.99999999999997</ele><time>2026-04-11T09:49:13.999Z</time></trkpt><trkpt lat="43.26892536443371" lon="11.357430124263603"><ele>202.0</ele><time>2026-04-11T09:49:14.999Z</time></trkpt><trkpt lat="43.268921126757796" lon="11.357552206784845"><ele>199.83333333333331</ele><time>2026-04-11T09:49:15.999Z</time></trkpt><trkpt lat="43.26892104857167" lon="11.3576611245804"><ele>197.66666666666666</ele><time>2026-04-11T09:49:16.999Z</time></trkpt><trkpt lat="43.2689376996076" lon="11.357787299191017"><ele>195.5</ele><time>2026-04-11T09:49:17.999Z</time></trkpt><trkpt lat="43.26892104856876" lon="11.357903442935651"><ele>193.33333333333331</ele><time>2026-04-11T09:49:18.999Z</time></trkpt><trkpt lat="43.26891915393745" lon="11.358017200381223"><ele>191.16666666666666</ele><time>2026-04-11T09:49:19.999Z</time></trkpt><trkpt lat="43.26891213328485" lon="11.358136549863493"><ele>189.0</ele><time>2026-04-11T09:49:20.999Z</time></trkpt><trkpt lat="43.26890352066593" lon="11.35825697958944"><ele>189.0</ele><time>2026-04-11T09:49:21.999Z</time></trkpt><trkpt lat="43.268890841128005" lon="11.358369456408875"><ele>189.0</ele><time>2026-04-11T09:49:22.999Z</time></trkpt><trkpt lat="43.2688895217728" lon="11.35848434831818"><ele>189.0</ele><time>2026-04-11T09:49:23.999Z</time></trkpt><trkpt lat="43.26885837640288" lon="11.358615808424744"><ele>189.0</ele><time>2026-04-11T09:49:24.999Z</time></trkpt><trkpt lat="43.268818149946036" lon="11.358733271566516"><ele>189.0</ele><time>2026-04-11T09:49:25.999Z</time></trkpt><trkpt lat="43.26877186602924" lon="11.358828982856574"><ele>189.0</ele><time>2026-04-11T09:49:26.999Z</time></trkpt><trkpt lat="43.26871918025826" lon="11.358923015757501"><ele>189.2</ele><time>2026-04-11T09:49:27.999Z</time></trkpt><trkpt lat="43.26865938076601" lon="11.359021427658014"><ele>189.39999999999998</ele><time>2026-04-11T09:49:28.999Z</time></trkpt><trkpt lat="43.26859169764506" lon="11.359094924678915"><ele>189.6</ele><time>2026-04-11T09:49:29.999Z</time></trkpt><trkpt lat="43.268518162899284" lon="11.359176011959258"><ele>189.8</ele><time>2026-04-11T09:49:30.999Z</time></trkpt><trkpt lat="43.26843168147044" lon="11.359240670085908"><ele>190.0</ele><time>2026-04-11T09:49:31.999Z</time></trkpt><trkpt lat="43.2683392848694" lon="11.359299034890633"><ele>190.0</ele><time>2026-04-11T09:49:32.999Z</time></trkpt><trkpt lat="43.268242174979385" lon="11.35934062887978"><ele>190.0</ele><time>2026-04-11T09:49:33.999Z</time></trkpt><trkpt lat="43.26813590440551" lon="11.359374629636935"><ele>190.0</ele><time>2026-04-11T09:49:34.999Z</time></trkpt><trkpt lat="43.26803859306496" lon="11.359394111891563"><ele>190.0</ele><time>2026-04-11T09:49:35.999Z</time></trkpt><trkpt lat="43.267939005879306" lon="11.359389870461722"><ele>190.0</ele><time>2026-04-11T09:49:36.999Z</time></trkpt><trkpt lat="43.267835939250624" lon="11.359373134137906"><ele>189.2</ele><time>2026-04-11T09:49:37.999Z</time></trkpt><trkpt lat="43.267740744166865" lon="11.359338773009888"><ele>188.4</ele><time>2026-04-11T09:49:38.999Z</time></trkpt><trkpt lat="43.26764684556515" lon="11.359302462672343"><ele>187.60000000000002</ele><time>2026-04-11T09:49:39.999Z</time></trkpt><trkpt lat="43.267561158805236" lon="11.359256944617398"><ele>186.8</ele><time>2026-04-11T09:49:40.999Z</time></trkpt><trkpt lat="43.267482415090335" lon="11.35921693323346"><ele>186.0</ele><time>2026-04-11T09:49:41.999Z</time></trkpt><trkpt lat="43.267405995602495" lon="11.359184803067468"><ele>186.0</ele><time>2026-04-11T09:49:42.999Z</time></trkpt><trkpt lat="43.2673236011293" lon="11.359153539366138"><ele>186.0</ele><time>2026-04-11T09:49:43.999Z</time></trkpt><trkpt lat="43.267246724609386" lon="11.359117781535923"><ele>186.0</ele><time>2026-04-11T09:49:44.999Z</time></trkpt><trkpt lat="43.267163490239284" lon="11.359083858999561"><ele>186.0</ele><time>2026-04-11T09:49:45.999Z</time></trkpt><trkpt lat="43.26708921904501" lon="11.359052230356468"><ele>186.0</ele><time>2026-04-11T09:49:46.999Z</time></trkpt><trkpt lat="43.26702397304798" lon="11.35903124086379"><ele>186.0</ele><time>2026-04-11T09:49:47.999Z</time></trkpt><trkpt lat="43.26696123179095" lon="11.35899773656581"><ele>185.85714285714286</ele><time>2026-04-11T09:49:48.999Z</time></trkpt><trkpt lat="43.26689404397901" lon="11.358965629421133"><ele>185.71428571428572</ele><time>2026-04-11T09:49:49.999Z</time></trkpt><trkpt lat="43.26683032641615" lon="11.358945477333219"><ele>185.57142857142856</ele><time>2026-04-11T09:49:50.999Z</time></trkpt><trkpt lat="43.266770060703436" lon="11.35891400391791"><ele>185.42857142857144</ele><time>2026-04-11T09:49:51.999Z</time></trkpt><trkpt lat="43.26670602972034" lon="11.358882660735885"><ele>185.28571428571428</ele><time>2026-04-11T09:49:52.999Z</time></trkpt><trkpt lat="43.266638949134865" lon="11.358859650284186"><ele>185.14285714285714</ele><time>2026-04-11T09:49:54Z</time></trkpt><trkpt lat="43.266579284955476" lon="11.3588280219256"><ele>185.0</ele><time>2026-04-11T09:49:55Z</time></trkpt><trkpt lat="43.266470475011985" lon="11.358779172815789"><ele>185.0</ele><time>2026-04-11T09:49:57Z</time></trkpt><trkpt lat="43.266360387542264" lon="11.358742940927891"><ele>185.0</ele><time>2026-04-11T09:49:59Z</time></trkpt><trkpt lat="43.26624424291856" lon="11.35869178898714"><ele>185.0</ele><time>2026-04-11T09:50:01Z</time></trkpt><trkpt lat="43.26617510491421" lon="11.35866745711927"><ele>185.0</ele><time>2026-04-11T09:50:02Z</time></trkpt><trkpt lat="43.266106113522255" lon="11.358633052817485"><ele>185.0</ele><time>2026-04-11T09:50:03Z</time></trkpt><trkpt lat="43.26603582702391" lon="11.358606997039862"><ele>185.0</ele><time>2026-04-11T09:50:04Z</time></trkpt><trkpt lat="43.26596268870882" lon="11.35857283197584"><ele>185.0</ele><time>2026-04-11T09:50:05Z</time></trkpt><trkpt lat="43.26589556587824" lon="11.358541439178099"><ele>185.0</ele><time>2026-04-11T09:50:06Z</time></trkpt><trkpt lat="43.26577437268172" lon="11.358504993267504"><ele>185.0</ele><time>2026-04-11T09:50:08Z</time></trkpt><trkpt lat="43.26570922057407" lon="11.358475718887323"><ele>185.0</ele><time>2026-04-11T09:50:09Z</time></trkpt><trkpt lat="43.26564414945423" lon="11.358438030158373"><ele>185.0</ele><time>2026-04-11T09:50:10Z</time></trkpt><trkpt lat="43.26557611728197" lon="11.358413855527123"><ele>184.8</ele><time>2026-04-11T09:50:11Z</time></trkpt><trkpt lat="43.2654437853086" lon="11.35835815902902"><ele>184.6</ele><time>2026-04-11T09:50:13Z</time></trkpt><trkpt lat="43.26538157636182" lon="11.358323543529746"><ele>184.39999999999998</ele><time>2026-04-11T09:50:14Z</time></trkpt><trkpt lat="43.26525524873592" lon="11.358280471115846"><ele>184.2</ele><time>2026-04-11T09:50:16Z</time></trkpt><trkpt lat="43.265185709512146" lon="11.358246826744491"><ele>184.0</ele><time>2026-04-11T09:50:17Z</time></trkpt><trkpt lat="43.265058249226385" lon="11.3581865099996"><ele>184.0</ele><time>2026-04-11T09:50:19Z</time></trkpt><trkpt lat="43.26499474275868" lon="11.358201026666515"><ele>184.0</ele><time>2026-04-11T09:50:20Z</time></trkpt><trkpt lat="43.26492334173604" lon="11.358186060997618"><ele>184.0</ele><time>2026-04-11T09:50:21Z</time></trkpt><trkpt lat="43.26485611598873" lon="11.358188951799958"><ele>184.0</ele><time>2026-04-11T09:50:22Z</time></trkpt><trkpt lat="43.26473484621927" lon="11.35823520267999"><ele>184.0</ele><time>2026-04-11T09:50:24Z</time></trkpt><trkpt lat="43.2646262986396" lon="11.358299592073012"><ele>184.0</ele><time>2026-04-11T09:50:26Z</time></trkpt><trkpt lat="43.264559026784525" lon="11.358404613740564"><ele>184.0</ele><time>2026-04-11T09:50:28Z</time></trkpt><trkpt lat="43.264493858601256" lon="11.358522571705484"><ele>184.0</ele><time>2026-04-11T09:50:30Z</time></trkpt><trkpt lat="43.264426207125226" lon="11.358646349095771"><ele>184.0</ele><time>2026-04-11T09:50:32Z</time></trkpt><trkpt lat="43.2643558976326" lon="11.358774989848113"><ele>184.0</ele><time>2026-04-11T09:50:34Z</time></trkpt><trkpt lat="43.26428188389462" lon="11.358902756645783"><ele>184.0</ele><time>2026-04-11T09:50:36Z</time></trkpt><trkpt lat="43.26424302450153" lon="11.358982606135907"><ele>184.0</ele><time>2026-04-11T09:50:37Z</time></trkpt><trkpt lat="43.26416805532971" lon="11.359102150772156"><ele>184.0</ele><time>2026-04-11T09:50:39Z</time></trkpt><trkpt lat="43.264099743470005" lon="11.359150797486885"><ele>184.0</ele><time>2026-04-11T09:50:40Z</time></trkpt><trkpt lat="43.26400590507676" lon="11.359250624920671"><ele>184.0</ele><time>2026-04-11T09:50:42Z</time></trkpt><trkpt lat="43.26395088477108" lon="11.359301256663235"><ele>184.0</ele><time>2026-04-11T09:50:43Z</time></trkpt><trkpt lat="43.263836429381456" lon="11.359366227131357"><ele>183.83333333333334</ele><time>2026-04-11T09:50:45Z</time></trkpt><trkpt lat="43.26372493456033" lon="11.35940838916323"><ele>183.66666666666669</ele><time>2026-04-11T09:50:47Z</time></trkpt><trkpt lat="43.263671885251654" lon="11.359458493428589"><ele>183.5</ele><time>2026-04-11T09:50:48Z</time></trkpt><trkpt lat="43.263555937148126" lon="11.359532858174177"><ele>183.33333333333334</ele><time>2026-04-11T09:50:50Z</time></trkpt><trkpt lat="43.263501483181706" lon="11.359582814184037"><ele>183.16666666666666</ele><time>2026-04-11T09:50:51Z</time></trkpt><trkpt lat="43.26344142769656" lon="11.359636477487507"><ele>183.0</ele><time>2026-04-11T09:50:52Z</time></trkpt><trkpt lat="43.26338448614327" lon="11.359697446466855"><ele>182.85714285714286</ele><time>2026-04-11T09:50:53Z</time></trkpt><trkpt lat="43.2633230516867" lon="11.359753907389397"><ele>182.71428571428572</ele><time>2026-04-11T09:50:54Z</time></trkpt><trkpt lat="43.26326904200355" lon="11.35982553579416"><ele>182.57142857142856</ele><time>2026-04-11T09:50:55Z</time></trkpt><trkpt lat="43.26321746003515" lon="11.35988961158681"><ele>182.42857142857144</ele><time>2026-04-11T09:50:56Z</time></trkpt><trkpt lat="43.26315076023612" lon="11.359946121472689"><ele>182.28571428571428</ele><time>2026-04-11T09:50:57Z</time></trkpt><trkpt lat="43.26309878311757" lon="11.360001608511118"><ele>182.14285714285714</ele><time>2026-04-11T09:50:58Z</time></trkpt><trkpt lat="43.263044714545856" lon="11.36006807774925"><ele>182.0</ele><time>2026-04-11T09:50:59Z</time></trkpt><trkpt lat="43.262993840558984" lon="11.360131933517863"><ele>182.66666666666666</ele><time>2026-04-11T09:51:00Z</time></trkpt><trkpt lat="43.262934259616735" lon="11.360177523259079"><ele>183.33333333333331</ele><time>2026-04-11T09:51:01Z</time></trkpt><trkpt lat="43.26288374766705" lon="11.360233342743825"><ele>184.0</ele><time>2026-04-11T09:51:02Z</time></trkpt><trkpt lat="43.2628342209134" lon="11.360289981543575"><ele>184.66666666666666</ele><time>2026-04-11T09:51:03Z</time></trkpt><trkpt lat="43.262729579823734" lon="11.36039935033504"><ele>185.33333333333334</ele><time>2026-04-11T09:51:04.999Z</time></trkpt><trkpt lat="43.2626817958607" lon="11.3604590500834"><ele>186.0</ele><time>2026-04-11T09:51:05.999Z</time></trkpt><trkpt lat="43.26263524399261" lon="11.36052259928846"><ele>185.57142857142858</ele><time>2026-04-11T09:51:06.999Z</time></trkpt><trkpt lat="43.26259264123443" lon="11.360588517221508"><ele>185.14285714285714</ele><time>2026-04-11T09:51:07.999Z</time></trkpt><trkpt lat="43.26253954535937" lon="11.36063543923552"><ele>184.71428571428572</ele><time>2026-04-11T09:51:08.999Z</time></trkpt><trkpt lat="43.26248987532533" lon="11.36069095635373"><ele>184.28571428571428</ele><time>2026-04-11T09:51:09.999Z</time></trkpt><trkpt lat="43.262446670682785" lon="11.360755751343273"><ele>183.85714285714286</ele><time>2026-04-11T09:51:10.999Z</time></trkpt><trkpt lat="43.26236653176667" lon="11.360879987680736"><ele>183.42857142857144</ele><time>2026-04-11T09:51:12.999Z</time></trkpt><trkpt lat="43.26231518888057" lon="11.360937755682468"><ele>183.0</ele><time>2026-04-11T09:51:13.999Z</time></trkpt><trkpt lat="43.26222740942656" lon="11.361050344307715"><ele>182.8</ele><time>2026-04-11T09:51:15.999Z</time></trkpt><trkpt lat="43.262147677202336" lon="11.361153412772655"><ele>182.60000000000002</ele><time>2026-04-11T09:51:17.999Z</time></trkpt><trkpt lat="43.26205121882447" lon="11.36123999035899"><ele>182.39999999999998</ele><time>2026-04-11T09:51:19.999Z</time></trkpt><trkpt lat="43.26196725359282" lon="11.361323736189648"><ele>182.2</ele><time>2026-04-11T09:51:21.999Z</time></trkpt><trkpt lat="43.26187549101343" lon="11.361431325821158"><ele>182.0</ele><time>2026-04-11T09:51:23.999Z</time></trkpt><trkpt lat="43.2617781518038" lon="11.36149997453594"><ele>182.0</ele><time>2026-04-11T09:51:25.999Z</time></trkpt><trkpt lat="43.26167790048528" lon="11.361575049293691"><ele>182.0</ele><time>2026-04-11T09:51:27.999Z</time></trkpt><trkpt lat="43.26157864867028" lon="11.36164291566279"><ele>182.0</ele><time>2026-04-11T09:51:29.999Z</time></trkpt><trkpt lat="43.261471085291845" lon="11.361712719122693"><ele>182.0</ele><time>2026-04-11T09:51:31.999Z</time></trkpt><trkpt lat="43.261368021231036" lon="11.361767394815057"><ele>182.0</ele><time>2026-04-11T09:51:33.999Z</time></trkpt><trkpt lat="43.261271160520266" lon="11.361810521759974"><ele>182.0</ele><time>2026-04-11T09:51:35.999Z</time></trkpt><trkpt lat="43.261211494568265" lon="11.36184109820643"><ele>182.0</ele><time>2026-04-11T09:51:36.999Z</time></trkpt><trkpt lat="43.26109609490302" lon="11.361892979249298"><ele>182.0</ele><time>2026-04-11T09:51:38.999Z</time></trkpt><trkpt lat="43.26102349861549" lon="11.361914902485164"><ele>182.0</ele><time>2026-04-11T09:51:39.999Z</time></trkpt><trkpt lat="43.260931284328485" lon="11.361933308315312"><ele>182.0</ele><time>2026-04-11T09:51:41.999Z</time></trkpt><trkpt lat="43.2608299028998" lon="11.361937249776433"><ele>182.0</ele><time>2026-04-11T09:51:43.999Z</time></trkpt><trkpt lat="43.260711815241436" lon="11.361938313880717"><ele>182.0</ele><time>2026-04-11T09:51:45.999Z</time></trkpt><trkpt lat="43.260623331183" lon="11.361942769651868"><ele>182.0</ele><time>2026-04-11T09:51:47.999Z</time></trkpt><trkpt lat="43.26055811869316" lon="11.361922168598317"><ele>182.0</ele><time>2026-04-11T09:51:49.999Z</time></trkpt><trkpt lat="43.26047325655729" lon="11.361908964516058"><ele>182.42857142857142</ele><time>2026-04-11T09:51:51.999Z</time></trkpt><trkpt lat="43.26039256178346" lon="11.361896473924453"><ele>182.85714285714286</ele><time>2026-04-11T09:51:53.999Z</time></trkpt><trkpt lat="43.260322196036796" lon="11.361882720175407"><ele>183.28571428571428</ele><time>2026-04-11T09:51:55.999Z</time></trkpt><trkpt lat="43.26025728602918" lon="11.361853711647367"><ele>183.71428571428572</ele><time>2026-04-11T09:51:57.999Z</time></trkpt><trkpt lat="43.2601876063633" lon="11.361839501004455"><ele>184.14285714285714</ele><time>2026-04-11T09:52:00Z</time></trkpt><trkpt lat="43.26012392838475" lon="11.361804019619724"><ele>184.57142857142856</ele><time>2026-04-11T09:52:02Z</time></trkpt><trkpt lat="43.260036723898025" lon="11.361794941985188"><ele>185.0</ele><time>2026-04-11T09:52:05Z</time></trkpt><trkpt lat="43.259947429862095" lon="11.361762547684128"><ele>185.0</ele><time>2026-04-11T09:52:08Z</time></trkpt><trkpt lat="43.25985260375909" lon="11.361740293003605"><ele>185.0</ele><time>2026-04-11T09:52:11Z</time></trkpt><trkpt lat="43.25977344852328" lon="11.361699371682631"><ele>185.0</ele><time>2026-04-11T09:52:14Z</time></trkpt><trkpt lat="43.259689626724544" lon="11.361674646776097"><ele>185.0</ele><time>2026-04-11T09:52:17Z</time></trkpt><trkpt lat="43.25960554176096" lon="11.361643487798322"><ele>185.0</ele><time>2026-04-11T09:52:20Z</time></trkpt><trkpt lat="43.25952649866441" lon="11.361601349519882"><ele>185.0</ele><time>2026-04-11T09:52:23Z</time></trkpt><trkpt lat="43.259453124866425" lon="11.361553508493468"><ele>185.0</ele><time>2026-04-11T09:52:26Z</time></trkpt><trkpt lat="43.25937958984291" lon="11.361513133370755"><ele>185.0</ele><time>2026-04-11T09:52:29Z</time></trkpt><trkpt lat="43.25930140795751" lon="11.361488116830877"><ele>185.0</ele><time>2026-04-11T09:52:32Z</time></trkpt><trkpt lat="43.25922328870783" lon="11.361460622080907"><ele>185.0</ele><time>2026-04-11T09:52:35Z</time></trkpt><trkpt lat="43.25914279921133" lon="11.36140847572036"><ele>185.0</ele><time>2026-04-11T09:52:38Z</time></trkpt><trkpt lat="43.25907208762582" lon="11.361379203503002"><ele>185.0</ele><time>2026-04-11T09:52:41Z</time></trkpt><trkpt lat="43.2589983278282" lon="11.361350954277887"><ele>186.66666666666666</ele><time>2026-04-11T09:52:44Z</time></trkpt><trkpt lat="43.258920391368086" lon="11.361298402716958"><ele>188.33333333333331</ele><time>2026-04-11T09:52:47Z</time></trkpt><trkpt lat="43.258857646518116" lon="11.361255453209834"><ele>190.0</ele><time>2026-04-11T09:52:50Z</time></trkpt><trkpt lat="43.258788703282086" lon="11.361198022440412"><ele>191.66666666666666</ele><time>2026-04-11T09:52:53Z</time></trkpt><trkpt lat="43.25871946916517" lon="11.36114658786744"><ele>193.33333333333334</ele><time>2026-04-11T09:52:56Z</time></trkpt><trkpt lat="43.258652461425584" lon="11.361085086048927"><ele>195.0</ele><time>2026-04-11T09:52:59Z</time></trkpt><trkpt lat="43.25859049604111" lon="11.361025463917906"><ele>195.0</ele><time>2026-04-11T09:53:02Z</time></trkpt><trkpt lat="43.25852311058444" lon="11.360965316111184"><ele>195.0</ele><time>2026-04-11T09:53:05Z</time></trkpt><trkpt lat="43.25845937312688" lon="11.360896580381056"><ele>195.0</ele><time>2026-04-11T09:53:07.999Z</time></trkpt><trkpt lat="43.2583947705187" lon="11.360831718973735"><ele>195.0</ele><time>2026-04-11T09:53:10.999Z</time></trkpt><trkpt lat="43.25833391047109" lon="11.360760461968539"><ele>195.0</ele><time>2026-04-11T09:53:13.999Z</time></trkpt><trkpt lat="43.25826315799065" lon="11.360701969403252"><ele>195.0</ele><time>2026-04-11T09:53:16.999Z</time></trkpt><trkpt lat="43.258198161811706" lon="11.36064003946227"><ele>195.0</ele><time>2026-04-11T09:53:19.999Z</time></trkpt><trkpt lat="43.25813312073271" lon="11.360578090183823"><ele>195.0</ele><time>2026-04-11T09:53:22.999Z</time></trkpt><trkpt lat="43.2580674914044" lon="11.36052216456604"><ele>195.0</ele><time>2026-04-11T09:53:25.999Z</time></trkpt><trkpt lat="43.257998205965556" lon="11.360454380211849"><ele>195.0</ele><time>2026-04-11T09:53:28.999Z</time></trkpt><trkpt lat="43.25792508825778" lon="11.360412074563998"><ele>195.0</ele><time>2026-04-11T09:53:31.999Z</time></trkpt><trkpt lat="43.257853726293156" lon="11.360367119596477"><ele>195.0</ele><time>2026-04-11T09:53:34.999Z</time></trkpt><trkpt lat="43.25778872162593" lon="11.360332728100923"><ele>195.0</ele><time>2026-04-11T09:53:37.999Z</time></trkpt><trkpt lat="43.25771572297202" lon="11.360298591549217"><ele>195.0</ele><time>2026-04-11T09:53:40.999Z</time></trkpt><trkpt lat="43.25763710259113" lon="11.360275777077169"><ele>195.0</ele><time>2026-04-11T09:53:43.999Z</time></trkpt><trkpt lat="43.25756312869134" lon="11.360250560045685"><ele>195.0</ele><time>2026-04-11T09:53:46.999Z</time></trkpt><trkpt lat="43.25748875659824" lon="11.3602152411361"><ele>195.0</ele><time>2026-04-11T09:53:49.999Z</time></trkpt><trkpt lat="43.25741056015501" lon="11.360182067333279"><ele>195.0</ele><time>2026-04-11T09:53:52.999Z</time></trkpt><trkpt lat="43.25733505359539" lon="11.360147101849943"><ele>195.66666666666666</ele><time>2026-04-11T09:53:55.999Z</time></trkpt><trkpt lat="43.25725469528387" lon="11.36012396740622"><ele>196.33333333333331</ele><time>2026-04-11T09:53:58.999Z</time></trkpt><trkpt lat="43.257177416816205" lon="11.36010354045344"><ele>197.0</ele><time>2026-04-11T09:54:01.999Z</time></trkpt><trkpt lat="43.25709861604884" lon="11.360085156136352"><ele>197.66666666666666</ele><time>2026-04-11T09:54:04.999Z</time></trkpt><trkpt lat="43.25701905257424" lon="11.360079474853917"><ele>198.33333333333331</ele><time>2026-04-11T09:54:08Z</time></trkpt><trkpt lat="43.25693101347026" lon="11.360073842329454"><ele>199.0</ele><time>2026-04-11T09:54:11Z</time></trkpt><trkpt lat="43.25684962844941" lon="11.360074314663759"><ele>198.99999999999997</ele><time>2026-04-11T09:54:14Z</time></trkpt><trkpt lat="43.25676776904813" lon="11.360077013681476"><ele>199.0</ele><time>2026-04-11T09:54:17Z</time></trkpt><trkpt lat="43.25668302229808" lon="11.360093004442264"><ele>199.0</ele><time>2026-04-11T09:54:20Z</time></trkpt><trkpt lat="43.256603173493424" lon="11.360092263899599"><ele>199.0</ele><time>2026-04-11T09:54:23Z</time></trkpt><trkpt lat="43.25652130505329" lon="11.360106755217311"><ele>198.99999999999997</ele><time>2026-04-11T09:54:26Z</time></trkpt><trkpt lat="43.25644070865331" lon="11.360126213443612"><ele>199.0</ele><time>2026-04-11T09:54:29Z</time></trkpt><trkpt lat="43.25636489379884" lon="11.360133281099232"><ele>199.66666666666666</ele><time>2026-04-11T09:54:32Z</time></trkpt><trkpt lat="43.25627646291586" lon="11.36016422858906"><ele>200.33333333333331</ele><time>2026-04-11T09:54:35Z</time></trkpt><trkpt lat="43.256202876422044" lon="11.36018645806457"><ele>201.0</ele><time>2026-04-11T09:54:38Z</time></trkpt><trkpt lat="43.256126872961744" lon="11.360223470800225"><ele>201.66666666666669</ele><time>2026-04-11T09:54:41Z</time></trkpt><trkpt lat="43.256047665906905" lon="11.360267582323376"><ele>202.33333333333334</ele><time>2026-04-11T09:54:44Z</time></trkpt><trkpt lat="43.25596837261888" lon="11.360316377728209"><ele>203.0</ele><time>2026-04-11T09:54:47Z</time></trkpt><trkpt lat="43.255895591893406" lon="11.360378176470407"><ele>203.00000000000003</ele><time>2026-04-11T09:54:50Z</time></trkpt><trkpt lat="43.255816705029275" lon="11.360426436678475"><ele>203.0</ele><time>2026-04-11T09:54:53Z</time></trkpt><trkpt lat="43.25573486453381" lon="11.36048736271805"><ele>203.0</ele><time>2026-04-11T09:54:56Z</time></trkpt><trkpt lat="43.25565440068827" lon="11.36054063227248"><ele>203.0</ele><time>2026-04-11T09:54:59Z</time></trkpt><trkpt lat="43.25557565829904" lon="11.360585901599755"><ele>203.00000000000003</ele><time>2026-04-11T09:55:02Z</time></trkpt><trkpt lat="43.25549266475431" lon="11.360639203320721"><ele>203.0</ele><time>2026-04-11T09:55:05Z</time></trkpt><trkpt lat="43.25541812907379" lon="11.360698946583048"><ele>204.83333333333334</ele><time>2026-04-11T09:55:08Z</time></trkpt><trkpt lat="43.25534549125819" lon="11.360752448590754"><ele>206.66666666666669</ele><time>2026-04-11T09:55:11Z</time></trkpt><trkpt lat="43.25527211872953" lon="11.360820181116015"><ele>208.5</ele><time>2026-04-11T09:55:14Z</time></trkpt><trkpt lat="43.25520088208764" lon="11.36089683567648"><ele>210.33333333333331</ele><time>2026-04-11T09:55:16.999Z</time></trkpt><trkpt lat="43.255133790625635" lon="11.360973339816756"><ele>212.16666666666666</ele><time>2026-04-11T09:55:19.999Z</time></trkpt><trkpt lat="43.25508101813406" lon="11.36105248254996"><ele>214.0</ele><time>2026-04-11T09:55:22.999Z</time></trkpt><trkpt lat="43.255029807735866" lon="11.361130534985362"><ele>214.00000000000003</ele><time>2026-04-11T09:55:25.999Z</time></trkpt><trkpt lat="43.25498934422753" lon="11.361220765487646"><ele>214.0</ele><time>2026-04-11T09:55:28.999Z</time></trkpt><trkpt lat="43.25494025115689" lon="11.36129843115513"><ele>214.0</ele><time>2026-04-11T09:55:31.999Z</time></trkpt><trkpt lat="43.25489587509641" lon="11.361380670540552"><ele>214.0</ele><time>2026-04-11T09:55:34.999Z</time></trkpt><trkpt lat="43.2548577996452" lon="11.361466523203259"><ele>214.0</ele><time>2026-04-11T09:55:37.999Z</time></trkpt><trkpt lat="43.254827526655326" lon="11.361544282396048"><ele>214.00000000000003</ele><time>2026-04-11T09:55:40.999Z</time></trkpt><trkpt lat="43.25479479412106" lon="11.361618542674016"><ele>214.0</ele><time>2026-04-11T09:55:43.999Z</time></trkpt><trkpt lat="43.25475618377135" lon="11.361717624790721"><ele>215.57142857142858</ele><time>2026-04-11T09:55:47.999Z</time></trkpt><trkpt lat="43.25471276401675" lon="11.361812859648895"><ele>217.14285714285717</ele><time>2026-04-11T09:55:51.999Z</time></trkpt><trkpt lat="43.254657221316485" lon="11.3618964217364"><ele>218.71428571428572</ele><time>2026-04-11T09:55:55.999Z</time></trkpt><trkpt lat="43.25460957556034" lon="11.361957728221158"><ele>220.2857142857143</ele><time>2026-04-11T09:55:58.999Z</time></trkpt><trkpt lat="43.254550233338755" lon="11.362032730620282"><ele>221.85714285714286</ele><time>2026-04-11T09:56:02.999Z</time></trkpt><trkpt lat="43.254506533800146" lon="11.362111782400179"><ele>223.42857142857147</ele><time>2026-04-11T09:56:05.999Z</time></trkpt><trkpt lat="43.25444662359209" lon="11.362140855237431"><ele>225.00000000000003</ele><time>2026-04-11T09:56:07.999Z</time></trkpt><trkpt lat="43.254386918299346" lon="11.362178901328118"><ele>225.0</ele><time>2026-04-11T09:56:10.999Z</time></trkpt><trkpt lat="43.254314810521436" lon="11.362227015044173"><ele>225.0</ele><time>2026-04-11T09:56:14Z</time></trkpt><trkpt lat="43.254238492437324" lon="11.36226788508448"><ele>225.0</ele><time>2026-04-11T09:56:17Z</time></trkpt><trkpt lat="43.25415984858876" lon="11.362300300717754"><ele>225.0</ele><time>2026-04-11T09:56:20Z</time></trkpt><trkpt lat="43.25407437449904" lon="11.362331260987311"><ele>225.0</ele><time>2026-04-11T09:56:23Z</time></trkpt><trkpt lat="43.25399856703402" lon="11.362349461506778"><ele>225.0</ele><time>2026-04-11T09:56:26Z</time></trkpt><trkpt lat="43.25392182499009" lon="11.362360953063225"><ele>225.00000000000003</ele><time>2026-04-11T09:56:29Z</time></trkpt><trkpt lat="43.253853257090036" lon="11.362362881039225"><ele>225.0</ele><time>2026-04-11T09:56:32Z</time></trkpt><trkpt lat="43.253783733379315" lon="11.362365651335267"><ele>225.00000000000003</ele><time>2026-04-11T09:56:35Z</time></trkpt><trkpt lat="43.25369643264603" lon="11.36237230353019"><ele>225.00000000000003</ele><time>2026-04-11T09:56:39Z</time></trkpt><trkpt lat="43.25362589525458" lon="11.362393957007166"><ele>225.0</ele><time>2026-04-11T09:56:42Z</time></trkpt><trkpt lat="43.25355225847813" lon="11.362409837999245"><ele>225.00000000000003</ele><time>2026-04-11T09:56:45Z</time></trkpt><trkpt lat="43.253479035043455" lon="11.362424547172676"><ele>225.00000000000003</ele><time>2026-04-11T09:56:48Z</time></trkpt><trkpt lat="43.25340654470305" lon="11.362450686476919"><ele>225.0</ele><time>2026-04-11T09:56:51Z</time></trkpt><trkpt lat="43.25332653472167" lon="11.36248004121157"><ele>225.0</ele><time>2026-04-11T09:56:54Z</time></trkpt><trkpt lat="43.25324442255839" lon="11.362507733354562"><ele>225.0</ele><time>2026-04-11T09:56:57Z</time></trkpt><trkpt lat="43.25316222681289" lon="11.362542598490574"><ele>225.0</ele><time>2026-04-11T09:57:00Z</time></trkpt><trkpt lat="43.253089941877825" lon="11.362577794368923"><ele>225.0</ele><time>2026-04-11T09:57:03Z</time></trkpt><trkpt lat="43.253021166248296" lon="11.362602370949752"><ele>225.0</ele><time>2026-04-11T09:57:06Z</time></trkpt><trkpt lat="43.25295092932659" lon="11.36264595785529"><ele>225.42857142857144</ele><time>2026-04-11T09:57:10Z</time></trkpt><trkpt lat="43.252890609278175" lon="11.362682644913395"><ele>225.85714285714286</ele><time>2026-04-11T09:57:14Z</time></trkpt><trkpt lat="43.25281900978817" lon="11.362722712253813"><ele>226.28571428571428</ele><time>2026-04-11T09:57:18Z</time></trkpt><trkpt lat="43.252756212794544" lon="11.362763231037311"><ele>226.71428571428572</ele><time>2026-04-11T09:57:21.999Z</time></trkpt><trkpt lat="43.252698519960425" lon="11.36280223788675"><ele>227.1428571428571</ele><time>2026-04-11T09:57:25.999Z</time></trkpt><trkpt lat="43.25263841357601" lon="11.36282837013203"><ele>227.57142857142856</ele><time>2026-04-11T09:57:29.999Z</time></trkpt><trkpt lat="43.25257628617469" lon="11.362864144077896"><ele>228.0</ele><time>2026-04-11T09:57:33.999Z</time></trkpt><trkpt lat="43.25251411412927" lon="11.362899831299755"><ele>228.0</ele><time>2026-04-11T09:57:37.999Z</time></trkpt><trkpt lat="43.25245412804214" lon="11.362960042861113"><ele>227.99999999999997</ele><time>2026-04-11T09:57:41.999Z</time></trkpt><trkpt lat="43.25239052367657" lon="11.36301998731073"><ele>228.0</ele><time>2026-04-11T09:57:45.999Z</time></trkpt><trkpt lat="43.25233764203689" lon="11.36307484277699"><ele>228.0</ele><time>2026-04-11T09:57:48.999Z</time></trkpt><trkpt lat="43.25228661865341" lon="11.363140772976761"><ele>227.99999999999997</ele><time>2026-04-11T09:57:51.999Z</time></trkpt><trkpt lat="43.25223257196362" lon="11.36320429887535"><ele>228.0</ele><time>2026-04-11T09:57:54.999Z</time></trkpt><trkpt lat="43.25218894924735" lon="11.363284908295746"><ele>228.0</ele><time>2026-04-11T09:57:57.999Z</time></trkpt><trkpt lat="43.2521374753944" lon="11.363343658390733"><ele>229.0</ele><time>2026-04-11T09:58:00.999Z</time></trkpt><trkpt lat="43.25207257511256" lon="11.363402875915279"><ele>230.0</ele><time>2026-04-11T09:58:03.999Z</time></trkpt><trkpt lat="43.25198600661157" lon="11.363470624502577"><ele>231.0</ele><time>2026-04-11T09:58:06.999Z</time></trkpt><trkpt lat="43.25191485944068" lon="11.363517849804037"><ele>232.0</ele><time>2026-04-11T09:58:08.999Z</time></trkpt><trkpt lat="43.251814894727545" lon="11.36357505144052"><ele>233.0</ele><time>2026-04-11T09:58:10.999Z</time></trkpt><trkpt lat="43.2517064339524" lon="11.363614642939108"><ele>233.0</ele><time>2026-04-11T09:58:12.999Z</time></trkpt><trkpt lat="43.25164140506911" lon="11.363595652239557"><ele>233.0</ele><time>2026-04-11T09:58:13.999Z</time></trkpt><trkpt lat="43.251578361151644" lon="11.36361222479014"><ele>233.0</ele><time>2026-04-11T09:58:14.999Z</time></trkpt><trkpt lat="43.251512923235566" lon="11.363608964694825"><ele>233.0</ele><time>2026-04-11T09:58:15.999Z</time></trkpt><trkpt lat="43.25144460638332" lon="11.363595905659226"><ele>233.0</ele><time>2026-04-11T09:58:16.999Z</time></trkpt><trkpt lat="43.251372098272476" lon="11.363583848943092"><ele>233.0</ele><time>2026-04-11T09:58:18Z</time></trkpt><trkpt lat="43.251295115099964" lon="11.363556668340854"><ele>233.0</ele><time>2026-04-11T09:58:19Z</time></trkpt><trkpt lat="43.251220588460804" lon="11.363540178333608"><ele>231.4</ele><time>2026-04-11T09:58:20Z</time></trkpt><trkpt lat="43.25114300334837" lon="11.363506892110784"><ele>229.8</ele><time>2026-04-11T09:58:21Z</time></trkpt><trkpt lat="43.2510667593919" lon="11.363471020130977"><ele>228.2</ele><time>2026-04-11T09:58:22Z</time></trkpt><trkpt lat="43.25096799849154" lon="11.363435994636012"><ele>226.6</ele><time>2026-04-11T09:58:23Z</time></trkpt><trkpt lat="43.25088953912362" lon="11.36338209607184"><ele>225.0</ele><time>2026-04-11T09:58:24Z</time></trkpt><trkpt lat="43.250790358252736" lon="11.363345515734522"><ele>225.0</ele><time>2026-04-11T09:58:25Z</time></trkpt><trkpt lat="43.25070029736704" lon="11.36330616186476"><ele>225.0</ele><time>2026-04-11T09:58:26Z</time></trkpt><trkpt lat="43.25061130640923" lon="11.36327357157109"><ele>225.0</ele><time>2026-04-11T09:58:27Z</time></trkpt><trkpt lat="43.25052009942712" lon="11.363260038904572"><ele>225.0</ele><time>2026-04-11T09:58:28Z</time></trkpt><trkpt lat="43.25043926181169" lon="11.363228682141122"><ele>225.0</ele><time>2026-04-11T09:58:29Z</time></trkpt><trkpt lat="43.25035808190054" lon="11.363209768256484"><ele>225.0</ele><time>2026-04-11T09:58:30Z</time></trkpt><trkpt lat="43.250270486374404" lon="11.363185754319446"><ele>224.66666666666666</ele><time>2026-04-11T09:58:31Z</time></trkpt><trkpt lat="43.25018617741464" lon="11.363165718819403"><ele>224.33333333333331</ele><time>2026-04-11T09:58:32Z</time></trkpt><trkpt lat="43.2500998064528" lon="11.36314152520046"><ele>224.0</ele><time>2026-04-11T09:58:33Z</time></trkpt><trkpt lat="43.250013225677826" lon="11.363113123975289"><ele>223.66666666666666</ele><time>2026-04-11T09:58:34Z</time></trkpt><trkpt lat="43.249929421027154" lon="11.363082885095249"><ele>223.33333333333331</ele><time>2026-04-11T09:58:35Z</time></trkpt><trkpt lat="43.24985120833118" lon="11.363050266110294"><ele>223.0</ele><time>2026-04-11T09:58:36Z</time></trkpt><trkpt lat="43.24977692036852" lon="11.363042405009397"><ele>223.66666666666666</ele><time>2026-04-11T09:58:37Z</time></trkpt><trkpt lat="43.249703271522435" lon="11.36302940633887"><ele>224.33333333333331</ele><time>2026-04-11T09:58:38Z</time></trkpt><trkpt lat="43.24961574579637" lon="11.363031821785576"><ele>225.0</ele><time>2026-04-11T09:58:39Z</time></trkpt><trkpt lat="43.249545607828814" lon="11.36303707418773"><ele>225.66666666666669</ele><time>2026-04-11T09:58:40Z</time></trkpt><trkpt lat="43.2494772935603" lon="11.363051066834666"><ele>226.33333333333334</ele><time>2026-04-11T09:58:41Z</time></trkpt><trkpt lat="43.249410448753075" lon="11.363073284435616"><ele>227.0</ele><time>2026-04-11T09:58:42Z</time></trkpt><trkpt lat="43.24929660814932" lon="11.363139222429153"><ele>227.2</ele><time>2026-04-11T09:58:44Z</time></trkpt><trkpt lat="43.24919321296767" lon="11.363209846953259"><ele>227.39999999999998</ele><time>2026-04-11T09:58:46Z</time></trkpt><trkpt lat="43.24910459885268" lon="11.363293100642638"><ele>227.60000000000002</ele><time>2026-04-11T09:58:48Z</time></trkpt><trkpt lat="43.24903318506009" lon="11.363383303585193"><ele>227.8</ele><time>2026-04-11T09:58:50Z</time></trkpt><trkpt lat="43.24895752457223" lon="11.363478155703367"><ele>228.0</ele><time>2026-04-11T09:58:52Z</time></trkpt><trkpt lat="43.24888191953953" lon="11.363562357565778"><ele>228.0</ele><time>2026-04-11T09:58:54Z</time></trkpt><trkpt lat="43.24882281195389" lon="11.36367383633727"><ele>228.0</ele><time>2026-04-11T09:58:56Z</time></trkpt><trkpt lat="43.248767082791716" lon="11.363725092352407"><ele>228.0</ele><time>2026-04-11T09:58:57Z</time></trkpt><trkpt lat="43.248687447247995" lon="11.363856796851653"><ele>228.0</ele><time>2026-04-11T09:58:59Z</time></trkpt><trkpt lat="43.248607441488765" lon="11.363980509912597"><ele>228.0</ele><time>2026-04-11T09:59:01Z</time></trkpt><trkpt lat="43.24852347097869" lon="11.3640966577862"><ele>227.8</ele><time>2026-04-11T09:59:03Z</time></trkpt><trkpt lat="43.24844326325898" lon="11.364206398394598"><ele>227.60000000000002</ele><time>2026-04-11T09:59:05Z</time></trkpt><trkpt lat="43.24837030830841" lon="11.364314131237315"><ele>227.39999999999998</ele><time>2026-04-11T09:59:07Z</time></trkpt><trkpt lat="43.248311610587805" lon="11.364413839153588"><ele>227.2</ele><time>2026-04-11T09:59:09Z</time></trkpt><trkpt lat="43.24827519214756" lon="11.364552850786026"><ele>227.0</ele><time>2026-04-11T09:59:11Z</time></trkpt><trkpt lat="43.24825819187088" lon="11.364710800784383"><ele>226.6</ele><time>2026-04-11T09:59:13Z</time></trkpt><trkpt lat="43.24826113636649" lon="11.364863709323574"><ele>226.2</ele><time>2026-04-11T09:59:15Z</time></trkpt><trkpt lat="43.24824657247665" lon="11.365009516239915"><ele>225.8</ele><time>2026-04-11T09:59:17Z</time></trkpt><trkpt lat="43.24824056960698" lon="11.36514807489309"><ele>225.4</ele><time>2026-04-11T09:59:19Z</time></trkpt><trkpt lat="43.248227732467406" lon="11.365260958504992"><ele>225.0</ele><time>2026-04-11T09:59:21Z</time></trkpt><trkpt lat="43.248215913752034" lon="11.365367874620688"><ele>225.0</ele><time>2026-04-11T09:59:23Z</time></trkpt><trkpt lat="43.248164068065364" lon="11.36545741027037"><ele>225.0</ele><time>2026-04-11T09:59:25Z</time></trkpt><trkpt lat="43.24812033173113" lon="11.365573438646775"><ele>225.0</ele><time>2026-04-11T09:59:27Z</time></trkpt><trkpt lat="43.248049427922346" lon="11.365654536163701"><ele>225.0</ele><time>2026-04-11T09:59:29Z</time></trkpt><trkpt lat="43.24800174810121" lon="11.365736953042324"><ele>225.0</ele><time>2026-04-11T09:59:31Z</time></trkpt><trkpt lat="43.247927625061415" lon="11.36582858608664"><ele>225.0</ele><time>2026-04-11T09:59:34Z</time></trkpt><trkpt lat="43.247856687142615" lon="11.36590546483703"><ele>224.6</ele><time>2026-04-11T09:59:37Z</time></trkpt><trkpt lat="43.24777733655843" lon="11.36595898702263"><ele>224.2</ele><time>2026-04-11T09:59:38.999Z</time></trkpt><trkpt lat="43.24767536271422" lon="11.366022755915376"><ele>223.8</ele><time>2026-04-11T09:59:40.999Z</time></trkpt><trkpt lat="43.247604267366825" lon="11.366026346255087"><ele>223.4</ele><time>2026-04-11T09:59:41.999Z</time></trkpt><trkpt lat="43.24748786759897" lon="11.36607338226479"><ele>223.0</ele><time>2026-04-11T09:59:43.999Z</time></trkpt><trkpt lat="43.24742052165691" lon="11.36607559518144"><ele>223.0</ele><time>2026-04-11T09:59:44.999Z</time></trkpt><trkpt lat="43.24730406736471" lon="11.366083145113723"><ele>223.0</ele><time>2026-04-11T09:59:46.999Z</time></trkpt><trkpt lat="43.24719821161073" lon="11.366119788707909"><ele>223.0</ele><time>2026-04-11T09:59:48.999Z</time></trkpt><trkpt lat="43.247075387171414" lon="11.366151372597011"><ele>223.0</ele><time>2026-04-11T09:59:50.999Z</time></trkpt><trkpt lat="43.24697097709501" lon="11.366186172682596"><ele>223.0</ele><time>2026-04-11T09:59:52.999Z</time></trkpt><trkpt lat="43.2468646088318" lon="11.366222618342192"><ele>223.0</ele><time>2026-04-11T09:59:54.999Z</time></trkpt><trkpt lat="43.2467638767649" lon="11.366265796826726"><ele>223.0</ele><time>2026-04-11T09:59:56.999Z</time></trkpt><trkpt lat="43.24666865962451" lon="11.366309051374213"><ele>223.0</ele><time>2026-04-11T09:59:58.999Z</time></trkpt><trkpt lat="43.24657198394217" lon="11.366366161370157"><ele>223.0</ele><time>2026-04-11T10:00:00.999Z</time></trkpt><trkpt lat="43.246487794163336" lon="11.36641860773168"><ele>223.16666666666666</ele><time>2026-04-11T10:00:02.999Z</time></trkpt><trkpt lat="43.246404091026825" lon="11.366464810822423"><ele>223.33333333333331</ele><time>2026-04-11T10:00:04.999Z</time></trkpt><trkpt lat="43.24632707642024" lon="11.36650978131944"><ele>223.5</ele><time>2026-04-11T10:00:06.999Z</time></trkpt><trkpt lat="43.24625777788842" lon="11.366558287185427"><ele>223.66666666666669</ele><time>2026-04-11T10:00:08.999Z</time></trkpt><trkpt lat="43.24618274044269" lon="11.366610706185762"><ele>223.83333333333334</ele><time>2026-04-11T10:00:10.999Z</time></trkpt><trkpt lat="43.24612540120952" lon="11.366700658637733"><ele>224.0</ele><time>2026-04-11T10:00:12.999Z</time></trkpt><trkpt lat="43.24606988058883" lon="11.36674222542269"><ele>224.00000000000003</ele><time>2026-04-11T10:00:13.999Z</time></trkpt><trkpt lat="43.24599554572494" lon="11.366826020542284"><ele>224.0</ele><time>2026-04-11T10:00:15.999Z</time></trkpt><trkpt lat="43.24589765823273" lon="11.36693171559137"><ele>224.0</ele><time>2026-04-11T10:00:17.999Z</time></trkpt><trkpt lat="43.24584928456793" lon="11.367000350131715"><ele>224.0</ele><time>2026-04-11T10:00:18.999Z</time></trkpt><trkpt lat="43.24578766757649" lon="11.367036875901915"><ele>224.00000000000003</ele><time>2026-04-11T10:00:19.999Z</time></trkpt><trkpt lat="43.2457297666527" lon="11.3670959736066"><ele>224.0</ele><time>2026-04-11T10:00:20.999Z</time></trkpt><trkpt lat="43.24567808340918" lon="11.367170594557505"><ele>223.33333333333334</ele><time>2026-04-11T10:00:21.999Z</time></trkpt><trkpt lat="43.24561100828148" lon="11.367222742107279"><ele>222.66666666666669</ele><time>2026-04-11T10:00:22.999Z</time></trkpt><trkpt lat="43.245537344127776" lon="11.367274725770807"><ele>222.0</ele><time>2026-04-11T10:00:24Z</time></trkpt><trkpt lat="43.24546222424164" lon="11.367318993357129"><ele>221.33333333333331</ele><time>2026-04-11T10:00:25Z</time></trkpt><trkpt lat="43.245387917845626" lon="11.367363206396654"><ele>220.66666666666666</ele><time>2026-04-11T10:00:26Z</time></trkpt><trkpt lat="43.24531105099509" lon="11.367397618692245"><ele>220.0</ele><time>2026-04-11T10:00:27Z</time></trkpt><trkpt lat="43.24523200180502" lon="11.36741895952559"><ele>219.99999999999997</ele><time>2026-04-11T10:00:28Z</time></trkpt><trkpt lat="43.24515336744981" lon="11.367442466615442"><ele>220.0</ele><time>2026-04-11T10:00:29Z</time></trkpt><trkpt lat="43.24508150080322" lon="11.36746227999349"><ele>220.0</ele><time>2026-04-11T10:00:30Z</time></trkpt><trkpt lat="43.24500082262575" lon="11.367485482794224"><ele>220.0</ele><time>2026-04-11T10:00:31Z</time></trkpt><trkpt lat="43.244933879109965" lon="11.367502887474478"><ele>219.99999999999997</ele><time>2026-04-11T10:00:32Z</time></trkpt><trkpt lat="43.24485689532846" lon="11.367527454816203"><ele>220.0</ele><time>2026-04-11T10:00:33Z</time></trkpt><trkpt lat="43.24478963448089" lon="11.36755340164418"><ele>220.6</ele><time>2026-04-11T10:00:34Z</time></trkpt><trkpt lat="43.24472014258985" lon="11.367573381103458"><ele>221.2</ele><time>2026-04-11T10:00:35Z</time></trkpt><trkpt lat="43.244606959743" lon="11.36759688063021"><ele>221.8</ele><time>2026-04-11T10:00:37Z</time></trkpt><trkpt lat="43.24451032119121" lon="11.367637948006426"><ele>222.4</ele><time>2026-04-11T10:00:39Z</time></trkpt><trkpt lat="43.24442529164495" lon="11.36765666134965"><ele>223.0</ele><time>2026-04-11T10:00:41Z</time></trkpt><trkpt lat="43.24434797563393" lon="11.367688626846524"><ele>222.99999999999997</ele><time>2026-04-11T10:00:43Z</time></trkpt><trkpt lat="43.2442783916835" lon="11.367702118834737"><ele>223.0</ele><time>2026-04-11T10:00:45Z</time></trkpt><trkpt lat="43.24419372407536" lon="11.367728089740954"><ele>223.0</ele><time>2026-04-11T10:00:47Z</time></trkpt><trkpt lat="43.24411550292924" lon="11.367756521817428"><ele>223.0</ele><time>2026-04-11T10:00:49Z</time></trkpt><trkpt lat="43.24403493265571" lon="11.367781055370013"><ele>222.99999999999997</ele><time>2026-04-11T10:00:51Z</time></trkpt><trkpt lat="43.24395808826854" lon="11.367809405136008"><ele>223.0</ele><time>2026-04-11T10:00:53Z</time></trkpt><trkpt lat="43.24387911154546" lon="11.367845299732558"><ele>223.49999999999997</ele><time>2026-04-11T10:00:55Z</time></trkpt><trkpt lat="43.243798595082346" lon="11.367859255878793"><ele>224.0</ele><time>2026-04-11T10:00:57Z</time></trkpt><trkpt lat="43.24372007190134" lon="11.367885056030296"><ele>224.5</ele><time>2026-04-11T10:00:59Z</time></trkpt><trkpt lat="43.243636366378226" lon="11.367909576834956"><ele>225.0</ele><time>2026-04-11T10:01:01Z</time></trkpt><trkpt lat="43.24354613631432" lon="11.367925421880445"><ele>225.49999999999997</ele><time>2026-04-11T10:01:03Z</time></trkpt><trkpt lat="43.24343683599075" lon="11.367946870012924"><ele>226.0</ele><time>2026-04-11T10:01:05Z</time></trkpt><trkpt lat="43.24332662337888" lon="11.367974101456259"><ele>226.0</ele><time>2026-04-11T10:01:07Z</time></trkpt><trkpt lat="43.243208126953114" lon="11.367998349136327"><ele>226.00000000000003</ele><time>2026-04-11T10:01:09Z</time></trkpt><trkpt lat="43.24308460308885" lon="11.368034686925135"><ele>226.00000000000003</ele><time>2026-04-11T10:01:11Z</time></trkpt><trkpt lat="43.24295471872553" lon="11.368087283973324"><ele>226.0</ele><time>2026-04-11T10:01:13Z</time></trkpt><trkpt lat="43.24289301584289" lon="11.368120252031598"><ele>226.0</ele><time>2026-04-11T10:01:14Z</time></trkpt><trkpt lat="43.24283076433506" lon="11.36816024809118"><ele>225.42857142857144</ele><time>2026-04-11T10:01:15Z</time></trkpt><trkpt lat="43.24276674530704" lon="11.368195118640688"><ele>224.85714285714283</ele><time>2026-04-11T10:01:16Z</time></trkpt><trkpt lat="43.24270449825025" lon="11.368240388781707"><ele>224.28571428571428</ele><time>2026-04-11T10:01:17Z</time></trkpt><trkpt lat="43.24264077933725" lon="11.368294834348943"><ele>223.71428571428572</ele><time>2026-04-11T10:01:18Z</time></trkpt><trkpt lat="43.24257799665584" lon="11.36835743655498"><ele>223.14285714285717</ele><time>2026-04-11T10:01:19Z</time></trkpt><trkpt lat="43.24251787808761" lon="11.36842087739106"><ele>222.57142857142856</ele><time>2026-04-11T10:01:20Z</time></trkpt><trkpt lat="43.242455223450406" lon="11.368492144509306"><ele>222.0</ele><time>2026-04-11T10:01:21Z</time></trkpt><trkpt lat="43.242397109926806" lon="11.368566356795597"><ele>222.0</ele><time>2026-04-11T10:01:22Z</time></trkpt><trkpt lat="43.24233861976248" lon="11.368649769564023"><ele>222.0</ele><time>2026-04-11T10:01:22.999Z</time></trkpt><trkpt lat="43.242274614528256" lon="11.368729455270522"><ele>222.0</ele><time>2026-04-11T10:01:23.999Z</time></trkpt><trkpt lat="43.242221858904195" lon="11.368808057767833"><ele>222.0</ele><time>2026-04-11T10:01:24.999Z</time></trkpt><trkpt lat="43.242159766606186" lon="11.368887400703574"><ele>222.0</ele><time>2026-04-11T10:01:25.999Z</time></trkpt><trkpt lat="43.24208860245519" lon="11.368961824096033"><ele>222.0</ele><time>2026-04-11T10:01:26.999Z</time></trkpt><trkpt lat="43.242035036780514" lon="11.36903248873105"><ele>221.7142857142857</ele><time>2026-04-11T10:01:27.999Z</time></trkpt><trkpt lat="43.24199303432541" lon="11.36911908068868"><ele>221.42857142857144</ele><time>2026-04-11T10:01:28.999Z</time></trkpt><trkpt lat="43.24192687805104" lon="11.369181246561391"><ele>221.14285714285714</ele><time>2026-04-11T10:01:29.999Z</time></trkpt><trkpt lat="43.24187904977271" lon="11.369258761953883"><ele>220.85714285714283</ele><time>2026-04-11T10:01:30.999Z</time></trkpt><trkpt lat="43.24182693390845" lon="11.369331178026654"><ele>220.57142857142856</ele><time>2026-04-11T10:01:31.999Z</time></trkpt><trkpt lat="43.24176864178261" lon="11.36938047273633"><ele>220.28571428571428</ele><time>2026-04-11T10:01:32.999Z</time></trkpt><trkpt lat="43.24172536906534" lon="11.369448980483897"><ele>220.0</ele><time>2026-04-11T10:01:33.999Z</time></trkpt><trkpt lat="43.241669865215535" lon="11.369505680033908"><ele>219.99999999999997</ele><time>2026-04-11T10:01:34.999Z</time></trkpt><trkpt lat="43.24161234792748" lon="11.369574178484033"><ele>220.0</ele><time>2026-04-11T10:01:35.999Z</time></trkpt><trkpt lat="43.24155631870123" lon="11.369651948603643"><ele>220.0</ele><time>2026-04-11T10:01:36.999Z</time></trkpt><trkpt lat="43.241497443722956" lon="11.369713940209872"><ele>220.0</ele><time>2026-04-11T10:01:37.999Z</time></trkpt><trkpt lat="43.24143676201845" lon="11.36978688083906"><ele>219.99999999999997</ele><time>2026-04-11T10:01:38.999Z</time></trkpt><trkpt lat="43.24137082409057" lon="11.369860284362582"><ele>220.0</ele><time>2026-04-11T10:01:39.999Z</time></trkpt><trkpt lat="43.241311203261766" lon="11.369923902395954"><ele>219.16666666666666</ele><time>2026-04-11T10:01:40.999Z</time></trkpt><trkpt lat="43.241248132243854" lon="11.369984169478574"><ele>218.33333333333331</ele><time>2026-04-11T10:01:41.999Z</time></trkpt><trkpt lat="43.24118251913329" lon="11.370049649222802"><ele>217.5</ele><time>2026-04-11T10:01:42.999Z</time></trkpt><trkpt lat="43.24111313180988" lon="11.37011130967657"><ele>216.66666666666669</ele><time>2026-04-11T10:01:43.999Z</time></trkpt><trkpt lat="43.24104978444741" lon="11.370166819147425"><ele>215.83333333333334</ele><time>2026-04-11T10:01:44.999Z</time></trkpt><trkpt lat="43.24098451580643" lon="11.370223594265237"><ele>215.0</ele><time>2026-04-11T10:01:45.999Z</time></trkpt><trkpt lat="43.24092341335615" lon="11.3702777486014"><ele>215.0</ele><time>2026-04-11T10:01:46.999Z</time></trkpt><trkpt lat="43.24086399875133" lon="11.370334763843358"><ele>215.0</ele><time>2026-04-11T10:01:47.999Z</time></trkpt><trkpt lat="43.24080424630805" lon="11.3703895217142"><ele>215.0</ele><time>2026-04-11T10:01:48.999Z</time></trkpt><trkpt lat="43.24074160357415" lon="11.370444316170989"><ele>215.0</ele><time>2026-04-11T10:01:49.999Z</time></trkpt><trkpt lat="43.24068671542691" lon="11.370498119214703"><ele>215.0</ele><time>2026-04-11T10:01:50.999Z</time></trkpt><trkpt lat="43.24063673486675" lon="11.370558241337964"><ele>215.0</ele><time>2026-04-11T10:01:51.999Z</time></trkpt><trkpt lat="43.24057766004481" lon="11.370600679782145"><ele>215.0</ele><time>2026-04-11T10:01:52.999Z</time></trkpt><trkpt lat="43.24053342040129" lon="11.370666377068828"><ele>215.33333333333334</ele><time>2026-04-11T10:01:53.999Z</time></trkpt><trkpt lat="43.240488406802655" lon="11.370732883710152"><ele>215.66666666666669</ele><time>2026-04-11T10:01:54.999Z</time></trkpt><trkpt lat="43.240406540085516" lon="11.370858712085964"><ele>216.0</ele><time>2026-04-11T10:01:56.999Z</time></trkpt><trkpt lat="43.240357441842285" lon="11.370939767742446"><ele>216.33333333333331</ele><time>2026-04-11T10:01:57.999Z</time></trkpt><trkpt lat="43.24031431991619" lon="11.37100988200099"><ele>216.66666666666666</ele><time>2026-04-11T10:01:58.999Z</time></trkpt><trkpt lat="43.24026777379588" lon="11.371087396711511"><ele>217.0</ele><time>2026-04-11T10:01:59.999Z</time></trkpt><trkpt lat="43.24020510686174" lon="11.371166256782107"><ele>217.0</ele><time>2026-04-11T10:02:00.999Z</time></trkpt><trkpt lat="43.240161533557135" lon="11.371235689602889"><ele>217.0</ele><time>2026-04-11T10:02:01.999Z</time></trkpt><trkpt lat="43.24011934242495" lon="11.371317230961411"><ele>217.0</ele><time>2026-04-11T10:02:02.999Z</time></trkpt><trkpt lat="43.2400741346934" lon="11.371395234828752"><ele>217.0</ele><time>2026-04-11T10:02:03.999Z</time></trkpt><trkpt lat="43.24002913699789" lon="11.37148929006468"><ele>217.0</ele><time>2026-04-11T10:02:04.999Z</time></trkpt><trkpt lat="43.2399839147782" lon="11.371574027051528"><ele>217.0</ele><time>2026-04-11T10:02:05.999Z</time></trkpt><trkpt lat="43.23993585173219" lon="11.371654213711015"><ele>217.0</ele><time>2026-04-11T10:02:06.999Z</time></trkpt><trkpt lat="43.239904297098356" lon="11.37176243182391"><ele>216.57142857142858</ele><time>2026-04-11T10:02:07.999Z</time></trkpt><trkpt lat="43.23985565010468" lon="11.371833439031297"><ele>216.14285714285714</ele><time>2026-04-11T10:02:08.999Z</time></trkpt><trkpt lat="43.23982397149034" lon="11.371938922896149"><ele>215.71428571428572</ele><time>2026-04-11T10:02:09.999Z</time></trkpt><trkpt lat="43.23978465289104" lon="11.372034651429496"><ele>215.28571428571428</ele><time>2026-04-11T10:02:10.999Z</time></trkpt><trkpt lat="43.23973491221101" lon="11.372109923102778"><ele>214.85714285714286</ele><time>2026-04-11T10:02:11.999Z</time></trkpt><trkpt lat="43.23969654459795" lon="11.37218825276356"><ele>214.42857142857144</ele><time>2026-04-11T10:02:12.999Z</time></trkpt><trkpt lat="43.239659561861764" lon="11.372268802267198"><ele>214.0</ele><time>2026-04-11T10:02:13.999Z</time></trkpt><trkpt lat="43.239624363947335" lon="11.372348358217815"><ele>213.85714285714286</ele><time>2026-04-11T10:02:14.999Z</time></trkpt><trkpt lat="43.239586629983265" lon="11.372423523406344"><ele>213.71428571428572</ele><time>2026-04-11T10:02:15.999Z</time></trkpt><trkpt lat="43.239545024241096" lon="11.372493317610504"><ele>213.57142857142856</ele><time>2026-04-11T10:02:16.999Z</time></trkpt><trkpt lat="43.23950442935974" lon="11.372563907467804"><ele>213.42857142857144</ele><time>2026-04-11T10:02:17.999Z</time></trkpt><trkpt lat="43.239451037034684" lon="11.372614895464462"><ele>213.28571428571428</ele><time>2026-04-11T10:02:18.999Z</time></trkpt><trkpt lat="43.239381536263934" lon="11.372639122033682"><ele>213.14285714285714</ele><time>2026-04-11T10:02:19.999Z</time></trkpt><trkpt lat="43.23931302613701" lon="11.372655587886536"><ele>213.0</ele><time>2026-04-11T10:02:20.999Z</time></trkpt><trkpt lat="43.239241584082" lon="11.372670594252321"><ele>213.0</ele><time>2026-04-11T10:02:21.999Z</time></trkpt><trkpt lat="43.239167854775744" lon="11.372675868376295"><ele>213.0</ele><time>2026-04-11T10:02:22.999Z</time></trkpt><trkpt lat="43.23909347228895" lon="11.372671384612659"><ele>213.0</ele><time>2026-04-11T10:02:23.999Z</time></trkpt><trkpt lat="43.23901812643608" lon="11.372662400809181"><ele>213.0</ele><time>2026-04-11T10:02:24.999Z</time></trkpt><trkpt lat="43.23894043800081" lon="11.372661919113423"><ele>213.0</ele><time>2026-04-11T10:02:25.999Z</time></trkpt><trkpt lat="43.23885778681876" lon="11.372672442198805"><ele>213.0</ele><time>2026-04-11T10:02:26.999Z</time></trkpt><trkpt lat="43.23877827091442" lon="11.372688677747263"><ele>213.0</ele><time>2026-04-11T10:02:27.999Z</time></trkpt><trkpt lat="43.238697058618136" lon="11.372714493928822"><ele>213.0</ele><time>2026-04-11T10:02:28.999Z</time></trkpt><trkpt lat="43.23862237218877" lon="11.372753894563488"><ele>213.0</ele><time>2026-04-11T10:02:30Z</time></trkpt><trkpt lat="43.23854689406479" lon="11.372797906452378"><ele>213.0</ele><time>2026-04-11T10:02:31Z</time></trkpt><trkpt lat="43.23847367701046" lon="11.372846030008008"><ele>213.0</ele><time>2026-04-11T10:02:32Z</time></trkpt><trkpt lat="43.23839853746871" lon="11.372891309782366"><ele>213.0</ele><time>2026-04-11T10:02:33Z</time></trkpt><trkpt lat="43.23833705746711" lon="11.372954073212934"><ele>211.85714285714283</ele><time>2026-04-11T10:02:34Z</time></trkpt><trkpt lat="43.238282684409384" lon="11.37302451118099"><ele>210.71428571428572</ele><time>2026-04-11T10:02:35Z</time></trkpt><trkpt lat="43.238231108004044" lon="11.373093151524454"><ele>209.57142857142856</ele><time>2026-04-11T10:02:36Z</time></trkpt><trkpt lat="43.2382179630643" lon="11.373200928296816"><ele>208.42857142857142</ele><time>2026-04-11T10:02:37Z</time></trkpt><trkpt lat="43.23821000811216" lon="11.373299341272006"><ele>207.28571428571428</ele><time>2026-04-11T10:02:38Z</time></trkpt><trkpt lat="43.23821021453223" lon="11.373395323601702"><ele>206.14285714285714</ele><time>2026-04-11T10:02:39Z</time></trkpt><trkpt lat="43.23821481593491" lon="11.3734941125774"><ele>205.0</ele><time>2026-04-11T10:02:40Z</time></trkpt><trkpt lat="43.2382073741793" lon="11.373589256204319"><ele>205.0</ele><time>2026-04-11T10:02:41Z</time></trkpt><trkpt lat="43.238215106313596" lon="11.373682138663597"><ele>205.0</ele><time>2026-04-11T10:02:42Z</time></trkpt><trkpt lat="43.23822984713228" lon="11.373799811374948"><ele>205.0</ele><time>2026-04-11T10:02:43Z</time></trkpt><trkpt lat="43.238234181077004" lon="11.37390548024517"><ele>205.0</ele><time>2026-04-11T10:02:44Z</time></trkpt><trkpt lat="43.23825508157793" lon="11.374060427159963"><ele>205.0</ele><time>2026-04-11T10:02:46Z</time></trkpt><trkpt lat="43.23826100062566" lon="11.37425511248922"><ele>204.8</ele><time>2026-04-11T10:02:48Z</time></trkpt><trkpt lat="43.23826585031229" lon="11.37435758142924"><ele>204.6</ele><time>2026-04-11T10:02:49Z</time></trkpt><trkpt lat="43.23827441667621" lon="11.374529249025612"><ele>204.39999999999998</ele><time>2026-04-11T10:02:51Z</time></trkpt><trkpt lat="43.23827937153875" lon="11.374686409903807"><ele>204.2</ele><time>2026-04-11T10:02:53Z</time></trkpt><trkpt lat="43.23827315746615" lon="11.374791476595849"><ele>204.0</ele><time>2026-04-11T10:02:54Z</time></trkpt><trkpt lat="43.238256763561175" lon="11.374888211907978"><ele>204.0</ele><time>2026-04-11T10:02:55Z</time></trkpt><trkpt lat="43.23824721458711" lon="11.374993414083876"><ele>204.0</ele><time>2026-04-11T10:02:56Z</time></trkpt><trkpt lat="43.23819668550393" lon="11.375063305682753"><ele>204.0</ele><time>2026-04-11T10:02:57Z</time></trkpt><trkpt lat="43.238142573198026" lon="11.37511616907822"><ele>204.0</ele><time>2026-04-11T10:02:58Z</time></trkpt><trkpt lat="43.23808821047295" lon="11.375163158111135"><ele>204.0</ele><time>2026-04-11T10:02:59Z</time></trkpt><trkpt lat="43.2380245909459" lon="11.375218388191454"><ele>204.0</ele><time>2026-04-11T10:03:00Z</time></trkpt><trkpt lat="43.23795452510216" lon="11.375280456301097"><ele>204.0</ele><time>2026-04-11T10:03:01Z</time></trkpt><trkpt lat="43.237894755138804" lon="11.375337687774136"><ele>204.0</ele><time>2026-04-11T10:03:02Z</time></trkpt><trkpt lat="43.23782337165524" lon="11.375398214602884"><ele>204.0</ele><time>2026-04-11T10:03:03Z</time></trkpt><trkpt lat="43.237757351752414" lon="11.37544662246892"><ele>204.0</ele><time>2026-04-11T10:03:04Z</time></trkpt><trkpt lat="43.23769307948544" lon="11.375524543207437"><ele>204.0</ele><time>2026-04-11T10:03:05Z</time></trkpt><trkpt lat="43.23762501232077" lon="11.375593413775887"><ele>204.0</ele><time>2026-04-11T10:03:06Z</time></trkpt><trkpt lat="43.23755862499379" lon="11.37566625658263"><ele>204.0</ele><time>2026-04-11T10:03:07Z</time></trkpt><trkpt lat="43.237494303887374" lon="11.375743368486042"><ele>203.16666666666666</ele><time>2026-04-11T10:03:08Z</time></trkpt><trkpt lat="43.237428474504114" lon="11.375822696418089"><ele>202.33333333333331</ele><time>2026-04-11T10:03:09Z</time></trkpt><trkpt lat="43.23736235244693" lon="11.375893834030563"><ele>201.5</ele><time>2026-04-11T10:03:10Z</time></trkpt><trkpt lat="43.23729117713409" lon="11.375959936906662"><ele>200.66666666666666</ele><time>2026-04-11T10:03:11Z</time></trkpt><trkpt lat="43.23722442855942" lon="11.376039936756298"><ele>199.83333333333331</ele><time>2026-04-11T10:03:12Z</time></trkpt><trkpt lat="43.237154574618344" lon="11.376123595773878"><ele>199.0</ele><time>2026-04-11T10:03:13Z</time></trkpt><trkpt lat="43.23708604091569" lon="11.376203900361688"><ele>198.49999999999997</ele><time>2026-04-11T10:03:14Z</time></trkpt><trkpt lat="43.23701714975832" lon="11.376263508585984"><ele>198.0</ele><time>2026-04-11T10:03:15Z</time></trkpt><trkpt lat="43.236943886696324" lon="11.376307884465364"><ele>197.5</ele><time>2026-04-11T10:03:16Z</time></trkpt><trkpt lat="43.23686274558001" lon="11.376338740519868"><ele>197.0</ele><time>2026-04-11T10:03:17Z</time></trkpt><trkpt lat="43.23677480245232" lon="11.376346776810605"><ele>196.49999999999997</ele><time>2026-04-11T10:03:18Z</time></trkpt><trkpt lat="43.23668660119551" lon="11.376336062181883"><ele>196.0</ele><time>2026-04-11T10:03:19Z</time></trkpt><trkpt lat="43.23660145778099" lon="11.376320431089109"><ele>195.99999999999997</ele><time>2026-04-11T10:03:20Z</time></trkpt><trkpt lat="43.23652030208958" lon="11.376289228085607"><ele>196.0</ele><time>2026-04-11T10:03:21Z</time></trkpt><trkpt lat="43.23644562913215" lon="11.3762565071593"><ele>196.0</ele><time>2026-04-11T10:03:22Z</time></trkpt><trkpt lat="43.236380340931106" lon="11.376200622760177"><ele>196.0</ele><time>2026-04-11T10:03:23Z</time></trkpt><trkpt lat="43.2363223266734" lon="11.376123450813244"><ele>195.99999999999997</ele><time>2026-04-11T10:03:24Z</time></trkpt><trkpt lat="43.23626344424511" lon="11.37604321302315"><ele>196.0</ele><time>2026-04-11T10:03:25Z</time></trkpt><trkpt lat="43.236234568640235" lon="11.37593617814216"><ele>194.33333333333331</ele><time>2026-04-11T10:03:26Z</time></trkpt><trkpt lat="43.23621368014541" lon="11.37582814281771"><ele>192.66666666666666</ele><time>2026-04-11T10:03:27Z</time></trkpt><trkpt lat="43.23620168104214" lon="11.375712333644477"><ele>191.0</ele><time>2026-04-11T10:03:28Z</time></trkpt><trkpt lat="43.236194343866565" lon="11.375592139087178"><ele>189.33333333333331</ele><time>2026-04-11T10:03:29Z</time></trkpt><trkpt lat="43.23619337482561" lon="11.37546602040681"><ele>187.66666666666666</ele><time>2026-04-11T10:03:30Z</time></trkpt><trkpt lat="43.236204482825144" lon="11.375348770567275"><ele>186.0</ele><time>2026-04-11T10:03:31Z</time></trkpt><trkpt lat="43.23622080708084" lon="11.375235913823763"><ele>185.33333333333334</ele><time>2026-04-11T10:03:32Z</time></trkpt><trkpt lat="43.236281980159944" lon="11.375147466571441"><ele>184.66666666666666</ele><time>2026-04-11T10:03:33Z</time></trkpt><trkpt lat="43.23632435199305" lon="11.375042837371529"><ele>184.0</ele><time>2026-04-11T10:03:34Z</time></trkpt><trkpt lat="43.23636479126767" lon="11.37495113478621"><ele>183.33333333333331</ele><time>2026-04-11T10:03:35Z</time></trkpt><trkpt lat="43.23639979575525" lon="11.374850130040015"><ele>182.66666666666666</ele><time>2026-04-11T10:03:36Z</time></trkpt><trkpt lat="43.23644450804334" lon="11.374745618100615"><ele>182.0</ele><time>2026-04-11T10:03:37Z</time></trkpt><trkpt lat="43.2364781155288" lon="11.37464192278595"><ele>183.5</ele><time>2026-04-11T10:03:38Z</time></trkpt><trkpt lat="43.23650240802865" lon="11.374525845666557"><ele>185.0</ele><time>2026-04-11T10:03:39Z</time></trkpt><trkpt lat="43.23652964660001" lon="11.374412444127575"><ele>186.5</ele><time>2026-04-11T10:03:40Z</time></trkpt><trkpt lat="43.23655070645681" lon="11.37430099141136"><ele>188.0</ele><time>2026-04-11T10:03:41Z</time></trkpt><trkpt lat="43.23656651295189" lon="11.37418970370047"><ele>189.5</ele><time>2026-04-11T10:03:42Z</time></trkpt><trkpt lat="43.23657894115348" lon="11.374082829381255"><ele>191.0</ele><time>2026-04-11T10:03:43Z</time></trkpt><trkpt lat="43.23658836762827" lon="11.373982709860107"><ele>191.0</ele><time>2026-04-11T10:03:44Z</time></trkpt><trkpt lat="43.236575172077536" lon="11.373875822686163"><ele>191.0</ele><time>2026-04-11T10:03:44.999Z</time></trkpt><trkpt lat="43.236571484416956" lon="11.373777049251489"><ele>191.0</ele><time>2026-04-11T10:03:45.999Z</time></trkpt><trkpt lat="43.236548012480554" lon="11.373677046170702"><ele>191.0</ele><time>2026-04-11T10:03:46.999Z</time></trkpt><trkpt lat="43.23651293464773" lon="11.373584212648467"><ele>191.0</ele><time>2026-04-11T10:03:47.999Z</time></trkpt><trkpt lat="43.236459461917455" lon="11.373500096791588"><ele>191.0</ele><time>2026-04-11T10:03:48.999Z</time></trkpt><trkpt lat="43.236391453057706" lon="11.373436064432966"><ele>189.5</ele><time>2026-04-11T10:03:49.999Z</time></trkpt><trkpt lat="43.23631112538228" lon="11.3733880597889"><ele>188.0</ele><time>2026-04-11T10:03:50.999Z</time></trkpt><trkpt lat="43.23623247839721" lon="11.373361215817477"><ele>186.5</ele><time>2026-04-11T10:03:51.999Z</time></trkpt><trkpt lat="43.23614199871042" lon="11.373364046611139"><ele>185.0</ele><time>2026-04-11T10:03:52.999Z</time></trkpt><trkpt lat="43.23606411589882" lon="11.373368506562304"><ele>183.5</ele><time>2026-04-11T10:03:53.999Z</time></trkpt><trkpt lat="43.23598003575734" lon="11.37338393509494"><ele>182.0</ele><time>2026-04-11T10:03:54.999Z</time></trkpt><trkpt lat="43.23588946146708" lon="11.373399066761468"><ele>182.0</ele><time>2026-04-11T10:03:55.999Z</time></trkpt><trkpt lat="43.23580143233799" lon="11.373406835167689"><ele>182.0</ele><time>2026-04-11T10:03:56.999Z</time></trkpt><trkpt lat="43.235713810758824" lon="11.373418046389006"><ele>182.0</ele><time>2026-04-11T10:03:57.999Z</time></trkpt><trkpt lat="43.23562332017537" lon="11.373425497344364"><ele>182.0</ele><time>2026-04-11T10:03:58.999Z</time></trkpt><trkpt lat="43.235528494919464" lon="11.373434225551916"><ele>182.0</ele><time>2026-04-11T10:03:59.999Z</time></trkpt><trkpt lat="43.23543437884471" lon="11.373444225749822"><ele>181.0</ele><time>2026-04-11T10:04:00.999Z</time></trkpt><trkpt lat="43.23533986822356" lon="11.373455091898137"><ele>180.0</ele><time>2026-04-11T10:04:01.999Z</time></trkpt><trkpt lat="43.23524706011677" lon="11.373465344209682"><ele>179.0</ele><time>2026-04-11T10:04:02.999Z</time></trkpt><trkpt lat="43.23514512865575" lon="11.373480277272996"><ele>178.0</ele><time>2026-04-11T10:04:03.999Z</time></trkpt><trkpt lat="43.235050157282146" lon="11.373483263106325"><ele>177.0</ele><time>2026-04-11T10:04:04.999Z</time></trkpt><trkpt lat="43.23496191694114" lon="11.37349589611397"><ele>177.0</ele><time>2026-04-11T10:04:05.999Z</time></trkpt><trkpt lat="43.23487418538876" lon="11.373503907661735"><ele>177.0</ele><time>2026-04-11T10:04:06.999Z</time></trkpt><trkpt lat="43.23479344139578" lon="11.373496630847567"><ele>177.0</ele><time>2026-04-11T10:04:07.999Z</time></trkpt><trkpt lat="43.234697348992185" lon="11.373520287628473"><ele>177.0</ele><time>2026-04-11T10:04:08.999Z</time></trkpt><trkpt lat="43.23461347397469" lon="11.373522620466463"><ele>177.0</ele><time>2026-04-11T10:04:09.999Z</time></trkpt><trkpt lat="43.234532250034604" lon="11.373524702453441"><ele>177.0</ele><time>2026-04-11T10:04:10.999Z</time></trkpt><trkpt lat="43.234440777098534" lon="11.373542040113424"><ele>177.16666666666666</ele><time>2026-04-11T10:04:11.999Z</time></trkpt><trkpt lat="43.234358778799105" lon="11.373545389438778"><ele>177.33333333333334</ele><time>2026-04-11T10:04:12.999Z</time></trkpt><trkpt lat="43.23427648378988" lon="11.373560302024021"><ele>177.5</ele><time>2026-04-11T10:04:13.999Z</time></trkpt><trkpt lat="43.23419970243588" lon="11.373573214217274"><ele>177.66666666666669</ele><time>2026-04-11T10:04:14.999Z</time></trkpt><trkpt lat="43.23412845689445" lon="11.373559428852154"><ele>177.83333333333334</ele><time>2026-04-11T10:04:15.999Z</time></trkpt><trkpt lat="43.234052798723866" lon="11.373564666146677"><ele>178.0</ele><time>2026-04-11T10:04:16.999Z</time></trkpt><trkpt lat="43.23397817145273" lon="11.373573490761762"><ele>178.14285714285714</ele><time>2026-04-11T10:04:17.999Z</time></trkpt><trkpt lat="43.23390617581863" lon="11.373579211901923"><ele>178.28571428571428</ele><time>2026-04-11T10:04:18.999Z</time></trkpt><trkpt lat="43.23383436723694" lon="11.373589810200134"><ele>178.42857142857144</ele><time>2026-04-11T10:04:19.999Z</time></trkpt><trkpt lat="43.233765812462345" lon="11.37360090912833"><ele>178.57142857142856</ele><time>2026-04-11T10:04:20.999Z</time></trkpt><trkpt lat="43.23370121097444" lon="11.373621528622115"><ele>178.71428571428572</ele><time>2026-04-11T10:04:21.999Z</time></trkpt><trkpt lat="43.23363716446301" lon="11.373651848380328"><ele>178.85714285714286</ele><time>2026-04-11T10:04:22.999Z</time></trkpt><trkpt lat="43.233572494880754" lon="11.373691418869106"><ele>179.0</ele><time>2026-04-11T10:04:23.999Z</time></trkpt><trkpt lat="43.23350823963669" lon="11.373740170204297"><ele>179.0</ele><time>2026-04-11T10:04:24.999Z</time></trkpt><trkpt lat="43.23341284664012" lon="11.373813735536029"><ele>179.0</ele><time>2026-04-11T10:04:26.999Z</time></trkpt><trkpt lat="43.233289664187154" lon="11.373898420119698"><ele>179.0</ele><time>2026-04-11T10:04:28.999Z</time></trkpt><trkpt lat="43.23322281127871" lon="11.373937815717634"><ele>179.0</ele><time>2026-04-11T10:04:29.999Z</time></trkpt><trkpt lat="43.233112537291426" lon="11.374021495365417"><ele>179.0</ele><time>2026-04-11T10:04:31.999Z</time></trkpt><trkpt lat="43.23300439978587" lon="11.374101186537796"><ele>179.0</ele><time>2026-04-11T10:04:33.999Z</time></trkpt><trkpt lat="43.2329407042426" lon="11.374139760187088"><ele>179.0</ele><time>2026-04-11T10:04:34.999Z</time></trkpt><trkpt lat="43.232883283850015" lon="11.374182032132795"><ele>179.0</ele><time>2026-04-11T10:04:36Z</time></trkpt><trkpt lat="43.23276858158759" lon="11.374262453052165"><ele>179.0</ele><time>2026-04-11T10:04:38Z</time></trkpt><trkpt lat="43.23271363727311" lon="11.37430551897568"><ele>179.0</ele><time>2026-04-11T10:04:39Z</time></trkpt><trkpt lat="43.23260553752983" lon="11.374370216548954"><ele>179.0</ele><time>2026-04-11T10:04:41Z</time></trkpt><trkpt lat="43.2324994066143" lon="11.374436415639959"><ele>179.0</ele><time>2026-04-11T10:04:43Z</time></trkpt><trkpt lat="43.23241498109823" lon="11.374510094701506"><ele>179.0</ele><time>2026-04-11T10:04:45Z</time></trkpt><trkpt lat="43.23235337845059" lon="11.37454559586562"><ele>179.0</ele><time>2026-04-11T10:04:46Z</time></trkpt><trkpt lat="43.2322525985926" lon="11.374636278579798"><ele>179.0</ele><time>2026-04-11T10:04:48Z</time></trkpt><trkpt lat="43.232146891257614" lon="11.374699984847954"><ele>179.0</ele><time>2026-04-11T10:04:50Z</time></trkpt><trkpt lat="43.232048657230195" lon="11.374773491720573"><ele>179.0</ele><time>2026-04-11T10:04:52Z</time></trkpt><trkpt lat="43.231953271258476" lon="11.374838031590146"><ele>179.0</ele><time>2026-04-11T10:04:54Z</time></trkpt><trkpt lat="43.23186122434691" lon="11.374906490785799"><ele>179.0</ele><time>2026-04-11T10:04:56Z</time></trkpt><trkpt lat="43.231766657661886" lon="11.374970091048752"><ele>179.0</ele><time>2026-04-11T10:04:58Z</time></trkpt><trkpt lat="43.23167576536053" lon="11.375034225345674"><ele>179.0</ele><time>2026-04-11T10:05:00Z</time></trkpt><trkpt lat="43.231598945706374" lon="11.375104678940664"><ele>179.0</ele><time>2026-04-11T10:05:02Z</time></trkpt><trkpt lat="43.23153665946749" lon="11.375131270226671"><ele>179.0</ele><time>2026-04-11T10:05:03Z</time></trkpt><trkpt lat="43.23144489258841" lon="11.375203378538489"><ele>179.0</ele><time>2026-04-11T10:05:05Z</time></trkpt><trkpt lat="43.231351443372" lon="11.375264137808141"><ele>179.0</ele><time>2026-04-11T10:05:07Z</time></trkpt><trkpt lat="43.23125684292391" lon="11.375343303072004"><ele>179.0</ele><time>2026-04-11T10:05:09Z</time></trkpt><trkpt lat="43.231165244742535" lon="11.375407633276545"><ele>179.0</ele><time>2026-04-11T10:05:11Z</time></trkpt><trkpt lat="43.231066438496896" lon="11.375471179932815"><ele>179.0</ele><time>2026-04-11T10:05:13Z</time></trkpt><trkpt lat="43.23097181521252" lon="11.37553764725534"><ele>179.0</ele><time>2026-04-11T10:05:15Z</time></trkpt><trkpt lat="43.23087200221036" lon="11.37559939597946"><ele>179.0</ele><time>2026-04-11T10:05:17Z</time></trkpt><trkpt lat="43.2307827866297" lon="11.375664795353723"><ele>179.0</ele><time>2026-04-11T10:05:19Z</time></trkpt><trkpt lat="43.230728278282726" lon="11.37571405982081"><ele>180.0</ele><time>2026-04-11T10:05:20Z</time></trkpt><trkpt lat="43.23062902953363" lon="11.375783014683984"><ele>181.0</ele><time>2026-04-11T10:05:22Z</time></trkpt><trkpt lat="43.23053912932858" lon="11.37586169955575"><ele>182.0</ele><time>2026-04-11T10:05:24Z</time></trkpt><trkpt lat="43.23043964126527" lon="11.375921630263841"><ele>183.0</ele><time>2026-04-11T10:05:26Z</time></trkpt><trkpt lat="43.23034620933875" lon="11.37598944861081"><ele>184.0</ele><time>2026-04-11T10:05:28Z</time></trkpt><trkpt lat="43.23025013801929" lon="11.376060910347057"><ele>184.0</ele><time>2026-04-11T10:05:30Z</time></trkpt><trkpt lat="43.23014361711208" lon="11.37612062383904"><ele>184.0</ele><time>2026-04-11T10:05:32Z</time></trkpt><trkpt lat="43.23005512045798" lon="11.376199438987738"><ele>184.0</ele><time>2026-04-11T10:05:34Z</time></trkpt><trkpt lat="43.229962729207756" lon="11.37628099881072"><ele>184.0</ele><time>2026-04-11T10:05:36Z</time></trkpt><trkpt lat="43.22986330241429" lon="11.376356613887992"><ele>184.0</ele><time>2026-04-11T10:05:38Z</time></trkpt><trkpt lat="43.22976202734779" lon="11.376430716998554"><ele>184.39999999999998</ele><time>2026-04-11T10:05:40Z</time></trkpt><trkpt lat="43.22966027415153" lon="11.376508021983618"><ele>184.8</ele><time>2026-04-11T10:05:42Z</time></trkpt><trkpt lat="43.22957149329857" lon="11.376582939357192"><ele>185.2</ele><time>2026-04-11T10:05:44Z</time></trkpt><trkpt lat="43.229485678965546" lon="11.376653329710631"><ele>185.60000000000002</ele><time>2026-04-11T10:05:46Z</time></trkpt><trkpt lat="43.22938764563915" lon="11.376734924775159"><ele>186.0</ele><time>2026-04-11T10:05:48Z</time></trkpt><trkpt lat="43.22931132008515" lon="11.37682893551192"><ele>186.0</ele><time>2026-04-11T10:05:49.999Z</time></trkpt><trkpt lat="43.2292060177222" lon="11.376894458182878"><ele>186.0</ele><time>2026-04-11T10:05:51.999Z</time></trkpt><trkpt lat="43.22911509806432" lon="11.376968241561837"><ele>186.0</ele><time>2026-04-11T10:05:53.999Z</time></trkpt><trkpt lat="43.22901509987331" lon="11.377033778411436"><ele>186.0</ele><time>2026-04-11T10:05:55.999Z</time></trkpt><trkpt lat="43.228909996276464" lon="11.377089774792701"><ele>186.0</ele><time>2026-04-11T10:05:57.999Z</time></trkpt><trkpt lat="43.228810034520976" lon="11.377149049463165"><ele>184.0</ele><time>2026-04-11T10:05:59.999Z</time></trkpt><trkpt lat="43.22870298510887" lon="11.377197120747145"><ele>182.0</ele><time>2026-04-11T10:06:01.999Z</time></trkpt><trkpt lat="43.22858399357893" lon="11.37722278790474"><ele>180.0</ele><time>2026-04-11T10:06:03.999Z</time></trkpt><trkpt lat="43.22846975727831" lon="11.377247551910001"><ele>178.0</ele><time>2026-04-11T10:06:05.999Z</time></trkpt><trkpt lat="43.228350702227" lon="11.3772529663102"><ele>178.0</ele><time>2026-04-11T10:06:07.999Z</time></trkpt><trkpt lat="43.228282527804716" lon="11.377246061630949"><ele>178.0</ele><time>2026-04-11T10:06:08.999Z</time></trkpt><trkpt lat="43.22818540226453" lon="11.377273452912059"><ele>178.0</ele><time>2026-04-11T10:06:10.999Z</time></trkpt><trkpt lat="43.22811809948926" lon="11.377273779299248"><ele>178.0</ele><time>2026-04-11T10:06:11.999Z</time></trkpt><trkpt lat="43.228056005749416" lon="11.37729247053845"><ele>178.0</ele><time>2026-04-11T10:06:12.999Z</time></trkpt><trkpt lat="43.227963123364034" lon="11.377278873571218"><ele>178.0</ele><time>2026-04-11T10:06:14.999Z</time></trkpt><trkpt lat="43.227863859950425" lon="11.377300340728517"><ele>178.0</ele><time>2026-04-11T10:06:16.999Z</time></trkpt><trkpt lat="43.227748882434426" lon="11.377310494985707"><ele>178.0</ele><time>2026-04-11T10:06:18.999Z</time></trkpt><trkpt lat="43.22762232910325" lon="11.377294682480432"><ele>178.0</ele><time>2026-04-11T10:06:20.999Z</time></trkpt><trkpt lat="43.22755723596731" lon="11.377295353543238"><ele>178.0</ele><time>2026-04-11T10:06:21.999Z</time></trkpt><trkpt lat="43.227433758676504" lon="11.377307549639301"><ele>178.0</ele><time>2026-04-11T10:06:23.999Z</time></trkpt><trkpt lat="43.22732917618346" lon="11.377301922843461"><ele>177.8</ele><time>2026-04-11T10:06:25.999Z</time></trkpt><trkpt lat="43.22723014632853" lon="11.377241031563605"><ele>177.60000000000002</ele><time>2026-04-11T10:06:27.999Z</time></trkpt><trkpt lat="43.22716600231311" lon="11.37721457481108"><ele>177.39999999999998</ele><time>2026-04-11T10:06:28.999Z</time></trkpt><trkpt lat="43.22710370854042" lon="11.377191812213832"><ele>177.2</ele><time>2026-04-11T10:06:29.999Z</time></trkpt><trkpt lat="43.227001073066276" lon="11.377122513090752"><ele>177.0</ele><time>2026-04-11T10:06:31.999Z</time></trkpt><trkpt lat="43.226900047602996" lon="11.377053725651955"><ele>178.0</ele><time>2026-04-11T10:06:33.999Z</time></trkpt><trkpt lat="43.22679095443411" lon="11.376965417094786"><ele>179.0</ele><time>2026-04-11T10:06:35.999Z</time></trkpt><trkpt lat="43.22669112904785" lon="11.376882903103509"><ele>180.0</ele><time>2026-04-11T10:06:37.999Z</time></trkpt><trkpt lat="43.22659779264266" lon="11.37679709827547"><ele>181.0</ele><time>2026-04-11T10:06:39.999Z</time></trkpt><trkpt lat="43.226518137343135" lon="11.376694662730667"><ele>180.5</ele><time>2026-04-11T10:06:42Z</time></trkpt><trkpt lat="43.226429696073104" lon="11.376588211104055"><ele>180.0</ele><time>2026-04-11T10:06:44Z</time></trkpt><trkpt lat="43.2263499757775" lon="11.37646966365087"><ele>179.5</ele><time>2026-04-11T10:06:46Z</time></trkpt><trkpt lat="43.22628238503904" lon="11.376339124324197"><ele>179.0</ele><time>2026-04-11T10:06:48Z</time></trkpt><trkpt lat="43.22622343836047" lon="11.37621844795068"><ele>179.0</ele><time>2026-04-11T10:06:50Z</time></trkpt><trkpt lat="43.22616877161405" lon="11.376068185760959"><ele>179.0</ele><time>2026-04-11T10:06:52Z</time></trkpt><trkpt lat="43.22611988113407" lon="11.375929143488978"><ele>179.0</ele><time>2026-04-11T10:06:54Z</time></trkpt><trkpt lat="43.22608579531065" lon="11.375796853218969"><ele>179.0</ele><time>2026-04-11T10:06:56Z</time></trkpt><trkpt lat="43.22605956726885" lon="11.375635799222758"><ele>178.79999999999998</ele><time>2026-04-11T10:06:58Z</time></trkpt><trkpt lat="43.22603538300537" lon="11.375496952178645"><ele>178.6</ele><time>2026-04-11T10:07:00Z</time></trkpt><trkpt lat="43.226037835828066" lon="11.375347509750085"><ele>178.4</ele><time>2026-04-11T10:07:02Z</time></trkpt><trkpt lat="43.226045846381346" lon="11.37519393706263"><ele>178.2</ele><time>2026-04-11T10:07:04Z</time></trkpt><trkpt lat="43.22606109041336" lon="11.375051667708464"><ele>178.0</ele><time>2026-04-11T10:07:06Z</time></trkpt><trkpt lat="43.226061145809425" lon="11.374964830498707"><ele>178.0</ele><time>2026-04-11T10:07:07Z</time></trkpt><trkpt lat="43.22607398830124" lon="11.374822556863004"><ele>178.0</ele><time>2026-04-11T10:07:09Z</time></trkpt><trkpt lat="43.22609337605167" lon="11.374669093795804"><ele>178.0</ele><time>2026-04-11T10:07:11Z</time></trkpt><trkpt lat="43.226111087858" lon="11.37452067580876"><ele>178.0</ele><time>2026-04-11T10:07:13Z</time></trkpt><trkpt lat="43.226125890590644" lon="11.37436451412305"><ele>178.0</ele><time>2026-04-11T10:07:15Z</time></trkpt><trkpt lat="43.226138213251495" lon="11.374210327304578"><ele>178.0</ele><time>2026-04-11T10:07:17Z</time></trkpt><trkpt lat="43.226162771134035" lon="11.374067560443697"><ele>178.0</ele><time>2026-04-11T10:07:19Z</time></trkpt><trkpt lat="43.22616224063972" lon="11.373915126443567"><ele>178.0</ele><time>2026-04-11T10:07:21Z</time></trkpt><trkpt lat="43.22614700317046" lon="11.373753761126096"><ele>178.0</ele><time>2026-04-11T10:07:23Z</time></trkpt><trkpt lat="43.22614978354878" lon="11.373661841169083"><ele>178.0</ele><time>2026-04-11T10:07:24Z</time></trkpt><trkpt lat="43.226109374732914" lon="11.37351790705315"><ele>178.0</ele><time>2026-04-11T10:07:26Z</time></trkpt><trkpt lat="43.22606582629205" lon="11.37337155224716"><ele>178.0</ele><time>2026-04-11T10:07:28Z</time></trkpt><trkpt lat="43.226037453899224" lon="11.373290863139657"><ele>178.0</ele><time>2026-04-11T10:07:29Z</time></trkpt><trkpt lat="43.22600649549799" lon="11.373148324199866"><ele>178.0</ele><time>2026-04-11T10:07:31Z</time></trkpt><trkpt lat="43.22595018324483" lon="11.373029121525091"><ele>178.0</ele><time>2026-04-11T10:07:33Z</time></trkpt><trkpt lat="43.22589897598564" lon="11.372874831346127"><ele>178.8</ele><time>2026-04-11T10:07:35Z</time></trkpt><trkpt lat="43.22585402164071" lon="11.372730164482803"><ele>179.60000000000002</ele><time>2026-04-11T10:07:37Z</time></trkpt><trkpt lat="43.22583537920681" lon="11.37263760287488"><ele>180.39999999999998</ele><time>2026-04-11T10:07:38Z</time></trkpt><trkpt lat="43.22578987294274" lon="11.372488423625063"><ele>181.2</ele><time>2026-04-11T10:07:40Z</time></trkpt><trkpt lat="43.22574055361457" lon="11.372324796871569"><ele>182.0</ele><time>2026-04-11T10:07:42Z</time></trkpt><trkpt lat="43.22569542477229" lon="11.372234769643523"><ele>181.83333333333331</ele><time>2026-04-11T10:07:43Z</time></trkpt><trkpt lat="43.225643010381226" lon="11.372186058213627"><ele>181.66666666666666</ele><time>2026-04-11T10:07:44Z</time></trkpt><trkpt lat="43.225577748912485" lon="11.372139463008985"><ele>181.5</ele><time>2026-04-11T10:07:45Z</time></trkpt><trkpt lat="43.22548915104153" lon="11.372142338214749"><ele>181.33333333333334</ele><time>2026-04-11T10:07:46Z</time></trkpt><trkpt lat="43.225417671739834" lon="11.372182744157586"><ele>181.16666666666669</ele><time>2026-04-11T10:07:47Z</time></trkpt><trkpt lat="43.22535809110474" lon="11.372252316213068"><ele>181.0</ele><time>2026-04-11T10:07:48Z</time></trkpt><trkpt lat="43.22529600036745" lon="11.372313640484842"><ele>180.83333333333334</ele><time>2026-04-11T10:07:49Z</time></trkpt><trkpt lat="43.22525182177259" lon="11.372394778225159"><ele>180.66666666666669</ele><time>2026-04-11T10:07:50Z</time></trkpt><trkpt lat="43.2252175929445" lon="11.372484623357114"><ele>180.5</ele><time>2026-04-11T10:07:51Z</time></trkpt><trkpt lat="43.225190387267304" lon="11.372563523395666"><ele>180.33333333333334</ele><time>2026-04-11T10:07:52Z</time></trkpt><trkpt lat="43.2251460691253" lon="11.372697120458529"><ele>180.16666666666666</ele><time>2026-04-11T10:07:54Z</time></trkpt><trkpt lat="43.22511838465887" lon="11.372777283467077"><ele>180.0</ele><time>2026-04-11T10:07:55Z</time></trkpt><trkpt lat="43.22506823665195" lon="11.372904757195004"><ele>180.0</ele><time>2026-04-11T10:07:57Z</time></trkpt><trkpt lat="43.22503235967547" lon="11.373003003838004"><ele>180.0</ele><time>2026-04-11T10:07:59Z</time></trkpt><trkpt lat="43.22498904608563" lon="11.373086200749883"><ele>180.0</ele><time>2026-04-11T10:08:01Z</time></trkpt><trkpt lat="43.22495215892697" lon="11.373168012213783"><ele>180.0</ele><time>2026-04-11T10:08:03Z</time></trkpt><trkpt lat="43.22489271664237" lon="11.373260129687742"><ele>180.0</ele><time>2026-04-11T10:08:06Z</time></trkpt><trkpt lat="43.224834720173824" lon="11.373333301399818"><ele>180.0</ele><time>2026-04-11T10:08:08.999Z</time></trkpt><trkpt lat="43.224776832939106" lon="11.373383356562874"><ele>181.33333333333334</ele><time>2026-04-11T10:08:11.999Z</time></trkpt><trkpt lat="43.22471038257583" lon="11.373431397246359"><ele>182.66666666666666</ele><time>2026-04-11T10:08:15.999Z</time></trkpt><trkpt lat="43.224632702052155" lon="11.373468380059046"><ele>184.0</ele><time>2026-04-11T10:08:19.999Z</time></trkpt><trkpt lat="43.224550617911476" lon="11.373500289967769"><ele>185.33333333333331</ele><time>2026-04-11T10:08:23.999Z</time></trkpt><trkpt lat="43.22447676357083" lon="11.373518399586471"><ele>186.66666666666666</ele><time>2026-04-11T10:08:27.999Z</time></trkpt><trkpt lat="43.22439277523021" lon="11.373528072963898"><ele>188.0</ele><time>2026-04-11T10:08:31.999Z</time></trkpt><trkpt lat="43.224316518355515" lon="11.373528805045439"><ele>188.0</ele><time>2026-04-11T10:08:35.999Z</time></trkpt><trkpt lat="43.224245385591686" lon="11.373523157722953"><ele>188.0</ele><time>2026-04-11T10:08:39.999Z</time></trkpt><trkpt lat="43.22417730752868" lon="11.373502230898662"><ele>188.0</ele><time>2026-04-11T10:08:43.999Z</time></trkpt><trkpt lat="43.22411220866328" lon="11.37346726933144"><ele>188.0</ele><time>2026-04-11T10:08:48Z</time></trkpt><trkpt lat="43.224044384307064" lon="11.373428731617713"><ele>188.0</ele><time>2026-04-11T10:08:52Z</time></trkpt><trkpt lat="43.223985392433384" lon="11.373387849923779"><ele>188.0</ele><time>2026-04-11T10:08:56Z</time></trkpt><trkpt lat="43.22392791592912" lon="11.373333835954261"><ele>188.0</ele><time>2026-04-11T10:09:00Z</time></trkpt><trkpt lat="43.22386992999334" lon="11.373299147100198"><ele>190.57142857142856</ele><time>2026-04-11T10:09:03Z</time></trkpt><trkpt lat="43.223817220909424" lon="11.373246757498693"><ele>193.14285714285714</ele><time>2026-04-11T10:09:07Z</time></trkpt><trkpt lat="43.22376475070401" lon="11.373172569922906"><ele>195.71428571428572</ele><time>2026-04-11T10:09:11Z</time></trkpt><trkpt lat="43.223718461408595" lon="11.373098699759229"><ele>198.28571428571428</ele><time>2026-04-11T10:09:15Z</time></trkpt><trkpt lat="43.22368512824492" lon="11.373010347755262"><ele>200.85714285714286</ele><time>2026-04-11T10:09:19Z</time></trkpt><trkpt lat="43.22364975750286" lon="11.372934415369063"><ele>203.42857142857142</ele><time>2026-04-11T10:09:23Z</time></trkpt><trkpt lat="43.22362325915294" lon="11.372849659930903"><ele>206.0</ele><time>2026-04-11T10:09:27Z</time></trkpt><trkpt lat="43.22360245651205" lon="11.372761435893036"><ele>205.99999999999997</ele><time>2026-04-11T10:09:31Z</time></trkpt><trkpt lat="43.22356915644936" lon="11.372683845676281"><ele>206.0</ele><time>2026-04-11T10:09:35Z</time></trkpt><trkpt lat="43.223568747263485" lon="11.372593158622934"><ele>206.0</ele><time>2026-04-11T10:09:39Z</time></trkpt><trkpt lat="43.22359229470442" lon="11.37249837534208"><ele>206.0</ele><time>2026-04-11T10:09:43Z</time></trkpt><trkpt lat="43.223593713033814" lon="11.372403602266274"><ele>206.0</ele><time>2026-04-11T10:09:47Z</time></trkpt><trkpt lat="43.2236245425611" lon="11.372314065113189"><ele>205.99999999999997</ele><time>2026-04-11T10:09:50Z</time></trkpt><trkpt lat="43.223634877458835" lon="11.372216504674709"><ele>206.0</ele><time>2026-04-11T10:09:54Z</time></trkpt><trkpt lat="43.22365187811458" lon="11.372115361788921"><ele>206.00000000000003</ele><time>2026-04-11T10:09:57Z</time></trkpt><trkpt lat="43.223647288647335" lon="11.37201012936115"><ele>206.0</ele><time>2026-04-11T10:10:00.999Z</time></trkpt><trkpt lat="43.223658268914754" lon="11.371901983340326"><ele>206.0</ele><time>2026-04-11T10:10:03.999Z</time></trkpt><trkpt lat="43.22362076801545" lon="11.371772723534708"><ele>206.0</ele><time>2026-04-11T10:10:08.999Z</time></trkpt><trkpt lat="43.22357838562" lon="11.37167621981057"><ele>206.00000000000003</ele><time>2026-04-11T10:10:11.999Z</time></trkpt><trkpt lat="43.22354904665318" lon="11.371566007968037"><ele>206.0</ele><time>2026-04-11T10:10:14.999Z</time></trkpt><trkpt lat="43.22351204783436" lon="11.37149462809147"><ele>205.99999999999997</ele><time>2026-04-11T10:10:16.999Z</time></trkpt><trkpt lat="43.223479527237586" lon="11.371416749035832"><ele>206.0</ele><time>2026-04-11T10:10:19.999Z</time></trkpt><trkpt lat="43.22342358830979" lon="11.371345352599748"><ele>206.0</ele><time>2026-04-11T10:10:22.999Z</time></trkpt><trkpt lat="43.22336470380717" lon="11.371283342621094"><ele>206.0</ele><time>2026-04-11T10:10:25.999Z</time></trkpt><trkpt lat="43.223296955746" lon="11.371224562360753"><ele>206.0</ele><time>2026-04-11T10:10:29.999Z</time></trkpt><trkpt lat="43.22323389605768" lon="11.371174761555402"><ele>205.99999999999997</ele><time>2026-04-11T10:10:33.999Z</time></trkpt><trkpt lat="43.22316714749693" lon="11.371166066286747"><ele>206.0</ele><time>2026-04-11T10:10:36.999Z</time></trkpt><trkpt lat="43.2231002409673" lon="11.371169910859882"><ele>206.33333333333334</ele><time>2026-04-11T10:10:39.999Z</time></trkpt><trkpt lat="43.22302271010468" lon="11.371194610257016"><ele>206.66666666666669</ele><time>2026-04-11T10:10:43.999Z</time></trkpt><trkpt lat="43.22296493936453" lon="11.371251278465824"><ele>207.0</ele><time>2026-04-11T10:10:46.999Z</time></trkpt><trkpt lat="43.22290791029378" lon="11.371315692559339"><ele>207.33333333333331</ele><time>2026-04-11T10:10:49.999Z</time></trkpt><trkpt lat="43.2228535101919" lon="11.371406430246543"><ele>207.66666666666666</ele><time>2026-04-11T10:10:54Z</time></trkpt><trkpt lat="43.222803633604485" lon="11.37148677947766"><ele>208.0</ele><time>2026-04-11T10:10:57Z</time></trkpt><trkpt lat="43.22276533326752" lon="11.371566604907661"><ele>208.0</ele><time>2026-04-11T10:11:00Z</time></trkpt><trkpt lat="43.222722151220694" lon="11.371639753028873"><ele>208.0</ele><time>2026-04-11T10:11:03Z</time></trkpt><trkpt lat="43.2226837041417" lon="11.371719242936921"><ele>208.0</ele><time>2026-04-11T10:11:06Z</time></trkpt><trkpt lat="43.22264313506658" lon="11.371796943428038"><ele>208.0</ele><time>2026-04-11T10:11:09Z</time></trkpt><trkpt lat="43.222602391317885" lon="11.37187502039233"><ele>208.0</ele><time>2026-04-11T10:11:12Z</time></trkpt><trkpt lat="43.2225554693552" lon="11.37194962438184"><ele>208.0</ele><time>2026-04-11T10:11:15Z</time></trkpt><trkpt lat="43.22251902652589" lon="11.372021696984117"><ele>208.0</ele><time>2026-04-11T10:11:18Z</time></trkpt><trkpt lat="43.2224694111783" lon="11.372103186952398"><ele>209.0</ele><time>2026-04-11T10:11:22Z</time></trkpt><trkpt lat="43.22241163164272" lon="11.372192006132057"><ele>210.0</ele><time>2026-04-11T10:11:26Z</time></trkpt><trkpt lat="43.22235241349379" lon="11.372251111798406"><ele>211.0</ele><time>2026-04-11T10:11:30Z</time></trkpt><trkpt lat="43.22230214374843" lon="11.372317311495983"><ele>212.0</ele><time>2026-04-11T10:11:34Z</time></trkpt><trkpt lat="43.22224133421474" lon="11.372377320814342"><ele>213.0</ele><time>2026-04-11T10:11:38Z</time></trkpt><trkpt lat="43.22218482148994" lon="11.372423031017036"><ele>214.0</ele><time>2026-04-11T10:11:41Z</time></trkpt><trkpt lat="43.22212488344293" lon="11.372480369911822"><ele>215.0</ele><time>2026-04-11T10:11:45Z</time></trkpt><trkpt lat="43.22205649461825" lon="11.37254924730192"><ele>216.00000000000003</ele><time>2026-04-11T10:11:49Z</time></trkpt><trkpt lat="43.221984852695655" lon="11.372583137265181"><ele>217.0</ele><time>2026-04-11T10:11:53Z</time></trkpt><trkpt lat="43.22190687008825" lon="11.37261665316646"><ele>218.0</ele><time>2026-04-11T10:11:57Z</time></trkpt><trkpt lat="43.22183408963675" lon="11.372634882808429"><ele>219.0</ele><time>2026-04-11T10:12:01Z</time></trkpt><trkpt lat="43.22176564762701" lon="11.372653907009193"><ele>220.00000000000003</ele><time>2026-04-11T10:12:05Z</time></trkpt><trkpt lat="43.22168610946524" lon="11.37267294732108"><ele>221.0</ele><time>2026-04-11T10:12:09Z</time></trkpt><trkpt lat="43.22161024850614" lon="11.372689628747091"><ele>221.00000000000003</ele><time>2026-04-11T10:12:12.999Z</time></trkpt><trkpt lat="43.221538803315454" lon="11.372692957730491"><ele>221.0</ele><time>2026-04-11T10:12:16.999Z</time></trkpt><trkpt lat="43.221465501603305" lon="11.372709508232143"><ele>221.0</ele><time>2026-04-11T10:12:20.999Z</time></trkpt><trkpt lat="43.221393357735295" lon="11.372727090710566"><ele>221.0</ele><time>2026-04-11T10:12:24.999Z</time></trkpt><trkpt lat="43.22131499492006" lon="11.372749668453219"><ele>221.00000000000003</ele><time>2026-04-11T10:12:29.999Z</time></trkpt><trkpt lat="43.221232331163314" lon="11.372772842354786"><ele>221.0</ele><time>2026-04-11T10:12:33.999Z</time></trkpt><trkpt lat="43.22116559519419" lon="11.372774997303177"><ele>222.00000000000003</ele><time>2026-04-11T10:12:36.999Z</time></trkpt><trkpt lat="43.22108723718397" lon="11.372786949099547"><ele>223.0</ele><time>2026-04-11T10:12:39.999Z</time></trkpt><trkpt lat="43.221013345140804" lon="11.372814389969962"><ele>224.0</ele><time>2026-04-11T10:12:42.999Z</time></trkpt><trkpt lat="43.22093560026137" lon="11.372818805990892"><ele>225.0</ele><time>2026-04-11T10:12:45.999Z</time></trkpt><trkpt lat="43.22085268974258" lon="11.372835526815335"><ele>226.00000000000003</ele><time>2026-04-11T10:12:48.999Z</time></trkpt><trkpt lat="43.22077118662297" lon="11.3728591242305"><ele>227.0</ele><time>2026-04-11T10:12:51.999Z</time></trkpt><trkpt lat="43.22070668160925" lon="11.372862720593071"><ele>228.33333333333334</ele><time>2026-04-11T10:12:54.999Z</time></trkpt><trkpt lat="43.220628224706665" lon="11.372884819614466"><ele>229.66666666666669</ele><time>2026-04-11T10:12:57.999Z</time></trkpt><trkpt lat="43.2205474758474" lon="11.372903271624665"><ele>231.0</ele><time>2026-04-11T10:13:02Z</time></trkpt><trkpt lat="43.220465123606196" lon="11.372916546819575"><ele>232.33333333333331</ele><time>2026-04-11T10:13:06Z</time></trkpt><trkpt lat="43.2203877087584" lon="11.372936691845533"><ele>233.66666666666666</ele><time>2026-04-11T10:13:10Z</time></trkpt><trkpt lat="43.22030834173259" lon="11.372954932505376"><ele>235.0</ele><time>2026-04-11T10:13:14Z</time></trkpt><trkpt lat="43.22022833907677" lon="11.372971861067333"><ele>235.0</ele><time>2026-04-11T10:13:18Z</time></trkpt><trkpt lat="43.220151007522205" lon="11.372990698598706"><ele>234.99999999999997</ele><time>2026-04-11T10:13:22Z</time></trkpt><trkpt lat="43.220078684792" lon="11.37300370114872"><ele>235.0</ele><time>2026-04-11T10:13:26Z</time></trkpt><trkpt lat="43.22000665151232" lon="11.373012945767027"><ele>235.0</ele><time>2026-04-11T10:13:31Z</time></trkpt><trkpt lat="43.219930147052835" lon="11.373053928601541"><ele>234.99999999999997</ele><time>2026-04-11T10:13:35Z</time></trkpt><trkpt lat="43.21985895192421" lon="11.373061618039745"><ele>235.0</ele><time>2026-04-11T10:13:39Z</time></trkpt><trkpt lat="43.21979185058424" lon="11.373071032018245"><ele>235.0</ele><time>2026-04-11T10:13:43Z</time></trkpt><trkpt lat="43.219725748418256" lon="11.373091949917487"><ele>236.28571428571428</ele><time>2026-04-11T10:13:47Z</time></trkpt><trkpt lat="43.21964648777794" lon="11.373081348963657"><ele>237.57142857142856</ele><time>2026-04-11T10:13:51Z</time></trkpt><trkpt lat="43.219579649715975" lon="11.373081004305902"><ele>238.85714285714283</ele><time>2026-04-11T10:13:55Z</time></trkpt><trkpt lat="43.21950844753493" lon="11.373073418937139"><ele>240.1428571428571</ele><time>2026-04-11T10:13:59Z</time></trkpt><trkpt lat="43.21942617379151" lon="11.373075989291454"><ele>241.42857142857142</ele><time>2026-04-11T10:14:04Z</time></trkpt><trkpt lat="43.219360849123476" lon="11.373064923454788"><ele>242.71428571428567</ele><time>2026-04-11T10:14:08Z</time></trkpt><trkpt lat="43.21929189405401" lon="11.373031833808977"><ele>243.99999999999997</ele><time>2026-04-11T10:14:11Z</time></trkpt><trkpt lat="43.2192180261369" lon="11.373044617091553"><ele>243.99999999999997</ele><time>2026-04-11T10:14:14Z</time></trkpt><trkpt lat="43.21914809975503" lon="11.373036896768934"><ele>244.0</ele><time>2026-04-11T10:14:17Z</time></trkpt><trkpt lat="43.219079750571666" lon="11.373005203253943"><ele>244.0</ele><time>2026-04-11T10:14:20.999Z</time></trkpt><trkpt lat="43.219017642538766" lon="11.373019914130207"><ele>244.0</ele><time>2026-04-11T10:14:23.999Z</time></trkpt><trkpt lat="43.218921942827365" lon="11.37297902952446"><ele>243.99999999999997</ele><time>2026-04-11T10:14:26.999Z</time></trkpt><trkpt lat="43.218850051921606" lon="11.3729451843874"><ele>244.0</ele><time>2026-04-11T10:14:29.999Z</time></trkpt><trkpt lat="43.21881986519516" lon="11.372848185529968"><ele>245.33333333333331</ele><time>2026-04-11T10:14:31.999Z</time></trkpt><trkpt lat="43.21873148028078" lon="11.372825478308616"><ele>246.66666666666666</ele><time>2026-04-11T10:14:34.999Z</time></trkpt><trkpt lat="43.21864736352652" lon="11.372771839255957"><ele>248.0</ele><time>2026-04-11T10:14:37.999Z</time></trkpt><trkpt lat="43.21857736124961" lon="11.372747955718529"><ele>249.33333333333331</ele><time>2026-04-11T10:14:39.999Z</time></trkpt><trkpt lat="43.21850753766454" lon="11.372709617495168"><ele>250.66666666666666</ele><time>2026-04-11T10:14:41.999Z</time></trkpt><trkpt lat="43.21843437439285" lon="11.372680593594463"><ele>252.0</ele><time>2026-04-11T10:14:43.999Z</time></trkpt><trkpt lat="43.21836066570422" lon="11.372660353195409"><ele>252.0</ele><time>2026-04-11T10:14:45.999Z</time></trkpt><trkpt lat="43.218298266033216" lon="11.372614225943586"><ele>252.0</ele><time>2026-04-11T10:14:47.999Z</time></trkpt><trkpt lat="43.21821843843554" lon="11.372588781385351"><ele>252.0</ele><time>2026-04-11T10:14:49.999Z</time></trkpt><trkpt lat="43.21814285592703" lon="11.3725663015269"><ele>252.0</ele><time>2026-04-11T10:14:51.999Z</time></trkpt><trkpt lat="43.218061053492924" lon="11.372528603800772"><ele>252.0</ele><time>2026-04-11T10:14:53.999Z</time></trkpt><trkpt lat="43.21798021061986" lon="11.372478327525325"><ele>252.0</ele><time>2026-04-11T10:14:55.999Z</time></trkpt><trkpt lat="43.21789154148037" lon="11.372448632043268"><ele>250.33333333333334</ele><time>2026-04-11T10:14:57.999Z</time></trkpt><trkpt lat="43.217806099227566" lon="11.372402218239888"><ele>248.66666666666669</ele><time>2026-04-11T10:14:59.999Z</time></trkpt><trkpt lat="43.21772372863324" lon="11.372370044942462"><ele>247.0</ele><time>2026-04-11T10:15:01.999Z</time></trkpt><trkpt lat="43.21765323822487" lon="11.372353011730443"><ele>245.33333333333334</ele><time>2026-04-11T10:15:03.999Z</time></trkpt><trkpt lat="43.21758600099801" lon="11.372326704661075"><ele>243.66666666666669</ele><time>2026-04-11T10:15:06Z</time></trkpt><trkpt lat="43.217529998594934" lon="11.372280376678642"><ele>242.0</ele><time>2026-04-11T10:15:31Z</time></trkpt><trkpt lat="43.21745987820394" lon="11.372240128668905"><ele>242.00000000000003</ele><time>2026-04-11T10:15:35Z</time></trkpt><trkpt lat="43.21739928155094" lon="11.372170807303092"><ele>242.0</ele><time>2026-04-11T10:15:39Z</time></trkpt><trkpt lat="43.21732700610634" lon="11.37220616320079"><ele>242.0</ele><time>2026-04-11T10:19:21Z</time></trkpt><trkpt lat="43.21725639265442" lon="11.372162272064605"><ele>242.0</ele><time>2026-04-11T10:19:24Z</time></trkpt><trkpt lat="43.21717131128839" lon="11.372108986899292"><ele>242.00000000000003</ele><time>2026-04-11T10:19:27Z</time></trkpt><trkpt lat="43.217097133384314" lon="11.3720628242635"><ele>242.0</ele><time>2026-04-11T10:19:29Z</time></trkpt><trkpt lat="43.21700647029275" lon="11.37201189166939"><ele>241.0</ele><time>2026-04-11T10:19:31Z</time></trkpt><trkpt lat="43.21690618178843" lon="11.371963934256001"><ele>240.0</ele><time>2026-04-11T10:19:33Z</time></trkpt><trkpt lat="43.21679918548844" lon="11.37191727295274"><ele>239.0</ele><time>2026-04-11T10:19:35Z</time></trkpt><trkpt lat="43.21669712216365" lon="11.371848548923298"><ele>238.0</ele><time>2026-04-11T10:19:37Z</time></trkpt><trkpt lat="43.21658146945579" lon="11.371801028629685"><ele>239.2</ele><time>2026-04-11T10:19:39Z</time></trkpt><trkpt lat="43.216469197699084" lon="11.371746355500711"><ele>240.4</ele><time>2026-04-11T10:19:41Z</time></trkpt><trkpt lat="43.216368710906075" lon="11.371702937153296"><ele>241.59999999999997</ele><time>2026-04-11T10:19:43Z</time></trkpt><trkpt lat="43.21627454714263" lon="11.371636366053421"><ele>242.79999999999998</ele><time>2026-04-11T10:19:45Z</time></trkpt><trkpt lat="43.21618297076446" lon="11.37158013905575"><ele>244.0</ele><time>2026-04-11T10:19:47Z</time></trkpt><trkpt lat="43.2161017017656" lon="11.371541043418558"><ele>243.99999999999997</ele><time>2026-04-11T10:19:49Z</time></trkpt><trkpt lat="43.21603148021691" lon="11.371494809145167"><ele>244.0</ele><time>2026-04-11T10:19:51Z</time></trkpt><trkpt lat="43.215964575207686" lon="11.371447120548716"><ele>244.0</ele><time>2026-04-11T10:19:53Z</time></trkpt><trkpt lat="43.21588097384387" lon="11.371419082286236"><ele>244.0</ele><time>2026-04-11T10:19:56Z</time></trkpt><trkpt lat="43.215824585731625" lon="11.371352278580817"><ele>243.99999999999997</ele><time>2026-04-11T10:19:59Z</time></trkpt><trkpt lat="43.21575419558853" lon="11.371287152546419"><ele>244.0</ele><time>2026-04-11T10:20:02Z</time></trkpt><trkpt lat="43.2156847768289" lon="11.371192970584842"><ele>243.2</ele><time>2026-04-11T10:20:05Z</time></trkpt><trkpt lat="43.21561342842453" lon="11.371141682226938"><ele>242.39999999999998</ele><time>2026-04-11T10:20:07Z</time></trkpt><trkpt lat="43.215536546944506" lon="11.371047716004957"><ele>241.6</ele><time>2026-04-11T10:20:09Z</time></trkpt><trkpt lat="43.21545453992221" lon="11.370956185116306"><ele>240.8</ele><time>2026-04-11T10:20:11Z</time></trkpt><trkpt lat="43.21534437894305" lon="11.370864620454563"><ele>240.0</ele><time>2026-04-11T10:20:13Z</time></trkpt><trkpt lat="43.21528323934091" lon="11.370822141013372"><ele>240.0</ele><time>2026-04-11T10:20:14Z</time></trkpt><trkpt lat="43.215214153576326" lon="11.370776176782135"><ele>240.0</ele><time>2026-04-11T10:20:15Z</time></trkpt><trkpt lat="43.21514179638192" lon="11.370743101653957"><ele>240.0</ele><time>2026-04-11T10:20:16Z</time></trkpt><trkpt lat="43.215062772886405" lon="11.37069934796371"><ele>240.0</ele><time>2026-04-11T10:20:17Z</time></trkpt><trkpt lat="43.214971873127766" lon="11.370667008711628"><ele>240.0</ele><time>2026-04-11T10:20:18Z</time></trkpt><trkpt lat="43.21487966815679" lon="11.370645766811801"><ele>240.0</ele><time>2026-04-11T10:20:19Z</time></trkpt><trkpt lat="43.21479629605001" lon="11.370644418393216"><ele>237.6</ele><time>2026-04-11T10:20:20Z</time></trkpt><trkpt lat="43.21471219715434" lon="11.370675266183902"><ele>235.2</ele><time>2026-04-11T10:20:21Z</time></trkpt><trkpt lat="43.21462215424919" lon="11.370720285532258"><ele>232.8</ele><time>2026-04-11T10:20:22Z</time></trkpt><trkpt lat="43.21452918366761" lon="11.370773276583176"><ele>230.4</ele><time>2026-04-11T10:20:23Z</time></trkpt><trkpt lat="43.21443049495984" lon="11.370831162671832"><ele>228.0</ele><time>2026-04-11T10:20:24Z</time></trkpt><trkpt lat="43.21432982922505" lon="11.37090514177125"><ele>228.0</ele><time>2026-04-11T10:20:25Z</time></trkpt><trkpt lat="43.214226202480816" lon="11.370965212555204"><ele>228.0</ele><time>2026-04-11T10:20:26Z</time></trkpt><trkpt lat="43.21411719900192" lon="11.37104128648689"><ele>228.0</ele><time>2026-04-11T10:20:27Z</time></trkpt><trkpt lat="43.21400617407327" lon="11.371118069331057"><ele>228.0</ele><time>2026-04-11T10:20:28Z</time></trkpt><trkpt lat="43.21389620695928" lon="11.371191175790214"><ele>226.5</ele><time>2026-04-11T10:20:29Z</time></trkpt><trkpt lat="43.213787992903995" lon="11.37126194436757"><ele>225.0</ele><time>2026-04-11T10:20:30Z</time></trkpt><trkpt lat="43.21367329657026" lon="11.371327908087421"><ele>223.5</ele><time>2026-04-11T10:20:31Z</time></trkpt><trkpt lat="43.21355528267471" lon="11.371375380787233"><ele>222.0</ele><time>2026-04-11T10:20:32Z</time></trkpt><trkpt lat="43.21344058331266" lon="11.37139164589712"><ele>222.0</ele><time>2026-04-11T10:20:33Z</time></trkpt><trkpt lat="43.213333787189036" lon="11.371368894993644"><ele>222.0</ele><time>2026-04-11T10:20:34Z</time></trkpt><trkpt lat="43.213276791054476" lon="11.371257658435828"><ele>222.0</ele><time>2026-04-11T10:20:35Z</time></trkpt><trkpt lat="43.21321858342333" lon="11.371173103327301"><ele>222.0</ele><time>2026-04-11T10:20:36Z</time></trkpt><trkpt lat="43.213176947985886" lon="11.371089274416894"><ele>222.0</ele><time>2026-04-11T10:20:37Z</time></trkpt><trkpt lat="43.213115037553756" lon="11.37100743777011"><ele>222.0</ele><time>2026-04-11T10:20:38Z</time></trkpt><trkpt lat="43.213086259904074" lon="11.370913198589468"><ele>222.0</ele><time>2026-04-11T10:20:39Z</time></trkpt><trkpt lat="43.21303760550316" lon="11.370839251543838"><ele>222.0</ele><time>2026-04-11T10:20:40Z</time></trkpt><trkpt lat="43.21300362225798" lon="11.370766495999284"><ele>222.0</ele><time>2026-04-11T10:20:41Z</time></trkpt><trkpt lat="43.21292453468338" lon="11.37063477687876"><ele>222.0</ele><time>2026-04-11T10:20:43Z</time></trkpt><trkpt lat="43.21286864659489" lon="11.370490382351582"><ele>222.83333333333334</ele><time>2026-04-11T10:20:45Z</time></trkpt><trkpt lat="43.21282917958732" lon="11.370378164404727"><ele>223.66666666666669</ele><time>2026-04-11T10:20:47Z</time></trkpt><trkpt lat="43.21277404121718" lon="11.370283042869445"><ele>224.5</ele><time>2026-04-11T10:20:48.999Z</time></trkpt><trkpt lat="43.212728414451966" lon="11.370203064125308"><ele>225.33333333333334</ele><time>2026-04-11T10:20:50.999Z</time></trkpt><trkpt lat="43.212685715884724" lon="11.370126450237446"><ele>226.16666666666669</ele><time>2026-04-11T10:20:52.999Z</time></trkpt><trkpt lat="43.21264772886085" lon="11.37003218848723"><ele>227.0</ele><time>2026-04-11T10:20:54.999Z</time></trkpt><trkpt lat="43.21258482701476" lon="11.369933898231364"><ele>227.00000000000003</ele><time>2026-04-11T10:20:57.999Z</time></trkpt><trkpt lat="43.21252437033617" lon="11.369838631700585"><ele>227.0</ele><time>2026-04-11T10:21:00.999Z</time></trkpt><trkpt lat="43.21248384853278" lon="11.369766642297071"><ele>227.0</ele><time>2026-04-11T10:21:02.999Z</time></trkpt><trkpt lat="43.21242337441889" lon="11.3696769680638"><ele>227.0</ele><time>2026-04-11T10:21:05.999Z</time></trkpt><trkpt lat="43.21236267089652" lon="11.369589156083554"><ele>227.00000000000003</ele><time>2026-04-11T10:21:08.999Z</time></trkpt><trkpt lat="43.212315037822776" lon="11.369494333256197"><ele>227.0</ele><time>2026-04-11T10:21:11.999Z</time></trkpt><trkpt lat="43.21226016526146" lon="11.369416229153813"><ele>228.0</ele><time>2026-04-11T10:21:14.999Z</time></trkpt><trkpt lat="43.21220172502852" lon="11.369343144256323"><ele>229.00000000000003</ele><time>2026-04-11T10:21:17.999Z</time></trkpt><trkpt lat="43.2121602506038" lon="11.369256278176085"><ele>230.0</ele><time>2026-04-11T10:21:20.999Z</time></trkpt><trkpt lat="43.212104137244474" lon="11.369189841944074"><ele>231.0</ele><time>2026-04-11T10:21:24Z</time></trkpt><trkpt lat="43.212043437820164" lon="11.369153028394928"><ele>232.00000000000003</ele><time>2026-04-11T10:21:27Z</time></trkpt><trkpt lat="43.21199322055716" lon="11.369079144754545"><ele>233.0</ele><time>2026-04-11T10:21:30Z</time></trkpt><trkpt lat="43.21192484706719" lon="11.369020806597911"><ele>234.0</ele><time>2026-04-11T10:21:33Z</time></trkpt><trkpt lat="43.211854407076714" lon="11.368968694795553"><ele>234.0</ele><time>2026-04-11T10:21:36Z</time></trkpt><trkpt lat="43.21179166567346" lon="11.36895042535414"><ele>234.0</ele><time>2026-04-11T10:21:38Z</time></trkpt><trkpt lat="43.211717192948306" lon="11.368885682061546"><ele>234.0</ele><time>2026-04-11T10:21:41Z</time></trkpt><trkpt lat="43.2116278054537" lon="11.368841822779638"><ele>234.0</ele><time>2026-04-11T10:21:44Z</time></trkpt><trkpt lat="43.21157055387546" lon="11.368786419323932"><ele>234.0</ele><time>2026-04-11T10:21:46Z</time></trkpt><trkpt lat="43.21148584522633" lon="11.368750486877593"><ele>234.0</ele><time>2026-04-11T10:21:49Z</time></trkpt><trkpt lat="43.21139365159096" lon="11.3687285893446"><ele>233.83333333333334</ele><time>2026-04-11T10:21:51Z</time></trkpt><trkpt lat="43.21132906732443" lon="11.36869665241195"><ele>233.66666666666669</ele><time>2026-04-11T10:21:53Z</time></trkpt><trkpt lat="43.21124820421495" lon="11.368687167017764"><ele>233.5</ele><time>2026-04-11T10:21:55Z</time></trkpt><trkpt lat="43.21117484243785" lon="11.368635245661853"><ele>233.33333333333334</ele><time>2026-04-11T10:21:57Z</time></trkpt><trkpt lat="43.21109213802744" lon="11.36860771739584"><ele>233.16666666666669</ele><time>2026-04-11T10:21:59Z</time></trkpt><trkpt lat="43.21101179096197" lon="11.368595642926572"><ele>233.0</ele><time>2026-04-11T10:22:01Z</time></trkpt><trkpt lat="43.21093632512963" lon="11.36857359698393"><ele>233.00000000000003</ele><time>2026-04-11T10:22:03Z</time></trkpt><trkpt lat="43.21085930094127" lon="11.368540349960009"><ele>233.0</ele><time>2026-04-11T10:22:05Z</time></trkpt><trkpt lat="43.210789702504535" lon="11.368507051157492"><ele>233.0</ele><time>2026-04-11T10:22:07Z</time></trkpt><trkpt lat="43.210724070564275" lon="11.368498401541698"><ele>233.0</ele><time>2026-04-11T10:22:09Z</time></trkpt><trkpt lat="43.21064487843007" lon="11.368468548473288"><ele>233.00000000000003</ele><time>2026-04-11T10:22:11Z</time></trkpt><trkpt lat="43.2105795775634" lon="11.368440563171227"><ele>233.0</ele><time>2026-04-11T10:22:13Z</time></trkpt><trkpt lat="43.210495434333595" lon="11.368414524857256"><ele>232.66666666666669</ele><time>2026-04-11T10:22:15Z</time></trkpt><trkpt lat="43.210423823411325" lon="11.368371577058644"><ele>232.33333333333334</ele><time>2026-04-11T10:22:17Z</time></trkpt><trkpt lat="43.21033440456737" lon="11.368369434663284"><ele>232.0</ele><time>2026-04-11T10:22:19Z</time></trkpt><trkpt lat="43.21024944716336" lon="11.368319806142615"><ele>231.66666666666669</ele><time>2026-04-11T10:22:21Z</time></trkpt><trkpt lat="43.21017551151378" lon="11.368300279816392"><ele>231.33333333333334</ele><time>2026-04-11T10:22:23Z</time></trkpt><trkpt lat="43.210098507844414" lon="11.368271301262022"><ele>231.0</ele><time>2026-04-11T10:22:25Z</time></trkpt><trkpt lat="43.21002873982101" lon="11.368251337631657"><ele>231.0</ele><time>2026-04-11T10:22:27Z</time></trkpt><trkpt lat="43.209960721801444" lon="11.368227284227245"><ele>231.0</ele><time>2026-04-11T10:22:29Z</time></trkpt><trkpt lat="43.20988733295422" lon="11.36820575797217"><ele>231.0</ele><time>2026-04-11T10:22:31Z</time></trkpt><trkpt lat="43.209820054753195" lon="11.368197453864624"><ele>231.0</ele><time>2026-04-11T10:22:33Z</time></trkpt><trkpt lat="43.20975403691638" lon="11.368193945581572"><ele>231.0</ele><time>2026-04-11T10:22:35Z</time></trkpt><trkpt lat="43.20966816231088" lon="11.368221713280146"><ele>231.0</ele><time>2026-04-11T10:22:38Z</time></trkpt><trkpt lat="43.20959573537507" lon="11.368278364499414"><ele>233.33333333333334</ele><time>2026-04-11T10:22:41Z</time></trkpt><trkpt lat="43.20951725755983" lon="11.368352614216935"><ele>235.66666666666669</ele><time>2026-04-11T10:22:44Z</time></trkpt><trkpt lat="43.20947099663097" lon="11.36841481664086"><ele>238.0</ele><time>2026-04-11T10:22:46Z</time></trkpt><trkpt lat="43.209425119135894" lon="11.368484429112392"><ele>240.33333333333334</ele><time>2026-04-11T10:22:48Z</time></trkpt><trkpt lat="43.20935372584803" lon="11.368580005104626"><ele>242.66666666666669</ele><time>2026-04-11T10:22:50.999Z</time></trkpt><trkpt lat="43.20930798765226" lon="11.368655512819618"><ele>245.0</ele><time>2026-04-11T10:22:53.999Z</time></trkpt><trkpt lat="43.209250159311445" lon="11.368743856116607"><ele>245.00000000000003</ele><time>2026-04-11T10:22:55.999Z</time></trkpt><trkpt lat="43.20922248355774" lon="11.368823488772458"><ele>245.0</ele><time>2026-04-11T10:22:57.999Z</time></trkpt><trkpt lat="43.20915301530181" lon="11.368907407181686"><ele>245.0</ele><time>2026-04-11T10:22:59.999Z</time></trkpt><trkpt lat="43.20911359980201" lon="11.36900649516491"><ele>245.0</ele><time>2026-04-11T10:23:02.999Z</time></trkpt><trkpt lat="43.209047109781835" lon="11.36907554643191"><ele>245.00000000000003</ele><time>2026-04-11T10:23:05.999Z</time></trkpt><trkpt lat="43.208994862754814" lon="11.369151276432762"><ele>245.0</ele><time>2026-04-11T10:23:08.999Z</time></trkpt><trkpt lat="43.20894623475386" lon="11.369208274779952"><ele>248.16666666666669</ele><time>2026-04-11T10:23:10.999Z</time></trkpt><trkpt lat="43.20889896210086" lon="11.369288245367942"><ele>251.33333333333334</ele><time>2026-04-11T10:23:13.999Z</time></trkpt><trkpt lat="43.20885685729906" lon="11.369353867368197"><ele>254.5</ele><time>2026-04-11T10:23:15.999Z</time></trkpt><trkpt lat="43.20880346605593" lon="11.369419765057991"><ele>257.6666666666667</ele><time>2026-04-11T10:23:17.999Z</time></trkpt><trkpt lat="43.20874039481222" lon="11.369514221338294"><ele>260.8333333333333</ele><time>2026-04-11T10:23:20.999Z</time></trkpt><trkpt lat="43.208690769767074" lon="11.369588692221049"><ele>264.0</ele><time>2026-04-11T10:23:22.999Z</time></trkpt><trkpt lat="43.20862889169849" lon="11.369660457360663"><ele>262.42857142857144</ele><time>2026-04-11T10:23:25.999Z</time></trkpt><trkpt lat="43.208578843699854" lon="11.369737488019748"><ele>260.8571428571429</ele><time>2026-04-11T10:23:28.999Z</time></trkpt><trkpt lat="43.20852145711289" lon="11.369808322523912"><ele>259.28571428571433</ele><time>2026-04-11T10:23:33Z</time></trkpt><trkpt lat="43.20847115458747" lon="11.369889636138687"><ele>257.7142857142857</ele><time>2026-04-11T10:23:37Z</time></trkpt><trkpt lat="43.208412200442204" lon="11.36994187531089"><ele>256.14285714285717</ele><time>2026-04-11T10:23:40Z</time></trkpt><trkpt lat="43.20836664961807" lon="11.370035755054339"><ele>254.5714285714286</ele><time>2026-04-11T10:23:44Z</time></trkpt><trkpt lat="43.20831238814585" lon="11.370088317878142"><ele>253.00000000000003</ele><time>2026-04-11T10:23:47Z</time></trkpt><trkpt lat="43.20826621285889" lon="11.370152267477872"><ele>252.99999999999997</ele><time>2026-04-11T10:23:50Z</time></trkpt><trkpt lat="43.208207038823424" lon="11.370236803277612"><ele>253.0</ele><time>2026-04-11T10:23:54Z</time></trkpt><trkpt lat="43.20814668778977" lon="11.370304873100263"><ele>253.0</ele><time>2026-04-11T10:23:58Z</time></trkpt><trkpt lat="43.20809049184036" lon="11.370390571463515"><ele>253.0</ele><time>2026-04-11T10:24:02Z</time></trkpt><trkpt lat="43.208036685813795" lon="11.370468986034542"><ele>252.99999999999997</ele><time>2026-04-11T10:24:06Z</time></trkpt><trkpt lat="43.207990083149404" lon="11.370552974498334"><ele>253.0</ele><time>2026-04-11T10:24:10Z</time></trkpt><trkpt lat="43.20794181723589" lon="11.370643037799212"><ele>255.42857142857144</ele><time>2026-04-11T10:24:15Z</time></trkpt><trkpt lat="43.2078909017133" lon="11.370738972000963"><ele>257.8571428571429</ele><time>2026-04-11T10:24:19Z</time></trkpt><trkpt lat="43.207851925955616" lon="11.370818310334302"><ele>260.2857142857143</ele><time>2026-04-11T10:24:22Z</time></trkpt><trkpt lat="43.20778899435169" lon="11.37087862909742"><ele>262.7142857142857</ele><time>2026-04-11T10:24:26Z</time></trkpt><trkpt lat="43.20774405801831" lon="11.370957518998841"><ele>265.1428571428571</ele><time>2026-04-11T10:24:30Z</time></trkpt><trkpt lat="43.2076868867834" lon="11.371014111353173"><ele>267.57142857142856</ele><time>2026-04-11T10:24:34Z</time></trkpt><trkpt lat="43.20764974826563" lon="11.371095964956458"><ele>270.0</ele><time>2026-04-11T10:24:38Z</time></trkpt><trkpt lat="43.207601948286516" lon="11.371152669891375"><ele>270.0</ele><time>2026-04-11T10:24:43Z</time></trkpt><trkpt lat="43.20755354388489" lon="11.371211602665731"><ele>270.0</ele><time>2026-04-11T10:24:46Z</time></trkpt><trkpt lat="43.20751076251615" lon="11.371289680645221"><ele>270.0</ele><time>2026-04-11T10:24:50Z</time></trkpt><trkpt lat="43.207459977887865" lon="11.371350327870825"><ele>270.0</ele><time>2026-04-11T10:24:54Z</time></trkpt><trkpt lat="43.20740952343976" lon="11.37140619546947"><ele>270.0</ele><time>2026-04-11T10:24:57.999Z</time></trkpt><trkpt lat="43.20736085844842" lon="11.37148372265536"><ele>270.0</ele><time>2026-04-11T10:25:01.999Z</time></trkpt><trkpt lat="43.20729588288949" lon="11.371531692445119"><ele>270.0</ele><time>2026-04-11T10:25:04.999Z</time></trkpt><trkpt lat="43.207247845625126" lon="11.371640095556527"><ele>272.8333333333333</ele><time>2026-04-11T10:25:08.999Z</time></trkpt><trkpt lat="43.207185750061015" lon="11.371722405206695"><ele>275.6666666666667</ele><time>2026-04-11T10:25:12.999Z</time></trkpt><trkpt lat="43.20714388364408" lon="11.371824331735539"><ele>278.5</ele><time>2026-04-11T10:25:15.999Z</time></trkpt><trkpt lat="43.207086495072026" lon="11.371886533306508"><ele>281.33333333333337</ele><time>2026-04-11T10:25:17.999Z</time></trkpt><trkpt lat="43.20705012829374" lon="11.371984431637804"><ele>284.1666666666667</ele><time>2026-04-11T10:25:20.999Z</time></trkpt><trkpt lat="43.20700406670692" lon="11.372066028850831"><ele>287.0</ele><time>2026-04-11T10:25:22.999Z</time></trkpt><trkpt lat="43.20695765532397" lon="11.372138332759327"><ele>284.33333333333337</ele><time>2026-04-11T10:25:24.999Z</time></trkpt><trkpt lat="43.20690815251254" lon="11.372215185388143"><ele>281.6666666666667</ele><time>2026-04-11T10:25:26.999Z</time></trkpt><trkpt lat="43.20686816774796" lon="11.372301430393604"><ele>279.0</ele><time>2026-04-11T10:25:28.999Z</time></trkpt><trkpt lat="43.20681304076169" lon="11.372360656241456"><ele>276.3333333333333</ele><time>2026-04-11T10:25:30.999Z</time></trkpt><trkpt lat="43.206758840921715" lon="11.372444274375392"><ele>273.66666666666663</ele><time>2026-04-11T10:25:32.999Z</time></trkpt><trkpt lat="43.20668979245743" lon="11.372573574501862"><ele>271.0</ele><time>2026-04-11T10:25:34.999Z</time></trkpt><trkpt lat="43.2065993766216" lon="11.3726748425168"><ele>271.0</ele><time>2026-04-11T10:25:37Z</time></trkpt><trkpt lat="43.2065128233739" lon="11.372759719519776"><ele>271.0</ele><time>2026-04-11T10:25:39Z</time></trkpt><trkpt lat="43.20645403980118" lon="11.372795172344073"><ele>271.0</ele><time>2026-04-11T10:25:40Z</time></trkpt><trkpt lat="43.2064027837447" lon="11.372856202275637"><ele>271.0</ele><time>2026-04-11T10:25:41Z</time></trkpt><trkpt lat="43.206304160910705" lon="11.372923415462393"><ele>271.0</ele><time>2026-04-11T10:25:43Z</time></trkpt><trkpt lat="43.206174656245246" lon="11.373004190770185"><ele>270.2</ele><time>2026-04-11T10:25:45Z</time></trkpt><trkpt lat="43.20611908234248" lon="11.373056658791903"><ele>269.40000000000003</ele><time>2026-04-11T10:25:46Z</time></trkpt><trkpt lat="43.20601855916799" lon="11.373113567474077"><ele>268.6</ele><time>2026-04-11T10:25:48Z</time></trkpt><trkpt lat="43.20593408460551" lon="11.373186204476303"><ele>267.8</ele><time>2026-04-11T10:25:50Z</time></trkpt><trkpt lat="43.205840643087846" lon="11.373260352867366"><ele>267.0</ele><time>2026-04-11T10:25:52Z</time></trkpt><trkpt lat="43.205741315628224" lon="11.3733339639915"><ele>267.2</ele><time>2026-04-11T10:25:54Z</time></trkpt><trkpt lat="43.205660691799324" lon="11.373450672304147"><ele>267.4</ele><time>2026-04-11T10:25:56Z</time></trkpt><trkpt lat="43.205570234344044" lon="11.373537510513808"><ele>267.6</ele><time>2026-04-11T10:25:58Z</time></trkpt><trkpt lat="43.20551907741638" lon="11.373589111589526"><ele>267.8</ele><time>2026-04-11T10:25:59Z</time></trkpt><trkpt lat="43.20541792421585" lon="11.373664498616105"><ele>268.0</ele><time>2026-04-11T10:26:01Z</time></trkpt><trkpt lat="43.205320031860715" lon="11.373726450892244"><ele>268.0</ele><time>2026-04-11T10:26:03Z</time></trkpt><trkpt lat="43.20525229533758" lon="11.373732970508545"><ele>268.0</ele><time>2026-04-11T10:26:04Z</time></trkpt><trkpt lat="43.20516848498869" lon="11.373752250083058"><ele>268.0</ele><time>2026-04-11T10:26:05Z</time></trkpt><trkpt lat="43.205086895519905" lon="11.373751330941195"><ele>268.0</ele><time>2026-04-11T10:26:06Z</time></trkpt><trkpt lat="43.20499942511334" lon="11.373736437984947"><ele>268.0</ele><time>2026-04-11T10:26:07Z</time></trkpt><trkpt lat="43.204913436789354" lon="11.373733459147324"><ele>268.0</ele><time>2026-04-11T10:26:08Z</time></trkpt><trkpt lat="43.20483608003976" lon="11.373726362081356"><ele>267.8333333333333</ele><time>2026-04-11T10:26:09Z</time></trkpt><trkpt lat="43.20476176948921" lon="11.373722966228097"><ele>267.66666666666663</ele><time>2026-04-11T10:26:10Z</time></trkpt><trkpt lat="43.204683705572286" lon="11.373751593228501"><ele>267.5</ele><time>2026-04-11T10:26:11Z</time></trkpt><trkpt lat="43.20460368039184" lon="11.3737754656217"><ele>267.3333333333333</ele><time>2026-04-11T10:26:12Z</time></trkpt><trkpt lat="43.20451616808181" lon="11.373798314334417"><ele>267.1666666666667</ele><time>2026-04-11T10:26:13Z</time></trkpt><trkpt lat="43.20444575593404" lon="11.373823049205251"><ele>267.0</ele><time>2026-04-11T10:26:14Z</time></trkpt><trkpt lat="43.20435155875338" lon="11.373844871533047"><ele>265.5</ele><time>2026-04-11T10:26:15Z</time></trkpt><trkpt lat="43.20428518882541" lon="11.373881674333427"><ele>264.0</ele><time>2026-04-11T10:26:16Z</time></trkpt><trkpt lat="43.204205631088406" lon="11.373907988301527"><ele>262.5</ele><time>2026-04-11T10:26:17Z</time></trkpt><trkpt lat="43.20412458750281" lon="11.37393448208966"><ele>261.0</ele><time>2026-04-11T10:26:18Z</time></trkpt><trkpt lat="43.20403407509681" lon="11.373964071313372"><ele>259.5</ele><time>2026-04-11T10:26:19Z</time></trkpt><trkpt lat="43.20393228080669" lon="11.373998148698698"><ele>258.0</ele><time>2026-04-11T10:26:20Z</time></trkpt><trkpt lat="43.20385936312844" lon="11.374048664988814"><ele>258.0</ele><time>2026-04-11T10:26:21Z</time></trkpt><trkpt lat="43.203752706014924" lon="11.374054447244967"><ele>258.0</ele><time>2026-04-11T10:26:22Z</time></trkpt><trkpt lat="43.20367882608033" lon="11.37411560487869"><ele>258.0</ele><time>2026-04-11T10:26:23Z</time></trkpt><trkpt lat="43.2036067101083" lon="11.374171552446262"><ele>258.0</ele><time>2026-04-11T10:26:24Z</time></trkpt><trkpt lat="43.20350243127353" lon="11.374213439823516"><ele>258.0</ele><time>2026-04-11T10:26:25Z</time></trkpt><trkpt lat="43.203422068905894" lon="11.374351213329389"><ele>258.0</ele><time>2026-04-11T10:26:27Z</time></trkpt><trkpt lat="43.20335840162683" lon="11.374406987794961"><ele>258.0</ele><time>2026-04-11T10:26:28Z</time></trkpt><trkpt lat="43.2032954416061" lon="11.374435874855248"><ele>258.0</ele><time>2026-04-11T10:26:29Z</time></trkpt><trkpt lat="43.20323539090546" lon="11.374477157547405"><ele>258.0</ele><time>2026-04-11T10:26:30Z</time></trkpt><trkpt lat="43.20312542687534" lon="11.374529595969316"><ele>258.0</ele><time>2026-04-11T10:26:32Z</time></trkpt><trkpt lat="43.203020909496104" lon="11.374556288791153"><ele>258.0</ele><time>2026-04-11T10:26:34Z</time></trkpt><trkpt lat="43.20290899774647" lon="11.37457294230439"><ele>256.8</ele><time>2026-04-11T10:26:36Z</time></trkpt><trkpt lat="43.20279708177016" lon="11.374598433774404"><ele>255.60000000000002</ele><time>2026-04-11T10:26:38Z</time></trkpt><trkpt lat="43.202700972069216" lon="11.37462316659637"><ele>254.39999999999998</ele><time>2026-04-11T10:26:40Z</time></trkpt><trkpt lat="43.2026066888275" lon="11.37465191856965"><ele>253.2</ele><time>2026-04-11T10:26:42Z</time></trkpt><trkpt lat="43.20250815601679" lon="11.374655512635586"><ele>252.0</ele><time>2026-04-11T10:26:44Z</time></trkpt><trkpt lat="43.20243819031649" lon="11.37468883996472"><ele>252.0</ele><time>2026-04-11T10:26:46Z</time></trkpt><trkpt lat="43.20235042166696" lon="11.374720142401966"><ele>252.0</ele><time>2026-04-11T10:26:49Z</time></trkpt><trkpt lat="43.20227786668159" lon="11.374727995047037"><ele>252.0</ele><time>2026-04-11T10:26:52Z</time></trkpt><trkpt lat="43.20220134367852" lon="11.374754241679907"><ele>252.0</ele><time>2026-04-11T10:26:56Z</time></trkpt><trkpt lat="43.20212729965691" lon="11.374774893190772"><ele>252.0</ele><time>2026-04-11T10:27:00Z</time></trkpt><trkpt lat="43.202057213574314" lon="11.374798786139525"><ele>252.0</ele><time>2026-04-11T10:27:05Z</time></trkpt><trkpt lat="43.20199243722462" lon="11.37482040224019"><ele>254.0</ele><time>2026-04-11T10:27:09Z</time></trkpt><trkpt lat="43.20191723272097" lon="11.37484993920187"><ele>256.0</ele><time>2026-04-11T10:27:12.999Z</time></trkpt><trkpt lat="43.2018537475018" lon="11.37487404372235"><ele>258.0</ele><time>2026-04-11T10:27:16.999Z</time></trkpt><trkpt lat="43.20179156235049" lon="11.374907851479685"><ele>260.0</ele><time>2026-04-11T10:27:20.999Z</time></trkpt><trkpt lat="43.2017245998903" lon="11.374949363066637"><ele>262.0</ele><time>2026-04-11T10:27:24.999Z</time></trkpt><trkpt lat="43.20165596088022" lon="11.374987519946696"><ele>264.0</ele><time>2026-04-11T10:27:28.999Z</time></trkpt><trkpt lat="43.20159047493764" lon="11.375033180614052"><ele>266.0</ele><time>2026-04-11T10:27:32.999Z</time></trkpt><trkpt lat="43.201520531441794" lon="11.375078958234921"><ele>266.7142857142857</ele><time>2026-04-11T10:27:36.999Z</time></trkpt><trkpt lat="43.201460272212096" lon="11.375127996853628"><ele>267.42857142857144</ele><time>2026-04-11T10:27:40.999Z</time></trkpt><trkpt lat="43.2013873422654" lon="11.375176706580461"><ele>268.1428571428571</ele><time>2026-04-11T10:27:46Z</time></trkpt><trkpt lat="43.201333727813854" lon="11.375224974433277"><ele>268.8571428571429</ele><time>2026-04-11T10:27:50Z</time></trkpt><trkpt lat="43.201264267550485" lon="11.375275654868297"><ele>269.57142857142856</ele><time>2026-04-11T10:27:54Z</time></trkpt><trkpt lat="43.20119666320312" lon="11.375338123905895"><ele>270.2857142857143</ele><time>2026-04-11T10:27:59Z</time></trkpt><trkpt lat="43.20113475053431" lon="11.375382346785475"><ele>271.0</ele><time>2026-04-11T10:28:03Z</time></trkpt><trkpt lat="43.20105944150459" lon="11.375409974615648"><ele>271.0</ele><time>2026-04-11T10:28:07Z</time></trkpt><trkpt lat="43.20098122984151" lon="11.375409393410843"><ele>271.0</ele><time>2026-04-11T10:28:11Z</time></trkpt><trkpt lat="43.20090231470809" lon="11.375378862813463"><ele>271.0</ele><time>2026-04-11T10:28:16Z</time></trkpt><trkpt lat="43.2008328997699" lon="11.37533394272638"><ele>271.0</ele><time>2026-04-11T10:28:18Z</time></trkpt><trkpt lat="43.2007403902703" lon="11.37528843946362"><ele>271.0</ele><time>2026-04-11T10:28:20Z</time></trkpt><trkpt lat="43.20066759282674" lon="11.375222491829167"><ele>271.0</ele><time>2026-04-11T10:28:22Z</time></trkpt><trkpt lat="43.200608078529555" lon="11.375190987293328"><ele>268.0</ele><time>2026-04-11T10:28:23Z</time></trkpt><trkpt lat="43.20051024132766" lon="11.37515452035895"><ele>265.0</ele><time>2026-04-11T10:28:25Z</time></trkpt><trkpt lat="43.20043675234142" lon="11.375072448556237"><ele>262.0</ele><time>2026-04-11T10:28:27Z</time></trkpt><trkpt lat="43.20034226857571" lon="11.375010879138275"><ele>259.0</ele><time>2026-04-11T10:28:29Z</time></trkpt><trkpt lat="43.20024539053999" lon="11.374964211520773"><ele>256.0</ele><time>2026-04-11T10:28:31Z</time></trkpt><trkpt lat="43.20016777916131" lon="11.374943184000793"><ele>256.0</ele><time>2026-04-11T10:28:33Z</time></trkpt><trkpt lat="43.2000824963948" lon="11.374973037305832"><ele>256.0</ele><time>2026-04-11T10:28:35Z</time></trkpt><trkpt lat="43.20000947849858" lon="11.375073941862688"><ele>256.0</ele><time>2026-04-11T10:28:37Z</time></trkpt><trkpt lat="43.1999414829159" lon="11.375195072120714"><ele>256.0</ele><time>2026-04-11T10:28:39Z</time></trkpt><trkpt lat="43.19990254727536" lon="11.375277305936127"><ele>256.0</ele><time>2026-04-11T10:28:40Z</time></trkpt><trkpt lat="43.199861481665494" lon="11.375363634635896"><ele>253.99999999999997</ele><time>2026-04-11T10:28:41Z</time></trkpt><trkpt lat="43.19981716234474" lon="11.375449003215822"><ele>252.0</ele><time>2026-04-11T10:28:42Z</time></trkpt><trkpt lat="43.19973117929625" lon="11.375568320291064"><ele>250.0</ele><time>2026-04-11T10:28:44Z</time></trkpt><trkpt lat="43.199666684006615" lon="11.37565293532486"><ele>248.0</ele><time>2026-04-11T10:28:45Z</time></trkpt><trkpt lat="43.199610561877044" lon="11.375722966754365"><ele>245.99999999999997</ele><time>2026-04-11T10:28:46Z</time></trkpt><trkpt lat="43.19954771291893" lon="11.375795045175638"><ele>244.0</ele><time>2026-04-11T10:28:47Z</time></trkpt><trkpt lat="43.19948203410448" lon="11.375869681802177"><ele>243.99999999999997</ele><time>2026-04-11T10:28:48Z</time></trkpt><trkpt lat="43.19942862443322" lon="11.375930375853626"><ele>244.0</ele><time>2026-04-11T10:28:49Z</time></trkpt><trkpt lat="43.19936957594414" lon="11.375997477685104"><ele>244.0</ele><time>2026-04-11T10:28:50Z</time></trkpt><trkpt lat="43.199304892912444" lon="11.376060622061592"><ele>244.0</ele><time>2026-04-11T10:28:51Z</time></trkpt><trkpt lat="43.19924105207199" lon="11.376108490714733"><ele>243.99999999999997</ele><time>2026-04-11T10:28:52Z</time></trkpt><trkpt lat="43.19915909007421" lon="11.37615210984863"><ele>244.0</ele><time>2026-04-11T10:28:53Z</time></trkpt><trkpt lat="43.19908310723771" lon="11.376180110951932"><ele>242.39999999999998</ele><time>2026-04-11T10:28:54Z</time></trkpt><trkpt lat="43.1989865320098" lon="11.376226054441291"><ele>240.79999999999998</ele><time>2026-04-11T10:28:55Z</time></trkpt><trkpt lat="43.19889399617714" lon="11.376237530900752"><ele>239.20000000000002</ele><time>2026-04-11T10:28:56Z</time></trkpt><trkpt lat="43.198796997254426" lon="11.376255091055704"><ele>237.60000000000002</ele><time>2026-04-11T10:28:57Z</time></trkpt><trkpt lat="43.198703022236515" lon="11.37626901387916"><ele>236.0</ele><time>2026-04-11T10:28:58Z</time></trkpt><trkpt lat="43.19858957122798" lon="11.376302419419519"><ele>236.0</ele><time>2026-04-11T10:28:59Z</time></trkpt><trkpt lat="43.19848922321" lon="11.376338335694657"><ele>236.0</ele><time>2026-04-11T10:29:00Z</time></trkpt><trkpt lat="43.198386072264846" lon="11.376395904871819"><ele>236.0</ele><time>2026-04-11T10:29:01Z</time></trkpt><trkpt lat="43.19825044347824" lon="11.376492512113211"><ele>236.0</ele><time>2026-04-11T10:29:03Z</time></trkpt><trkpt lat="43.198180157837385" lon="11.376601141155625"><ele>236.00000000000003</ele><time>2026-04-11T10:29:04Z</time></trkpt><trkpt lat="43.198110709124656" lon="11.376678295878586"><ele>236.0</ele><time>2026-04-11T10:29:05Z</time></trkpt><trkpt lat="43.19804117879626" lon="11.376747169760241"><ele>236.0</ele><time>2026-04-11T10:29:06Z</time></trkpt><trkpt lat="43.197987642325224" lon="11.376815126999611"><ele>236.0</ele><time>2026-04-11T10:29:07Z</time></trkpt><trkpt lat="43.197928976469235" lon="11.376870625262976"><ele>236.00000000000003</ele><time>2026-04-11T10:29:08Z</time></trkpt><trkpt lat="43.19786183476508" lon="11.376932682564673"><ele>236.0</ele><time>2026-04-11T10:29:09Z</time></trkpt><trkpt lat="43.197796771391594" lon="11.376968964240184"><ele>236.0</ele><time>2026-04-11T10:29:10Z</time></trkpt><trkpt lat="43.19773870767862" lon="11.37702879345636"><ele>236.0</ele><time>2026-04-11T10:29:11Z</time></trkpt><trkpt lat="43.19768033557951" lon="11.377079787720954"><ele>236.0</ele><time>2026-04-11T10:29:12Z</time></trkpt><trkpt lat="43.197621546811355" lon="11.377129600635275"><ele>236.0</ele><time>2026-04-11T10:29:13Z</time></trkpt><trkpt lat="43.1975506275298" lon="11.377157926407408"><ele>236.0</ele><time>2026-04-11T10:29:14Z</time></trkpt><trkpt lat="43.1974839275048" lon="11.377181840576533"><ele>236.0</ele><time>2026-04-11T10:29:15Z</time></trkpt><trkpt lat="43.1974221654581" lon="11.3772220660087"><ele>236.0</ele><time>2026-04-11T10:29:16Z</time></trkpt><trkpt lat="43.19735873801226" lon="11.377264179443971"><ele>235.33333333333334</ele><time>2026-04-11T10:29:17Z</time></trkpt><trkpt lat="43.19724305118012" lon="11.377349721524556"><ele>234.66666666666669</ele><time>2026-04-11T10:29:19Z</time></trkpt><trkpt lat="43.197182402402" lon="11.377403032011236"><ele>234.0</ele><time>2026-04-11T10:29:19.999Z</time></trkpt><trkpt lat="43.19711536640385" lon="11.377443342839467"><ele>233.33333333333331</ele><time>2026-04-11T10:29:20.999Z</time></trkpt><trkpt lat="43.197047940470654" lon="11.377475971007923"><ele>232.66666666666666</ele><time>2026-04-11T10:29:21.999Z</time></trkpt><trkpt lat="43.19698534578038" lon="11.377522955317437"><ele>232.0</ele><time>2026-04-11T10:29:22.999Z</time></trkpt><trkpt lat="43.196878192193815" lon="11.377619554165697"><ele>231.99999999999997</ele><time>2026-04-11T10:29:24.999Z</time></trkpt><trkpt lat="43.196813744957254" lon="11.377671328346999"><ele>232.0</ele><time>2026-04-11T10:29:25.999Z</time></trkpt><trkpt lat="43.19673370239615" lon="11.377710026727113"><ele>232.0</ele><time>2026-04-11T10:29:26.999Z</time></trkpt><trkpt lat="43.19668194673795" lon="11.377761716884601"><ele>232.0</ele><time>2026-04-11T10:29:27.999Z</time></trkpt><trkpt lat="43.196612204450346" lon="11.377795606773118"><ele>231.99999999999997</ele><time>2026-04-11T10:29:28.999Z</time></trkpt><trkpt lat="43.19654916036715" lon="11.377864746083795"><ele>232.0</ele><time>2026-04-11T10:29:29.999Z</time></trkpt><trkpt lat="43.19647100296745" lon="11.377905193132115"><ele>231.66666666666666</ele><time>2026-04-11T10:29:30.999Z</time></trkpt><trkpt lat="43.19639996039195" lon="11.377954360839038"><ele>231.33333333333331</ele><time>2026-04-11T10:29:31.999Z</time></trkpt><trkpt lat="43.19632835462651" lon="11.378004355008583"><ele>231.0</ele><time>2026-04-11T10:29:32.999Z</time></trkpt><trkpt lat="43.196264809149255" lon="11.378051588485478"><ele>230.66666666666669</ele><time>2026-04-11T10:29:33.999Z</time></trkpt><trkpt lat="43.196195474723766" lon="11.378100355418374"><ele>230.33333333333334</ele><time>2026-04-11T10:29:34.999Z</time></trkpt><trkpt lat="43.196119244710154" lon="11.378153372195799"><ele>230.0</ele><time>2026-04-11T10:29:35.999Z</time></trkpt><trkpt lat="43.19605006576453" lon="11.378187905894366"><ele>230.0</ele><time>2026-04-11T10:29:36.999Z</time></trkpt><trkpt lat="43.195976584599116" lon="11.378239238490972"><ele>230.0</ele><time>2026-04-11T10:29:37.999Z</time></trkpt><trkpt lat="43.19590056324578" lon="11.378287438814423"><ele>230.0</ele><time>2026-04-11T10:29:38.999Z</time></trkpt><trkpt lat="43.19581253017602" lon="11.378310034890065"><ele>230.0</ele><time>2026-04-11T10:29:39.999Z</time></trkpt><trkpt lat="43.19573457254137" lon="11.37836125470429"><ele>230.0</ele><time>2026-04-11T10:29:40.999Z</time></trkpt><trkpt lat="43.195600682445175" lon="11.378397881723137"><ele>230.0</ele><time>2026-04-11T10:29:42.999Z</time></trkpt><trkpt lat="43.19553282797562" lon="11.378419763555113"><ele>230.0</ele><time>2026-04-11T10:29:43.999Z</time></trkpt><trkpt lat="43.19546714306269" lon="11.378442071100848"><ele>230.0</ele><time>2026-04-11T10:29:44.999Z</time></trkpt><trkpt lat="43.19536405652656" lon="11.378499384049642"><ele>230.0</ele><time>2026-04-11T10:29:46.999Z</time></trkpt><trkpt lat="43.19527007614315" lon="11.378553949640594"><ele>230.0</ele><time>2026-04-11T10:29:49Z</time></trkpt><trkpt lat="43.19518363144961" lon="11.378622341339154"><ele>230.0</ele><time>2026-04-11T10:29:51Z</time></trkpt><trkpt lat="43.19511046102213" lon="11.378714052562556"><ele>230.0</ele><time>2026-04-11T10:29:53Z</time></trkpt><trkpt lat="43.19503667791625" lon="11.378806097851912"><ele>230.0</ele><time>2026-04-11T10:29:55Z</time></trkpt><trkpt lat="43.19495870599827" lon="11.378907223211804"><ele>230.0</ele><time>2026-04-11T10:29:57Z</time></trkpt><trkpt lat="43.19488721791452" lon="11.379015623940846"><ele>230.0</ele><time>2026-04-11T10:29:59Z</time></trkpt><trkpt lat="43.19481570329041" lon="11.379135384708409"><ele>229.4</ele><time>2026-04-11T10:30:01Z</time></trkpt><trkpt lat="43.19475283590546" lon="11.379265550720037"><ele>228.8</ele><time>2026-04-11T10:30:03Z</time></trkpt><trkpt lat="43.19469412378604" lon="11.379392803461409"><ele>228.2</ele><time>2026-04-11T10:30:05Z</time></trkpt><trkpt lat="43.19464797839716" lon="11.379534037541697"><ele>227.6</ele><time>2026-04-11T10:30:07Z</time></trkpt><trkpt lat="43.194623886701116" lon="11.37962303183574"><ele>227.0</ele><time>2026-04-11T10:30:08Z</time></trkpt><trkpt lat="43.1946050505006" lon="11.379716341959455"><ele>227.00000000000003</ele><time>2026-04-11T10:30:09Z</time></trkpt><trkpt lat="43.19456951794513" lon="11.379810308321089"><ele>227.0</ele><time>2026-04-11T10:30:10Z</time></trkpt><trkpt lat="43.194561599741256" lon="11.379938093596007"><ele>227.0</ele><time>2026-04-11T10:30:11Z</time></trkpt><trkpt lat="43.194545792160035" lon="11.380049676911737"><ele>227.0</ele><time>2026-04-11T10:30:12Z</time></trkpt><trkpt lat="43.19453429240633" lon="11.38016406869819"><ele>227.00000000000003</ele><time>2026-04-11T10:30:13Z</time></trkpt><trkpt lat="43.194529488487994" lon="11.38027201960052"><ele>227.0</ele><time>2026-04-11T10:30:14Z</time></trkpt><trkpt lat="43.19451287517186" lon="11.3803616671006"><ele>227.0</ele><time>2026-04-11T10:30:15Z</time></trkpt><trkpt lat="43.19450750541782" lon="11.380458848460282"><ele>227.0</ele><time>2026-04-11T10:30:16Z</time></trkpt><trkpt lat="43.194497082377" lon="11.38056114182879"><ele>227.0</ele><time>2026-04-11T10:30:17Z</time></trkpt><trkpt lat="43.19449150476586" lon="11.380660786599938"><ele>227.0</ele><time>2026-04-11T10:30:18Z</time></trkpt><trkpt lat="43.19446652291363" lon="11.380824212928319"><ele>227.0</ele><time>2026-04-11T10:30:20Z</time></trkpt><trkpt lat="43.194429160656846" lon="11.380984789581385"><ele>227.2</ele><time>2026-04-11T10:30:22Z</time></trkpt><trkpt lat="43.19441273149953" lon="11.381072066709356"><ele>227.39999999999998</ele><time>2026-04-11T10:30:23Z</time></trkpt><trkpt lat="43.194369910697645" lon="11.381191240978248"><ele>227.60000000000002</ele><time>2026-04-11T10:30:25Z</time></trkpt><trkpt lat="43.1942910370419" lon="11.381327845058093"><ele>227.8</ele><time>2026-04-11T10:30:27Z</time></trkpt><trkpt lat="43.194245404328626" lon="11.381477579415971"><ele>228.0</ele><time>2026-04-11T10:30:29Z</time></trkpt><trkpt lat="43.19421687246389" lon="11.38162748839357"><ele>228.0</ele><time>2026-04-11T10:30:31Z</time></trkpt><trkpt lat="43.194188883684824" lon="11.381705140297706"><ele>228.0</ele><time>2026-04-11T10:30:32Z</time></trkpt><trkpt lat="43.19413465498049" lon="11.381856934456081"><ele>228.0</ele><time>2026-04-11T10:30:34Z</time></trkpt><trkpt lat="43.19410472267273" lon="11.381935262007426"><ele>228.0</ele><time>2026-04-11T10:30:35Z</time></trkpt><trkpt lat="43.19407715604799" lon="11.382017244294207"><ele>228.0</ele><time>2026-04-11T10:30:36Z</time></trkpt><trkpt lat="43.19404737156839" lon="11.3821039354579"><ele>228.0</ele><time>2026-04-11T10:30:37Z</time></trkpt><trkpt lat="43.19401414596383" lon="11.382191850430223"><ele>226.83333333333334</ele><time>2026-04-11T10:30:38Z</time></trkpt><trkpt lat="43.19398557527097" lon="11.382282202364376"><ele>225.66666666666669</ele><time>2026-04-11T10:30:39Z</time></trkpt><trkpt lat="43.19395504670539" lon="11.382376636261426"><ele>224.5</ele><time>2026-04-11T10:30:40Z</time></trkpt><trkpt lat="43.193920808146686" lon="11.382465467104046"><ele>223.33333333333334</ele><time>2026-04-11T10:30:41Z</time></trkpt><trkpt lat="43.19388562318467" lon="11.382566153565115"><ele>222.16666666666669</ele><time>2026-04-11T10:30:42Z</time></trkpt><trkpt lat="43.193834632034395" lon="11.38271696749253"><ele>221.0</ele><time>2026-04-11T10:30:44Z</time></trkpt><trkpt lat="43.1938124429146" lon="11.382800943305519"><ele>221.0</ele><time>2026-04-11T10:30:45Z</time></trkpt><trkpt lat="43.1937559705037" lon="11.382949957895235"><ele>221.00000000000003</ele><time>2026-04-11T10:30:47Z</time></trkpt><trkpt lat="43.19371433285624" lon="11.383095325252944"><ele>221.00000000000003</ele><time>2026-04-11T10:30:49Z</time></trkpt><trkpt lat="43.193682053625785" lon="11.383170288359807"><ele>221.0</ele><time>2026-04-11T10:30:50Z</time></trkpt><trkpt lat="43.193606046000106" lon="11.383276307981639"><ele>221.0</ele><time>2026-04-11T10:30:52Z</time></trkpt><trkpt lat="43.19354942477016" lon="11.383376019453038"><ele>221.0</ele><time>2026-04-11T10:30:54Z</time></trkpt><trkpt lat="43.1934621142265" lon="11.383449246476909"><ele>221.00000000000003</ele><time>2026-04-11T10:30:56Z</time></trkpt><trkpt lat="43.19335929712941" lon="11.38348608761755"><ele>221.00000000000003</ele><time>2026-04-11T10:30:58Z</time></trkpt><trkpt lat="43.19329832179209" lon="11.38351308995404"><ele>221.0</ele><time>2026-04-11T10:30:59Z</time></trkpt><trkpt lat="43.19324156313324" lon="11.383561321258025"><ele>221.0</ele><time>2026-04-11T10:31:00Z</time></trkpt><trkpt lat="43.19312948269029" lon="11.383615932516989"><ele>221.00000000000003</ele><time>2026-04-11T10:31:02Z</time></trkpt><trkpt lat="43.193061075354066" lon="11.383645386912264"><ele>221.0</ele><time>2026-04-11T10:31:03Z</time></trkpt><trkpt lat="43.19299068374696" lon="11.383657142264953"><ele>221.0</ele><time>2026-04-11T10:31:04Z</time></trkpt><trkpt lat="43.192923442238474" lon="11.383701910066833"><ele>221.0</ele><time>2026-04-11T10:31:05Z</time></trkpt><trkpt lat="43.192848728445945" lon="11.38374080459875"><ele>221.00000000000003</ele><time>2026-04-11T10:31:05.999Z</time></trkpt><trkpt lat="43.19276443653718" lon="11.383769752599555"><ele>221.0</ele><time>2026-04-11T10:31:06.999Z</time></trkpt><trkpt lat="43.19268304349261" lon="11.38379935640218"><ele>221.50000000000003</ele><time>2026-04-11T10:31:07.999Z</time></trkpt><trkpt lat="43.19260964034551" lon="11.383852441082226"><ele>222.0</ele><time>2026-04-11T10:31:08.999Z</time></trkpt><trkpt lat="43.19253627190247" lon="11.383880930316218"><ele>222.5</ele><time>2026-04-11T10:31:09.999Z</time></trkpt><trkpt lat="43.19245927226615" lon="11.383908599581511"><ele>223.0</ele><time>2026-04-11T10:31:10.999Z</time></trkpt><trkpt lat="43.19237686566161" lon="11.383936965373007"><ele>223.50000000000003</ele><time>2026-04-11T10:31:11.999Z</time></trkpt><trkpt lat="43.19229486037169" lon="11.383954330683164"><ele>224.0</ele><time>2026-04-11T10:31:12.999Z</time></trkpt><trkpt lat="43.192220872892214" lon="11.383945251504228"><ele>224.16666666666669</ele><time>2026-04-11T10:31:13.999Z</time></trkpt><trkpt lat="43.192132347424675" lon="11.383944669859094"><ele>224.33333333333334</ele><time>2026-04-11T10:31:14.999Z</time></trkpt><trkpt lat="43.19205456566845" lon="11.383942542717483"><ele>224.5</ele><time>2026-04-11T10:31:15.999Z</time></trkpt><trkpt lat="43.19198393334266" lon="11.383922243167454"><ele>224.66666666666669</ele><time>2026-04-11T10:31:16.999Z</time></trkpt><trkpt lat="43.19191840813843" lon="11.383917239827188"><ele>224.83333333333334</ele><time>2026-04-11T10:31:17.999Z</time></trkpt><trkpt lat="43.1917760534617" lon="11.383927999767154"><ele>225.0</ele><time>2026-04-11T10:31:19.999Z</time></trkpt><trkpt lat="43.191712301279" lon="11.38400249753313"><ele>225.0</ele><time>2026-04-11T10:31:20.999Z</time></trkpt><trkpt lat="43.19165713086305" lon="11.384048099905053"><ele>225.0</ele><time>2026-04-11T10:31:21.999Z</time></trkpt><trkpt lat="43.191600761359076" lon="11.384097351354715"><ele>225.0</ele><time>2026-04-11T10:31:22.999Z</time></trkpt><trkpt lat="43.19155389074754" lon="11.384169418433236"><ele>225.0</ele><time>2026-04-11T10:31:23.999Z</time></trkpt><trkpt lat="43.19150687979822" lon="11.38423550096288"><ele>225.0</ele><time>2026-04-11T10:31:24.999Z</time></trkpt><trkpt lat="43.19143425555498" lon="11.384371971132705"><ele>225.0</ele><time>2026-04-11T10:31:26.999Z</time></trkpt><trkpt lat="43.191350025384445" lon="11.384515299550026"><ele>225.75</ele><time>2026-04-11T10:31:28.999Z</time></trkpt><trkpt lat="43.19126230945122" lon="11.384619100304832"><ele>226.5</ele><time>2026-04-11T10:31:30.999Z</time></trkpt><trkpt lat="43.19119261018252" lon="11.384723934064697"><ele>227.25</ele><time>2026-04-11T10:31:32.999Z</time></trkpt><trkpt lat="43.19109776626465" lon="11.384838931968002"><ele>228.0</ele><time>2026-04-11T10:31:34.999Z</time></trkpt><trkpt lat="43.19100650381929" lon="11.384949762382677"><ele>228.0</ele><time>2026-04-11T10:31:36.999Z</time></trkpt><trkpt lat="43.19095151421806" lon="11.385000442562719"><ele>228.0</ele><time>2026-04-11T10:31:37.999Z</time></trkpt><trkpt lat="43.19085162854626" lon="11.385090538833795"><ele>228.0</ele><time>2026-04-11T10:31:39.999Z</time></trkpt><trkpt lat="43.190790931412884" lon="11.385142469682563"><ele>228.0</ele><time>2026-04-11T10:31:40.999Z</time></trkpt><trkpt lat="43.1907345051227" lon="11.385184375796223"><ele>228.0</ele><time>2026-04-11T10:31:41.999Z</time></trkpt><trkpt lat="43.190630559624886" lon="11.38527161702907"><ele>228.0</ele><time>2026-04-11T10:31:43.999Z</time></trkpt><trkpt lat="43.19051517024615" lon="11.385357225280936"><ele>228.8</ele><time>2026-04-11T10:31:45.999Z</time></trkpt><trkpt lat="43.19045361911757" lon="11.38539785642382"><ele>229.60000000000002</ele><time>2026-04-11T10:31:46.999Z</time></trkpt><trkpt lat="43.19030181559828" lon="11.385480795919836"><ele>230.39999999999998</ele><time>2026-04-11T10:31:48.999Z</time></trkpt><trkpt lat="43.19022775663903" lon="11.385497522338774"><ele>231.2</ele><time>2026-04-11T10:31:50.999Z</time></trkpt><trkpt lat="43.1901517233173" lon="11.385527755777687"><ele>232.0</ele><time>2026-04-11T10:31:51.999Z</time></trkpt><trkpt lat="43.19002634908954" lon="11.385575499330422"><ele>230.0</ele><time>2026-04-11T10:31:54Z</time></trkpt><trkpt lat="43.18991397753242" lon="11.38562588732987"><ele>228.0</ele><time>2026-04-11T10:31:56Z</time></trkpt><trkpt lat="43.18983137840952" lon="11.38565239291063"><ele>226.0</ele><time>2026-04-11T10:31:57Z</time></trkpt><trkpt lat="43.18972748469809" lon="11.385659574330525"><ele>224.0</ele><time>2026-04-11T10:31:59Z</time></trkpt><trkpt lat="43.18962077842685" lon="11.385652933195779"><ele>222.0</ele><time>2026-04-11T10:32:01Z</time></trkpt><trkpt lat="43.18952584107116" lon="11.385679630715277"><ele>221.25</ele><time>2026-04-11T10:32:03Z</time></trkpt><trkpt lat="43.189412667768416" lon="11.385704132620749"><ele>220.5</ele><time>2026-04-11T10:32:05Z</time></trkpt><trkpt lat="43.18929713309799" lon="11.385752588490078"><ele>219.75</ele><time>2026-04-11T10:32:07Z</time></trkpt><trkpt lat="43.18918314654992" lon="11.385796513198416"><ele>219.0</ele><time>2026-04-11T10:32:09Z</time></trkpt><trkpt lat="43.189067485198755" lon="11.385844259236421"><ele>220.39999999999998</ele><time>2026-04-11T10:32:11Z</time></trkpt><trkpt lat="43.18895421077674" lon="11.38587148814226"><ele>221.79999999999998</ele><time>2026-04-11T10:32:13Z</time></trkpt><trkpt lat="43.18885487936683" lon="11.385915730156643"><ele>223.20000000000002</ele><time>2026-04-11T10:32:15Z</time></trkpt><trkpt lat="43.18876762102649" lon="11.38592571785038"><ele>224.60000000000002</ele><time>2026-04-11T10:32:17Z</time></trkpt><trkpt lat="43.188686771916075" lon="11.385938026251898"><ele>226.0</ele><time>2026-04-11T10:32:19Z</time></trkpt><trkpt lat="43.188619326556186" lon="11.385954359300518"><ele>226.0</ele><time>2026-04-11T10:32:22Z</time></trkpt><trkpt lat="43.18855332716947" lon="11.385943555516405"><ele>226.0</ele><time>2026-04-11T10:32:25Z</time></trkpt><trkpt lat="43.18848448472954" lon="11.385899226458877"><ele>226.0</ele><time>2026-04-11T10:32:29Z</time></trkpt><trkpt lat="43.18842379040344" lon="11.385869694070301"><ele>226.0</ele><time>2026-04-11T10:32:33Z</time></trkpt><trkpt lat="43.188367571702514" lon="11.385820384418016"><ele>226.0</ele><time>2026-04-11T10:32:37Z</time></trkpt><trkpt lat="43.1883159379503" lon="11.385763803756149"><ele>226.0</ele><time>2026-04-11T10:32:42Z</time></trkpt><trkpt lat="43.18825835461551" lon="11.38572205008934"><ele>226.0</ele><time>2026-04-11T10:32:46Z</time></trkpt><trkpt lat="43.188202341355" lon="11.385660188170775"><ele>228.0</ele><time>2026-04-11T10:32:51Z</time></trkpt><trkpt lat="43.188140983285464" lon="11.385604538704015"><ele>230.0</ele><time>2026-04-11T10:32:57Z</time></trkpt><trkpt lat="43.18807670489436" lon="11.385554158793957"><ele>232.0</ele><time>2026-04-11T10:33:03Z</time></trkpt><trkpt lat="43.18802084044807" lon="11.385512270571276"><ele>234.0</ele><time>2026-04-11T10:33:08Z</time></trkpt><trkpt lat="43.18795192588522" lon="11.385476111883987"><ele>236.0</ele><time>2026-04-11T10:33:14Z</time></trkpt><trkpt lat="43.187893303831544" lon="11.385442094402709"><ele>238.0</ele><time>2026-04-11T10:33:19Z</time></trkpt><trkpt lat="43.18782986772853" lon="11.38542177622117"><ele>240.0</ele><time>2026-04-11T10:33:24Z</time></trkpt><trkpt lat="43.18777441983307" lon="11.385375119057569"><ele>240.0</ele><time>2026-04-11T10:33:28.999Z</time></trkpt><trkpt lat="43.18770350019794" lon="11.38534105490382"><ele>240.0</ele><time>2026-04-11T10:33:34.999Z</time></trkpt><trkpt lat="43.18763539085412" lon="11.385309021491175"><ele>240.0</ele><time>2026-04-11T10:33:40.999Z</time></trkpt><trkpt lat="43.18756648938603" lon="11.385283099570929"><ele>240.0</ele><time>2026-04-11T10:33:46.999Z</time></trkpt><trkpt lat="43.18749967086586" lon="11.385271040180418"><ele>240.0</ele><time>2026-04-11T10:33:51.999Z</time></trkpt><trkpt lat="43.18743675328409" lon="11.385251377154333"><ele>240.0</ele><time>2026-04-11T10:33:56.999Z</time></trkpt><trkpt lat="43.18737107877151" lon="11.385242935483374"><ele>240.0</ele><time>2026-04-11T10:34:02Z</time></trkpt><trkpt lat="43.18729800249436" lon="11.385238490054775"><ele>241.14285714285717</ele><time>2026-04-11T10:34:07Z</time></trkpt><trkpt lat="43.1872229412893" lon="11.38523922522968"><ele>242.28571428571428</ele><time>2026-04-11T10:34:12Z</time></trkpt><trkpt lat="43.18715850179876" lon="11.38524505566468"><ele>243.42857142857144</ele><time>2026-04-11T10:34:16Z</time></trkpt><trkpt lat="43.187077421503226" lon="11.385247169254399"><ele>244.57142857142858</ele><time>2026-04-11T10:34:21Z</time></trkpt><trkpt lat="43.18700929934399" lon="11.385259005788187"><ele>245.71428571428572</ele><time>2026-04-11T10:34:25Z</time></trkpt><trkpt lat="43.18694393981191" lon="11.385274970319296"><ele>246.85714285714286</ele><time>2026-04-11T10:34:29Z</time></trkpt><trkpt lat="43.186879870829245" lon="11.385296357320149"><ele>248.0</ele><time>2026-04-11T10:34:33Z</time></trkpt><trkpt lat="43.18681409593726" lon="11.385316737299883"><ele>248.00000000000003</ele><time>2026-04-11T10:34:37Z</time></trkpt><trkpt lat="43.18674079731353" lon="11.38533326497035"><ele>248.0</ele><time>2026-04-11T10:34:41Z</time></trkpt><trkpt lat="43.1866629967073" lon="11.385352167202464"><ele>248.0</ele><time>2026-04-11T10:34:45Z</time></trkpt><trkpt lat="43.186582365748606" lon="11.385370840597224"><ele>248.0</ele><time>2026-04-11T10:34:49Z</time></trkpt><trkpt lat="43.186500059265086" lon="11.385393930512214"><ele>248.00000000000003</ele><time>2026-04-11T10:34:53Z</time></trkpt><trkpt lat="43.18642317812131" lon="11.38541090159992"><ele>248.0</ele><time>2026-04-11T10:34:57Z</time></trkpt><trkpt lat="43.18635916842995" lon="11.385406776383158"><ele>249.14285714285717</ele><time>2026-04-11T10:35:00Z</time></trkpt><trkpt lat="43.186283835655864" lon="11.385412504248743"><ele>250.2857142857143</ele><time>2026-04-11T10:35:04Z</time></trkpt><trkpt lat="43.18621416866593" lon="11.38541029924585"><ele>251.42857142857144</ele><time>2026-04-11T10:35:08Z</time></trkpt><trkpt lat="43.18615058377809" lon="11.385415872844467"><ele>252.57142857142856</ele><time>2026-04-11T10:35:12Z</time></trkpt><trkpt lat="43.18607937751302" lon="11.385408728073694"><ele>253.7142857142857</ele><time>2026-04-11T10:35:17Z</time></trkpt><trkpt lat="43.18600443241687" lon="11.385419830637828"><ele>254.85714285714283</ele><time>2026-04-11T10:35:22Z</time></trkpt><trkpt lat="43.18593318760908" lon="11.385421259918896"><ele>256.0</ele><time>2026-04-11T10:35:27Z</time></trkpt><trkpt lat="43.185857543964914" lon="11.385427280035879"><ele>256.0</ele><time>2026-04-11T10:35:31.999Z</time></trkpt><trkpt lat="43.18578430580643" lon="11.385428247971877"><ele>255.99999999999997</ele><time>2026-04-11T10:35:36.999Z</time></trkpt><trkpt lat="43.18571609818669" lon="11.385431134486558"><ele>256.0</ele><time>2026-04-11T10:35:41.999Z</time></trkpt><trkpt lat="43.18564845487588" lon="11.385424813429735"><ele>256.0</ele><time>2026-04-11T10:35:46.999Z</time></trkpt><trkpt lat="43.185578280828196" lon="11.38541335151177"><ele>255.99999999999997</ele><time>2026-04-11T10:35:51.999Z</time></trkpt><trkpt lat="43.185508417276104" lon="11.385407156384066"><ele>256.0</ele><time>2026-04-11T10:35:56.999Z</time></trkpt><trkpt lat="43.1854433635159" lon="11.385384745047515"><ele>256.0</ele><time>2026-04-11T10:36:01.999Z</time></trkpt><trkpt lat="43.18537977871507" lon="11.385338726772735"><ele>257.57142857142856</ele><time>2026-04-11T10:36:07Z</time></trkpt><trkpt lat="43.185322685118024" lon="11.385293795855533"><ele>259.1428571428571</ele><time>2026-04-11T10:36:11Z</time></trkpt><trkpt lat="43.18527526711923" lon="11.385235792442492"><ele>260.7142857142857</ele><time>2026-04-11T10:36:15Z</time></trkpt><trkpt lat="43.185219517993715" lon="11.3851702468893"><ele>262.2857142857143</ele><time>2026-04-11T10:36:20Z</time></trkpt><trkpt lat="43.18516770581156" lon="11.385100848354536"><ele>263.8571428571429</ele><time>2026-04-11T10:36:25Z</time></trkpt><trkpt lat="43.18511989922747" lon="11.385035107381587"><ele>265.42857142857144</ele><time>2026-04-11T10:36:30Z</time></trkpt><trkpt lat="43.18507540725491" lon="11.384969513131825"><ele>267.0</ele><time>2026-04-11T10:36:35Z</time></trkpt><trkpt lat="43.185030097623965" lon="11.384902554318604"><ele>267.00000000000006</ele><time>2026-04-11T10:36:40Z</time></trkpt><trkpt lat="43.18499000783586" lon="11.384831529919575"><ele>267.0</ele><time>2026-04-11T10:36:45Z</time></trkpt><trkpt lat="43.18494568229486" lon="11.384753671952096"><ele>267.0</ele><time>2026-04-11T10:36:50Z</time></trkpt><trkpt lat="43.18489412207448" lon="11.3846781049051"><ele>267.0</ele><time>2026-04-11T10:36:55Z</time></trkpt><trkpt lat="43.18485372977904" lon="11.384608318975245"><ele>267.0</ele><time>2026-04-11T10:36:59Z</time></trkpt><trkpt lat="43.18479830116948" lon="11.384534047023887"><ele>267.00000000000006</ele><time>2026-04-11T10:37:04Z</time></trkpt><trkpt lat="43.184741318217505" lon="11.384481265179799"><ele>267.0</ele><time>2026-04-11T10:37:08Z</time></trkpt><trkpt lat="43.18468259189476" lon="11.384421653495945"><ele>268.14285714285717</ele><time>2026-04-11T10:37:12Z</time></trkpt><trkpt lat="43.184619611207694" lon="11.384350781384242"><ele>269.2857142857143</ele><time>2026-04-11T10:37:16Z</time></trkpt><trkpt lat="43.18455516865167" lon="11.384276311163685"><ele>270.42857142857144</ele><time>2026-04-11T10:37:20Z</time></trkpt><trkpt lat="43.18450381261241" lon="11.384220592652149"><ele>271.57142857142856</ele><time>2026-04-11T10:37:23Z</time></trkpt><trkpt lat="43.18444840537386" lon="11.384169891765552"><ele>272.7142857142857</ele><time>2026-04-11T10:37:26Z</time></trkpt><trkpt lat="43.18439394901769" lon="11.384117408798174"><ele>273.8571428571429</ele><time>2026-04-11T10:37:29Z</time></trkpt><trkpt lat="43.184338060694174" lon="11.384063066486277"><ele>275.0</ele><time>2026-04-11T10:37:32Z</time></trkpt><trkpt lat="43.184265819844" lon="11.384004285416811"><ele>275.0</ele><time>2026-04-11T10:37:35.999Z</time></trkpt><trkpt lat="43.18418577868986" lon="11.383966524969956"><ele>275.0</ele><time>2026-04-11T10:37:39.999Z</time></trkpt><trkpt lat="43.18412447525076" lon="11.383930552623728"><ele>275.0</ele><time>2026-04-11T10:37:42.999Z</time></trkpt><trkpt lat="43.184063426316456" lon="11.383897646596733"><ele>275.0</ele><time>2026-04-11T10:37:45.999Z</time></trkpt><trkpt lat="43.18399745007954" lon="11.383874912096351"><ele>275.0</ele><time>2026-04-11T10:37:48.999Z</time></trkpt><trkpt lat="43.18392257945453" lon="11.383845477864611"><ele>275.0</ele><time>2026-04-11T10:37:51.999Z</time></trkpt><trkpt lat="43.183861501124994" lon="11.383809524716966"><ele>275.0</ele><time>2026-04-11T10:37:54.999Z</time></trkpt><trkpt lat="43.183793932088356" lon="11.383779493127093"><ele>274.83333333333337</ele><time>2026-04-11T10:37:57.999Z</time></trkpt><trkpt lat="43.18372995475664" lon="11.38376293849554"><ele>274.6666666666667</ele><time>2026-04-11T10:38:00.999Z</time></trkpt><trkpt lat="43.183664906736716" lon="11.383737316502542"><ele>274.5</ele><time>2026-04-11T10:38:03.999Z</time></trkpt><trkpt lat="43.18359094101454" lon="11.383698155034606"><ele>274.3333333333333</ele><time>2026-04-11T10:38:07.999Z</time></trkpt><trkpt lat="43.18351748693484" lon="11.383658284278669"><ele>274.16666666666663</ele><time>2026-04-11T10:38:10.999Z</time></trkpt><trkpt lat="43.18343583735188" lon="11.383628950486937"><ele>274.0</ele><time>2026-04-11T10:38:14Z</time></trkpt><trkpt lat="43.183348816074535" lon="11.383596443727704"><ele>274.0</ele><time>2026-04-11T10:38:17Z</time></trkpt><trkpt lat="43.183274660967044" lon="11.383562829728872"><ele>274.0</ele><time>2026-04-11T10:38:19Z</time></trkpt><trkpt lat="43.18317219315569" lon="11.383529637529467"><ele>274.0</ele><time>2026-04-11T10:38:21Z</time></trkpt><trkpt lat="43.18306191452414" lon="11.383463886278147"><ele>274.0</ele><time>2026-04-11T10:38:23Z</time></trkpt><trkpt lat="43.182990647249525" lon="11.383417249423063"><ele>274.0</ele><time>2026-04-11T10:38:24Z</time></trkpt><trkpt lat="43.18291598818271" lon="11.383395087735815"><ele>273.5</ele><time>2026-04-11T10:38:25Z</time></trkpt><trkpt lat="43.18285029499248" lon="11.383357953247398"><ele>273.0</ele><time>2026-04-11T10:38:26Z</time></trkpt><trkpt lat="43.182779150080734" lon="11.383333326948362"><ele>272.5</ele><time>2026-04-11T10:38:27Z</time></trkpt><trkpt lat="43.182707503738655" lon="11.383302324741342"><ele>272.0</ele><time>2026-04-11T10:38:28Z</time></trkpt><trkpt lat="43.18263610994292" lon="11.383255278940139"><ele>271.5</ele><time>2026-04-11T10:38:29Z</time></trkpt><trkpt lat="43.182563698611325" lon="11.38322723926066"><ele>271.0</ele><time>2026-04-11T10:38:30Z</time></trkpt><trkpt lat="43.18248718007667" lon="11.383215024949259"><ele>271.0</ele><time>2026-04-11T10:38:31Z</time></trkpt><trkpt lat="43.18235424821104" lon="11.383180742284827"><ele>271.0</ele><time>2026-04-11T10:38:33Z</time></trkpt><trkpt lat="43.18228596060449" lon="11.383157302981813"><ele>271.0</ele><time>2026-04-11T10:38:34Z</time></trkpt><trkpt lat="43.18221949917869" lon="11.383136717414164"><ele>271.0</ele><time>2026-04-11T10:38:35Z</time></trkpt><trkpt lat="43.18211835503911" lon="11.383071917962964"><ele>271.0</ele><time>2026-04-11T10:38:37Z</time></trkpt><trkpt lat="43.18200813392043" lon="11.383047656310454"><ele>271.40000000000003</ele><time>2026-04-11T10:38:39Z</time></trkpt><trkpt lat="43.18190406834661" lon="11.383013924527184"><ele>271.8</ele><time>2026-04-11T10:38:41Z</time></trkpt><trkpt lat="43.18181305141629" lon="11.38299868017135"><ele>272.20000000000005</ele><time>2026-04-11T10:38:43Z</time></trkpt><trkpt lat="43.18172382242591" lon="11.382977948989078"><ele>272.6</ele><time>2026-04-11T10:38:45Z</time></trkpt><trkpt lat="43.181646205249095" lon="11.382951607387897"><ele>273.0</ele><time>2026-04-11T10:38:47Z</time></trkpt><trkpt lat="43.18155648477464" lon="11.382952877162062"><ele>271.8333333333333</ele><time>2026-04-11T10:38:49Z</time></trkpt><trkpt lat="43.181479880199376" lon="11.382937038030681"><ele>270.6666666666667</ele><time>2026-04-11T10:38:51Z</time></trkpt><trkpt lat="43.18138203673211" lon="11.382919235430728"><ele>269.5</ele><time>2026-04-11T10:38:54Z</time></trkpt><trkpt lat="43.181309736979514" lon="11.382902084527384"><ele>268.33333333333337</ele><time>2026-04-11T10:38:56Z</time></trkpt><trkpt lat="43.181247526036294" lon="11.382883640253088"><ele>267.1666666666667</ele><time>2026-04-11T10:38:58Z</time></trkpt><trkpt lat="43.18116815369026" lon="11.382832232997824"><ele>266.0</ele><time>2026-04-11T10:39:01Z</time></trkpt><trkpt lat="43.18110823990529" lon="11.382796327531699"><ele>266.0</ele><time>2026-04-11T10:39:03Z</time></trkpt><trkpt lat="43.181043167144324" lon="11.382761427102917"><ele>266.0</ele><time>2026-04-11T10:39:05Z</time></trkpt><trkpt lat="43.180963274253315" lon="11.382713343545738"><ele>266.0</ele><time>2026-04-11T10:39:08Z</time></trkpt><trkpt lat="43.18090225631406" lon="11.382688607993419"><ele>266.0</ele><time>2026-04-11T10:39:11Z</time></trkpt><trkpt lat="43.18084005905708" lon="11.382664833773548"><ele>266.0</ele><time>2026-04-11T10:39:50.999Z</time></trkpt><trkpt lat="43.18077420098394" lon="11.382655134634815"><ele>266.0</ele><time>2026-04-11T10:39:54.999Z</time></trkpt><trkpt lat="43.180731090616156" lon="11.382754983836142"><ele>266.0</ele><time>2026-04-11T10:39:55.999Z</time></trkpt><trkpt lat="43.18066711715414" lon="11.382806046967584"><ele>266.0</ele><time>2026-04-11T10:39:57.999Z</time></trkpt><trkpt lat="43.18060389830656" lon="11.382872571072909"><ele>266.0</ele><time>2026-04-11T10:39:59.999Z</time></trkpt><trkpt lat="43.18053335813256" lon="11.382935936916851"><ele>266.0</ele><time>2026-04-11T10:40:01.999Z</time></trkpt><trkpt lat="43.180462582517436" lon="11.383012070110066"><ele>266.0</ele><time>2026-04-11T10:40:03.999Z</time></trkpt><trkpt lat="43.18038179152632" lon="11.383087337687662"><ele>266.0</ele><time>2026-04-11T10:40:05.999Z</time></trkpt><trkpt lat="43.18030058194528" lon="11.383165868689188"><ele>266.0</ele><time>2026-04-11T10:40:07.999Z</time></trkpt><trkpt lat="43.18021434069393" lon="11.383238360569775"><ele>266.0</ele><time>2026-04-11T10:40:09.999Z</time></trkpt><trkpt lat="43.18012820869722" lon="11.383312249907155"><ele>266.0</ele><time>2026-04-11T10:40:11.999Z</time></trkpt><trkpt lat="43.180036972043396" lon="11.383373790386175"><ele>266.0</ele><time>2026-04-11T10:40:13.999Z</time></trkpt><trkpt lat="43.17994341014302" lon="11.383433796826045"><ele>266.0</ele><time>2026-04-11T10:40:15.999Z</time></trkpt><trkpt lat="43.17984788839433" lon="11.3834853872814"><ele>265.40000000000003</ele><time>2026-04-11T10:40:18Z</time></trkpt><trkpt lat="43.17975087579304" lon="11.383534426151519"><ele>264.8</ele><time>2026-04-11T10:40:20Z</time></trkpt><trkpt lat="43.17965506361913" lon="11.383582630448188"><ele>264.20000000000005</ele><time>2026-04-11T10:40:22Z</time></trkpt><trkpt lat="43.17956217176265" lon="11.383632574254264"><ele>263.6</ele><time>2026-04-11T10:40:24Z</time></trkpt><trkpt lat="43.17947372630179" lon="11.383678175620666"><ele>263.0</ele><time>2026-04-11T10:40:26Z</time></trkpt><trkpt lat="43.17938334951949" lon="11.383728878171926"><ele>263.0</ele><time>2026-04-11T10:40:28Z</time></trkpt><trkpt lat="43.17929635698976" lon="11.383775758619906"><ele>263.0</ele><time>2026-04-11T10:40:30Z</time></trkpt><trkpt lat="43.179211480951686" lon="11.383829425564059"><ele>263.0</ele><time>2026-04-11T10:40:32Z</time></trkpt><trkpt lat="43.179121937241156" lon="11.383872098783815"><ele>263.0</ele><time>2026-04-11T10:40:34Z</time></trkpt><trkpt lat="43.17903331081142" lon="11.383917267486098"><ele>263.0</ele><time>2026-04-11T10:40:36Z</time></trkpt><trkpt lat="43.178945417677866" lon="11.383964126703031"><ele>264.2</ele><time>2026-04-11T10:40:38Z</time></trkpt><trkpt lat="43.17886292144708" lon="11.384017587736853"><ele>265.4</ele><time>2026-04-11T10:40:40Z</time></trkpt><trkpt lat="43.17878429373573" lon="11.384088406304706"><ele>266.59999999999997</ele><time>2026-04-11T10:40:42Z</time></trkpt><trkpt lat="43.178709891800764" lon="11.384161686510375"><ele>267.8</ele><time>2026-04-11T10:40:44Z</time></trkpt><trkpt lat="43.17864143140069" lon="11.384242356621797"><ele>269.0</ele><time>2026-04-11T10:40:46Z</time></trkpt><trkpt lat="43.178576362780646" lon="11.384336171768426"><ele>269.0</ele><time>2026-04-11T10:40:48Z</time></trkpt><trkpt lat="43.178507947407404" lon="11.384427454747808"><ele>269.0</ele><time>2026-04-11T10:40:50Z</time></trkpt><trkpt lat="43.17843702311686" lon="11.38451442260267"><ele>269.0</ele><time>2026-04-11T10:40:52Z</time></trkpt><trkpt lat="43.178362212924725" lon="11.384608428363912"><ele>269.0</ele><time>2026-04-11T10:40:54Z</time></trkpt><trkpt lat="43.17828582681258" lon="11.38470196456489"><ele>269.0</ele><time>2026-04-11T10:40:56Z</time></trkpt><trkpt lat="43.178205516876446" lon="11.38479802339587"><ele>269.0</ele><time>2026-04-11T10:40:58Z</time></trkpt><trkpt lat="43.178115837478344" lon="11.384886044347283"><ele>269.0</ele><time>2026-04-11T10:41:00Z</time></trkpt><trkpt lat="43.17801584641016" lon="11.384960381687732"><ele>269.0</ele><time>2026-04-11T10:41:02Z</time></trkpt><trkpt lat="43.177916640749785" lon="11.385037237648756"><ele>269.0</ele><time>2026-04-11T10:41:04Z</time></trkpt><trkpt lat="43.17781672749602" lon="11.385118240021884"><ele>269.0</ele><time>2026-04-11T10:41:06Z</time></trkpt><trkpt lat="43.1777182044444" lon="11.385205385916256"><ele>269.0</ele><time>2026-04-11T10:41:08Z</time></trkpt><trkpt lat="43.177610916261536" lon="11.385288847021943"><ele>269.0</ele><time>2026-04-11T10:41:10Z</time></trkpt><trkpt lat="43.177509038776904" lon="11.385378855066465"><ele>269.0</ele><time>2026-04-11T10:41:12Z</time></trkpt><trkpt lat="43.17741496678803" lon="11.385481536658064"><ele>269.83333333333337</ele><time>2026-04-11T10:41:14Z</time></trkpt><trkpt lat="43.17733974432616" lon="11.38560388796716"><ele>270.6666666666667</ele><time>2026-04-11T10:41:16Z</time></trkpt><trkpt lat="43.17730384103977" lon="11.385674861204725"><ele>271.5</ele><time>2026-04-11T10:41:17Z</time></trkpt><trkpt lat="43.17726681458437" lon="11.385749696185933"><ele>272.3333333333333</ele><time>2026-04-11T10:41:18Z</time></trkpt><trkpt lat="43.17723065451769" lon="11.385829498567567"><ele>273.16666666666663</ele><time>2026-04-11T10:41:19Z</time></trkpt><trkpt lat="43.17718082688281" lon="11.385906701230482"><ele>274.0</ele><time>2026-04-11T10:41:20Z</time></trkpt><trkpt lat="43.17715326230956" lon="11.385991957604896"><ele>274.00000000000006</ele><time>2026-04-11T10:41:21Z</time></trkpt><trkpt lat="43.177120268760014" lon="11.386079499305357"><ele>274.0</ele><time>2026-04-11T10:41:22Z</time></trkpt><trkpt lat="43.17708233751489" lon="11.3861666749629"><ele>274.0</ele><time>2026-04-11T10:41:23Z</time></trkpt><trkpt lat="43.17704993059832" lon="11.386249099052366"><ele>274.0</ele><time>2026-04-11T10:41:24Z</time></trkpt><trkpt lat="43.17701329990763" lon="11.386329375754412"><ele>274.0</ele><time>2026-04-11T10:41:25Z</time></trkpt><trkpt lat="43.176978792998405" lon="11.386412026520386"><ele>274.00000000000006</ele><time>2026-04-11T10:41:26Z</time></trkpt><trkpt lat="43.17694392993609" lon="11.386492489968434"><ele>274.0</ele><time>2026-04-11T10:41:27Z</time></trkpt><trkpt lat="43.17690851786412" lon="11.386575462963924"><ele>273.66666666666663</ele><time>2026-04-11T10:41:28Z</time></trkpt><trkpt lat="43.17687556545842" lon="11.386656745400527"><ele>273.3333333333333</ele><time>2026-04-11T10:41:29Z</time></trkpt><trkpt lat="43.17684330646422" lon="11.386734328425447"><ele>273.0</ele><time>2026-04-11T10:41:30Z</time></trkpt><trkpt lat="43.17681017642922" lon="11.38681249417352"><ele>272.6666666666667</ele><time>2026-04-11T10:41:31Z</time></trkpt><trkpt lat="43.1767788723719" lon="11.386889711730145"><ele>272.33333333333337</ele><time>2026-04-11T10:41:32Z</time></trkpt><trkpt lat="43.176720677171936" lon="11.387033127331842"><ele>272.0</ele><time>2026-04-11T10:41:34Z</time></trkpt><trkpt lat="43.17665614920665" lon="11.387173677018684"><ele>271.5</ele><time>2026-04-11T10:41:36Z</time></trkpt><trkpt lat="43.176596641763204" lon="11.387313488361785"><ele>271.0</ele><time>2026-04-11T10:41:38Z</time></trkpt><trkpt lat="43.17654143046008" lon="11.387452590309557"><ele>270.5</ele><time>2026-04-11T10:41:40Z</time></trkpt><trkpt lat="43.17648631149269" lon="11.387583767788547"><ele>270.0</ele><time>2026-04-11T10:41:42Z</time></trkpt><trkpt lat="43.17642511332895" lon="11.387701989305523"><ele>270.8</ele><time>2026-04-11T10:41:44Z</time></trkpt><trkpt lat="43.176356504127725" lon="11.387821474527245"><ele>271.6</ele><time>2026-04-11T10:41:45.999Z</time></trkpt><trkpt lat="43.17628335630088" lon="11.387922844633284"><ele>272.4</ele><time>2026-04-11T10:41:47.999Z</time></trkpt><trkpt lat="43.17620384018547" lon="11.388022039676635"><ele>273.2</ele><time>2026-04-11T10:41:49.999Z</time></trkpt><trkpt lat="43.176119033232375" lon="11.388111766144986"><ele>274.0</ele><time>2026-04-11T10:41:51.999Z</time></trkpt><trkpt lat="43.176032483806225" lon="11.38818888630079"><ele>274.0</ele><time>2026-04-11T10:41:53.999Z</time></trkpt><trkpt lat="43.175940779645" lon="11.388256960913592"><ele>274.0</ele><time>2026-04-11T10:41:55.999Z</time></trkpt><trkpt lat="43.17584483480027" lon="11.388315273356257"><ele>274.0</ele><time>2026-04-11T10:41:57.999Z</time></trkpt><trkpt lat="43.17575195218035" lon="11.38837140665644"><ele>274.0</ele><time>2026-04-11T10:41:59.999Z</time></trkpt><trkpt lat="43.17566165510477" lon="11.388414103447566"><ele>274.0</ele><time>2026-04-11T10:42:01.999Z</time></trkpt><trkpt lat="43.175568146427445" lon="11.388445802657554"><ele>273.8333333333333</ele><time>2026-04-11T10:42:03.999Z</time></trkpt><trkpt lat="43.17548209341319" lon="11.388483866355736"><ele>273.66666666666663</ele><time>2026-04-11T10:42:05.999Z</time></trkpt><trkpt lat="43.17540055988624" lon="11.38852226792134"><ele>273.5</ele><time>2026-04-11T10:42:07.999Z</time></trkpt><trkpt lat="43.17532847887077" lon="11.388555280700103"><ele>273.3333333333333</ele><time>2026-04-11T10:42:09.999Z</time></trkpt><trkpt lat="43.17526020342188" lon="11.388585128722916"><ele>273.1666666666667</ele><time>2026-04-11T10:42:11.999Z</time></trkpt><trkpt lat="43.17519779246532" lon="11.38861330642344"><ele>273.0</ele><time>2026-04-11T10:42:13.999Z</time></trkpt><trkpt lat="43.17513517424476" lon="11.38864217552643"><ele>273.0</ele><time>2026-04-11T10:42:15.999Z</time></trkpt><trkpt lat="43.17507340845042" lon="11.38867228035762"><ele>273.0</ele><time>2026-04-11T10:42:17.999Z</time></trkpt><trkpt lat="43.17498818222266" lon="11.388713072837428"><ele>273.0</ele><time>2026-04-11T10:42:20.999Z</time></trkpt><trkpt lat="43.17490119862505" lon="11.38875677480024"><ele>273.0</ele><time>2026-04-11T10:42:24Z</time></trkpt><trkpt lat="43.17483868506344" lon="11.388779135330504"><ele>273.0</ele><time>2026-04-11T10:42:26Z</time></trkpt><trkpt lat="43.174747222930726" lon="11.388812587224296"><ele>273.0</ele><time>2026-04-11T10:42:29Z</time></trkpt><trkpt lat="43.17468365216727" lon="11.388848246598243"><ele>274.0</ele><time>2026-04-11T10:42:31Z</time></trkpt><trkpt lat="43.17462237913097" lon="11.388871052711186"><ele>275.0</ele><time>2026-04-11T10:42:33Z</time></trkpt><trkpt lat="43.17453465529661" lon="11.388908466991063"><ele>276.0</ele><time>2026-04-11T10:42:36Z</time></trkpt><trkpt lat="43.17444569802007" lon="11.388942785981536"><ele>277.0</ele><time>2026-04-11T10:42:39Z</time></trkpt><trkpt lat="43.17435607647721" lon="11.388976592384822"><ele>278.0</ele><time>2026-04-11T10:42:42Z</time></trkpt><trkpt lat="43.17427063602981" lon="11.389015359775238"><ele>279.0</ele><time>2026-04-11T10:42:45Z</time></trkpt><trkpt lat="43.174188956670264" lon="11.38905236049147"><ele>278.99999999999994</ele><time>2026-04-11T10:42:48Z</time></trkpt><trkpt lat="43.174105119196106" lon="11.38910003926854"><ele>279.0</ele><time>2026-04-11T10:42:51Z</time></trkpt><trkpt lat="43.17404660032538" lon="11.389139664237943"><ele>279.0</ele><time>2026-04-11T10:42:53Z</time></trkpt><trkpt lat="43.17398968796666" lon="11.389183443013035"><ele>279.0</ele><time>2026-04-11T10:42:55Z</time></trkpt><trkpt lat="43.17393187238861" lon="11.389231398348358"><ele>279.0</ele><time>2026-04-11T10:42:57Z</time></trkpt><trkpt lat="43.17387562262987" lon="11.38928588596851"><ele>278.99999999999994</ele><time>2026-04-11T10:42:59Z</time></trkpt><trkpt lat="43.173820164308026" lon="11.389346881859542"><ele>279.0</ele><time>2026-04-11T10:43:01Z</time></trkpt><trkpt lat="43.17376690028073" lon="11.389411597335126"><ele>280.1666666666667</ele><time>2026-04-11T10:43:03Z</time></trkpt><trkpt lat="43.173716896666946" lon="11.389488922274575"><ele>281.3333333333333</ele><time>2026-04-11T10:43:05Z</time></trkpt><trkpt lat="43.17366768652754" lon="11.389571203531357"><ele>282.5</ele><time>2026-04-11T10:43:07Z</time></trkpt><trkpt lat="43.17361878287352" lon="11.389653759117499"><ele>283.66666666666663</ele><time>2026-04-11T10:43:09Z</time></trkpt><trkpt lat="43.17356521682073" lon="11.389744637338325"><ele>284.8333333333333</ele><time>2026-04-11T10:43:11Z</time></trkpt><trkpt lat="43.17351383910199" lon="11.389820779522488"><ele>286.0</ele><time>2026-04-11T10:43:13Z</time></trkpt><trkpt lat="43.17346911624992" lon="11.389901855968143"><ele>286.0</ele><time>2026-04-11T10:43:15Z</time></trkpt><trkpt lat="43.173425518998656" lon="11.389975000669148"><ele>286.0</ele><time>2026-04-11T10:43:17Z</time></trkpt><trkpt lat="43.173379976323524" lon="11.39004589138493"><ele>286.0</ele><time>2026-04-11T10:43:19Z</time></trkpt><trkpt lat="43.17332749403726" lon="11.390147120097215"><ele>286.0</ele><time>2026-04-11T10:43:22Z</time></trkpt><trkpt lat="43.17327767480065" lon="11.39023602151917"><ele>286.0</ele><time>2026-04-11T10:43:25Z</time></trkpt><trkpt lat="43.17322410846626" lon="11.390313158486753"><ele>286.0</ele><time>2026-04-11T10:43:29Z</time></trkpt><trkpt lat="43.173181010438675" lon="11.390377795677985"><ele>287.71428571428567</ele><time>2026-04-11T10:43:32Z</time></trkpt><trkpt lat="43.1731324759209" lon="11.390460957168017"><ele>289.42857142857144</ele><time>2026-04-11T10:43:36Z</time></trkpt><trkpt lat="43.17307593777506" lon="11.390541075978282"><ele>291.1428571428571</ele><time>2026-04-11T10:43:40Z</time></trkpt><trkpt lat="43.17301366347931" lon="11.39059989440026"><ele>292.85714285714283</ele><time>2026-04-11T10:43:43.999Z</time></trkpt><trkpt lat="43.17295973958989" lon="11.390658069985195"><ele>294.57142857142856</ele><time>2026-04-11T10:43:47.999Z</time></trkpt><trkpt lat="43.17290190869552" lon="11.39069371684837"><ele>296.2857142857143</ele><time>2026-04-11T10:43:51.999Z</time></trkpt><trkpt lat="43.17283745768277" lon="11.390719489207257"><ele>298.0</ele><time>2026-04-11T10:43:55.999Z</time></trkpt><trkpt lat="43.17276806240582" lon="11.390758790031661"><ele>298.0</ele><time>2026-04-11T10:44:00.999Z</time></trkpt><trkpt lat="43.172697986333866" lon="11.39078671744703"><ele>298.0</ele><time>2026-04-11T10:44:05.999Z</time></trkpt><trkpt lat="43.17262850746281" lon="11.390815060654585"><ele>298.0</ele><time>2026-04-11T10:44:10.999Z</time></trkpt><trkpt lat="43.172559935008536" lon="11.39085642907821"><ele>298.0</ele><time>2026-04-11T10:44:15.999Z</time></trkpt><trkpt lat="43.17249383488595" lon="11.390881022958851"><ele>298.0</ele><time>2026-04-11T10:44:20.999Z</time></trkpt><trkpt lat="43.17243263576096" lon="11.390919869648503"><ele>298.0</ele><time>2026-04-11T10:44:25.999Z</time></trkpt><trkpt lat="43.17236902182957" lon="11.390941893169622"><ele>298.0</ele><time>2026-04-11T10:44:31Z</time></trkpt><trkpt lat="43.172302693940956" lon="11.390977483564418"><ele>299.0</ele><time>2026-04-11T10:44:36Z</time></trkpt><trkpt lat="43.172232460435474" lon="11.391007266972583"><ele>300.0</ele><time>2026-04-11T10:44:41Z</time></trkpt><trkpt lat="43.17216917412254" lon="11.391037719466375"><ele>301.0</ele><time>2026-04-11T10:44:45Z</time></trkpt><trkpt lat="43.17210292507643" lon="11.39107239603916"><ele>302.0</ele><time>2026-04-11T10:44:49Z</time></trkpt><trkpt lat="43.172031208583576" lon="11.391109074403518"><ele>303.0</ele><time>2026-04-11T10:44:53Z</time></trkpt><trkpt lat="43.17195473363257" lon="11.39115436947723"><ele>304.0</ele><time>2026-04-11T10:44:57Z</time></trkpt><trkpt lat="43.17188874382584" lon="11.391179122087564"><ele>305.0</ele><time>2026-04-11T10:45:00Z</time></trkpt><trkpt lat="43.171823201467355" lon="11.391218156257965"><ele>305.0</ele><time>2026-04-11T10:45:03Z</time></trkpt><trkpt lat="43.171746902570966" lon="11.391248573426504"><ele>305.0</ele><time>2026-04-11T10:45:06Z</time></trkpt><trkpt lat="43.17168333522146" lon="11.391271264616526"><ele>305.0</ele><time>2026-04-11T10:45:09Z</time></trkpt><trkpt lat="43.17162073475368" lon="11.391288576125772"><ele>305.0</ele><time>2026-04-11T10:45:12Z</time></trkpt><trkpt lat="43.171542643595245" lon="11.391293437739884"><ele>305.0</ele><time>2026-04-11T10:45:15Z</time></trkpt><trkpt lat="43.171450846148275" lon="11.39131069947504"><ele>305.0</ele><time>2026-04-11T10:45:18Z</time></trkpt><trkpt lat="43.171359197174155" lon="11.391299799940988"><ele>304.5</ele><time>2026-04-11T10:45:20Z</time></trkpt><trkpt lat="43.171282810685504" lon="11.391295612800333"><ele>304.0</ele><time>2026-04-11T10:45:22Z</time></trkpt><trkpt lat="43.17118366151226" lon="11.391268446470695"><ele>303.5</ele><time>2026-04-11T10:45:24Z</time></trkpt><trkpt lat="43.17109582118112" lon="11.391228002766352"><ele>303.0</ele><time>2026-04-11T10:45:26Z</time></trkpt><trkpt lat="43.17102488526509" lon="11.391179236970169"><ele>302.5</ele><time>2026-04-11T10:45:28Z</time></trkpt><trkpt lat="43.17095581340685" lon="11.391135983407386"><ele>302.0</ele><time>2026-04-11T10:45:30Z</time></trkpt><trkpt lat="43.170881224552915" lon="11.39110411716159"><ele>302.0</ele><time>2026-04-11T10:45:32Z</time></trkpt><trkpt lat="43.170807548791174" lon="11.391060195640442"><ele>302.0</ele><time>2026-04-11T10:45:34Z</time></trkpt><trkpt lat="43.17072289246616" lon="11.391020626588444"><ele>302.0</ele><time>2026-04-11T10:45:36Z</time></trkpt><trkpt lat="43.17064146494101" lon="11.390975897846092"><ele>302.0</ele><time>2026-04-11T10:45:38Z</time></trkpt><trkpt lat="43.17055440025256" lon="11.390917219080398"><ele>302.0</ele><time>2026-04-11T10:45:40Z</time></trkpt><trkpt lat="43.170457996188674" lon="11.390862946793348"><ele>302.0</ele><time>2026-04-11T10:45:42Z</time></trkpt><trkpt lat="43.17036366097132" lon="11.390795155920301"><ele>302.0</ele><time>2026-04-11T10:45:44Z</time></trkpt><trkpt lat="43.170264787596885" lon="11.390715618782565"><ele>302.0</ele><time>2026-04-11T10:45:46Z</time></trkpt><trkpt lat="43.17020885380513" lon="11.390669776181705"><ele>302.0</ele><time>2026-04-11T10:45:47Z</time></trkpt><trkpt lat="43.170148163666454" lon="11.390617550880245"><ele>302.0</ele><time>2026-04-11T10:45:48Z</time></trkpt><trkpt lat="43.170085168373674" lon="11.390571390831322"><ele>302.0</ele><time>2026-04-11T10:45:49Z</time></trkpt><trkpt lat="43.170020923351856" lon="11.390515708240034"><ele>301.83333333333337</ele><time>2026-04-11T10:45:50Z</time></trkpt><trkpt lat="43.169956742547114" lon="11.390463005545683"><ele>301.6666666666667</ele><time>2026-04-11T10:45:51Z</time></trkpt><trkpt lat="43.16989306041595" lon="11.390405703769936"><ele>301.5</ele><time>2026-04-11T10:45:52Z</time></trkpt><trkpt lat="43.16981978880976" lon="11.390339824555296"><ele>301.3333333333333</ele><time>2026-04-11T10:45:53Z</time></trkpt><trkpt lat="43.16974936626698" lon="11.390276411019723"><ele>301.16666666666663</ele><time>2026-04-11T10:45:54Z</time></trkpt><trkpt lat="43.169663183868884" lon="11.390216856845754"><ele>301.0</ele><time>2026-04-11T10:45:55Z</time></trkpt><trkpt lat="43.16958099870348" lon="11.390162393681663"><ele>298.8</ele><time>2026-04-11T10:45:56Z</time></trkpt><trkpt lat="43.16948341524112" lon="11.390112140651295"><ele>296.6</ele><time>2026-04-11T10:45:57Z</time></trkpt><trkpt lat="43.169384112148904" lon="11.390067363010338"><ele>294.4</ele><time>2026-04-11T10:45:58Z</time></trkpt><trkpt lat="43.16928538256413" lon="11.390028678113255"><ele>292.2</ele><time>2026-04-11T10:45:59Z</time></trkpt><trkpt lat="43.16917498677487" lon="11.390007814628675"><ele>290.0</ele><time>2026-04-11T10:46:00Z</time></trkpt><trkpt lat="43.169070586581825" lon="11.389993769563342"><ele>287.25</ele><time>2026-04-11T10:46:01Z</time></trkpt><trkpt lat="43.16895709982762" lon="11.389985847186736"><ele>284.5</ele><time>2026-04-11T10:46:02Z</time></trkpt><trkpt lat="43.16884909068093" lon="11.389976643993197"><ele>281.75</ele><time>2026-04-11T10:46:03Z</time></trkpt><trkpt lat="43.16872124154853" lon="11.389956559440762"><ele>279.0</ele><time>2026-04-11T10:46:04Z</time></trkpt><trkpt lat="43.16860120134476" lon="11.389944474952426"><ele>279.0</ele><time>2026-04-11T10:46:05Z</time></trkpt><trkpt lat="43.16848073545573" lon="11.389933119097613"><ele>279.0</ele><time>2026-04-11T10:46:06Z</time></trkpt><trkpt lat="43.16835807805623" lon="11.389924390547298"><ele>279.0</ele><time>2026-04-11T10:46:06.999Z</time></trkpt><trkpt lat="43.16823305821208" lon="11.38991487866194"><ele>279.0</ele><time>2026-04-11T10:46:07.999Z</time></trkpt><trkpt lat="43.16810487450427" lon="11.389907552261453"><ele>277.5</ele><time>2026-04-11T10:46:08.999Z</time></trkpt><trkpt lat="43.1679787756044" lon="11.389901007287374"><ele>276.0</ele><time>2026-04-11T10:46:09.999Z</time></trkpt><trkpt lat="43.167857097268964" lon="11.389891446924585"><ele>274.5</ele><time>2026-04-11T10:46:10.999Z</time></trkpt><trkpt lat="43.167728674339926" lon="11.389873215780208"><ele>273.0</ele><time>2026-04-11T10:46:11.999Z</time></trkpt><trkpt lat="43.1675987045624" lon="11.389864877072762"><ele>273.0</ele><time>2026-04-11T10:46:12.999Z</time></trkpt><trkpt lat="43.167473298414045" lon="11.38985978214891"><ele>273.0</ele><time>2026-04-11T10:46:13.999Z</time></trkpt><trkpt lat="43.16734807514739" lon="11.389849651053533"><ele>273.0</ele><time>2026-04-11T10:46:14.999Z</time></trkpt><trkpt lat="43.16722238435989" lon="11.38983802153304"><ele>273.0</ele><time>2026-04-11T10:46:15.999Z</time></trkpt><trkpt lat="43.16710280466236" lon="11.389837023022798"><ele>273.25</ele><time>2026-04-11T10:46:16.999Z</time></trkpt><trkpt lat="43.166986106625224" lon="11.38984144953564"><ele>273.5</ele><time>2026-04-11T10:46:17.999Z</time></trkpt><trkpt lat="43.166873337623734" lon="11.389875036182378"><ele>273.75</ele><time>2026-04-11T10:46:18.999Z</time></trkpt><trkpt lat="43.1667661709706" lon="11.389927183631587"><ele>274.0</ele><time>2026-04-11T10:46:19.999Z</time></trkpt><trkpt lat="43.16666607568498" lon="11.3899947530222"><ele>274.0</ele><time>2026-04-11T10:46:20.999Z</time></trkpt><trkpt lat="43.16657187348692" lon="11.390070457965955"><ele>274.0</ele><time>2026-04-11T10:46:21.999Z</time></trkpt><trkpt lat="43.16649712638814" lon="11.390160929786058"><ele>274.0</ele><time>2026-04-11T10:46:22.999Z</time></trkpt><trkpt lat="43.16642888589891" lon="11.390262905419775"><ele>274.0</ele><time>2026-04-11T10:46:23.999Z</time></trkpt><trkpt lat="43.166370095654514" lon="11.390366495850103"><ele>274.0</ele><time>2026-04-11T10:46:24.999Z</time></trkpt><trkpt lat="43.16630337970893" lon="11.390452715107234"><ele>273.5</ele><time>2026-04-11T10:46:25.999Z</time></trkpt><trkpt lat="43.16625540179439" lon="11.390548583410007"><ele>273.0</ele><time>2026-04-11T10:46:26.999Z</time></trkpt><trkpt lat="43.166185516839256" lon="11.390605452430377"><ele>272.5</ele><time>2026-04-11T10:46:27.999Z</time></trkpt><trkpt lat="43.166116713257296" lon="11.390650727375615"><ele>272.0</ele><time>2026-04-11T10:46:28.999Z</time></trkpt><trkpt lat="43.166051471887975" lon="11.390687899937783"><ele>271.5</ele><time>2026-04-11T10:46:29.999Z</time></trkpt><trkpt lat="43.16598500140487" lon="11.390734149841508"><ele>271.0</ele><time>2026-04-11T10:46:30.999Z</time></trkpt><trkpt lat="43.1659202918053" lon="11.390766558794452"><ele>271.0</ele><time>2026-04-11T10:46:31.999Z</time></trkpt><trkpt lat="43.16585633314422" lon="11.390792466263717"><ele>271.0</ele><time>2026-04-11T10:46:32.999Z</time></trkpt><trkpt lat="43.165792404474736" lon="11.390812532468685"><ele>271.0</ele><time>2026-04-11T10:46:33.999Z</time></trkpt><trkpt lat="43.165731925397665" lon="11.39083710354317"><ele>271.0</ele><time>2026-04-11T10:46:34.999Z</time></trkpt><trkpt lat="43.16561396260863" lon="11.390877486201985"><ele>271.0</ele><time>2026-04-11T10:46:37Z</time></trkpt><trkpt lat="43.165501550962226" lon="11.390905756108458"><ele>271.0</ele><time>2026-04-11T10:46:39Z</time></trkpt><trkpt lat="43.16539065176298" lon="11.390930107836342"><ele>271.6</ele><time>2026-04-11T10:46:41Z</time></trkpt><trkpt lat="43.165288491818515" lon="11.39095738067008"><ele>272.20000000000005</ele><time>2026-04-11T10:46:43Z</time></trkpt><trkpt lat="43.1651863733701" lon="11.390980224365398"><ele>272.79999999999995</ele><time>2026-04-11T10:46:45Z</time></trkpt><trkpt lat="43.16508787946704" lon="11.391004798231137"><ele>273.4</ele><time>2026-04-11T10:46:47Z</time></trkpt><trkpt lat="43.16499378894865" lon="11.39102665803923"><ele>274.0</ele><time>2026-04-11T10:46:49Z</time></trkpt><trkpt lat="43.16490573705068" lon="11.391053781001181"><ele>274.16666666666663</ele><time>2026-04-11T10:46:51Z</time></trkpt><trkpt lat="43.16482390610173" lon="11.391082098683386"><ele>274.3333333333333</ele><time>2026-04-11T10:46:53Z</time></trkpt><trkpt lat="43.16474306482421" lon="11.391094568480117"><ele>274.5</ele><time>2026-04-11T10:46:55Z</time></trkpt><trkpt lat="43.16466683190744" lon="11.391107822615215"><ele>274.6666666666667</ele><time>2026-04-11T10:46:57Z</time></trkpt><trkpt lat="43.16459334217258" lon="11.391124553699031"><ele>274.83333333333337</ele><time>2026-04-11T10:46:59Z</time></trkpt><trkpt lat="43.16452234939186" lon="11.391144539238413"><ele>275.0</ele><time>2026-04-11T10:47:01Z</time></trkpt><trkpt lat="43.16445368124286" lon="11.391165627172825"><ele>275.0</ele><time>2026-04-11T10:47:03Z</time></trkpt><trkpt lat="43.16438726174622" lon="11.391184309903457"><ele>275.0</ele><time>2026-04-11T10:47:05Z</time></trkpt><trkpt lat="43.16432211709644" lon="11.391193645892194"><ele>275.0</ele><time>2026-04-11T10:47:07Z</time></trkpt><trkpt lat="43.1642584559348" lon="11.391209431330413"><ele>275.0</ele><time>2026-04-11T10:47:09Z</time></trkpt><trkpt lat="43.16419301889131" lon="11.391227123969658"><ele>275.0</ele><time>2026-04-11T10:47:11Z</time></trkpt><trkpt lat="43.16409959923267" lon="11.39124528297133"><ele>275.0</ele><time>2026-04-11T10:47:14Z</time></trkpt><trkpt lat="43.16400873740871" lon="11.39126586479744"><ele>275.33333333333337</ele><time>2026-04-11T10:47:17Z</time></trkpt><trkpt lat="43.163918380874854" lon="11.391290729951512"><ele>275.6666666666667</ele><time>2026-04-11T10:47:20Z</time></trkpt><trkpt lat="43.16382883025116" lon="11.391301272057891"><ele>276.0</ele><time>2026-04-11T10:47:23Z</time></trkpt><trkpt lat="43.163746580351564" lon="11.391323302147166"><ele>276.3333333333333</ele><time>2026-04-11T10:47:26Z</time></trkpt><trkpt lat="43.163663834512164" lon="11.391346996290794"><ele>276.66666666666663</ele><time>2026-04-11T10:47:29Z</time></trkpt><trkpt lat="43.16357867254474" lon="11.391370093635835"><ele>277.0</ele><time>2026-04-11T10:47:32Z</time></trkpt><trkpt lat="43.16349412588465" lon="11.391389934088"><ele>277.0</ele><time>2026-04-11T10:47:35Z</time></trkpt><trkpt lat="43.163409505666245" lon="11.3914078846462"><ele>277.0</ele><time>2026-04-11T10:47:38Z</time></trkpt><trkpt lat="43.163329728561415" lon="11.391427372565412"><ele>277.0</ele><time>2026-04-11T10:47:41Z</time></trkpt><trkpt lat="43.163246800745206" lon="11.391451401531564"><ele>277.0</ele><time>2026-04-11T10:47:44Z</time></trkpt><trkpt lat="43.16316631401403" lon="11.391469953331967"><ele>277.0</ele><time>2026-04-11T10:47:47Z</time></trkpt><trkpt lat="43.16308617624098" lon="11.391493738561488"><ele>277.0</ele><time>2026-04-11T10:47:50Z</time></trkpt><trkpt lat="43.16300861956529" lon="11.391511193663954"><ele>277.8333333333333</ele><time>2026-04-11T10:47:53Z</time></trkpt><trkpt lat="43.16293096156169" lon="11.391529521384397"><ele>278.66666666666663</ele><time>2026-04-11T10:47:56Z</time></trkpt><trkpt lat="43.1628489563303" lon="11.391539774366315"><ele>279.5</ele><time>2026-04-11T10:47:59Z</time></trkpt><trkpt lat="43.16276874285584" lon="11.391570121157534"><ele>280.3333333333333</ele><time>2026-04-11T10:48:02Z</time></trkpt><trkpt lat="43.16267665102008" lon="11.39158391158043"><ele>281.1666666666667</ele><time>2026-04-11T10:48:05Z</time></trkpt><trkpt lat="43.162584327079415" lon="11.391606138060384"><ele>282.0</ele><time>2026-04-11T10:48:07.999Z</time></trkpt><trkpt lat="43.16249293346053" lon="11.39161286938471"><ele>282.0</ele><time>2026-04-11T10:48:10.999Z</time></trkpt><trkpt lat="43.16240290541009" lon="11.391615199710126"><ele>282.0</ele><time>2026-04-11T10:48:13.999Z</time></trkpt><trkpt lat="43.16233858956305" lon="11.391626775631398"><ele>282.0</ele><time>2026-04-11T10:48:15.999Z</time></trkpt><trkpt lat="43.162244864971335" lon="11.391638919133474"><ele>282.0</ele><time>2026-04-11T10:48:18.999Z</time></trkpt><trkpt lat="43.16217956164483" lon="11.391640832022787"><ele>282.0</ele><time>2026-04-11T10:48:20.999Z</time></trkpt><trkpt lat="43.16211288344537" lon="11.391658569989502"><ele>282.0</ele><time>2026-04-11T10:48:22.999Z</time></trkpt><trkpt lat="43.16204348001271" lon="11.39167130306252"><ele>282.6666666666667</ele><time>2026-04-11T10:48:24.999Z</time></trkpt><trkpt lat="43.1619708006113" lon="11.39170459439483"><ele>283.3333333333333</ele><time>2026-04-11T10:48:26.999Z</time></trkpt><trkpt lat="43.1618983941803" lon="11.391754973868139"><ele>284.0</ele><time>2026-04-11T10:48:28.999Z</time></trkpt><trkpt lat="43.161826222143425" lon="11.39181607075624"><ele>284.66666666666663</ele><time>2026-04-11T10:48:30.999Z</time></trkpt><trkpt lat="43.161764559891374" lon="11.391902718518475"><ele>285.3333333333333</ele><time>2026-04-11T10:48:32.999Z</time></trkpt><trkpt lat="43.161717828627346" lon="11.392008134583714"><ele>286.0</ele><time>2026-04-11T10:48:34.999Z</time></trkpt><trkpt lat="43.161673884402674" lon="11.392135330543407"><ele>285.2</ele><time>2026-04-11T10:48:36.999Z</time></trkpt><trkpt lat="43.16163876172432" lon="11.392278499934148"><ele>284.40000000000003</ele><time>2026-04-11T10:48:38.999Z</time></trkpt><trkpt lat="43.16159420048845" lon="11.39242801808234"><ele>283.6</ele><time>2026-04-11T10:48:40.999Z</time></trkpt><trkpt lat="43.16154296246915" lon="11.392579002033141"><ele>282.8</ele><time>2026-04-11T10:48:43Z</time></trkpt><trkpt lat="43.16151826247301" lon="11.392660253145383"><ele>282.0</ele><time>2026-04-11T10:48:44Z</time></trkpt><trkpt lat="43.16148069345387" lon="11.39274128880193"><ele>281.57142857142856</ele><time>2026-04-11T10:48:45Z</time></trkpt><trkpt lat="43.16143793465341" lon="11.392808210933785"><ele>281.1428571428571</ele><time>2026-04-11T10:48:46Z</time></trkpt><trkpt lat="43.16138383512552" lon="11.392875739467083"><ele>280.71428571428567</ele><time>2026-04-11T10:48:47Z</time></trkpt><trkpt lat="43.16133206155435" lon="11.39293463940527"><ele>280.2857142857143</ele><time>2026-04-11T10:48:48Z</time></trkpt><trkpt lat="43.161271531248126" lon="11.39298221866842"><ele>279.85714285714283</ele><time>2026-04-11T10:48:49Z</time></trkpt><trkpt lat="43.16121003676497" lon="11.393021712576092"><ele>279.4285714285714</ele><time>2026-04-11T10:48:50Z</time></trkpt><trkpt lat="43.161148898869506" lon="11.393059824325938"><ele>279.0</ele><time>2026-04-11T10:48:51Z</time></trkpt><trkpt lat="43.16108542142932" lon="11.393092430605027"><ele>278.99999999999994</ele><time>2026-04-11T10:48:52Z</time></trkpt><trkpt lat="43.1610184111084" lon="11.393117169989932"><ele>279.0</ele><time>2026-04-11T10:48:53Z</time></trkpt><trkpt lat="43.160954076863106" lon="11.393149736248112"><ele>279.0</ele><time>2026-04-11T10:48:54Z</time></trkpt><trkpt lat="43.16088777881838" lon="11.393178598790358"><ele>279.0</ele><time>2026-04-11T10:48:55Z</time></trkpt><trkpt lat="43.160819063163906" lon="11.393209429294252"><ele>279.0</ele><time>2026-04-11T10:48:56Z</time></trkpt><trkpt lat="43.16075387019816" lon="11.39323642682426"><ele>278.99999999999994</ele><time>2026-04-11T10:48:57Z</time></trkpt><trkpt lat="43.16068734811289" lon="11.393267443477612"><ele>279.0</ele><time>2026-04-11T10:48:58Z</time></trkpt><trkpt lat="43.160619186590495" lon="11.393297471159784"><ele>278.71428571428567</ele><time>2026-04-11T10:48:59Z</time></trkpt><trkpt lat="43.16055013290406" lon="11.393323365435622"><ele>278.42857142857144</ele><time>2026-04-11T10:49:00Z</time></trkpt><trkpt lat="43.16048425947509" lon="11.393352385884224"><ele>278.1428571428571</ele><time>2026-04-11T10:49:01Z</time></trkpt><trkpt lat="43.16041703275884" lon="11.393381101627716"><ele>277.85714285714283</ele><time>2026-04-11T10:49:02Z</time></trkpt><trkpt lat="43.160347911658285" lon="11.393409508112251"><ele>277.57142857142856</ele><time>2026-04-11T10:49:03Z</time></trkpt><trkpt lat="43.16027906360112" lon="11.39343613281344"><ele>277.2857142857143</ele><time>2026-04-11T10:49:04Z</time></trkpt><trkpt lat="43.160210708592544" lon="11.393463814874176"><ele>277.0</ele><time>2026-04-11T10:49:05Z</time></trkpt><trkpt lat="43.160143136755885" lon="11.393493690622025"><ele>277.0</ele><time>2026-04-11T10:49:06Z</time></trkpt><trkpt lat="43.160074928558956" lon="11.393524477933267"><ele>277.0</ele><time>2026-04-11T10:49:07Z</time></trkpt><trkpt lat="43.16000965307066" lon="11.393558531835625"><ele>277.0</ele><time>2026-04-11T10:49:08Z</time></trkpt><trkpt lat="43.159943053715075" lon="11.39359366886535"><ele>277.0</ele><time>2026-04-11T10:49:09Z</time></trkpt><trkpt lat="43.159878546475646" lon="11.393629577154858"><ele>277.0</ele><time>2026-04-11T10:49:10Z</time></trkpt><trkpt lat="43.15981520058812" lon="11.39366605789809"><ele>277.0</ele><time>2026-04-11T10:49:11Z</time></trkpt><trkpt lat="43.159750146857455" lon="11.393706177837815"><ele>277.0</ele><time>2026-04-11T10:49:12Z</time></trkpt><trkpt lat="43.15968839424241" lon="11.393747795067068"><ele>276.85714285714283</ele><time>2026-04-11T10:49:13Z</time></trkpt><trkpt lat="43.15962891808548" lon="11.393783739117175"><ele>276.71428571428567</ele><time>2026-04-11T10:49:14Z</time></trkpt><trkpt lat="43.15956931001361" lon="11.393826763436115"><ele>276.57142857142856</ele><time>2026-04-11T10:49:15Z</time></trkpt><trkpt lat="43.15951070959738" lon="11.393873486920949"><ele>276.42857142857144</ele><time>2026-04-11T10:49:16Z</time></trkpt><trkpt lat="43.15945427143163" lon="11.393924479811018"><ele>276.28571428571433</ele><time>2026-04-11T10:49:17Z</time></trkpt><trkpt lat="43.15939884578318" lon="11.393980310945777"><ele>276.14285714285717</ele><time>2026-04-11T10:49:18Z</time></trkpt><trkpt lat="43.15934278453497" lon="11.39404306965752"><ele>276.0</ele><time>2026-04-11T10:49:19Z</time></trkpt><trkpt lat="43.1592867513298" lon="11.394109812707386"><ele>276.0</ele><time>2026-04-11T10:49:20Z</time></trkpt><trkpt lat="43.15923160693356" lon="11.394181751161366"><ele>276.0</ele><time>2026-04-11T10:49:21Z</time></trkpt><trkpt lat="43.159175302108416" lon="11.394253780933504"><ele>276.0</ele><time>2026-04-11T10:49:22Z</time></trkpt><trkpt lat="43.15911997796451" lon="11.394327549865828"><ele>276.0</ele><time>2026-04-11T10:49:23Z</time></trkpt><trkpt lat="43.1590639425404" lon="11.394403938720615"><ele>276.0</ele><time>2026-04-11T10:49:24Z</time></trkpt><trkpt lat="43.159009950319174" lon="11.394483909799643"><ele>276.0</ele><time>2026-04-11T10:49:25Z</time></trkpt><trkpt lat="43.158960401562645" lon="11.394570464698722"><ele>276.5</ele><time>2026-04-11T10:49:26Z</time></trkpt><trkpt lat="43.15890979145168" lon="11.39465739562693"><ele>277.0</ele><time>2026-04-11T10:49:27Z</time></trkpt><trkpt lat="43.158861549574894" lon="11.394747865011741"><ele>277.5</ele><time>2026-04-11T10:49:28Z</time></trkpt><trkpt lat="43.15881807015859" lon="11.394845211949379"><ele>278.0</ele><time>2026-04-11T10:49:29Z</time></trkpt><trkpt lat="43.15878542924067" lon="11.394944897739261"><ele>278.5</ele><time>2026-04-11T10:49:30Z</time></trkpt><trkpt lat="43.15875774413305" lon="11.395048911977211"><ele>279.0</ele><time>2026-04-11T10:49:31Z</time></trkpt><trkpt lat="43.15873419182162" lon="11.395152853257008"><ele>278.99999999999994</ele><time>2026-04-11T10:49:32Z</time></trkpt><trkpt lat="43.15871288004366" lon="11.395255235088667"><ele>279.0</ele><time>2026-04-11T10:49:33Z</time></trkpt><trkpt lat="43.15869639685687" lon="11.395354078832053"><ele>279.0</ele><time>2026-04-11T10:49:34Z</time></trkpt><trkpt lat="43.15868617053544" lon="11.39545534803574"><ele>279.0</ele><time>2026-04-11T10:49:35Z</time></trkpt><trkpt lat="43.158681408261806" lon="11.395557012510185"><ele>279.0</ele><time>2026-04-11T10:49:36Z</time></trkpt><trkpt lat="43.15868211860777" lon="11.395658973310407"><ele>278.99999999999994</ele><time>2026-04-11T10:49:37Z</time></trkpt><trkpt lat="43.15868192210245" lon="11.395758778663541"><ele>279.0</ele><time>2026-04-11T10:49:38Z</time></trkpt><trkpt lat="43.15867653070703" lon="11.395858738511725"><ele>278.99999999999994</ele><time>2026-04-11T10:49:39Z</time></trkpt><trkpt lat="43.158675004908126" lon="11.395960510312586"><ele>279.0</ele><time>2026-04-11T10:49:40Z</time></trkpt><trkpt lat="43.15867254372899" lon="11.396057133278152"><ele>279.0</ele><time>2026-04-11T10:49:41Z</time></trkpt><trkpt lat="43.15867350888913" lon="11.39615571924822"><ele>279.0</ele><time>2026-04-11T10:49:42Z</time></trkpt><trkpt lat="43.15867708021768" lon="11.396255635472446"><ele>279.0</ele><time>2026-04-11T10:49:43Z</time></trkpt><trkpt lat="43.158677569519746" lon="11.39635192553709"><ele>278.99999999999994</ele><time>2026-04-11T10:49:44Z</time></trkpt><trkpt lat="43.158664788624144" lon="11.396444829415985"><ele>279.0</ele><time>2026-04-11T10:49:45Z</time></trkpt><trkpt lat="43.15865947393067" lon="11.396538663946611"><ele>279.1428571428571</ele><time>2026-04-11T10:49:46Z</time></trkpt><trkpt lat="43.1586515481464" lon="11.396632941419028"><ele>279.2857142857143</ele><time>2026-04-11T10:49:47Z</time></trkpt><trkpt lat="43.15864652095484" lon="11.396728742122129"><ele>279.42857142857144</ele><time>2026-04-11T10:49:48Z</time></trkpt><trkpt lat="43.158648769423785" lon="11.396825291257215"><ele>279.57142857142856</ele><time>2026-04-11T10:49:49Z</time></trkpt><trkpt lat="43.15865132500751" lon="11.396916715894825"><ele>279.7142857142857</ele><time>2026-04-11T10:49:50Z</time></trkpt><trkpt lat="43.15865073932587" lon="11.397010027113618"><ele>279.85714285714283</ele><time>2026-04-11T10:49:51Z</time></trkpt><trkpt lat="43.15865079363193" lon="11.397102168364018"><ele>280.0</ele><time>2026-04-11T10:49:52Z</time></trkpt><trkpt lat="43.15864998455562" lon="11.397195473564834"><ele>280.0</ele><time>2026-04-11T10:49:53Z</time></trkpt><trkpt lat="43.15865158485961" lon="11.397294726154788"><ele>280.0</ele><time>2026-04-11T10:49:54Z</time></trkpt><trkpt lat="43.15865303755558" lon="11.39739086010893"><ele>280.0</ele><time>2026-04-11T10:49:55Z</time></trkpt><trkpt lat="43.15865204147681" lon="11.39748478982827"><ele>280.0</ele><time>2026-04-11T10:49:56Z</time></trkpt><trkpt lat="43.15865375905254" lon="11.397579249401847"><ele>280.0</ele><time>2026-04-11T10:49:57Z</time></trkpt><trkpt lat="43.15866179811174" lon="11.397673990851542"><ele>280.0</ele><time>2026-04-11T10:49:58Z</time></trkpt><trkpt lat="43.15866979576948" lon="11.397764422114149"><ele>280.0</ele><time>2026-04-11T10:49:59Z</time></trkpt><trkpt lat="43.15868577337631" lon="11.39793124592468"><ele>280.4</ele><time>2026-04-11T10:50:01Z</time></trkpt><trkpt lat="43.15870748608357" lon="11.39807598459651"><ele>280.8</ele><time>2026-04-11T10:50:03Z</time></trkpt><trkpt lat="43.15873392873136" lon="11.398214902474928"><ele>281.2</ele><time>2026-04-11T10:50:05Z</time></trkpt><trkpt lat="43.15876912410386" lon="11.398337880148992"><ele>281.6</ele><time>2026-04-11T10:50:07Z</time></trkpt><trkpt lat="43.158806138822555" lon="11.398451676593842"><ele>282.0</ele><time>2026-04-11T10:50:09Z</time></trkpt><trkpt lat="43.15883177168212" lon="11.398566056158145"><ele>282.0</ele><time>2026-04-11T10:50:11Z</time></trkpt><trkpt lat="43.15884468276967" lon="11.39867834162349"><ele>282.0</ele><time>2026-04-11T10:50:12.999Z</time></trkpt><trkpt lat="43.15887199318604" lon="11.398774978817507"><ele>282.0</ele><time>2026-04-11T10:50:14.999Z</time></trkpt><trkpt lat="43.158889440517015" lon="11.39887273654042"><ele>282.0</ele><time>2026-04-11T10:50:16.999Z</time></trkpt><trkpt lat="43.158903144728555" lon="11.398966734406525"><ele>282.0</ele><time>2026-04-11T10:50:18.999Z</time></trkpt><trkpt lat="43.158909059820445" lon="11.399056992652302"><ele>282.0</ele><time>2026-04-11T10:50:20.999Z</time></trkpt><trkpt lat="43.15889865862574" lon="11.399142766532938"><ele>282.0</ele><time>2026-04-11T10:50:22.999Z</time></trkpt><trkpt lat="43.15890058698173" lon="11.39922925146133"><ele>282.3333333333333</ele><time>2026-04-11T10:50:24.999Z</time></trkpt><trkpt lat="43.15889682261569" lon="11.399342844496507"><ele>282.6666666666667</ele><time>2026-04-11T10:50:27.999Z</time></trkpt><trkpt lat="43.15885339419029" lon="11.39944132195386"><ele>283.0</ele><time>2026-04-11T10:50:30.999Z</time></trkpt><trkpt lat="43.15880870071354" lon="11.399525014305231"><ele>283.33333333333337</ele><time>2026-04-11T10:50:33.999Z</time></trkpt><trkpt lat="43.15874123589802" lon="11.399586951554276"><ele>283.6666666666667</ele><time>2026-04-11T10:50:36.999Z</time></trkpt><trkpt lat="43.15865779041017" lon="11.399619196224943"><ele>284.0</ele><time>2026-04-11T10:50:39.999Z</time></trkpt><trkpt lat="43.15859460944012" lon="11.39963204552127"><ele>284.0</ele><time>2026-04-11T10:50:41.999Z</time></trkpt><trkpt lat="43.15850353644515" lon="11.399618399124853"><ele>284.0</ele><time>2026-04-11T10:50:44.999Z</time></trkpt><trkpt lat="43.15841189061031" lon="11.399609630860096"><ele>284.0</ele><time>2026-04-11T10:50:48Z</time></trkpt><trkpt lat="43.15832175387444" lon="11.399598350446448"><ele>284.0</ele><time>2026-04-11T10:50:51Z</time></trkpt><trkpt lat="43.1582349801886" lon="11.399596973194493"><ele>284.0</ele><time>2026-04-11T10:50:54Z</time></trkpt><trkpt lat="43.158147052510614" lon="11.399604328207197"><ele>284.0</ele><time>2026-04-11T10:50:57Z</time></trkpt><trkpt lat="43.15806383237452" lon="11.39962844082304"><ele>285.0</ele><time>2026-04-11T10:51:00Z</time></trkpt><trkpt lat="43.15798188049071" lon="11.399661674919924"><ele>286.0</ele><time>2026-04-11T10:51:03Z</time></trkpt><trkpt lat="43.157898463754584" lon="11.39970080417573"><ele>287.0</ele><time>2026-04-11T10:51:06Z</time></trkpt><trkpt lat="43.15783089236574" lon="11.399765378250727"><ele>288.0</ele><time>2026-04-11T10:51:09Z</time></trkpt><trkpt lat="43.15776056504827" lon="11.39983007240713"><ele>289.0</ele><time>2026-04-11T10:51:12Z</time></trkpt><trkpt lat="43.15768983830264" lon="11.399907414822344"><ele>290.0</ele><time>2026-04-11T10:51:15Z</time></trkpt><trkpt lat="43.15761238721921" lon="11.399968321009132"><ele>290.0</ele><time>2026-04-11T10:51:18Z</time></trkpt><trkpt lat="43.15753854455139" lon="11.400037724321267"><ele>290.0</ele><time>2026-04-11T10:51:21Z</time></trkpt><trkpt lat="43.15746247645441" lon="11.400097194552375"><ele>290.0</ele><time>2026-04-11T10:51:24Z</time></trkpt><trkpt lat="43.15740360303904" lon="11.400128422216884"><ele>290.0</ele><time>2026-04-11T10:51:26Z</time></trkpt><trkpt lat="43.157317787558256" lon="11.40016929460548"><ele>290.0</ele><time>2026-04-11T10:51:29Z</time></trkpt><trkpt lat="43.15725350233998" lon="11.40017619092051"><ele>290.0</ele><time>2026-04-11T10:51:31Z</time></trkpt><trkpt lat="43.157188275152265" lon="11.400178955597676"><ele>290.57142857142856</ele><time>2026-04-11T10:51:33Z</time></trkpt><trkpt lat="43.1571222311972" lon="11.40017306806961"><ele>291.14285714285717</ele><time>2026-04-11T10:51:35Z</time></trkpt><trkpt lat="43.15705446104894" lon="11.40014942441756"><ele>291.7142857142857</ele><time>2026-04-11T10:51:37Z</time></trkpt><trkpt lat="43.156987518243604" lon="11.4001242113945"><ele>292.2857142857143</ele><time>2026-04-11T10:51:39Z</time></trkpt><trkpt lat="43.156916651278884" lon="11.400101434436493"><ele>292.8571428571429</ele><time>2026-04-11T10:51:41Z</time></trkpt><trkpt lat="43.15684648155857" lon="11.400068950851503"><ele>293.42857142857144</ele><time>2026-04-11T10:51:43Z</time></trkpt><trkpt lat="43.15678074072763" lon="11.400045421783092"><ele>294.0</ele><time>2026-04-11T10:51:45Z</time></trkpt><trkpt lat="43.156712953248565" lon="11.400016444836835"><ele>294.0</ele><time>2026-04-11T10:51:47Z</time></trkpt><trkpt lat="43.1566451081837" lon="11.399985613147981"><ele>294.0</ele><time>2026-04-11T10:51:49Z</time></trkpt><trkpt lat="43.15657487616666" lon="11.399959063638738"><ele>294.0</ele><time>2026-04-11T10:51:51Z</time></trkpt><trkpt lat="43.156507039282545" lon="11.399963408748743"><ele>294.0</ele><time>2026-04-11T10:51:53Z</time></trkpt><trkpt lat="43.156435921576275" lon="11.39998387150394"><ele>294.0</ele><time>2026-04-11T10:51:55Z</time></trkpt><trkpt lat="43.156369932882534" lon="11.400030555608684"><ele>294.0</ele><time>2026-04-11T10:51:57Z</time></trkpt><trkpt lat="43.1563175347204" lon="11.400101660223957"><ele>294.0</ele><time>2026-04-11T10:51:59Z</time></trkpt><trkpt lat="43.15628378276003" lon="11.400210547456773"><ele>296.59999999999997</ele><time>2026-04-11T10:52:01Z</time></trkpt><trkpt lat="43.156258827906306" lon="11.400325836075858"><ele>299.2</ele><time>2026-04-11T10:52:03Z</time></trkpt><trkpt lat="43.156288803372924" lon="11.400458532665654"><ele>301.79999999999995</ele><time>2026-04-11T10:52:05Z</time></trkpt><trkpt lat="43.15631864199095" lon="11.400603169263176"><ele>304.4</ele><time>2026-04-11T10:52:07Z</time></trkpt><trkpt lat="43.15635870918278" lon="11.400677289380292"><ele>307.0</ele><time>2026-04-11T10:52:08Z</time></trkpt><trkpt lat="43.15642657201096" lon="11.400829477519544"><ele>307.16666666666663</ele><time>2026-04-11T10:52:10Z</time></trkpt><trkpt lat="43.15646321970167" lon="11.400915875968826"><ele>307.3333333333333</ele><time>2026-04-11T10:52:11Z</time></trkpt><trkpt lat="43.156508168242325" lon="11.401003876540155"><ele>307.5</ele><time>2026-04-11T10:52:12Z</time></trkpt><trkpt lat="43.15654378190401" lon="11.401087686636094"><ele>307.6666666666667</ele><time>2026-04-11T10:52:13Z</time></trkpt><trkpt lat="43.1565803574179" lon="11.401178054603722"><ele>307.83333333333337</ele><time>2026-04-11T10:52:14Z</time></trkpt><trkpt lat="43.156641015435305" lon="11.401279001517228"><ele>308.0</ele><time>2026-04-11T10:52:15Z</time></trkpt><trkpt lat="43.15666434181892" lon="11.401392687792075"><ele>304.1666666666667</ele><time>2026-04-11T10:52:15.999Z</time></trkpt><trkpt lat="43.1566907104842" lon="11.40150393273642"><ele>300.33333333333337</ele><time>2026-04-11T10:52:16.999Z</time></trkpt><trkpt lat="43.156699374784196" lon="11.401623559894212"><ele>296.5</ele><time>2026-04-11T10:52:17.999Z</time></trkpt><trkpt lat="43.15669294670214" lon="11.401740905256613"><ele>292.6666666666667</ele><time>2026-04-11T10:52:18.999Z</time></trkpt><trkpt lat="43.15667870984501" lon="11.401865897538503"><ele>288.8333333333333</ele><time>2026-04-11T10:52:19.999Z</time></trkpt><trkpt lat="43.15665850839545" lon="11.401983357501983"><ele>285.0</ele><time>2026-04-11T10:52:20.999Z</time></trkpt><trkpt lat="43.156636626216816" lon="11.402110287219964"><ele>284.6</ele><time>2026-04-11T10:52:21.999Z</time></trkpt><trkpt lat="43.15661681442416" lon="11.40222486559"><ele>284.2</ele><time>2026-04-11T10:52:22.999Z</time></trkpt><trkpt lat="43.15659559769629" lon="11.402347568896696"><ele>283.8</ele><time>2026-04-11T10:52:23.999Z</time></trkpt><trkpt lat="43.156574991173294" lon="11.4024667432849"><ele>283.4</ele><time>2026-04-11T10:52:24.999Z</time></trkpt><trkpt lat="43.15655311502056" lon="11.402593260285473"><ele>283.0</ele><time>2026-04-11T10:52:25.999Z</time></trkpt><trkpt lat="43.15653084159196" lon="11.402722075035886"><ele>286.0</ele><time>2026-04-11T10:52:26.999Z</time></trkpt><trkpt lat="43.156508114114516" lon="11.402853515630943"><ele>289.0</ele><time>2026-04-11T10:52:27.999Z</time></trkpt><trkpt lat="43.15648814145242" lon="11.402986418815692"><ele>292.0</ele><time>2026-04-11T10:52:28.999Z</time></trkpt><trkpt lat="43.15646867349237" lon="11.403119670880029"><ele>295.0</ele><time>2026-04-11T10:52:29.999Z</time></trkpt><trkpt lat="43.156469124832675" lon="11.40326210355688"><ele>298.0</ele><time>2026-04-11T10:52:30.999Z</time></trkpt><trkpt lat="43.15646289368707" lon="11.403403550044095"><ele>298.0</ele><time>2026-04-11T10:52:31.999Z</time></trkpt><trkpt lat="43.15645523936338" lon="11.403540833361179"><ele>298.0</ele><time>2026-04-11T10:52:32.999Z</time></trkpt><trkpt lat="43.15645223763247" lon="11.403674525158737"><ele>298.0</ele><time>2026-04-11T10:52:33.999Z</time></trkpt><trkpt lat="43.15645312956832" lon="11.403811535472071"><ele>298.0</ele><time>2026-04-11T10:52:34.999Z</time></trkpt><trkpt lat="43.15643472389124" lon="11.403940672204548"><ele>298.0</ele><time>2026-04-11T10:52:35.999Z</time></trkpt><trkpt lat="43.15638818112035" lon="11.404062760657032"><ele>297.0</ele><time>2026-04-11T10:52:36.999Z</time></trkpt><trkpt lat="43.156363067343804" lon="11.404172629754392"><ele>296.0</ele><time>2026-04-11T10:52:37.999Z</time></trkpt><trkpt lat="43.15632427336916" lon="11.404289230066253"><ele>295.0</ele><time>2026-04-11T10:52:38.999Z</time></trkpt><trkpt lat="43.15627048506992" lon="11.40438774528888"><ele>294.0</ele><time>2026-04-11T10:52:39.999Z</time></trkpt><trkpt lat="43.156212155802585" lon="11.404473818608704"><ele>293.0</ele><time>2026-04-11T10:52:40.999Z</time></trkpt><trkpt lat="43.15614630366274" lon="11.40455268799214"><ele>292.0</ele><time>2026-04-11T10:52:41.999Z</time></trkpt><trkpt lat="43.156090897892945" lon="11.404634285448541"><ele>290.8333333333333</ele><time>2026-04-11T10:52:42.999Z</time></trkpt><trkpt lat="43.15600752311807" lon="11.404682601091729"><ele>289.66666666666663</ele><time>2026-04-11T10:52:43.999Z</time></trkpt><trkpt lat="43.15593102022185" lon="11.404741476380337"><ele>288.5</ele><time>2026-04-11T10:52:44.999Z</time></trkpt><trkpt lat="43.15586261179242" lon="11.404790928396933"><ele>287.3333333333333</ele><time>2026-04-11T10:52:45.999Z</time></trkpt><trkpt lat="43.15578891215238" lon="11.40483537897593"><ele>286.1666666666667</ele><time>2026-04-11T10:52:46.999Z</time></trkpt><trkpt lat="43.155719563088944" lon="11.40487602203665"><ele>285.0</ele><time>2026-04-11T10:52:47.999Z</time></trkpt><trkpt lat="43.15564410425127" lon="11.404895300158813"><ele>285.0</ele><time>2026-04-11T10:52:48.999Z</time></trkpt><trkpt lat="43.15556795596558" lon="11.404896676493063"><ele>285.0</ele><time>2026-04-11T10:52:49.999Z</time></trkpt><trkpt lat="43.155493703166925" lon="11.404893425851489"><ele>285.0</ele><time>2026-04-11T10:52:50.999Z</time></trkpt><trkpt lat="43.155425914983454" lon="11.4048921489897"><ele>285.0</ele><time>2026-04-11T10:52:51.999Z</time></trkpt><trkpt lat="43.155358855147" lon="11.404904104395115"><ele>285.0</ele><time>2026-04-11T10:52:52.999Z</time></trkpt><trkpt lat="43.155288019376556" lon="11.404905572779347"><ele>285.0</ele><time>2026-04-11T10:52:54Z</time></trkpt><trkpt lat="43.15521699702349" lon="11.404921728024465"><ele>285.0</ele><time>2026-04-11T10:52:55Z</time></trkpt><trkpt lat="43.1551543341939" lon="11.404944579530154"><ele>285.0</ele><time>2026-04-11T10:52:56Z</time></trkpt><trkpt lat="43.15504249620812" lon="11.40498687487564"><ele>285.0</ele><time>2026-04-11T10:52:58Z</time></trkpt><trkpt lat="43.15493139995922" lon="11.405047590081464"><ele>285.0</ele><time>2026-04-11T10:53:00Z</time></trkpt><trkpt lat="43.15482913407948" lon="11.4050953803813"><ele>285.0</ele><time>2026-04-11T10:53:02Z</time></trkpt><trkpt lat="43.15472871445351" lon="11.405144900731022"><ele>286.8</ele><time>2026-04-11T10:53:04Z</time></trkpt><trkpt lat="43.15462839088412" lon="11.405194511468814"><ele>288.6</ele><time>2026-04-11T10:53:06Z</time></trkpt><trkpt lat="43.15453436434651" lon="11.4052386591753"><ele>290.4</ele><time>2026-04-11T10:53:08Z</time></trkpt><trkpt lat="43.15445155477531" lon="11.405281294386144"><ele>292.2</ele><time>2026-04-11T10:53:10Z</time></trkpt><trkpt lat="43.15437579733312" lon="11.405347338052911"><ele>294.0</ele><time>2026-04-11T10:53:12Z</time></trkpt><trkpt lat="43.15430494274013" lon="11.405413189771204"><ele>294.0</ele><time>2026-04-11T10:53:14Z</time></trkpt><trkpt lat="43.15423061094224" lon="11.405471162224458"><ele>294.0</ele><time>2026-04-11T10:53:16Z</time></trkpt><trkpt lat="43.15415716354389" lon="11.405528797714211"><ele>294.0</ele><time>2026-04-11T10:53:18Z</time></trkpt><trkpt lat="43.154079214153874" lon="11.405590276050567"><ele>294.0</ele><time>2026-04-11T10:53:20Z</time></trkpt><trkpt lat="43.1539926951281" lon="11.405625433136885"><ele>294.0</ele><time>2026-04-11T10:53:22Z</time></trkpt><trkpt lat="43.15390270718553" lon="11.40565411605923"><ele>294.0</ele><time>2026-04-11T10:53:24Z</time></trkpt><trkpt lat="43.15381402872532" lon="11.405666423412029"><ele>292.6666666666667</ele><time>2026-04-11T10:53:26Z</time></trkpt><trkpt lat="43.153729013831786" lon="11.405660415356289"><ele>291.3333333333333</ele><time>2026-04-11T10:53:28Z</time></trkpt><trkpt lat="43.153646759017214" lon="11.405655856473691"><ele>290.0</ele><time>2026-04-11T10:53:30Z</time></trkpt><trkpt lat="43.1535700240566" lon="11.405664606285923"><ele>288.66666666666663</ele><time>2026-04-11T10:53:32Z</time></trkpt><trkpt lat="43.15348601409689" lon="11.405681053220501"><ele>287.3333333333333</ele><time>2026-04-11T10:53:34Z</time></trkpt><trkpt lat="43.15340204349157" lon="11.405704328950971"><ele>286.0</ele><time>2026-04-11T10:53:36Z</time></trkpt><trkpt lat="43.15331313792237" lon="11.405735467426101"><ele>286.0</ele><time>2026-04-11T10:53:38Z</time></trkpt><trkpt lat="43.1532303706424" lon="11.405787964411445"><ele>286.0</ele><time>2026-04-11T10:53:40Z</time></trkpt><trkpt lat="43.15315271630485" lon="11.405860615837755"><ele>286.0</ele><time>2026-04-11T10:53:42Z</time></trkpt><trkpt lat="43.15308915016057" lon="11.405945957682276"><ele>286.0</ele><time>2026-04-11T10:53:44Z</time></trkpt><trkpt lat="43.153013640098656" lon="11.40601693737469"><ele>286.0</ele><time>2026-04-11T10:53:46Z</time></trkpt><trkpt lat="43.15293932545099" lon="11.406095778343497"><ele>285.40000000000003</ele><time>2026-04-11T10:53:48Z</time></trkpt><trkpt lat="43.152865459171615" lon="11.406173911978458"><ele>284.8</ele><time>2026-04-11T10:53:50Z</time></trkpt><trkpt lat="43.152785542003556" lon="11.406245958141607"><ele>284.20000000000005</ele><time>2026-04-11T10:53:52Z</time></trkpt><trkpt lat="43.15269041886381" lon="11.406336316115976"><ele>283.6</ele><time>2026-04-11T10:53:54Z</time></trkpt><trkpt lat="43.15260938022734" lon="11.406370129244811"><ele>283.0</ele><time>2026-04-11T10:53:56Z</time></trkpt><trkpt lat="43.15254230838671" lon="11.406399269059298"><ele>283.0</ele><time>2026-04-11T10:53:58Z</time></trkpt><trkpt lat="43.15245882964032" lon="11.406442156263521"><ele>283.0</ele><time>2026-04-11T10:54:00Z</time></trkpt><trkpt lat="43.15238354422054" lon="11.406473441757262"><ele>283.0</ele><time>2026-04-11T10:54:01Z</time></trkpt><trkpt lat="43.152292261428926" lon="11.406507216589983"><ele>283.0</ele><time>2026-04-11T10:54:03Z</time></trkpt><trkpt lat="43.15219567454202" lon="11.406533739654819"><ele>283.0</ele><time>2026-04-11T10:54:06Z</time></trkpt><trkpt lat="43.15212720266286" lon="11.406555722490578"><ele>283.0</ele><time>2026-04-11T10:54:07Z</time></trkpt><trkpt lat="43.1520633443726" lon="11.406573692469149"><ele>283.0</ele><time>2026-04-11T10:54:08Z</time></trkpt><trkpt lat="43.15194647704303" lon="11.406582549425934"><ele>283.0</ele><time>2026-04-11T10:54:10Z</time></trkpt><trkpt lat="43.15188313876718" lon="11.40659200062622"><ele>283.0</ele><time>2026-04-11T10:54:11Z</time></trkpt><trkpt lat="43.15181302318689" lon="11.406586606556752"><ele>283.0</ele><time>2026-04-11T10:54:12Z</time></trkpt><trkpt lat="43.15170635261821" lon="11.406613053205719"><ele>283.0</ele><time>2026-04-11T10:54:14Z</time></trkpt><trkpt lat="43.15163738175328" lon="11.406622893520087"><ele>283.0</ele><time>2026-04-11T10:54:15Z</time></trkpt><trkpt lat="43.15151587355832" lon="11.40663571425425"><ele>283.6</ele><time>2026-04-11T10:54:17Z</time></trkpt><trkpt lat="43.151450206372274" lon="11.406643678093857"><ele>284.20000000000005</ele><time>2026-04-11T10:54:18Z</time></trkpt><trkpt lat="43.1513510714666" lon="11.406681755849533"><ele>284.8</ele><time>2026-04-11T10:54:20Z</time></trkpt><trkpt lat="43.151234554163786" lon="11.40671229997077"><ele>285.40000000000003</ele><time>2026-04-11T10:54:22Z</time></trkpt><trkpt lat="43.15111428969527" lon="11.40674541393035"><ele>286.0</ele><time>2026-04-11T10:54:24Z</time></trkpt><trkpt lat="43.15099462234318" lon="11.40677509054216"><ele>286.0</ele><time>2026-04-11T10:54:26Z</time></trkpt><trkpt lat="43.1508721471788" lon="11.40678188202586"><ele>286.0</ele><time>2026-04-11T10:54:28Z</time></trkpt><trkpt lat="43.15074931396848" lon="11.40678736219952"><ele>286.0</ele><time>2026-04-11T10:54:29.999Z</time></trkpt><trkpt lat="43.1506216976315" lon="11.406766460195925"><ele>286.0</ele><time>2026-04-11T10:54:31.999Z</time></trkpt><trkpt lat="43.15055685538518" lon="11.406752028424282"><ele>286.0</ele><time>2026-04-11T10:54:32.999Z</time></trkpt><trkpt lat="43.15049052873235" lon="11.406734555275747"><ele>285.2857142857143</ele><time>2026-04-11T10:54:33.999Z</time></trkpt><trkpt lat="43.15042446919265" lon="11.406715311812926"><ele>284.57142857142856</ele><time>2026-04-11T10:54:34.999Z</time></trkpt><trkpt lat="43.150360080615656" lon="11.406693526864945"><ele>283.8571428571429</ele><time>2026-04-11T10:54:35.999Z</time></trkpt><trkpt lat="43.150294220466826" lon="11.40666901841628"><ele>283.1428571428571</ele><time>2026-04-11T10:54:36.999Z</time></trkpt><trkpt lat="43.150232239148934" lon="11.40663105886505"><ele>282.42857142857144</ele><time>2026-04-11T10:54:37.999Z</time></trkpt><trkpt lat="43.15017339478235" lon="11.406586793413371"><ele>281.7142857142857</ele><time>2026-04-11T10:54:38.999Z</time></trkpt><trkpt lat="43.150120609092085" lon="11.406537370165536"><ele>281.0</ele><time>2026-04-11T10:54:39.999Z</time></trkpt><trkpt lat="43.15007332696183" lon="11.406475679360284"><ele>281.0</ele><time>2026-04-11T10:54:40.999Z</time></trkpt><trkpt lat="43.15002840535953" lon="11.406413625162008"><ele>281.0</ele><time>2026-04-11T10:54:41.999Z</time></trkpt><trkpt lat="43.149942368426544" lon="11.406292217629858"><ele>281.0</ele><time>2026-04-11T10:54:43.999Z</time></trkpt><trkpt lat="43.1498355851133" lon="11.406208590849891"><ele>281.0</ele><time>2026-04-11T10:54:45.999Z</time></trkpt><trkpt lat="43.149715808049066" lon="11.406175836913516"><ele>281.0</ele><time>2026-04-11T10:54:47.999Z</time></trkpt><trkpt lat="43.14960048448365" lon="11.406188618090644"><ele>281.8</ele><time>2026-04-11T10:54:49.999Z</time></trkpt><trkpt lat="43.149497319488425" lon="11.406248417360892"><ele>282.6</ele><time>2026-04-11T10:54:51.999Z</time></trkpt><trkpt lat="43.14940971112983" lon="11.406328296737213"><ele>283.4</ele><time>2026-04-11T10:54:53.999Z</time></trkpt><trkpt lat="43.14935004914139" lon="11.40643198755796"><ele>284.2</ele><time>2026-04-11T10:54:55.999Z</time></trkpt><trkpt lat="43.14930211629006" lon="11.406524632231886"><ele>285.0</ele><time>2026-04-11T10:54:57.999Z</time></trkpt><trkpt lat="43.14923477699229" lon="11.40661093328942"><ele>285.0</ele><time>2026-04-11T10:55:00Z</time></trkpt><trkpt lat="43.14916155265673" lon="11.406666367347635"><ele>285.0</ele><time>2026-04-11T10:55:02Z</time></trkpt><trkpt lat="43.14907601937713" lon="11.406697258441227"><ele>285.0</ele><time>2026-04-11T10:55:04Z</time></trkpt><trkpt lat="43.14897464756443" lon="11.406725864401013"><ele>285.0</ele><time>2026-04-11T10:55:06Z</time></trkpt><trkpt lat="43.14886549022365" lon="11.406733148857008"><ele>285.0</ele><time>2026-04-11T10:55:08Z</time></trkpt><trkpt lat="43.14875305746447" lon="11.40674958892136"><ele>286.0</ele><time>2026-04-11T10:55:10Z</time></trkpt><trkpt lat="43.14864513885442" lon="11.406785572471215"><ele>287.0</ele><time>2026-04-11T10:55:12Z</time></trkpt><trkpt lat="43.148543830183904" lon="11.406856757712276"><ele>288.0</ele><time>2026-04-11T10:55:14Z</time></trkpt><trkpt lat="43.14844706575691" lon="11.40694658417485"><ele>289.0</ele><time>2026-04-11T10:55:16Z</time></trkpt><trkpt lat="43.148366935292294" lon="11.407061438538658"><ele>289.75</ele><time>2026-04-11T10:55:18Z</time></trkpt><trkpt lat="43.14830180134179" lon="11.407194992334752"><ele>290.5</ele><time>2026-04-11T10:55:20Z</time></trkpt><trkpt lat="43.14824222852284" lon="11.407330531915573"><ele>291.25</ele><time>2026-04-11T10:55:22Z</time></trkpt><trkpt lat="43.148170232701716" lon="11.407464178024036"><ele>292.0</ele><time>2026-04-11T10:55:24Z</time></trkpt><trkpt lat="43.148111628720144" lon="11.407598163538475"><ele>292.0</ele><time>2026-04-11T10:55:26Z</time></trkpt><trkpt lat="43.14803847644545" lon="11.407728286322852"><ele>292.0</ele><time>2026-04-11T10:55:28Z</time></trkpt><trkpt lat="43.148010518084206" lon="11.407811427896547"><ele>292.0</ele><time>2026-04-11T10:55:29Z</time></trkpt><trkpt lat="43.147975151041486" lon="11.40789237520832"><ele>292.0</ele><time>2026-04-11T10:55:30Z</time></trkpt><trkpt lat="43.14795151811547" lon="11.407982973895487"><ele>292.0</ele><time>2026-04-11T10:55:31Z</time></trkpt><trkpt lat="43.14792823882276" lon="11.408080066849585"><ele>292.0</ele><time>2026-04-11T10:55:32Z</time></trkpt><trkpt lat="43.147910406406446" lon="11.40818120100512"><ele>291.0</ele><time>2026-04-11T10:55:33Z</time></trkpt><trkpt lat="43.147899703254794" lon="11.408288321584328"><ele>290.0</ele><time>2026-04-11T10:55:34Z</time></trkpt><trkpt lat="43.14787752915581" lon="11.408393595469622"><ele>289.0</ele><time>2026-04-11T10:55:35Z</time></trkpt><trkpt lat="43.14786967374017" lon="11.408510731464785"><ele>288.0</ele><time>2026-04-11T10:55:36Z</time></trkpt><trkpt lat="43.14786468845075" lon="11.40863103572131"><ele>287.0</ele><time>2026-04-11T10:55:37Z</time></trkpt><trkpt lat="43.147852643125994" lon="11.40874793958921"><ele>286.0</ele><time>2026-04-11T10:55:38Z</time></trkpt><trkpt lat="43.1478383050663" lon="11.408869995854479"><ele>284.8</ele><time>2026-04-11T10:55:39Z</time></trkpt><trkpt lat="43.147820760070424" lon="11.408994643520906"><ele>283.6</ele><time>2026-04-11T10:55:40Z</time></trkpt><trkpt lat="43.14780356213641" lon="11.409126238605536"><ele>282.4</ele><time>2026-04-11T10:55:41Z</time></trkpt><trkpt lat="43.1477840984498" lon="11.40925888055297"><ele>281.2</ele><time>2026-04-11T10:55:42Z</time></trkpt><trkpt lat="43.147764557407704" lon="11.40939317684841"><ele>280.0</ele><time>2026-04-11T10:55:43Z</time></trkpt><trkpt lat="43.1477439162096" lon="11.409525306309408"><ele>278.6</ele><time>2026-04-11T10:55:44Z</time></trkpt><trkpt lat="43.147724300281254" lon="11.409663868284373"><ele>277.2</ele><time>2026-04-11T10:55:45Z</time></trkpt><trkpt lat="43.147701619149586" lon="11.409800903159363"><ele>275.8</ele><time>2026-04-11T10:55:46Z</time></trkpt><trkpt lat="43.14767486227191" lon="11.409932222586862"><ele>274.4</ele><time>2026-04-11T10:55:47Z</time></trkpt><trkpt lat="43.147641827586106" lon="11.410059799765218"><ele>273.0</ele><time>2026-04-11T10:55:48Z</time></trkpt><trkpt lat="43.147602489761894" lon="11.41018517299123"><ele>273.0</ele><time>2026-04-11T10:55:49Z</time></trkpt><trkpt lat="43.147540214745234" lon="11.410293301629666"><ele>273.0</ele><time>2026-04-11T10:55:50Z</time></trkpt><trkpt lat="43.14746401000692" lon="11.410381356088395"><ele>273.0</ele><time>2026-04-11T10:55:51Z</time></trkpt><trkpt lat="43.1473754128199" lon="11.410484518128525"><ele>273.0</ele><time>2026-04-11T10:55:52Z</time></trkpt><trkpt lat="43.147286649940455" lon="11.410565254086338"><ele>273.0</ele><time>2026-04-11T10:55:53Z</time></trkpt><trkpt lat="43.14719272876836" lon="11.41062380812654"><ele>271.6</ele><time>2026-04-11T10:55:54Z</time></trkpt><trkpt lat="43.1470974224102" lon="11.410674126409702"><ele>270.20000000000005</ele><time>2026-04-11T10:55:55Z</time></trkpt><trkpt lat="43.14700072642524" lon="11.410727956120288"><ele>268.8</ele><time>2026-04-11T10:55:56Z</time></trkpt><trkpt lat="43.146914003734004" lon="11.41079056783973"><ele>267.40000000000003</ele><time>2026-04-11T10:55:57Z</time></trkpt><trkpt lat="43.14682825830597" lon="11.410869853184607"><ele>266.0</ele><time>2026-04-11T10:55:58Z</time></trkpt><trkpt lat="43.14673698394544" lon="11.410956186727141"><ele>266.0</ele><time>2026-04-11T10:55:59Z</time></trkpt><trkpt lat="43.14665479979045" lon="11.411043863008159"><ele>266.0</ele><time>2026-04-11T10:56:00Z</time></trkpt><trkpt lat="43.14658792687737" lon="11.41114839536248"><ele>266.0</ele><time>2026-04-11T10:56:01Z</time></trkpt><trkpt lat="43.14652601332236" lon="11.411254617541173"><ele>266.0</ele><time>2026-04-11T10:56:02Z</time></trkpt><trkpt lat="43.146467362557" lon="11.411359168906731"><ele>266.0</ele><time>2026-04-11T10:56:03Z</time></trkpt><trkpt lat="43.146387510200505" lon="11.411477791004229"><ele>265.0</ele><time>2026-04-11T10:56:04Z</time></trkpt><trkpt lat="43.14633018541954" lon="11.41158196426482"><ele>264.0</ele><time>2026-04-11T10:56:05Z</time></trkpt><trkpt lat="43.14627327626858" lon="11.411692363960881"><ele>263.0</ele><time>2026-04-11T10:56:06Z</time></trkpt><trkpt lat="43.14621465082534" lon="11.411804952158231"><ele>262.0</ele><time>2026-04-11T10:56:07Z</time></trkpt><trkpt lat="43.14614679502176" lon="11.411916259559941"><ele>261.0</ele><time>2026-04-11T10:56:08Z</time></trkpt><trkpt lat="43.146080324554575" lon="11.412026981293277"><ele>261.0</ele><time>2026-04-11T10:56:09Z</time></trkpt><trkpt lat="43.14602592291998" lon="11.412152288479687"><ele>261.0</ele><time>2026-04-11T10:56:10Z</time></trkpt><trkpt lat="43.14597544307422" lon="11.412284427773576"><ele>261.0</ele><time>2026-04-11T10:56:11Z</time></trkpt><trkpt lat="43.14593283399931" lon="11.412417996477515"><ele>261.0</ele><time>2026-04-11T10:56:12Z</time></trkpt><trkpt lat="43.145900444453396" lon="11.412561712385175"><ele>261.0</ele><time>2026-04-11T10:56:13Z</time></trkpt><trkpt lat="43.14587244896476" lon="11.412701332180655"><ele>259.40000000000003</ele><time>2026-04-11T10:56:14Z</time></trkpt><trkpt lat="43.145850881601085" lon="11.412840034421533"><ele>257.8</ele><time>2026-04-11T10:56:15Z</time></trkpt><trkpt lat="43.145818020128175" lon="11.412978593511527"><ele>256.20000000000005</ele><time>2026-04-11T10:56:16Z</time></trkpt><trkpt lat="43.145782322434854" lon="11.41311347270859"><ele>254.60000000000002</ele><time>2026-04-11T10:56:17Z</time></trkpt><trkpt lat="43.145736332340526" lon="11.413247334619696"><ele>253.0</ele><time>2026-04-11T10:56:18Z</time></trkpt><trkpt lat="43.14568133577813" lon="11.413368721974345"><ele>251.60000000000002</ele><time>2026-04-11T10:56:19Z</time></trkpt><trkpt lat="43.14562199621113" lon="11.413492013247218"><ele>250.20000000000002</ele><time>2026-04-11T10:56:20Z</time></trkpt><trkpt lat="43.14555779315274" lon="11.41360400417177"><ele>248.8</ele><time>2026-04-11T10:56:21Z</time></trkpt><trkpt lat="43.145477037995015" lon="11.413703401397314"><ele>247.4</ele><time>2026-04-11T10:56:22Z</time></trkpt><trkpt lat="43.14539803340229" lon="11.41379510092053"><ele>246.0</ele><time>2026-04-11T10:56:23Z</time></trkpt><trkpt lat="43.145336549000405" lon="11.413900950580611"><ele>245.20000000000002</ele><time>2026-04-11T10:56:23.999Z</time></trkpt><trkpt lat="43.145280038186634" lon="11.414008835721837"><ele>244.40000000000003</ele><time>2026-04-11T10:56:24.999Z</time></trkpt><trkpt lat="43.14524180732352" lon="11.41412077887153"><ele>243.6</ele><time>2026-04-11T10:56:25.999Z</time></trkpt><trkpt lat="43.1452202929024" lon="11.41424103905424"><ele>242.8</ele><time>2026-04-11T10:56:26.999Z</time></trkpt><trkpt lat="43.14520942092434" lon="11.414371233193114"><ele>242.0</ele><time>2026-04-11T10:56:27.999Z</time></trkpt><trkpt lat="43.14521112817635" lon="11.414504317605731"><ele>242.0</ele><time>2026-04-11T10:56:28.999Z</time></trkpt><trkpt lat="43.145221816504744" lon="11.414643702134661"><ele>242.0</ele><time>2026-04-11T10:56:29.999Z</time></trkpt><trkpt lat="43.14528296791627" lon="11.41477592712215"><ele>242.0</ele><time>2026-04-11T10:56:30.999Z</time></trkpt><trkpt lat="43.14534732396624" lon="11.414889294115756"><ele>242.0</ele><time>2026-04-11T10:56:31.999Z</time></trkpt><trkpt lat="43.14541449428885" lon="11.414995740092586"><ele>242.0</ele><time>2026-04-11T10:56:32.999Z</time></trkpt><trkpt lat="43.14548732017129" lon="11.41510395623247"><ele>241.39999999999998</ele><time>2026-04-11T10:56:33.999Z</time></trkpt><trkpt lat="43.145558396867465" lon="11.415209657099815"><ele>240.79999999999998</ele><time>2026-04-11T10:56:34.999Z</time></trkpt><trkpt lat="43.14562299776309" lon="11.415325007792529"><ele>240.2</ele><time>2026-04-11T10:56:35.999Z</time></trkpt><trkpt lat="43.14567925173345" lon="11.415443114960473"><ele>239.6</ele><time>2026-04-11T10:56:36.999Z</time></trkpt><trkpt lat="43.14572069141402" lon="11.415567966788963"><ele>239.0</ele><time>2026-04-11T10:56:37.999Z</time></trkpt><trkpt lat="43.145755269675945" lon="11.415709846095309"><ele>239.0</ele><time>2026-04-11T10:56:38.999Z</time></trkpt><trkpt lat="43.14578380527709" lon="11.415841897939808"><ele>238.99999999999997</ele><time>2026-04-11T10:56:39.999Z</time></trkpt><trkpt lat="43.14577614092507" lon="11.415994276939667"><ele>238.99999999999997</ele><time>2026-04-11T10:56:40.999Z</time></trkpt><trkpt lat="43.14576461177487" lon="11.416144619482811"><ele>239.0</ele><time>2026-04-11T10:56:41.999Z</time></trkpt><trkpt lat="43.145761418839626" lon="11.416295177730815"><ele>239.0</ele><time>2026-04-11T10:56:42.999Z</time></trkpt><trkpt lat="43.14573981459223" lon="11.416444665886218"><ele>238.25</ele><time>2026-04-11T10:56:43.999Z</time></trkpt><trkpt lat="43.14572895929762" lon="11.416599467397775"><ele>237.5</ele><time>2026-04-11T10:56:44.999Z</time></trkpt><trkpt lat="43.14571097810003" lon="11.416755915584043"><ele>236.75</ele><time>2026-04-11T10:56:45.999Z</time></trkpt><trkpt lat="43.14568727390829" lon="11.41691076965102"><ele>236.0</ele><time>2026-04-11T10:56:46.999Z</time></trkpt><trkpt lat="43.14565884306155" lon="11.41706556057905"><ele>231.25</ele><time>2026-04-11T10:56:47.999Z</time></trkpt><trkpt lat="43.14563535778582" lon="11.417222111490124"><ele>226.5</ele><time>2026-04-11T10:56:48.999Z</time></trkpt><trkpt lat="43.145599772010726" lon="11.417382044304341"><ele>221.75</ele><time>2026-04-11T10:56:49.999Z</time></trkpt><trkpt lat="43.14554688029436" lon="11.41752730485238"><ele>217.0</ele><time>2026-04-11T10:56:50.999Z</time></trkpt><trkpt lat="43.14550050101984" lon="11.417671414649668"><ele>217.0</ele><time>2026-04-11T10:56:51.999Z</time></trkpt><trkpt lat="43.14544787451076" lon="11.417821246855484"><ele>217.0</ele><time>2026-04-11T10:56:52.999Z</time></trkpt><trkpt lat="43.145413235141326" lon="11.417975680746627"><ele>217.0</ele><time>2026-04-11T10:56:53.999Z</time></trkpt><trkpt lat="43.145382619190784" lon="11.41812470190584"><ele>217.0</ele><time>2026-04-11T10:56:54.999Z</time></trkpt><trkpt lat="43.14535143811868" lon="11.41828182739883"><ele>216.25</ele><time>2026-04-11T10:56:55.999Z</time></trkpt><trkpt lat="43.14534179971177" lon="11.41844548026888"><ele>215.5</ele><time>2026-04-11T10:56:56.999Z</time></trkpt><trkpt lat="43.14533936866993" lon="11.418607109010322"><ele>214.75</ele><time>2026-04-11T10:56:57.999Z</time></trkpt><trkpt lat="43.14534400102948" lon="11.418770914276571"><ele>214.0</ele><time>2026-04-11T10:56:58.999Z</time></trkpt><trkpt lat="43.14533916208612" lon="11.418932125842161"><ele>213.75</ele><time>2026-04-11T10:56:59.999Z</time></trkpt><trkpt lat="43.14533379946207" lon="11.419089970480215"><ele>213.5</ele><time>2026-04-11T10:57:00.999Z</time></trkpt><trkpt lat="43.14532406289524" lon="11.419248422172405"><ele>213.25</ele><time>2026-04-11T10:57:01.999Z</time></trkpt><trkpt lat="43.145300009927034" lon="11.419406323521"><ele>213.0</ele><time>2026-04-11T10:57:02.999Z</time></trkpt><trkpt lat="43.14525037247797" lon="11.419553278295584"><ele>212.4</ele><time>2026-04-11T10:57:03.999Z</time></trkpt><trkpt lat="43.145223978072735" lon="11.41970921928535"><ele>211.8</ele><time>2026-04-11T10:57:04.999Z</time></trkpt><trkpt lat="43.14518438383368" lon="11.419857631852791"><ele>211.2</ele><time>2026-04-11T10:57:06Z</time></trkpt><trkpt lat="43.145156639540645" lon="11.420000697867966"><ele>210.6</ele><time>2026-04-11T10:57:07Z</time></trkpt><trkpt lat="43.14513989767434" lon="11.420146441743558"><ele>210.0</ele><time>2026-04-11T10:57:08Z</time></trkpt><trkpt lat="43.1451381911989" lon="11.42029534986286"><ele>210.0</ele><time>2026-04-11T10:57:09Z</time></trkpt><trkpt lat="43.14514571562757" lon="11.420441620187466"><ele>210.0</ele><time>2026-04-11T10:57:10Z</time></trkpt><trkpt lat="43.14515198987285" lon="11.420580233884401"><ele>210.0</ele><time>2026-04-11T10:57:11Z</time></trkpt><trkpt lat="43.145148314096595" lon="11.42071054663903"><ele>210.0</ele><time>2026-04-11T10:57:12Z</time></trkpt><trkpt lat="43.14515024430024" lon="11.42082866988705"><ele>210.0</ele><time>2026-04-11T10:57:13Z</time></trkpt><trkpt lat="43.1451542955591" lon="11.420945286413783"><ele>209.5</ele><time>2026-04-11T10:57:14Z</time></trkpt><trkpt lat="43.14512741144624" lon="11.421068708778089"><ele>209.0</ele><time>2026-04-11T10:57:15Z</time></trkpt><trkpt lat="43.14511593038818" lon="11.421170486357598"><ele>208.5</ele><time>2026-04-11T10:57:16Z</time></trkpt><trkpt lat="43.14518270806425" lon="11.421276024839816"><ele>208.0</ele><time>2026-04-11T10:57:17Z</time></trkpt><trkpt lat="43.14521508786931" lon="11.42138106562221"><ele>207.5</ele><time>2026-04-11T10:57:19Z</time></trkpt><trkpt lat="43.14524402460887" lon="11.421490784041548"><ele>207.0</ele><time>2026-04-11T10:57:21Z</time></trkpt><trkpt lat="43.145280430573784" lon="11.421609731686369"><ele>206.8</ele><time>2026-04-11T10:57:23Z</time></trkpt><trkpt lat="43.14531969375451" lon="11.4217128417715"><ele>206.6</ele><time>2026-04-11T10:57:25Z</time></trkpt><trkpt lat="43.145350564929366" lon="11.421794261740962"><ele>206.4</ele><time>2026-04-11T10:57:27Z</time></trkpt><trkpt lat="43.145340320931176" lon="11.421893850272165"><ele>206.20000000000002</ele><time>2026-04-11T10:57:41Z</time></trkpt><trkpt lat="43.1452526069975" lon="11.422021297282107"><ele>206.0</ele><time>2026-04-11T10:57:56Z</time></trkpt><trkpt lat="43.14522930534907" lon="11.422164520734036"><ele>205.99999999999997</ele><time>2026-04-11T11:08:33Z</time></trkpt><trkpt lat="43.145242506663415" lon="11.422078052796321"><ele>206.0</ele><time>2026-04-11T11:18:39Z</time></trkpt><trkpt lat="43.145261243786074" lon="11.421993182830413"><ele>206.0</ele><time>2026-04-11T11:18:53Z</time></trkpt><trkpt lat="43.1453056497592" lon="11.421929623556348"><ele>206.0</ele><time>2026-04-11T11:18:56Z</time></trkpt><trkpt lat="43.14539093510181" lon="11.421921978263885"><ele>206.0</ele><time>2026-04-11T11:19:00Z</time></trkpt><trkpt lat="43.14543476420796" lon="11.42200653730805"><ele>205.99999999999997</ele><time>2026-04-11T11:19:03Z</time></trkpt><trkpt lat="43.14546685385722" lon="11.422084638880678"><ele>206.0</ele><time>2026-04-11T11:19:06Z</time></trkpt><trkpt lat="43.145496862882204" lon="11.422194674615563"><ele>206.60000000000002</ele><time>2026-04-11T11:19:09Z</time></trkpt><trkpt lat="43.145527074447486" lon="11.42228294634226"><ele>207.2</ele><time>2026-04-11T11:19:11Z</time></trkpt><trkpt lat="43.14556700404834" lon="11.422388127274552"><ele>207.8</ele><time>2026-04-11T11:19:13Z</time></trkpt><trkpt lat="43.14560699527758" lon="11.422504220492083"><ele>208.39999999999998</ele><time>2026-04-11T11:19:15Z</time></trkpt><trkpt lat="43.14563958240852" lon="11.422629923445049"><ele>209.0</ele><time>2026-04-11T11:19:17Z</time></trkpt><trkpt lat="43.14569245482826" lon="11.422752709093269"><ele>208.6</ele><time>2026-04-11T11:19:19Z</time></trkpt><trkpt lat="43.1457421289544" lon="11.422879860544702"><ele>208.2</ele><time>2026-04-11T11:19:21Z</time></trkpt><trkpt lat="43.145780699671015" lon="11.42301893455191"><ele>207.79999999999998</ele><time>2026-04-11T11:19:23Z</time></trkpt><trkpt lat="43.14583217360774" lon="11.423160126633883"><ele>207.39999999999998</ele><time>2026-04-11T11:19:25Z</time></trkpt><trkpt lat="43.14587814346972" lon="11.42330420309869"><ele>207.0</ele><time>2026-04-11T11:19:27Z</time></trkpt><trkpt lat="43.145904501406214" lon="11.423457641840258"><ele>207.0</ele><time>2026-04-11T11:19:29Z</time></trkpt><trkpt lat="43.145937646773994" lon="11.423607145403716"><ele>207.0</ele><time>2026-04-11T11:19:31Z</time></trkpt><trkpt lat="43.14595432646195" lon="11.42376480896913"><ele>207.0</ele><time>2026-04-11T11:19:33Z</time></trkpt><trkpt lat="43.14595027427327" lon="11.423923555488516"><ele>207.0</ele><time>2026-04-11T11:19:34.999Z</time></trkpt><trkpt lat="43.1459242898146" lon="11.424076696904955"><ele>206.75</ele><time>2026-04-11T11:19:36.999Z</time></trkpt><trkpt lat="43.14587509045608" lon="11.42422432648585"><ele>206.5</ele><time>2026-04-11T11:19:38.999Z</time></trkpt><trkpt lat="43.145816852870745" lon="11.424368657480983"><ele>206.25</ele><time>2026-04-11T11:19:40.999Z</time></trkpt><trkpt lat="43.14574931450479" lon="11.424508394076547"><ele>206.0</ele><time>2026-04-11T11:19:42.999Z</time></trkpt><trkpt lat="43.145672555065694" lon="11.424646938650218"><ele>208.33333333333334</ele><time>2026-04-11T11:19:44.999Z</time></trkpt><trkpt lat="43.145633607087376" lon="11.424716236531596"><ele>210.66666666666669</ele><time>2026-04-11T11:19:45.999Z</time></trkpt><trkpt lat="43.14560760808965" lon="11.424798599315848"><ele>213.0</ele><time>2026-04-11T11:19:46.999Z</time></trkpt><trkpt lat="43.14554022753496" lon="11.424938851071627"><ele>215.33333333333331</ele><time>2026-04-11T11:19:48.999Z</time></trkpt><trkpt lat="43.1455343200896" lon="11.425028960783756"><ele>217.66666666666666</ele><time>2026-04-11T11:19:49.999Z</time></trkpt><trkpt lat="43.145541837247805" lon="11.425120609561986"><ele>220.0</ele><time>2026-04-11T11:19:50.999Z</time></trkpt><trkpt lat="43.14557042062936" lon="11.42520362772947"><ele>220.0</ele><time>2026-04-11T11:19:51.999Z</time></trkpt><trkpt lat="43.145618115266224" lon="11.425268047642575"><ele>220.0</ele><time>2026-04-11T11:19:52.999Z</time></trkpt><trkpt lat="43.145675348502856" lon="11.42531244104802"><ele>220.0</ele><time>2026-04-11T11:19:53.999Z</time></trkpt><trkpt lat="43.14578636901609" lon="11.425371067847445"><ele>220.0</ele><time>2026-04-11T11:19:55.999Z</time></trkpt><trkpt lat="43.14589807715905" lon="11.425437840176748"><ele>220.0</ele><time>2026-04-11T11:19:57.999Z</time></trkpt><trkpt lat="43.14601419999835" lon="11.425511069130991"><ele>218.83333333333331</ele><time>2026-04-11T11:19:59.999Z</time></trkpt><trkpt lat="43.14612725244721" lon="11.425599032781367"><ele>217.66666666666666</ele><time>2026-04-11T11:20:01.999Z</time></trkpt><trkpt lat="43.146183179342856" lon="11.42565858877078"><ele>216.5</ele><time>2026-04-11T11:20:02.999Z</time></trkpt><trkpt lat="43.14621540349626" lon="11.425736014763991"><ele>215.33333333333331</ele><time>2026-04-11T11:20:03.999Z</time></trkpt><trkpt lat="43.1462692802119" lon="11.425785165160661"><ele>214.16666666666666</ele><time>2026-04-11T11:20:04.999Z</time></trkpt><trkpt lat="43.14631632611899" lon="11.425852492815785"><ele>213.0</ele><time>2026-04-11T11:20:05.999Z</time></trkpt><trkpt lat="43.14636882592937" lon="11.425909157919772"><ele>213.0</ele><time>2026-04-11T11:20:06.999Z</time></trkpt><trkpt lat="43.146424422735215" lon="11.42596435039098"><ele>213.0</ele><time>2026-04-11T11:20:07.999Z</time></trkpt><trkpt lat="43.14652728376711" lon="11.426066942749049"><ele>213.0</ele><time>2026-04-11T11:20:09.999Z</time></trkpt><trkpt lat="43.14662791310796" lon="11.426166817658915"><ele>213.0</ele><time>2026-04-11T11:20:12Z</time></trkpt><trkpt lat="43.14673127675129" lon="11.426263600475163"><ele>213.0</ele><time>2026-04-11T11:20:14Z</time></trkpt><trkpt lat="43.14683283154671" lon="11.42633781961871"><ele>212.75</ele><time>2026-04-11T11:20:16Z</time></trkpt><trkpt lat="43.14693571911144" lon="11.426403032845913"><ele>212.5</ele><time>2026-04-11T11:20:18Z</time></trkpt><trkpt lat="43.14703228284677" lon="11.426483419682315"><ele>212.25</ele><time>2026-04-11T11:20:20Z</time></trkpt><trkpt lat="43.147124857506185" lon="11.42655809928788"><ele>212.0</ele><time>2026-04-11T11:20:22Z</time></trkpt><trkpt lat="43.14720853472464" lon="11.426681321390529"><ele>212.00000000000003</ele><time>2026-04-11T11:20:24Z</time></trkpt><trkpt lat="43.14729649343984" lon="11.42679640485284"><ele>212.0</ele><time>2026-04-11T11:20:26Z</time></trkpt><trkpt lat="43.14734415962368" lon="11.426856963652826"><ele>212.0</ele><time>2026-04-11T11:20:27Z</time></trkpt><trkpt lat="43.14740213030374" lon="11.42689710092596"><ele>212.0</ele><time>2026-04-11T11:20:28Z</time></trkpt><trkpt lat="43.14744946697407" lon="11.426956175374759"><ele>212.00000000000003</ele><time>2026-04-11T11:20:29Z</time></trkpt><trkpt lat="43.147497312602944" lon="11.427015762008976"><ele>212.0</ele><time>2026-04-11T11:20:30Z</time></trkpt><trkpt lat="43.14760347438912" lon="11.427111867534567"><ele>211.33333333333334</ele><time>2026-04-11T11:20:32Z</time></trkpt><trkpt lat="43.147666364833775" lon="11.427153301136729"><ele>210.66666666666669</ele><time>2026-04-11T11:20:33Z</time></trkpt><trkpt lat="43.14772975923977" lon="11.42718386331842"><ele>210.0</ele><time>2026-04-11T11:20:34Z</time></trkpt><trkpt lat="43.14779680898515" lon="11.427211365410743"><ele>209.33333333333331</ele><time>2026-04-11T11:20:35Z</time></trkpt><trkpt lat="43.14792236506994" lon="11.427234613950287"><ele>208.66666666666666</ele><time>2026-04-11T11:20:37Z</time></trkpt><trkpt lat="43.14798784502627" lon="11.42724573603"><ele>208.0</ele><time>2026-04-11T11:20:38Z</time></trkpt><trkpt lat="43.14805250079836" lon="11.427261478458483"><ele>208.0</ele><time>2026-04-11T11:20:39Z</time></trkpt><trkpt lat="43.14816371363281" lon="11.42731983196774"><ele>208.0</ele><time>2026-04-11T11:20:41Z</time></trkpt><trkpt lat="43.14823342778471" lon="11.427352955748326"><ele>208.0</ele><time>2026-04-11T11:20:42Z</time></trkpt><trkpt lat="43.14836045779614" lon="11.427403237265738"><ele>208.0</ele><time>2026-04-11T11:20:44Z</time></trkpt><trkpt lat="43.14842580151019" lon="11.427434554548507"><ele>208.0</ele><time>2026-04-11T11:20:45Z</time></trkpt><trkpt lat="43.14849595424912" lon="11.427467950898244"><ele>207.57142857142856</ele><time>2026-04-11T11:20:46Z</time></trkpt><trkpt lat="43.148565801494335" lon="11.42752326682747"><ele>207.14285714285717</ele><time>2026-04-11T11:20:47Z</time></trkpt><trkpt lat="43.1486371417614" lon="11.427550714380464"><ele>206.71428571428572</ele><time>2026-04-11T11:20:48Z</time></trkpt><trkpt lat="43.148704958234696" lon="11.42759010798961"><ele>206.28571428571428</ele><time>2026-04-11T11:20:49Z</time></trkpt><trkpt lat="43.14877657660639" lon="11.427612687826125"><ele>205.85714285714283</ele><time>2026-04-11T11:20:50Z</time></trkpt><trkpt lat="43.148841242482035" lon="11.427662080466936"><ele>205.42857142857144</ele><time>2026-04-11T11:20:51Z</time></trkpt><trkpt lat="43.14891176248952" lon="11.427688579949482"><ele>205.0</ele><time>2026-04-11T11:20:52Z</time></trkpt><trkpt lat="43.14899695511602" lon="11.427728783387353"><ele>204.83333333333331</ele><time>2026-04-11T11:20:53Z</time></trkpt><trkpt lat="43.14906830403457" lon="11.42777170611497"><ele>204.66666666666666</ele><time>2026-04-11T11:20:54Z</time></trkpt><trkpt lat="43.149141334000866" lon="11.427827415322422"><ele>204.5</ele><time>2026-04-11T11:20:55Z</time></trkpt><trkpt lat="43.149226950674894" lon="11.427873279296902"><ele>204.33333333333331</ele><time>2026-04-11T11:20:56Z</time></trkpt><trkpt lat="43.14928989210449" lon="11.427926375154827"><ele>204.16666666666666</ele><time>2026-04-11T11:20:57Z</time></trkpt><trkpt lat="43.14936101848587" lon="11.427987758752566"><ele>204.0</ele><time>2026-04-11T11:20:58Z</time></trkpt><trkpt lat="43.14941127274255" lon="11.428074677587503"><ele>202.33333333333334</ele><time>2026-04-11T11:20:59Z</time></trkpt><trkpt lat="43.14947955188167" lon="11.428138350436095"><ele>200.66666666666669</ele><time>2026-04-11T11:21:00Z</time></trkpt><trkpt lat="43.14953780028307" lon="11.428228827349146"><ele>199.0</ele><time>2026-04-11T11:21:01Z</time></trkpt><trkpt lat="43.14961525991416" lon="11.428284006707463"><ele>197.33333333333334</ele><time>2026-04-11T11:21:02Z</time></trkpt><trkpt lat="43.14967740436868" lon="11.428365200213111"><ele>195.66666666666669</ele><time>2026-04-11T11:21:03Z</time></trkpt><trkpt lat="43.14975180660869" lon="11.428429078468772"><ele>194.0</ele><time>2026-04-11T11:21:04Z</time></trkpt><trkpt lat="43.14982707725011" lon="11.428502287859526"><ele>194.66666666666669</ele><time>2026-04-11T11:21:05Z</time></trkpt><trkpt lat="43.14988954019139" lon="11.428587788338923"><ele>195.33333333333334</ele><time>2026-04-11T11:21:06Z</time></trkpt><trkpt lat="43.149962618970825" lon="11.428644232684638"><ele>196.0</ele><time>2026-04-11T11:21:07Z</time></trkpt><trkpt lat="43.15002836326498" lon="11.42871418897636"><ele>196.66666666666669</ele><time>2026-04-11T11:21:08Z</time></trkpt><trkpt lat="43.15008632946031" lon="11.428800333273571"><ele>197.33333333333334</ele><time>2026-04-11T11:21:09Z</time></trkpt><trkpt lat="43.15012126304934" lon="11.428908052863097"><ele>198.0</ele><time>2026-04-11T11:21:10Z</time></trkpt><trkpt lat="43.15016937379395" lon="11.429017014196582"><ele>196.5</ele><time>2026-04-11T11:21:11Z</time></trkpt><trkpt lat="43.1502357072774" lon="11.42910375948778"><ele>195.0</ele><time>2026-04-11T11:21:12Z</time></trkpt><trkpt lat="43.15028465300334" lon="11.429203135595445"><ele>193.5</ele><time>2026-04-11T11:21:13Z</time></trkpt><trkpt lat="43.150346100746255" lon="11.429291769949215"><ele>192.0</ele><time>2026-04-11T11:21:14Z</time></trkpt><trkpt lat="43.15040880071037" lon="11.429376488269279"><ele>190.5</ele><time>2026-04-11T11:21:15Z</time></trkpt><trkpt lat="43.15046648738547" lon="11.42946777237243"><ele>189.0</ele><time>2026-04-11T11:21:16Z</time></trkpt><trkpt lat="43.15053202814852" lon="11.429546906260164"><ele>189.0</ele><time>2026-04-11T11:21:17Z</time></trkpt><trkpt lat="43.15059210873356" lon="11.429629910766147"><ele>189.0</ele><time>2026-04-11T11:21:18Z</time></trkpt><trkpt lat="43.15065416264492" lon="11.429698024343754"><ele>189.0</ele><time>2026-04-11T11:21:19Z</time></trkpt><trkpt lat="43.15071073330754" lon="11.429760660818054"><ele>189.0</ele><time>2026-04-11T11:21:20Z</time></trkpt><trkpt lat="43.15077746876382" lon="11.42981933848186"><ele>189.0</ele><time>2026-04-11T11:21:21Z</time></trkpt><trkpt lat="43.150850471910005" lon="11.42987955006341"><ele>189.0</ele><time>2026-04-11T11:21:22Z</time></trkpt><trkpt lat="43.15091548684777" lon="11.42995031721147"><ele>189.16666666666666</ele><time>2026-04-11T11:21:23Z</time></trkpt><trkpt lat="43.150984215748124" lon="11.43000910351261"><ele>189.33333333333334</ele><time>2026-04-11T11:21:24Z</time></trkpt><trkpt lat="43.151046492089314" lon="11.4300908081025"><ele>189.5</ele><time>2026-04-11T11:21:25Z</time></trkpt><trkpt lat="43.151095784873675" lon="11.43019461487147"><ele>189.66666666666669</ele><time>2026-04-11T11:21:26Z</time></trkpt><trkpt lat="43.151131003822954" lon="11.4303095820995"><ele>189.83333333333334</ele><time>2026-04-11T11:21:27Z</time></trkpt><trkpt lat="43.1511365675365" lon="11.43042232962448"><ele>190.0</ele><time>2026-04-11T11:21:28Z</time></trkpt><trkpt lat="43.1511332481785" lon="11.430539329874978"><ele>188.83333333333334</ele><time>2026-04-11T11:21:29Z</time></trkpt><trkpt lat="43.151124816623295" lon="11.430655898190912"><ele>187.66666666666669</ele><time>2026-04-11T11:21:30Z</time></trkpt><trkpt lat="43.15111551533214" lon="11.430772350375017"><ele>186.5</ele><time>2026-04-11T11:21:31Z</time></trkpt><trkpt lat="43.151105980006" lon="11.430892954210204"><ele>185.33333333333334</ele><time>2026-04-11T11:21:32Z</time></trkpt><trkpt lat="43.151096966700145" lon="11.431017301088337"><ele>184.16666666666666</ele><time>2026-04-11T11:21:33Z</time></trkpt><trkpt lat="43.15108797166151" lon="11.431141395877505"><ele>183.0</ele><time>2026-04-11T11:21:34Z</time></trkpt><trkpt lat="43.15108531511884" lon="11.431267204857951"><ele>181.8</ele><time>2026-04-11T11:21:35Z</time></trkpt><trkpt lat="43.15108402933749" lon="11.43139379196775"><ele>180.60000000000002</ele><time>2026-04-11T11:21:36Z</time></trkpt><trkpt lat="43.15107987974832" lon="11.431522576992284"><ele>179.39999999999998</ele><time>2026-04-11T11:21:37Z</time></trkpt><trkpt lat="43.15108635670633" lon="11.431648067056342"><ele>178.2</ele><time>2026-04-11T11:21:38Z</time></trkpt><trkpt lat="43.15110386914766" lon="11.43177220517301"><ele>177.0</ele><time>2026-04-11T11:21:39Z</time></trkpt><trkpt lat="43.15110823319478" lon="11.431900494608618"><ele>177.0</ele><time>2026-04-11T11:21:40Z</time></trkpt><trkpt lat="43.151123351817986" lon="11.432036443442128"><ele>177.0</ele><time>2026-04-11T11:21:41Z</time></trkpt><trkpt lat="43.15112889141139" lon="11.43216566030204"><ele>177.0</ele><time>2026-04-11T11:21:42Z</time></trkpt><trkpt lat="43.15111482960621" lon="11.43229111481877"><ele>177.0</ele><time>2026-04-11T11:21:43Z</time></trkpt><trkpt lat="43.151097327515586" lon="11.432418210066423"><ele>177.0</ele><time>2026-04-11T11:21:43.999Z</time></trkpt><trkpt lat="43.151111331494384" lon="11.43254314206737"><ele>176.39999999999998</ele><time>2026-04-11T11:21:44.999Z</time></trkpt><trkpt lat="43.15110485835044" lon="11.432670538246976"><ele>175.79999999999998</ele><time>2026-04-11T11:21:45.999Z</time></trkpt><trkpt lat="43.151152664466736" lon="11.432782293759791"><ele>175.2</ele><time>2026-04-11T11:21:46.999Z</time></trkpt><trkpt lat="43.15120019165229" lon="11.432887600402587"><ele>174.6</ele><time>2026-04-11T11:21:47.999Z</time></trkpt><trkpt lat="43.151248835431886" lon="11.43299568469841"><ele>174.0</ele><time>2026-04-11T11:21:48.999Z</time></trkpt><trkpt lat="43.15132345073973" lon="11.433076668669493"><ele>173.2</ele><time>2026-04-11T11:21:49.999Z</time></trkpt><trkpt lat="43.151389868912055" lon="11.433166586133924"><ele>172.39999999999998</ele><time>2026-04-11T11:21:50.999Z</time></trkpt><trkpt lat="43.15146214533916" lon="11.4332441932089"><ele>171.6</ele><time>2026-04-11T11:21:51.999Z</time></trkpt><trkpt lat="43.15153932162886" lon="11.433320474762239"><ele>170.8</ele><time>2026-04-11T11:21:52.999Z</time></trkpt><trkpt lat="43.15161527510986" lon="11.433389965840563"><ele>170.0</ele><time>2026-04-11T11:21:53.999Z</time></trkpt><trkpt lat="43.151687768279025" lon="11.433451463925573"><ele>171.33333333333331</ele><time>2026-04-11T11:21:54.999Z</time></trkpt><trkpt lat="43.1517630773242" lon="11.433493960448091"><ele>172.66666666666666</ele><time>2026-04-11T11:21:55.999Z</time></trkpt><trkpt lat="43.1518460366685" lon="11.43352531800766"><ele>174.0</ele><time>2026-04-11T11:21:56.999Z</time></trkpt><trkpt lat="43.151921699181834" lon="11.433547595786367"><ele>175.33333333333334</ele><time>2026-04-11T11:21:57.999Z</time></trkpt><trkpt lat="43.15199137351966" lon="11.433545953630915"><ele>176.66666666666669</ele><time>2026-04-11T11:21:58.999Z</time></trkpt><trkpt lat="43.152065690326545" lon="11.433511072868232"><ele>178.0</ele><time>2026-04-11T11:21:59.999Z</time></trkpt><trkpt lat="43.15213849542282" lon="11.433462299011493"><ele>178.0</ele><time>2026-04-11T11:22:00.999Z</time></trkpt><trkpt lat="43.15220208815306" lon="11.433403807964872"><ele>178.0</ele><time>2026-04-11T11:22:01.999Z</time></trkpt><trkpt lat="43.15226430248634" lon="11.433334447691893"><ele>178.0</ele><time>2026-04-11T11:22:02.999Z</time></trkpt><trkpt lat="43.152318444131765" lon="11.433258477823186"><ele>178.0</ele><time>2026-04-11T11:22:03.999Z</time></trkpt><trkpt lat="43.15237274380207" lon="11.433177090863945"><ele>178.0</ele><time>2026-04-11T11:22:04.999Z</time></trkpt><trkpt lat="43.15242697846176" lon="11.433097285493835"><ele>178.0</ele><time>2026-04-11T11:22:05.999Z</time></trkpt><trkpt lat="43.152484702472215" lon="11.43302580309062"><ele>178.28571428571428</ele><time>2026-04-11T11:22:06.999Z</time></trkpt><trkpt lat="43.15254097878678" lon="11.432964810174985"><ele>178.57142857142856</ele><time>2026-04-11T11:22:07.999Z</time></trkpt><trkpt lat="43.15261299178245" lon="11.432959039587114"><ele>178.85714285714283</ele><time>2026-04-11T11:22:08.999Z</time></trkpt><trkpt lat="43.15267521350682" lon="11.432978442064357"><ele>179.14285714285714</ele><time>2026-04-11T11:22:09.999Z</time></trkpt><trkpt lat="43.15273964063108" lon="11.43303308173907"><ele>179.42857142857144</ele><time>2026-04-11T11:22:10.999Z</time></trkpt><trkpt lat="43.15277932030641" lon="11.43311061118432"><ele>179.7142857142857</ele><time>2026-04-11T11:22:11.999Z</time></trkpt><trkpt lat="43.152782753155876" lon="11.433211406863983"><ele>180.0</ele><time>2026-04-11T11:22:12.999Z</time></trkpt><trkpt lat="43.152726962291084" lon="11.433355532313142"><ele>178.5</ele><time>2026-04-11T11:22:14.999Z</time></trkpt><trkpt lat="43.15264743111125" lon="11.43345801695086"><ele>177.0</ele><time>2026-04-11T11:22:16.999Z</time></trkpt><trkpt lat="43.15259619803582" lon="11.433522366264619"><ele>175.5</ele><time>2026-04-11T11:22:18Z</time></trkpt><trkpt lat="43.1525448843167" lon="11.433584466616859"><ele>174.0</ele><time>2026-04-11T11:22:19Z</time></trkpt><trkpt lat="43.152488886631645" lon="11.433657146131345"><ele>172.5</ele><time>2026-04-11T11:22:20Z</time></trkpt><trkpt lat="43.15243553783034" lon="11.433742645399477"><ele>171.0</ele><time>2026-04-11T11:22:21Z</time></trkpt><trkpt lat="43.152376558555375" lon="11.433807150888072"><ele>170.5</ele><time>2026-04-11T11:22:22Z</time></trkpt><trkpt lat="43.15231369921681" lon="11.433881909295083"><ele>170.0</ele><time>2026-04-11T11:22:23Z</time></trkpt><trkpt lat="43.152248216605585" lon="11.433955937462782"><ele>169.5</ele><time>2026-04-11T11:22:24Z</time></trkpt><trkpt lat="43.15218498729868" lon="11.434040258648754"><ele>169.0</ele><time>2026-04-11T11:22:25Z</time></trkpt><trkpt lat="43.15212059017154" lon="11.434118187385154"><ele>168.5</ele><time>2026-04-11T11:22:26Z</time></trkpt><trkpt lat="43.15205176882968" lon="11.434195618630852"><ele>168.0</ele><time>2026-04-11T11:22:27Z</time></trkpt><trkpt lat="43.15198623896125" lon="11.434281031375502"><ele>168.0</ele><time>2026-04-11T11:22:28Z</time></trkpt><trkpt lat="43.15191594241377" lon="11.434362424059785"><ele>168.0</ele><time>2026-04-11T11:22:29Z</time></trkpt><trkpt lat="43.151841901261434" lon="11.434436731771296"><ele>168.0</ele><time>2026-04-11T11:22:30Z</time></trkpt><trkpt lat="43.15177400082943" lon="11.43452291451168"><ele>168.0</ele><time>2026-04-11T11:22:31Z</time></trkpt><trkpt lat="43.15170688154779" lon="11.434610791074332"><ele>168.0</ele><time>2026-04-11T11:22:32Z</time></trkpt><trkpt lat="43.15164341847705" lon="11.434713683985539"><ele>166.20000000000002</ele><time>2026-04-11T11:22:33Z</time></trkpt><trkpt lat="43.15159474191334" lon="11.434827756256572"><ele>164.4</ele><time>2026-04-11T11:22:34Z</time></trkpt><trkpt lat="43.15154834682885" lon="11.434948902116012"><ele>162.60000000000002</ele><time>2026-04-11T11:22:35Z</time></trkpt><trkpt lat="43.151558513533445" lon="11.435093883760926"><ele>160.8</ele><time>2026-04-11T11:22:36Z</time></trkpt><trkpt lat="43.15156010991732" lon="11.43523077086315"><ele>159.0</ele><time>2026-04-11T11:22:37Z</time></trkpt><trkpt lat="43.15157963897145" lon="11.435359562307488"><ele>158.66666666666666</ele><time>2026-04-11T11:22:38Z</time></trkpt><trkpt lat="43.15160037990702" lon="11.435487393930325"><ele>158.33333333333334</ele><time>2026-04-11T11:22:39Z</time></trkpt><trkpt lat="43.15160550952367" lon="11.435612028610631"><ele>158.0</ele><time>2026-04-11T11:22:40Z</time></trkpt><trkpt lat="43.15162412815789" lon="11.435730807063504"><ele>157.66666666666669</ele><time>2026-04-11T11:22:41Z</time></trkpt><trkpt lat="43.1516421025915" lon="11.435845475992153"><ele>157.33333333333334</ele><time>2026-04-11T11:22:42Z</time></trkpt><trkpt lat="43.15166013738892" lon="11.43596052993067"><ele>157.0</ele><time>2026-04-11T11:22:43Z</time></trkpt><trkpt lat="43.15168327753095" lon="11.436071092673501"><ele>157.0</ele><time>2026-04-11T11:22:44Z</time></trkpt><trkpt lat="43.15170328681514" lon="11.436177969378324"><ele>157.0</ele><time>2026-04-11T11:22:45Z</time></trkpt><trkpt lat="43.15172347400098" lon="11.436282482076622"><ele>157.0</ele><time>2026-04-11T11:22:46Z</time></trkpt><trkpt lat="43.15174035719392" lon="11.436390902078204"><ele>157.0</ele><time>2026-04-11T11:22:47Z</time></trkpt><trkpt lat="43.151749969193936" lon="11.436495366546168"><ele>157.0</ele><time>2026-04-11T11:22:48Z</time></trkpt><trkpt lat="43.15176638676228" lon="11.43660198224313"><ele>157.0</ele><time>2026-04-11T11:22:49Z</time></trkpt><trkpt lat="43.151780475951874" lon="11.436699020491703"><ele>156.85714285714283</ele><time>2026-04-11T11:22:50Z</time></trkpt><trkpt lat="43.15179923219734" lon="11.436796653504134"><ele>156.71428571428572</ele><time>2026-04-11T11:22:51Z</time></trkpt><trkpt lat="43.15181529361576" lon="11.436897130457849"><ele>156.57142857142856</ele><time>2026-04-11T11:22:52Z</time></trkpt><trkpt lat="43.15182713748759" lon="11.436995159355746"><ele>156.42857142857142</ele><time>2026-04-11T11:22:53Z</time></trkpt><trkpt lat="43.15184349877302" lon="11.437088803269257"><ele>156.28571428571428</ele><time>2026-04-11T11:22:54Z</time></trkpt><trkpt lat="43.15185275864072" lon="11.437185985675653"><ele>156.14285714285714</ele><time>2026-04-11T11:22:55Z</time></trkpt><trkpt lat="43.151874011924605" lon="11.4372800885621"><ele>156.0</ele><time>2026-04-11T11:22:56Z</time></trkpt><trkpt lat="43.15188207464999" lon="11.437373930133008"><ele>156.0</ele><time>2026-04-11T11:22:57Z</time></trkpt><trkpt lat="43.15188968043371" lon="11.437473095868414"><ele>156.0</ele><time>2026-04-11T11:22:58Z</time></trkpt><trkpt lat="43.151908576556856" lon="11.437563354223732"><ele>156.0</ele><time>2026-04-11T11:22:59Z</time></trkpt><trkpt lat="43.15192567689641" lon="11.437654011472022"><ele>156.0</ele><time>2026-04-11T11:23:00Z</time></trkpt><trkpt lat="43.15194202625477" lon="11.437743976133856"><ele>156.0</ele><time>2026-04-11T11:23:01Z</time></trkpt><trkpt lat="43.151953095074155" lon="11.437832690956208"><ele>156.0</ele><time>2026-04-11T11:23:02Z</time></trkpt><trkpt lat="43.15197200832074" lon="11.437921110832947"><ele>156.0</ele><time>2026-04-11T11:23:03Z</time></trkpt><trkpt lat="43.15198624402192" lon="11.43800714358972"><ele>157.25</ele><time>2026-04-11T11:23:04Z</time></trkpt><trkpt lat="43.15200008274509" lon="11.438174737147405"><ele>158.5</ele><time>2026-04-11T11:23:06Z</time></trkpt><trkpt lat="43.15199829158609" lon="11.438340704572491"><ele>159.75</ele><time>2026-04-11T11:23:08Z</time></trkpt><trkpt lat="43.15199603856203" lon="11.438492057515157"><ele>161.0</ele><time>2026-04-11T11:23:10Z</time></trkpt><trkpt lat="43.15196392170125" lon="11.438635696163457"><ele>161.0</ele><time>2026-04-11T11:23:12Z</time></trkpt><trkpt lat="43.151893795712816" lon="11.438752377979776"><ele>161.0</ele><time>2026-04-11T11:23:14Z</time></trkpt><trkpt lat="43.15184611037608" lon="11.438862604753885"><ele>161.0</ele><time>2026-04-11T11:23:16Z</time></trkpt><trkpt lat="43.15177910448761" lon="11.438947273822722"><ele>161.0</ele><time>2026-04-11T11:23:18Z</time></trkpt><trkpt lat="43.151734358211215" lon="11.439036522605374"><ele>161.0</ele><time>2026-04-11T11:23:20Z</time></trkpt><trkpt lat="43.15167762284964" lon="11.439123716929213"><ele>161.5</ele><time>2026-04-11T11:23:22Z</time></trkpt><trkpt lat="43.15162718641465" lon="11.439206720354003"><ele>162.0</ele><time>2026-04-11T11:23:24Z</time></trkpt><trkpt lat="43.15158740710171" lon="11.439282189423727"><ele>162.5</ele><time>2026-04-11T11:23:26Z</time></trkpt><trkpt lat="43.151539354215885" lon="11.43937184512584"><ele>163.0</ele><time>2026-04-11T11:23:28Z</time></trkpt><trkpt lat="43.151493708501675" lon="11.439447144738056"><ele>163.5</ele><time>2026-04-11T11:23:30Z</time></trkpt><trkpt lat="43.15144008459751" lon="11.43953122599412"><ele>164.0</ele><time>2026-04-11T11:23:32Z</time></trkpt><trkpt lat="43.15138960591291" lon="11.43962753109028"><ele>163.66666666666666</ele><time>2026-04-11T11:23:34Z</time></trkpt><trkpt lat="43.15134172739361" lon="11.439711999192815"><ele>163.33333333333331</ele><time>2026-04-11T11:23:36Z</time></trkpt><trkpt lat="43.15128855628589" lon="11.439802757940619"><ele>163.0</ele><time>2026-04-11T11:23:38Z</time></trkpt><trkpt lat="43.15123538564237" lon="11.439916080298989"><ele>162.66666666666666</ele><time>2026-04-11T11:23:40Z</time></trkpt><trkpt lat="43.151188290152874" lon="11.44001741700394"><ele>162.33333333333334</ele><time>2026-04-11T11:23:42Z</time></trkpt><trkpt lat="43.151144724174976" lon="11.440127004180548"><ele>162.0</ele><time>2026-04-11T11:23:44Z</time></trkpt><trkpt lat="43.151099637484855" lon="11.44023534831314"><ele>162.0</ele><time>2026-04-11T11:23:45.999Z</time></trkpt><trkpt lat="43.15105540840402" lon="11.440351977983092"><ele>162.0</ele><time>2026-04-11T11:23:47.999Z</time></trkpt><trkpt lat="43.151017616271254" lon="11.440473248101052"><ele>162.0</ele><time>2026-04-11T11:23:49.999Z</time></trkpt><trkpt lat="43.1509632713908" lon="11.440588858109317"><ele>162.0</ele><time>2026-04-11T11:23:51.999Z</time></trkpt><trkpt lat="43.150904820759756" lon="11.440700521626813"><ele>162.0</ele><time>2026-04-11T11:23:53.999Z</time></trkpt><trkpt lat="43.150815207464866" lon="11.440766004032396"><ele>162.2</ele><time>2026-04-11T11:23:55.999Z</time></trkpt><trkpt lat="43.15072960260628" lon="11.440842327701713"><ele>162.39999999999998</ele><time>2026-04-11T11:23:57.999Z</time></trkpt><trkpt lat="43.15064439703841" lon="11.440905240009009"><ele>162.60000000000002</ele><time>2026-04-11T11:23:59.999Z</time></trkpt><trkpt lat="43.15056394530937" lon="11.440965690212098"><ele>162.8</ele><time>2026-04-11T11:24:01.999Z</time></trkpt><trkpt lat="43.15048854226046" lon="11.441032330113844"><ele>163.0</ele><time>2026-04-11T11:24:03.999Z</time></trkpt><trkpt lat="43.15040518517655" lon="11.441102190057899"><ele>163.0</ele><time>2026-04-11T11:24:05.999Z</time></trkpt><trkpt lat="43.15032047195142" lon="11.441171559928492"><ele>163.0</ele><time>2026-04-11T11:24:07.999Z</time></trkpt><trkpt lat="43.15023741442652" lon="11.441234936834734"><ele>163.0</ele><time>2026-04-11T11:24:09.999Z</time></trkpt><trkpt lat="43.15015565768597" lon="11.441308161712971"><ele>163.0</ele><time>2026-04-11T11:24:11.999Z</time></trkpt><trkpt lat="43.15007670884515" lon="11.441376773321602"><ele>163.0</ele><time>2026-04-11T11:24:13.999Z</time></trkpt><trkpt lat="43.14999428335025" lon="11.441432721634415"><ele>163.0</ele><time>2026-04-11T11:24:15.999Z</time></trkpt><trkpt lat="43.14992173209143" lon="11.441482203203696"><ele>163.0</ele><time>2026-04-11T11:24:17.999Z</time></trkpt><trkpt lat="43.14983360206637" lon="11.441563456476"><ele>163.0</ele><time>2026-04-11T11:24:19.999Z</time></trkpt><trkpt lat="43.149758465565995" lon="11.441628776582547"><ele>163.0</ele><time>2026-04-11T11:24:21.999Z</time></trkpt><trkpt lat="43.14966900917872" lon="11.441695240608611"><ele>163.0</ele><time>2026-04-11T11:24:24Z</time></trkpt><trkpt lat="43.14958938482989" lon="11.441767085051573"><ele>163.0</ele><time>2026-04-11T11:24:26Z</time></trkpt><trkpt lat="43.14950866481508" lon="11.441831459606002"><ele>163.0</ele><time>2026-04-11T11:24:28Z</time></trkpt><trkpt lat="43.14942290661917" lon="11.44189865624698"><ele>163.0</ele><time>2026-04-11T11:24:30Z</time></trkpt><trkpt lat="43.14933878020289" lon="11.441974472308205"><ele>163.0</ele><time>2026-04-11T11:24:32Z</time></trkpt><trkpt lat="43.14925522643857" lon="11.442037571067589"><ele>163.0</ele><time>2026-04-11T11:24:34Z</time></trkpt><trkpt lat="43.14917086941518" lon="11.442105147212887"><ele>163.2</ele><time>2026-04-11T11:24:36Z</time></trkpt><trkpt lat="43.14909114859273" lon="11.442174007338581"><ele>163.4</ele><time>2026-04-11T11:24:38Z</time></trkpt><trkpt lat="43.149004889077425" lon="11.442243344417774"><ele>163.6</ele><time>2026-04-11T11:24:40Z</time></trkpt><trkpt lat="43.14892822389206" lon="11.442304873023623"><ele>163.79999999999998</ele><time>2026-04-11T11:24:42Z</time></trkpt><trkpt lat="43.14884556299655" lon="11.442388758312173"><ele>164.0</ele><time>2026-04-11T11:24:44Z</time></trkpt><trkpt lat="43.148767126616335" lon="11.442460393900157"><ele>164.0</ele><time>2026-04-11T11:24:46Z</time></trkpt><trkpt lat="43.14869376433548" lon="11.442556004335396"><ele>164.0</ele><time>2026-04-11T11:24:48Z</time></trkpt><trkpt lat="43.14862148422226" lon="11.442654282672258"><ele>164.0</ele><time>2026-04-11T11:24:50Z</time></trkpt><trkpt lat="43.14855795258116" lon="11.442754381102628"><ele>164.0</ele><time>2026-04-11T11:24:52Z</time></trkpt><trkpt lat="43.14848830748971" lon="11.442873917986926"><ele>164.0</ele><time>2026-04-11T11:24:54Z</time></trkpt><trkpt lat="43.14841833520162" lon="11.4429677175667"><ele>163.79999999999998</ele><time>2026-04-11T11:24:56Z</time></trkpt><trkpt lat="43.14835684483355" lon="11.443066340033694"><ele>163.6</ele><time>2026-04-11T11:24:58Z</time></trkpt><trkpt lat="43.14828403800278" lon="11.443171211052551"><ele>163.4</ele><time>2026-04-11T11:25:00Z</time></trkpt><trkpt lat="43.14821696701865" lon="11.443277613798784"><ele>163.2</ele><time>2026-04-11T11:25:02Z</time></trkpt><trkpt lat="43.14814437262799" lon="11.4433867311591"><ele>163.0</ele><time>2026-04-11T11:25:04Z</time></trkpt><trkpt lat="43.1480839872049" lon="11.443512462293274"><ele>163.0</ele><time>2026-04-11T11:25:06Z</time></trkpt><trkpt lat="43.148033022028805" lon="11.443638321548383"><ele>163.0</ele><time>2026-04-11T11:25:08Z</time></trkpt><trkpt lat="43.148030352370185" lon="11.443800518921654"><ele>163.0</ele><time>2026-04-11T11:25:10Z</time></trkpt><trkpt lat="43.148064702423504" lon="11.443947940397772"><ele>163.0</ele><time>2026-04-11T11:25:12Z</time></trkpt><trkpt lat="43.14810968485829" lon="11.444083218163092"><ele>163.0</ele><time>2026-04-11T11:25:14Z</time></trkpt><trkpt lat="43.1481621592475" lon="11.444208422174476"><ele>163.2</ele><time>2026-04-11T11:25:16Z</time></trkpt><trkpt lat="43.14819676454472" lon="11.444336970175746"><ele>163.4</ele><time>2026-04-11T11:25:18Z</time></trkpt><trkpt lat="43.14820556242078" lon="11.44447646362573"><ele>163.6</ele><time>2026-04-11T11:25:20Z</time></trkpt><trkpt lat="43.1481821211417" lon="11.44460355093848"><ele>163.79999999999998</ele><time>2026-04-11T11:25:22Z</time></trkpt><trkpt lat="43.148132344350756" lon="11.444711711457174"><ele>164.0</ele><time>2026-04-11T11:25:24Z</time></trkpt><trkpt lat="43.14805505601161" lon="11.444778252069954"><ele>165.39999999999998</ele><time>2026-04-11T11:25:26Z</time></trkpt><trkpt lat="43.14795753550534" lon="11.44479610629232"><ele>166.8</ele><time>2026-04-11T11:25:28Z</time></trkpt><trkpt lat="43.14785564487972" lon="11.44477477403769"><ele>168.2</ele><time>2026-04-11T11:25:30Z</time></trkpt><trkpt lat="43.14775044337923" lon="11.444743068017287"><ele>169.60000000000002</ele><time>2026-04-11T11:25:32Z</time></trkpt><trkpt lat="43.147641854614996" lon="11.444688745663258"><ele>171.0</ele><time>2026-04-11T11:25:34Z</time></trkpt><trkpt lat="43.14753367224302" lon="11.444637531459314"><ele>169.60000000000002</ele><time>2026-04-11T11:25:36Z</time></trkpt><trkpt lat="43.14743156379436" lon="11.444594038615133"><ele>168.2</ele><time>2026-04-11T11:25:38Z</time></trkpt><trkpt lat="43.147321794431384" lon="11.444566911284369"><ele>166.8</ele><time>2026-04-11T11:25:40Z</time></trkpt><trkpt lat="43.14721374807857" lon="11.444545607806175"><ele>165.39999999999998</ele><time>2026-04-11T11:25:42Z</time></trkpt><trkpt lat="43.147109499824715" lon="11.44451916112143"><ele>164.0</ele><time>2026-04-11T11:25:44Z</time></trkpt><trkpt lat="43.147007177245925" lon="11.44451796847687"><ele>163.6</ele><time>2026-04-11T11:25:46Z</time></trkpt><trkpt lat="43.14689749886166" lon="11.444508093216117"><ele>163.2</ele><time>2026-04-11T11:25:48Z</time></trkpt><trkpt lat="43.146789798059146" lon="11.444516517752424"><ele>162.79999999999998</ele><time>2026-04-11T11:25:50Z</time></trkpt><trkpt lat="43.146683215836546" lon="11.444526564016561"><ele>162.39999999999998</ele><time>2026-04-11T11:25:52Z</time></trkpt><trkpt lat="43.14657493875548" lon="11.444548846081517"><ele>162.0</ele><time>2026-04-11T11:25:53.999Z</time></trkpt><trkpt lat="43.14647356239718" lon="11.444577056756833"><ele>162.0</ele><time>2026-04-11T11:25:55.999Z</time></trkpt><trkpt lat="43.14636924809386" lon="11.444613699578221"><ele>162.0</ele><time>2026-04-11T11:25:57.999Z</time></trkpt><trkpt lat="43.14627629141116" lon="11.444696168420752"><ele>162.0</ele><time>2026-04-11T11:25:59.999Z</time></trkpt><trkpt lat="43.14620132775693" lon="11.444809040808567"><ele>162.0</ele><time>2026-04-11T11:26:01.999Z</time></trkpt><trkpt lat="43.146148097705655" lon="11.444948829162572"><ele>162.0</ele><time>2026-04-11T11:26:03.999Z</time></trkpt><trkpt lat="43.146110930879985" lon="11.445098827682257"><ele>162.0</ele><time>2026-04-11T11:26:05.999Z</time></trkpt><trkpt lat="43.146095048828144" lon="11.445252810791217"><ele>162.0</ele><time>2026-04-11T11:26:07.999Z</time></trkpt><trkpt lat="43.14610925529132" lon="11.445408428045692"><ele>162.0</ele><time>2026-04-11T11:26:09.999Z</time></trkpt><trkpt lat="43.14614091930746" lon="11.445553949319077"><ele>162.0</ele><time>2026-04-11T11:26:11.999Z</time></trkpt><trkpt lat="43.14617254731698" lon="11.445700318995442"><ele>161.8</ele><time>2026-04-11T11:26:13.999Z</time></trkpt><trkpt lat="43.14620501506095" lon="11.445842426116512"><ele>161.6</ele><time>2026-04-11T11:26:15.999Z</time></trkpt><trkpt lat="43.1462404385914" lon="11.445986493666053"><ele>161.4</ele><time>2026-04-11T11:26:17.999Z</time></trkpt><trkpt lat="43.146278890840016" lon="11.44613077983005"><ele>161.20000000000002</ele><time>2026-04-11T11:26:19.999Z</time></trkpt><trkpt lat="43.14631741563052" lon="11.446269375403043"><ele>161.0</ele><time>2026-04-11T11:26:21.999Z</time></trkpt><trkpt lat="43.14636304932519" lon="11.446411206343724"><ele>162.0</ele><time>2026-04-11T11:26:23.999Z</time></trkpt><trkpt lat="43.14639267081925" lon="11.446561458394479"><ele>163.0</ele><time>2026-04-11T11:26:25.999Z</time></trkpt><trkpt lat="43.146417751394104" lon="11.446709108468262"><ele>164.0</ele><time>2026-04-11T11:26:27.999Z</time></trkpt><trkpt lat="43.14639729838216" lon="11.446856737812764"><ele>165.0</ele><time>2026-04-11T11:26:30Z</time></trkpt><trkpt lat="43.14630766646989" lon="11.44693797946071"><ele>166.0</ele><time>2026-04-11T11:26:32Z</time></trkpt><trkpt lat="43.14621282888349" lon="11.446895323163213"><ele>166.0</ele><time>2026-04-11T11:26:34Z</time></trkpt><trkpt lat="43.14610842207479" lon="11.446870270861227"><ele>166.0</ele><time>2026-04-11T11:26:36Z</time></trkpt><trkpt lat="43.14599719089924" lon="11.446855559703558"><ele>166.0</ele><time>2026-04-11T11:26:38Z</time></trkpt><trkpt lat="43.1458886014694" lon="11.446844104913003"><ele>166.0</ele><time>2026-04-11T11:26:40Z</time></trkpt><trkpt lat="43.14578060815021" lon="11.446839810776764"><ele>166.0</ele><time>2026-04-11T11:26:42Z</time></trkpt><trkpt lat="43.14567661511606" lon="11.446848416915936"><ele>165.20000000000002</ele><time>2026-04-11T11:26:44Z</time></trkpt><trkpt lat="43.14557005190688" lon="11.446870955694285"><ele>164.4</ele><time>2026-04-11T11:26:46Z</time></trkpt><trkpt lat="43.145462169446326" lon="11.446912620823435"><ele>163.6</ele><time>2026-04-11T11:26:48Z</time></trkpt><trkpt lat="43.14540962148771" lon="11.44696810555478"><ele>162.8</ele><time>2026-04-11T11:26:49Z</time></trkpt><trkpt lat="43.14531807826897" lon="11.447026915322844"><ele>162.0</ele><time>2026-04-11T11:26:51Z</time></trkpt><trkpt lat="43.14523675344267" lon="11.447111758508555"><ele>163.2</ele><time>2026-04-11T11:26:53Z</time></trkpt><trkpt lat="43.14515704864215" lon="11.447204317051018"><ele>164.39999999999998</ele><time>2026-04-11T11:26:55Z</time></trkpt><trkpt lat="43.145087299653014" lon="11.447312139631626"><ele>165.60000000000002</ele><time>2026-04-11T11:26:57Z</time></trkpt><trkpt lat="43.14500687057651" lon="11.44740129226013"><ele>166.8</ele><time>2026-04-11T11:26:59Z</time></trkpt><trkpt lat="43.14494009456527" lon="11.447502341319355"><ele>168.0</ele><time>2026-04-11T11:27:01Z</time></trkpt><trkpt lat="43.14490404535871" lon="11.447634734493354"><ele>167.8</ele><time>2026-04-11T11:27:03Z</time></trkpt><trkpt lat="43.144870150633466" lon="11.447763975524158"><ele>167.60000000000002</ele><time>2026-04-11T11:27:05Z</time></trkpt><trkpt lat="43.14486375994561" lon="11.44790687170818"><ele>167.39999999999998</ele><time>2026-04-11T11:27:07Z</time></trkpt><trkpt lat="43.14486446461963" lon="11.448049568536684"><ele>167.2</ele><time>2026-04-11T11:27:09Z</time></trkpt><trkpt lat="43.14486684032682" lon="11.448204178183715"><ele>167.0</ele><time>2026-04-11T11:27:11Z</time></trkpt><trkpt lat="43.14485018735577" lon="11.448350132636692"><ele>167.0</ele><time>2026-04-11T11:27:13Z</time></trkpt><trkpt lat="43.144791144257084" lon="11.448456366788994"><ele>167.0</ele><time>2026-04-11T11:27:15Z</time></trkpt><trkpt lat="43.14470136265824" lon="11.44851876435933"><ele>167.0</ele><time>2026-04-11T11:27:17Z</time></trkpt><trkpt lat="43.1446045066063" lon="11.448553759560083"><ele>167.0</ele><time>2026-04-11T11:27:19Z</time></trkpt><trkpt lat="43.144508169031674" lon="11.448560058562594"><ele>167.0</ele><time>2026-04-11T11:27:21Z</time></trkpt><trkpt lat="43.1444114977433" lon="11.44855023398288"><ele>167.0</ele><time>2026-04-11T11:27:23Z</time></trkpt><trkpt lat="43.14431805463166" lon="11.448534207640346"><ele>167.0</ele><time>2026-04-11T11:27:25Z</time></trkpt><trkpt lat="43.14422805821796" lon="11.44851142984378"><ele>167.0</ele><time>2026-04-11T11:27:27Z</time></trkpt><trkpt lat="43.14413331944031" lon="11.44847605227339"><ele>167.0</ele><time>2026-04-11T11:27:29Z</time></trkpt><trkpt lat="43.14403638738154" lon="11.448430820315577"><ele>167.0</ele><time>2026-04-11T11:27:31Z</time></trkpt><trkpt lat="43.14394011759763" lon="11.4483912489009"><ele>168.0</ele><time>2026-04-11T11:27:33Z</time></trkpt><trkpt lat="43.1438533754674" lon="11.448337720974813"><ele>169.0</ele><time>2026-04-11T11:27:35Z</time></trkpt><trkpt lat="43.143750142497986" lon="11.448283680676322"><ele>170.0</ele><time>2026-04-11T11:27:37Z</time></trkpt><trkpt lat="43.14365470399433" lon="11.448215301990441"><ele>171.0</ele><time>2026-04-11T11:27:39Z</time></trkpt><trkpt lat="43.14354891827427" lon="11.448154648488439"><ele>172.0</ele><time>2026-04-11T11:27:41Z</time></trkpt><trkpt lat="43.143451743904386" lon="11.44807602309261"><ele>172.0</ele><time>2026-04-11T11:27:43Z</time></trkpt><trkpt lat="43.14334914019059" lon="11.447995052478419"><ele>172.0</ele><time>2026-04-11T11:27:45Z</time></trkpt><trkpt lat="43.14325768658074" lon="11.447924210636462"><ele>172.0</ele><time>2026-04-11T11:27:47Z</time></trkpt><trkpt lat="43.14316765049958" lon="11.447848012396925"><ele>172.0</ele><time>2026-04-11T11:27:49Z</time></trkpt><trkpt lat="43.14306665650001" lon="11.447793896331705"><ele>172.0</ele><time>2026-04-11T11:27:51Z</time></trkpt><trkpt lat="43.14296609336527" lon="11.447749966412527"><ele>170.2</ele><time>2026-04-11T11:27:53Z</time></trkpt><trkpt lat="43.14286632790882" lon="11.44769490462352"><ele>168.39999999999998</ele><time>2026-04-11T11:27:55Z</time></trkpt><trkpt lat="43.142761107298725" lon="11.447669809018972"><ele>166.60000000000002</ele><time>2026-04-11T11:27:57Z</time></trkpt><trkpt lat="43.14264869018557" lon="11.447665458562179"><ele>164.8</ele><time>2026-04-11T11:27:58.999Z</time></trkpt><trkpt lat="43.14254221844908" lon="11.447675528594784"><ele>163.0</ele><time>2026-04-11T11:28:00.999Z</time></trkpt><trkpt lat="43.14243290900356" lon="11.447701176956164"><ele>162.8</ele><time>2026-04-11T11:28:02.999Z</time></trkpt><trkpt lat="43.14232380526155" lon="11.447729139871715"><ele>162.60000000000002</ele><time>2026-04-11T11:28:04.999Z</time></trkpt><trkpt lat="43.14222182430161" lon="11.447760883515299"><ele>162.39999999999998</ele><time>2026-04-11T11:28:06.999Z</time></trkpt><trkpt lat="43.14211955822478" lon="11.447794749885464"><ele>162.2</ele><time>2026-04-11T11:28:08.999Z</time></trkpt><trkpt lat="43.14201894500534" lon="11.447828973595028"><ele>162.0</ele><time>2026-04-11T11:28:10.999Z</time></trkpt><trkpt lat="43.141915398871994" lon="11.447864434602801"><ele>162.0</ele><time>2026-04-11T11:28:12.999Z</time></trkpt><trkpt lat="43.14181368725078" lon="11.447899366490901"><ele>162.0</ele><time>2026-04-11T11:28:14.999Z</time></trkpt><trkpt lat="43.141707706992264" lon="11.447936365693902"><ele>162.0</ele><time>2026-04-11T11:28:16.999Z</time></trkpt><trkpt lat="43.14160589336386" lon="11.447971909953559"><ele>162.0</ele><time>2026-04-11T11:28:18.999Z</time></trkpt><trkpt lat="43.14150388457168" lon="11.448003552779738"><ele>162.0</ele><time>2026-04-11T11:28:20.999Z</time></trkpt><trkpt lat="43.14139844824849" lon="11.448042506533117"><ele>163.8</ele><time>2026-04-11T11:28:22.999Z</time></trkpt><trkpt lat="43.14129892461007" lon="11.448072167641827"><ele>165.6</ele><time>2026-04-11T11:28:24.999Z</time></trkpt><trkpt lat="43.141196358948534" lon="11.44809067971462"><ele>167.4</ele><time>2026-04-11T11:28:26.999Z</time></trkpt><trkpt lat="43.14109666481372" lon="11.448108650457543"><ele>169.20000000000002</ele><time>2026-04-11T11:28:28.999Z</time></trkpt><trkpt lat="43.1409950112186" lon="11.448123832520753"><ele>171.0</ele><time>2026-04-11T11:28:30.999Z</time></trkpt><trkpt lat="43.14090226329415" lon="11.448142402549113"><ele>171.0</ele><time>2026-04-11T11:28:32.999Z</time></trkpt><trkpt lat="43.140815191373555" lon="11.448162466358948"><ele>171.0</ele><time>2026-04-11T11:28:34.999Z</time></trkpt><trkpt lat="43.14072951598981" lon="11.448173116482137"><ele>171.0</ele><time>2026-04-11T11:28:37Z</time></trkpt><trkpt lat="43.14064460746315" lon="11.448181541361865"><ele>171.0</ele><time>2026-04-11T11:28:39Z</time></trkpt><trkpt lat="43.140550275256714" lon="11.448175375483075"><ele>171.0</ele><time>2026-04-11T11:28:41Z</time></trkpt><trkpt lat="43.14044983979232" lon="11.448162605542223"><ele>170.25</ele><time>2026-04-11T11:28:43Z</time></trkpt><trkpt lat="43.14033843298383" lon="11.44812962139961"><ele>169.5</ele><time>2026-04-11T11:28:45Z</time></trkpt><trkpt lat="43.140225846857206" lon="11.448082415264189"><ele>168.75</ele><time>2026-04-11T11:28:47Z</time></trkpt><trkpt lat="43.14011440002523" lon="11.448027034742845"><ele>168.0</ele><time>2026-04-11T11:28:49Z</time></trkpt><trkpt lat="43.14000818669601" lon="11.447961086668318"><ele>167.5</ele><time>2026-04-11T11:28:51Z</time></trkpt><trkpt lat="43.139893936188656" lon="11.447892691787578"><ele>167.0</ele><time>2026-04-11T11:28:53Z</time></trkpt><trkpt lat="43.13979638097999" lon="11.4478099139705"><ele>166.5</ele><time>2026-04-11T11:28:55Z</time></trkpt><trkpt lat="43.139694362567944" lon="11.447782675964628"><ele>166.0</ele><time>2026-04-11T11:28:57Z</time></trkpt><trkpt lat="43.139575470009035" lon="11.447802332664853"><ele>165.0</ele><time>2026-04-11T11:28:59Z</time></trkpt><trkpt lat="43.139468693773125" lon="11.447879248529475"><ele>164.0</ele><time>2026-04-11T11:29:01Z</time></trkpt><trkpt lat="43.139425382374434" lon="11.447943271939764"><ele>163.0</ele><time>2026-04-11T11:29:02Z</time></trkpt><trkpt lat="43.139370691825974" lon="11.447992636765983"><ele>162.0</ele><time>2026-04-11T11:29:03Z</time></trkpt><trkpt lat="43.13934263370215" lon="11.448077629179776"><ele>161.0</ele><time>2026-04-11T11:29:04Z</time></trkpt><trkpt lat="43.13933656880646" lon="11.448173706795528"><ele>160.0</ele><time>2026-04-11T11:29:05Z</time></trkpt><trkpt lat="43.139310740105245" lon="11.448257173004196"><ele>160.0</ele><time>2026-04-11T11:29:06Z</time></trkpt><trkpt lat="43.13929633278408" lon="11.448345114440864"><ele>160.0</ele><time>2026-04-11T11:29:07Z</time></trkpt><trkpt lat="43.139276366139626" lon="11.448522122190822"><ele>160.0</ele><time>2026-04-11T11:29:09Z</time></trkpt><trkpt lat="43.139270059429236" lon="11.448613738466834"><ele>160.0</ele><time>2026-04-11T11:29:10Z</time></trkpt><trkpt lat="43.13926556096951" lon="11.448704209777722"><ele>160.0</ele><time>2026-04-11T11:29:11Z</time></trkpt><trkpt lat="43.139262284577065" lon="11.448800093851464"><ele>160.0</ele><time>2026-04-11T11:29:12Z</time></trkpt><trkpt lat="43.13925999274964" lon="11.448895709649054"><ele>160.0</ele><time>2026-04-11T11:29:13Z</time></trkpt><trkpt lat="43.13925762505229" lon="11.44899449081109"><ele>160.0</ele><time>2026-04-11T11:29:14Z</time></trkpt><trkpt lat="43.13925527265827" lon="11.449092633426273"><ele>160.0</ele><time>2026-04-11T11:29:15Z</time></trkpt><trkpt lat="43.13925293342318" lon="11.449190227075178"><ele>160.0</ele><time>2026-04-11T11:29:16Z</time></trkpt><trkpt lat="43.13925068182784" lon="11.449288986027447"><ele>160.0</ele><time>2026-04-11T11:29:17Z</time></trkpt><trkpt lat="43.139249269233424" lon="11.44938761412496"><ele>160.0</ele><time>2026-04-11T11:29:18Z</time></trkpt><trkpt lat="43.13924783807654" lon="11.44948753822341"><ele>160.0</ele><time>2026-04-11T11:29:19Z</time></trkpt><trkpt lat="43.13926330133458" lon="11.44958776883657"><ele>160.0</ele><time>2026-04-11T11:29:20Z</time></trkpt><trkpt lat="43.1392469480886" lon="11.449683592509608"><ele>160.0</ele><time>2026-04-11T11:29:21Z</time></trkpt><trkpt lat="43.139247488908715" lon="11.44978144636847"><ele>160.0</ele><time>2026-04-11T11:29:22Z</time></trkpt><trkpt lat="43.13924879545777" lon="11.449876955143706"><ele>160.0</ele><time>2026-04-11T11:29:23Z</time></trkpt><trkpt lat="43.13926621691531" lon="11.449974038401168"><ele>160.0</ele><time>2026-04-11T11:29:24Z</time></trkpt><trkpt lat="43.13926749590928" lon="11.450067918487505"><ele>160.0</ele><time>2026-04-11T11:29:25Z</time></trkpt><trkpt lat="43.1392598130964" lon="11.45016787188921"><ele>160.0</ele><time>2026-04-11T11:29:26Z</time></trkpt><trkpt lat="43.139267552953996" lon="11.450262337854696"><ele>160.0</ele><time>2026-04-11T11:29:27Z</time></trkpt><trkpt lat="43.139274153863305" lon="11.450355414049966"><ele>160.0</ele><time>2026-04-11T11:29:28Z</time></trkpt><trkpt lat="43.139292936893646" lon="11.450450588546913"><ele>160.0</ele><time>2026-04-11T11:29:29Z</time></trkpt><trkpt lat="43.13927634808402" lon="11.450550107954951"><ele>160.0</ele><time>2026-04-11T11:29:30Z</time></trkpt><trkpt lat="43.13927230111518" lon="11.450640698108032"><ele>160.0</ele><time>2026-04-11T11:29:31Z</time></trkpt><trkpt lat="43.13926167601304" lon="11.450727782323654"><ele>160.0</ele><time>2026-04-11T11:29:32Z</time></trkpt><trkpt lat="43.13924224268492" lon="11.450813947476155"><ele>160.0</ele><time>2026-04-11T11:29:33Z</time></trkpt><trkpt lat="43.1391837611582" lon="11.450966146873492"><ele>160.4</ele><time>2026-04-11T11:29:35Z</time></trkpt><trkpt lat="43.13914757047132" lon="11.451040476555054"><ele>160.8</ele><time>2026-04-11T11:29:36Z</time></trkpt><trkpt lat="43.13907928430902" lon="11.451175338301743"><ele>161.2</ele><time>2026-04-11T11:29:38Z</time></trkpt><trkpt lat="43.139057181219336" lon="11.451258285475996"><ele>161.6</ele><time>2026-04-11T11:29:39Z</time></trkpt><trkpt lat="43.13897489490318" lon="11.451384085369492"><ele>162.0</ele><time>2026-04-11T11:29:41Z</time></trkpt><trkpt lat="43.13890427576072" lon="11.451525649646014"><ele>160.25</ele><time>2026-04-11T11:29:43Z</time></trkpt><trkpt lat="43.13883263150029" lon="11.451665819999459"><ele>158.5</ele><time>2026-04-11T11:29:45Z</time></trkpt><trkpt lat="43.13876216352996" lon="11.451801256837719"><ele>156.75</ele><time>2026-04-11T11:29:47Z</time></trkpt><trkpt lat="43.13869748938723" lon="11.451941731287397"><ele>155.0</ele><time>2026-04-11T11:29:49Z</time></trkpt><trkpt lat="43.13862336961829" lon="11.45206629391225"><ele>156.0</ele><time>2026-04-11T11:29:51Z</time></trkpt><trkpt lat="43.13854270663724" lon="11.452175466504265"><ele>157.0</ele><time>2026-04-11T11:29:53Z</time></trkpt><trkpt lat="43.13846179564009" lon="11.452281038083987"><ele>158.0</ele><time>2026-04-11T11:29:55Z</time></trkpt><trkpt lat="43.13837960804177" lon="11.45238922698645"><ele>159.0</ele><time>2026-04-11T11:29:57Z</time></trkpt><trkpt lat="43.13829248776446" lon="11.452486605766786"><ele>157.8</ele><time>2026-04-11T11:29:59Z</time></trkpt><trkpt lat="43.13820261979084" lon="11.452566611422744"><ele>156.60000000000002</ele><time>2026-04-11T11:30:00.999Z</time></trkpt><trkpt lat="43.1381511328238" lon="11.452617219181656"><ele>155.4</ele><time>2026-04-11T11:30:01.999Z</time></trkpt><trkpt lat="43.13803934391178" lon="11.452679177698048"><ele>154.20000000000002</ele><time>2026-04-11T11:30:03.999Z</time></trkpt><trkpt lat="43.13798955893031" lon="11.452734655066271"><ele>153.0</ele><time>2026-04-11T11:30:04.999Z</time></trkpt><trkpt lat="43.137874938999225" lon="11.452804911572771"><ele>153.0</ele><time>2026-04-11T11:30:06.999Z</time></trkpt><trkpt lat="43.13776633529869" lon="11.452878198370158"><ele>153.0</ele><time>2026-04-11T11:30:08.999Z</time></trkpt><trkpt lat="43.13765622792509" lon="11.45295174111356"><ele>153.0</ele><time>2026-04-11T11:30:10.999Z</time></trkpt><trkpt lat="43.13753851983885" lon="11.45301574042961"><ele>153.0</ele><time>2026-04-11T11:30:12.999Z</time></trkpt><trkpt lat="43.13742843294885" lon="11.453078714918707"><ele>153.0</ele><time>2026-04-11T11:30:14.999Z</time></trkpt><trkpt lat="43.137332774122754" lon="11.45316141968385"><ele>153.0</ele><time>2026-04-11T11:30:16.999Z</time></trkpt><trkpt lat="43.13727215167445" lon="11.453190102655526"><ele>153.0</ele><time>2026-04-11T11:30:17.999Z</time></trkpt><trkpt lat="43.13722800078812" lon="11.453256008522162"><ele>153.0</ele><time>2026-04-11T11:30:18.999Z</time></trkpt><trkpt lat="43.13712780019289" lon="11.453353363282325"><ele>153.0</ele><time>2026-04-11T11:30:20.999Z</time></trkpt><trkpt lat="43.13703409857358" lon="11.45345458760195"><ele>153.0</ele><time>2026-04-11T11:30:22.999Z</time></trkpt><trkpt lat="43.13694602061044" lon="11.453542497815691"><ele>153.0</ele><time>2026-04-11T11:30:24.999Z</time></trkpt><trkpt lat="43.13686274475495" lon="11.453626550188314"><ele>153.0</ele><time>2026-04-11T11:30:26.999Z</time></trkpt><trkpt lat="43.136783430701044" lon="11.453707821626395"><ele>153.0</ele><time>2026-04-11T11:30:28.999Z</time></trkpt><trkpt lat="43.13669677129805" lon="11.453804522360995"><ele>153.0</ele><time>2026-04-11T11:30:30.999Z</time></trkpt><trkpt lat="43.13661618554674" lon="11.453917573263237"><ele>152.6</ele><time>2026-04-11T11:30:32.999Z</time></trkpt><trkpt lat="43.13652545865949" lon="11.454019266053631"><ele>152.20000000000002</ele><time>2026-04-11T11:30:34.999Z</time></trkpt><trkpt lat="43.136484041779006" lon="11.454085392005949"><ele>151.8</ele><time>2026-04-11T11:30:35.999Z</time></trkpt><trkpt lat="43.13641102411091" lon="11.454209373934578"><ele>151.4</ele><time>2026-04-11T11:30:37.999Z</time></trkpt><trkpt lat="43.13633611293734" lon="11.45433463727375"><ele>151.0</ele><time>2026-04-11T11:30:39.999Z</time></trkpt><trkpt lat="43.136261550738936" lon="11.454461471850271"><ele>151.0</ele><time>2026-04-11T11:30:42Z</time></trkpt><trkpt lat="43.13619567765209" lon="11.454590156142018"><ele>151.0</ele><time>2026-04-11T11:30:44Z</time></trkpt><trkpt lat="43.13613325041917" lon="11.454715179609195"><ele>151.0</ele><time>2026-04-11T11:30:46Z</time></trkpt><trkpt lat="43.136073068681306" lon="11.454857388445523"><ele>151.0</ele><time>2026-04-11T11:30:48Z</time></trkpt><trkpt lat="43.13600389176302" lon="11.45498628008594"><ele>152.25</ele><time>2026-04-11T11:30:50Z</time></trkpt><trkpt lat="43.135945655417835" lon="11.455115478153052"><ele>153.5</ele><time>2026-04-11T11:30:52Z</time></trkpt><trkpt lat="43.13588064823093" lon="11.45525255221581"><ele>154.75</ele><time>2026-04-11T11:30:54Z</time></trkpt><trkpt lat="43.13581392740245" lon="11.455382273199813"><ele>156.0</ele><time>2026-04-11T11:30:56Z</time></trkpt><trkpt lat="43.13574312951935" lon="11.45549909170362"><ele>155.2</ele><time>2026-04-11T11:30:58Z</time></trkpt><trkpt lat="43.135662606571074" lon="11.455603645210296"><ele>154.39999999999998</ele><time>2026-04-11T11:31:00Z</time></trkpt><trkpt lat="43.13557883343815" lon="11.455707991882415"><ele>153.6</ele><time>2026-04-11T11:31:02Z</time></trkpt><trkpt lat="43.13549318446169" lon="11.455802190675549"><ele>152.79999999999998</ele><time>2026-04-11T11:31:04Z</time></trkpt><trkpt lat="43.13539936429174" lon="11.455887308150345"><ele>152.0</ele><time>2026-04-11T11:31:06Z</time></trkpt><trkpt lat="43.135350462161064" lon="11.455943107027116"><ele>152.0</ele><time>2026-04-11T11:31:07Z</time></trkpt><trkpt lat="43.13525223607282" lon="11.45603690208821"><ele>152.0</ele><time>2026-04-11T11:31:09Z</time></trkpt><trkpt lat="43.135156989384704" lon="11.45613752711297"><ele>152.0</ele><time>2026-04-11T11:31:11Z</time></trkpt><trkpt lat="43.13505943427781" lon="11.456232563815023"><ele>152.0</ele><time>2026-04-11T11:31:13Z</time></trkpt><trkpt lat="43.13497684130146" lon="11.45631988795222"><ele>152.0</ele><time>2026-04-11T11:31:15Z</time></trkpt><trkpt lat="43.13492989813035" lon="11.456378968818735"><ele>152.0</ele><time>2026-04-11T11:31:16Z</time></trkpt><trkpt lat="43.134835729963044" lon="11.4564765598127"><ele>152.0</ele><time>2026-04-11T11:31:18Z</time></trkpt><trkpt lat="43.1347373843096" lon="11.456575647761259"><ele>152.0</ele><time>2026-04-11T11:31:20Z</time></trkpt><trkpt lat="43.13463875940643" lon="11.456677567569512"><ele>152.0</ele><time>2026-04-11T11:31:22Z</time></trkpt><trkpt lat="43.1345421802003" lon="11.456781147818738"><ele>152.0</ele><time>2026-04-11T11:31:24Z</time></trkpt><trkpt lat="43.13444153847925" lon="11.456874438523073"><ele>152.0</ele><time>2026-04-11T11:31:26Z</time></trkpt><trkpt lat="43.1343414026831" lon="11.456966746339312"><ele>152.0</ele><time>2026-04-11T11:31:28Z</time></trkpt><trkpt lat="43.134246162553254" lon="11.457070023142503"><ele>152.0</ele><time>2026-04-11T11:31:30Z</time></trkpt><trkpt lat="43.134154503699925" lon="11.457154961610607"><ele>151.5</ele><time>2026-04-11T11:31:32Z</time></trkpt><trkpt lat="43.13406345692309" lon="11.457248516809477"><ele>151.0</ele><time>2026-04-11T11:31:34Z</time></trkpt><trkpt lat="43.13397063187347" lon="11.45735116847217"><ele>150.5</ele><time>2026-04-11T11:31:36Z</time></trkpt><trkpt lat="43.133875606267395" lon="11.457438892061099"><ele>150.0</ele><time>2026-04-11T11:31:38Z</time></trkpt><trkpt lat="43.13378081225453" lon="11.457529849019352"><ele>150.0</ele><time>2026-04-11T11:31:40Z</time></trkpt><trkpt lat="43.13368236045397" lon="11.457622108388442"><ele>150.0</ele><time>2026-04-11T11:31:42Z</time></trkpt><trkpt lat="43.13358603727908" lon="11.45771297077236"><ele>150.0</ele><time>2026-04-11T11:31:44Z</time></trkpt><trkpt lat="43.13348966392412" lon="11.457796184093821"><ele>150.0</ele><time>2026-04-11T11:31:46Z</time></trkpt><trkpt lat="43.13339215473742" lon="11.457882859110786"><ele>149.25</ele><time>2026-04-11T11:31:48Z</time></trkpt><trkpt lat="43.13329836223121" lon="11.457972490335491"><ele>148.5</ele><time>2026-04-11T11:31:50Z</time></trkpt><trkpt lat="43.13319835517216" lon="11.458060319859836"><ele>147.75</ele><time>2026-04-11T11:31:52Z</time></trkpt><trkpt lat="43.133103703425704" lon="11.458166296211715"><ele>147.0</ele><time>2026-04-11T11:31:54Z</time></trkpt><trkpt lat="43.1330198675668" lon="11.458278255270274"><ele>147.0</ele><time>2026-04-11T11:31:56Z</time></trkpt><trkpt lat="43.13297019810398" lon="11.45833379529973"><ele>147.0</ele><time>2026-04-11T11:31:57Z</time></trkpt><trkpt lat="43.13287808318096" lon="11.458436778224227"><ele>147.0</ele><time>2026-04-11T11:31:59Z</time></trkpt><trkpt lat="43.13279193475303" lon="11.458543584429679"><ele>147.0</ele><time>2026-04-11T11:32:01Z</time></trkpt><trkpt lat="43.13271002593438" lon="11.458660840764855"><ele>147.0</ele><time>2026-04-11T11:32:03Z</time></trkpt><trkpt lat="43.132635741231624" lon="11.458770719876876"><ele>148.0</ele><time>2026-04-11T11:32:04.999Z</time></trkpt><trkpt lat="43.13260370608386" lon="11.458845699548933"><ele>149.0</ele><time>2026-04-11T11:32:05.999Z</time></trkpt><trkpt lat="43.13254100781376" lon="11.458978268907195"><ele>150.0</ele><time>2026-04-11T11:32:07.999Z</time></trkpt><trkpt lat="43.132490574419066" lon="11.459130827135223"><ele>151.0</ele><time>2026-04-11T11:32:09.999Z</time></trkpt><trkpt lat="43.13245317748966" lon="11.459277477783463"><ele>152.0</ele><time>2026-04-11T11:32:11.999Z</time></trkpt><trkpt lat="43.13242596269925" lon="11.459424112031508"><ele>152.0</ele><time>2026-04-11T11:32:13.999Z</time></trkpt><trkpt lat="43.13240246176673" lon="11.459530414244322"><ele>152.0</ele><time>2026-04-11T11:32:15.999Z</time></trkpt><trkpt lat="43.132380231509835" lon="11.45962109937773"><ele>152.0</ele><time>2026-04-11T11:32:16.999Z</time></trkpt><trkpt lat="43.13233515124291" lon="11.459769263188392"><ele>152.0</ele><time>2026-04-11T11:32:18.999Z</time></trkpt><trkpt lat="43.132316038338956" lon="11.459921373875417"><ele>152.0</ele><time>2026-04-11T11:32:20.999Z</time></trkpt><trkpt lat="43.13227555924334" lon="11.460065713858548"><ele>150.79999999999998</ele><time>2026-04-11T11:32:22.999Z</time></trkpt><trkpt lat="43.132239215806365" lon="11.4602148421495"><ele>149.6</ele><time>2026-04-11T11:32:24.999Z</time></trkpt><trkpt lat="43.13221110066762" lon="11.460341678883708"><ele>148.39999999999998</ele><time>2026-04-11T11:32:26.999Z</time></trkpt><trkpt lat="43.13217815220693" lon="11.46047598602261"><ele>147.2</ele><time>2026-04-11T11:32:28.999Z</time></trkpt><trkpt lat="43.13214150201378" lon="11.460609208605009"><ele>146.0</ele><time>2026-04-11T11:32:30.999Z</time></trkpt><trkpt lat="43.132116500938054" lon="11.460748261569854"><ele>146.0</ele><time>2026-04-11T11:32:32.999Z</time></trkpt><trkpt lat="43.13209897843238" lon="11.460893255089948"><ele>146.0</ele><time>2026-04-11T11:32:34.999Z</time></trkpt><trkpt lat="43.132089747852255" lon="11.461056319548169"><ele>146.0</ele><time>2026-04-11T11:32:36.999Z</time></trkpt><trkpt lat="43.13209521814418" lon="11.461144809613476"><ele>146.0</ele><time>2026-04-11T11:32:37.999Z</time></trkpt><trkpt lat="43.1321027775981" lon="11.46123160341386"><ele>146.0</ele><time>2026-04-11T11:32:38.999Z</time></trkpt><trkpt lat="43.132115179592915" lon="11.461331968260838"><ele>146.0</ele><time>2026-04-11T11:32:39.999Z</time></trkpt><trkpt lat="43.13212729492739" lon="11.461430013270661"><ele>146.0</ele><time>2026-04-11T11:32:40.999Z</time></trkpt><trkpt lat="43.132139034390086" lon="11.461525016464485"><ele>146.0</ele><time>2026-04-11T11:32:41.999Z</time></trkpt><trkpt lat="43.13214879336071" lon="11.461689201480418"><ele>146.0</ele><time>2026-04-11T11:32:43.999Z</time></trkpt><trkpt lat="43.132140622636314" lon="11.461818850705074"><ele>146.0</ele><time>2026-04-11T11:32:45.999Z</time></trkpt><trkpt lat="43.132134682339206" lon="11.461905618768785"><ele>146.0</ele><time>2026-04-11T11:32:49Z</time></trkpt><trkpt lat="43.13204615518139" lon="11.461869761175695"><ele>146.0</ele><time>2026-04-11T11:32:53Z</time></trkpt><trkpt lat="43.1320155386794" lon="11.461788167365663"><ele>146.0</ele><time>2026-04-11T11:32:55Z</time></trkpt><trkpt lat="43.13197139199851" lon="11.461704252664653"><ele>146.0</ele><time>2026-04-11T11:32:57Z</time></trkpt><trkpt lat="43.13192036741562" lon="11.461623171335855"><ele>146.0</ele><time>2026-04-11T11:32:59Z</time></trkpt><trkpt lat="43.13187743464203" lon="11.461538871407338"><ele>146.0</ele><time>2026-04-11T11:33:01Z</time></trkpt><trkpt lat="43.131812884741905" lon="11.461424160434762"><ele>146.0</ele><time>2026-04-11T11:33:04Z</time></trkpt><trkpt lat="43.131746337936264" lon="11.461360641364598"><ele>146.0</ele><time>2026-04-11T11:33:06Z</time></trkpt><trkpt lat="43.131503719961714" lon="11.461535945838623"><ele>145.57142857142856</ele><time>2026-04-11T11:33:07Z</time></trkpt><trkpt lat="43.131438351765055" lon="11.461498968664916"><ele>145.14285714285714</ele><time>2026-04-11T11:33:08Z</time></trkpt><trkpt lat="43.13137534403506" lon="11.461460156744154"><ele>144.71428571428572</ele><time>2026-04-11T11:33:09Z</time></trkpt><trkpt lat="43.13131515321723" lon="11.46139901181176"><ele>144.28571428571428</ele><time>2026-04-11T11:33:10Z</time></trkpt><trkpt lat="43.13126983689889" lon="11.461310764879071"><ele>143.85714285714286</ele><time>2026-04-11T11:33:11Z</time></trkpt><trkpt lat="43.13123201929295" lon="11.461232089953608"><ele>143.42857142857142</ele><time>2026-04-11T11:33:12Z</time></trkpt><trkpt lat="43.13119289211663" lon="11.461153747885305"><ele>143.0</ele><time>2026-04-11T11:33:13Z</time></trkpt><trkpt lat="43.1311585844851" lon="11.461080966584026"><ele>143.0</ele><time>2026-04-11T11:33:14Z</time></trkpt><trkpt lat="43.13112113602629" lon="11.461008405377655"><ele>143.0</ele><time>2026-04-11T11:33:15Z</time></trkpt><trkpt lat="43.1310406280402" lon="11.460905604078068"><ele>143.0</ele><time>2026-04-11T11:33:17Z</time></trkpt><trkpt lat="43.13093691368166" lon="11.460831770775904"><ele>143.0</ele><time>2026-04-11T11:33:19Z</time></trkpt><trkpt lat="43.13083651861639" lon="11.46080295187344"><ele>143.0</ele><time>2026-04-11T11:33:21Z</time></trkpt><trkpt lat="43.130732496306024" lon="11.460790351695529"><ele>142.83333333333331</ele><time>2026-04-11T11:33:23Z</time></trkpt><trkpt lat="43.13062484666467" lon="11.460750641901138"><ele>142.66666666666666</ele><time>2026-04-11T11:33:25Z</time></trkpt><trkpt lat="43.130548663542534" lon="11.460689692569542"><ele>142.5</ele><time>2026-04-11T11:33:27Z</time></trkpt><trkpt lat="43.13049158618399" lon="11.460599785341495"><ele>142.33333333333334</ele><time>2026-04-11T11:33:29Z</time></trkpt><trkpt lat="43.13044942588577" lon="11.460504333210608"><ele>142.16666666666669</ele><time>2026-04-11T11:33:31Z</time></trkpt><trkpt lat="43.13041469956177" lon="11.460404561578535"><ele>142.0</ele><time>2026-04-11T11:33:34Z</time></trkpt><trkpt lat="43.13038693383521" lon="11.460303856267656"><ele>142.33333333333334</ele><time>2026-04-11T11:33:37Z</time></trkpt><trkpt lat="43.13033482854105" lon="11.460235544480446"><ele>142.66666666666669</ele><time>2026-04-11T11:35:27Z</time></trkpt><trkpt lat="43.13033469899454" lon="11.460147679792312"><ele>143.0</ele><time>2026-04-11T11:35:45Z</time></trkpt><trkpt lat="43.13032543018971" lon="11.46004760125528"><ele>143.33333333333334</ele><time>2026-04-11T11:35:49Z</time></trkpt><trkpt lat="43.130310532197015" lon="11.459935859237481"><ele>143.66666666666666</ele><time>2026-04-11T11:35:52Z</time></trkpt><trkpt lat="43.130288395295665" lon="11.459810022880548"><ele>144.0</ele><time>2026-04-11T11:35:55Z</time></trkpt><trkpt lat="43.130264124555616" lon="11.459721751038499"><ele>144.16666666666666</ele><time>2026-04-11T11:35:57Z</time></trkpt><trkpt lat="43.130240188013985" lon="11.459588963136923"><ele>144.33333333333334</ele><time>2026-04-11T11:36:00Z</time></trkpt><trkpt lat="43.13021880273233" lon="11.459489418444988"><ele>144.5</ele><time>2026-04-11T11:36:02Z</time></trkpt><trkpt lat="43.13020398505704" lon="11.459399119831383"><ele>144.66666666666669</ele><time>2026-04-11T11:36:04Z</time></trkpt><trkpt lat="43.13018468418604" lon="11.459314900838375"><ele>144.83333333333334</ele><time>2026-04-11T11:36:06Z</time></trkpt><trkpt lat="43.130163518655415" lon="11.459191779329736"><ele>145.0</ele><time>2026-04-11T11:36:09Z</time></trkpt><trkpt lat="43.1301399737965" lon="11.459077230362444"><ele>147.0</ele><time>2026-04-11T11:36:12Z</time></trkpt><trkpt lat="43.13031172352988" lon="11.458754911319508"><ele>149.0</ele><time>2026-04-11T11:36:15Z</time></trkpt><trkpt lat="43.130261725287376" lon="11.458666959675783"><ele>151.0</ele><time>2026-04-11T11:36:17.999Z</time></trkpt><trkpt lat="43.130212910770325" lon="11.458580883304252"><ele>151.00000000000003</ele><time>2026-04-11T11:36:20.999Z</time></trkpt><trkpt lat="43.1301684357499" lon="11.458502458895982"><ele>151.0</ele><time>2026-04-11T11:36:23.999Z</time></trkpt><trkpt lat="43.1301281410631" lon="11.458431787349273"><ele>151.0</ele><time>2026-04-11T11:36:26.999Z</time></trkpt><trkpt lat="43.13008486838738" lon="11.458355967119255"><ele>151.0</ele><time>2026-04-11T11:36:30.999Z</time></trkpt><trkpt lat="43.130044860757955" lon="11.458285867737738"><ele>151.0</ele><time>2026-04-11T11:36:35.999Z</time></trkpt><trkpt lat="43.1300175254671" lon="11.458203936878917"><ele>151.00000000000003</ele><time>2026-04-11T11:36:39.999Z</time></trkpt><trkpt lat="43.12997852323853" lon="11.458129995585454"><ele>151.0</ele><time>2026-04-11T11:36:43.999Z</time></trkpt><trkpt lat="43.12993227265554" lon="11.458064393505614"><ele>151.85714285714286</ele><time>2026-04-11T11:36:46.999Z</time></trkpt><trkpt lat="43.12989103648226" lon="11.457984387881185"><ele>152.71428571428572</ele><time>2026-04-11T11:36:50.999Z</time></trkpt><trkpt lat="43.12983914972414" lon="11.457913151163778"><ele>153.57142857142856</ele><time>2026-04-11T11:36:54.999Z</time></trkpt><trkpt lat="43.1297898554215" lon="11.457831051865174"><ele>154.42857142857144</ele><time>2026-04-11T11:36:58.999Z</time></trkpt><trkpt lat="43.12974430111735" lon="11.457760475960905"><ele>155.28571428571428</ele><time>2026-04-11T11:37:03Z</time></trkpt><trkpt lat="43.12970115703769" lon="11.457693482884833"><ele>156.14285714285714</ele><time>2026-04-11T11:37:07Z</time></trkpt><trkpt lat="43.12965959135564" lon="11.457621987621176"><ele>157.0</ele><time>2026-04-11T11:37:11Z</time></trkpt><trkpt lat="43.129611087740805" lon="11.457542059498575"><ele>157.57142857142856</ele><time>2026-04-11T11:37:15Z</time></trkpt><trkpt lat="43.129567673274515" lon="11.457462788155196"><ele>158.14285714285714</ele><time>2026-04-11T11:37:19Z</time></trkpt><trkpt lat="43.12952429949601" lon="11.457385443219277"><ele>158.71428571428572</ele><time>2026-04-11T11:37:23Z</time></trkpt><trkpt lat="43.12948304699511" lon="11.457303815077507"><ele>159.28571428571428</ele><time>2026-04-11T11:37:27Z</time></trkpt><trkpt lat="43.12943739538305" lon="11.457237050958986"><ele>159.85714285714286</ele><time>2026-04-11T11:37:31Z</time></trkpt><trkpt lat="43.129397261143474" lon="11.457163201002219"><ele>160.42857142857142</ele><time>2026-04-11T11:37:35Z</time></trkpt><trkpt lat="43.12935421743592" lon="11.457088104356506"><ele>161.0</ele><time>2026-04-11T11:37:39Z</time></trkpt><trkpt lat="43.12931286731906" lon="11.457013583940052"><ele>161.28571428571428</ele><time>2026-04-11T11:37:43Z</time></trkpt><trkpt lat="43.12927390339938" lon="11.456943563146755"><ele>161.57142857142856</ele><time>2026-04-11T11:37:47Z</time></trkpt><trkpt lat="43.12923486378867" lon="11.456870722995795"><ele>161.85714285714286</ele><time>2026-04-11T11:37:51Z</time></trkpt><trkpt lat="43.12918851238334" lon="11.456794334618246"><ele>162.14285714285714</ele><time>2026-04-11T11:37:55Z</time></trkpt><trkpt lat="43.12914487705587" lon="11.456714978980273"><ele>162.42857142857142</ele><time>2026-04-11T11:37:59Z</time></trkpt><trkpt lat="43.129103318368976" lon="11.456637170390376"><ele>162.71428571428572</ele><time>2026-04-11T11:38:03Z</time></trkpt><trkpt lat="43.12905664088295" lon="11.456562633579983"><ele>163.0</ele><time>2026-04-11T11:38:07Z</time></trkpt><trkpt lat="43.12901668534537" lon="11.456481724660105"><ele>164.42857142857144</ele><time>2026-04-11T11:38:11Z</time></trkpt><trkpt lat="43.12896450571691" lon="11.456401850503372"><ele>165.85714285714283</ele><time>2026-04-11T11:38:16Z</time></trkpt><trkpt lat="43.128927395940195" lon="11.456320775214033"><ele>167.28571428571428</ele><time>2026-04-11T11:38:20Z</time></trkpt><trkpt lat="43.12888568598819" lon="11.456255730368941"><ele>168.71428571428572</ele><time>2026-04-11T11:38:24Z</time></trkpt><trkpt lat="43.12884822217992" lon="11.456165614746206"><ele>170.14285714285717</ele><time>2026-04-11T11:38:28.999Z</time></trkpt><trkpt lat="43.12880765542917" lon="11.456098961839594"><ele>171.57142857142856</ele><time>2026-04-11T11:38:32.999Z</time></trkpt><trkpt lat="43.12876597174405" lon="11.456033218244555"><ele>173.0</ele><time>2026-04-11T11:38:36.999Z</time></trkpt><trkpt lat="43.12872030513574" lon="11.455948920219036"><ele>173.28571428571428</ele><time>2026-04-11T11:38:41.999Z</time></trkpt><trkpt lat="43.12868105189817" lon="11.455878867800246"><ele>173.57142857142858</ele><time>2026-04-11T11:38:45.999Z</time></trkpt><trkpt lat="43.12863533970016" lon="11.455805805990552"><ele>173.85714285714286</ele><time>2026-04-11T11:38:50.999Z</time></trkpt><trkpt lat="43.1285891492962" lon="11.455739400788508"><ele>174.14285714285714</ele><time>2026-04-11T11:38:55.999Z</time></trkpt><trkpt lat="43.12854243991438" lon="11.455668005468224"><ele>174.42857142857144</ele><time>2026-04-11T11:39:00.999Z</time></trkpt><trkpt lat="43.128500489393495" lon="11.455599610839698"><ele>174.71428571428572</ele><time>2026-04-11T11:39:06Z</time></trkpt><trkpt lat="43.128440526762205" lon="11.455541368315455"><ele>175.0</ele><time>2026-04-11T11:39:12Z</time></trkpt><trkpt lat="43.12837854049667" lon="11.455494407335026"><ele>175.42857142857142</ele><time>2026-04-11T11:39:17Z</time></trkpt><trkpt lat="43.12831245552842" lon="11.455444251400964"><ele>175.85714285714286</ele><time>2026-04-11T11:39:23Z</time></trkpt><trkpt lat="43.128247518684006" lon="11.455410105353515"><ele>176.28571428571428</ele><time>2026-04-11T11:39:28Z</time></trkpt><trkpt lat="43.12817920162612" lon="11.455379707288094"><ele>176.71428571428572</ele><time>2026-04-11T11:39:33Z</time></trkpt><trkpt lat="43.12811682899599" lon="11.455349958764256"><ele>177.14285714285714</ele><time>2026-04-11T11:39:38Z</time></trkpt><trkpt lat="43.12805101499551" lon="11.455320489511681"><ele>177.57142857142856</ele><time>2026-04-11T11:39:43Z</time></trkpt><trkpt lat="43.12798729195827" lon="11.45529582300183"><ele>178.0</ele><time>2026-04-11T11:39:48Z</time></trkpt><trkpt lat="43.127926396279356" lon="11.455264193523208"><ele>180.14285714285714</ele><time>2026-04-11T11:39:53Z</time></trkpt><trkpt lat="43.12785633789632" lon="11.45523342285954"><ele>182.28571428571428</ele><time>2026-04-11T11:39:58Z</time></trkpt><trkpt lat="43.12778616957265" lon="11.455204149547843"><ele>184.42857142857144</ele><time>2026-04-11T11:40:03Z</time></trkpt><trkpt lat="43.12772357686406" lon="11.455171494566201"><ele>186.57142857142856</ele><time>2026-04-11T11:40:08Z</time></trkpt><trkpt lat="43.12766082056545" lon="11.455143398085974"><ele>188.71428571428572</ele><time>2026-04-11T11:40:13Z</time></trkpt><trkpt lat="43.127597335171615" lon="11.455118406234124"><ele>190.85714285714286</ele><time>2026-04-11T11:40:18Z</time></trkpt><trkpt lat="43.12753476099922" lon="11.45506914249179"><ele>193.0</ele><time>2026-04-11T11:40:24Z</time></trkpt><trkpt lat="43.12746550487789" lon="11.455038206556209"><ele>193.00000000000003</ele><time>2026-04-11T11:40:30Z</time></trkpt><trkpt lat="43.127396586273086" lon="11.45500561661632"><ele>193.0</ele><time>2026-04-11T11:40:36Z</time></trkpt><trkpt lat="43.12732968639077" lon="11.455016474594867"><ele>193.0</ele><time>2026-04-11T11:40:40.999Z</time></trkpt><trkpt lat="43.127273300238684" lon="11.454972480063146"><ele>193.0</ele><time>2026-04-11T11:40:46.999Z</time></trkpt><trkpt lat="43.12721853518631" lon="11.454921505162735"><ele>193.0</ele><time>2026-04-11T11:40:52.999Z</time></trkpt><trkpt lat="43.12715782020854" lon="11.45486375233751"><ele>193.00000000000003</ele><time>2026-04-11T11:40:58.999Z</time></trkpt><trkpt lat="43.12710831258394" lon="11.454804201360378"><ele>193.0</ele><time>2026-04-11T11:41:03.999Z</time></trkpt><trkpt lat="43.12706106153661" lon="11.454742260141007"><ele>194.57142857142858</ele><time>2026-04-11T11:41:08.999Z</time></trkpt><trkpt lat="43.1270290782132" lon="11.454666429068864"><ele>196.14285714285714</ele><time>2026-04-11T11:41:14Z</time></trkpt><trkpt lat="43.12700049384886" lon="11.454588775996614"><ele>197.71428571428572</ele><time>2026-04-11T11:41:19Z</time></trkpt><trkpt lat="43.126948495301896" lon="11.454522651542554"><ele>199.28571428571428</ele><time>2026-04-11T11:41:25Z</time></trkpt><trkpt lat="43.12691502025515" lon="11.45443888787637"><ele>200.85714285714286</ele><time>2026-04-11T11:41:30Z</time></trkpt><trkpt lat="43.12688140173419" lon="11.454361077689576"><ele>202.42857142857144</ele><time>2026-04-11T11:41:35Z</time></trkpt><trkpt lat="43.12685394546137" lon="11.454275532374075"><ele>204.0</ele><time>2026-04-11T11:41:40Z</time></trkpt><trkpt lat="43.12683360315188" lon="11.454186317912203"><ele>205.28571428571428</ele><time>2026-04-11T11:41:45Z</time></trkpt><trkpt lat="43.12680854069911" lon="11.454105633372322"><ele>206.57142857142858</ele><time>2026-04-11T11:41:50Z</time></trkpt><trkpt lat="43.12680353141283" lon="11.45400914149366"><ele>207.85714285714283</ele><time>2026-04-11T11:41:55Z</time></trkpt><trkpt lat="43.1268059669046" lon="11.45391122142138"><ele>209.14285714285714</ele><time>2026-04-11T11:42:00Z</time></trkpt><trkpt lat="43.126793183910294" lon="11.453821487873396"><ele>210.42857142857142</ele><time>2026-04-11T11:42:05Z</time></trkpt><trkpt lat="43.12678407770694" lon="11.45372620057259"><ele>211.7142857142857</ele><time>2026-04-11T11:42:10Z</time></trkpt><trkpt lat="43.12678800981041" lon="11.453630279606465"><ele>213.0</ele><time>2026-04-11T11:42:15Z</time></trkpt><trkpt lat="43.12678594822354" lon="11.45353804338712"><ele>213.85714285714283</ele><time>2026-04-11T11:42:20Z</time></trkpt><trkpt lat="43.126775341850944" lon="11.45344081342446"><ele>214.71428571428572</ele><time>2026-04-11T11:42:25Z</time></trkpt><trkpt lat="43.12677210984078" lon="11.453336550332468"><ele>215.57142857142856</ele><time>2026-04-11T11:42:30Z</time></trkpt><trkpt lat="43.12676513682066" lon="11.453232792637893"><ele>216.42857142857142</ele><time>2026-04-11T11:42:35Z</time></trkpt><trkpt lat="43.12676531148619" lon="11.4531463764362"><ele>217.28571428571428</ele><time>2026-04-11T11:42:39Z</time></trkpt><trkpt lat="43.1267675566045" lon="11.453059593496699"><ele>218.14285714285714</ele><time>2026-04-11T11:42:42.999Z</time></trkpt><trkpt lat="43.12676805533746" lon="11.452970524265659"><ele>219.0</ele><time>2026-04-11T11:42:46.999Z</time></trkpt><trkpt lat="43.12676452626506" lon="11.452861024528486"><ele>219.42857142857144</ele><time>2026-04-11T11:42:51.999Z</time></trkpt><trkpt lat="43.1267674153101" lon="11.452774680788032"><ele>219.85714285714283</ele><time>2026-04-11T11:42:55.999Z</time></trkpt><trkpt lat="43.12678205272811" lon="11.452673250517087"><ele>220.28571428571428</ele><time>2026-04-11T11:42:59.999Z</time></trkpt><trkpt lat="43.126782652270954" lon="11.452581950684047"><ele>220.71428571428572</ele><time>2026-04-11T11:43:02.999Z</time></trkpt><trkpt lat="43.12678343053072" lon="11.452483096618705"><ele>221.14285714285717</ele><time>2026-04-11T11:43:05.999Z</time></trkpt><trkpt lat="43.1267785768487" lon="11.452383590781643"><ele>221.57142857142856</ele><time>2026-04-11T11:43:08.999Z</time></trkpt><trkpt lat="43.12678034939811" lon="11.452283698386697"><ele>222.0</ele><time>2026-04-11T11:43:11.999Z</time></trkpt><trkpt lat="43.12677491979185" lon="11.452184685030243"><ele>222.42857142857142</ele><time>2026-04-11T11:43:14.999Z</time></trkpt><trkpt lat="43.126760713265504" lon="11.452092560001107"><ele>222.8571428571429</ele><time>2026-04-11T11:43:18Z</time></trkpt><trkpt lat="43.12675515587063" lon="11.452002734410032"><ele>223.2857142857143</ele><time>2026-04-11T11:43:21Z</time></trkpt><trkpt lat="43.12674919850381" lon="11.451911655987168"><ele>223.71428571428572</ele><time>2026-04-11T11:43:24Z</time></trkpt><trkpt lat="43.126740230103174" lon="11.451817295416562"><ele>224.14285714285717</ele><time>2026-04-11T11:43:27Z</time></trkpt><trkpt lat="43.12672738194508" lon="11.451727100053473"><ele>224.5714285714286</ele><time>2026-04-11T11:43:30Z</time></trkpt><trkpt lat="43.126718002900894" lon="11.4516383802911"><ele>225.00000000000003</ele><time>2026-04-11T11:43:33Z</time></trkpt><trkpt lat="43.12670935598252" lon="11.451546412430595"><ele>225.0</ele><time>2026-04-11T11:43:36Z</time></trkpt><trkpt lat="43.126698637110756" lon="11.451459463291904"><ele>225.0</ele><time>2026-04-11T11:43:39Z</time></trkpt><trkpt lat="43.12668390311851" lon="11.451373375582033"><ele>225.0</ele><time>2026-04-11T11:43:42Z</time></trkpt><trkpt lat="43.126663911567654" lon="11.451262898808714"><ele>225.0</ele><time>2026-04-11T11:43:46Z</time></trkpt><trkpt lat="43.126633537433214" lon="11.451158325910514"><ele>225.0</ele><time>2026-04-11T11:43:50Z</time></trkpt><trkpt lat="43.12659790903596" lon="11.451062468758419"><ele>225.0</ele><time>2026-04-11T11:43:54Z</time></trkpt><trkpt lat="43.1265681097591" lon="11.450964071836182"><ele>225.00000000000003</ele><time>2026-04-11T11:43:58Z</time></trkpt><trkpt lat="43.12654313960103" lon="11.450870900894314"><ele>225.0</ele><time>2026-04-11T11:44:02Z</time></trkpt><trkpt lat="43.12650893837585" lon="11.450774870992282"><ele>225.00000000000003</ele><time>2026-04-11T11:44:06Z</time></trkpt><trkpt lat="43.12648433822649" lon="11.450684161463208"><ele>225.00000000000003</ele><time>2026-04-11T11:44:10Z</time></trkpt><trkpt lat="43.12644460088715" lon="11.450593640406732"><ele>225.0</ele><time>2026-04-11T11:44:14Z</time></trkpt><trkpt lat="43.12641697094457" lon="11.450498698886014"><ele>225.00000000000003</ele><time>2026-04-11T11:44:18Z</time></trkpt><trkpt lat="43.126386468208494" lon="11.450405715794192"><ele>225.00000000000003</ele><time>2026-04-11T11:44:22Z</time></trkpt><trkpt lat="43.126357112532276" lon="11.450309489625669"><ele>226.0</ele><time>2026-04-11T11:44:26Z</time></trkpt><trkpt lat="43.12632810321568" lon="11.450215398105154"><ele>227.0</ele><time>2026-04-11T11:44:30Z</time></trkpt><trkpt lat="43.12630718481375" lon="11.450118300060131"><ele>228.0</ele><time>2026-04-11T11:44:34Z</time></trkpt><trkpt lat="43.126276956192704" lon="11.450022776505081"><ele>229.0</ele><time>2026-04-11T11:44:38Z</time></trkpt><trkpt lat="43.12624793098986" lon="11.449925416806352"><ele>230.0</ele><time>2026-04-11T11:44:42Z</time></trkpt><trkpt lat="43.12621582468006" lon="11.449829613825399"><ele>231.0</ele><time>2026-04-11T11:44:45.999Z</time></trkpt><trkpt lat="43.12618884541781" lon="11.449732211300788"><ele>231.0</ele><time>2026-04-11T11:44:49.999Z</time></trkpt><trkpt lat="43.126159205049454" lon="11.449634599383977"><ele>231.0</ele><time>2026-04-11T11:44:53.999Z</time></trkpt><trkpt lat="43.126119625017374" lon="11.44954969509792"><ele>231.0</ele><time>2026-04-11T11:44:57.999Z</time></trkpt><trkpt lat="43.12607900548117" lon="11.44947083608887"><ele>231.0</ele><time>2026-04-11T11:45:01.999Z</time></trkpt><trkpt lat="43.126041326026275" lon="11.449383427505515"><ele>231.0</ele><time>2026-04-11T11:45:05.999Z</time></trkpt><trkpt lat="43.12597946640948" lon="11.449317972319752"><ele>231.0</ele><time>2026-04-11T11:45:09.999Z</time></trkpt><trkpt lat="43.125924683504" lon="11.449263620607706"><ele>231.0</ele><time>2026-04-11T11:45:12.999Z</time></trkpt><trkpt lat="43.12586164320918" lon="11.449230479252757"><ele>232.14285714285714</ele><time>2026-04-11T11:45:15.999Z</time></trkpt><trkpt lat="43.125799397510875" lon="11.449193599870242"><ele>233.28571428571428</ele><time>2026-04-11T11:45:18.999Z</time></trkpt><trkpt lat="43.12573087852481" lon="11.449153781128743"><ele>234.42857142857144</ele><time>2026-04-11T11:45:21.999Z</time></trkpt><trkpt lat="43.12566973108483" lon="11.44913026154956"><ele>235.57142857142858</ele><time>2026-04-11T11:45:25Z</time></trkpt><trkpt lat="43.12558841982884" lon="11.449113959226388"><ele>236.71428571428572</ele><time>2026-04-11T11:45:29Z</time></trkpt><trkpt lat="43.125520126875884" lon="11.44907393668068"><ele>237.8571428571429</ele><time>2026-04-11T11:45:32Z</time></trkpt><trkpt lat="43.12545218994239" lon="11.449051725207147"><ele>239.00000000000003</ele><time>2026-04-11T11:45:35Z</time></trkpt><trkpt lat="43.12538240759348" lon="11.449034536385236"><ele>239.00000000000003</ele><time>2026-04-11T11:45:38Z</time></trkpt><trkpt lat="43.12530151982976" lon="11.449015473686018"><ele>239.0</ele><time>2026-04-11T11:45:41Z</time></trkpt><trkpt lat="43.12521854833471" lon="11.448972653252184"><ele>239.0</ele><time>2026-04-11T11:45:44Z</time></trkpt><trkpt lat="43.125132163373934" lon="11.448935010363416"><ele>239.0</ele><time>2026-04-11T11:45:47Z</time></trkpt><trkpt lat="43.12506365725166" lon="11.448912515839964"><ele>239.00000000000003</ele><time>2026-04-11T11:45:49Z</time></trkpt><trkpt lat="43.1249902403691" lon="11.448878146792136"><ele>239.0</ele><time>2026-04-11T11:45:51Z</time></trkpt><trkpt lat="43.12491944733912" lon="11.448848448853003"><ele>239.16666666666669</ele><time>2026-04-11T11:45:53Z</time></trkpt><trkpt lat="43.124849245041815" lon="11.448812212766715"><ele>239.33333333333334</ele><time>2026-04-11T11:45:55Z</time></trkpt><trkpt lat="43.124778643685914" lon="11.448777240862539"><ele>239.5</ele><time>2026-04-11T11:45:57Z</time></trkpt><trkpt lat="43.12470078581797" lon="11.448761910662707"><ele>239.66666666666669</ele><time>2026-04-11T11:45:59Z</time></trkpt><trkpt lat="43.124631632625686" lon="11.448785130807149"><ele>239.83333333333334</ele><time>2026-04-11T11:46:01Z</time></trkpt><trkpt lat="43.12455770871659" lon="11.448846951397055"><ele>240.0</ele><time>2026-04-11T11:46:03Z</time></trkpt><trkpt lat="43.12448849478113" lon="11.4489507958157"><ele>239.4</ele><time>2026-04-11T11:46:05Z</time></trkpt><trkpt lat="43.1244045363009" lon="11.449048940945119"><ele>238.8</ele><time>2026-04-11T11:46:07Z</time></trkpt><trkpt lat="43.12433545582442" lon="11.449168199299411"><ele>238.2</ele><time>2026-04-11T11:46:09Z</time></trkpt><trkpt lat="43.124239178620584" lon="11.449239601083532"><ele>237.6</ele><time>2026-04-11T11:46:11Z</time></trkpt><trkpt lat="43.12413454544588" lon="11.44926645402665"><ele>237.0</ele><time>2026-04-11T11:46:13Z</time></trkpt><trkpt lat="43.124036957824536" lon="11.449248463718746"><ele>236.25</ele><time>2026-04-11T11:46:15Z</time></trkpt><trkpt lat="43.123934178510915" lon="11.449223404768283"><ele>235.5</ele><time>2026-04-11T11:46:17Z</time></trkpt><trkpt lat="43.123820050681246" lon="11.449187879680517"><ele>234.75</ele><time>2026-04-11T11:46:19Z</time></trkpt><trkpt lat="43.12370470519062" lon="11.44914744857124"><ele>234.0</ele><time>2026-04-11T11:46:21Z</time></trkpt><trkpt lat="43.12358915174285" lon="11.449106101941666"><ele>234.0</ele><time>2026-04-11T11:46:23Z</time></trkpt><trkpt lat="43.123527034423375" lon="11.449086760116481"><ele>234.0</ele><time>2026-04-11T11:46:24Z</time></trkpt><trkpt lat="43.123406640456956" lon="11.449049418125355"><ele>234.0</ele><time>2026-04-11T11:46:26Z</time></trkpt><trkpt lat="43.1233443378374" lon="11.449022079749447"><ele>234.0</ele><time>2026-04-11T11:46:27Z</time></trkpt><trkpt lat="43.123275513561204" lon="11.449003372788615"><ele>234.0</ele><time>2026-04-11T11:46:28Z</time></trkpt><trkpt lat="43.123206611916835" lon="11.44897977433326"><ele>234.0</ele><time>2026-04-11T11:46:29Z</time></trkpt><trkpt lat="43.123136077283235" lon="11.448951725139185"><ele>233.57142857142858</ele><time>2026-04-11T11:46:30Z</time></trkpt><trkpt lat="43.12306568560203" lon="11.448935689986977"><ele>233.14285714285717</ele><time>2026-04-11T11:46:31Z</time></trkpt><trkpt lat="43.12299493581079" lon="11.448909186645988"><ele>232.71428571428572</ele><time>2026-04-11T11:46:32Z</time></trkpt><trkpt lat="43.12292683202715" lon="11.448868119999654"><ele>232.28571428571428</ele><time>2026-04-11T11:46:33Z</time></trkpt><trkpt lat="43.1228545198849" lon="11.448843885864344"><ele>231.85714285714286</ele><time>2026-04-11T11:46:34Z</time></trkpt><trkpt lat="43.12278127216291" lon="11.448819146076112"><ele>231.42857142857144</ele><time>2026-04-11T11:46:35Z</time></trkpt><trkpt lat="43.1227067077534" lon="11.44879396167942"><ele>231.0</ele><time>2026-04-11T11:46:36Z</time></trkpt><trkpt lat="43.12263480556293" lon="11.448769426493882"><ele>230.83333333333334</ele><time>2026-04-11T11:46:37Z</time></trkpt><trkpt lat="43.12255951197741" lon="11.448754094236266"><ele>230.66666666666669</ele><time>2026-04-11T11:46:38Z</time></trkpt><trkpt lat="43.12248593428269" lon="11.448726748003963"><ele>230.5</ele><time>2026-04-11T11:46:39Z</time></trkpt><trkpt lat="43.12240615206469" lon="11.448699628070187"><ele>230.33333333333334</ele><time>2026-04-11T11:46:40Z</time></trkpt><trkpt lat="43.12232548946447" lon="11.448675625095456"><ele>230.16666666666669</ele><time>2026-04-11T11:46:41Z</time></trkpt><trkpt lat="43.122243186538704" lon="11.448646305218558"><ele>230.0</ele><time>2026-04-11T11:46:42Z</time></trkpt><trkpt lat="43.1221527607713" lon="11.44862029232836"><ele>228.8</ele><time>2026-04-11T11:46:43Z</time></trkpt><trkpt lat="43.122065992844206" lon="11.4485885326094"><ele>227.6</ele><time>2026-04-11T11:46:44Z</time></trkpt><trkpt lat="43.121978241959276" lon="11.448547136782166"><ele>226.39999999999998</ele><time>2026-04-11T11:46:45Z</time></trkpt><trkpt lat="43.12188363915014" lon="11.448517848797195"><ele>225.2</ele><time>2026-04-11T11:46:46Z</time></trkpt><trkpt lat="43.1217910082684" lon="11.448481396188845"><ele>224.0</ele><time>2026-04-11T11:46:47Z</time></trkpt><trkpt lat="43.121694870598226" lon="11.448443106471537"><ele>224.0</ele><time>2026-04-11T11:46:48Z</time></trkpt><trkpt lat="43.12160157540844" lon="11.448404382761272"><ele>223.99999999999997</ele><time>2026-04-11T11:46:49Z</time></trkpt><trkpt lat="43.12151263839975" lon="11.448339082917148"><ele>223.99999999999997</ele><time>2026-04-11T11:46:50Z</time></trkpt><trkpt lat="43.12143150793626" lon="11.448258052011717"><ele>224.0</ele><time>2026-04-11T11:46:51Z</time></trkpt><trkpt lat="43.121366314912265" lon="11.448150643893873"><ele>224.0</ele><time>2026-04-11T11:46:52Z</time></trkpt><trkpt lat="43.12131339323697" lon="11.448033720911415"><ele>222.6</ele><time>2026-04-11T11:46:53Z</time></trkpt><trkpt lat="43.12126672983887" lon="11.447915458145598"><ele>221.2</ele><time>2026-04-11T11:46:54Z</time></trkpt><trkpt lat="43.121231206366375" lon="11.447787622609932"><ele>219.79999999999998</ele><time>2026-04-11T11:46:55Z</time></trkpt><trkpt lat="43.12118936438266" lon="11.447663967543052"><ele>218.39999999999998</ele><time>2026-04-11T11:46:56Z</time></trkpt><trkpt lat="43.12115077078727" lon="11.447538626600112"><ele>217.0</ele><time>2026-04-11T11:46:56.999Z</time></trkpt><trkpt lat="43.12111053243163" lon="11.447413291332099"><ele>217.0</ele><time>2026-04-11T11:46:57.999Z</time></trkpt><trkpt lat="43.12107064368073" lon="11.447290307209387"><ele>217.0</ele><time>2026-04-11T11:46:58.999Z</time></trkpt><trkpt lat="43.12102936287082" lon="11.447162580166516"><ele>217.0</ele><time>2026-04-11T11:46:59.999Z</time></trkpt><trkpt lat="43.120989183969854" lon="11.447032987693355"><ele>217.0</ele><time>2026-04-11T11:47:00.999Z</time></trkpt><trkpt lat="43.1209472740352" lon="11.446900901391324"><ele>217.0</ele><time>2026-04-11T11:47:01.999Z</time></trkpt><trkpt lat="43.12090700725228" lon="11.446766432530264"><ele>216.2</ele><time>2026-04-11T11:47:02.999Z</time></trkpt><trkpt lat="43.12086381090894" lon="11.44663465180554"><ele>215.39999999999998</ele><time>2026-04-11T11:47:03.999Z</time></trkpt><trkpt lat="43.1208189699465" lon="11.446500425976451"><ele>214.60000000000002</ele><time>2026-04-11T11:47:04.999Z</time></trkpt><trkpt lat="43.12077391219498" lon="11.446365900811832"><ele>213.8</ele><time>2026-04-11T11:47:05.999Z</time></trkpt><trkpt lat="43.12073665536936" lon="11.446224316441187"><ele>213.0</ele><time>2026-04-11T11:47:06.999Z</time></trkpt><trkpt lat="43.12070560628157" lon="11.446099552035607"><ele>212.60000000000002</ele><time>2026-04-11T11:47:07.999Z</time></trkpt><trkpt lat="43.120692423550594" lon="11.445967075802717"><ele>212.20000000000002</ele><time>2026-04-11T11:47:08.999Z</time></trkpt><trkpt lat="43.1207045530303" lon="11.445833632688801"><ele>211.8</ele><time>2026-04-11T11:47:09.999Z</time></trkpt><trkpt lat="43.12073592476459" lon="11.445707999931589"><ele>211.4</ele><time>2026-04-11T11:47:10.999Z</time></trkpt><trkpt lat="43.120774550806075" lon="11.445579294867105"><ele>211.0</ele><time>2026-04-11T11:47:11.999Z</time></trkpt><trkpt lat="43.12082426984899" lon="11.445437061276174"><ele>211.0</ele><time>2026-04-11T11:47:12.999Z</time></trkpt><trkpt lat="43.120867341999215" lon="11.445295916333459"><ele>211.0</ele><time>2026-04-11T11:47:13.999Z</time></trkpt><trkpt lat="43.12090017195342" lon="11.445156348111528"><ele>211.0</ele><time>2026-04-11T11:47:14.999Z</time></trkpt><trkpt lat="43.120913907198194" lon="11.445009359930074"><ele>211.0</ele><time>2026-04-11T11:47:15.999Z</time></trkpt><trkpt lat="43.12088897407636" lon="11.44486201705416"><ele>211.0</ele><time>2026-04-11T11:47:16.999Z</time></trkpt><trkpt lat="43.1208416518163" lon="11.444723556369084"><ele>211.20000000000002</ele><time>2026-04-11T11:47:17.999Z</time></trkpt><trkpt lat="43.12076815471679" lon="11.444618403298122"><ele>211.4</ele><time>2026-04-11T11:47:18.999Z</time></trkpt><trkpt lat="43.120678546431286" lon="11.444533102709494"><ele>211.6</ele><time>2026-04-11T11:47:19.999Z</time></trkpt><trkpt lat="43.12057823365306" lon="11.444468776389888"><ele>211.8</ele><time>2026-04-11T11:47:20.999Z</time></trkpt><trkpt lat="43.120480219805636" lon="11.444394965947856"><ele>212.0</ele><time>2026-04-11T11:47:21.999Z</time></trkpt><trkpt lat="43.12038077443636" lon="11.444319642836673"><ele>210.0</ele><time>2026-04-11T11:47:22.999Z</time></trkpt><trkpt lat="43.12027217453413" lon="11.444254116712688"><ele>208.0</ele><time>2026-04-11T11:47:23.999Z</time></trkpt><trkpt lat="43.12016895247955" lon="11.444179652949112"><ele>206.0</ele><time>2026-04-11T11:47:24.999Z</time></trkpt><trkpt lat="43.120059890768054" lon="11.444101019174546"><ele>204.0</ele><time>2026-04-11T11:47:25.999Z</time></trkpt><trkpt lat="43.11995518080442" lon="11.444020070787827"><ele>202.0</ele><time>2026-04-11T11:47:26.999Z</time></trkpt><trkpt lat="43.119846367255214" lon="11.443961627145457"><ele>200.0</ele><time>2026-04-11T11:47:27.999Z</time></trkpt><trkpt lat="43.11973084705286" lon="11.443879113046597"><ele>198.0</ele><time>2026-04-11T11:47:28.999Z</time></trkpt><trkpt lat="43.119625383361125" lon="11.443790211080222"><ele>196.0</ele><time>2026-04-11T11:47:30Z</time></trkpt><trkpt lat="43.119512212669" lon="11.443713994789123"><ele>194.75</ele><time>2026-04-11T11:47:31Z</time></trkpt><trkpt lat="43.119405423276916" lon="11.44364534444155"><ele>193.5</ele><time>2026-04-11T11:47:32Z</time></trkpt><trkpt lat="43.11928653777133" lon="11.443544579134214"><ele>192.25</ele><time>2026-04-11T11:47:33Z</time></trkpt><trkpt lat="43.11914710022208" lon="11.443463880410153"><ele>191.0</ele><time>2026-04-11T11:47:34Z</time></trkpt><trkpt lat="43.119035067920656" lon="11.443363067618337"><ele>190.0</ele><time>2026-04-11T11:47:35Z</time></trkpt><trkpt lat="43.11892459978599" lon="11.44326649245518"><ele>189.0</ele><time>2026-04-11T11:47:36Z</time></trkpt><trkpt lat="43.118843576439254" lon="11.443133763368435"><ele>188.0</ele><time>2026-04-11T11:47:37Z</time></trkpt><trkpt lat="43.11876039586933" lon="11.443015772223681"><ele>187.0</ele><time>2026-04-11T11:47:38Z</time></trkpt><trkpt lat="43.1186740382865" lon="11.442934574417043"><ele>184.8</ele><time>2026-04-11T11:47:39Z</time></trkpt><trkpt lat="43.11861871744721" lon="11.44285687382601"><ele>182.6</ele><time>2026-04-11T11:47:40Z</time></trkpt><trkpt lat="43.118567968721045" lon="11.442788606296531"><ele>180.4</ele><time>2026-04-11T11:47:41Z</time></trkpt><trkpt lat="43.11850923275692" lon="11.442726226231752"><ele>178.20000000000002</ele><time>2026-04-11T11:47:42Z</time></trkpt><trkpt lat="43.11838283220114" lon="11.442604824081414"><ele>176.0</ele><time>2026-04-11T11:47:44Z</time></trkpt><trkpt lat="43.118243183908035" lon="11.442481786372927"><ele>176.0</ele><time>2026-04-11T11:47:46Z</time></trkpt><trkpt lat="43.118158053003455" lon="11.442408824566904"><ele>176.0</ele><time>2026-04-11T11:47:47Z</time></trkpt><trkpt lat="43.11808687614523" lon="11.442348291130248"><ele>176.0</ele><time>2026-04-11T11:47:48Z</time></trkpt><trkpt lat="43.11802044369522" lon="11.44229322668909"><ele>176.0</ele><time>2026-04-11T11:47:49Z</time></trkpt><trkpt lat="43.117939180952376" lon="11.442226231980767"><ele>176.0</ele><time>2026-04-11T11:47:50Z</time></trkpt><trkpt lat="43.11782050555513" lon="11.44212859051773"><ele>174.16666666666666</ele><time>2026-04-11T11:47:52Z</time></trkpt><trkpt lat="43.11776370202464" lon="11.442083875555413"><ele>172.33333333333331</ele><time>2026-04-11T11:47:53Z</time></trkpt><trkpt lat="43.11769615707034" lon="11.442033877830525"><ele>170.5</ele><time>2026-04-11T11:47:54Z</time></trkpt><trkpt lat="43.11762617470019" lon="11.441987521881263"><ele>168.66666666666666</ele><time>2026-04-11T11:47:55Z</time></trkpt><trkpt lat="43.11756300099684" lon="11.441955803325547"><ele>166.83333333333334</ele><time>2026-04-11T11:47:56Z</time></trkpt><trkpt lat="43.11747183222178" lon="11.441936254704395"><ele>165.0</ele><time>2026-04-11T11:47:58Z</time></trkpt><trkpt lat="43.11739070420293" lon="11.441936868241417"><ele>165.6</ele><time>2026-04-11T11:47:59Z</time></trkpt><trkpt lat="43.1172942536741" lon="11.441966743575035"><ele>166.2</ele><time>2026-04-11T11:48:00Z</time></trkpt><trkpt lat="43.117204286956756" lon="11.442007848041863"><ele>166.8</ele><time>2026-04-11T11:48:01Z</time></trkpt><trkpt lat="43.11712264930871" lon="11.442066501560697"><ele>167.4</ele><time>2026-04-11T11:48:02Z</time></trkpt><trkpt lat="43.117046534629786" lon="11.442111908770123"><ele>168.0</ele><time>2026-04-11T11:48:03Z</time></trkpt><trkpt lat="43.11690285719917" lon="11.442192441175528"><ele>168.0</ele><time>2026-04-11T11:48:05Z</time></trkpt><trkpt lat="43.11683253309802" lon="11.442229268272364"><ele>168.0</ele><time>2026-04-11T11:48:06Z</time></trkpt><trkpt lat="43.11675948810311" lon="11.442259757885592"><ele>168.0</ele><time>2026-04-11T11:48:07Z</time></trkpt><trkpt lat="43.1166912290901" lon="11.442262664360072"><ele>168.0</ele><time>2026-04-11T11:48:08Z</time></trkpt><trkpt lat="43.1165729666338" lon="11.442236989611429"><ele>168.0</ele><time>2026-04-11T11:48:10Z</time></trkpt><trkpt lat="43.1164776881392" lon="11.442163213643058"><ele>168.0</ele><time>2026-04-11T11:48:12Z</time></trkpt><trkpt lat="43.116368500176385" lon="11.442017752934147"><ele>166.5</ele><time>2026-04-11T11:48:14Z</time></trkpt><trkpt lat="43.11631920299471" lon="11.441950251993289"><ele>165.0</ele><time>2026-04-11T11:48:15Z</time></trkpt><trkpt lat="43.116258272846906" lon="11.441870870012712"><ele>163.5</ele><time>2026-04-11T11:48:16Z</time></trkpt><trkpt lat="43.11618512293732" lon="11.441783435671748"><ele>162.0</ele><time>2026-04-11T11:48:17Z</time></trkpt><trkpt lat="43.11612101456017" lon="11.441709206577958"><ele>160.5</ele><time>2026-04-11T11:48:18Z</time></trkpt><trkpt lat="43.116052778177284" lon="11.441630197780643"><ele>159.0</ele><time>2026-04-11T11:48:19Z</time></trkpt><trkpt lat="43.11598813439044" lon="11.441553006844117"><ele>159.0</ele><time>2026-04-11T11:48:20Z</time></trkpt><trkpt lat="43.115927554141905" lon="11.441478868554654"><ele>159.0</ele><time>2026-04-11T11:48:21Z</time></trkpt><trkpt lat="43.11581798987336" lon="11.441363127970035"><ele>159.0</ele><time>2026-04-11T11:48:23Z</time></trkpt><trkpt lat="43.115753707299696" lon="11.441321596578387"><ele>159.0</ele><time>2026-04-11T11:48:24Z</time></trkpt><trkpt lat="43.1157017547792" lon="11.44126524838631"><ele>159.0</ele><time>2026-04-11T11:48:25Z</time></trkpt><trkpt lat="43.11563408086065" lon="11.441222185911533"><ele>159.0</ele><time>2026-04-11T11:48:26Z</time></trkpt><trkpt lat="43.115553957888864" lon="11.441203467908185"><ele>157.28571428571428</ele><time>2026-04-11T11:48:27Z</time></trkpt><trkpt lat="43.11547496131789" lon="11.44120954125809"><ele>155.57142857142858</ele><time>2026-04-11T11:48:28Z</time></trkpt><trkpt lat="43.115401930734635" lon="11.44121667731428"><ele>153.85714285714286</ele><time>2026-04-11T11:48:29Z</time></trkpt><trkpt lat="43.11532810170888" lon="11.4412268544982"><ele>152.14285714285714</ele><time>2026-04-11T11:48:30Z</time></trkpt><trkpt lat="43.115251982146916" lon="11.441238574115767"><ele>150.42857142857144</ele><time>2026-04-11T11:48:31Z</time></trkpt><trkpt lat="43.11518206562652" lon="11.441254325219584"><ele>148.71428571428572</ele><time>2026-04-11T11:48:32Z</time></trkpt><trkpt lat="43.11510879827572" lon="11.441271433035537"><ele>147.0</ele><time>2026-04-11T11:48:33Z</time></trkpt><trkpt lat="43.1150452273424" lon="11.441283803239898"><ele>147.0</ele><time>2026-04-11T11:48:34Z</time></trkpt><trkpt lat="43.11497274370692" lon="11.441294314685171"><ele>147.0</ele><time>2026-04-11T11:48:35Z</time></trkpt><trkpt lat="43.114904075066335" lon="11.441303421665669"><ele>147.0</ele><time>2026-04-11T11:48:36Z</time></trkpt><trkpt lat="43.11483101599875" lon="11.441310630162322"><ele>147.0</ele><time>2026-04-11T11:48:37Z</time></trkpt><trkpt lat="43.11475950710118" lon="11.441317123637532"><ele>147.0</ele><time>2026-04-11T11:48:38Z</time></trkpt><trkpt lat="43.114691338930555" lon="11.441323313780998"><ele>147.0</ele><time>2026-04-11T11:48:39Z</time></trkpt><trkpt lat="43.1146196921528" lon="11.441349001638425"><ele>147.0</ele><time>2026-04-11T11:48:40Z</time></trkpt><trkpt lat="43.11454662343294" lon="11.441350096581493"><ele>146.14285714285714</ele><time>2026-04-11T11:48:41Z</time></trkpt><trkpt lat="43.11447669117436" lon="11.441353695913286"><ele>145.28571428571428</ele><time>2026-04-11T11:48:42Z</time></trkpt><trkpt lat="43.11440731461751" lon="11.441361096010414"><ele>144.42857142857144</ele><time>2026-04-11T11:48:43Z</time></trkpt><trkpt lat="43.11433607326584" lon="11.441346105362067"><ele>143.57142857142856</ele><time>2026-04-11T11:48:44Z</time></trkpt><trkpt lat="43.11426973241986" lon="11.441350361743226"><ele>142.71428571428572</ele><time>2026-04-11T11:48:45Z</time></trkpt><trkpt lat="43.11419287966081" lon="11.441356289133877"><ele>141.85714285714286</ele><time>2026-04-11T11:48:46Z</time></trkpt><trkpt lat="43.11411710680101" lon="11.44136266952745"><ele>141.0</ele><time>2026-04-11T11:48:47Z</time></trkpt><trkpt lat="43.11400720110346" lon="11.44136811422561"><ele>140.5</ele><time>2026-04-11T11:48:49Z</time></trkpt><trkpt lat="43.11394273543673" lon="11.441382644564936"><ele>140.0</ele><time>2026-04-11T11:48:50Z</time></trkpt><trkpt lat="43.11384309274015" lon="11.441398896769542"><ele>139.5</ele><time>2026-04-11T11:48:51Z</time></trkpt><trkpt lat="43.113770964905065" lon="11.441406498524687"><ele>139.0</ele><time>2026-04-11T11:48:52Z</time></trkpt><trkpt lat="43.113699422473815" lon="11.441416417634692"><ele>138.5</ele><time>2026-04-11T11:48:53Z</time></trkpt><trkpt lat="43.11362758059102" lon="11.441424362012139"><ele>138.0</ele><time>2026-04-11T11:48:54Z</time></trkpt><trkpt lat="43.11355865934115" lon="11.441434462398073"><ele>138.0</ele><time>2026-04-11T11:48:55Z</time></trkpt><trkpt lat="43.11349257860097" lon="11.441427584562344"><ele>138.0</ele><time>2026-04-11T11:48:56Z</time></trkpt><trkpt lat="43.11341865837521" lon="11.44144016792359"><ele>138.0</ele><time>2026-04-11T11:48:57Z</time></trkpt><trkpt lat="43.11334358542055" lon="11.441454423310548"><ele>138.0</ele><time>2026-04-11T11:48:58Z</time></trkpt><trkpt lat="43.11327905056125" lon="11.441455414078227"><ele>138.0</ele><time>2026-04-11T11:48:59Z</time></trkpt><trkpt lat="43.113210124697744" lon="11.44146262324329"><ele>138.0</ele><time>2026-04-11T11:49:00Z</time></trkpt><trkpt lat="43.11314050506869" lon="11.441465451436045"><ele>138.0</ele><time>2026-04-11T11:49:01Z</time></trkpt><trkpt lat="43.11307045468899" lon="11.441475012059811"><ele>137.85714285714286</ele><time>2026-04-11T11:49:02Z</time></trkpt><trkpt lat="43.113004615059126" lon="11.441468890580467"><ele>137.71428571428572</ele><time>2026-04-11T11:49:03Z</time></trkpt><trkpt lat="43.112933244930446" lon="11.441474693071715"><ele>137.57142857142858</ele><time>2026-04-11T11:49:04Z</time></trkpt><trkpt lat="43.11286317774055" lon="11.44148668473397"><ele>137.42857142857144</ele><time>2026-04-11T11:49:05Z</time></trkpt><trkpt lat="43.11279369545223" lon="11.441505253393121"><ele>137.28571428571428</ele><time>2026-04-11T11:49:06Z</time></trkpt><trkpt lat="43.11272392643887" lon="11.44150145317553"><ele>137.14285714285717</ele><time>2026-04-11T11:49:07Z</time></trkpt><trkpt lat="43.11265360706744" lon="11.44150707532606"><ele>137.0</ele><time>2026-04-11T11:49:08Z</time></trkpt><trkpt lat="43.11258413259173" lon="11.441513450938611"><ele>137.00000000000003</ele><time>2026-04-11T11:49:09Z</time></trkpt><trkpt lat="43.11251746046145" lon="11.441525760507199"><ele>137.0</ele><time>2026-04-11T11:49:10Z</time></trkpt><trkpt lat="43.11244715721649" lon="11.441535697606472"><ele>137.0</ele><time>2026-04-11T11:49:11Z</time></trkpt><trkpt lat="43.11237874747148" lon="11.441532520290394"><ele>137.0</ele><time>2026-04-11T11:49:12Z</time></trkpt><trkpt lat="43.11230788088173" lon="11.441542922460393"><ele>137.0</ele><time>2026-04-11T11:49:13Z</time></trkpt><trkpt lat="43.11223607670919" lon="11.44155437799706"><ele>137.00000000000003</ele><time>2026-04-11T11:49:14Z</time></trkpt><trkpt lat="43.112171234818106" lon="11.441561628095675"><ele>137.0</ele><time>2026-04-11T11:49:15Z</time></trkpt><trkpt lat="43.112102083681485" lon="11.44154998050358"><ele>136.85714285714286</ele><time>2026-04-11T11:49:16Z</time></trkpt><trkpt lat="43.11203239753507" lon="11.441567222131315"><ele>136.71428571428572</ele><time>2026-04-11T11:49:17Z</time></trkpt><trkpt lat="43.111964876889665" lon="11.441572286218467"><ele>136.57142857142856</ele><time>2026-04-11T11:49:18Z</time></trkpt><trkpt lat="43.11189810658768" lon="11.441587589576129"><ele>136.42857142857144</ele><time>2026-04-11T11:49:18.999Z</time></trkpt><trkpt lat="43.111835135234955" lon="11.441586626608713"><ele>136.28571428571428</ele><time>2026-04-11T11:49:19.999Z</time></trkpt><trkpt lat="43.11176773922171" lon="11.441587845761328"><ele>136.14285714285714</ele><time>2026-04-11T11:49:20.999Z</time></trkpt><trkpt lat="43.11169739559943" lon="11.441597225735613"><ele>136.0</ele><time>2026-04-11T11:49:21.999Z</time></trkpt><trkpt lat="43.11157314944279" lon="11.44161416498556"><ele>135.8</ele><time>2026-04-11T11:49:23.999Z</time></trkpt><trkpt lat="43.11150962783121" lon="11.441619832704502"><ele>135.6</ele><time>2026-04-11T11:49:24.999Z</time></trkpt><trkpt lat="43.11140428319118" lon="11.441636851207038"><ele>135.4</ele><time>2026-04-11T11:49:26.999Z</time></trkpt><trkpt lat="43.11133914736778" lon="11.441642632846653"><ele>135.2</ele><time>2026-04-11T11:49:27.999Z</time></trkpt><trkpt lat="43.11122531910673" lon="11.44167384500373"><ele>135.0</ele><time>2026-04-11T11:49:29.999Z</time></trkpt><trkpt lat="43.11111347426488" lon="11.44167385106942"><ele>135.0</ele><time>2026-04-11T11:49:31.999Z</time></trkpt><trkpt lat="43.11100185552107" lon="11.441691923259375"><ele>135.0</ele><time>2026-04-11T11:49:33.999Z</time></trkpt><trkpt lat="43.11088718589897" lon="11.441724704526901"><ele>135.0</ele><time>2026-04-11T11:49:36Z</time></trkpt><trkpt lat="43.11082425820349" lon="11.441732575056191"><ele>135.0</ele><time>2026-04-11T11:49:37Z</time></trkpt><trkpt lat="43.11070217590031" lon="11.441714765866536"><ele>135.0</ele><time>2026-04-11T11:49:39Z</time></trkpt><trkpt lat="43.11058159895313" lon="11.441730734304405"><ele>134.5</ele><time>2026-04-11T11:49:41Z</time></trkpt><trkpt lat="43.11045841923712" lon="11.44173145647448"><ele>134.0</ele><time>2026-04-11T11:49:43Z</time></trkpt><trkpt lat="43.11033591988531" lon="11.441736715233667"><ele>133.5</ele><time>2026-04-11T11:49:45Z</time></trkpt><trkpt lat="43.11021694685507" lon="11.441751094031158"><ele>133.0</ele><time>2026-04-11T11:49:47Z</time></trkpt><trkpt lat="43.11009705870621" lon="11.441775672879947"><ele>133.0</ele><time>2026-04-11T11:49:49Z</time></trkpt><trkpt lat="43.109977985265346" lon="11.441811149146563"><ele>133.0</ele><time>2026-04-11T11:49:51Z</time></trkpt><trkpt lat="43.109868524952056" lon="11.441842221095555"><ele>133.0</ele><time>2026-04-11T11:49:53Z</time></trkpt><trkpt lat="43.10980882405365" lon="11.441870507035159"><ele>133.0</ele><time>2026-04-11T11:49:54Z</time></trkpt><trkpt lat="43.109704481485714" lon="11.441920739919517"><ele>133.0</ele><time>2026-04-11T11:49:56Z</time></trkpt><trkpt lat="43.10959683681216" lon="11.441968591384386"><ele>133.0</ele><time>2026-04-11T11:49:58Z</time></trkpt><trkpt lat="43.10949958727521" lon="11.442009896830335"><ele>133.0</ele><time>2026-04-11T11:50:00Z</time></trkpt><trkpt lat="43.109408387388754" lon="11.44204816366912"><ele>133.0</ele><time>2026-04-11T11:50:02Z</time></trkpt><trkpt lat="43.10930968134388" lon="11.44208698096888"><ele>133.0</ele><time>2026-04-11T11:50:04Z</time></trkpt><trkpt lat="43.109212072344214" lon="11.442116394795733"><ele>133.0</ele><time>2026-04-11T11:50:06Z</time></trkpt><trkpt lat="43.10911576311699" lon="11.442145105717286"><ele>133.0</ele><time>2026-04-11T11:50:08Z</time></trkpt><trkpt lat="43.10902255490605" lon="11.44217189551446"><ele>133.0</ele><time>2026-04-11T11:50:10Z</time></trkpt><trkpt lat="43.10892437304399" lon="11.442195680538374"><ele>133.0</ele><time>2026-04-11T11:50:12Z</time></trkpt><trkpt lat="43.10884251314799" lon="11.442236813940378"><ele>133.0</ele><time>2026-04-11T11:50:14Z</time></trkpt><trkpt lat="43.108742675835295" lon="11.442249676891803"><ele>133.0</ele><time>2026-04-11T11:50:16Z</time></trkpt><trkpt lat="43.108646989666354" lon="11.442257633917643"><ele>133.0</ele><time>2026-04-11T11:50:18Z</time></trkpt><trkpt lat="43.10853385040879" lon="11.442281245183677"><ele>133.0</ele><time>2026-04-11T11:50:20Z</time></trkpt><trkpt lat="43.108452714980224" lon="11.442298177499884"><ele>133.0</ele><time>2026-04-11T11:50:22Z</time></trkpt><trkpt lat="43.10835753909688" lon="11.442335534846954"><ele>133.0</ele><time>2026-04-11T11:50:24Z</time></trkpt><trkpt lat="43.108263566311834" lon="11.44235194520482"><ele>133.0</ele><time>2026-04-11T11:50:26Z</time></trkpt><trkpt lat="43.10816392387222" lon="11.442362345257836"><ele>133.16666666666669</ele><time>2026-04-11T11:50:28Z</time></trkpt><trkpt lat="43.10806907928885" lon="11.44239526644599"><ele>133.33333333333334</ele><time>2026-04-11T11:50:30Z</time></trkpt><trkpt lat="43.10798771073098" lon="11.442416249413188"><ele>133.5</ele><time>2026-04-11T11:50:32Z</time></trkpt><trkpt lat="43.1079124615428" lon="11.442422997738342"><ele>133.66666666666666</ele><time>2026-04-11T11:50:34Z</time></trkpt><trkpt lat="43.107842633035" lon="11.442442049581757"><ele>133.83333333333331</ele><time>2026-04-11T11:50:36Z</time></trkpt><trkpt lat="43.1077639504908" lon="11.442462604395397"><ele>134.0</ele><time>2026-04-11T11:50:38Z</time></trkpt><trkpt lat="43.10767768798242" lon="11.442464096749216"><ele>134.0</ele><time>2026-04-11T11:50:40Z</time></trkpt><trkpt lat="43.107588440497445" lon="11.442462867845183"><ele>134.0</ele><time>2026-04-11T11:50:42Z</time></trkpt><trkpt lat="43.1074969747934" lon="11.442430849669401"><ele>134.0</ele><time>2026-04-11T11:50:44Z</time></trkpt><trkpt lat="43.107404184269285" lon="11.442363856380691"><ele>134.0</ele><time>2026-04-11T11:50:46Z</time></trkpt><trkpt lat="43.10732066755437" lon="11.442268373873707"><ele>134.0</ele><time>2026-04-11T11:50:48Z</time></trkpt><trkpt lat="43.107246699353816" lon="11.442164185768105"><ele>133.4</ele><time>2026-04-11T11:50:50Z</time></trkpt><trkpt lat="43.107183325024984" lon="11.442041257016147"><ele>132.8</ele><time>2026-04-11T11:50:52Z</time></trkpt><trkpt lat="43.107102150082774" lon="11.44194744891709"><ele>132.2</ele><time>2026-04-11T11:50:54Z</time></trkpt><trkpt lat="43.10702912722717" lon="11.441839887977936"><ele>131.6</ele><time>2026-04-11T11:50:56Z</time></trkpt><trkpt lat="43.10696128251974" lon="11.441741670862344"><ele>131.0</ele><time>2026-04-11T11:50:58Z</time></trkpt><trkpt lat="43.1068877519661" lon="11.441644773618982"><ele>131.0</ele><time>2026-04-11T11:51:00Z</time></trkpt><trkpt lat="43.10682573163672" lon="11.441547122025288"><ele>131.0</ele><time>2026-04-11T11:51:02Z</time></trkpt><trkpt lat="43.10675693139561" lon="11.441438149222234"><ele>131.0</ele><time>2026-04-11T11:51:04Z</time></trkpt><trkpt lat="43.10667968663982" lon="11.441337450837226"><ele>131.0</ele><time>2026-04-11T11:51:06Z</time></trkpt><trkpt lat="43.10660900778189" lon="11.441229596170373"><ele>131.0</ele><time>2026-04-11T11:51:08Z</time></trkpt><trkpt lat="43.106531098756264" lon="11.441119897858501"><ele>131.0</ele><time>2026-04-11T11:51:10Z</time></trkpt><trkpt lat="43.10645426934625" lon="11.441011144874933"><ele>131.0</ele><time>2026-04-11T11:51:12Z</time></trkpt><trkpt lat="43.10637582332919" lon="11.440909102841015"><ele>131.0</ele><time>2026-04-11T11:51:14Z</time></trkpt><trkpt lat="43.106304203662695" lon="11.440795843627201"><ele>131.0</ele><time>2026-04-11T11:51:16Z</time></trkpt><trkpt lat="43.10623960325393" lon="11.440696853568335"><ele>131.0</ele><time>2026-04-11T11:51:18Z</time></trkpt><trkpt lat="43.106165214970986" lon="11.440605222997029"><ele>131.0</ele><time>2026-04-11T11:51:20Z</time></trkpt><trkpt lat="43.10609823036397" lon="11.440511551344546"><ele>131.0</ele><time>2026-04-11T11:51:21.999Z</time></trkpt><trkpt lat="43.106043024895406" lon="11.440436439168662"><ele>131.0</ele><time>2026-04-11T11:51:23.999Z</time></trkpt><trkpt lat="43.10597431897654" lon="11.440357348116718"><ele>131.0</ele><time>2026-04-11T11:51:25.999Z</time></trkpt><trkpt lat="43.105925697196135" lon="11.440281791196535"><ele>131.0</ele><time>2026-04-11T11:51:27.999Z</time></trkpt><trkpt lat="43.10587078153098" lon="11.440184747094264"><ele>131.0</ele><time>2026-04-11T11:51:29.999Z</time></trkpt><trkpt lat="43.1058182596766" lon="11.440113434589758"><ele>131.0</ele><time>2026-04-11T11:51:31.999Z</time></trkpt><trkpt lat="43.10574571278972" lon="11.440020348139281"><ele>131.0</ele><time>2026-04-11T11:51:33.999Z</time></trkpt><trkpt lat="43.10567976187834" lon="11.439939677727684"><ele>131.0</ele><time>2026-04-11T11:51:35.999Z</time></trkpt><trkpt lat="43.10561017832578" lon="11.439854927297532"><ele>131.0</ele><time>2026-04-11T11:51:37.999Z</time></trkpt><trkpt lat="43.10554139555481" lon="11.439771152271035"><ele>131.0</ele><time>2026-04-11T11:51:39.999Z</time></trkpt><trkpt lat="43.105477395303964" lon="11.439690901410936"><ele>130.66666666666666</ele><time>2026-04-11T11:51:42Z</time></trkpt><trkpt lat="43.10540914689451" lon="11.4396002337861"><ele>130.33333333333331</ele><time>2026-04-11T11:51:44Z</time></trkpt><trkpt lat="43.10534128499295" lon="11.439535711949844"><ele>130.0</ele><time>2026-04-11T11:51:46Z</time></trkpt><trkpt lat="43.105285230024414" lon="11.439448260161406"><ele>129.66666666666666</ele><time>2026-04-11T11:51:48Z</time></trkpt><trkpt lat="43.10523963871981" lon="11.439372603896576"><ele>129.33333333333334</ele><time>2026-04-11T11:51:50Z</time></trkpt><trkpt lat="43.10520281604099" lon="11.439291658008093"><ele>129.0</ele><time>2026-04-11T11:51:52Z</time></trkpt><trkpt lat="43.10515714891964" lon="11.439203834340518"><ele>129.0</ele><time>2026-04-11T11:51:54Z</time></trkpt><trkpt lat="43.10510724319597" lon="11.43911956480603"><ele>129.0</ele><time>2026-04-11T11:51:56Z</time></trkpt><trkpt lat="43.1050544796243" lon="11.43903394748762"><ele>129.0</ele><time>2026-04-11T11:51:58Z</time></trkpt><trkpt lat="43.104992481888516" lon="11.438947483885068"><ele>129.0</ele><time>2026-04-11T11:52:00Z</time></trkpt><trkpt lat="43.104937448165394" lon="11.438847920587058"><ele>129.0</ele><time>2026-04-11T11:52:02Z</time></trkpt><trkpt lat="43.10487115025329" lon="11.438746788966744"><ele>129.0</ele><time>2026-04-11T11:52:04Z</time></trkpt><trkpt lat="43.10479934216952" lon="11.438652842050676"><ele>129.4</ele><time>2026-04-11T11:52:06Z</time></trkpt><trkpt lat="43.104739330853675" lon="11.438567984299672"><ele>129.8</ele><time>2026-04-11T11:52:08Z</time></trkpt><trkpt lat="43.104681618435016" lon="11.438476616578225"><ele>130.2</ele><time>2026-04-11T11:52:10Z</time></trkpt><trkpt lat="43.10461750542779" lon="11.438378221398173"><ele>130.6</ele><time>2026-04-11T11:52:12Z</time></trkpt><trkpt lat="43.10454828656555" lon="11.438284928284672"><ele>131.0</ele><time>2026-04-11T11:52:14Z</time></trkpt><trkpt lat="43.10448264090238" lon="11.43819850743009"><ele>131.0</ele><time>2026-04-11T11:52:16Z</time></trkpt><trkpt lat="43.10441235301004" lon="11.438101725813818"><ele>131.0</ele><time>2026-04-11T11:52:18Z</time></trkpt><trkpt lat="43.10434788282114" lon="11.438016628290375"><ele>131.0</ele><time>2026-04-11T11:52:20Z</time></trkpt><trkpt lat="43.10428138068814" lon="11.437942020450883"><ele>131.0</ele><time>2026-04-11T11:52:22Z</time></trkpt><trkpt lat="43.10422565034133" lon="11.437845333297672"><ele>131.0</ele><time>2026-04-11T11:52:24Z</time></trkpt><trkpt lat="43.1041765650692" lon="11.437764976841198"><ele>131.0</ele><time>2026-04-11T11:52:26Z</time></trkpt><trkpt lat="43.10411421400328" lon="11.437675783956639"><ele>131.16666666666666</ele><time>2026-04-11T11:52:28Z</time></trkpt><trkpt lat="43.1040552406919" lon="11.437592699287881"><ele>131.33333333333331</ele><time>2026-04-11T11:52:30Z</time></trkpt><trkpt lat="43.10399967837519" lon="11.437520482337666"><ele>131.5</ele><time>2026-04-11T11:52:32Z</time></trkpt><trkpt lat="43.10394300613921" lon="11.437448274595944"><ele>131.66666666666666</ele><time>2026-04-11T11:52:34Z</time></trkpt><trkpt lat="43.103891086889504" lon="11.437390050288183"><ele>131.83333333333334</ele><time>2026-04-11T11:52:36Z</time></trkpt><trkpt lat="43.10383637882336" lon="11.437308636237184"><ele>132.0</ele><time>2026-04-11T11:52:38Z</time></trkpt><trkpt lat="43.1037659179847" lon="11.437209853078272"><ele>132.0</ele><time>2026-04-11T11:52:41Z</time></trkpt><trkpt lat="43.103719215099744" lon="11.437137314620152"><ele>132.0</ele><time>2026-04-11T11:52:43Z</time></trkpt><trkpt lat="43.10366975684574" lon="11.437070140884037"><ele>132.0</ele><time>2026-04-11T11:52:45Z</time></trkpt><trkpt lat="43.10362316426366" lon="11.436997694889088"><ele>132.0</ele><time>2026-04-11T11:52:47Z</time></trkpt><trkpt lat="43.10357363940237" lon="11.436923229405803"><ele>132.0</ele><time>2026-04-11T11:52:49Z</time></trkpt><trkpt lat="43.103520826879354" lon="11.436851839305737"><ele>132.0</ele><time>2026-04-11T11:52:51Z</time></trkpt><trkpt lat="43.103476479625265" lon="11.436778401251592"><ele>132.0</ele><time>2026-04-11T11:52:53Z</time></trkpt><trkpt lat="43.1034281910913" lon="11.436715636907895"><ele>132.33333333333334</ele><time>2026-04-11T11:52:55Z</time></trkpt><trkpt lat="43.10336955431945" lon="11.436622950208518"><ele>132.66666666666666</ele><time>2026-04-11T11:52:58Z</time></trkpt><trkpt lat="43.103306240037206" lon="11.436543462730409"><ele>133.0</ele><time>2026-04-11T11:53:01Z</time></trkpt><trkpt lat="43.103240423797516" lon="11.436451382924872"><ele>133.33333333333331</ele><time>2026-04-11T11:53:04Z</time></trkpt><trkpt lat="43.10316833335621" lon="11.436356716992682"><ele>133.66666666666666</ele><time>2026-04-11T11:53:07Z</time></trkpt><trkpt lat="43.10311477457896" lon="11.436289325042623"><ele>134.0</ele><time>2026-04-11T11:53:09Z</time></trkpt><trkpt lat="43.10306341881613" lon="11.436213167950907"><ele>134.33333333333331</ele><time>2026-04-11T11:53:11Z</time></trkpt><trkpt lat="43.10299301920266" lon="11.436120129985252"><ele>134.66666666666666</ele><time>2026-04-11T11:53:14Z</time></trkpt><trkpt lat="43.10295211497316" lon="11.436051810253861"><ele>135.0</ele><time>2026-04-11T11:53:16Z</time></trkpt><trkpt lat="43.102902017485064" lon="11.435983471895096"><ele>135.33333333333334</ele><time>2026-04-11T11:53:18Z</time></trkpt><trkpt lat="43.10285137759713" lon="11.435912385059604"><ele>135.66666666666669</ele><time>2026-04-11T11:53:20Z</time></trkpt><trkpt lat="43.10280488062559" lon="11.435847113948524"><ele>136.0</ele><time>2026-04-11T11:53:22Z</time></trkpt><trkpt lat="43.10274883623273" lon="11.435768289183281"><ele>136.0</ele><time>2026-04-11T11:53:24Z</time></trkpt><trkpt lat="43.102703001301" lon="11.435703153976847"><ele>136.0</ele><time>2026-04-11T11:53:26Z</time></trkpt><trkpt lat="43.10262939192394" lon="11.435636616944281"><ele>136.0</ele><time>2026-04-11T11:53:29Z</time></trkpt><trkpt lat="43.10257512255719" lon="11.435546418887926"><ele>136.0</ele><time>2026-04-11T11:53:32Z</time></trkpt><trkpt lat="43.10251201719094" lon="11.435461616401648"><ele>136.0</ele><time>2026-04-11T11:53:35Z</time></trkpt><trkpt lat="43.102463580491225" lon="11.435387736672828"><ele>136.0</ele><time>2026-04-11T11:53:37Z</time></trkpt><trkpt lat="43.10240985187876" lon="11.435303325247752"><ele>136.5</ele><time>2026-04-11T11:53:40Z</time></trkpt><trkpt lat="43.102350656861645" lon="11.435205353669572"><ele>137.0</ele><time>2026-04-11T11:53:43Z</time></trkpt><trkpt lat="43.10229343904683" lon="11.435114818124886"><ele>137.5</ele><time>2026-04-11T11:53:45.999Z</time></trkpt><trkpt lat="43.10225507600477" lon="11.435015032897004"><ele>138.0</ele><time>2026-04-11T11:53:49Z</time></trkpt><trkpt lat="43.102222605979236" lon="11.434910803904272"><ele>138.5</ele><time>2026-04-11T11:53:52Z</time></trkpt><trkpt lat="43.102183727241254" lon="11.434824366060123"><ele>139.0</ele><time>2026-04-11T11:53:55Z</time></trkpt><trkpt lat="43.10217029780666" lon="11.434710856128426"><ele>139.85714285714286</ele><time>2026-04-11T11:53:59Z</time></trkpt><trkpt lat="43.10217668711744" lon="11.434605753612056"><ele>140.71428571428572</ele><time>2026-04-11T11:54:02Z</time></trkpt><trkpt lat="43.10218478206594" lon="11.434511625330522"><ele>141.57142857142858</ele><time>2026-04-11T11:54:05Z</time></trkpt><trkpt lat="43.10220577132821" lon="11.434421689404324"><ele>142.42857142857144</ele><time>2026-04-11T11:54:08Z</time></trkpt><trkpt lat="43.10222560413755" lon="11.434333123416444"><ele>143.2857142857143</ele><time>2026-04-11T11:54:11Z</time></trkpt><trkpt lat="43.10223900658122" lon="11.43423401003409"><ele>144.14285714285714</ele><time>2026-04-11T11:54:14Z</time></trkpt><trkpt lat="43.10225928995165" lon="11.434140853464356"><ele>145.0</ele><time>2026-04-11T11:54:17Z</time></trkpt><trkpt lat="43.10227724034076" lon="11.434041994858845"><ele>145.0</ele><time>2026-04-11T11:54:20Z</time></trkpt><trkpt lat="43.10228699357446" lon="11.4339383025492"><ele>145.0</ele><time>2026-04-11T11:54:23Z</time></trkpt><trkpt lat="43.10229360282048" lon="11.433831725545927"><ele>145.0</ele><time>2026-04-11T11:54:26Z</time></trkpt><trkpt lat="43.10230759948442" lon="11.433733584992147"><ele>145.0</ele><time>2026-04-11T11:54:29Z</time></trkpt><trkpt lat="43.10231391117147" lon="11.43363898553613"><ele>145.0</ele><time>2026-04-11T11:54:32Z</time></trkpt><trkpt lat="43.102351619267274" lon="11.433541598092726"><ele>145.0</ele><time>2026-04-11T11:54:35Z</time></trkpt><trkpt lat="43.102353308688414" lon="11.433441921710632"><ele>145.16666666666669</ele><time>2026-04-11T11:54:38Z</time></trkpt><trkpt lat="43.10234897366723" lon="11.43333809120202"><ele>145.33333333333334</ele><time>2026-04-11T11:54:41Z</time></trkpt><trkpt lat="43.102340287864486" lon="11.433243210564848"><ele>145.5</ele><time>2026-04-11T11:54:44Z</time></trkpt><trkpt lat="43.1023237775966" lon="11.433136628760609"><ele>145.66666666666666</ele><time>2026-04-11T11:54:47Z</time></trkpt><trkpt lat="43.102300400734364" lon="11.433025128067031"><ele>145.83333333333331</ele><time>2026-04-11T11:54:50Z</time></trkpt><trkpt lat="43.10227144162506" lon="11.432920976904388"><ele>146.0</ele><time>2026-04-11T11:54:53Z</time></trkpt><trkpt lat="43.102235580855805" lon="11.43281563301846"><ele>146.0</ele><time>2026-04-11T11:54:56Z</time></trkpt><trkpt lat="43.10218536876054" lon="11.43271795471883"><ele>146.0</ele><time>2026-04-11T11:54:59Z</time></trkpt><trkpt lat="43.10212455827834" lon="11.432637350322947"><ele>146.0</ele><time>2026-04-11T11:55:02Z</time></trkpt><trkpt lat="43.10206545688402" lon="11.432565381500648"><ele>146.0</ele><time>2026-04-11T11:55:05Z</time></trkpt><trkpt lat="43.10201679076982" lon="11.432506119735406"><ele>146.0</ele><time>2026-04-11T11:55:08Z</time></trkpt><trkpt lat="43.10193877960333" lon="11.43249434255328"><ele>146.0</ele><time>2026-04-11T11:55:11Z</time></trkpt><trkpt lat="43.10187439490596" lon="11.432472230606818"><ele>146.0</ele><time>2026-04-11T11:55:14Z</time></trkpt><trkpt lat="43.10180468616323" lon="11.432459018255313"><ele>146.0</ele><time>2026-04-11T11:55:17Z</time></trkpt><trkpt lat="43.10173338739572" lon="11.43244920346141"><ele>146.0</ele><time>2026-04-11T11:55:20Z</time></trkpt><trkpt lat="43.10165999220639" lon="11.432444188906778"><ele>146.0</ele><time>2026-04-11T11:55:23Z</time></trkpt><trkpt lat="43.10158841314743" lon="11.432436008757044"><ele>146.0</ele><time>2026-04-11T11:55:26Z</time></trkpt><trkpt lat="43.101515938034254" lon="11.432431291369916"><ele>146.0</ele><time>2026-04-11T11:55:29Z</time></trkpt><trkpt lat="43.10144398406912" lon="11.43242361444375"><ele>146.0</ele><time>2026-04-11T11:55:32Z</time></trkpt><trkpt lat="43.10137536931494" lon="11.432415366204438"><ele>147.0</ele><time>2026-04-11T11:55:35Z</time></trkpt><trkpt lat="43.10130402863615" lon="11.432390612092528"><ele>148.0</ele><time>2026-04-11T11:55:38Z</time></trkpt><trkpt lat="43.1012329255825" lon="11.432384351025414"><ele>149.0</ele><time>2026-04-11T11:55:41Z</time></trkpt><trkpt lat="43.101152602312645" lon="11.432377445559181"><ele>150.0</ele><time>2026-04-11T11:55:44Z</time></trkpt><trkpt lat="43.10107092413435" lon="11.432370459470174"><ele>151.0</ele><time>2026-04-11T11:55:47Z</time></trkpt><trkpt lat="43.10098379348393" lon="11.432363007103348"><ele>152.0</ele><time>2026-04-11T11:55:49.999Z</time></trkpt><trkpt lat="43.100904187985265" lon="11.432358093835184"><ele>152.0</ele><time>2026-04-11T11:55:52.999Z</time></trkpt><trkpt lat="43.1008227649619" lon="11.432365965218168"><ele>152.0</ele><time>2026-04-11T11:55:56Z</time></trkpt><trkpt lat="43.10074225866388" lon="11.432362053475398"><ele>152.0</ele><time>2026-04-11T11:55:59Z</time></trkpt><trkpt lat="43.100668812843054" lon="11.432357562612678"><ele>152.0</ele><time>2026-04-11T11:56:02Z</time></trkpt><trkpt lat="43.100593200843484" lon="11.432350869536108"><ele>152.0</ele><time>2026-04-11T11:56:05Z</time></trkpt><trkpt lat="43.100518348758456" lon="11.432344211496147"><ele>152.0</ele><time>2026-04-11T11:56:08Z</time></trkpt><trkpt lat="43.10044509750787" lon="11.432341493386996"><ele>152.85714285714286</ele><time>2026-04-11T11:56:11Z</time></trkpt><trkpt lat="43.10037238163435" lon="11.43232667671292"><ele>153.71428571428572</ele><time>2026-04-11T11:56:14Z</time></trkpt><trkpt lat="43.100303024831106" lon="11.432323894911168"><ele>154.57142857142858</ele><time>2026-04-11T11:56:17Z</time></trkpt><trkpt lat="43.10023145870377" lon="11.432319331556782"><ele>155.42857142857144</ele><time>2026-04-11T11:56:20Z</time></trkpt><trkpt lat="43.100158445845715" lon="11.432313633135431"><ele>156.28571428571428</ele><time>2026-04-11T11:56:23Z</time></trkpt><trkpt lat="43.10009255588237" lon="11.432301202643963"><ele>157.14285714285717</ele><time>2026-04-11T11:56:26Z</time></trkpt><trkpt lat="43.100022837986145" lon="11.432287589520492"><ele>158.0</ele><time>2026-04-11T11:56:29Z</time></trkpt><trkpt lat="43.099954300263335" lon="11.432284265924803"><ele>158.42857142857144</ele><time>2026-04-11T11:56:32Z</time></trkpt><trkpt lat="43.09989035719624" lon="11.432284206382912"><ele>158.85714285714286</ele><time>2026-04-11T11:56:35Z</time></trkpt><trkpt lat="43.09982731002988" lon="11.43227707789904"><ele>159.28571428571428</ele><time>2026-04-11T11:56:38Z</time></trkpt><trkpt lat="43.0997473913308" lon="11.432269546502164"><ele>159.71428571428572</ele><time>2026-04-11T11:56:42Z</time></trkpt><trkpt lat="43.09968431941322" lon="11.432260913558752"><ele>160.14285714285714</ele><time>2026-04-11T11:56:45Z</time></trkpt><trkpt lat="43.099616486394375" lon="11.43226072118285"><ele>160.57142857142858</ele><time>2026-04-11T11:56:49Z</time></trkpt><trkpt lat="43.09953903897225" lon="11.432253958962205"><ele>161.0</ele><time>2026-04-11T11:56:53Z</time></trkpt><trkpt lat="43.09945985633877" lon="11.432244261309988"><ele>161.0</ele><time>2026-04-11T11:56:57Z</time></trkpt><trkpt lat="43.0993740917588" lon="11.4322417753675"><ele>161.0</ele><time>2026-04-11T11:57:01Z</time></trkpt><trkpt lat="43.099303204145905" lon="11.432214953251709"><ele>161.0</ele><time>2026-04-11T11:57:04Z</time></trkpt><trkpt lat="43.099237418274754" lon="11.432209114897091"><ele>161.0</ele><time>2026-04-11T11:57:07Z</time></trkpt><trkpt lat="43.099166737143854" lon="11.432226437038878"><ele>161.0</ele><time>2026-04-11T11:57:10Z</time></trkpt><trkpt lat="43.099103405515606" lon="11.432218868700396"><ele>161.0</ele><time>2026-04-11T11:57:13Z</time></trkpt><trkpt lat="43.09903435503738" lon="11.432202881651277"><ele>161.0</ele><time>2026-04-11T11:57:16Z</time></trkpt><trkpt lat="43.0989644349672" lon="11.432199900433739"><ele>160.42857142857142</ele><time>2026-04-11T11:57:19Z</time></trkpt><trkpt lat="43.098896855300126" lon="11.432195090878519"><ele>159.85714285714286</ele><time>2026-04-11T11:57:22Z</time></trkpt><trkpt lat="43.09883159314746" lon="11.43218695123357"><ele>159.28571428571428</ele><time>2026-04-11T11:57:25Z</time></trkpt><trkpt lat="43.09876260446366" lon="11.432172652971563"><ele>158.71428571428572</ele><time>2026-04-11T11:57:28Z</time></trkpt><trkpt lat="43.09869003380086" lon="11.432143778049513"><ele>158.14285714285714</ele><time>2026-04-11T11:57:31Z</time></trkpt><trkpt lat="43.09861214480042" lon="11.432109526097605"><ele>157.57142857142856</ele><time>2026-04-11T11:57:34Z</time></trkpt><trkpt lat="43.09853284106596" lon="11.432059349404069"><ele>157.0</ele><time>2026-04-11T11:57:37Z</time></trkpt><trkpt lat="43.09845472631274" lon="11.432004346753695"><ele>158.0</ele><time>2026-04-11T11:57:40Z</time></trkpt><trkpt lat="43.09839152929551" lon="11.43194576297068"><ele>159.0</ele><time>2026-04-11T11:57:43Z</time></trkpt><trkpt lat="43.098335629143506" lon="11.431884515822121"><ele>160.0</ele><time>2026-04-11T11:57:45Z</time></trkpt><trkpt lat="43.09826377173777" lon="11.431829493397538"><ele>161.0</ele><time>2026-04-11T11:57:48Z</time></trkpt><trkpt lat="43.098193340891655" lon="11.43177025027298"><ele>162.0</ele><time>2026-04-11T11:57:51Z</time></trkpt><trkpt lat="43.098116509288964" lon="11.431720094933588"><ele>163.0</ele><time>2026-04-11T11:57:54Z</time></trkpt><trkpt lat="43.09804293608654" lon="11.431644951299733"><ele>163.0</ele><time>2026-04-11T11:57:56.999Z</time></trkpt><trkpt lat="43.0979734108761" lon="11.431572962272902"><ele>163.0</ele><time>2026-04-11T11:58:00Z</time></trkpt><trkpt lat="43.09790163522659" lon="11.431524476352402"><ele>163.0</ele><time>2026-04-11T11:58:03Z</time></trkpt><trkpt lat="43.09784435649801" lon="11.431484825401277"><ele>163.0</ele><time>2026-04-11T11:58:05Z</time></trkpt><trkpt lat="43.097790339693205" lon="11.431439044608297"><ele>163.0</ele><time>2026-04-11T11:58:07Z</time></trkpt><trkpt lat="43.097720678911884" lon="11.431369880326978"><ele>163.0</ele><time>2026-04-11T11:58:10Z</time></trkpt><trkpt lat="43.09766249074043" lon="11.431319813007642"><ele>163.66666666666669</ele><time>2026-04-11T11:58:13Z</time></trkpt><trkpt lat="43.09759741773481" lon="11.431271759122472"><ele>164.33333333333334</ele><time>2026-04-11T11:58:16Z</time></trkpt><trkpt lat="43.097528202390286" lon="11.431208178676908"><ele>165.0</ele><time>2026-04-11T11:58:19Z</time></trkpt><trkpt lat="43.09745128640131" lon="11.431131143329603"><ele>165.66666666666666</ele><time>2026-04-11T11:58:22Z</time></trkpt><trkpt lat="43.097378851074126" lon="11.431062503311091"><ele>166.33333333333331</ele><time>2026-04-11T11:58:25Z</time></trkpt><trkpt lat="43.0973022422917" lon="11.431009112166462"><ele>167.0</ele><time>2026-04-11T11:58:28Z</time></trkpt><trkpt lat="43.097244084267714" lon="11.430958874976021"><ele>167.0</ele><time>2026-04-11T11:58:30Z</time></trkpt><trkpt lat="43.09716905974505" lon="11.430891951536463"><ele>167.0</ele><time>2026-04-11T11:58:33Z</time></trkpt><trkpt lat="43.09709592554304" lon="11.430831189119665"><ele>167.0</ele><time>2026-04-11T11:58:36Z</time></trkpt><trkpt lat="43.09702923221081" lon="11.4307771546198"><ele>167.0</ele><time>2026-04-11T11:58:39Z</time></trkpt><trkpt lat="43.09695584838264" lon="11.430720274324099"><ele>167.0</ele><time>2026-04-11T11:58:42Z</time></trkpt><trkpt lat="43.0968866549688" lon="11.43067285392713"><ele>167.0</ele><time>2026-04-11T11:58:45Z</time></trkpt><trkpt lat="43.09682280599295" lon="11.430606722415297"><ele>167.0</ele><time>2026-04-11T11:58:48Z</time></trkpt><trkpt lat="43.096760836074345" lon="11.430547690455743"><ele>167.0</ele><time>2026-04-11T11:58:51Z</time></trkpt><trkpt lat="43.096713154037495" lon="11.43048273135532"><ele>167.0</ele><time>2026-04-11T11:58:53Z</time></trkpt><trkpt lat="43.09665873059275" lon="11.43040538534133"><ele>167.0</ele><time>2026-04-11T11:58:56Z</time></trkpt><trkpt lat="43.096595677531006" lon="11.430322936127922"><ele>167.0</ele><time>2026-04-11T11:58:59Z</time></trkpt><trkpt lat="43.09652777519924" lon="11.43024598660543"><ele>167.0</ele><time>2026-04-11T11:59:02Z</time></trkpt><trkpt lat="43.09646554483634" lon="11.430175430493007"><ele>167.66666666666666</ele><time>2026-04-11T11:59:05Z</time></trkpt><trkpt lat="43.0964078747441" lon="11.43009696037349"><ele>168.33333333333331</ele><time>2026-04-11T11:59:08Z</time></trkpt><trkpt lat="43.09635016246665" lon="11.430024901664556"><ele>169.0</ele><time>2026-04-11T11:59:11Z</time></trkpt><trkpt lat="43.09628671232121" lon="11.429944667027055"><ele>169.66666666666666</ele><time>2026-04-11T11:59:14Z</time></trkpt><trkpt lat="43.09622311404207" lon="11.429878132615606"><ele>170.33333333333334</ele><time>2026-04-11T11:59:17Z</time></trkpt><trkpt lat="43.09616165114928" lon="11.429806192561657"><ele>171.0</ele><time>2026-04-11T11:59:20Z</time></trkpt><trkpt lat="43.09610353147523" lon="11.429740743820458"><ele>171.0</ele><time>2026-04-11T11:59:23Z</time></trkpt><trkpt lat="43.09604163507041" lon="11.42968002871086"><ele>171.0</ele><time>2026-04-11T11:59:26Z</time></trkpt><trkpt lat="43.09597886420539" lon="11.429615710037801"><ele>171.0</ele><time>2026-04-11T11:59:29Z</time></trkpt><trkpt lat="43.09591704544503" lon="11.429561740096386"><ele>171.0</ele><time>2026-04-11T11:59:32Z</time></trkpt><trkpt lat="43.09584962431228" lon="11.42951810565334"><ele>171.0</ele><time>2026-04-11T11:59:35Z</time></trkpt><trkpt lat="43.09578583676679" lon="11.429465033469052"><ele>171.0</ele><time>2026-04-11T11:59:38Z</time></trkpt><trkpt lat="43.09572244354527" lon="11.429413698853974"><ele>172.33333333333334</ele><time>2026-04-11T11:59:40.999Z</time></trkpt><trkpt lat="43.095651969438606" lon="11.429360341881821"><ele>173.66666666666666</ele><time>2026-04-11T11:59:43.999Z</time></trkpt><trkpt lat="43.09559322008472" lon="11.429322607742943"><ele>175.0</ele><time>2026-04-11T11:59:46.999Z</time></trkpt><trkpt lat="43.09552458103338" lon="11.429264644766668"><ele>176.33333333333331</ele><time>2026-04-11T11:59:49.999Z</time></trkpt><trkpt lat="43.09545656905826" lon="11.429215380154512"><ele>177.66666666666666</ele><time>2026-04-11T11:59:52.999Z</time></trkpt><trkpt lat="43.095389371834855" lon="11.42915930037995"><ele>179.0</ele><time>2026-04-11T11:59:55.999Z</time></trkpt><trkpt lat="43.095327026622556" lon="11.429116124158378"><ele>179.00000000000003</ele><time>2026-04-11T11:59:58.999Z</time></trkpt><trkpt lat="43.09525729410251" lon="11.429073510616794"><ele>179.0</ele><time>2026-04-11T12:00:01.999Z</time></trkpt><trkpt lat="43.09519378625755" lon="11.42903336558149"><ele>179.0</ele><time>2026-04-11T12:00:04.999Z</time></trkpt><trkpt lat="43.09513116164391" lon="11.428978683971994"><ele>179.0</ele><time>2026-04-11T12:00:08Z</time></trkpt><trkpt lat="43.09507050046616" lon="11.428934791214957"><ele>179.0</ele><time>2026-04-11T12:00:11Z</time></trkpt><trkpt lat="43.095006804740336" lon="11.428890994011129"><ele>179.00000000000003</ele><time>2026-04-11T12:00:14Z</time></trkpt><trkpt lat="43.094927814181446" lon="11.428839131429964"><ele>179.0</ele><time>2026-04-11T12:00:18Z</time></trkpt><trkpt lat="43.09485622721122" lon="11.428781972212766"><ele>180.00000000000003</ele><time>2026-04-11T12:00:22Z</time></trkpt><trkpt lat="43.09479654139692" lon="11.42874339197031"><ele>181.0</ele><time>2026-04-11T12:00:25Z</time></trkpt><trkpt lat="43.09473477827012" lon="11.428702077809243"><ele>182.0</ele><time>2026-04-11T12:00:28Z</time></trkpt><trkpt lat="43.09467548924882" lon="11.42866468588757"><ele>183.0</ele><time>2026-04-11T12:00:31Z</time></trkpt><trkpt lat="43.0946152311993" lon="11.4286230914212"><ele>184.0</ele><time>2026-04-11T12:00:34Z</time></trkpt><trkpt lat="43.09455476937037" lon="11.428588170424097"><ele>185.00000000000003</ele><time>2026-04-11T12:00:37Z</time></trkpt><trkpt lat="43.09450321503569" lon="11.428533424182175"><ele>186.0</ele><time>2026-04-11T12:00:40Z</time></trkpt><trkpt lat="43.09444672939219" lon="11.428491514834281"><ele>186.0</ele><time>2026-04-11T12:00:43Z</time></trkpt><trkpt lat="43.0943703507166" lon="11.428439769694075"><ele>186.0</ele><time>2026-04-11T12:00:47Z</time></trkpt><trkpt lat="43.09431248847368" lon="11.428400416622384"><ele>186.0</ele><time>2026-04-11T12:00:50Z</time></trkpt><trkpt lat="43.094239325591396" lon="11.42834549525252"><ele>186.0</ele><time>2026-04-11T12:00:54Z</time></trkpt><trkpt lat="43.09416211650696" lon="11.4282962663914"><ele>186.0</ele><time>2026-04-11T12:00:58Z</time></trkpt><trkpt lat="43.09410406819451" lon="11.428253054134338"><ele>186.0</ele><time>2026-04-11T12:01:01Z</time></trkpt><trkpt lat="43.09404136198667" lon="11.428207452786568"><ele>186.2857142857143</ele><time>2026-04-11T12:01:04Z</time></trkpt><trkpt lat="43.09397845848395" lon="11.42816226546328"><ele>186.57142857142858</ele><time>2026-04-11T12:01:07Z</time></trkpt><trkpt lat="43.09391651347114" lon="11.428114894624304"><ele>186.85714285714286</ele><time>2026-04-11T12:01:10Z</time></trkpt><trkpt lat="43.093855018531166" lon="11.428075848223619"><ele>187.14285714285717</ele><time>2026-04-11T12:01:13Z</time></trkpt><trkpt lat="43.093795847468726" lon="11.428037512968078"><ele>187.42857142857142</ele><time>2026-04-11T12:01:16Z</time></trkpt><trkpt lat="43.093735455600026" lon="11.427999831512114"><ele>187.71428571428572</ele><time>2026-04-11T12:01:19Z</time></trkpt><trkpt lat="43.09367679781679" lon="11.427947792489462"><ele>188.0</ele><time>2026-04-11T12:01:22Z</time></trkpt><trkpt lat="43.09361844553093" lon="11.427902150723732"><ele>188.42857142857142</ele><time>2026-04-11T12:01:25Z</time></trkpt><trkpt lat="43.093559039442425" lon="11.42785926163055"><ele>188.85714285714283</ele><time>2026-04-11T12:01:28Z</time></trkpt><trkpt lat="43.0935004731099" lon="11.427819908704862"><ele>189.28571428571428</ele><time>2026-04-11T12:01:31Z</time></trkpt><trkpt lat="43.09344223588545" lon="11.42777758746809"><ele>189.71428571428572</ele><time>2026-04-11T12:01:34Z</time></trkpt><trkpt lat="43.09338819443595" lon="11.427728722666513"><ele>190.14285714285714</ele><time>2026-04-11T12:01:37Z</time></trkpt><trkpt lat="43.093325853891905" lon="11.42770031654011"><ele>190.57142857142858</ele><time>2026-04-11T12:01:40Z</time></trkpt><trkpt lat="43.09326733254663" lon="11.427650227263843"><ele>191.0</ele><time>2026-04-11T12:01:43Z</time></trkpt><trkpt lat="43.09319268537204" lon="11.427603025509944"><ele>191.42857142857144</ele><time>2026-04-11T12:01:47Z</time></trkpt><trkpt lat="43.0931376719482" lon="11.427553747435994"><ele>191.85714285714283</ele><time>2026-04-11T12:01:50Z</time></trkpt><trkpt lat="43.09307029623046" lon="11.427519581464136"><ele>192.28571428571428</ele><time>2026-04-11T12:01:53Z</time></trkpt><trkpt lat="43.093006529204054" lon="11.42747420357045"><ele>192.71428571428572</ele><time>2026-04-11T12:01:56Z</time></trkpt><trkpt lat="43.092947562018466" lon="11.427428027739701"><ele>193.14285714285717</ele><time>2026-04-11T12:01:59Z</time></trkpt><trkpt lat="43.0928923579517" lon="11.427378537910487"><ele>193.57142857142856</ele><time>2026-04-11T12:02:02Z</time></trkpt><trkpt lat="43.092830832038274" lon="11.427332850408488"><ele>194.0</ele><time>2026-04-11T12:02:05Z</time></trkpt><trkpt lat="43.09277717430895" lon="11.427284204110324"><ele>194.0</ele><time>2026-04-11T12:02:07.999Z</time></trkpt><trkpt lat="43.092715173210074" lon="11.427238593487978"><ele>194.0</ele><time>2026-04-11T12:02:10.999Z</time></trkpt><trkpt lat="43.092649538236714" lon="11.427201255051136"><ele>194.0</ele><time>2026-04-11T12:02:14Z</time></trkpt><trkpt lat="43.09259564469497" lon="11.427149896426847"><ele>194.0</ele><time>2026-04-11T12:02:17Z</time></trkpt><trkpt lat="43.09253300765809" lon="11.427105849969065"><ele>194.0</ele><time>2026-04-11T12:02:20Z</time></trkpt><trkpt lat="43.09247350977278" lon="11.427060263094939"><ele>194.0</ele><time>2026-04-11T12:02:23Z</time></trkpt><trkpt lat="43.09240965244794" lon="11.427019725806911"><ele>194.0</ele><time>2026-04-11T12:02:26Z</time></trkpt><trkpt lat="43.09235098136663" lon="11.426972462026564"><ele>194.85714285714286</ele><time>2026-04-11T12:02:29Z</time></trkpt><trkpt lat="43.09229392599289" lon="11.42692592134557"><ele>195.71428571428572</ele><time>2026-04-11T12:02:32Z</time></trkpt><trkpt lat="43.09223648649498" lon="11.426881845489605"><ele>196.57142857142858</ele><time>2026-04-11T12:02:35Z</time></trkpt><trkpt lat="43.09217697827716" lon="11.42684792998324"><ele>197.42857142857144</ele><time>2026-04-11T12:02:38Z</time></trkpt><trkpt lat="43.092106397480585" lon="11.426800297189871"><ele>198.28571428571428</ele><time>2026-04-11T12:02:42Z</time></trkpt><trkpt lat="43.09205087303803" lon="11.426758484952748"><ele>199.14285714285717</ele><time>2026-04-11T12:02:45Z</time></trkpt><trkpt lat="43.09198618941376" lon="11.426705815370532"><ele>200.0</ele><time>2026-04-11T12:02:49Z</time></trkpt><trkpt lat="43.0919183573367" lon="11.426657868666126"><ele>200.00000000000003</ele><time>2026-04-11T12:02:52Z</time></trkpt><trkpt lat="43.09185787994418" lon="11.426615780329794"><ele>200.0</ele><time>2026-04-11T12:02:54Z</time></trkpt><trkpt lat="43.091782263193444" lon="11.426558908259777"><ele>200.0</ele><time>2026-04-11T12:02:58Z</time></trkpt><trkpt lat="43.0917167551658" lon="11.426514320002179"><ele>200.0</ele><time>2026-04-11T12:03:01Z</time></trkpt><trkpt lat="43.09166102012592" lon="11.426464642766973"><ele>200.00000000000003</ele><time>2026-04-11T12:03:04Z</time></trkpt><trkpt lat="43.09159625298789" lon="11.426404510468581"><ele>200.0</ele><time>2026-04-11T12:03:08Z</time></trkpt><trkpt lat="43.09152278759267" lon="11.426362246371681"><ele>199.85714285714286</ele><time>2026-04-11T12:03:11Z</time></trkpt><trkpt lat="43.09146034356257" lon="11.426326747379138"><ele>199.71428571428572</ele><time>2026-04-11T12:03:14Z</time></trkpt><trkpt lat="43.09140066056005" lon="11.426279476327874"><ele>199.57142857142856</ele><time>2026-04-11T12:03:17Z</time></trkpt><trkpt lat="43.09133985633999" lon="11.426230868641975"><ele>199.42857142857144</ele><time>2026-04-11T12:03:20Z</time></trkpt><trkpt lat="43.09128082278967" lon="11.426185116921932"><ele>199.28571428571428</ele><time>2026-04-11T12:03:23Z</time></trkpt><trkpt lat="43.091222442907174" lon="11.426146779019428"><ele>199.14285714285714</ele><time>2026-04-11T12:03:26Z</time></trkpt><trkpt lat="43.09116003169163" lon="11.426100372227586"><ele>199.0</ele><time>2026-04-11T12:03:29Z</time></trkpt><trkpt lat="43.09110021032526" lon="11.426055303169319"><ele>199.66666666666666</ele><time>2026-04-11T12:03:32Z</time></trkpt><trkpt lat="43.09102953130219" lon="11.426014267015614"><ele>200.33333333333331</ele><time>2026-04-11T12:03:35Z</time></trkpt><trkpt lat="43.090957372018025" lon="11.425986906369735"><ele>201.0</ele><time>2026-04-11T12:03:38Z</time></trkpt><trkpt lat="43.09088592547128" lon="11.425954350612642"><ele>201.66666666666669</ele><time>2026-04-11T12:03:41Z</time></trkpt><trkpt lat="43.09081039679627" lon="11.425930793412405"><ele>202.33333333333334</ele><time>2026-04-11T12:03:44Z</time></trkpt><trkpt lat="43.09073260626041" lon="11.425910439422553"><ele>203.0</ele><time>2026-04-11T12:03:47Z</time></trkpt><trkpt lat="43.09065943285059" lon="11.425887028857298"><ele>203.85714285714286</ele><time>2026-04-11T12:03:50Z</time></trkpt><trkpt lat="43.090582860641966" lon="11.425862052965806"><ele>204.71428571428572</ele><time>2026-04-11T12:03:53Z</time></trkpt><trkpt lat="43.0905091919332" lon="11.425841905068568"><ele>205.57142857142856</ele><time>2026-04-11T12:03:56Z</time></trkpt><trkpt lat="43.09044573189887" lon="11.425820134894849"><ele>206.42857142857144</ele><time>2026-04-11T12:03:59Z</time></trkpt><trkpt lat="43.09036883029841" lon="11.42582141144599"><ele>207.28571428571428</ele><time>2026-04-11T12:04:02Z</time></trkpt><trkpt lat="43.09030504293736" lon="11.425799101581854"><ele>208.14285714285714</ele><time>2026-04-11T12:04:05Z</time></trkpt><trkpt lat="43.090239746869145" lon="11.425779475246628"><ele>209.0</ele><time>2026-04-11T12:04:08Z</time></trkpt><trkpt lat="43.09017593244216" lon="11.425751240931879"><ele>209.0</ele><time>2026-04-11T12:04:11Z</time></trkpt><trkpt lat="43.090112038509076" lon="11.425742281693504"><ele>209.0</ele><time>2026-04-11T12:04:14Z</time></trkpt><trkpt lat="43.09004074330782" lon="11.425723449625421"><ele>209.0</ele><time>2026-04-11T12:04:17Z</time></trkpt><trkpt lat="43.089977883267615" lon="11.425701854036555"><ele>209.0</ele><time>2026-04-11T12:04:20Z</time></trkpt><trkpt lat="43.08991459965586" lon="11.425690855361042"><ele>209.0</ele><time>2026-04-11T12:04:23Z</time></trkpt><trkpt lat="43.08983881524918" lon="11.4256695494459"><ele>209.0</ele><time>2026-04-11T12:04:27Z</time></trkpt><trkpt lat="43.08976821951804" lon="11.42564879226785"><ele>209.0</ele><time>2026-04-11T12:04:30Z</time></trkpt><trkpt lat="43.08970170407324" lon="11.425630764202117"><ele>209.83333333333334</ele><time>2026-04-11T12:04:33Z</time></trkpt><trkpt lat="43.089639423346235" lon="11.425604859348539"><ele>210.66666666666669</ele><time>2026-04-11T12:04:36Z</time></trkpt><trkpt lat="43.089559412905004" lon="11.425581610698126"><ele>211.5</ele><time>2026-04-11T12:04:40Z</time></trkpt><trkpt lat="43.08947741226649" lon="11.425573885266207"><ele>212.33333333333331</ele><time>2026-04-11T12:04:44Z</time></trkpt><trkpt lat="43.089396773385964" lon="11.425551531094744"><ele>213.16666666666666</ele><time>2026-04-11T12:04:48Z</time></trkpt><trkpt lat="43.08932615948417" lon="11.42552079878356"><ele>214.0</ele><time>2026-04-11T12:04:52Z</time></trkpt><trkpt lat="43.08926054359762" lon="11.425501325770098"><ele>215.2857142857143</ele><time>2026-04-11T12:04:56Z</time></trkpt><trkpt lat="43.089192644966175" lon="11.42547382878595"><ele>216.57142857142858</ele><time>2026-04-11T12:05:00Z</time></trkpt><trkpt lat="43.089129561360025" lon="11.425442058884496"><ele>217.85714285714286</ele><time>2026-04-11T12:05:04Z</time></trkpt><trkpt lat="43.08907359328496" lon="11.425395851880637"><ele>219.14285714285717</ele><time>2026-04-11T12:05:09Z</time></trkpt><trkpt lat="43.08900409363925" lon="11.425361198945087"><ele>220.42857142857142</ele><time>2026-04-11T12:05:14Z</time></trkpt><trkpt lat="43.08896067718943" lon="11.425277668040417"><ele>221.71428571428572</ele><time>2026-04-11T12:05:19Z</time></trkpt><trkpt lat="43.08895825136569" lon="11.42518973111609"><ele>223.0</ele><time>2026-04-11T12:05:23Z</time></trkpt><trkpt lat="43.088932945183885" lon="11.425106608824397"><ele>225.42857142857142</ele><time>2026-04-11T12:05:28Z</time></trkpt><trkpt lat="43.088928118198275" lon="11.425017134273052"><ele>227.85714285714283</ele><time>2026-04-11T12:05:32Z</time></trkpt><trkpt lat="43.088931756599976" lon="11.42492964867538"><ele>230.28571428571428</ele><time>2026-04-11T12:05:36Z</time></trkpt><trkpt lat="43.08894606412468" lon="11.424844901569163"><ele>232.71428571428572</ele><time>2026-04-11T12:05:40Z</time></trkpt><trkpt lat="43.08895642717794" lon="11.424746503361884"><ele>235.14285714285714</ele><time>2026-04-11T12:05:44Z</time></trkpt><trkpt lat="43.088975073568925" lon="11.424660440588045"><ele>237.57142857142858</ele><time>2026-04-11T12:05:48Z</time></trkpt><trkpt lat="43.0889775405405" lon="11.424570149884701"><ele>240.0</ele><time>2026-04-11T12:05:52Z</time></trkpt><trkpt lat="43.08899429555521" lon="11.424479274729459"><ele>239.71428571428572</ele><time>2026-04-11T12:05:56Z</time></trkpt><trkpt lat="43.08901179050576" lon="11.424385780811471"><ele>239.42857142857142</ele><time>2026-04-11T12:06:00Z</time></trkpt><trkpt lat="43.089038601306285" lon="11.424294332388861"><ele>239.14285714285714</ele><time>2026-04-11T12:06:05Z</time></trkpt><trkpt lat="43.08905062762535" lon="11.424190961959454"><ele>238.85714285714286</ele><time>2026-04-11T12:06:09Z</time></trkpt><trkpt lat="43.08906748198412" lon="11.424086999358014"><ele>238.57142857142856</ele><time>2026-04-11T12:06:13Z</time></trkpt><trkpt lat="43.08908028876206" lon="11.423995814062051"><ele>238.28571428571428</ele><time>2026-04-11T12:06:17Z</time></trkpt><trkpt lat="43.0890988613128" lon="11.423894070555884"><ele>238.0</ele><time>2026-04-11T12:06:21Z</time></trkpt><trkpt lat="43.08911737131687" lon="11.423791577775225"><ele>238.0</ele><time>2026-04-11T12:06:25Z</time></trkpt><trkpt lat="43.0891303256744" lon="11.423701085468819"><ele>238.0</ele><time>2026-04-11T12:06:29Z</time></trkpt><trkpt lat="43.089145414964094" lon="11.423608334160864"><ele>238.0</ele><time>2026-04-11T12:06:33Z</time></trkpt><trkpt lat="43.08915183259313" lon="11.423516647381966"><ele>238.0</ele><time>2026-04-11T12:06:37Z</time></trkpt><trkpt lat="43.08915850756496" lon="11.423425219088372"><ele>238.0</ele><time>2026-04-11T12:06:41Z</time></trkpt><trkpt lat="43.08915560438193" lon="11.423327854376597"><ele>238.0</ele><time>2026-04-11T12:06:45Z</time></trkpt><trkpt lat="43.08914447894798" lon="11.423238323634818"><ele>238.0</ele><time>2026-04-11T12:06:49Z</time></trkpt><trkpt lat="43.08912315731415" lon="11.423141590927058"><ele>238.0</ele><time>2026-04-11T12:06:54Z</time></trkpt><trkpt lat="43.08910180730841" lon="11.423055673672762"><ele>238.0</ele><time>2026-04-11T12:06:59Z</time></trkpt><trkpt lat="43.08906407730022" lon="11.422965264642148"><ele>238.0</ele><time>2026-04-11T12:07:05Z</time></trkpt><trkpt lat="43.08903766682849" lon="11.422872880544519"><ele>238.0</ele><time>2026-04-11T12:07:10Z</time></trkpt><trkpt lat="43.089001359715304" lon="11.422791748552392"><ele>238.0</ele><time>2026-04-11T12:07:15Z</time></trkpt><trkpt lat="43.088970689559446" lon="11.42271608219458"><ele>238.0</ele><time>2026-04-11T12:07:20Z</time></trkpt><trkpt lat="43.08893922602743" lon="11.422639180228735"><ele>238.0</ele><time>2026-04-11T12:07:24Z</time></trkpt><trkpt lat="43.08891112471505" lon="11.422551635578628"><ele>240.71428571428572</ele><time>2026-04-11T12:07:29Z</time></trkpt><trkpt lat="43.08887859605468" lon="11.422469500687711"><ele>243.42857142857144</ele><time>2026-04-11T12:07:34Z</time></trkpt><trkpt lat="43.088842946199804" lon="11.42238684404541"><ele>246.14285714285714</ele><time>2026-04-11T12:07:38Z</time></trkpt><trkpt lat="43.08880903764588" lon="11.422291027280995"><ele>248.85714285714286</ele><time>2026-04-11T12:07:43Z</time></trkpt><trkpt lat="43.08877520262889" lon="11.42219275438674"><ele>251.57142857142858</ele><time>2026-04-11T12:07:48Z</time></trkpt><trkpt lat="43.08874670081326" lon="11.422113126602001"><ele>254.28571428571428</ele><time>2026-04-11T12:07:52Z</time></trkpt><trkpt lat="43.088719543255785" lon="11.422028394006356"><ele>257.0</ele><time>2026-04-11T12:07:56Z</time></trkpt><trkpt lat="43.08868164040823" lon="11.421935856233597"><ele>257.0</ele><time>2026-04-11T12:08:01Z</time></trkpt><trkpt lat="43.0886465532324" lon="11.421860787230935"><ele>257.0</ele><time>2026-04-11T12:08:05Z</time></trkpt><trkpt lat="43.08859741362056" lon="11.421793634491221"><ele>257.0</ele><time>2026-04-11T12:08:10Z</time></trkpt><trkpt lat="43.08853224249625" lon="11.4217435985524"><ele>257.0</ele><time>2026-04-11T12:08:15Z</time></trkpt><trkpt lat="43.08846802637092" lon="11.42170338860348"><ele>257.0</ele><time>2026-04-11T12:08:20Z</time></trkpt><trkpt lat="43.08840239436308" lon="11.421682027889343"><ele>257.0</ele><time>2026-04-11T12:08:25Z</time></trkpt><trkpt lat="43.08833396897009" lon="11.421678979446444"><ele>257.0</ele><time>2026-04-11T12:08:30Z</time></trkpt><trkpt lat="43.08826784054671" lon="11.4217247027391"><ele>260.1428571428571</ele><time>2026-04-11T12:08:35Z</time></trkpt><trkpt lat="43.088204843704276" lon="11.421760074064752"><ele>263.2857142857143</ele><time>2026-04-11T12:08:40Z</time></trkpt><trkpt lat="43.08816236130099" lon="11.421843731109579"><ele>266.42857142857144</ele><time>2026-04-11T12:08:45Z</time></trkpt><trkpt lat="43.08813395088049" lon="11.421939285688087"><ele>269.57142857142856</ele><time>2026-04-11T12:08:49Z</time></trkpt><trkpt lat="43.08811989449119" lon="11.422024685991014"><ele>272.7142857142857</ele><time>2026-04-11T12:08:53Z</time></trkpt><trkpt lat="43.08810440893523" lon="11.422123322527831"><ele>275.85714285714283</ele><time>2026-04-11T12:08:58Z</time></trkpt><trkpt lat="43.088090542301835" lon="11.422229279813132"><ele>279.0</ele><time>2026-04-11T12:09:03Z</time></trkpt><trkpt lat="43.088069238099294" lon="11.422318384692218"><ele>279.4285714285714</ele><time>2026-04-11T12:09:08Z</time></trkpt><trkpt lat="43.08804449066305" lon="11.422414218728534"><ele>279.85714285714283</ele><time>2026-04-11T12:09:13Z</time></trkpt><trkpt lat="43.08802524244222" lon="11.42250670570992"><ele>280.2857142857143</ele><time>2026-04-11T12:09:18Z</time></trkpt><trkpt lat="43.088006696949584" lon="11.422592776976026"><ele>280.71428571428567</ele><time>2026-04-11T12:09:22Z</time></trkpt><trkpt lat="43.087988413637106" lon="11.422695014667143"><ele>281.1428571428571</ele><time>2026-04-11T12:09:27Z</time></trkpt><trkpt lat="43.087972450690614" lon="11.422778619932428"><ele>281.57142857142856</ele><time>2026-04-11T12:09:31Z</time></trkpt><trkpt lat="43.087948927690526" lon="11.422871688824657"><ele>282.0</ele><time>2026-04-11T12:09:36Z</time></trkpt><trkpt lat="43.087922472110655" lon="11.422959230511951"><ele>282.14285714285717</ele><time>2026-04-11T12:09:40Z</time></trkpt><trkpt lat="43.08788826268999" lon="11.423053415432022"><ele>282.2857142857143</ele><time>2026-04-11T12:09:45Z</time></trkpt><trkpt lat="43.08785361210241" lon="11.423135679694871"><ele>282.42857142857144</ele><time>2026-04-11T12:09:49Z</time></trkpt><trkpt lat="43.08781447461988" lon="11.423221216834984"><ele>282.57142857142856</ele><time>2026-04-11T12:09:53Z</time></trkpt><trkpt lat="43.0877718764284" lon="11.423310160959128"><ele>282.7142857142857</ele><time>2026-04-11T12:09:58Z</time></trkpt><trkpt lat="43.08773267331962" lon="11.423394331468156"><ele>282.8571428571429</ele><time>2026-04-11T12:10:02Z</time></trkpt><trkpt lat="43.08768329501644" lon="11.423469201069576"><ele>283.0</ele><time>2026-04-11T12:10:07Z</time></trkpt><trkpt lat="43.08763067772236" lon="11.423517907668423"><ele>283.0</ele><time>2026-04-11T12:10:11Z</time></trkpt><trkpt lat="43.08756691537153" lon="11.423533732740653"><ele>283.0</ele><time>2026-04-11T12:10:15Z</time></trkpt><trkpt lat="43.08751273860742" lon="11.423473299302486"><ele>283.0</ele><time>2026-04-11T12:10:20Z</time></trkpt><trkpt lat="43.08748780165927" lon="11.423375370176753"><ele>283.0</ele><time>2026-04-11T12:10:25Z</time></trkpt><trkpt lat="43.08746851029621" lon="11.423289797935443"><ele>283.0</ele><time>2026-04-11T12:10:30Z</time></trkpt><trkpt lat="43.08744975848103" lon="11.423202949778357"><ele>283.0</ele><time>2026-04-11T12:10:34.999Z</time></trkpt><trkpt lat="43.08744091859532" lon="11.423110382817223"><ele>283.0</ele><time>2026-04-11T12:10:40Z</time></trkpt><trkpt lat="43.08742531662419" lon="11.423013501838007"><ele>286.8571428571429</ele><time>2026-04-11T12:10:45Z</time></trkpt><trkpt lat="43.08740990497182" lon="11.422925783143317"><ele>290.7142857142857</ele><time>2026-04-11T12:10:50Z</time></trkpt><trkpt lat="43.08739453705907" lon="11.42283395753329"><ele>294.57142857142856</ele><time>2026-04-11T12:10:55Z</time></trkpt><trkpt lat="43.087363086744595" lon="11.42273407179098"><ele>298.42857142857144</ele><time>2026-04-11T12:11:00Z</time></trkpt><trkpt lat="43.087319028579394" lon="11.42264926900659"><ele>302.2857142857143</ele><time>2026-04-11T12:11:05Z</time></trkpt><trkpt lat="43.087252048837165" lon="11.422602542650791"><ele>306.14285714285717</ele><time>2026-04-11T12:11:10Z</time></trkpt><trkpt lat="43.08717995398148" lon="11.422633217590782"><ele>310.0</ele><time>2026-04-11T12:11:15Z</time></trkpt><trkpt lat="43.08714984661204" lon="11.422729311649524"><ele>310.0</ele><time>2026-04-11T12:11:20Z</time></trkpt><trkpt lat="43.08713538353359" lon="11.422816959489987"><ele>310.0</ele><time>2026-04-11T12:11:25Z</time></trkpt><trkpt lat="43.08713315819397" lon="11.422925338827985"><ele>310.0</ele><time>2026-04-11T12:11:31Z</time></trkpt><trkpt lat="43.087119620338534" lon="11.42301183780062"><ele>310.0</ele><time>2026-04-11T12:11:36Z</time></trkpt><trkpt lat="43.08710046370183" lon="11.42311759080504"><ele>310.0</ele><time>2026-04-11T12:11:42Z</time></trkpt><trkpt lat="43.08708341385283" lon="11.423207534656852"><ele>310.0</ele><time>2026-04-11T12:11:47Z</time></trkpt><trkpt lat="43.087068538924704" lon="11.423299256508122"><ele>310.0</ele><time>2026-04-11T12:11:52Z</time></trkpt><trkpt lat="43.08704822498257" lon="11.423393566253283"><ele>310.0</ele><time>2026-04-11T12:11:58Z</time></trkpt><trkpt lat="43.08703745098644" lon="11.42347956111858"><ele>310.0</ele><time>2026-04-11T12:12:04Z</time></trkpt><trkpt lat="43.087012936160384" lon="11.423561164253647"><ele>310.0</ele><time>2026-04-11T12:12:08Z</time></trkpt><trkpt lat="43.08698150918129" lon="11.423652205664158"><ele>310.0</ele><time>2026-04-11T12:12:13Z</time></trkpt><trkpt lat="43.086938665663" lon="11.42373795905373"><ele>310.0</ele><time>2026-04-11T12:12:18Z</time></trkpt><trkpt lat="43.08689174575087" lon="11.423812691809076"><ele>310.0</ele><time>2026-04-11T12:12:23Z</time></trkpt><trkpt lat="43.08682631748362" lon="11.423867697851142"><ele>310.0</ele><time>2026-04-11T12:12:28Z</time></trkpt><trkpt lat="43.08675623552613" lon="11.423881619462914"><ele>308.42857142857144</ele><time>2026-04-11T12:12:33Z</time></trkpt><trkpt lat="43.08668731231101" lon="11.423874887328745"><ele>306.85714285714283</ele><time>2026-04-11T12:12:38Z</time></trkpt><trkpt lat="43.086628193373215" lon="11.423834228189252"><ele>305.2857142857143</ele><time>2026-04-11T12:12:43Z</time></trkpt><trkpt lat="43.086554498725626" lon="11.423810351837973"><ele>303.7142857142857</ele><time>2026-04-11T12:12:48Z</time></trkpt><trkpt lat="43.08649461394124" lon="11.423779757715792"><ele>302.14285714285717</ele><time>2026-04-11T12:12:53Z</time></trkpt><trkpt lat="43.08643255631241" lon="11.423714469408335"><ele>300.57142857142856</ele><time>2026-04-11T12:13:00Z</time></trkpt><trkpt lat="43.08639530492152" lon="11.423641574354756"><ele>299.0</ele><time>2026-04-11T12:13:06Z</time></trkpt><trkpt lat="43.086382632497994" lon="11.423544774292983"><ele>303.1428571428571</ele><time>2026-04-11T12:13:12Z</time></trkpt><trkpt lat="43.08639265304555" lon="11.423442050786427"><ele>307.2857142857143</ele><time>2026-04-11T12:13:17Z</time></trkpt><trkpt lat="43.08640655926237" lon="11.4233524375247"><ele>311.42857142857144</ele><time>2026-04-11T12:13:22Z</time></trkpt><trkpt lat="43.08644448788603" lon="11.423278838159542"><ele>315.57142857142856</ele><time>2026-04-11T12:13:27Z</time></trkpt><trkpt lat="43.08647279804985" lon="11.423194882356475"><ele>319.7142857142857</ele><time>2026-04-11T12:13:32Z</time></trkpt><trkpt lat="43.0865051724099" lon="11.423103697388802"><ele>323.85714285714283</ele><time>2026-04-11T12:13:37Z</time></trkpt><trkpt lat="43.0865213871593" lon="11.423003489080449"><ele>328.0</ele><time>2026-04-11T12:13:43Z</time></trkpt><trkpt lat="43.08651955065034" lon="11.422912758633478"><ele>327.99999999999994</ele><time>2026-04-11T12:13:48Z</time></trkpt><trkpt lat="43.086505505961036" lon="11.422826324921521"><ele>328.0</ele><time>2026-04-11T12:13:53Z</time></trkpt><trkpt lat="43.0864832989084" lon="11.42272733554203"><ele>328.0</ele><time>2026-04-11T12:13:58Z</time></trkpt><trkpt lat="43.08643840055707" lon="11.422650189026479"><ele>328.0</ele><time>2026-04-11T12:14:03Z</time></trkpt><trkpt lat="43.08638262273563" lon="11.422604967816353"><ele>328.0</ele><time>2026-04-11T12:14:08Z</time></trkpt><trkpt lat="43.08631254542516" lon="11.422599361460046"><ele>327.99999999999994</ele><time>2026-04-11T12:14:13Z</time></trkpt><trkpt lat="43.08624635844298" lon="11.422635211555086"><ele>328.0</ele><time>2026-04-11T12:14:18Z</time></trkpt><trkpt lat="43.086183319754156" lon="11.422705157971032"><ele>327.99999999999994</ele><time>2026-04-11T12:14:24Z</time></trkpt><trkpt lat="43.08614777220834" lon="11.422777084867178"><ele>328.0</ele><time>2026-04-11T12:14:29Z</time></trkpt><trkpt lat="43.08611350179506" lon="11.422864984020835"><ele>328.0</ele><time>2026-04-11T12:14:34Z</time></trkpt><trkpt lat="43.08608052361032" lon="11.422954421384402"><ele>328.0</ele><time>2026-04-11T12:14:40Z</time></trkpt><trkpt lat="43.086041607990246" lon="11.42304322218111"><ele>328.0</ele><time>2026-04-11T12:14:45.999Z</time></trkpt><trkpt lat="43.0859983715392" lon="11.423124242421625"><ele>327.99999999999994</ele><time>2026-04-11T12:14:52Z</time></trkpt><trkpt lat="43.085951680630124" lon="11.423197734466669"><ele>328.0</ele><time>2026-04-11T12:14:57Z</time></trkpt><trkpt lat="43.08591076289102" lon="11.42326471658822"><ele>328.1428571428571</ele><time>2026-04-11T12:15:01Z</time></trkpt><trkpt lat="43.08584596772012" lon="11.423307044033304"><ele>328.2857142857143</ele><time>2026-04-11T12:15:06Z</time></trkpt><trkpt lat="43.08576897912913" lon="11.423305852971497"><ele>328.42857142857144</ele><time>2026-04-11T12:15:11Z</time></trkpt><trkpt lat="43.08570333244062" lon="11.423282252260044"><ele>328.57142857142856</ele><time>2026-04-11T12:15:16Z</time></trkpt><trkpt lat="43.08564316553264" lon="11.423217624694846"><ele>328.7142857142857</ele><time>2026-04-11T12:15:21Z</time></trkpt><trkpt lat="43.0855952842453" lon="11.423151446144436"><ele>328.85714285714283</ele><time>2026-04-11T12:15:26Z</time></trkpt><trkpt lat="43.08555618618426" lon="11.423068225723627"><ele>329.0</ele><time>2026-04-11T12:15:31Z</time></trkpt><trkpt lat="43.08552098213908" lon="11.422974164305119"><ele>331.85714285714283</ele><time>2026-04-11T12:15:36Z</time></trkpt><trkpt lat="43.08550416127626" lon="11.422885784168688"><ele>334.7142857142857</ele><time>2026-04-11T12:15:40Z</time></trkpt><trkpt lat="43.08549151354244" lon="11.422795598991106"><ele>337.57142857142856</ele><time>2026-04-11T12:15:44Z</time></trkpt><trkpt lat="43.08547317249568" lon="11.422697868896368"><ele>340.42857142857144</ele><time>2026-04-11T12:15:48Z</time></trkpt><trkpt lat="43.08544933449486" lon="11.422612296308328"><ele>343.2857142857143</ele><time>2026-04-11T12:15:52Z</time></trkpt><trkpt lat="43.085431501293755" lon="11.422515231164958"><ele>346.1428571428571</ele><time>2026-04-11T12:15:56Z</time></trkpt><trkpt lat="43.085406738755104" lon="11.42241832028607"><ele>349.0</ele><time>2026-04-11T12:16:00Z</time></trkpt><trkpt lat="43.08538575453136" lon="11.42232522376847"><ele>348.99999999999994</ele><time>2026-04-11T12:16:04Z</time></trkpt><trkpt lat="43.085364117345016" lon="11.422234881477472"><ele>349.0</ele><time>2026-04-11T12:16:08Z</time></trkpt><trkpt lat="43.08533086109719" lon="11.422155536580835"><ele>349.0</ele><time>2026-04-11T12:16:12Z</time></trkpt><trkpt lat="43.08529215579388" lon="11.422077309829044"><ele>349.0</ele><time>2026-04-11T12:16:16Z</time></trkpt><trkpt lat="43.08524500847948" lon="11.421993496009556"><ele>349.0</ele><time>2026-04-11T12:16:20Z</time></trkpt><trkpt lat="43.085185209375624" lon="11.421914583725675"><ele>348.99999999999994</ele><time>2026-04-11T12:16:24Z</time></trkpt><trkpt lat="43.08512856380852" lon="11.421859478937659"><ele>349.0</ele><time>2026-04-11T12:16:28Z</time></trkpt><trkpt lat="43.08506509510146" lon="11.421804916450784"><ele>348.3333333333333</ele><time>2026-04-11T12:16:32Z</time></trkpt><trkpt lat="43.08499229106512" lon="11.421773308361784"><ele>347.66666666666663</ele><time>2026-04-11T12:16:36Z</time></trkpt><trkpt lat="43.08492315538124" lon="11.42172186668517"><ele>347.0</ele><time>2026-04-11T12:16:40Z</time></trkpt><trkpt lat="43.084845695935726" lon="11.42168007244483"><ele>346.3333333333333</ele><time>2026-04-11T12:16:43Z</time></trkpt><trkpt lat="43.08476302298854" lon="11.42164746479369"><ele>345.6666666666667</ele><time>2026-04-11T12:16:46Z</time></trkpt><trkpt lat="43.084676808857935" lon="11.421613667419892"><ele>345.0</ele><time>2026-04-11T12:16:49Z</time></trkpt><trkpt lat="43.08460856986831" lon="11.421590205868075"><ele>345.0</ele><time>2026-04-11T12:16:51Z</time></trkpt><trkpt lat="43.08454508364481" lon="11.421573456217457"><ele>345.0</ele><time>2026-04-11T12:16:53Z</time></trkpt><trkpt lat="43.08448474669614" lon="11.421539458767496"><ele>345.0</ele><time>2026-04-11T12:16:55Z</time></trkpt><trkpt lat="43.08442429963217" lon="11.421501222704414"><ele>345.0</ele><time>2026-04-11T12:16:57Z</time></trkpt><trkpt lat="43.08436223200707" lon="11.42147291321095"><ele>345.0</ele><time>2026-04-11T12:16:59Z</time></trkpt><trkpt lat="43.08430432777572" lon="11.4214296986645"><ele>345.0</ele><time>2026-04-11T12:17:01Z</time></trkpt><trkpt lat="43.08424598285268" lon="11.421392238778559"><ele>345.0</ele><time>2026-04-11T12:17:03Z</time></trkpt><trkpt lat="43.08416810450683" lon="11.421334645784835"><ele>345.2857142857143</ele><time>2026-04-11T12:17:06Z</time></trkpt><trkpt lat="43.08411058842311" lon="11.4212840996996"><ele>345.57142857142856</ele><time>2026-04-11T12:17:09Z</time></trkpt><trkpt lat="43.08403368453583" lon="11.421248133061956"><ele>345.8571428571429</ele><time>2026-04-11T12:17:13Z</time></trkpt><trkpt lat="43.08398312203911" lon="11.42116906971888"><ele>346.1428571428571</ele><time>2026-04-11T12:17:17Z</time></trkpt><trkpt lat="43.08391734323642" lon="11.421120264738867"><ele>346.4285714285714</ele><time>2026-04-11T12:17:21Z</time></trkpt><trkpt lat="43.083862100691796" lon="11.421069716647962"><ele>346.7142857142857</ele><time>2026-04-11T12:17:25Z</time></trkpt><trkpt lat="43.08379815753816" lon="11.421026756117856"><ele>347.0</ele><time>2026-04-11T12:17:29Z</time></trkpt><trkpt lat="43.083726918781736" lon="11.420990550279013"><ele>347.0</ele><time>2026-04-11T12:17:33Z</time></trkpt><trkpt lat="43.08366519433488" lon="11.420952029062079"><ele>347.0</ele><time>2026-04-11T12:17:37Z</time></trkpt><trkpt lat="43.08360434578379" lon="11.42092980249996"><ele>347.0</ele><time>2026-04-11T12:17:41Z</time></trkpt><trkpt lat="43.08354157631374" lon="11.420911572977055"><ele>347.0</ele><time>2026-04-11T12:17:45Z</time></trkpt><trkpt lat="43.08346543869551" lon="11.420883596840207"><ele>347.0</ele><time>2026-04-11T12:17:50Z</time></trkpt><trkpt lat="43.0834020863626" lon="11.420879072344851"><ele>347.0</ele><time>2026-04-11T12:17:54Z</time></trkpt><trkpt lat="43.08333774681114" lon="11.420865154941866"><ele>347.0</ele><time>2026-04-11T12:17:58Z</time></trkpt><trkpt lat="43.08327137084281" lon="11.420845580394065"><ele>348.14285714285717</ele><time>2026-04-11T12:18:02Z</time></trkpt><trkpt lat="43.08320683290468" lon="11.420851222676385"><ele>349.2857142857143</ele><time>2026-04-11T12:18:06Z</time></trkpt><trkpt lat="43.083140410620466" lon="11.420859546554386"><ele>350.42857142857144</ele><time>2026-04-11T12:18:10Z</time></trkpt><trkpt lat="43.08311765788776" lon="11.420956273566471"><ele>351.57142857142856</ele><time>2026-04-11T12:18:15Z</time></trkpt><trkpt lat="43.08317409843661" lon="11.420996685872591"><ele>352.7142857142857</ele><time>2026-04-11T12:18:38Z</time></trkpt><trkpt lat="43.08312683719791" lon="11.420893755166224"><ele>353.85714285714283</ele><time>2026-04-11T12:20:32Z</time></trkpt><trkpt lat="43.08310612555116" lon="11.42080337474678"><ele>355.0</ele><time>2026-04-11T12:20:37Z</time></trkpt><trkpt lat="43.08306608506498" lon="11.420734452954537"><ele>355.0</ele><time>2026-04-11T12:20:41Z</time></trkpt><trkpt lat="43.08299822380573" lon="11.420715538892484"><ele>355.0</ele><time>2026-04-11T12:20:46Z</time></trkpt><trkpt lat="43.08292908002129" lon="11.42069590316636"><ele>355.0</ele><time>2026-04-11T12:20:50Z</time></trkpt><trkpt lat="43.08285064712277" lon="11.420674329227962"><ele>355.0</ele><time>2026-04-11T12:20:54Z</time></trkpt><trkpt lat="43.08277697747828" lon="11.4206502528872"><ele>355.0</ele><time>2026-04-11T12:20:58Z</time></trkpt><trkpt lat="43.08270554200076" lon="11.420640209806518"><ele>355.0</ele><time>2026-04-11T12:21:02Z</time></trkpt><trkpt lat="43.082641649830144" lon="11.420625402096745"><ele>355.0</ele><time>2026-04-11T12:21:06Z</time></trkpt><trkpt lat="43.08256660916273" lon="11.42060300283821"><ele>355.0</ele><time>2026-04-11T12:21:10Z</time></trkpt><trkpt lat="43.08249463456984" lon="11.42058363312269"><ele>355.0</ele><time>2026-04-11T12:21:14Z</time></trkpt><trkpt lat="43.082414756463315" lon="11.420567977110558"><ele>355.0</ele><time>2026-04-11T12:21:18Z</time></trkpt><trkpt lat="43.08234578214112" lon="11.420555678638229"><ele>355.0</ele><time>2026-04-11T12:21:21Z</time></trkpt><trkpt lat="43.082260337540966" lon="11.420546873880363"><ele>355.0</ele><time>2026-04-11T12:21:25Z</time></trkpt><trkpt lat="43.08218563950693" lon="11.420540789405031"><ele>355.0</ele><time>2026-04-11T12:21:28Z</time></trkpt><trkpt lat="43.082113284551596" lon="11.420546078963529"><ele>354.85714285714283</ele><time>2026-04-11T12:21:31Z</time></trkpt><trkpt lat="43.08204668576727" lon="11.420547437440822"><ele>354.7142857142857</ele><time>2026-04-11T12:21:34Z</time></trkpt><trkpt lat="43.08198045444368" lon="11.420541900145693"><ele>354.57142857142856</ele><time>2026-04-11T12:21:37Z</time></trkpt><trkpt lat="43.081915401189946" lon="11.420542378534732"><ele>354.42857142857144</ele><time>2026-04-11T12:21:40Z</time></trkpt><trkpt lat="43.081848024625245" lon="11.42053185673329"><ele>354.2857142857143</ele><time>2026-04-11T12:21:43Z</time></trkpt><trkpt lat="43.0817671253453" lon="11.420501469502431"><ele>354.14285714285717</ele><time>2026-04-11T12:21:47Z</time></trkpt><trkpt lat="43.08169323431789" lon="11.420459330211182"><ele>354.0</ele><time>2026-04-11T12:21:51Z</time></trkpt><trkpt lat="43.081639161292856" lon="11.42041183876718"><ele>356.2857142857143</ele><time>2026-04-11T12:21:54Z</time></trkpt><trkpt lat="43.0815861391836" lon="11.42036050356484"><ele>358.57142857142856</ele><time>2026-04-11T12:21:57Z</time></trkpt><trkpt lat="43.08154138775002" lon="11.420298631875742"><ele>360.85714285714283</ele><time>2026-04-11T12:22:00Z</time></trkpt><trkpt lat="43.08148822950702" lon="11.420251116981293"><ele>363.1428571428571</ele><time>2026-04-11T12:22:03Z</time></trkpt><trkpt lat="43.08143262001021" lon="11.420183309613218"><ele>365.42857142857144</ele><time>2026-04-11T12:22:07Z</time></trkpt><trkpt lat="43.08138851544277" lon="11.420113112221538"><ele>367.71428571428567</ele><time>2026-04-11T12:22:11Z</time></trkpt><trkpt lat="43.08133793703005" lon="11.420044520229105"><ele>370.0</ele><time>2026-04-11T12:22:16Z</time></trkpt><trkpt lat="43.081289815874776" lon="11.419964174843088"><ele>369.99999999999994</ele><time>2026-04-11T12:22:21Z</time></trkpt><trkpt lat="43.081250334965915" lon="11.419869711755481"><ele>370.0</ele><time>2026-04-11T12:22:26Z</time></trkpt><trkpt lat="43.08122498732" lon="11.419790732589954"><ele>370.0</ele><time>2026-04-11T12:22:30Z</time></trkpt><trkpt lat="43.0811938043885" lon="11.41971495858902"><ele>370.0</ele><time>2026-04-11T12:22:34Z</time></trkpt><trkpt lat="43.08114839132269" lon="11.419635974158107"><ele>370.0</ele><time>2026-04-11T12:22:38Z</time></trkpt><trkpt lat="43.0810831214857" lon="11.419591599775146"><ele>369.99999999999994</ele><time>2026-04-11T12:22:42Z</time></trkpt><trkpt lat="43.08101743699316" lon="11.41954844642844"><ele>370.0</ele><time>2026-04-11T12:22:46Z</time></trkpt><trkpt lat="43.08094776891597" lon="11.419514807891082"><ele>369.4285714285714</ele><time>2026-04-11T12:22:50Z</time></trkpt><trkpt lat="43.08087971160685" lon="11.419479046467375"><ele>368.85714285714283</ele><time>2026-04-11T12:22:54Z</time></trkpt><trkpt lat="43.08080573021198" lon="11.419451751081635"><ele>368.2857142857143</ele><time>2026-04-11T12:22:59Z</time></trkpt><trkpt lat="43.08073599102549" lon="11.41942414106728"><ele>367.71428571428567</ele><time>2026-04-11T12:23:03Z</time></trkpt><trkpt lat="43.08067342718176" lon="11.419407005068734"><ele>367.14285714285717</ele><time>2026-04-11T12:23:07Z</time></trkpt><trkpt lat="43.080599453646954" lon="11.419400420814656"><ele>366.57142857142856</ele><time>2026-04-11T12:23:12Z</time></trkpt><trkpt lat="43.08053515604033" lon="11.419401351167169"><ele>366.0</ele><time>2026-04-11T12:23:16Z</time></trkpt><trkpt lat="43.08046043432807" lon="11.419391485764207"><ele>368.7142857142857</ele><time>2026-04-11T12:23:22Z</time></trkpt><trkpt lat="43.080397066801304" lon="11.419371342194802"><ele>371.42857142857144</ele><time>2026-04-11T12:23:27Z</time></trkpt><trkpt lat="43.080337892253475" lon="11.419334745257048"><ele>374.1428571428571</ele><time>2026-04-11T12:23:32Z</time></trkpt><trkpt lat="43.08027675362664" lon="11.419280067455187"><ele>376.8571428571429</ele><time>2026-04-11T12:23:38Z</time></trkpt><trkpt lat="43.0802249069164" lon="11.41921393997306"><ele>379.57142857142856</ele><time>2026-04-11T12:23:44Z</time></trkpt><trkpt lat="43.08019327860589" lon="11.419130863690192"><ele>382.2857142857143</ele><time>2026-04-11T12:23:49Z</time></trkpt><trkpt lat="43.08017403765917" lon="11.419040154387273"><ele>385.0</ele><time>2026-04-11T12:23:54Z</time></trkpt><trkpt lat="43.080145366248374" lon="11.418952411855557"><ele>385.0</ele><time>2026-04-11T12:23:59Z</time></trkpt><trkpt lat="43.08009835200392" lon="11.418859569450897"><ele>385.0</ele><time>2026-04-11T12:24:05Z</time></trkpt><trkpt lat="43.08003930642452" lon="11.418786004525527"><ele>385.0</ele><time>2026-04-11T12:24:11Z</time></trkpt><trkpt lat="43.0799803224392" lon="11.418739662951497"><ele>385.0</ele><time>2026-04-11T12:24:16Z</time></trkpt><trkpt lat="43.07992147285692" lon="11.41869382314187"><ele>385.0</ele><time>2026-04-11T12:24:21Z</time></trkpt><trkpt lat="43.079859236152046" lon="11.418657598045101"><ele>385.0</ele><time>2026-04-11T12:24:26Z</time></trkpt><trkpt lat="43.07978812731038" lon="11.418621874023593"><ele>385.0</ele><time>2026-04-11T12:24:31Z</time></trkpt><trkpt lat="43.079727553401" lon="11.418584826230232"><ele>386.7142857142857</ele><time>2026-04-11T12:24:36Z</time></trkpt><trkpt lat="43.07966356326986" lon="11.418549673446003"><ele>388.42857142857144</ele><time>2026-04-11T12:24:41Z</time></trkpt><trkpt lat="43.07960153428907" lon="11.418524742902093"><ele>390.1428571428571</ele><time>2026-04-11T12:24:45Z</time></trkpt><trkpt lat="43.07954000312318" lon="11.418492145629584"><ele>391.8571428571429</ele><time>2026-04-11T12:24:49Z</time></trkpt><trkpt lat="43.07946841950312" lon="11.418458304093612"><ele>393.57142857142856</ele><time>2026-04-11T12:24:53Z</time></trkpt><trkpt lat="43.07939537591764" lon="11.418445291917264"><ele>395.2857142857143</ele><time>2026-04-11T12:24:57Z</time></trkpt><trkpt lat="43.07932726507234" lon="11.418437881614354"><ele>397.0</ele><time>2026-04-11T12:25:01Z</time></trkpt><trkpt lat="43.07926426245648" lon="11.418396823424514"><ele>397.0</ele><time>2026-04-11T12:25:05Z</time></trkpt><trkpt lat="43.07919569591023" lon="11.418347072308476"><ele>397.0</ele><time>2026-04-11T12:25:10Z</time></trkpt><trkpt lat="43.07914844932392" lon="11.418284650945557"><ele>397.0</ele><time>2026-04-11T12:25:15Z</time></trkpt><trkpt lat="43.07909492536335" lon="11.418217820611146"><ele>397.0</ele><time>2026-04-11T12:25:18Z</time></trkpt><trkpt lat="43.07904834063803" lon="11.418134286622745"><ele>397.0</ele><time>2026-04-11T12:25:22Z</time></trkpt><trkpt lat="43.078987710698804" lon="11.418065194481606"><ele>397.0</ele><time>2026-04-11T12:25:26Z</time></trkpt><trkpt lat="43.078923454568525" lon="11.418031324283493"><ele>397.0</ele><time>2026-04-11T12:25:29Z</time></trkpt><trkpt lat="43.07884461244019" lon="11.418006262138134"><ele>396.7142857142857</ele><time>2026-04-11T12:25:33Z</time></trkpt><trkpt lat="43.07876629381671" lon="11.417984511904798"><ele>396.42857142857144</ele><time>2026-04-11T12:25:37Z</time></trkpt><trkpt lat="43.07870160969071" lon="11.41797728689967"><ele>396.1428571428571</ele><time>2026-04-11T12:25:41Z</time></trkpt><trkpt lat="43.07863572218314" lon="11.417967341924506"><ele>395.8571428571429</ele><time>2026-04-11T12:25:46Z</time></trkpt><trkpt lat="43.07856899406165" lon="11.417974007009452"><ele>395.5714285714286</ele><time>2026-04-11T12:25:51Z</time></trkpt><trkpt lat="43.07850073798779" lon="11.41796977129598"><ele>395.2857142857143</ele><time>2026-04-11T12:25:56Z</time></trkpt><trkpt lat="43.07843595324986" lon="11.417973265545339"><ele>395.0</ele><time>2026-04-11T12:26:01Z</time></trkpt><trkpt lat="43.078371712070584" lon="11.417966074806158"><ele>395.0</ele><time>2026-04-11T12:26:05Z</time></trkpt><trkpt lat="43.07830058220984" lon="11.417960440055555"><ele>395.0</ele><time>2026-04-11T12:26:10Z</time></trkpt><trkpt lat="43.07822892082712" lon="11.417941792489454"><ele>395.0</ele><time>2026-04-11T12:26:15Z</time></trkpt><trkpt lat="43.078156724808494" lon="11.417931300995994"><ele>395.0</ele><time>2026-04-11T12:26:20Z</time></trkpt><trkpt lat="43.07808978604555" lon="11.417908186284656"><ele>395.0</ele><time>2026-04-11T12:26:25Z</time></trkpt><trkpt lat="43.0780166373555" lon="11.417904871567606"><ele>395.0</ele><time>2026-04-11T12:26:30Z</time></trkpt><trkpt lat="43.077953435559174" lon="11.417900207217631"><ele>395.0</ele><time>2026-04-11T12:26:34Z</time></trkpt><trkpt lat="43.0778894794874" lon="11.417894103622848"><ele>397.0</ele><time>2026-04-11T12:26:39Z</time></trkpt><trkpt lat="43.07780941333834" lon="11.417908311409557"><ele>399.0</ele><time>2026-04-11T12:26:44Z</time></trkpt><trkpt lat="43.077741075490344" lon="11.417913913138165"><ele>401.0</ele><time>2026-04-11T12:26:48Z</time></trkpt><trkpt lat="43.07767703488837" lon="11.417934943805744"><ele>403.0</ele><time>2026-04-11T12:26:51Z</time></trkpt><trkpt lat="43.07759481969394" lon="11.417943553935075"><ele>405.0</ele><time>2026-04-11T12:26:55Z</time></trkpt><trkpt lat="43.07752017835592" lon="11.417930040749196"><ele>407.0</ele><time>2026-04-11T12:26:59Z</time></trkpt><trkpt lat="43.07745494929108" lon="11.417900495909969"><ele>409.0</ele><time>2026-04-11T12:27:02Z</time></trkpt><trkpt lat="43.07737945999892" lon="11.417841425196954"><ele>412.00000000000006</ele><time>2026-04-11T12:27:06Z</time></trkpt><trkpt lat="43.07731747129447" lon="11.41778410005534"><ele>415.0</ele><time>2026-04-11T12:27:09Z</time></trkpt><trkpt lat="43.07723403779713" lon="11.417738368414772"><ele>418.0</ele><time>2026-04-11T12:27:13Z</time></trkpt><trkpt lat="43.07716185842546" lon="11.417689487272087"><ele>421.0</ele><time>2026-04-11T12:27:16Z</time></trkpt><trkpt lat="43.077090450590354" lon="11.417640602377913"><ele>424.00000000000006</ele><time>2026-04-11T12:27:19Z</time></trkpt><trkpt lat="43.07702511286107" lon="11.417595070279175"><ele>427.0</ele><time>2026-04-11T12:27:23Z</time></trkpt><trkpt lat="43.076961522324574" lon="11.417531591952349"><ele>427.00000000000006</ele><time>2026-04-11T12:27:27Z</time></trkpt><trkpt lat="43.076919398675045" lon="11.41741915488583"><ele>427.0</ele><time>2026-04-11T12:27:30Z</time></trkpt><trkpt lat="43.0768923736354" lon="11.417315978066442"><ele>427.0</ele><time>2026-04-11T12:27:34Z</time></trkpt><trkpt lat="43.07686338605652" lon="11.41722432452657"><ele>427.0</ele><time>2026-04-11T12:27:38Z</time></trkpt><trkpt lat="43.07683848389182" lon="11.4171379989326"><ele>427.00000000000006</ele><time>2026-04-11T12:27:42Z</time></trkpt><trkpt lat="43.07680130889855" lon="11.417053125882367"><ele>427.0</ele><time>2026-04-11T12:27:46Z</time></trkpt><trkpt lat="43.07675603228203" lon="11.41698203626721"><ele>427.42857142857144</ele><time>2026-04-11T12:27:50Z</time></trkpt><trkpt lat="43.076701900870866" lon="11.416928436819584"><ele>427.8571428571429</ele><time>2026-04-11T12:27:54Z</time></trkpt><trkpt lat="43.07663492689131" lon="11.416893692797329"><ele>428.2857142857143</ele><time>2026-04-11T12:27:58Z</time></trkpt><trkpt lat="43.07657238282648" lon="11.416872061940609"><ele>428.7142857142857</ele><time>2026-04-11T12:28:02Z</time></trkpt><trkpt lat="43.076497160671124" lon="11.416849897147301"><ele>429.14285714285717</ele><time>2026-04-11T12:28:07Z</time></trkpt><trkpt lat="43.07642705999232" lon="11.416837273783466"><ele>429.57142857142856</ele><time>2026-04-11T12:28:12Z</time></trkpt><trkpt lat="43.07635366055799" lon="11.416823701146708"><ele>430.0</ele><time>2026-04-11T12:28:17Z</time></trkpt><trkpt lat="43.07628472031114" lon="11.41681602695584"><ele>430.0</ele><time>2026-04-11T12:28:22Z</time></trkpt><trkpt lat="43.076204998752566" lon="11.416787207345724"><ele>430.0</ele><time>2026-04-11T12:28:27Z</time></trkpt><trkpt lat="43.0761362823639" lon="11.41676795038868"><ele>430.0</ele><time>2026-04-11T12:28:31Z</time></trkpt><trkpt lat="43.07607628394887" lon="11.4167367797481"><ele>430.0</ele><time>2026-04-11T12:28:35Z</time></trkpt><trkpt lat="43.076016139121506" lon="11.416705120703414"><ele>430.0</ele><time>2026-04-11T12:28:38Z</time></trkpt><trkpt lat="43.075957459459055" lon="11.416670016029315"><ele>430.0</ele><time>2026-04-11T12:28:42Z</time></trkpt><trkpt lat="43.07590686590364" lon="11.416607199706208"><ele>430.0</ele><time>2026-04-11T12:28:46Z</time></trkpt><trkpt lat="43.075852519211324" lon="11.416557909087748"><ele>430.0</ele><time>2026-04-11T12:28:50Z</time></trkpt><trkpt lat="43.07578786667556" lon="11.416506572983291"><ele>430.0</ele><time>2026-04-11T12:28:54Z</time></trkpt><trkpt lat="43.07573079836283" lon="11.416458122374378"><ele>430.0</ele><time>2026-04-11T12:28:58Z</time></trkpt><trkpt lat="43.07566018911448" lon="11.416407859129931"><ele>430.0</ele><time>2026-04-11T12:29:02Z</time></trkpt><trkpt lat="43.075605251511185" lon="11.416350385051778"><ele>430.0</ele><time>2026-04-11T12:29:06Z</time></trkpt><trkpt lat="43.07554300657455" lon="11.41631221633014"><ele>430.0</ele><time>2026-04-11T12:29:10Z</time></trkpt><trkpt lat="43.07547771154078" lon="11.416262009090698"><ele>430.0</ele><time>2026-04-11T12:29:14Z</time></trkpt><trkpt lat="43.0754242398107" lon="11.41621234019032"><ele>430.7142857142857</ele><time>2026-04-11T12:29:18Z</time></trkpt><trkpt lat="43.07536621756716" lon="11.41617290440204"><ele>431.42857142857144</ele><time>2026-04-11T12:29:23Z</time></trkpt><trkpt lat="43.07530480830543" lon="11.416129724265723"><ele>432.14285714285717</ele><time>2026-04-11T12:29:28Z</time></trkpt><trkpt lat="43.075243942954415" lon="11.41609173013663"><ele>432.8571428571429</ele><time>2026-04-11T12:29:33Z</time></trkpt><trkpt lat="43.07517787939852" lon="11.416041388316405"><ele>433.57142857142856</ele><time>2026-04-11T12:29:38Z</time></trkpt><trkpt lat="43.075109186118894" lon="11.41598630901817"><ele>434.28571428571433</ele><time>2026-04-11T12:29:43Z</time></trkpt><trkpt lat="43.075044946146875" lon="11.415942848328577"><ele>435.0</ele><time>2026-04-11T12:29:48Z</time></trkpt><trkpt lat="43.074976389416854" lon="11.415903594663531"><ele>435.7142857142857</ele><time>2026-04-11T12:29:53Z</time></trkpt><trkpt lat="43.07490447753257" lon="11.415861648685597"><ele>436.42857142857144</ele><time>2026-04-11T12:29:58Z</time></trkpt><trkpt lat="43.07483228724118" lon="11.415823160973718"><ele>437.1428571428571</ele><time>2026-04-11T12:30:03Z</time></trkpt><trkpt lat="43.07475792416072" lon="11.415804656080999"><ele>437.8571428571429</ele><time>2026-04-11T12:30:08Z</time></trkpt><trkpt lat="43.07468443567661" lon="11.415782235338948"><ele>438.57142857142856</ele><time>2026-04-11T12:30:13Z</time></trkpt><trkpt lat="43.07461285212555" lon="11.415774943240088"><ele>439.2857142857143</ele><time>2026-04-11T12:30:18Z</time></trkpt><trkpt lat="43.07454929494652" lon="11.415770418652954"><ele>440.0</ele><time>2026-04-11T12:30:23Z</time></trkpt><trkpt lat="43.07448674081886" lon="11.41575075266871"><ele>439.99999999999994</ele><time>2026-04-11T12:30:28Z</time></trkpt><trkpt lat="43.07442543091771" lon="11.415716519683983"><ele>440.0</ele><time>2026-04-11T12:30:33Z</time></trkpt><trkpt lat="43.07437175267057" lon="11.415646866653427"><ele>440.0</ele><time>2026-04-11T12:30:39Z</time></trkpt><trkpt lat="43.074348372343074" lon="11.415556729453318"><ele>440.0</ele><time>2026-04-11T12:30:45Z</time></trkpt><trkpt lat="43.07434816043488" lon="11.415469967294294"><ele>440.0</ele><time>2026-04-11T12:30:50Z</time></trkpt><trkpt lat="43.07435764367906" lon="11.415381255196575"><ele>439.99999999999994</ele><time>2026-04-11T12:30:55Z</time></trkpt><trkpt lat="43.07436308364122" lon="11.415288394759342"><ele>440.0</ele><time>2026-04-11T12:31:00Z</time></trkpt><trkpt lat="43.07436423139628" lon="11.415198667580034"><ele>441.4285714285714</ele><time>2026-04-11T12:31:05Z</time></trkpt><trkpt lat="43.07436254169648" lon="11.415104901726096"><ele>442.8571428571429</ele><time>2026-04-11T12:31:10Z</time></trkpt><trkpt lat="43.07433934220107" lon="11.415011829633716"><ele>444.28571428571433</ele><time>2026-04-11T12:31:15Z</time></trkpt><trkpt lat="43.0743208370245" lon="11.414921462682644"><ele>445.7142857142857</ele><time>2026-04-11T12:31:20Z</time></trkpt><trkpt lat="43.07429427390413" lon="11.41483480581804"><ele>447.14285714285717</ele><time>2026-04-11T12:31:25Z</time></trkpt><trkpt lat="43.07427366684468" lon="11.414737888558104"><ele>448.5714285714286</ele><time>2026-04-11T12:31:30Z</time></trkpt><trkpt lat="43.074250774417656" lon="11.414654741393413"><ele>450.00000000000006</ele><time>2026-04-11T12:31:35Z</time></trkpt><trkpt lat="43.07421985281481" lon="11.414562808373283"><ele>451.00000000000006</ele><time>2026-04-11T12:31:40Z</time></trkpt><trkpt lat="43.0741791708593" lon="11.414496666078348"><ele>452.0</ele><time>2026-04-11T12:31:45Z</time></trkpt><trkpt lat="43.074117360959335" lon="11.414437952562086"><ele>453.00000000000006</ele><time>2026-04-11T12:31:50Z</time></trkpt><trkpt lat="43.07405293324436" lon="11.414403512916683"><ele>454.00000000000006</ele><time>2026-04-11T12:31:55Z</time></trkpt><trkpt lat="43.07398989631442" lon="11.41439297142938"><ele>455.0</ele><time>2026-04-11T12:32:00Z</time></trkpt><trkpt lat="43.07391845361913" lon="11.414377492799293"><ele>456.00000000000006</ele><time>2026-04-11T12:32:06Z</time></trkpt><trkpt lat="43.07385353152303" lon="11.414382542337005"><ele>457.00000000000006</ele><time>2026-04-11T12:32:11Z</time></trkpt><trkpt lat="43.07378189952981" lon="11.414380458667145"><ele>458.57142857142867</ele><time>2026-04-11T12:32:17Z</time></trkpt><trkpt lat="43.073708451765434" lon="11.414385652795733"><ele>460.14285714285717</ele><time>2026-04-11T12:32:23Z</time></trkpt><trkpt lat="43.073635499906175" lon="11.414382076594947"><ele>461.7142857142858</ele><time>2026-04-11T12:32:28Z</time></trkpt><trkpt lat="43.07356811113052" lon="11.414363449306363"><ele>463.28571428571433</ele><time>2026-04-11T12:32:33Z</time></trkpt><trkpt lat="43.07349671098407" lon="11.414336829387896"><ele>464.8571428571429</ele><time>2026-04-11T12:32:38Z</time></trkpt><trkpt lat="43.073426072598835" lon="11.414302460766843"><ele>466.42857142857144</ele><time>2026-04-11T12:32:43Z</time></trkpt><trkpt lat="43.073350106956354" lon="11.414272932607366"><ele>468.0</ele><time>2026-04-11T12:32:48Z</time></trkpt><trkpt lat="43.07328691092802" lon="11.414261505566962"><ele>469.28571428571433</ele><time>2026-04-11T12:32:52Z</time></trkpt><trkpt lat="43.0732223330761" lon="11.414255476828291"><ele>470.5714285714286</ele><time>2026-04-11T12:32:56Z</time></trkpt><trkpt lat="43.073161076164794" lon="11.414235048043523"><ele>471.8571428571429</ele><time>2026-04-11T12:33:00Z</time></trkpt><trkpt lat="43.07309510891121" lon="11.414250339191723"><ele>473.1428571428571</ele><time>2026-04-11T12:33:04Z</time></trkpt><trkpt lat="43.07303198152545" lon="11.414259660151394"><ele>474.4285714285714</ele><time>2026-04-11T12:33:09Z</time></trkpt><trkpt lat="43.072965154628854" lon="11.414255509941967"><ele>475.71428571428567</ele><time>2026-04-11T12:33:14Z</time></trkpt><trkpt lat="43.07289771811355" lon="11.414275386238828"><ele>477.0</ele><time>2026-04-11T12:33:20Z</time></trkpt><trkpt lat="43.07283547108646" lon="11.414291531770514"><ele>477.0</ele><time>2026-04-11T12:33:25Z</time></trkpt><trkpt lat="43.07276137496777" lon="11.414290678820533"><ele>476.99999999999994</ele><time>2026-04-11T12:33:31Z</time></trkpt><trkpt lat="43.07269006560145" lon="11.414279073622374"><ele>477.0</ele><time>2026-04-11T12:33:36Z</time></trkpt><trkpt lat="43.072627863425495" lon="11.414263125831317"><ele>477.0</ele><time>2026-04-11T12:33:40Z</time></trkpt><trkpt lat="43.07256801012885" lon="11.414233479598133"><ele>476.99999999999994</ele><time>2026-04-11T12:33:45Z</time></trkpt><trkpt lat="43.07250287801689" lon="11.414198030083822"><ele>477.0</ele><time>2026-04-11T12:33:50Z</time></trkpt><trkpt lat="43.072439149119724" lon="11.414167380188161"><ele>477.0</ele><time>2026-04-11T12:33:55Z</time></trkpt><trkpt lat="43.0723770861248" lon="11.414133109228453"><ele>476.6666666666667</ele><time>2026-04-11T12:34:00Z</time></trkpt><trkpt lat="43.07231644149575" lon="11.414094459760507"><ele>476.33333333333337</ele><time>2026-04-11T12:34:04Z</time></trkpt><trkpt lat="43.07225661659387" lon="11.414063018311051"><ele>476.0</ele><time>2026-04-11T12:34:08Z</time></trkpt><trkpt lat="43.07219959214552" lon="11.414017810156828"><ele>475.6666666666667</ele><time>2026-04-11T12:34:11Z</time></trkpt><trkpt lat="43.072118230971284" lon="11.413960313978961"><ele>475.33333333333337</ele><time>2026-04-11T12:34:14Z</time></trkpt><trkpt lat="43.07203406757715" lon="11.413923123074218"><ele>475.0</ele><time>2026-04-11T12:34:17Z</time></trkpt><trkpt lat="43.071953464731294" lon="11.413894482653024"><ele>475.0</ele><time>2026-04-11T12:34:20Z</time></trkpt><trkpt lat="43.071884677784176" lon="11.41386386547266"><ele>475.0</ele><time>2026-04-11T12:34:22Z</time></trkpt><trkpt lat="43.07179808425525" lon="11.41381529815555"><ele>475.0</ele><time>2026-04-11T12:34:24Z</time></trkpt><trkpt lat="43.071690691338986" lon="11.413758975061988"><ele>475.0</ele><time>2026-04-11T12:34:26Z</time></trkpt><trkpt lat="43.071617384530725" lon="11.413656888931941"><ele>475.0</ele><time>2026-04-11T12:34:28Z</time></trkpt><trkpt lat="43.0715223288157" lon="11.41357226307662"><ele>476.83333333333337</ele><time>2026-04-11T12:34:30Z</time></trkpt><trkpt lat="43.071412832001656" lon="11.413513428102295"><ele>478.6666666666667</ele><time>2026-04-11T12:34:32Z</time></trkpt><trkpt lat="43.07131137159895" lon="11.413512850862773"><ele>480.5</ele><time>2026-04-11T12:34:34Z</time></trkpt><trkpt lat="43.071229329249725" lon="11.413550242528306"><ele>482.33333333333337</ele><time>2026-04-11T12:34:36Z</time></trkpt><trkpt lat="43.071163817873966" lon="11.413580483573073"><ele>484.1666666666667</ele><time>2026-04-11T12:34:38Z</time></trkpt><trkpt lat="43.071095939014924" lon="11.413590851456425"><ele>486.0</ele><time>2026-04-11T12:34:41Z</time></trkpt><trkpt lat="43.071025094116735" lon="11.413582694022594"><ele>486.0</ele><time>2026-04-11T12:34:45Z</time></trkpt><trkpt lat="43.07096340572836" lon="11.413564241069606"><ele>486.0</ele><time>2026-04-11T12:34:49Z</time></trkpt><trkpt lat="43.070889567861194" lon="11.41351830768273"><ele>486.0</ele><time>2026-04-11T12:34:53Z</time></trkpt><trkpt lat="43.07084492183574" lon="11.413457203310916"><ele>486.0</ele><time>2026-04-11T12:34:56Z</time></trkpt><trkpt lat="43.07079069503411" lon="11.413383613198592"><ele>486.0</ele><time>2026-04-11T12:35:00Z</time></trkpt><trkpt lat="43.0707369314802" lon="11.413310655061048"><ele>486.0</ele><time>2026-04-11T12:35:04Z</time></trkpt><trkpt lat="43.07067376911018" lon="11.413232889369072"><ele>486.0</ele><time>2026-04-11T12:35:08Z</time></trkpt><trkpt lat="43.070616502563894" lon="11.413167448282692"><ele>487.2857142857143</ele><time>2026-04-11T12:35:12Z</time></trkpt><trkpt lat="43.070564234086035" lon="11.413084604280872"><ele>488.57142857142856</ele><time>2026-04-11T12:35:16Z</time></trkpt><trkpt lat="43.0705102125305" lon="11.413026073905746"><ele>489.85714285714283</ele><time>2026-04-11T12:35:20Z</time></trkpt><trkpt lat="43.07045875483667" lon="11.412972478956336"><ele>491.1428571428571</ele><time>2026-04-11T12:35:23Z</time></trkpt><trkpt lat="43.070406641263546" lon="11.41291030541129"><ele>492.42857142857144</ele><time>2026-04-11T12:35:26Z</time></trkpt><trkpt lat="43.07033416418898" lon="11.412870869526584"><ele>493.71428571428567</ele><time>2026-04-11T12:35:29Z</time></trkpt><trkpt lat="43.07026332802693" lon="11.41286046782203"><ele>494.99999999999994</ele><time>2026-04-11T12:35:32Z</time></trkpt><trkpt lat="43.07019013323904" lon="11.412885674470813"><ele>495.0</ele><time>2026-04-11T12:35:35Z</time></trkpt><trkpt lat="43.070128846789686" lon="11.412961717487894"><ele>495.0</ele><time>2026-04-11T12:35:38Z</time></trkpt><trkpt lat="43.07010354993062" lon="11.413049341204236"><ele>495.0</ele><time>2026-04-11T12:35:40Z</time></trkpt><trkpt lat="43.07007367760422" lon="11.413161400425087"><ele>495.0</ele><time>2026-04-11T12:35:44Z</time></trkpt><trkpt lat="43.070043056350826" lon="11.413244495372059"><ele>495.0</ele><time>2026-04-11T12:35:47Z</time></trkpt><trkpt lat="43.07001113626213" lon="11.413335160556827"><ele>495.0</ele><time>2026-04-11T12:35:51Z</time></trkpt><trkpt lat="43.06998223799322" lon="11.413433449628492"><ele>494.99999999999994</ele><time>2026-04-11T12:35:54Z</time></trkpt><trkpt lat="43.06997021351856" lon="11.413536516276107"><ele>495.0</ele><time>2026-04-11T12:35:57Z</time></trkpt><trkpt lat="43.06997009039382" lon="11.413639347562894"><ele>494.99999999999994</ele><time>2026-04-11T12:36:00Z</time></trkpt><trkpt lat="43.06997363225323" lon="11.413735664676794"><ele>494.99999999999994</ele><time>2026-04-11T12:36:03Z</time></trkpt><trkpt lat="43.069979739089625" lon="11.413829594432258"><ele>495.0</ele><time>2026-04-11T12:36:06Z</time></trkpt><trkpt lat="43.06998976685922" lon="11.413933425636673"><ele>494.99999999999994</ele><time>2026-04-11T12:36:10Z</time></trkpt><trkpt lat="43.07001105102899" lon="11.414017614121777"><ele>494.99999999999994</ele><time>2026-04-11T12:36:13Z</time></trkpt><trkpt lat="43.07000230284793" lon="11.414110204190035"><ele>494.8571428571428</ele><time>2026-04-11T12:36:16Z</time></trkpt><trkpt lat="43.07000519025575" lon="11.414208729087647"><ele>494.71428571428567</ele><time>2026-04-11T12:36:19Z</time></trkpt><trkpt lat="43.07000300460221" lon="11.414317820168304"><ele>494.57142857142856</ele><time>2026-04-11T12:36:23Z</time></trkpt><trkpt lat="43.06999349667985" lon="11.414422554661694"><ele>494.4285714285714</ele><time>2026-04-11T12:36:27Z</time></trkpt><trkpt lat="43.069975150970386" lon="11.414515307359798"><ele>494.2857142857142</ele><time>2026-04-11T12:36:31Z</time></trkpt><trkpt lat="43.06994403732118" lon="11.414605735399142"><ele>494.14285714285717</ele><time>2026-04-11T12:36:35Z</time></trkpt><trkpt lat="43.06990660749601" lon="11.414689721928879"><ele>494.0</ele><time>2026-04-11T12:36:39Z</time></trkpt><trkpt lat="43.06986281986909" lon="11.414779780271859"><ele>494.8333333333333</ele><time>2026-04-11T12:36:43Z</time></trkpt><trkpt lat="43.06981559169489" lon="11.414874198022284"><ele>495.66666666666663</ele><time>2026-04-11T12:36:47Z</time></trkpt><trkpt lat="43.069767936309" lon="11.4149486975129"><ele>496.5</ele><time>2026-04-11T12:36:51Z</time></trkpt><trkpt lat="43.069704445582104" lon="11.415000737330905"><ele>497.33333333333337</ele><time>2026-04-11T12:36:54Z</time></trkpt><trkpt lat="43.06962457676338" lon="11.415046175989168"><ele>498.1666666666667</ele><time>2026-04-11T12:36:57Z</time></trkpt><trkpt lat="43.069563443245706" lon="11.415081877070369"><ele>499.0</ele><time>2026-04-11T12:36:59Z</time></trkpt><trkpt lat="43.06949482811348" lon="11.41513858972806"><ele>499.00000000000006</ele><time>2026-04-11T12:37:02Z</time></trkpt><trkpt lat="43.069438256823695" lon="11.415188218135217"><ele>499.0</ele><time>2026-04-11T12:37:05Z</time></trkpt><trkpt lat="43.06936694892392" lon="11.415226405343883"><ele>499.00000000000006</ele><time>2026-04-11T12:37:08Z</time></trkpt><trkpt lat="43.06930322855652" lon="11.415308451463243"><ele>499.00000000000006</ele><time>2026-04-11T12:37:11Z</time></trkpt><trkpt lat="43.06924879296792" lon="11.41536570311218"><ele>499.0</ele><time>2026-04-11T12:37:13Z</time></trkpt><trkpt lat="43.06919118670597" lon="11.415416910389645"><ele>499.00000000000006</ele><time>2026-04-11T12:37:15Z</time></trkpt><trkpt lat="43.0691307690935" lon="11.415444592994087"><ele>499.00000000000006</ele><time>2026-04-11T12:37:17Z</time></trkpt><trkpt lat="43.069051886845045" lon="11.415480813339368"><ele>496.79999999999995</ele><time>2026-04-11T12:37:19Z</time></trkpt><trkpt lat="43.06896863176282" lon="11.415496502942391"><ele>494.59999999999997</ele><time>2026-04-11T12:37:21Z</time></trkpt><trkpt lat="43.068878973241745" lon="11.415512021893779"><ele>492.4</ele><time>2026-04-11T12:37:23Z</time></trkpt><trkpt lat="43.068780522811096" lon="11.415540809873367"><ele>490.2</ele><time>2026-04-11T12:37:25Z</time></trkpt><trkpt lat="43.06867449149303" lon="11.415599380808924"><ele>488.0</ele><time>2026-04-11T12:37:27Z</time></trkpt><trkpt lat="43.06856826288835" lon="11.415686838127478"><ele>488.0</ele><time>2026-04-11T12:37:29Z</time></trkpt><trkpt lat="43.068471862912745" lon="11.41579624548604"><ele>487.99999999999994</ele><time>2026-04-11T12:37:31Z</time></trkpt><trkpt lat="43.068424777415956" lon="11.415855384549602"><ele>487.99999999999994</ele><time>2026-04-11T12:37:32Z</time></trkpt><trkpt lat="43.06833702025927" lon="11.415966716557199"><ele>488.0</ele><time>2026-04-11T12:37:34Z</time></trkpt><trkpt lat="43.06824829009578" lon="11.416077263048567"><ele>488.0</ele><time>2026-04-11T12:37:36Z</time></trkpt><trkpt lat="43.06815452467651" lon="11.41615728169396"><ele>487.79999999999995</ele><time>2026-04-11T12:37:38Z</time></trkpt><trkpt lat="43.06806050743594" lon="11.416220375474262"><ele>487.59999999999997</ele><time>2026-04-11T12:37:40Z</time></trkpt><trkpt lat="43.06797197435929" lon="11.416312913231094"><ele>487.40000000000003</ele><time>2026-04-11T12:37:42Z</time></trkpt><trkpt lat="43.06787439283483" lon="11.416352649070708"><ele>487.20000000000005</ele><time>2026-04-11T12:37:44Z</time></trkpt><trkpt lat="43.06779999905436" lon="11.416428782452886"><ele>487.0</ele><time>2026-04-11T12:37:46Z</time></trkpt><trkpt lat="43.067743526761724" lon="11.416523210830405"><ele>488.6666666666667</ele><time>2026-04-11T12:37:48Z</time></trkpt><trkpt lat="43.06771743552114" lon="11.416622265076787"><ele>490.33333333333337</ele><time>2026-04-11T12:37:50Z</time></trkpt><trkpt lat="43.06768764753016" lon="11.41673999583832"><ele>492.0</ele><time>2026-04-11T12:37:53Z</time></trkpt><trkpt lat="43.06765802355495" lon="11.416851237239872"><ele>493.66666666666663</ele><time>2026-04-11T12:37:56Z</time></trkpt><trkpt lat="43.06761862040338" lon="11.416943592155153"><ele>495.3333333333333</ele><time>2026-04-11T12:37:58Z</time></trkpt><trkpt lat="43.06757426564765" lon="11.417029659360912"><ele>497.0</ele><time>2026-04-11T12:38:00Z</time></trkpt><trkpt lat="43.067525555062765" lon="11.41711698014116"><ele>496.49999999999994</ele><time>2026-04-11T12:38:02Z</time></trkpt><trkpt lat="43.06747293588498" lon="11.417210102451175"><ele>496.0</ele><time>2026-04-11T12:38:04Z</time></trkpt><trkpt lat="43.06741500102656" lon="11.417302250736"><ele>495.5</ele><time>2026-04-11T12:38:06Z</time></trkpt><trkpt lat="43.067363614069365" lon="11.417377511864307"><ele>495.0</ele><time>2026-04-11T12:38:08Z</time></trkpt><trkpt lat="43.06731003539313" lon="11.41743907232229"><ele>494.49999999999994</ele><time>2026-04-11T12:38:10Z</time></trkpt><trkpt lat="43.067234405774315" lon="11.417501189903549"><ele>494.0</ele><time>2026-04-11T12:38:13Z</time></trkpt><trkpt lat="43.067160446216576" lon="11.417540745773636"><ele>495.66666666666663</ele><time>2026-04-11T12:38:16Z</time></trkpt><trkpt lat="43.06709589599426" lon="11.417570121009765"><ele>497.3333333333333</ele><time>2026-04-11T12:38:19Z</time></trkpt><trkpt lat="43.06703401878367" lon="11.417586898315776"><ele>499.0</ele><time>2026-04-11T12:38:21Z</time></trkpt><trkpt lat="43.066971944769804" lon="11.417603568746344"><ele>500.66666666666663</ele><time>2026-04-11T12:38:23Z</time></trkpt><trkpt lat="43.06687890529963" lon="11.417650321237188"><ele>502.3333333333333</ele><time>2026-04-11T12:38:25Z</time></trkpt><trkpt lat="43.06681199063382" lon="11.41771067171581"><ele>504.0</ele><time>2026-04-11T12:38:27Z</time></trkpt><trkpt lat="43.06675667561671" lon="11.417787133656866"><ele>504.0</ele><time>2026-04-11T12:38:29Z</time></trkpt><trkpt lat="43.06671873741243" lon="11.417881947083055"><ele>504.0</ele><time>2026-04-11T12:38:31Z</time></trkpt><trkpt lat="43.06668576628336" lon="11.417978293502337"><ele>504.0</ele><time>2026-04-11T12:38:33Z</time></trkpt><trkpt lat="43.06665238205245" lon="11.418087205479464"><ele>504.0</ele><time>2026-04-11T12:38:35Z</time></trkpt><trkpt lat="43.06662231963074" lon="11.418209569056136"><ele>504.0</ele><time>2026-04-11T12:38:37Z</time></trkpt><trkpt lat="43.06659526233344" lon="11.418334821704859"><ele>504.0</ele><time>2026-04-11T12:38:39Z</time></trkpt><trkpt lat="43.06657297147795" lon="11.418459134379354"><ele>501.3333333333333</ele><time>2026-04-11T12:38:41Z</time></trkpt><trkpt lat="43.066555965686604" lon="11.418578781579425"><ele>498.66666666666663</ele><time>2026-04-11T12:38:43Z</time></trkpt><trkpt lat="43.06654387746466" lon="11.418712904382488"><ele>496.0</ele><time>2026-04-11T12:38:45Z</time></trkpt><trkpt lat="43.066537798014316" lon="11.418828131302185"><ele>493.3333333333333</ele><time>2026-04-11T12:38:47Z</time></trkpt><trkpt lat="43.06653563816684" lon="11.41893185259701"><ele>490.66666666666663</ele><time>2026-04-11T12:38:49Z</time></trkpt><trkpt lat="43.06653570940488" lon="11.419026132588378"><ele>488.0</ele><time>2026-04-11T12:38:51Z</time></trkpt><trkpt lat="43.066537304980926" lon="11.419123619064212"><ele>487.49999999999994</ele><time>2026-04-11T12:38:53Z</time></trkpt><trkpt lat="43.06653974367583" lon="11.419213054327976"><ele>487.0</ele><time>2026-04-11T12:38:55Z</time></trkpt><trkpt lat="43.06654301314543" lon="11.419317809629696"><ele>486.5</ele><time>2026-04-11T12:38:57Z</time></trkpt><trkpt lat="43.06654867326469" lon="11.419429176029448"><ele>486.0</ele><time>2026-04-11T12:38:59Z</time></trkpt><trkpt lat="43.06655772008906" lon="11.41955753606562"><ele>485.49999999999994</ele><time>2026-04-11T12:39:01Z</time></trkpt><trkpt lat="43.06656005626514" lon="11.419698472525974"><ele>485.0</ele><time>2026-04-11T12:39:03Z</time></trkpt><trkpt lat="43.06654718146087" lon="11.419830759513339"><ele>485.0</ele><time>2026-04-11T12:39:05Z</time></trkpt><trkpt lat="43.06652116370869" lon="11.419960530990071"><ele>485.0</ele><time>2026-04-11T12:39:07Z</time></trkpt><trkpt lat="43.066491208928866" lon="11.420075340438927"><ele>485.0</ele><time>2026-04-11T12:39:09Z</time></trkpt><trkpt lat="43.066421517618956" lon="11.42016940653147"><ele>485.0</ele><time>2026-04-11T12:39:11Z</time></trkpt><trkpt lat="43.06638962856068" lon="11.420252403122173"><ele>485.0</ele><time>2026-04-11T12:39:13Z</time></trkpt><trkpt lat="43.06632537602121" lon="11.420364335233835"><ele>485.0</ele><time>2026-04-11T12:39:15Z</time></trkpt><trkpt lat="43.066278570163725" lon="11.420470309164957"><ele>485.0</ele><time>2026-04-11T12:39:17Z</time></trkpt><trkpt lat="43.06622911967128" lon="11.420602958454062"><ele>485.0</ele><time>2026-04-11T12:39:19Z</time></trkpt><trkpt lat="43.06616556321945" lon="11.420732808776489"><ele>485.0</ele><time>2026-04-11T12:39:21Z</time></trkpt><trkpt lat="43.06609398151159" lon="11.420843981258884"><ele>485.0</ele><time>2026-04-11T12:39:23Z</time></trkpt><trkpt lat="43.06602463421161" lon="11.420966598578"><ele>485.2</ele><time>2026-04-11T12:39:25Z</time></trkpt><trkpt lat="43.065961180938864" lon="11.421097062306524"><ele>485.4</ele><time>2026-04-11T12:39:27Z</time></trkpt><trkpt lat="43.065879397516355" lon="11.421225454297288"><ele>485.6</ele><time>2026-04-11T12:39:29Z</time></trkpt><trkpt lat="43.065819028461064" lon="11.421365565510452"><ele>485.8</ele><time>2026-04-11T12:39:31Z</time></trkpt><trkpt lat="43.065782291019815" lon="11.421449723236329"><ele>486.0</ele><time>2026-04-11T12:39:32Z</time></trkpt><trkpt lat="43.0657003849091" lon="11.42159201720554"><ele>486.0</ele><time>2026-04-11T12:39:34Z</time></trkpt><trkpt lat="43.06565479895508" lon="11.421673498491383"><ele>486.0</ele><time>2026-04-11T12:39:35Z</time></trkpt><trkpt lat="43.065610804409765" lon="11.421744189467047"><ele>486.0</ele><time>2026-04-11T12:39:36Z</time></trkpt><trkpt lat="43.065535564427" lon="11.421840955458276"><ele>486.0</ele><time>2026-04-11T12:39:38Z</time></trkpt><trkpt lat="43.065482410492265" lon="11.421889557110338"><ele>486.0</ele><time>2026-04-11T12:39:39Z</time></trkpt><trkpt lat="43.06538151598515" lon="11.421984256537273"><ele>486.0</ele><time>2026-04-11T12:39:41Z</time></trkpt><trkpt lat="43.06531834341055" lon="11.422025954812838"><ele>486.0</ele><time>2026-04-11T12:39:42Z</time></trkpt><trkpt lat="43.06520809755169" lon="11.422105331282664"><ele>486.0</ele><time>2026-04-11T12:39:44Z</time></trkpt><trkpt lat="43.06514621445381" lon="11.4221508182894"><ele>486.0</ele><time>2026-04-11T12:39:45Z</time></trkpt><trkpt lat="43.06506227689139" lon="11.422174443690208"><ele>486.0</ele><time>2026-04-11T12:39:46Z</time></trkpt><trkpt lat="43.06494863462813" lon="11.422154918177181"><ele>486.0</ele><time>2026-04-11T12:39:48Z</time></trkpt><trkpt lat="43.06486911759491" lon="11.422172878629947"><ele>486.0</ele><time>2026-04-11T12:39:49Z</time></trkpt><trkpt lat="43.06479914621101" lon="11.422190122655502"><ele>486.0</ele><time>2026-04-11T12:39:50Z</time></trkpt><trkpt lat="43.064723167124264" lon="11.422187610412475"><ele>486.0</ele><time>2026-04-11T12:39:51Z</time></trkpt><trkpt lat="43.06465506407827" lon="11.422175947321225"><ele>486.0</ele><time>2026-04-11T12:39:52Z</time></trkpt><trkpt lat="43.06457361879245" lon="11.422166672307604"><ele>486.0</ele><time>2026-04-11T12:39:53Z</time></trkpt><trkpt lat="43.064489340498056" lon="11.42213559150583"><ele>486.0</ele><time>2026-04-11T12:39:54Z</time></trkpt><trkpt lat="43.06440418415051" lon="11.422109178255758"><ele>484.8333333333333</ele><time>2026-04-11T12:39:55Z</time></trkpt><trkpt lat="43.064325057494315" lon="11.422072244280153"><ele>483.66666666666663</ele><time>2026-04-11T12:39:56Z</time></trkpt><trkpt lat="43.06425134953668" lon="11.422039029048264"><ele>482.5</ele><time>2026-04-11T12:39:57Z</time></trkpt><trkpt lat="43.06418227218054" lon="11.4220083335131"><ele>481.3333333333333</ele><time>2026-04-11T12:39:58Z</time></trkpt><trkpt lat="43.06413083731298" lon="11.42195657494647"><ele>480.16666666666663</ele><time>2026-04-11T12:39:59Z</time></trkpt><trkpt lat="43.06402608451396" lon="11.42189337001168"><ele>479.0</ele><time>2026-04-11T12:40:01Z</time></trkpt><trkpt lat="43.0638942444894" lon="11.421914054005683"><ele>477.8333333333333</ele><time>2026-04-11T12:40:03Z</time></trkpt><trkpt lat="43.063818489498566" lon="11.421932922371285"><ele>476.66666666666663</ele><time>2026-04-11T12:40:04Z</time></trkpt><trkpt lat="43.06375323611944" lon="11.42194886787589"><ele>475.5</ele><time>2026-04-11T12:40:05Z</time></trkpt><trkpt lat="43.06368771934479" lon="11.421966930028905"><ele>474.33333333333337</ele><time>2026-04-11T12:40:06Z</time></trkpt><trkpt lat="43.06362217709366" lon="11.421988384674952"><ele>473.1666666666667</ele><time>2026-04-11T12:40:07Z</time></trkpt><trkpt lat="43.063553023805646" lon="11.422037516228707"><ele>472.0</ele><time>2026-04-11T12:40:09Z</time></trkpt><trkpt lat="43.06347658085937" lon="11.422125786737892"><ele>472.00000000000006</ele><time>2026-04-11T12:40:11Z</time></trkpt><trkpt lat="43.06345508995413" lon="11.422218440921972"><ele>472.0</ele><time>2026-04-11T12:40:12Z</time></trkpt><trkpt lat="43.06346902355973" lon="11.422332426570769"><ele>472.0</ele><time>2026-04-11T12:40:13Z</time></trkpt><trkpt lat="43.06349524229415" lon="11.42242631446765"><ele>472.0</ele><time>2026-04-11T12:40:14Z</time></trkpt><trkpt lat="43.06352774952856" lon="11.422519500680988"><ele>472.00000000000006</ele><time>2026-04-11T12:40:15Z</time></trkpt><trkpt lat="43.063548649763455" lon="11.42260181223341"><ele>472.0</ele><time>2026-04-11T12:40:16Z</time></trkpt><trkpt lat="43.063553248688294" lon="11.42276922880815"><ele>472.0</ele><time>2026-04-11T12:40:18Z</time></trkpt><trkpt lat="43.06353166919913" lon="11.42285339046639"><ele>472.0</ele><time>2026-04-11T12:40:19Z</time></trkpt><trkpt lat="43.06350394060093" lon="11.422932744130994"><ele>472.0</ele><time>2026-04-11T12:40:20Z</time></trkpt><trkpt lat="43.06346434746848" lon="11.423017322506382"><ele>472.0</ele><time>2026-04-11T12:40:21Z</time></trkpt><trkpt lat="43.063423613628096" lon="11.423105047151736"><ele>472.0</ele><time>2026-04-11T12:40:22Z</time></trkpt><trkpt lat="43.063386592775224" lon="11.423196961139418"><ele>472.0</ele><time>2026-04-11T12:40:23Z</time></trkpt><trkpt lat="43.063350422726025" lon="11.42329617254226"><ele>472.0</ele><time>2026-04-11T12:40:24Z</time></trkpt><trkpt lat="43.06332121979031" lon="11.423407778833607"><ele>471.40000000000003</ele><time>2026-04-11T12:40:25Z</time></trkpt><trkpt lat="43.06329257233227" lon="11.423564860278484"><ele>470.80000000000007</ele><time>2026-04-11T12:40:27Z</time></trkpt><trkpt lat="43.06333578343214" lon="11.423662405511955"><ele>470.2</ele><time>2026-04-11T12:40:28Z</time></trkpt><trkpt lat="43.063366141106265" lon="11.423795656100959"><ele>469.6</ele><time>2026-04-11T12:40:30Z</time></trkpt><trkpt lat="43.06339248496974" lon="11.423945079054736"><ele>469.0</ele><time>2026-04-11T12:40:32Z</time></trkpt><trkpt lat="43.063402685351015" lon="11.42403549866729"><ele>468.33333333333337</ele><time>2026-04-11T12:40:33Z</time></trkpt><trkpt lat="43.06339017439908" lon="11.42414085174319"><ele>467.6666666666667</ele><time>2026-04-11T12:40:35Z</time></trkpt><trkpt lat="43.06332649782777" lon="11.42427020959217"><ele>467.0</ele><time>2026-04-11T12:40:37Z</time></trkpt><trkpt lat="43.063290674347726" lon="11.424361873227207"><ele>466.33333333333337</ele><time>2026-04-11T12:40:38Z</time></trkpt><trkpt lat="43.06326541128092" lon="11.424480925409998"><ele>465.6666666666667</ele><time>2026-04-11T12:40:39Z</time></trkpt><trkpt lat="43.06325040913139" lon="11.424600638982222"><ele>465.0</ele><time>2026-04-11T12:40:40Z</time></trkpt><trkpt lat="43.06323758664638" lon="11.42470843097827"><ele>464.4</ele><time>2026-04-11T12:40:41Z</time></trkpt><trkpt lat="43.06322266983178" lon="11.424819397721215"><ele>463.8</ele><time>2026-04-11T12:40:42Z</time></trkpt><trkpt lat="43.06320081475006" lon="11.42494145824666"><ele>463.20000000000005</ele><time>2026-04-11T12:40:43Z</time></trkpt><trkpt lat="43.06317818064377" lon="11.425033284554802"><ele>462.6</ele><time>2026-04-11T12:40:44Z</time></trkpt><trkpt lat="43.063090034505315" lon="11.42522067868058"><ele>462.0</ele><time>2026-04-11T12:40:46Z</time></trkpt><trkpt lat="43.06303611593086" lon="11.42531240293066"><ele>462.0</ele><time>2026-04-11T12:40:47Z</time></trkpt><trkpt lat="43.06296033586674" lon="11.425420285064481"><ele>462.00000000000006</ele><time>2026-04-11T12:40:48Z</time></trkpt><trkpt lat="43.06288841245382" lon="11.425553621265625"><ele>462.00000000000006</ele><time>2026-04-11T12:40:50Z</time></trkpt><trkpt lat="43.06283945271475" lon="11.425705085782885"><ele>462.0</ele><time>2026-04-11T12:40:52Z</time></trkpt><trkpt lat="43.06284671597971" lon="11.425795244509253"><ele>462.0</ele><time>2026-04-11T12:40:53Z</time></trkpt><trkpt lat="43.06282296859632" lon="11.425919455884072"><ele>462.6666666666667</ele><time>2026-04-11T12:40:55Z</time></trkpt><trkpt lat="43.06283527150809" lon="11.426025433230384"><ele>463.33333333333337</ele><time>2026-04-11T12:40:57Z</time></trkpt><trkpt lat="43.06282523019318" lon="11.426142034845187"><ele>464.0</ele><time>2026-04-11T12:41:00Z</time></trkpt><trkpt lat="43.062829649664856" lon="11.426266407417586"><ele>464.6666666666667</ele><time>2026-04-11T12:41:03Z</time></trkpt><trkpt lat="43.06283766650655" lon="11.426365796352503"><ele>465.33333333333337</ele><time>2026-04-11T12:41:05Z</time></trkpt><trkpt lat="43.06285331579186" lon="11.426474674911555"><ele>466.0</ele><time>2026-04-11T12:41:07Z</time></trkpt><trkpt lat="43.062866452227425" lon="11.426588552659712"><ele>466.00000000000006</ele><time>2026-04-11T12:41:09Z</time></trkpt><trkpt lat="43.06287800660264" lon="11.426701819234344"><ele>466.0</ele><time>2026-04-11T12:41:11Z</time></trkpt><trkpt lat="43.06289013245855" lon="11.426799798334985"><ele>466.0</ele><time>2026-04-11T12:41:13Z</time></trkpt><trkpt lat="43.06290078011702" lon="11.426894142111292"><ele>466.0</ele><time>2026-04-11T12:41:15Z</time></trkpt><trkpt lat="43.06290591141033" lon="11.42699033826976"><ele>466.00000000000006</ele><time>2026-04-11T12:41:17Z</time></trkpt><trkpt lat="43.062874161103466" lon="11.427100606687377"><ele>466.0</ele><time>2026-04-11T12:41:20Z</time></trkpt><trkpt lat="43.06283608108593" lon="11.42718548843651"><ele>466.0</ele><time>2026-04-11T12:41:23Z</time></trkpt><trkpt lat="43.06278465760629" lon="11.427257114649459"><ele>466.0</ele><time>2026-04-11T12:41:26Z</time></trkpt><trkpt lat="43.062729653894415" lon="11.427316097165559"><ele>466.0</ele><time>2026-04-11T12:41:29Z</time></trkpt><trkpt lat="43.06266748636" lon="11.427363828855672"><ele>466.0</ele><time>2026-04-11T12:41:32Z</time></trkpt><trkpt lat="43.06261188534678" lon="11.427416341775624"><ele>466.0</ele><time>2026-04-11T12:41:35Z</time></trkpt><trkpt lat="43.06254002887688" lon="11.42744602069942"><ele>466.0</ele><time>2026-04-11T12:41:38Z</time></trkpt><trkpt lat="43.06247359016649" lon="11.42748394809033"><ele>466.0</ele><time>2026-04-11T12:41:41Z</time></trkpt><trkpt lat="43.062384244545555" lon="11.427513509833982"><ele>466.57142857142856</ele><time>2026-04-11T12:41:44Z</time></trkpt><trkpt lat="43.06231790403569" lon="11.427542726737219"><ele>467.1428571428571</ele><time>2026-04-11T12:41:46Z</time></trkpt><trkpt lat="43.0622399999199" lon="11.427568069148075"><ele>467.71428571428567</ele><time>2026-04-11T12:41:48Z</time></trkpt><trkpt lat="43.062163326887635" lon="11.427592262004817"><ele>468.2857142857143</ele><time>2026-04-11T12:41:50Z</time></trkpt><trkpt lat="43.062091503281515" lon="11.427616651323317"><ele>468.8571428571428</ele><time>2026-04-11T12:41:52Z</time></trkpt><trkpt lat="43.06202308718548" lon="11.427620517005353"><ele>469.4285714285714</ele><time>2026-04-11T12:41:54Z</time></trkpt><trkpt lat="43.06195669979385" lon="11.427586335292604"><ele>470.0</ele><time>2026-04-11T12:41:57Z</time></trkpt><trkpt lat="43.06186072848858" lon="11.427577030239723"><ele>469.99999999999994</ele><time>2026-04-11T12:41:59Z</time></trkpt><trkpt lat="43.06178899978733" lon="11.427547112687492"><ele>470.0</ele><time>2026-04-11T12:42:01Z</time></trkpt><trkpt lat="43.06171478463633" lon="11.427493801405573"><ele>470.0</ele><time>2026-04-11T12:42:03Z</time></trkpt><trkpt lat="43.06163611240542" lon="11.427425457894406"><ele>470.0</ele><time>2026-04-11T12:42:05Z</time></trkpt><trkpt lat="43.06155393007226" lon="11.427379751494616"><ele>469.99999999999994</ele><time>2026-04-11T12:42:07Z</time></trkpt><trkpt lat="43.06146382889361" lon="11.427358776455005"><ele>470.0</ele><time>2026-04-11T12:42:09Z</time></trkpt><trkpt lat="43.061381591284274" lon="11.427361108744455"><ele>470.16666666666663</ele><time>2026-04-11T12:42:11Z</time></trkpt><trkpt lat="43.061299993076055" lon="11.42737463791193"><ele>470.3333333333333</ele><time>2026-04-11T12:42:13Z</time></trkpt><trkpt lat="43.06121615880671" lon="11.427378135797188"><ele>470.5</ele><time>2026-04-11T12:42:16Z</time></trkpt><trkpt lat="43.06113646935245" lon="11.427423139772012"><ele>470.66666666666663</ele><time>2026-04-11T12:42:18Z</time></trkpt><trkpt lat="43.061061257274496" lon="11.427454132318145"><ele>470.8333333333333</ele><time>2026-04-11T12:42:21Z</time></trkpt><trkpt lat="43.06097756010464" lon="11.42748386107825"><ele>471.0</ele><time>2026-04-11T12:42:24Z</time></trkpt><trkpt lat="43.06089611007993" lon="11.427489786566086"><ele>471.0</ele><time>2026-04-11T12:42:27Z</time></trkpt><trkpt lat="43.06081216380888" lon="11.42745522123143"><ele>471.0</ele><time>2026-04-11T12:42:30Z</time></trkpt><trkpt lat="43.06074626847578" lon="11.427390124374217"><ele>471.0</ele><time>2026-04-11T12:42:33Z</time></trkpt><trkpt lat="43.0606685073462" lon="11.42734005360918"><ele>471.0</ele><time>2026-04-11T12:42:36Z</time></trkpt><trkpt lat="43.060589335553374" lon="11.427282011038129"><ele>471.0</ele><time>2026-04-11T12:42:40Z</time></trkpt><trkpt lat="43.06051227530679" lon="11.427226466695087"><ele>471.0</ele><time>2026-04-11T12:42:43Z</time></trkpt><trkpt lat="43.06043363945344" lon="11.427197235803803"><ele>472.3333333333333</ele><time>2026-04-11T12:42:46Z</time></trkpt><trkpt lat="43.060365142614174" lon="11.427218639890551"><ele>473.66666666666663</ele><time>2026-04-11T12:42:48Z</time></trkpt><trkpt lat="43.06031083933535" lon="11.427287368713127"><ele>475.0</ele><time>2026-04-11T12:42:50Z</time></trkpt><trkpt lat="43.06029511819217" lon="11.427408310772753"><ele>476.3333333333333</ele><time>2026-04-11T12:42:52Z</time></trkpt><trkpt lat="43.06028442294952" lon="11.42750581562465"><ele>477.66666666666663</ele><time>2026-04-11T12:42:55Z</time></trkpt><trkpt lat="43.06026850440299" lon="11.427616451277373"><ele>479.0</ele><time>2026-04-11T12:42:59Z</time></trkpt><trkpt lat="43.060223874943325" lon="11.427706895037044"><ele>478.99999999999994</ele><time>2026-04-11T12:43:03Z</time></trkpt><trkpt lat="43.0601631024206" lon="11.427734725628284"><ele>479.0</ele><time>2026-04-11T12:43:06Z</time></trkpt><trkpt lat="43.060095471639784" lon="11.42778355227466"><ele>479.0</ele><time>2026-04-11T12:43:09Z</time></trkpt><trkpt lat="43.06004156630571" lon="11.427828239721048"><ele>479.0</ele><time>2026-04-11T12:43:11Z</time></trkpt><trkpt lat="43.05994887676313" lon="11.427869650782043"><ele>478.99999999999994</ele><time>2026-04-11T12:43:15Z</time></trkpt><trkpt lat="43.05986629489965" lon="11.427872182833472"><ele>479.0</ele><time>2026-04-11T12:43:18Z</time></trkpt><trkpt lat="43.05979210847787" lon="11.427833502943349"><ele>479.71428571428567</ele><time>2026-04-11T12:43:21Z</time></trkpt><trkpt lat="43.05972876150937" lon="11.42775823239202"><ele>480.42857142857144</ele><time>2026-04-11T12:43:24Z</time></trkpt><trkpt lat="43.05969635475811" lon="11.427679941924332"><ele>481.1428571428571</ele><time>2026-04-11T12:43:27Z</time></trkpt><trkpt lat="43.05965079858571" lon="11.427612513414488"><ele>481.85714285714283</ele><time>2026-04-11T12:43:30Z</time></trkpt><trkpt lat="43.05959687638006" lon="11.427547163294088"><ele>482.57142857142856</ele><time>2026-04-11T12:43:33Z</time></trkpt><trkpt lat="43.059541457037255" lon="11.427485711665508"><ele>483.2857142857143</ele><time>2026-04-11T12:43:36Z</time></trkpt><trkpt lat="43.05949238406599" lon="11.427423463407843"><ele>484.0</ele><time>2026-04-11T12:43:39Z</time></trkpt><trkpt lat="43.05943813977276" lon="11.427362703652582"><ele>484.00000000000006</ele><time>2026-04-11T12:43:42Z</time></trkpt><trkpt lat="43.059380924660495" lon="11.42730665764028"><ele>484.0</ele><time>2026-04-11T12:43:45Z</time></trkpt><trkpt lat="43.059329469372685" lon="11.427228815833475"><ele>484.0</ele><time>2026-04-11T12:43:49Z</time></trkpt><trkpt lat="43.05925409721764" lon="11.427191693773372"><ele>484.0</ele><time>2026-04-11T12:43:51Z</time></trkpt><trkpt lat="43.059181257558286" lon="11.427204575705172"><ele>484.00000000000006</ele><time>2026-04-11T12:43:53Z</time></trkpt><trkpt lat="43.05910668148086" lon="11.427255202646304"><ele>484.0</ele><time>2026-04-11T12:43:57Z</time></trkpt><trkpt lat="43.059013107174025" lon="11.427373017852318"><ele>484.00000000000006</ele><time>2026-04-11T12:44:00Z</time></trkpt><trkpt lat="43.05900434869774" lon="11.427494993428548"><ele>484.0</ele><time>2026-04-11T12:44:01Z</time></trkpt><trkpt lat="43.05903345436174" lon="11.427615750946046"><ele>484.0</ele><time>2026-04-11T12:44:03Z</time></trkpt><trkpt lat="43.05905930893911" lon="11.427712565663906"><ele>484.0</ele><time>2026-04-11T12:44:05Z</time></trkpt><trkpt lat="43.05909269305698" lon="11.4278127333654"><ele>484.00000000000006</ele><time>2026-04-11T12:44:07Z</time></trkpt><trkpt lat="43.05912467573111" lon="11.427901011986181"><ele>484.0</ele><time>2026-04-11T12:44:09Z</time></trkpt><trkpt lat="43.05915574302714" lon="11.427996432113604"><ele>483.1666666666667</ele><time>2026-04-11T12:44:11Z</time></trkpt><trkpt lat="43.059175066170944" lon="11.428083439205619"><ele>482.33333333333337</ele><time>2026-04-11T12:44:13Z</time></trkpt><trkpt lat="43.05918936489467" lon="11.428168825886988"><ele>481.5</ele><time>2026-04-11T12:44:15Z</time></trkpt><trkpt lat="43.05917867851133" lon="11.42828070975159"><ele>480.66666666666663</ele><time>2026-04-11T12:44:18Z</time></trkpt><trkpt lat="43.05910119436466" lon="11.428368802385927"><ele>479.8333333333333</ele><time>2026-04-11T12:44:22Z</time></trkpt><trkpt lat="43.05900523157765" lon="11.428356340612593"><ele>479.0</ele><time>2026-04-11T12:44:25Z</time></trkpt><trkpt lat="43.058921658085346" lon="11.428395436485328"><ele>480.16666666666663</ele><time>2026-04-11T12:44:28Z</time></trkpt><trkpt lat="43.05885587697015" lon="11.428470427240939"><ele>481.3333333333333</ele><time>2026-04-11T12:44:31Z</time></trkpt><trkpt lat="43.05879436501505" lon="11.428502180127792"><ele>482.5</ele><time>2026-04-11T12:44:33Z</time></trkpt><trkpt lat="43.058744509643155" lon="11.428560674495461"><ele>483.66666666666663</ele><time>2026-04-11T12:44:35Z</time></trkpt><trkpt lat="43.05868698718787" lon="11.428644530860527"><ele>484.8333333333333</ele><time>2026-04-11T12:44:38Z</time></trkpt><trkpt lat="43.05864463309222" lon="11.428718226590684"><ele>486.0</ele><time>2026-04-11T12:44:40Z</time></trkpt><trkpt lat="43.05859753875364" lon="11.42881829306211"><ele>486.0</ele><time>2026-04-11T12:44:43Z</time></trkpt><trkpt lat="43.0585589840586" lon="11.428913708962105"><ele>486.0</ele><time>2026-04-11T12:44:46Z</time></trkpt><trkpt lat="43.058525548335126" lon="11.429009971393814"><ele>486.0</ele><time>2026-04-11T12:44:49Z</time></trkpt><trkpt lat="43.05849312831898" lon="11.42911683332855"><ele>486.0</ele><time>2026-04-11T12:44:52Z</time></trkpt><trkpt lat="43.058472041058494" lon="11.42921040163771"><ele>486.0</ele><time>2026-04-11T12:44:55Z</time></trkpt><trkpt lat="43.05844267120179" lon="11.429328008606872"><ele>486.0</ele><time>2026-04-11T12:44:58Z</time></trkpt><trkpt lat="43.05841954131411" lon="11.42940826422931"><ele>486.0</ele><time>2026-04-11T12:45:00Z</time></trkpt><trkpt lat="43.0583908075496" lon="11.429489888671478"><ele>486.0</ele><time>2026-04-11T12:45:05Z</time></trkpt><trkpt lat="43.058360693565064" lon="11.429600129764008"><ele>486.0</ele><time>2026-04-11T12:45:07Z</time></trkpt><trkpt lat="43.05833156796612" lon="11.429701788052064"><ele>486.0</ele><time>2026-04-11T12:45:10Z</time></trkpt><trkpt lat="43.0583081329865" lon="11.429820288348642"><ele>486.0</ele><time>2026-04-11T12:45:13Z</time></trkpt><trkpt lat="43.058290731993004" lon="11.429921246684945"><ele>486.0</ele><time>2026-04-11T12:45:16Z</time></trkpt><trkpt lat="43.05827764578683" lon="11.430009895315337"><ele>485.8333333333333</ele><time>2026-04-11T12:45:18Z</time></trkpt><trkpt lat="43.05826557542211" lon="11.430127613940035"><ele>485.66666666666663</ele><time>2026-04-11T12:45:21Z</time></trkpt><trkpt lat="43.05826344871459" lon="11.430230282097599"><ele>485.5</ele><time>2026-04-11T12:45:23Z</time></trkpt><trkpt lat="43.058272769517885" lon="11.430343594038"><ele>485.3333333333333</ele><time>2026-04-11T12:45:25Z</time></trkpt><trkpt lat="43.05827945107709" lon="11.430434964052477"><ele>485.16666666666663</ele><time>2026-04-11T12:45:27Z</time></trkpt><trkpt lat="43.05828875368409" lon="11.430551456921771"><ele>485.0</ele><time>2026-04-11T12:45:29Z</time></trkpt><trkpt lat="43.05831118682408" lon="11.430675760050866"><ele>484.0</ele><time>2026-04-11T12:45:31Z</time></trkpt><trkpt lat="43.05827930491786" lon="11.430813572738115"><ele>483.0</ele><time>2026-04-11T12:45:33Z</time></trkpt><trkpt lat="43.058199088430406" lon="11.430924627661804"><ele>482.0</ele><time>2026-04-11T12:45:35Z</time></trkpt><trkpt lat="43.05811425734848" lon="11.430992375599653"><ele>481.0</ele><time>2026-04-11T12:45:37Z</time></trkpt><trkpt lat="43.05803299249401" lon="11.431042749854171"><ele>480.0</ele><time>2026-04-11T12:45:39Z</time></trkpt><trkpt lat="43.057965063353684" lon="11.431093877198062"><ele>480.0</ele><time>2026-04-11T12:45:41Z</time></trkpt><trkpt lat="43.05787111713586" lon="11.431151956232322"><ele>480.0</ele><time>2026-04-11T12:45:43Z</time></trkpt><trkpt lat="43.057795402773515" lon="11.431207847526213"><ele>480.0</ele><time>2026-04-11T12:45:45Z</time></trkpt><trkpt lat="43.05771595478945" lon="11.431252662930135"><ele>480.0</ele><time>2026-04-11T12:45:47Z</time></trkpt><trkpt lat="43.05761836947838" lon="11.431292688212457"><ele>480.0</ele><time>2026-04-11T12:45:50Z</time></trkpt><trkpt lat="43.05755637443103" lon="11.431347530515568"><ele>481.14285714285717</ele><time>2026-04-11T12:45:52Z</time></trkpt><trkpt lat="43.057492075459876" lon="11.431421162654605"><ele>482.2857142857142</ele><time>2026-04-11T12:45:55Z</time></trkpt><trkpt lat="43.05745234595936" lon="11.431511284995864"><ele>483.4285714285714</ele><time>2026-04-11T12:45:58Z</time></trkpt><trkpt lat="43.05739926210948" lon="11.431571366930719"><ele>484.57142857142856</ele><time>2026-04-11T12:46:01Z</time></trkpt><trkpt lat="43.057352541390095" lon="11.43163171251019"><ele>485.71428571428567</ele><time>2026-04-11T12:46:04Z</time></trkpt><trkpt lat="43.05729052989614" lon="11.431679727380224"><ele>486.8571428571428</ele><time>2026-04-11T12:46:07Z</time></trkpt><trkpt lat="43.05723266570243" lon="11.43175888545973"><ele>487.99999999999994</ele><time>2026-04-11T12:46:11Z</time></trkpt><trkpt lat="43.057196013241295" lon="11.431853981327443"><ele>488.16666666666663</ele><time>2026-04-11T12:46:14Z</time></trkpt><trkpt lat="43.05714210527416" lon="11.431916272454986"><ele>488.3333333333333</ele><time>2026-04-11T12:46:17Z</time></trkpt><trkpt lat="43.05711301579704" lon="11.431997286590802"><ele>488.5</ele><time>2026-04-11T12:46:20Z</time></trkpt><trkpt lat="43.05706923091465" lon="11.432072614992027"><ele>488.66666666666663</ele><time>2026-04-11T12:46:23Z</time></trkpt><trkpt lat="43.05701018993327" lon="11.43217249379028"><ele>488.8333333333333</ele><time>2026-04-11T12:49:14Z</time></trkpt><trkpt lat="43.05695223064241" lon="11.43224813312809"><ele>489.0</ele><time>2026-04-11T12:49:47Z</time></trkpt><trkpt lat="43.05689722817034" lon="11.432314593538397"><ele>489.25</ele><time>2026-04-11T12:49:50Z</time></trkpt><trkpt lat="43.05674776187741" lon="11.432290131088974"><ele>489.5</ele><time>2026-04-11T12:49:54Z</time></trkpt><trkpt lat="43.056663870989354" lon="11.432250679669844"><ele>489.75</ele><time>2026-04-11T12:49:57Z</time></trkpt><trkpt lat="43.056594668086575" lon="11.432142041795103"><ele>490.0</ele><time>2026-04-11T12:50:00Z</time></trkpt><trkpt lat="43.0564903425964" lon="11.432093808070725"><ele>488.6</ele><time>2026-04-11T12:50:02Z</time></trkpt><trkpt lat="43.05641327855429" lon="11.432039187374675"><ele>487.2</ele><time>2026-04-11T12:50:04Z</time></trkpt><trkpt lat="43.05630703951209" lon="11.431972395759914"><ele>485.79999999999995</ele><time>2026-04-11T12:50:06Z</time></trkpt><trkpt lat="43.05622402338683" lon="11.431954555147387"><ele>484.4</ele><time>2026-04-11T12:50:08Z</time></trkpt><trkpt lat="43.05614130400585" lon="11.4318900052412"><ele>483.0</ele><time>2026-04-11T12:50:10Z</time></trkpt><trkpt lat="43.05604634522179" lon="11.431846638464915"><ele>483.0</ele><time>2026-04-11T12:50:11Z</time></trkpt><trkpt lat="43.05597825787874" lon="11.43182150438774"><ele>483.0</ele><time>2026-04-11T12:50:12Z</time></trkpt><trkpt lat="43.05590761266924" lon="11.431814243019657"><ele>483.0</ele><time>2026-04-11T12:50:13Z</time></trkpt><trkpt lat="43.05583622529351" lon="11.43178753521789"><ele>483.0</ele><time>2026-04-11T12:50:14Z</time></trkpt><trkpt lat="43.05576696422315" lon="11.431793487759089"><ele>483.0</ele><time>2026-04-11T12:50:15Z</time></trkpt><trkpt lat="43.055632636653385" lon="11.43176342103331"><ele>483.0</ele><time>2026-04-11T12:50:17Z</time></trkpt><trkpt lat="43.05555147889675" lon="11.431733479832705"><ele>481.75</ele><time>2026-04-11T12:50:18Z</time></trkpt><trkpt lat="43.055421074585865" lon="11.43163851962197"><ele>480.5</ele><time>2026-04-11T12:50:20Z</time></trkpt><trkpt lat="43.0553194057504" lon="11.431558660984159"><ele>479.25</ele><time>2026-04-11T12:50:22Z</time></trkpt><trkpt lat="43.055235700280846" lon="11.431454319886837"><ele>478.0</ele><time>2026-04-11T12:50:24Z</time></trkpt><trkpt lat="43.0551474590242" lon="11.431340760608542"><ele>476.0</ele><time>2026-04-11T12:50:26Z</time></trkpt><trkpt lat="43.05506897163332" lon="11.431265290825657"><ele>473.99999999999994</ele><time>2026-04-11T12:50:28Z</time></trkpt><trkpt lat="43.05499002434137" lon="11.431174004821582"><ele>471.99999999999994</ele><time>2026-04-11T12:50:30Z</time></trkpt><trkpt lat="43.05493138552092" lon="11.431076267609258"><ele>470.0</ele><time>2026-04-11T12:50:32Z</time></trkpt><trkpt lat="43.054840568675694" lon="11.430978500748234"><ele>468.0</ele><time>2026-04-11T12:50:34Z</time></trkpt><trkpt lat="43.054787265322744" lon="11.43093173575258"><ele>467.6666666666667</ele><time>2026-04-11T12:50:35Z</time></trkpt><trkpt lat="43.05467532972803" lon="11.43087355113912"><ele>467.33333333333337</ele><time>2026-04-11T12:50:37Z</time></trkpt><trkpt lat="43.05460439359679" lon="11.430866123682978"><ele>467.0</ele><time>2026-04-11T12:50:38Z</time></trkpt><trkpt lat="43.05453581398579" lon="11.430857482456144"><ele>466.6666666666667</ele><time>2026-04-11T12:50:39Z</time></trkpt><trkpt lat="43.05446450395423" lon="11.430866299208168"><ele>466.33333333333337</ele><time>2026-04-11T12:50:40Z</time></trkpt><trkpt lat="43.054395665322076" lon="11.43085366610543"><ele>466.0</ele><time>2026-04-11T12:50:41Z</time></trkpt><trkpt lat="43.054321727638346" lon="11.430832357634246"><ele>466.00000000000006</ele><time>2026-04-11T12:50:42Z</time></trkpt><trkpt lat="43.05423711089288" lon="11.430823008030895"><ele>466.0</ele><time>2026-04-11T12:50:43Z</time></trkpt><trkpt lat="43.05415993085056" lon="11.430807846109012"><ele>466.0</ele><time>2026-04-11T12:50:44Z</time></trkpt><trkpt lat="43.054063748929366" lon="11.430801023317624"><ele>466.0</ele><time>2026-04-11T12:50:45Z</time></trkpt><trkpt lat="43.053988401978785" lon="11.430800914023896"><ele>466.00000000000006</ele><time>2026-04-11T12:50:46Z</time></trkpt><trkpt lat="43.053910154836764" lon="11.430793264898517"><ele>466.0</ele><time>2026-04-11T12:50:47Z</time></trkpt><trkpt lat="43.05384083152221" lon="11.430792107301876"><ele>464.6666666666667</ele><time>2026-04-11T12:50:48Z</time></trkpt><trkpt lat="43.05376448561171" lon="11.430790862998732"><ele>463.33333333333337</ele><time>2026-04-11T12:50:49Z</time></trkpt><trkpt lat="43.05369049841369" lon="11.430764681335045"><ele>462.0</ele><time>2026-04-11T12:50:50Z</time></trkpt><trkpt lat="43.053588855468966" lon="11.430744933849876"><ele>460.66666666666663</ele><time>2026-04-11T12:50:52Z</time></trkpt><trkpt lat="43.053491970967265" lon="11.430713609440293"><ele>459.3333333333333</ele><time>2026-04-11T12:50:53Z</time></trkpt><trkpt lat="43.05342028047745" lon="11.430704245547181"><ele>458.0</ele><time>2026-04-11T12:50:54Z</time></trkpt><trkpt lat="43.05335315712877" lon="11.430669979052913"><ele>455.99999999999994</ele><time>2026-04-11T12:50:55Z</time></trkpt><trkpt lat="43.05328858246152" lon="11.430636699072219"><ele>454.0</ele><time>2026-04-11T12:50:56Z</time></trkpt><trkpt lat="43.053229602227304" lon="11.43059539663711"><ele>452.0</ele><time>2026-04-11T12:50:57Z</time></trkpt><trkpt lat="43.05314417628066" lon="11.430555125516815"><ele>450.0</ele><time>2026-04-11T12:50:59Z</time></trkpt><trkpt lat="43.053074460876665" lon="11.4304890752283"><ele>447.99999999999994</ele><time>2026-04-11T12:51:00Z</time></trkpt><trkpt lat="43.052967223050125" lon="11.430424358984274"><ele>446.0</ele><time>2026-04-11T12:51:02Z</time></trkpt><trkpt lat="43.052837264906834" lon="11.430339606408536"><ele>446.0</ele><time>2026-04-11T12:51:04Z</time></trkpt><trkpt lat="43.05275382106086" lon="11.43028014987894"><ele>446.0</ele><time>2026-04-11T12:51:05Z</time></trkpt><trkpt lat="43.052677591738814" lon="11.430229392192656"><ele>446.0</ele><time>2026-04-11T12:51:06Z</time></trkpt><trkpt lat="43.05258250163288" lon="11.430180917498783"><ele>446.0</ele><time>2026-04-11T12:51:07Z</time></trkpt><trkpt lat="43.052492368039715" lon="11.430126107324448"><ele>446.0</ele><time>2026-04-11T12:51:08Z</time></trkpt><trkpt lat="43.052390245412106" lon="11.430077676502355"><ele>443.20000000000005</ele><time>2026-04-11T12:51:09Z</time></trkpt><trkpt lat="43.05228699987223" lon="11.430018124872188"><ele>440.40000000000003</ele><time>2026-04-11T12:51:10Z</time></trkpt><trkpt lat="43.052193475319605" lon="11.429969469732384"><ele>437.6</ele><time>2026-04-11T12:51:11Z</time></trkpt><trkpt lat="43.052095882787896" lon="11.429934743216648"><ele>434.8</ele><time>2026-04-11T12:51:12Z</time></trkpt><trkpt lat="43.05199876113214" lon="11.429893076180148"><ele>432.0</ele><time>2026-04-11T12:51:13Z</time></trkpt><trkpt lat="43.05192288433631" lon="11.429867289808298"><ele>432.0</ele><time>2026-04-11T12:51:14Z</time></trkpt><trkpt lat="43.05180996583924" lon="11.429798754743675"><ele>432.00000000000006</ele><time>2026-04-11T12:51:15Z</time></trkpt><trkpt lat="43.05169208588859" lon="11.429746728119483"><ele>432.00000000000006</ele><time>2026-04-11T12:51:16Z</time></trkpt><trkpt lat="43.05157543920026" lon="11.42969524581442"><ele>432.0</ele><time>2026-04-11T12:51:18Z</time></trkpt><trkpt lat="43.051501372528634" lon="11.429662556304123"><ele>432.0</ele><time>2026-04-11T12:51:19Z</time></trkpt><trkpt lat="43.051404300432964" lon="11.429601143166504"><ele>432.57142857142856</ele><time>2026-04-11T12:51:20Z</time></trkpt><trkpt lat="43.051334533821446" lon="11.429547352833405"><ele>433.1428571428571</ele><time>2026-04-11T12:51:21Z</time></trkpt><trkpt lat="43.05126812865164" lon="11.429482520309435"><ele>433.7142857142857</ele><time>2026-04-11T12:51:22Z</time></trkpt><trkpt lat="43.05121283928602" lon="11.42942603879909"><ele>434.2857142857143</ele><time>2026-04-11T12:51:23Z</time></trkpt><trkpt lat="43.0511554254386" lon="11.429367185908403"><ele>434.8571428571429</ele><time>2026-04-11T12:51:24Z</time></trkpt><trkpt lat="43.05110003359403" lon="11.429310456727075"><ele>435.42857142857144</ele><time>2026-04-11T12:51:25Z</time></trkpt><trkpt lat="43.051041412825526" lon="11.429278460319201"><ele>436.0</ele><time>2026-04-11T12:51:26Z</time></trkpt><trkpt lat="43.05095735937537" lon="11.429176620721284"><ele>436.0</ele><time>2026-04-11T12:51:28Z</time></trkpt><trkpt lat="43.050883336677416" lon="11.429134409684902"><ele>436.0</ele><time>2026-04-11T12:51:30Z</time></trkpt><trkpt lat="43.05086521567214" lon="11.429042811202967"><ele>436.0</ele><time>2026-04-11T12:51:32Z</time></trkpt><trkpt lat="43.05080139783511" lon="11.4289684291568"><ele>436.0</ele><time>2026-04-11T12:51:36Z</time></trkpt><trkpt lat="43.05074823441642" lon="11.428920272028131"><ele>436.0</ele><time>2026-04-11T12:51:39Z</time></trkpt><trkpt lat="43.05068125935655" lon="11.428858001966598"><ele>436.0</ele><time>2026-04-11T12:51:42Z</time></trkpt><trkpt lat="43.05062266350657" lon="11.428824744624286"><ele>436.0</ele><time>2026-04-11T12:51:44Z</time></trkpt><trkpt lat="43.0505723939114" lon="11.428751777853964"><ele>436.20000000000005</ele><time>2026-04-11T12:51:46Z</time></trkpt><trkpt lat="43.05050977379262" lon="11.428690325848887"><ele>436.40000000000003</ele><time>2026-04-11T12:51:48Z</time></trkpt><trkpt lat="43.05043120358669" lon="11.428613221288282"><ele>436.6</ele><time>2026-04-11T12:51:50Z</time></trkpt><trkpt lat="43.05034712210599" lon="11.42855621635498"><ele>436.8</ele><time>2026-04-11T12:51:52Z</time></trkpt><trkpt lat="43.05026468298884" lon="11.42847445269525"><ele>437.0</ele><time>2026-04-11T12:51:54Z</time></trkpt><trkpt lat="43.050173624146296" lon="11.428396137614675"><ele>437.0</ele><time>2026-04-11T12:51:56Z</time></trkpt><trkpt lat="43.05007113688352" lon="11.42833498359976"><ele>437.00000000000006</ele><time>2026-04-11T12:51:58Z</time></trkpt><trkpt lat="43.049963295247046" lon="11.428280426862774"><ele>437.00000000000006</ele><time>2026-04-11T12:52:00Z</time></trkpt><trkpt lat="43.04989714395787" lon="11.428268814763573"><ele>437.0</ele><time>2026-04-11T12:52:01Z</time></trkpt><trkpt lat="43.0498334952145" lon="11.42825835646072"><ele>437.0</ele><time>2026-04-11T12:52:02Z</time></trkpt><trkpt lat="43.04970945593764" lon="11.42820480817481"><ele>437.8333333333333</ele><time>2026-04-11T12:52:04Z</time></trkpt><trkpt lat="43.04964814120896" lon="11.428166095789367"><ele>438.66666666666663</ele><time>2026-04-11T12:52:05Z</time></trkpt><trkpt lat="43.04960398911567" lon="11.428049478640775"><ele>439.5</ele><time>2026-04-11T12:52:06Z</time></trkpt><trkpt lat="43.04955014911597" lon="11.427956199924978"><ele>440.33333333333337</ele><time>2026-04-11T12:52:07Z</time></trkpt><trkpt lat="43.04947394869627" lon="11.427869535208009"><ele>441.1666666666667</ele><time>2026-04-11T12:52:08Z</time></trkpt><trkpt lat="43.049418946572764" lon="11.427810104250112"><ele>442.0</ele><time>2026-04-11T12:52:09Z</time></trkpt><trkpt lat="43.049361869889076" lon="11.427772645238509"><ele>439.6666666666667</ele><time>2026-04-11T12:52:10Z</time></trkpt><trkpt lat="43.04929866807081" lon="11.42772147447266"><ele>437.33333333333337</ele><time>2026-04-11T12:52:11Z</time></trkpt><trkpt lat="43.04921721145072" lon="11.427663547903494"><ele>435.0</ele><time>2026-04-11T12:52:12Z</time></trkpt><trkpt lat="43.04913405038512" lon="11.427601498362119"><ele>432.66666666666663</ele><time>2026-04-11T12:52:13Z</time></trkpt><trkpt lat="43.049056607020745" lon="11.427540895757934"><ele>430.3333333333333</ele><time>2026-04-11T12:52:14Z</time></trkpt><trkpt lat="43.04897807359597" lon="11.427485613891736"><ele>428.0</ele><time>2026-04-11T12:52:15Z</time></trkpt><trkpt lat="43.048900688325816" lon="11.427416773434675"><ele>427.79999999999995</ele><time>2026-04-11T12:52:16Z</time></trkpt><trkpt lat="43.048835631178115" lon="11.427333206563771"><ele>427.59999999999997</ele><time>2026-04-11T12:52:17Z</time></trkpt><trkpt lat="43.04877877255107" lon="11.427244892604495"><ele>427.40000000000003</ele><time>2026-04-11T12:52:18Z</time></trkpt><trkpt lat="43.04871205898203" lon="11.427138746644701"><ele>427.20000000000005</ele><time>2026-04-11T12:52:19Z</time></trkpt><trkpt lat="43.048680013924624" lon="11.427018810500774"><ele>427.0</ele><time>2026-04-11T12:52:20Z</time></trkpt><trkpt lat="43.04862647793783" lon="11.426933738777743"><ele>425.20000000000005</ele><time>2026-04-11T12:52:21Z</time></trkpt><trkpt lat="43.048547256355" lon="11.426865012313245"><ele>423.40000000000003</ele><time>2026-04-11T12:52:22Z</time></trkpt><trkpt lat="43.048472519914704" lon="11.426776693670954"><ele>421.6</ele><time>2026-04-11T12:52:23Z</time></trkpt><trkpt lat="43.04840913046802" lon="11.426678637434865"><ele>419.79999999999995</ele><time>2026-04-11T12:52:24Z</time></trkpt><trkpt lat="43.04834551211625" lon="11.426557447402043"><ele>418.0</ele><time>2026-04-11T12:52:25Z</time></trkpt><trkpt lat="43.048292123728224" lon="11.426443084617185"><ele>417.1666666666667</ele><time>2026-04-11T12:52:26Z</time></trkpt><trkpt lat="43.048244145425095" lon="11.426317042784827"><ele>416.33333333333337</ele><time>2026-04-11T12:52:27Z</time></trkpt><trkpt lat="43.04819304271471" lon="11.426223392467358"><ele>415.5</ele><time>2026-04-11T12:52:28Z</time></trkpt><trkpt lat="43.04816963363636" lon="11.426133405562044"><ele>414.66666666666663</ele><time>2026-04-11T12:52:29Z</time></trkpt><trkpt lat="43.04812910697309" lon="11.426064674282193"><ele>413.8333333333333</ele><time>2026-04-11T12:52:30Z</time></trkpt><trkpt lat="43.04810767802598" lon="11.425978608620293"><ele>413.0</ele><time>2026-04-11T12:52:31Z</time></trkpt><trkpt lat="43.048051204490065" lon="11.425899003597799"><ele>411.99999999999994</ele><time>2026-04-11T12:52:32Z</time></trkpt><trkpt lat="43.04802358846985" lon="11.425801299727551"><ele>411.0</ele><time>2026-04-11T12:52:33Z</time></trkpt><trkpt lat="43.047964282108" lon="11.425709322135809"><ele>410.0</ele><time>2026-04-11T12:52:34Z</time></trkpt><trkpt lat="43.04790869861938" lon="11.425608627773048"><ele>409.0</ele><time>2026-04-11T12:52:35Z</time></trkpt><trkpt lat="43.047862682394864" lon="11.425507899566636"><ele>407.99999999999994</ele><time>2026-04-11T12:52:36Z</time></trkpt><trkpt lat="43.047797009838156" lon="11.42543433598879"><ele>407.0</ele><time>2026-04-11T12:52:37Z</time></trkpt><trkpt lat="43.04775319319169" lon="11.425325752945065"><ele>405.3333333333333</ele><time>2026-04-11T12:52:38Z</time></trkpt><trkpt lat="43.04768396176263" lon="11.425245932322671"><ele>403.66666666666663</ele><time>2026-04-11T12:52:39Z</time></trkpt><trkpt lat="43.04762886063795" lon="11.425161810038249"><ele>402.0</ele><time>2026-04-11T12:52:40Z</time></trkpt><trkpt lat="43.04758594055234" lon="11.425063861037641"><ele>400.33333333333337</ele><time>2026-04-11T12:52:41Z</time></trkpt><trkpt lat="43.04752901291631" lon="11.4249770874022"><ele>398.6666666666667</ele><time>2026-04-11T12:52:42Z</time></trkpt><trkpt lat="43.04746632150966" lon="11.424914963663888"><ele>397.0</ele><time>2026-04-11T12:52:43Z</time></trkpt><trkpt lat="43.04742222870884" lon="11.424839802288"><ele>396.50000000000006</ele><time>2026-04-11T12:52:44Z</time></trkpt><trkpt lat="43.04737263782632" lon="11.424770966374256"><ele>396.0</ele><time>2026-04-11T12:52:45Z</time></trkpt><trkpt lat="43.04732503455195" lon="11.424713407327335"><ele>395.5</ele><time>2026-04-11T12:52:46Z</time></trkpt><trkpt lat="43.047204218877816" lon="11.424646692357706"><ele>395.0</ele><time>2026-04-11T12:52:48Z</time></trkpt><trkpt lat="43.04715097928937" lon="11.424593087826791"><ele>394.50000000000006</ele><time>2026-04-11T12:52:49Z</time></trkpt><trkpt lat="43.04708363862707" lon="11.424565621136553"><ele>394.0</ele><time>2026-04-11T12:52:50Z</time></trkpt><trkpt lat="43.04702008234579" lon="11.424504357853442"><ele>393.1666666666667</ele><time>2026-04-11T12:52:51Z</time></trkpt><trkpt lat="43.04697237471065" lon="11.424409717806997"><ele>392.33333333333337</ele><time>2026-04-11T12:52:52Z</time></trkpt><trkpt lat="43.04693366477165" lon="11.424329940187747"><ele>391.5</ele><time>2026-04-11T12:52:53Z</time></trkpt><trkpt lat="43.04690122117603" lon="11.424227635271023"><ele>390.66666666666663</ele><time>2026-04-11T12:52:54Z</time></trkpt><trkpt lat="43.04687682344082" lon="11.424122108473945"><ele>389.8333333333333</ele><time>2026-04-11T12:52:55Z</time></trkpt><trkpt lat="43.0468332097774" lon="11.424033042331684"><ele>389.0</ele><time>2026-04-11T12:52:56Z</time></trkpt><trkpt lat="43.046800550299174" lon="11.42393857750787"><ele>389.0</ele><time>2026-04-11T12:52:57Z</time></trkpt><trkpt lat="43.04676962896061" lon="11.423852454531549"><ele>389.0</ele><time>2026-04-11T12:52:58Z</time></trkpt><trkpt lat="43.04674202366092" lon="11.42377051650099"><ele>389.0</ele><time>2026-04-11T12:52:59Z</time></trkpt><trkpt lat="43.046680771071266" lon="11.423609376762927"><ele>389.0</ele><time>2026-04-11T12:53:01Z</time></trkpt><trkpt lat="43.04663161628655" lon="11.42347188148464"><ele>389.0</ele><time>2026-04-11T12:53:03Z</time></trkpt><trkpt lat="43.0465833454725" lon="11.423356479209765"><ele>388.7142857142857</ele><time>2026-04-11T12:53:05Z</time></trkpt><trkpt lat="43.04655196595416" lon="11.423261817490205"><ele>388.4285714285714</ele><time>2026-04-11T12:53:07Z</time></trkpt><trkpt lat="43.04651335562676" lon="11.423171095735542"><ele>388.1428571428571</ele><time>2026-04-11T12:53:10Z</time></trkpt><trkpt lat="43.046481143468036" lon="11.423092121413392"><ele>387.8571428571429</ele><time>2026-04-11T12:53:13Z</time></trkpt><trkpt lat="43.04644839454271" lon="11.42300254784034"><ele>387.57142857142856</ele><time>2026-04-11T12:53:17Z</time></trkpt><trkpt lat="43.04641008432746" lon="11.422913527946687"><ele>387.2857142857143</ele><time>2026-04-11T12:53:21Z</time></trkpt><trkpt lat="43.046377946166274" lon="11.42282533310309"><ele>387.0</ele><time>2026-04-11T12:53:25Z</time></trkpt><trkpt lat="43.04635933967661" lon="11.4227367695956"><ele>389.1666666666667</ele><time>2026-04-11T12:53:29Z</time></trkpt><trkpt lat="43.04632667635008" lon="11.422652235210206"><ele>391.33333333333337</ele><time>2026-04-11T12:53:34Z</time></trkpt><trkpt lat="43.04621287433926" lon="11.422703784647974"><ele>393.5</ele><time>2026-04-11T12:53:36Z</time></trkpt><trkpt lat="43.04614738454182" lon="11.422712503065478"><ele>395.6666666666667</ele><time>2026-04-11T12:53:39Z</time></trkpt><trkpt lat="43.04608433780208" lon="11.422706221225948"><ele>397.83333333333337</ele><time>2026-04-11T12:53:42Z</time></trkpt><trkpt lat="43.04601655503309" lon="11.422677275673033"><ele>400.0</ele><time>2026-04-11T12:53:45Z</time></trkpt><trkpt lat="43.045942809994614" lon="11.422666664033299"><ele>400.00000000000006</ele><time>2026-04-11T12:53:49Z</time></trkpt><trkpt lat="43.0458650693559" lon="11.422651981212326"><ele>400.0</ele><time>2026-04-11T12:53:53Z</time></trkpt><trkpt lat="43.045801792092895" lon="11.422635251087891"><ele>400.0</ele><time>2026-04-11T12:53:56Z</time></trkpt><trkpt lat="43.045726298594005" lon="11.422629670917315"><ele>400.0</ele><time>2026-04-11T12:53:59Z</time></trkpt><trkpt lat="43.04565558471213" lon="11.422585928841787"><ele>400.00000000000006</ele><time>2026-04-11T12:54:02Z</time></trkpt><trkpt lat="43.04557639591596" lon="11.422532063716881"><ele>400.0</ele><time>2026-04-11T12:54:05Z</time></trkpt><trkpt lat="43.0455104020753" lon="11.422460599856143"><ele>398.50000000000006</ele><time>2026-04-11T12:54:08Z</time></trkpt><trkpt lat="43.04546297496764" lon="11.422396683423457"><ele>397.0</ele><time>2026-04-11T12:54:10Z</time></trkpt><trkpt lat="43.04541107758746" lon="11.422321662844878"><ele>395.5</ele><time>2026-04-11T12:54:12Z</time></trkpt><trkpt lat="43.045361500437245" lon="11.422231824089867"><ele>394.0</ele><time>2026-04-11T12:54:14Z</time></trkpt><trkpt lat="43.04531561189125" lon="11.422121240314196"><ele>392.50000000000006</ele><time>2026-04-11T12:54:16Z</time></trkpt><trkpt lat="43.04527555172013" lon="11.421998145121272"><ele>391.0</ele><time>2026-04-11T12:54:18Z</time></trkpt><trkpt lat="43.04523204896387" lon="11.421854598516942"><ele>391.0</ele><time>2026-04-11T12:54:20Z</time></trkpt><trkpt lat="43.045193224376774" lon="11.42169485294774"><ele>391.0</ele><time>2026-04-11T12:54:22Z</time></trkpt><trkpt lat="43.04513614856613" lon="11.421546768445786"><ele>391.0</ele><time>2026-04-11T12:54:24Z</time></trkpt><trkpt lat="43.045095226896095" lon="11.42139210013416"><ele>391.0</ele><time>2026-04-11T12:54:26Z</time></trkpt><trkpt lat="43.045045724355475" lon="11.421237368938371"><ele>391.00000000000006</ele><time>2026-04-11T12:54:28Z</time></trkpt><trkpt lat="43.04501650563683" lon="11.421151163893551"><ele>391.0</ele><time>2026-04-11T12:54:29Z</time></trkpt><trkpt lat="43.044978878587266" lon="11.421021946248135"><ele>391.0</ele><time>2026-04-11T12:54:31Z</time></trkpt><trkpt lat="43.04494622459616" lon="11.420894767080975"><ele>391.0</ele><time>2026-04-11T12:54:33Z</time></trkpt><trkpt lat="43.04495267472327" lon="11.420780846028043"><ele>391.00000000000006</ele><time>2026-04-11T12:54:35Z</time></trkpt><trkpt lat="43.04500040929666" lon="11.420706136372928"><ele>391.0</ele><time>2026-04-11T12:54:37Z</time></trkpt><trkpt lat="43.045061409117885" lon="11.420656515332688"><ele>391.00000000000006</ele><time>2026-04-11T12:54:39Z</time></trkpt><trkpt lat="43.045136494037926" lon="11.42063634809409"><ele>391.0</ele><time>2026-04-11T12:54:41Z</time></trkpt><trkpt lat="43.045186874445065" lon="11.420575882147917"><ele>391.0</ele><time>2026-04-11T12:54:43Z</time></trkpt><trkpt lat="43.04522915293021" lon="11.420494351090014"><ele>391.0</ele><time>2026-04-11T12:54:46Z</time></trkpt><trkpt lat="43.04518869939308" lon="11.420380903574202"><ele>391.00000000000006</ele><time>2026-04-11T12:54:48Z</time></trkpt><trkpt lat="43.04513336010603" lon="11.420239442624922"><ele>391.0</ele><time>2026-04-11T12:54:50Z</time></trkpt><trkpt lat="43.045101968887316" lon="11.420150013057299"><ele>390.33333333333337</ele><time>2026-04-11T12:54:51Z</time></trkpt><trkpt lat="43.04506160535129" lon="11.420060445607051"><ele>389.6666666666667</ele><time>2026-04-11T12:54:52Z</time></trkpt><trkpt lat="43.045022573814585" lon="11.4199498641239"><ele>389.0</ele><time>2026-04-11T12:54:53Z</time></trkpt><trkpt lat="43.04498321051346" lon="11.419843149265944"><ele>388.33333333333337</ele><time>2026-04-11T12:54:54Z</time></trkpt><trkpt lat="43.044941077696485" lon="11.419735525366553"><ele>387.6666666666667</ele><time>2026-04-11T12:54:55Z</time></trkpt><trkpt lat="43.04489324567985" lon="11.419618294729982"><ele>387.0</ele><time>2026-04-11T12:54:56Z</time></trkpt><trkpt lat="43.04484187279308" lon="11.419487053136672"><ele>383.0</ele><time>2026-04-11T12:54:57Z</time></trkpt><trkpt lat="43.04478434257885" lon="11.419357178644182"><ele>379.0</ele><time>2026-04-11T12:54:58Z</time></trkpt><trkpt lat="43.04471757903185" lon="11.419218270567367"><ele>375.0</ele><time>2026-04-11T12:54:59Z</time></trkpt><trkpt lat="43.044662595345734" lon="11.419079275106364"><ele>371.0</ele><time>2026-04-11T12:55:00Z</time></trkpt><trkpt lat="43.04460557142144" lon="11.418942918820738"><ele>371.4</ele><time>2026-04-11T12:55:01Z</time></trkpt><trkpt lat="43.04455211593384" lon="11.418807192565108"><ele>371.8</ele><time>2026-04-11T12:55:02Z</time></trkpt><trkpt lat="43.04450295621122" lon="11.418672567833061"><ele>372.2</ele><time>2026-04-11T12:55:03Z</time></trkpt><trkpt lat="43.04445130376023" lon="11.418550799866784"><ele>372.59999999999997</ele><time>2026-04-11T12:55:04Z</time></trkpt><trkpt lat="43.04438985420694" lon="11.418441715452003"><ele>373.0</ele><time>2026-04-11T12:55:05Z</time></trkpt><trkpt lat="43.044338467791746" lon="11.418350882741862"><ele>373.0</ele><time>2026-04-11T12:55:06Z</time></trkpt><trkpt lat="43.04429665639329" lon="11.418246338382508"><ele>373.0</ele><time>2026-04-11T12:55:07Z</time></trkpt><trkpt lat="43.04425583451771" lon="11.418153288166204"><ele>373.0</ele><time>2026-04-11T12:55:08Z</time></trkpt><trkpt lat="43.04422193752004" lon="11.418065993711416"><ele>373.0</ele><time>2026-04-11T12:55:09Z</time></trkpt><trkpt lat="43.0441881662089" lon="11.417986441861338"><ele>373.0</ele><time>2026-04-11T12:55:10Z</time></trkpt><trkpt lat="43.044156771819914" lon="11.41790512680801"><ele>373.0</ele><time>2026-04-11T12:55:11Z</time></trkpt><trkpt lat="43.044095886077066" lon="11.41776442717563"><ele>371.8333333333333</ele><time>2026-04-11T12:55:13Z</time></trkpt><trkpt lat="43.0440305353137" lon="11.41762574030942"><ele>370.66666666666663</ele><time>2026-04-11T12:55:15Z</time></trkpt><trkpt lat="43.04398931146301" lon="11.417553288112467"><ele>369.5</ele><time>2026-04-11T12:55:16Z</time></trkpt><trkpt lat="43.04391227288467" lon="11.417409675543418"><ele>368.3333333333333</ele><time>2026-04-11T12:55:18Z</time></trkpt><trkpt lat="43.04387403464253" lon="11.417340513580474"><ele>367.1666666666667</ele><time>2026-04-11T12:55:19Z</time></trkpt><trkpt lat="43.04383261296158" lon="11.41726951105568"><ele>366.0</ele><time>2026-04-11T12:55:20Z</time></trkpt><trkpt lat="43.04378959378255" lon="11.417201365965399"><ele>366.4</ele><time>2026-04-11T12:55:21Z</time></trkpt><trkpt lat="43.04374131601514" lon="11.417137909178104"><ele>366.8</ele><time>2026-04-11T12:55:22Z</time></trkpt><trkpt lat="43.04369603496625" lon="11.417066498509698"><ele>367.2</ele><time>2026-04-11T12:55:23Z</time></trkpt><trkpt lat="43.0436154218501" lon="11.416931674304742"><ele>367.59999999999997</ele><time>2026-04-11T12:55:25Z</time></trkpt><trkpt lat="43.04353050143861" lon="11.41680817999424"><ele>368.0</ele><time>2026-04-11T12:55:27Z</time></trkpt><trkpt lat="43.04345392832993" lon="11.416666081324724"><ele>368.0</ele><time>2026-04-11T12:55:29Z</time></trkpt><trkpt lat="43.04337020658606" lon="11.416529672401316"><ele>368.0</ele><time>2026-04-11T12:55:31Z</time></trkpt><trkpt lat="43.04332968635867" lon="11.416450471319987"><ele>368.0</ele><time>2026-04-11T12:55:32Z</time></trkpt><trkpt lat="43.0432984634771" lon="11.416372802197465"><ele>368.0</ele><time>2026-04-11T12:55:33Z</time></trkpt><trkpt lat="43.04327670118672" lon="11.41628749230442"><ele>368.0</ele><time>2026-04-11T12:55:34Z</time></trkpt><trkpt lat="43.043284548512226" lon="11.416137080044157"><ele>368.0</ele><time>2026-04-11T12:55:36Z</time></trkpt><trkpt lat="43.043209445230225" lon="11.416050548561119"><ele>366.59999999999997</ele><time>2026-04-11T12:55:37Z</time></trkpt><trkpt lat="43.04313982887607" lon="11.415917547624554"><ele>365.2</ele><time>2026-04-11T12:55:39Z</time></trkpt><trkpt lat="43.04307554901119" lon="11.415788316041116"><ele>363.8</ele><time>2026-04-11T12:55:41Z</time></trkpt><trkpt lat="43.043037227491084" lon="11.415718853114473"><ele>362.4</ele><time>2026-04-11T12:55:42Z</time></trkpt><trkpt lat="43.04299923413727" lon="11.415643904104762"><ele>361.0</ele><time>2026-04-11T12:55:43Z</time></trkpt><trkpt lat="43.042929124227804" lon="11.415485973332606"><ele>360.8333333333333</ele><time>2026-04-11T12:55:45Z</time></trkpt><trkpt lat="43.042895195343455" lon="11.415392806861071"><ele>360.66666666666663</ele><time>2026-04-11T12:55:46Z</time></trkpt><trkpt lat="43.04285662125311" lon="11.415304346047094"><ele>360.5</ele><time>2026-04-11T12:55:47Z</time></trkpt><trkpt lat="43.04280844128701" lon="11.415215128656412"><ele>360.3333333333333</ele><time>2026-04-11T12:55:48Z</time></trkpt><trkpt lat="43.04276502030951" lon="11.415129210116914"><ele>360.1666666666667</ele><time>2026-04-11T12:55:49Z</time></trkpt><trkpt lat="43.04270750029678" lon="11.415036651022415"><ele>360.0</ele><time>2026-04-11T12:55:50Z</time></trkpt><trkpt lat="43.04265436219978" lon="11.414955262480094"><ele>360.0</ele><time>2026-04-11T12:55:51Z</time></trkpt><trkpt lat="43.04260146540605" lon="11.414889168558616"><ele>360.0</ele><time>2026-04-11T12:55:52Z</time></trkpt><trkpt lat="43.04255272222536" lon="11.41482945252056"><ele>360.0</ele><time>2026-04-11T12:55:53Z</time></trkpt><trkpt lat="43.04250179945486" lon="11.414774550067397"><ele>360.0</ele><time>2026-04-11T12:55:54Z</time></trkpt><trkpt lat="43.04240635219342" lon="11.414662637435118"><ele>360.0</ele><time>2026-04-11T12:55:56Z</time></trkpt><trkpt lat="43.0423571675492" lon="11.414590799067598"><ele>360.0</ele><time>2026-04-11T12:55:57Z</time></trkpt><trkpt lat="43.04225881768079" lon="11.414473064260093"><ele>358.7142857142857</ele><time>2026-04-11T12:55:59Z</time></trkpt><trkpt lat="43.04220805305215" lon="11.414407134785064"><ele>357.42857142857144</ele><time>2026-04-11T12:56:00Z</time></trkpt><trkpt lat="43.042154680886206" lon="11.414343210015744"><ele>356.14285714285717</ele><time>2026-04-11T12:56:01Z</time></trkpt><trkpt lat="43.04211484718164" lon="11.414271674909068"><ele>354.8571428571429</ele><time>2026-04-11T12:56:02Z</time></trkpt><trkpt lat="43.042069681948526" lon="11.414195916945342"><ele>353.57142857142856</ele><time>2026-04-11T12:56:03Z</time></trkpt><trkpt lat="43.0420357723917" lon="11.414101088510993"><ele>352.28571428571433</ele><time>2026-04-11T12:56:04Z</time></trkpt><trkpt lat="43.04199882738621" lon="11.413999104945864"><ele>351.0</ele><time>2026-04-11T12:56:05Z</time></trkpt><trkpt lat="43.04196156884874" lon="11.413890946791224"><ele>350.0</ele><time>2026-04-11T12:56:06Z</time></trkpt><trkpt lat="43.041932790729994" lon="11.413783543727266"><ele>349.0</ele><time>2026-04-11T12:56:07Z</time></trkpt><trkpt lat="43.04189839000271" lon="11.413682855654121"><ele>348.0</ele><time>2026-04-11T12:56:08Z</time></trkpt><trkpt lat="43.041861569365096" lon="11.413565539512867"><ele>347.0</ele><time>2026-04-11T12:56:09Z</time></trkpt><trkpt lat="43.04182805529744" lon="11.413463705135666"><ele>346.0</ele><time>2026-04-11T12:56:10Z</time></trkpt><trkpt lat="43.04179494596986" lon="11.413346826504341"><ele>345.0</ele><time>2026-04-11T12:56:11Z</time></trkpt><trkpt lat="43.04176421801342" lon="11.413246874339391"><ele>345.0</ele><time>2026-04-11T12:56:12Z</time></trkpt><trkpt lat="43.04173175356536" lon="11.413141457261396"><ele>345.0</ele><time>2026-04-11T12:56:13Z</time></trkpt><trkpt lat="43.041693462056315" lon="11.4130344921324"><ele>345.0</ele><time>2026-04-11T12:56:14Z</time></trkpt><trkpt lat="43.04165887509826" lon="11.412927237330807"><ele>345.0</ele><time>2026-04-11T12:56:15Z</time></trkpt><trkpt lat="43.04162257053806" lon="11.41281865838886"><ele>345.0</ele><time>2026-04-11T12:56:16Z</time></trkpt><trkpt lat="43.04159264295135" lon="11.412697831014967"><ele>345.0</ele><time>2026-04-11T12:56:17Z</time></trkpt><trkpt lat="43.04156889868485" lon="11.412582129451586"><ele>342.2</ele><time>2026-04-11T12:56:18Z</time></trkpt><trkpt lat="43.041551392211794" lon="11.412456168463118"><ele>339.4</ele><time>2026-04-11T12:56:19Z</time></trkpt><trkpt lat="43.04154069275929" lon="11.412321499809911"><ele>336.6</ele><time>2026-04-11T12:56:20Z</time></trkpt><trkpt lat="43.041543043261434" lon="11.412181787772873"><ele>333.8</ele><time>2026-04-11T12:56:21Z</time></trkpt><trkpt lat="43.04154163047088" lon="11.412036598659972"><ele>331.0</ele><time>2026-04-11T12:56:22Z</time></trkpt><trkpt lat="43.0415452009654" lon="11.411895282224146"><ele>329.6</ele><time>2026-04-11T12:56:23Z</time></trkpt><trkpt lat="43.04154727845882" lon="11.411766988313627"><ele>328.20000000000005</ele><time>2026-04-11T12:56:24Z</time></trkpt><trkpt lat="43.041548765748516" lon="11.411624504498016"><ele>326.79999999999995</ele><time>2026-04-11T12:56:25Z</time></trkpt><trkpt lat="43.041555159250514" lon="11.411490798633308"><ele>325.4</ele><time>2026-04-11T12:56:26Z</time></trkpt><trkpt lat="43.041557724920054" lon="11.411356926001536"><ele>324.0</ele><time>2026-04-11T12:56:27Z</time></trkpt><trkpt lat="43.0415667078325" lon="11.411226338486784"><ele>323.6</ele><time>2026-04-11T12:56:28Z</time></trkpt><trkpt lat="43.041570262600956" lon="11.411089249780817"><ele>323.2</ele><time>2026-04-11T12:56:29Z</time></trkpt><trkpt lat="43.04157961100232" lon="11.41096240033315"><ele>322.8</ele><time>2026-04-11T12:56:30Z</time></trkpt><trkpt lat="43.041594909942965" lon="11.410840620619052"><ele>322.40000000000003</ele><time>2026-04-11T12:56:31Z</time></trkpt><trkpt lat="43.0416119890534" lon="11.410726659782839"><ele>322.0</ele><time>2026-04-11T12:56:32Z</time></trkpt><trkpt lat="43.04162675134664" lon="11.410617236271227"><ele>321.8333333333333</ele><time>2026-04-11T12:56:33Z</time></trkpt><trkpt lat="43.04163961086989" lon="11.410498710281697"><ele>321.66666666666663</ele><time>2026-04-11T12:56:34Z</time></trkpt><trkpt lat="43.041660461765915" lon="11.410387435909003"><ele>321.5</ele><time>2026-04-11T12:56:35Z</time></trkpt><trkpt lat="43.0416662384088" lon="11.410263527066881"><ele>321.3333333333333</ele><time>2026-04-11T12:56:36Z</time></trkpt><trkpt lat="43.041677437764605" lon="11.410144619269223"><ele>321.1666666666667</ele><time>2026-04-11T12:56:37Z</time></trkpt><trkpt lat="43.04169017366528" lon="11.410032533601733"><ele>321.0</ele><time>2026-04-11T12:56:38Z</time></trkpt><trkpt lat="43.04170077486522" lon="11.409924495546116"><ele>320.99999999999994</ele><time>2026-04-11T12:56:39Z</time></trkpt><trkpt lat="43.04171112957997" lon="11.409811818515525"><ele>321.0</ele><time>2026-04-11T12:56:40Z</time></trkpt><trkpt lat="43.04172236641909" lon="11.409707600414416"><ele>321.0</ele><time>2026-04-11T12:56:41Z</time></trkpt><trkpt lat="43.04173452497769" lon="11.409612414169123"><ele>321.0</ele><time>2026-04-11T12:56:42Z</time></trkpt><trkpt lat="43.04173742498461" lon="11.409508178857743"><ele>321.0</ele><time>2026-04-11T12:56:43Z</time></trkpt><trkpt lat="43.041738086908545" lon="11.40940795014715"><ele>320.99999999999994</ele><time>2026-04-11T12:56:44Z</time></trkpt><trkpt lat="43.04174403309794" lon="11.409315514258108"><ele>321.0</ele><time>2026-04-11T12:56:45Z</time></trkpt><trkpt lat="43.04174361181509" lon="11.409203761609152"><ele>319.6666666666667</ele><time>2026-04-11T12:56:46Z</time></trkpt><trkpt lat="43.04174427539304" lon="11.409095669237432"><ele>318.3333333333333</ele><time>2026-04-11T12:56:47Z</time></trkpt><trkpt lat="43.041747132329" lon="11.409001788481355"><ele>317.0</ele><time>2026-04-11T12:56:48Z</time></trkpt><trkpt lat="43.041756378966134" lon="11.408904119201349"><ele>315.66666666666663</ele><time>2026-04-11T12:56:49Z</time></trkpt><trkpt lat="43.041755898266196" lon="11.408809606164253"><ele>314.3333333333333</ele><time>2026-04-11T12:56:50Z</time></trkpt><trkpt lat="43.04175649669615" lon="11.408718522593501"><ele>313.0</ele><time>2026-04-11T12:56:51Z</time></trkpt><trkpt lat="43.0417626964039" lon="11.408539664396296"><ele>311.4</ele><time>2026-04-11T12:56:53Z</time></trkpt><trkpt lat="43.04176698224233" lon="11.408373354181444"><ele>309.8</ele><time>2026-04-11T12:56:55Z</time></trkpt><trkpt lat="43.041778846719346" lon="11.408226429595425"><ele>308.2</ele><time>2026-04-11T12:56:57Z</time></trkpt><trkpt lat="43.04179187137507" lon="11.408090612484925"><ele>306.6</ele><time>2026-04-11T12:56:59Z</time></trkpt><trkpt lat="43.041786893317735" lon="11.407951834935854"><ele>305.0</ele><time>2026-04-11T12:57:01Z</time></trkpt><trkpt lat="43.04174395657908" lon="11.407822470132468"><ele>303.5</ele><time>2026-04-11T12:57:03Z</time></trkpt><trkpt lat="43.04167950430245" lon="11.407709283728478"><ele>302.0</ele><time>2026-04-11T12:57:05Z</time></trkpt><trkpt lat="43.04156553067411" lon="11.407667165791523"><ele>300.5</ele><time>2026-04-11T12:57:07Z</time></trkpt><trkpt lat="43.041496592094475" lon="11.407688960693157"><ele>299.0</ele><time>2026-04-11T12:57:08Z</time></trkpt><trkpt lat="43.041430018291486" lon="11.407674197234714"><ele>297.5</ele><time>2026-04-11T12:57:09Z</time></trkpt><trkpt lat="43.041362498321185" lon="11.40766916951207"><ele>296.0</ele><time>2026-04-11T12:57:10Z</time></trkpt><trkpt lat="43.04130033129302" lon="11.407653530154661"><ele>296.0</ele><time>2026-04-11T12:57:11Z</time></trkpt><trkpt lat="43.041226591380976" lon="11.407633446414035"><ele>296.0</ele><time>2026-04-11T12:57:12Z</time></trkpt><trkpt lat="43.04114779887724" lon="11.407611661182981"><ele>296.0</ele><time>2026-04-11T12:57:13Z</time></trkpt><trkpt lat="43.04107062745887" lon="11.407610371110184"><ele>296.0</ele><time>2026-04-11T12:57:14Z</time></trkpt><trkpt lat="43.04099075777593" lon="11.407557736390268"><ele>296.0</ele><time>2026-04-11T12:57:15Z</time></trkpt><trkpt lat="43.04089444307143" lon="11.407557488935582"><ele>296.0</ele><time>2026-04-11T12:57:16Z</time></trkpt><trkpt lat="43.040812018465616" lon="11.40754568169755"><ele>295.0</ele><time>2026-04-11T12:57:17Z</time></trkpt><trkpt lat="43.04074150026361" lon="11.407528203639739"><ele>294.0</ele><time>2026-04-11T12:57:18Z</time></trkpt><trkpt lat="43.04067418947019" lon="11.407525228807557"><ele>293.0</ele><time>2026-04-11T12:57:19Z</time></trkpt><trkpt lat="43.04055217358811" lon="11.407545163700455"><ele>292.0</ele><time>2026-04-11T12:57:21Z</time></trkpt><trkpt lat="43.04041694749555" lon="11.407574486670036"><ele>291.0</ele><time>2026-04-11T12:57:23Z</time></trkpt><trkpt lat="43.040352995506446" lon="11.407611422582274"><ele>291.0</ele><time>2026-04-11T12:57:24Z</time></trkpt><trkpt lat="43.040287685033604" lon="11.407647243832185"><ele>291.0</ele><time>2026-04-11T12:57:25Z</time></trkpt><trkpt lat="43.04023342663481" lon="11.40773114742639"><ele>291.0</ele><time>2026-04-11T12:57:26Z</time></trkpt><trkpt lat="43.04017798613727" lon="11.407775928273894"><ele>291.0</ele><time>2026-04-11T12:57:27Z</time></trkpt><trkpt lat="43.04011698961167" lon="11.407816583813217"><ele>291.0</ele><time>2026-04-11T12:57:28Z</time></trkpt><trkpt lat="43.04004623132949" lon="11.407862821434689"><ele>291.0</ele><time>2026-04-11T12:57:29Z</time></trkpt><trkpt lat="43.03994801519913" lon="11.407914329911799"><ele>290.6666666666667</ele><time>2026-04-11T12:57:31Z</time></trkpt><trkpt lat="43.03983165935288" lon="11.407971840697941"><ele>290.3333333333333</ele><time>2026-04-11T12:57:33Z</time></trkpt><trkpt lat="43.03976835154101" lon="11.407992444707292"><ele>290.0</ele><time>2026-04-11T12:57:34Z</time></trkpt><trkpt lat="43.03969541587202" lon="11.408036876931781"><ele>289.66666666666663</ele><time>2026-04-11T12:57:35Z</time></trkpt><trkpt lat="43.039624551218054" lon="11.408050820082872"><ele>289.3333333333333</ele><time>2026-04-11T12:57:36Z</time></trkpt><trkpt lat="43.039559120093166" lon="11.40807141451532"><ele>289.0</ele><time>2026-04-11T12:57:37Z</time></trkpt><trkpt lat="43.03947893780872" lon="11.408071946077209"><ele>289.0</ele><time>2026-04-11T12:57:38Z</time></trkpt><trkpt lat="43.03939039681424" lon="11.408096617464013"><ele>289.0</ele><time>2026-04-11T12:57:39Z</time></trkpt><trkpt lat="43.03932562676501" lon="11.408120420482131"><ele>289.0</ele><time>2026-04-11T12:57:40Z</time></trkpt><trkpt lat="43.03922790345934" lon="11.408149094355162"><ele>289.0</ele><time>2026-04-11T12:57:41Z</time></trkpt><trkpt lat="43.039147374387156" lon="11.408177052896221"><ele>289.0</ele><time>2026-04-11T12:57:42Z</time></trkpt><trkpt lat="43.03907465872235" lon="11.408198960580807"><ele>289.0</ele><time>2026-04-11T12:57:43Z</time></trkpt><trkpt lat="43.03900704841186" lon="11.408225519375511"><ele>287.66666666666663</ele><time>2026-04-11T12:57:44Z</time></trkpt><trkpt lat="43.038934114746155" lon="11.408265531417818"><ele>286.3333333333333</ele><time>2026-04-11T12:57:45Z</time></trkpt><trkpt lat="43.03885637069742" lon="11.40828287328528"><ele>285.0</ele><time>2026-04-11T12:57:46Z</time></trkpt><trkpt lat="43.038784799554996" lon="11.40831978302176"><ele>283.6666666666667</ele><time>2026-04-11T12:57:47Z</time></trkpt><trkpt lat="43.0387122072639" lon="11.40836563065617"><ele>282.33333333333337</ele><time>2026-04-11T12:57:48Z</time></trkpt><trkpt lat="43.03862845332239" lon="11.408394417334307"><ele>281.0</ele><time>2026-04-11T12:57:49Z</time></trkpt><trkpt lat="43.03855493930463" lon="11.408458462683267"><ele>281.0</ele><time>2026-04-11T12:57:50Z</time></trkpt><trkpt lat="43.03848090303415" lon="11.40850425712953"><ele>281.0</ele><time>2026-04-11T12:57:51Z</time></trkpt><trkpt lat="43.0384004238592" lon="11.408544007627214"><ele>281.0</ele><time>2026-04-11T12:57:52Z</time></trkpt><trkpt lat="43.03831379089449" lon="11.408573394615448"><ele>281.0</ele><time>2026-04-11T12:57:53Z</time></trkpt><trkpt lat="43.03824332306283" lon="11.408665002721285"><ele>281.0</ele><time>2026-04-11T12:57:54Z</time></trkpt><trkpt lat="43.038173403696895" lon="11.408738964333057"><ele>281.0</ele><time>2026-04-11T12:57:55Z</time></trkpt><trkpt lat="43.03811037929688" lon="11.408822772509344"><ele>280.33333333333337</ele><time>2026-04-11T12:57:56Z</time></trkpt><trkpt lat="43.03805714396604" lon="11.408915908245147"><ele>279.6666666666667</ele><time>2026-04-11T12:57:57Z</time></trkpt><trkpt lat="43.03799140213135" lon="11.408980467502616"><ele>279.0</ele><time>2026-04-11T12:57:58Z</time></trkpt><trkpt lat="43.03793555965206" lon="11.40906207483792"><ele>278.3333333333333</ele><time>2026-04-11T12:57:59Z</time></trkpt><trkpt lat="43.037891651664886" lon="11.40915757728413"><ele>277.66666666666663</ele><time>2026-04-11T12:58:00Z</time></trkpt><trkpt lat="43.037836458032764" lon="11.409225816630746"><ele>277.0</ele><time>2026-04-11T12:58:01Z</time></trkpt><trkpt lat="43.03777465726193" lon="11.409294492764484"><ele>277.0</ele><time>2026-04-11T12:58:02Z</time></trkpt><trkpt lat="43.03773405156665" lon="11.40938079870435"><ele>277.0</ele><time>2026-04-11T12:58:03Z</time></trkpt><trkpt lat="43.03768141988823" lon="11.409438796659948"><ele>277.0</ele><time>2026-04-11T12:58:04Z</time></trkpt><trkpt lat="43.03756653475374" lon="11.409496144067484"><ele>277.0</ele><time>2026-04-11T12:58:06Z</time></trkpt><trkpt lat="43.03750241472688" lon="11.409472345096539"><ele>277.0</ele><time>2026-04-11T12:58:07Z</time></trkpt><trkpt lat="43.037449659573994" lon="11.409406456867362"><ele>277.0</ele><time>2026-04-11T12:58:08Z</time></trkpt><trkpt lat="43.03739697147701" lon="11.409335814022786"><ele>276.66666666666663</ele><time>2026-04-11T12:58:09Z</time></trkpt><trkpt lat="43.037350635938886" lon="11.409250311220573"><ele>276.3333333333333</ele><time>2026-04-11T12:58:10Z</time></trkpt><trkpt lat="43.037303170399724" lon="11.40916228222194"><ele>276.0</ele><time>2026-04-11T12:58:11Z</time></trkpt><trkpt lat="43.03725538147688" lon="11.409088941200277"><ele>275.6666666666667</ele><time>2026-04-11T12:58:12Z</time></trkpt><trkpt lat="43.037203386201625" lon="11.409000814376267"><ele>275.33333333333337</ele><time>2026-04-11T12:58:13Z</time></trkpt><trkpt lat="43.03714833774799" lon="11.408913454917817"><ele>275.0</ele><time>2026-04-11T12:58:14Z</time></trkpt><trkpt lat="43.0370858026577" lon="11.40884139812054"><ele>274.1666666666667</ele><time>2026-04-11T12:58:15Z</time></trkpt><trkpt lat="43.037032057550704" lon="11.408750652420077"><ele>273.33333333333337</ele><time>2026-04-11T12:58:16Z</time></trkpt><trkpt lat="43.03697392095353" lon="11.408654331498168"><ele>272.5</ele><time>2026-04-11T12:58:17Z</time></trkpt><trkpt lat="43.03691474340381" lon="11.408568764636291"><ele>271.6666666666667</ele><time>2026-04-11T12:58:18Z</time></trkpt><trkpt lat="43.036855703567376" lon="11.408478457259543"><ele>270.8333333333333</ele><time>2026-04-11T12:58:19Z</time></trkpt><trkpt lat="43.03681042359043" lon="11.408387125826353"><ele>270.0</ele><time>2026-04-11T12:58:20Z</time></trkpt><trkpt lat="43.03676372147546" lon="11.408307770831406"><ele>270.0</ele><time>2026-04-11T12:58:21Z</time></trkpt><trkpt lat="43.03668213661313" lon="11.408222780259473"><ele>270.0</ele><time>2026-04-11T12:58:23Z</time></trkpt><trkpt lat="43.03659841706305" lon="11.40818215244756"><ele>270.0</ele><time>2026-04-11T12:58:25Z</time></trkpt><trkpt lat="43.03653884854299" lon="11.408222529065862"><ele>270.0</ele><time>2026-04-11T12:58:26Z</time></trkpt><trkpt lat="43.0364491330348" lon="11.408315518422206"><ele>270.0</ele><time>2026-04-11T12:58:28Z</time></trkpt><trkpt lat="43.036377499030685" lon="11.408404359777288"><ele>270.4</ele><time>2026-04-11T12:58:30Z</time></trkpt><trkpt lat="43.03630864642064" lon="11.408495856779293"><ele>270.8</ele><time>2026-04-11T12:58:32Z</time></trkpt><trkpt lat="43.03624035912517" lon="11.4085904620279"><ele>271.2</ele><time>2026-04-11T12:58:34Z</time></trkpt><trkpt lat="43.036172243737845" lon="11.408692013868988"><ele>271.6</ele><time>2026-04-11T12:58:36Z</time></trkpt><trkpt lat="43.03610328668837" lon="11.408794820322036"><ele>272.0</ele><time>2026-04-11T12:58:38Z</time></trkpt><trkpt lat="43.03604474932641" lon="11.408909676162546"><ele>272.0</ele><time>2026-04-11T12:58:40Z</time></trkpt><trkpt lat="43.03596617342664" lon="11.408999239616326"><ele>272.0</ele><time>2026-04-11T12:58:42Z</time></trkpt><trkpt lat="43.03590115588797" lon="11.409111851347614"><ele>272.0</ele><time>2026-04-11T12:58:44Z</time></trkpt><trkpt lat="43.03583545854351" lon="11.40920772392115"><ele>272.0</ele><time>2026-04-11T12:58:46Z</time></trkpt><trkpt lat="43.035768584557665" lon="11.409293168100085"><ele>272.0</ele><time>2026-04-11T12:58:48Z</time></trkpt><trkpt lat="43.035710489214786" lon="11.40936352288239"><ele>271.6666666666667</ele><time>2026-04-11T12:58:50Z</time></trkpt><trkpt lat="43.035655275947335" lon="11.409448585815463"><ele>271.33333333333337</ele><time>2026-04-11T12:58:52Z</time></trkpt><trkpt lat="43.035584823954636" lon="11.409529966870645"><ele>271.0</ele><time>2026-04-11T12:58:55Z</time></trkpt><trkpt lat="43.035519454327215" lon="11.409595422192302"><ele>270.6666666666667</ele><time>2026-04-11T12:58:58Z</time></trkpt><trkpt lat="43.03546649834145" lon="11.409655863580506"><ele>270.3333333333333</ele><time>2026-04-11T12:59:01Z</time></trkpt><trkpt lat="43.035402646668345" lon="11.409711055688563"><ele>270.0</ele><time>2026-04-11T12:59:04Z</time></trkpt><trkpt lat="43.03533472195495" lon="11.409769759424494"><ele>270.6666666666667</ele><time>2026-04-11T12:59:07Z</time></trkpt><trkpt lat="43.03527997884269" lon="11.409818286924581"><ele>271.3333333333333</ele><time>2026-04-11T12:59:09Z</time></trkpt><trkpt lat="43.035202362490836" lon="11.409889207194533"><ele>272.0</ele><time>2026-04-11T12:59:12Z</time></trkpt><trkpt lat="43.03514284274164" lon="11.4099341358403"><ele>272.66666666666663</ele><time>2026-04-11T12:59:14Z</time></trkpt><trkpt lat="43.03508317864821" lon="11.409969232842503"><ele>273.3333333333333</ele><time>2026-04-11T12:59:16Z</time></trkpt><trkpt lat="43.035026522926316" lon="11.410018918483908"><ele>274.0</ele><time>2026-04-11T12:59:18Z</time></trkpt><trkpt lat="43.034940732834514" lon="11.410078037429617"><ele>274.00000000000006</ele><time>2026-04-11T12:59:21Z</time></trkpt><trkpt lat="43.034880788429284" lon="11.41011233387799"><ele>274.0</ele><time>2026-04-11T12:59:23Z</time></trkpt><trkpt lat="43.03480127695589" lon="11.41016716901954"><ele>274.0</ele><time>2026-04-11T12:59:26Z</time></trkpt><trkpt lat="43.03474167363895" lon="11.410205033944822"><ele>274.0</ele><time>2026-04-11T12:59:28Z</time></trkpt><trkpt lat="43.03468172103609" lon="11.410240638063634"><ele>274.0</ele><time>2026-04-11T12:59:30Z</time></trkpt><trkpt lat="43.03461123175856" lon="11.410255423522878"><ele>274.00000000000006</ele><time>2026-04-11T12:59:32Z</time></trkpt><trkpt lat="43.03453945378939" lon="11.410302746831034"><ele>274.0</ele><time>2026-04-11T12:59:34Z</time></trkpt><trkpt lat="43.034469224947685" lon="11.410342413020313"><ele>274.0</ele><time>2026-04-11T12:59:36Z</time></trkpt><trkpt lat="43.03438391694855" lon="11.410354233458879"><ele>274.0</ele><time>2026-04-11T12:59:38Z</time></trkpt><trkpt lat="43.034298302278884" lon="11.410403926986449"><ele>274.0</ele><time>2026-04-11T12:59:40Z</time></trkpt><trkpt lat="43.034197195453864" lon="11.410427925811558"><ele>274.0</ele><time>2026-04-11T12:59:42Z</time></trkpt><trkpt lat="43.03408984526317" lon="11.410432076318843"><ele>274.0</ele><time>2026-04-11T12:59:44Z</time></trkpt><trkpt lat="43.03396018556946" lon="11.41044035365888"><ele>273.8571428571429</ele><time>2026-04-11T12:59:46Z</time></trkpt><trkpt lat="43.03389193173658" lon="11.410440243535623"><ele>273.7142857142857</ele><time>2026-04-11T12:59:47Z</time></trkpt><trkpt lat="43.033826024129496" lon="11.410440447199539"><ele>273.57142857142856</ele><time>2026-04-11T12:59:48Z</time></trkpt><trkpt lat="43.03376191960156" lon="11.410446319985555"><ele>273.42857142857144</ele><time>2026-04-11T12:59:49Z</time></trkpt><trkpt lat="43.033677284550954" lon="11.410443905025117"><ele>273.2857142857143</ele><time>2026-04-11T12:59:50Z</time></trkpt><trkpt lat="43.033605038444655" lon="11.410466043573368"><ele>273.14285714285717</ele><time>2026-04-11T12:59:51Z</time></trkpt><trkpt lat="43.033525065889165" lon="11.410494926458744"><ele>273.0</ele><time>2026-04-11T12:59:52Z</time></trkpt><trkpt lat="43.03345097734029" lon="11.410527660192052"><ele>273.0</ele><time>2026-04-11T12:59:53Z</time></trkpt><trkpt lat="43.033366703495744" lon="11.410533913760617"><ele>273.0</ele><time>2026-04-11T12:59:54Z</time></trkpt><trkpt lat="43.03326353345759" lon="11.410537215437996"><ele>273.0</ele><time>2026-04-11T12:59:55Z</time></trkpt><trkpt lat="43.03316676101143" lon="11.410561625656108"><ele>273.0</ele><time>2026-04-11T12:59:56Z</time></trkpt><trkpt lat="43.03307146892686" lon="11.410576104729973"><ele>273.0</ele><time>2026-04-11T12:59:57Z</time></trkpt><trkpt lat="43.03297550104877" lon="11.410590962534538"><ele>271.0</ele><time>2026-04-11T12:59:58Z</time></trkpt><trkpt lat="43.03288198243015" lon="11.410612942590344"><ele>269.0</ele><time>2026-04-11T12:59:59Z</time></trkpt><trkpt lat="43.032789263346196" lon="11.410628487787545"><ele>267.0</ele><time>2026-04-11T13:00:00Z</time></trkpt><trkpt lat="43.032692247946976" lon="11.410656756230487"><ele>265.0</ele><time>2026-04-11T13:00:01Z</time></trkpt><trkpt lat="43.03258907479115" lon="11.410695421434523"><ele>263.0</ele><time>2026-04-11T13:00:02Z</time></trkpt><trkpt lat="43.03250267943947" lon="11.410714522484101"><ele>260.8</ele><time>2026-04-11T13:00:03Z</time></trkpt><trkpt lat="43.032404567226656" lon="11.410745607592354"><ele>258.6</ele><time>2026-04-11T13:00:04Z</time></trkpt><trkpt lat="43.032307251713505" lon="11.41078817378583"><ele>256.4</ele><time>2026-04-11T13:00:05Z</time></trkpt><trkpt lat="43.03220728497794" lon="11.410817892292162"><ele>254.2</ele><time>2026-04-11T13:00:06Z</time></trkpt><trkpt lat="43.0321014415883" lon="11.410855650508477"><ele>252.0</ele><time>2026-04-11T13:00:07Z</time></trkpt><trkpt lat="43.032011477150775" lon="11.410903675662576"><ele>252.0</ele><time>2026-04-11T13:00:08Z</time></trkpt><trkpt lat="43.03191768674235" lon="11.410921062880824"><ele>252.0</ele><time>2026-04-11T13:00:09Z</time></trkpt><trkpt lat="43.031836482795434" lon="11.410979908291337"><ele>252.0</ele><time>2026-04-11T13:00:10Z</time></trkpt><trkpt lat="43.03174633932882" lon="11.410996206811731"><ele>252.0</ele><time>2026-04-11T13:00:11Z</time></trkpt><trkpt lat="43.03166589854972" lon="11.411034215825312"><ele>252.0</ele><time>2026-04-11T13:00:12Z</time></trkpt><trkpt lat="43.03157884817217" lon="11.41107415157704"><ele>250.2</ele><time>2026-04-11T13:00:13Z</time></trkpt><trkpt lat="43.031493690433635" lon="11.411113219056494"><ele>248.39999999999998</ele><time>2026-04-11T13:00:14Z</time></trkpt><trkpt lat="43.03140560884304" lon="11.411175082738012"><ele>246.60000000000002</ele><time>2026-04-11T13:00:15Z</time></trkpt><trkpt lat="43.03131564590316" lon="11.411197825456265"><ele>244.8</ele><time>2026-04-11T13:00:16Z</time></trkpt><trkpt lat="43.03121487810209" lon="11.411240288026429"><ele>243.0</ele><time>2026-04-11T13:00:17Z</time></trkpt><trkpt lat="43.03111355066613" lon="11.411278677413232"><ele>243.0</ele><time>2026-04-11T13:00:18Z</time></trkpt><trkpt lat="43.0310251764284" lon="11.411311263675799"><ele>243.0</ele><time>2026-04-11T13:00:19Z</time></trkpt><trkpt lat="43.03093818129761" lon="11.411329555758995"><ele>243.0</ele><time>2026-04-11T13:00:20Z</time></trkpt><trkpt lat="43.03086862618817" lon="11.411365478201892"><ele>243.0</ele><time>2026-04-11T13:00:21Z</time></trkpt><trkpt lat="43.03078089743888" lon="11.411390727927381"><ele>243.0</ele><time>2026-04-11T13:00:22Z</time></trkpt><trkpt lat="43.03070807567079" lon="11.411439459534103"><ele>243.0</ele><time>2026-04-11T13:00:23Z</time></trkpt><trkpt lat="43.030631156000595" lon="11.411496593815874"><ele>242.2</ele><time>2026-04-11T13:00:24Z</time></trkpt><trkpt lat="43.03055576022484" lon="11.411575308516296"><ele>241.4</ele><time>2026-04-11T13:00:25Z</time></trkpt><trkpt lat="43.03048551897077" lon="11.411653026348672"><ele>240.59999999999997</ele><time>2026-04-11T13:00:26Z</time></trkpt><trkpt lat="43.03041455995043" lon="11.41173568194784"><ele>239.79999999999998</ele><time>2026-04-11T13:00:27Z</time></trkpt><trkpt lat="43.03033200803088" lon="11.411799103863226"><ele>239.0</ele><time>2026-04-11T13:00:28Z</time></trkpt><trkpt lat="43.03027055354271" lon="11.411900782133387"><ele>239.0</ele><time>2026-04-11T13:00:29Z</time></trkpt><trkpt lat="43.030193930454814" lon="11.411992210542767"><ele>238.99999999999997</ele><time>2026-04-11T13:00:30Z</time></trkpt><trkpt lat="43.030112227113186" lon="11.412077350849602"><ele>238.99999999999997</ele><time>2026-04-11T13:00:31Z</time></trkpt><trkpt lat="43.03004121475502" lon="11.412181760484245"><ele>239.0</ele><time>2026-04-11T13:00:32Z</time></trkpt><trkpt lat="43.029961824667325" lon="11.412312523507655"><ele>239.0</ele><time>2026-04-11T13:00:33Z</time></trkpt><trkpt lat="43.02989495720644" lon="11.41244849352446"><ele>239.2</ele><time>2026-04-11T13:00:34Z</time></trkpt><trkpt lat="43.029842076959" lon="11.412569827211867"><ele>239.39999999999998</ele><time>2026-04-11T13:00:35Z</time></trkpt><trkpt lat="43.0298018196042" lon="11.412693046839713"><ele>239.6</ele><time>2026-04-11T13:00:36Z</time></trkpt><trkpt lat="43.029748979650364" lon="11.412774628694713"><ele>239.8</ele><time>2026-04-11T13:00:37Z</time></trkpt><trkpt lat="43.02970427229439" lon="11.41286631813076"><ele>240.0</ele><time>2026-04-11T13:00:38Z</time></trkpt><trkpt lat="43.0296347270467" lon="11.412990304217562"><ele>240.0</ele><time>2026-04-11T13:00:40Z</time></trkpt><trkpt lat="43.02957784150916" lon="11.41309188237892"><ele>240.0</ele><time>2026-04-11T13:00:42Z</time></trkpt><trkpt lat="43.02953311239168" lon="11.413185837300338"><ele>240.0</ele><time>2026-04-11T13:00:44Z</time></trkpt><trkpt lat="43.02948428236588" lon="11.4132501886735"><ele>240.0</ele><time>2026-04-11T13:00:46Z</time></trkpt><trkpt lat="43.029445878896034" lon="11.41333718883635"><ele>240.0</ele><time>2026-04-11T13:00:48Z</time></trkpt><trkpt lat="43.029399029048236" lon="11.41340843091315"><ele>240.0</ele><time>2026-04-11T13:00:50Z</time></trkpt><trkpt lat="43.029358657760746" lon="11.41347597752572"><ele>240.0</ele><time>2026-04-11T13:00:52Z</time></trkpt><trkpt lat="43.02929981045583" lon="11.413574411477432"><ele>240.0</ele><time>2026-04-11T13:00:55Z</time></trkpt><trkpt lat="43.02924103589136" lon="11.41367296605007"><ele>240.0</ele><time>2026-04-11T13:00:58Z</time></trkpt><trkpt lat="43.02919664122339" lon="11.413735934228471"><ele>240.0</ele><time>2026-04-11T13:01:00Z</time></trkpt><trkpt lat="43.029149640596444" lon="11.413811675102696"><ele>240.0</ele><time>2026-04-11T13:01:02Z</time></trkpt><trkpt lat="43.02910393885991" lon="11.41388804096842"><ele>240.0</ele><time>2026-04-11T13:01:04Z</time></trkpt><trkpt lat="43.029048566031655" lon="11.413955668278033"><ele>239.4</ele><time>2026-04-11T13:01:06Z</time></trkpt><trkpt lat="43.028991618827774" lon="11.414046514271938"><ele>238.8</ele><time>2026-04-11T13:01:08Z</time></trkpt><trkpt lat="43.02893113670704" lon="11.414142999428114"><ele>238.2</ele><time>2026-04-11T13:01:10Z</time></trkpt><trkpt lat="43.02888033199351" lon="11.414248006371366"><ele>237.6</ele><time>2026-04-11T13:01:12Z</time></trkpt><trkpt lat="43.02880414754771" lon="11.414345581104314"><ele>237.0</ele><time>2026-04-11T13:01:14Z</time></trkpt><trkpt lat="43.028753864519594" lon="11.414443646117814"><ele>237.0</ele><time>2026-04-11T13:01:16Z</time></trkpt><trkpt lat="43.02868126256989" lon="11.414568136264874"><ele>237.0</ele><time>2026-04-11T13:01:18Z</time></trkpt><trkpt lat="43.02861463925494" lon="11.41466874647202"><ele>237.0</ele><time>2026-04-11T13:01:20Z</time></trkpt><trkpt lat="43.02854732743063" lon="11.414755140678492"><ele>237.0</ele><time>2026-04-11T13:01:22Z</time></trkpt><trkpt lat="43.02848991071173" lon="11.414862714676476"><ele>237.0</ele><time>2026-04-11T13:01:24Z</time></trkpt><trkpt lat="43.02844415875466" lon="11.414947331994007"><ele>237.28571428571425</ele><time>2026-04-11T13:01:26Z</time></trkpt><trkpt lat="43.02840344069795" lon="11.415018123182872"><ele>237.57142857142856</ele><time>2026-04-11T13:01:28Z</time></trkpt><trkpt lat="43.028347943375195" lon="11.415104623210462"><ele>237.85714285714286</ele><time>2026-04-11T13:01:31Z</time></trkpt><trkpt lat="43.028295041656826" lon="11.415175498352479"><ele>238.14285714285714</ele><time>2026-04-11T13:01:34Z</time></trkpt><trkpt lat="43.028258279712844" lon="11.415245810121252"><ele>238.42857142857144</ele><time>2026-04-11T13:01:37Z</time></trkpt><trkpt lat="43.028220150292846" lon="11.4153155560509"><ele>238.71428571428575</ele><time>2026-04-11T13:01:40Z</time></trkpt><trkpt lat="43.02817512629934" lon="11.415378393178136"><ele>239.00000000000003</ele><time>2026-04-11T13:01:43Z</time></trkpt><trkpt lat="43.02813433590737" lon="11.415455635993046"><ele>240.00000000000003</ele><time>2026-04-11T13:01:46Z</time></trkpt><trkpt lat="43.028078765636586" lon="11.415541303891436"><ele>241.0</ele><time>2026-04-11T13:01:49Z</time></trkpt><trkpt lat="43.02802488664441" lon="11.415632531718995"><ele>242.0</ele><time>2026-04-11T13:01:52Z</time></trkpt><trkpt lat="43.02796900261891" lon="11.415727711363102"><ele>243.0</ele><time>2026-04-11T13:01:55Z</time></trkpt><trkpt lat="43.02792521490681" lon="11.415795637071074"><ele>244.00000000000003</ele><time>2026-04-11T13:01:57Z</time></trkpt><trkpt lat="43.02786536357233" lon="11.415894338264037"><ele>245.0</ele><time>2026-04-11T13:02:00Z</time></trkpt><trkpt lat="43.02780739667839" lon="11.415996462058319"><ele>245.0</ele><time>2026-04-11T13:02:03Z</time></trkpt><trkpt lat="43.027730691078496" lon="11.416092292222816"><ele>245.0</ele><time>2026-04-11T13:02:06Z</time></trkpt><trkpt lat="43.027684085311" lon="11.416175401502727"><ele>245.0</ele><time>2026-04-11T13:02:08Z</time></trkpt><trkpt lat="43.02763197246966" lon="11.416269617211023"><ele>245.0</ele><time>2026-04-11T13:02:10Z</time></trkpt><trkpt lat="43.02757337392406" lon="11.416376087548146"><ele>245.0</ele><time>2026-04-11T13:02:12Z</time></trkpt><trkpt lat="43.02752483621226" lon="11.416501126085453"><ele>243.5</ele><time>2026-04-11T13:02:14Z</time></trkpt><trkpt lat="43.027452715720834" lon="11.41662325919789"><ele>242.0</ele><time>2026-04-11T13:02:16Z</time></trkpt><trkpt lat="43.02737981961056" lon="11.416754619343152"><ele>240.5</ele><time>2026-04-11T13:02:18Z</time></trkpt><trkpt lat="43.02731192756207" lon="11.416875273398874"><ele>239.0</ele><time>2026-04-11T13:02:20Z</time></trkpt><trkpt lat="43.02724342106114" lon="11.416999357946723"><ele>239.0</ele><time>2026-04-11T13:02:22Z</time></trkpt><trkpt lat="43.02718137711877" lon="11.417097713407093"><ele>238.99999999999997</ele><time>2026-04-11T13:02:24Z</time></trkpt><trkpt lat="43.02714147183483" lon="11.417167580292883"><ele>238.99999999999997</ele><time>2026-04-11T13:02:25Z</time></trkpt><trkpt lat="43.02707494437309" lon="11.417275456811153"><ele>239.0</ele><time>2026-04-11T13:02:27Z</time></trkpt><trkpt lat="43.02700927163331" lon="11.417385845100812"><ele>239.0</ele><time>2026-04-11T13:02:29Z</time></trkpt><trkpt lat="43.02693074794117" lon="11.417501665060472"><ele>239.79999999999998</ele><time>2026-04-11T13:02:31Z</time></trkpt><trkpt lat="43.02685356261717" lon="11.417600733297245"><ele>240.59999999999997</ele><time>2026-04-11T13:02:33Z</time></trkpt><trkpt lat="43.026776973678075" lon="11.417708867768868"><ele>241.4</ele><time>2026-04-11T13:02:35Z</time></trkpt><trkpt lat="43.02670992950021" lon="11.417803424839224"><ele>242.2</ele><time>2026-04-11T13:02:37Z</time></trkpt><trkpt lat="43.0266475126457" lon="11.41787879595421"><ele>243.0</ele><time>2026-04-11T13:02:39Z</time></trkpt><trkpt lat="43.02658383417668" lon="11.41797073329158"><ele>243.5</ele><time>2026-04-11T13:02:41Z</time></trkpt><trkpt lat="43.026514007685094" lon="11.418055543998817"><ele>244.0</ele><time>2026-04-11T13:02:43Z</time></trkpt><trkpt lat="43.02643930964827" lon="11.41813457729418"><ele>244.5</ele><time>2026-04-11T13:02:45Z</time></trkpt><trkpt lat="43.026389088788065" lon="11.418210042119608"><ele>245.0</ele><time>2026-04-11T13:02:47Z</time></trkpt><trkpt lat="43.026328518275065" lon="11.418282628749992"><ele>245.5</ele><time>2026-04-11T13:02:49Z</time></trkpt><trkpt lat="43.02627061635643" lon="11.418359832617924"><ele>246.0</ele><time>2026-04-11T13:02:51Z</time></trkpt><trkpt lat="43.02620468414144" lon="11.418440590110771"><ele>246.0</ele><time>2026-04-11T13:02:53Z</time></trkpt><trkpt lat="43.02613653645512" lon="11.418531533954411"><ele>246.00000000000003</ele><time>2026-04-11T13:02:55Z</time></trkpt><trkpt lat="43.026059407142796" lon="11.418631483442486"><ele>246.00000000000003</ele><time>2026-04-11T13:02:57Z</time></trkpt><trkpt lat="43.02596880402318" lon="11.418740155720487"><ele>246.0</ele><time>2026-04-11T13:02:59Z</time></trkpt><trkpt lat="43.02591872106259" lon="11.418803620724189"><ele>246.0</ele><time>2026-04-11T13:03:00Z</time></trkpt><trkpt lat="43.025865215645645" lon="11.418873032822829"><ele>246.16666666666666</ele><time>2026-04-11T13:03:01Z</time></trkpt><trkpt lat="43.02581757974775" lon="11.418945282290577"><ele>246.33333333333331</ele><time>2026-04-11T13:03:02Z</time></trkpt><trkpt lat="43.02575970109325" lon="11.419016753715384"><ele>246.5</ele><time>2026-04-11T13:03:03Z</time></trkpt><trkpt lat="43.02569856102776" lon="11.419092691707482"><ele>246.66666666666666</ele><time>2026-04-11T13:03:04Z</time></trkpt><trkpt lat="43.02563854268716" lon="11.419166640046377"><ele>246.83333333333331</ele><time>2026-04-11T13:03:05Z</time></trkpt><trkpt lat="43.02557734697421" lon="11.419242909696298"><ele>247.0</ele><time>2026-04-11T13:03:06Z</time></trkpt><trkpt lat="43.02551231077939" lon="11.419331111451818"><ele>246.16666666666666</ele><time>2026-04-11T13:03:07Z</time></trkpt><trkpt lat="43.025453894030704" lon="11.419407224479736"><ele>245.33333333333331</ele><time>2026-04-11T13:03:08Z</time></trkpt><trkpt lat="43.02538924739442" lon="11.419482508142194"><ele>244.5</ele><time>2026-04-11T13:03:09Z</time></trkpt><trkpt lat="43.02532430192623" lon="11.419563893004105"><ele>243.66666666666669</ele><time>2026-04-11T13:03:10Z</time></trkpt><trkpt lat="43.02526247023799" lon="11.41963708911998"><ele>242.83333333333334</ele><time>2026-04-11T13:03:11Z</time></trkpt><trkpt lat="43.025195101683686" lon="11.419711121430943"><ele>242.0</ele><time>2026-04-11T13:03:12Z</time></trkpt><trkpt lat="43.025123555287" lon="11.419791042903244"><ele>242.00000000000003</ele><time>2026-04-11T13:03:13Z</time></trkpt><trkpt lat="43.02506130642551" lon="11.419869794898917"><ele>242.0</ele><time>2026-04-11T13:03:14Z</time></trkpt><trkpt lat="43.02498411427219" lon="11.419918274654064"><ele>242.0</ele><time>2026-04-11T13:03:15Z</time></trkpt><trkpt lat="43.02491178069276" lon="11.419969036823566"><ele>242.0</ele><time>2026-04-11T13:03:16Z</time></trkpt><trkpt lat="43.02483755399671" lon="11.420004705463976"><ele>242.00000000000003</ele><time>2026-04-11T13:03:17Z</time></trkpt><trkpt lat="43.024753912728606" lon="11.420056725971026"><ele>242.0</ele><time>2026-04-11T13:03:18Z</time></trkpt><trkpt lat="43.02466522777177" lon="11.420068114128815"><ele>240.16666666666669</ele><time>2026-04-11T13:03:19Z</time></trkpt><trkpt lat="43.02458340039382" lon="11.420075424508516"><ele>238.33333333333334</ele><time>2026-04-11T13:03:20Z</time></trkpt><trkpt lat="43.02449178905265" lon="11.420078968706232"><ele>236.5</ele><time>2026-04-11T13:03:21Z</time></trkpt><trkpt lat="43.02439844583712" lon="11.420083755998835"><ele>234.66666666666669</ele><time>2026-04-11T13:03:22Z</time></trkpt><trkpt lat="43.02430720760819" lon="11.420083823631934"><ele>232.83333333333334</ele><time>2026-04-11T13:03:23Z</time></trkpt><trkpt lat="43.02421936735563" lon="11.420086294835652"><ele>231.0</ele><time>2026-04-11T13:03:24Z</time></trkpt><trkpt lat="43.024130053491675" lon="11.420098214848178"><ele>230.0</ele><time>2026-04-11T13:03:25Z</time></trkpt><trkpt lat="43.02404309649267" lon="11.420098880509352"><ele>229.00000000000003</ele><time>2026-04-11T13:03:26Z</time></trkpt><trkpt lat="43.023940492063524" lon="11.420094541869254"><ele>228.00000000000003</ele><time>2026-04-11T13:03:27Z</time></trkpt><trkpt lat="43.02385005862616" lon="11.420096251670747"><ele>227.0</ele><time>2026-04-11T13:03:28Z</time></trkpt><trkpt lat="43.0237563888008" lon="11.420100142325197"><ele>226.0</ele><time>2026-04-11T13:03:29Z</time></trkpt><trkpt lat="43.0236562143517" lon="11.420092960986079"><ele>226.0</ele><time>2026-04-11T13:03:30Z</time></trkpt><trkpt lat="43.02355434434357" lon="11.420083493242814"><ele>226.00000000000003</ele><time>2026-04-11T13:03:31Z</time></trkpt><trkpt lat="43.02345931953429" lon="11.42004343642752"><ele>226.00000000000003</ele><time>2026-04-11T13:03:32Z</time></trkpt><trkpt lat="43.0233662574664" lon="11.4200059839233"><ele>226.0</ele><time>2026-04-11T13:03:33Z</time></trkpt><trkpt lat="43.02328151481437" lon="11.419957054430881"><ele>226.0</ele><time>2026-04-11T13:03:34Z</time></trkpt><trkpt lat="43.02319358896074" lon="11.419910286895048"><ele>226.16666666666666</ele><time>2026-04-11T13:03:35Z</time></trkpt><trkpt lat="43.02311477892203" lon="11.419852002612634"><ele>226.33333333333331</ele><time>2026-04-11T13:03:36Z</time></trkpt><trkpt lat="43.023027080825" lon="11.41977318267301"><ele>226.5</ele><time>2026-04-11T13:03:37Z</time></trkpt><trkpt lat="43.02294807511353" lon="11.419719775965591"><ele>226.66666666666669</ele><time>2026-04-11T13:03:38Z</time></trkpt><trkpt lat="43.02288035554262" lon="11.419664978318242"><ele>226.83333333333334</ele><time>2026-04-11T13:03:39Z</time></trkpt><trkpt lat="43.0228026013797" lon="11.419609735378202"><ele>227.0</ele><time>2026-04-11T13:03:40Z</time></trkpt><trkpt lat="43.0227341149512" lon="11.419553505516948"><ele>226.50000000000003</ele><time>2026-04-11T13:03:41Z</time></trkpt><trkpt lat="43.02266485353741" lon="11.41949466161061"><ele>226.0</ele><time>2026-04-11T13:03:42Z</time></trkpt><trkpt lat="43.02259512766681" lon="11.419442671939109"><ele>225.5</ele><time>2026-04-11T13:03:43Z</time></trkpt><trkpt lat="43.02252804241293" lon="11.419391225849326"><ele>225.0</ele><time>2026-04-11T13:03:44Z</time></trkpt><trkpt lat="43.02246511078455" lon="11.419340536068274"><ele>224.50000000000003</ele><time>2026-04-11T13:03:45Z</time></trkpt><trkpt lat="43.02240475023197" lon="11.419292857983933"><ele>224.0</ele><time>2026-04-11T13:03:46Z</time></trkpt><trkpt lat="43.022342552949645" lon="11.41924318706461"><ele>224.00000000000003</ele><time>2026-04-11T13:03:47Z</time></trkpt><trkpt lat="43.02228585373427" lon="11.419194658283521"><ele>224.0</ele><time>2026-04-11T13:03:48Z</time></trkpt><trkpt lat="43.02222689330206" lon="11.419151055948582"><ele>224.0</ele><time>2026-04-11T13:03:49Z</time></trkpt><trkpt lat="43.02216655357206" lon="11.419106550349728"><ele>224.0</ele><time>2026-04-11T13:03:50Z</time></trkpt><trkpt lat="43.02211349384455" lon="11.419060018984599"><ele>224.00000000000003</ele><time>2026-04-11T13:03:51Z</time></trkpt><trkpt lat="43.022013290311456" lon="11.418980396034216"><ele>224.0</ele><time>2026-04-11T13:03:53Z</time></trkpt><trkpt lat="43.021914150656265" lon="11.418919888589196"><ele>224.0</ele><time>2026-04-11T13:03:55Z</time></trkpt><trkpt lat="43.02182544591464" lon="11.418862145177842"><ele>223.99999999999997</ele><time>2026-04-11T13:03:57Z</time></trkpt><trkpt lat="43.021733937091504" lon="11.418807836088368"><ele>223.99999999999997</ele><time>2026-04-11T13:03:59Z</time></trkpt><trkpt lat="43.021638750123" lon="11.418761778946953"><ele>224.0</ele><time>2026-04-11T13:04:01Z</time></trkpt><trkpt lat="43.02154224998348" lon="11.418725316873033"><ele>224.0</ele><time>2026-04-11T13:04:03Z</time></trkpt><trkpt lat="43.02145128671874" lon="11.41869116383496"><ele>224.6</ele><time>2026-04-11T13:04:05Z</time></trkpt><trkpt lat="43.0213587603483" lon="11.418660730367803"><ele>225.2</ele><time>2026-04-11T13:04:07Z</time></trkpt><trkpt lat="43.021280815422514" lon="11.418644181084575"><ele>225.79999999999998</ele><time>2026-04-11T13:04:09Z</time></trkpt><trkpt lat="43.021185364312444" lon="11.418624304745116"><ele>226.39999999999998</ele><time>2026-04-11T13:04:12Z</time></trkpt><trkpt lat="43.02110667393545" lon="11.418621488809361"><ele>227.0</ele><time>2026-04-11T13:04:14Z</time></trkpt><trkpt lat="43.02112390858477" lon="11.418834179270396"><ele>227.00000000000003</ele><time>2026-04-11T13:04:16Z</time></trkpt><trkpt lat="43.02116890398924" lon="11.418913987847288"><ele>227.0</ele><time>2026-04-11T13:04:19Z</time></trkpt><trkpt lat="43.02121723085675" lon="11.418969971189835"><ele>227.0</ele><time>2026-04-11T13:04:21Z</time></trkpt><trkpt lat="43.02125333443006" lon="11.419060563914572"><ele>227.0</ele><time>2026-04-11T13:04:24Z</time></trkpt><trkpt lat="43.02130323239369" lon="11.419147184166988"><ele>227.00000000000003</ele><time>2026-04-11T13:04:27Z</time></trkpt><trkpt lat="43.02135740609081" lon="11.419241226872124"><ele>227.0</ele><time>2026-04-11T13:04:30Z</time></trkpt><trkpt lat="43.02140614147828" lon="11.419325828940673"><ele>227.00000000000003</ele><time>2026-04-11T13:04:33Z</time></trkpt><trkpt lat="43.021459208790944" lon="11.419375820734006"><ele>227.0</ele><time>2026-04-11T13:04:35Z</time></trkpt><trkpt lat="43.02151001001196" lon="11.41946553688735"><ele>227.0</ele><time>2026-04-11T13:04:38Z</time></trkpt><trkpt lat="43.0215600046601" lon="11.41955591094513"><ele>227.0</ele><time>2026-04-11T13:04:41Z</time></trkpt><trkpt lat="43.0216119638667" lon="11.419637401699159"><ele>227.00000000000003</ele><time>2026-04-11T13:04:44Z</time></trkpt><trkpt lat="43.021663385195254" lon="11.419730732270041"><ele>227.0</ele><time>2026-04-11T13:04:47Z</time></trkpt><trkpt lat="43.021717090849094" lon="11.419826688921592"><ele>227.83333333333334</ele><time>2026-04-11T13:04:50Z</time></trkpt><trkpt lat="43.02177522543185" lon="11.419916181676987"><ele>228.66666666666669</ele><time>2026-04-11T13:04:53Z</time></trkpt><trkpt lat="43.02182963233322" lon="11.420015208238127"><ele>229.5</ele><time>2026-04-11T13:04:56Z</time></trkpt><trkpt lat="43.021866957453945" lon="11.420088944625315"><ele>230.33333333333331</ele><time>2026-04-11T13:04:58Z</time></trkpt><trkpt lat="43.02191324229804" lon="11.42016565601571"><ele>231.16666666666666</ele><time>2026-04-11T13:05:00Z</time></trkpt><trkpt lat="43.02196021746038" lon="11.420246678503178"><ele>232.0</ele><time>2026-04-11T13:05:02Z</time></trkpt><trkpt lat="43.02200712466831" lon="11.420331996929741"><ele>232.0</ele><time>2026-04-11T13:05:04Z</time></trkpt><trkpt lat="43.02206107706062" lon="11.420425399675626"><ele>232.0</ele><time>2026-04-11T13:05:06Z</time></trkpt><trkpt lat="43.02212429337137" lon="11.420531592356715"><ele>232.0</ele><time>2026-04-11T13:05:08Z</time></trkpt><trkpt lat="43.022196605155266" lon="11.420653278198456"><ele>232.0</ele><time>2026-04-11T13:05:10Z</time></trkpt><trkpt lat="43.02226802429413" lon="11.420803605979376"><ele>232.0</ele><time>2026-04-11T13:05:12Z</time></trkpt><trkpt lat="43.022300043134734" lon="11.42089384298413"><ele>231.99999999999997</ele><time>2026-04-11T13:05:13Z</time></trkpt><trkpt lat="43.02229837200733" lon="11.42100781801485"><ele>232.0</ele><time>2026-04-11T13:05:14Z</time></trkpt><trkpt lat="43.022310616854554" lon="11.421111412027127"><ele>232.0</ele><time>2026-04-11T13:05:15Z</time></trkpt><trkpt lat="43.022307494601506" lon="11.421218136190218"><ele>232.0</ele><time>2026-04-11T13:05:16Z</time></trkpt><trkpt lat="43.02229359963414" lon="11.42133514169405"><ele>231.99999999999997</ele><time>2026-04-11T13:05:17Z</time></trkpt><trkpt lat="43.022265404998464" lon="11.421452954859358"><ele>232.0</ele><time>2026-04-11T13:05:18Z</time></trkpt><trkpt lat="43.02222132893029" lon="11.421570507289372"><ele>230.0</ele><time>2026-04-11T13:05:19Z</time></trkpt><trkpt lat="43.02216895234018" lon="11.421689769836343"><ele>228.0</ele><time>2026-04-11T13:05:20Z</time></trkpt><trkpt lat="43.02211192345635" lon="11.421818690644095"><ele>226.0</ele><time>2026-04-11T13:05:21Z</time></trkpt><trkpt lat="43.02205372318405" lon="11.421949525590811"><ele>224.0</ele><time>2026-04-11T13:05:22Z</time></trkpt><trkpt lat="43.02199192555888" lon="11.422084006777991"><ele>222.0</ele><time>2026-04-11T13:05:23Z</time></trkpt><trkpt lat="43.02193159070169" lon="11.422222923241033"><ele>220.5</ele><time>2026-04-11T13:05:24Z</time></trkpt><trkpt lat="43.02187459489377" lon="11.422358496278369"><ele>219.0</ele><time>2026-04-11T13:05:25Z</time></trkpt><trkpt lat="43.02181584491613" lon="11.422498241859847"><ele>217.5</ele><time>2026-04-11T13:05:26Z</time></trkpt><trkpt lat="43.02175531076866" lon="11.42264223135856"><ele>216.0</ele><time>2026-04-11T13:05:27Z</time></trkpt><trkpt lat="43.02169653677214" lon="11.422785268210124"><ele>215.4</ele><time>2026-04-11T13:05:28Z</time></trkpt><trkpt lat="43.02164102508511" lon="11.422919273717133"><ele>214.8</ele><time>2026-04-11T13:05:29Z</time></trkpt><trkpt lat="43.02158646745419" lon="11.423050976093343"><ele>214.20000000000002</ele><time>2026-04-11T13:05:30Z</time></trkpt><trkpt lat="43.02153451467048" lon="11.423175702608066"><ele>213.60000000000002</ele><time>2026-04-11T13:05:31Z</time></trkpt><trkpt lat="43.021484177704735" lon="11.423294289242873"><ele>213.0</ele><time>2026-04-11T13:05:32Z</time></trkpt><trkpt lat="43.021448742983466" lon="11.423417605173006"><ele>213.0</ele><time>2026-04-11T13:05:33Z</time></trkpt><trkpt lat="43.02139553648433" lon="11.423522844460752"><ele>213.0</ele><time>2026-04-11T13:05:34Z</time></trkpt><trkpt lat="43.021331255268365" lon="11.423606133587867"><ele>213.0</ele><time>2026-04-11T13:05:35Z</time></trkpt><trkpt lat="43.02127858956795" lon="11.423696363839966"><ele>213.0</ele><time>2026-04-11T13:05:36Z</time></trkpt><trkpt lat="43.021234703835916" lon="11.42379469434518"><ele>213.0</ele><time>2026-04-11T13:05:37Z</time></trkpt><trkpt lat="43.02117585133219" lon="11.423865939185903"><ele>213.0</ele><time>2026-04-11T13:05:38Z</time></trkpt><trkpt lat="43.02112308445152" lon="11.423937489897046"><ele>213.83333333333334</ele><time>2026-04-11T13:05:39Z</time></trkpt><trkpt lat="43.02107459441094" lon="11.424001247233157"><ele>214.66666666666669</ele><time>2026-04-11T13:05:40Z</time></trkpt><trkpt lat="43.02102748610299" lon="11.424058443214998"><ele>215.5</ele><time>2026-04-11T13:05:41Z</time></trkpt><trkpt lat="43.02094008871714" lon="11.424147817399882"><ele>216.33333333333334</ele><time>2026-04-11T13:05:43Z</time></trkpt><trkpt lat="43.02087306116892" lon="11.424229289181627"><ele>217.16666666666669</ele><time>2026-04-11T13:05:45Z</time></trkpt><trkpt lat="43.02081482572277" lon="11.424289836303075"><ele>218.0</ele><time>2026-04-11T13:05:47Z</time></trkpt><trkpt lat="43.0207669055099" lon="11.42434635289382"><ele>218.14285714285714</ele><time>2026-04-11T13:05:49Z</time></trkpt><trkpt lat="43.02070195559166" lon="11.424419755971286"><ele>218.28571428571428</ele><time>2026-04-11T13:05:52Z</time></trkpt><trkpt lat="43.02063414807521" lon="11.424471595905874"><ele>218.42857142857144</ele><time>2026-04-11T13:05:55Z</time></trkpt><trkpt lat="43.020586236332605" lon="11.424550442923868"><ele>218.57142857142856</ele><time>2026-04-11T13:05:58Z</time></trkpt><trkpt lat="43.020522694287585" lon="11.424602141896912"><ele>218.7142857142857</ele><time>2026-04-11T13:06:01Z</time></trkpt><trkpt lat="43.02047205622822" lon="11.424667351341407"><ele>218.85714285714286</ele><time>2026-04-11T13:06:04Z</time></trkpt><trkpt lat="43.020432981672954" lon="11.424744482592498"><ele>219.0</ele><time>2026-04-11T13:06:07Z</time></trkpt><trkpt lat="43.02037620943223" lon="11.424793311821064"><ele>220.14285714285717</ele><time>2026-04-11T13:06:10Z</time></trkpt><trkpt lat="43.020330723420614" lon="11.424855939688078"><ele>221.28571428571428</ele><time>2026-04-11T13:06:13Z</time></trkpt><trkpt lat="43.0202849152747" lon="11.424926929426112"><ele>222.42857142857144</ele><time>2026-04-11T13:06:16Z</time></trkpt><trkpt lat="43.020243649402815" lon="11.424997316006023"><ele>223.57142857142858</ele><time>2026-04-11T13:06:19Z</time></trkpt><trkpt lat="43.020205814583235" lon="11.42506867923837"><ele>224.71428571428572</ele><time>2026-04-11T13:06:22Z</time></trkpt><trkpt lat="43.02016075887966" lon="11.425155994642816"><ele>225.85714285714286</ele><time>2026-04-11T13:06:26Z</time></trkpt><trkpt lat="43.020112468956775" lon="11.425249577815583"><ele>227.0</ele><time>2026-04-11T13:06:30Z</time></trkpt><trkpt lat="43.020071608535744" lon="11.425339882958433"><ele>227.00000000000003</ele><time>2026-04-11T13:06:34Z</time></trkpt><trkpt lat="43.02002770430956" lon="11.425436164933242"><ele>227.0</ele><time>2026-04-11T13:06:38Z</time></trkpt><trkpt lat="43.01998574770519" lon="11.42552817576909"><ele>227.0</ele><time>2026-04-11T13:06:42Z</time></trkpt><trkpt lat="43.01994311178669" lon="11.42562167634847"><ele>227.0</ele><time>2026-04-11T13:06:46Z</time></trkpt><trkpt lat="43.01990358871665" lon="11.425708302400793"><ele>227.00000000000003</ele><time>2026-04-11T13:06:50Z</time></trkpt><trkpt lat="43.019875105700336" lon="11.42581243943885"><ele>227.0</ele><time>2026-04-11T13:06:54Z</time></trkpt><trkpt lat="43.01982010050971" lon="11.425890878064832"><ele>228.85714285714286</ele><time>2026-04-11T13:06:58Z</time></trkpt><trkpt lat="43.01978283338037" lon="11.425972339471432"><ele>230.71428571428572</ele><time>2026-04-11T13:07:02Z</time></trkpt><trkpt lat="43.01974556892538" lon="11.426053795025696"><ele>232.57142857142858</ele><time>2026-04-11T13:07:06Z</time></trkpt><trkpt lat="43.019710069540906" lon="11.42613139236525"><ele>234.42857142857144</ele><time>2026-04-11T13:07:10Z</time></trkpt><trkpt lat="43.01968271859596" lon="11.42621928277082"><ele>236.28571428571428</ele><time>2026-04-11T13:07:14Z</time></trkpt><trkpt lat="43.019658454660814" lon="11.426302174550745"><ele>238.14285714285717</ele><time>2026-04-11T13:07:18Z</time></trkpt><trkpt lat="43.0196217501336" lon="11.426376359861477"><ele>240.0</ele><time>2026-04-11T13:07:22Z</time></trkpt><trkpt lat="43.019588158166066" lon="11.42645143033286"><ele>240.57142857142858</ele><time>2026-04-11T13:07:26Z</time></trkpt><trkpt lat="43.01954684545661" lon="11.42654665331653"><ele>241.1428571428571</ele><time>2026-04-11T13:07:31Z</time></trkpt><trkpt lat="43.01950834198183" lon="11.426617755139846"><ele>241.7142857142857</ele><time>2026-04-11T13:07:35Z</time></trkpt><trkpt lat="43.01947887789369" lon="11.426716798168634"><ele>242.28571428571428</ele><time>2026-04-11T13:07:40Z</time></trkpt><trkpt lat="43.01945002490905" lon="11.426805534225961"><ele>242.85714285714283</ele><time>2026-04-11T13:07:45Z</time></trkpt><trkpt lat="43.019411774142434" lon="11.42687799937665"><ele>243.4285714285714</ele><time>2026-04-11T13:07:49Z</time></trkpt><trkpt lat="43.0193756273874" lon="11.426949975692244"><ele>243.99999999999997</ele><time>2026-04-11T13:07:53Z</time></trkpt><trkpt lat="43.01934433662491" lon="11.427039143876074"><ele>243.99999999999997</ele><time>2026-04-11T13:07:58Z</time></trkpt><trkpt lat="43.019308911311704" lon="11.427110823480938"><ele>244.0</ele><time>2026-04-11T13:08:02Z</time></trkpt><trkpt lat="43.01926016256471" lon="11.427196304065461"><ele>243.99999999999997</ele><time>2026-04-11T13:08:07Z</time></trkpt><trkpt lat="43.01922028165923" lon="11.427289831635377"><ele>243.99999999999997</ele><time>2026-04-11T13:08:12Z</time></trkpt><trkpt lat="43.01919241016348" lon="11.427367352780196"><ele>244.0</ele><time>2026-04-11T13:08:16Z</time></trkpt><trkpt lat="43.01915761651906" lon="11.427443503128792"><ele>243.99999999999997</ele><time>2026-04-11T13:08:20Z</time></trkpt><trkpt lat="43.01912653990228" lon="11.427520938502125"><ele>243.99999999999997</ele><time>2026-04-11T13:08:24Z</time></trkpt><trkpt lat="43.019092995613036" lon="11.427600418548204"><ele>245.1428571428571</ele><time>2026-04-11T13:08:28Z</time></trkpt><trkpt lat="43.01905412600704" lon="11.427682348147068"><ele>246.28571428571428</ele><time>2026-04-11T13:08:32Z</time></trkpt><trkpt lat="43.019026641925045" lon="11.427761259690229"><ele>247.42857142857142</ele><time>2026-04-11T13:08:36Z</time></trkpt><trkpt lat="43.019001898661806" lon="11.42784521923036"><ele>248.57142857142856</ele><time>2026-04-11T13:08:40Z</time></trkpt><trkpt lat="43.01896473247224" lon="11.42792644424195"><ele>249.71428571428572</ele><time>2026-04-11T13:08:44Z</time></trkpt><trkpt lat="43.018936743030615" lon="11.428016213360898"><ele>250.85714285714286</ele><time>2026-04-11T13:08:48Z</time></trkpt><trkpt lat="43.01891012816355" lon="11.428121486652218"><ele>252.0</ele><time>2026-04-11T13:08:52Z</time></trkpt><trkpt lat="43.01888159617351" lon="11.428201207369751"><ele>252.0</ele><time>2026-04-11T13:08:55Z</time></trkpt><trkpt lat="43.01885906790007" lon="11.428287966969306"><ele>252.0</ele><time>2026-04-11T13:08:58Z</time></trkpt><trkpt lat="43.01883002817127" lon="11.428370903013207"><ele>252.0</ele><time>2026-04-11T13:09:01Z</time></trkpt><trkpt lat="43.01880054684651" lon="11.428467366490064"><ele>252.0</ele><time>2026-04-11T13:09:04Z</time></trkpt><trkpt lat="43.01877264696626" lon="11.428564372670607"><ele>252.0</ele><time>2026-04-11T13:09:07Z</time></trkpt><trkpt lat="43.018756213756774" lon="11.428668349745521"><ele>252.0</ele><time>2026-04-11T13:09:10Z</time></trkpt><trkpt lat="43.01872405768306" lon="11.428766359878743"><ele>252.0</ele><time>2026-04-11T13:09:13Z</time></trkpt><trkpt lat="43.01867128848908" lon="11.428871262778573"><ele>251.6</ele><time>2026-04-11T13:09:16Z</time></trkpt><trkpt lat="43.01865706963701" lon="11.42897116707054"><ele>251.2</ele><time>2026-04-11T13:09:18Z</time></trkpt><trkpt lat="43.018627404690015" lon="11.429076449184347"><ele>250.8</ele><time>2026-04-11T13:09:19.999Z</time></trkpt><trkpt lat="43.01858933298443" lon="11.429187150001697"><ele>250.4</ele><time>2026-04-11T13:09:21.999Z</time></trkpt><trkpt lat="43.018556562782855" lon="11.429316835932354"><ele>250.0</ele><time>2026-04-11T13:09:24Z</time></trkpt><trkpt lat="43.01853293111604" lon="11.429461143632283"><ele>250.0</ele><time>2026-04-11T13:09:26Z</time></trkpt><trkpt lat="43.018465077084784" lon="11.42950819497775"><ele>250.0</ele><time>2026-04-11T13:09:27Z</time></trkpt><trkpt lat="43.01841915387775" lon="11.42966140310214"><ele>250.0</ele><time>2026-04-11T13:09:29Z</time></trkpt><trkpt lat="43.018372416179616" lon="11.42981912936287"><ele>250.0</ele><time>2026-04-11T13:09:31Z</time></trkpt><trkpt lat="43.018347893825755" lon="11.429902455439112"><ele>250.0</ele><time>2026-04-11T13:09:32Z</time></trkpt><trkpt lat="43.01832256927458" lon="11.42998850732389"><ele>249.71428571428572</ele><time>2026-04-11T13:09:33Z</time></trkpt><trkpt lat="43.01829770560523" lon="11.43007299316621"><ele>249.42857142857144</ele><time>2026-04-11T13:09:34Z</time></trkpt><trkpt lat="43.01827217103169" lon="11.430159758719313"><ele>249.14285714285717</ele><time>2026-04-11T13:09:35Z</time></trkpt><trkpt lat="43.018246409470805" lon="11.430247295553585"><ele>248.85714285714286</ele><time>2026-04-11T13:09:36Z</time></trkpt><trkpt lat="43.01821975544626" lon="11.430337864930959"><ele>248.5714285714286</ele><time>2026-04-11T13:09:37Z</time></trkpt><trkpt lat="43.01819299820489" lon="11.43042878506266"><ele>248.2857142857143</ele><time>2026-04-11T13:09:38Z</time></trkpt><trkpt lat="43.01816595851019" lon="11.43052066496542"><ele>248.0</ele><time>2026-04-11T13:09:39Z</time></trkpt><trkpt lat="43.018152691818315" lon="11.430621754798004"><ele>247.00000000000003</ele><time>2026-04-11T13:09:40Z</time></trkpt><trkpt lat="43.01812486813119" lon="11.430713928907064"><ele>246.0</ele><time>2026-04-11T13:09:41Z</time></trkpt><trkpt lat="43.0180826295433" lon="11.430803813724895"><ele>245.0</ele><time>2026-04-11T13:09:42Z</time></trkpt><trkpt lat="43.018053856666995" lon="11.430901582916153"><ele>244.0</ele><time>2026-04-11T13:09:43Z</time></trkpt><trkpt lat="43.01802526303404" lon="11.430998743012136"><ele>243.00000000000003</ele><time>2026-04-11T13:09:44Z</time></trkpt><trkpt lat="43.017996251390464" lon="11.431097323525075"><ele>242.0</ele><time>2026-04-11T13:09:45Z</time></trkpt><trkpt lat="43.01796583959802" lon="11.431200661679759"><ele>241.50000000000003</ele><time>2026-04-11T13:09:46Z</time></trkpt><trkpt lat="43.01795062107957" lon="11.431313064420985"><ele>241.0</ele><time>2026-04-11T13:09:47Z</time></trkpt><trkpt lat="43.01791859281482" lon="11.431419516433948"><ele>240.5</ele><time>2026-04-11T13:09:48Z</time></trkpt><trkpt lat="43.01787235210961" lon="11.431518328731542"><ele>240.0</ele><time>2026-04-11T13:09:49Z</time></trkpt><trkpt lat="43.01784094652151" lon="11.431625043761667"><ele>239.50000000000003</ele><time>2026-04-11T13:09:50Z</time></trkpt><trkpt lat="43.017809229466856" lon="11.431732817140217"><ele>239.0</ele><time>2026-04-11T13:09:51Z</time></trkpt><trkpt lat="43.01777772026981" lon="11.431839884246038"><ele>239.00000000000003</ele><time>2026-04-11T13:09:52Z</time></trkpt><trkpt lat="43.017746145287305" lon="11.431947174872573"><ele>239.0</ele><time>2026-04-11T13:09:53Z</time></trkpt><trkpt lat="43.01771563295698" lon="11.432050854688788"><ele>239.0</ele><time>2026-04-11T13:09:54Z</time></trkpt><trkpt lat="43.017685271164886" lon="11.43215402291222"><ele>239.0</ele><time>2026-04-11T13:09:55Z</time></trkpt><trkpt lat="43.01765551323676" lon="11.432254973139216"><ele>239.00000000000003</ele><time>2026-04-11T13:09:56Z</time></trkpt><trkpt lat="43.01762596659193" lon="11.432355117682977"><ele>239.0</ele><time>2026-04-11T13:09:57Z</time></trkpt><trkpt lat="43.017597587555365" lon="11.432451304755464"><ele>239.00000000000003</ele><time>2026-04-11T13:09:58Z</time></trkpt><trkpt lat="43.01756933410899" lon="11.432547036246373"><ele>239.0</ele><time>2026-04-11T13:09:59Z</time></trkpt><trkpt lat="43.017542146606026" lon="11.432639123683455"><ele>239.00000000000003</ele><time>2026-04-11T13:10:00Z</time></trkpt><trkpt lat="43.01751471001006" lon="11.432732054832455"><ele>239.00000000000003</ele><time>2026-04-11T13:10:01Z</time></trkpt><trkpt lat="43.01748778437315" lon="11.432823255295053"><ele>239.0</ele><time>2026-04-11T13:10:02Z</time></trkpt><trkpt lat="43.01746121253619" lon="11.432913264464512"><ele>239.00000000000003</ele><time>2026-04-11T13:10:03Z</time></trkpt><trkpt lat="43.0174353162592" lon="11.433001078164494"><ele>239.00000000000003</ele><time>2026-04-11T13:10:04Z</time></trkpt><trkpt lat="43.01740960006126" lon="11.433088281223037"><ele>239.66666666666669</ele><time>2026-04-11T13:10:05Z</time></trkpt><trkpt lat="43.01738471255286" lon="11.433172674190692"><ele>240.33333333333334</ele><time>2026-04-11T13:10:06Z</time></trkpt><trkpt lat="43.01736047788207" lon="11.433254853422754"><ele>241.0</ele><time>2026-04-11T13:10:07Z</time></trkpt><trkpt lat="43.017336757944506" lon="11.433335287183521"><ele>241.66666666666669</ele><time>2026-04-11T13:10:08Z</time></trkpt><trkpt lat="43.017292444925715" lon="11.433485551636664"><ele>242.33333333333334</ele><time>2026-04-11T13:10:10Z</time></trkpt><trkpt lat="43.01725189029442" lon="11.43362307148799"><ele>243.0</ele><time>2026-04-11T13:10:12Z</time></trkpt><trkpt lat="43.01721785799452" lon="11.433738105991315"><ele>244.0</ele><time>2026-04-11T13:10:14Z</time></trkpt><trkpt lat="43.0171869877913" lon="11.43384243523402"><ele>245.0</ele><time>2026-04-11T13:10:16Z</time></trkpt><trkpt lat="43.01716321396368" lon="11.43392278149629"><ele>246.0</ele><time>2026-04-11T13:10:18Z</time></trkpt><trkpt lat="43.01713056715706" lon="11.434033114971351"><ele>247.0</ele><time>2026-04-11T13:10:21Z</time></trkpt><trkpt lat="43.017102387241316" lon="11.434128352717192"><ele>248.0</ele><time>2026-04-11T13:10:24Z</time></trkpt><trkpt lat="43.01707518894524" lon="11.434220272562287"><ele>249.0</ele><time>2026-04-11T13:10:27Z</time></trkpt><trkpt lat="43.01704868756368" lon="11.434309836528977"><ele>249.0</ele><time>2026-04-11T13:10:30Z</time></trkpt><trkpt lat="43.017023432929705" lon="11.434395187171491"><ele>248.99999999999997</ele><time>2026-04-11T13:10:33Z</time></trkpt><trkpt lat="43.0170096196454" lon="11.434488518854103"><ele>249.0</ele><time>2026-04-11T13:10:36Z</time></trkpt><trkpt lat="43.0169871897738" lon="11.434584871310474"><ele>249.0</ele><time>2026-04-11T13:10:39Z</time></trkpt><trkpt lat="43.01696544890974" lon="11.434669726018184"><ele>248.99999999999997</ele><time>2026-04-11T13:10:42Z</time></trkpt><trkpt lat="43.01693027857727" lon="11.434749189037573"><ele>249.0</ele><time>2026-04-11T13:10:45Z</time></trkpt><trkpt lat="43.01691030378549" lon="11.434839713345715"><ele>249.0</ele><time>2026-04-11T13:10:48Z</time></trkpt><trkpt lat="43.01688007374486" lon="11.434921970142318"><ele>249.28571428571428</ele><time>2026-04-11T13:10:51Z</time></trkpt><trkpt lat="43.01685817053292" lon="11.435006473737126"><ele>249.57142857142856</ele><time>2026-04-11T13:10:54Z</time></trkpt><trkpt lat="43.016830918576076" lon="11.435113052262835"><ele>249.85714285714283</ele><time>2026-04-11T13:10:58Z</time></trkpt><trkpt lat="43.01680545193914" lon="11.43520042401453"><ele>250.1428571428571</ele><time>2026-04-11T13:11:01Z</time></trkpt><trkpt lat="43.01678946960811" lon="11.435284485270856"><ele>250.42857142857142</ele><time>2026-04-11T13:11:04Z</time></trkpt><trkpt lat="43.01675802272379" lon="11.435369187332435"><ele>250.71428571428567</ele><time>2026-04-11T13:11:07Z</time></trkpt><trkpt lat="43.01673806243534" lon="11.435454519038485"><ele>250.99999999999997</ele><time>2026-04-11T13:11:10Z</time></trkpt><trkpt lat="43.01670557041083" lon="11.435562775150977"><ele>251.4285714285714</ele><time>2026-04-11T13:11:14Z</time></trkpt><trkpt lat="43.016682266652396" lon="11.435647270680183"><ele>251.85714285714283</ele><time>2026-04-11T13:11:17Z</time></trkpt><trkpt lat="43.01665062345629" lon="11.435734853718419"><ele>252.28571428571428</ele><time>2026-04-11T13:11:20Z</time></trkpt><trkpt lat="43.01662733931736" lon="11.435818683359967"><ele>252.7142857142857</ele><time>2026-04-11T13:11:23Z</time></trkpt><trkpt lat="43.01659846340921" lon="11.435900484653294"><ele>253.1428571428571</ele><time>2026-04-11T13:11:26Z</time></trkpt><trkpt lat="43.01657161005725" lon="11.435990721221302"><ele>253.57142857142858</ele><time>2026-04-11T13:11:29Z</time></trkpt><trkpt lat="43.01654668726737" lon="11.436076432621022"><ele>254.0</ele><time>2026-04-11T13:11:32Z</time></trkpt><trkpt lat="43.01652621269026" lon="11.436163073382637"><ele>254.28571428571428</ele><time>2026-04-11T13:11:35Z</time></trkpt><trkpt lat="43.016503143495264" lon="11.436254091266047"><ele>254.57142857142856</ele><time>2026-04-11T13:11:38Z</time></trkpt><trkpt lat="43.0164782700755" lon="11.436337006783058"><ele>254.85714285714283</ele><time>2026-04-11T13:11:41Z</time></trkpt><trkpt lat="43.016446574102595" lon="11.43641615394204"><ele>255.14285714285714</ele><time>2026-04-11T13:11:44Z</time></trkpt><trkpt lat="43.01642864265615" lon="11.43650266184385"><ele>255.4285714285714</ele><time>2026-04-11T13:11:47Z</time></trkpt><trkpt lat="43.016402165054615" lon="11.436608439620256"><ele>255.7142857142857</ele><time>2026-04-11T13:11:51Z</time></trkpt><trkpt lat="43.016354814830414" lon="11.436701503734296"><ele>256.0</ele><time>2026-04-11T13:11:55Z</time></trkpt><trkpt lat="43.0163275695969" lon="11.436803908543439"><ele>256.5</ele><time>2026-04-11T13:11:59Z</time></trkpt><trkpt lat="43.01630478392522" lon="11.436910250145493"><ele>257.0</ele><time>2026-04-11T13:12:03Z</time></trkpt><trkpt lat="43.016284151900955" lon="11.43699173164387"><ele>257.5</ele><time>2026-04-11T13:12:06Z</time></trkpt><trkpt lat="43.01625476820071" lon="11.437094128531346"><ele>258.0</ele><time>2026-04-11T13:12:10Z</time></trkpt><trkpt lat="43.016215537571135" lon="11.437195443263676"><ele>258.5</ele><time>2026-04-11T13:12:14Z</time></trkpt><trkpt lat="43.01619491575316" lon="11.437302948852182"><ele>259.0</ele><time>2026-04-11T13:12:18Z</time></trkpt><trkpt lat="43.016170696314234" lon="11.43738319937837"><ele>259.85714285714283</ele><time>2026-04-11T13:12:21Z</time></trkpt><trkpt lat="43.016144138638346" lon="11.437463051900238"><ele>260.7142857142857</ele><time>2026-04-11T13:12:24Z</time></trkpt><trkpt lat="43.01612741858476" lon="11.437546205922466"><ele>261.57142857142856</ele><time>2026-04-11T13:12:27Z</time></trkpt><trkpt lat="43.01609606903682" lon="11.437624447916887"><ele>262.42857142857144</ele><time>2026-04-11T13:12:30Z</time></trkpt><trkpt lat="43.01606112889662" lon="11.437709226389368"><ele>263.2857142857143</ele><time>2026-04-11T13:12:33Z</time></trkpt><trkpt lat="43.01604104035359" lon="11.437792211309706"><ele>264.1428571428571</ele><time>2026-04-11T13:12:36Z</time></trkpt><trkpt lat="43.01600998654074" lon="11.437899113212808"><ele>265.0</ele><time>2026-04-11T13:12:40Z</time></trkpt><trkpt lat="43.01598908795979" lon="11.437981339207248"><ele>265.71428571428567</ele><time>2026-04-11T13:12:43Z</time></trkpt><trkpt lat="43.01595669577514" lon="11.438085433747506"><ele>266.42857142857144</ele><time>2026-04-11T13:12:47Z</time></trkpt><trkpt lat="43.015928498030995" lon="11.438166373488722"><ele>267.1428571428571</ele><time>2026-04-11T13:12:50Z</time></trkpt><trkpt lat="43.01590667603833" lon="11.438250783369044"><ele>267.85714285714283</ele><time>2026-04-11T13:12:53Z</time></trkpt><trkpt lat="43.0158783603364" lon="11.43835480492071"><ele>268.57142857142856</ele><time>2026-04-11T13:12:57Z</time></trkpt><trkpt lat="43.015853560279915" lon="11.438439134607812"><ele>269.2857142857143</ele><time>2026-04-11T13:13:00Z</time></trkpt><trkpt lat="43.01582113886905" lon="11.43854378298662"><ele>270.0</ele><time>2026-04-11T13:13:04Z</time></trkpt><trkpt lat="43.015793501802" lon="11.438625544087714"><ele>270.57142857142856</ele><time>2026-04-11T13:13:07Z</time></trkpt><trkpt lat="43.01575164680678" lon="11.438693012551893"><ele>271.1428571428571</ele><time>2026-04-11T13:13:10Z</time></trkpt><trkpt lat="43.015703710670046" lon="11.438754392709406"><ele>271.7142857142857</ele><time>2026-04-11T13:13:13Z</time></trkpt><trkpt lat="43.015641242843444" lon="11.438774917332497"><ele>272.2857142857143</ele><time>2026-04-11T13:13:16Z</time></trkpt><trkpt lat="43.015585992865056" lon="11.438700729104363"><ele>272.8571428571429</ele><time>2026-04-11T13:13:19Z</time></trkpt><trkpt lat="43.01553878134553" lon="11.43861959705816"><ele>273.42857142857144</ele><time>2026-04-11T13:13:22Z</time></trkpt><trkpt lat="43.0154943990666" lon="11.438507485279203"><ele>274.0</ele><time>2026-04-11T13:13:25Z</time></trkpt><trkpt lat="43.015458431039015" lon="11.438423676580511"><ele>274.0</ele><time>2026-04-11T13:13:27Z</time></trkpt><trkpt lat="43.015414020528596" lon="11.438338484592744"><ele>274.0</ele><time>2026-04-11T13:13:28.999Z</time></trkpt><trkpt lat="43.01536529607985" lon="11.438237086778548"><ele>274.0</ele><time>2026-04-11T13:13:30.999Z</time></trkpt><trkpt lat="43.01530730370403" lon="11.438123248967539"><ele>274.0</ele><time>2026-04-11T13:13:32.999Z</time></trkpt><trkpt lat="43.01524286882764" lon="11.437993696218383"><ele>274.0</ele><time>2026-04-11T13:13:34.999Z</time></trkpt><trkpt lat="43.01517432355922" lon="11.437844189293424"><ele>273.14285714285717</ele><time>2026-04-11T13:13:37Z</time></trkpt><trkpt lat="43.015143242443585" lon="11.437765583971139"><ele>272.2857142857143</ele><time>2026-04-11T13:13:38Z</time></trkpt><trkpt lat="43.01510899802261" lon="11.437682144515573"><ele>271.42857142857144</ele><time>2026-04-11T13:13:39Z</time></trkpt><trkpt lat="43.015072018313106" lon="11.437596854090062"><ele>270.57142857142856</ele><time>2026-04-11T13:13:40Z</time></trkpt><trkpt lat="43.01504136062295" lon="11.43751799859784"><ele>269.7142857142857</ele><time>2026-04-11T13:13:41Z</time></trkpt><trkpt lat="43.01501974406582" lon="11.437417366880316"><ele>268.8571428571429</ele><time>2026-04-11T13:13:42Z</time></trkpt><trkpt lat="43.01498433220694" lon="11.437306930999616"><ele>268.0</ele><time>2026-04-11T13:13:43Z</time></trkpt><trkpt lat="43.01496560062966" lon="11.437211671079291"><ele>266.2</ele><time>2026-04-11T13:13:44Z</time></trkpt><trkpt lat="43.01494038308142" lon="11.43700331348007"><ele>264.4</ele><time>2026-04-11T13:13:46Z</time></trkpt><trkpt lat="43.014927231908295" lon="11.436880271939879"><ele>262.59999999999997</ele><time>2026-04-11T13:13:47Z</time></trkpt><trkpt lat="43.01492509601817" lon="11.436770768330602"><ele>260.8</ele><time>2026-04-11T13:13:48Z</time></trkpt><trkpt lat="43.014920828049576" lon="11.436664144516657"><ele>259.0</ele><time>2026-04-11T13:13:49Z</time></trkpt><trkpt lat="43.01491173352487" lon="11.436553357663145"><ele>259.0</ele><time>2026-04-11T13:13:50Z</time></trkpt><trkpt lat="43.01490561431419" lon="11.436448129919702"><ele>259.0</ele><time>2026-04-11T13:13:51Z</time></trkpt><trkpt lat="43.014899998079336" lon="11.4363394801051"><ele>259.0</ele><time>2026-04-11T13:13:52Z</time></trkpt><trkpt lat="43.01489349672391" lon="11.436230954462285"><ele>259.0</ele><time>2026-04-11T13:13:53Z</time></trkpt><trkpt lat="43.01489007213119" lon="11.436127661117272"><ele>259.0</ele><time>2026-04-11T13:13:54Z</time></trkpt><trkpt lat="43.01488733168584" lon="11.436032350630395"><ele>259.0</ele><time>2026-04-11T13:13:55Z</time></trkpt><trkpt lat="43.014882541148936" lon="11.435925895124765"><ele>258.66666666666663</ele><time>2026-04-11T13:13:56Z</time></trkpt><trkpt lat="43.01487945186694" lon="11.43581905788978"><ele>258.3333333333333</ele><time>2026-04-11T13:13:57Z</time></trkpt><trkpt lat="43.01487334769584" lon="11.43571388431862"><ele>258.0</ele><time>2026-04-11T13:13:58Z</time></trkpt><trkpt lat="43.01486406499436" lon="11.4356055295941"><ele>257.6666666666667</ele><time>2026-04-11T13:13:59Z</time></trkpt><trkpt lat="43.014858567863364" lon="11.435505502976538"><ele>257.33333333333337</ele><time>2026-04-11T13:14:00Z</time></trkpt><trkpt lat="43.01485300023389" lon="11.435394336962274"><ele>257.0</ele><time>2026-04-11T13:14:01Z</time></trkpt><trkpt lat="43.01484346131016" lon="11.43529240499291"><ele>256.83333333333337</ele><time>2026-04-11T13:14:02Z</time></trkpt><trkpt lat="43.01483480361655" lon="11.435193811941303"><ele>256.6666666666667</ele><time>2026-04-11T13:14:03Z</time></trkpt><trkpt lat="43.01482889762447" lon="11.435082161607495"><ele>256.5</ele><time>2026-04-11T13:14:04Z</time></trkpt><trkpt lat="43.014811473695055" lon="11.434964206766509"><ele>256.3333333333333</ele><time>2026-04-11T13:14:05Z</time></trkpt><trkpt lat="43.014801331127586" lon="11.434852812446078"><ele>256.16666666666663</ele><time>2026-04-11T13:14:06Z</time></trkpt><trkpt lat="43.014787445301124" lon="11.434729595671891"><ele>256.0</ele><time>2026-04-11T13:14:07Z</time></trkpt><trkpt lat="43.01477289880817" lon="11.434595896851615"><ele>255.8</ele><time>2026-04-11T13:14:08Z</time></trkpt><trkpt lat="43.014766498694925" lon="11.434454237343942"><ele>255.60000000000002</ele><time>2026-04-11T13:14:09Z</time></trkpt><trkpt lat="43.01473967735586" lon="11.434330030728995"><ele>255.4</ele><time>2026-04-11T13:14:10Z</time></trkpt><trkpt lat="43.01470787541338" lon="11.434119015148163"><ele>255.2</ele><time>2026-04-11T13:14:12Z</time></trkpt><trkpt lat="43.01470251399531" lon="11.434023058443074"><ele>255.0</ele><time>2026-04-11T13:14:13Z</time></trkpt><trkpt lat="43.01471090028838" lon="11.433904141159474"><ele>254.33333333333334</ele><time>2026-04-11T13:14:14Z</time></trkpt><trkpt lat="43.014725767027784" lon="11.433787744586295"><ele>253.66666666666669</ele><time>2026-04-11T13:14:15Z</time></trkpt><trkpt lat="43.01475473922507" lon="11.433667475425434"><ele>253.0</ele><time>2026-04-11T13:14:16Z</time></trkpt><trkpt lat="43.01478828905028" lon="11.433557777400864"><ele>252.33333333333334</ele><time>2026-04-11T13:14:17Z</time></trkpt><trkpt lat="43.01483391940628" lon="11.433469279262143"><ele>251.66666666666669</ele><time>2026-04-11T13:14:18Z</time></trkpt><trkpt lat="43.01487784944277" lon="11.433387847550744"><ele>251.0</ele><time>2026-04-11T13:14:19Z</time></trkpt><trkpt lat="43.01490595832265" lon="11.433297013743308"><ele>251.00000000000003</ele><time>2026-04-11T13:14:20Z</time></trkpt><trkpt lat="43.01494560757791" lon="11.433220060166603"><ele>251.0</ele><time>2026-04-11T13:14:21Z</time></trkpt><trkpt lat="43.014970834243755" lon="11.433102348519785"><ele>251.0</ele><time>2026-04-11T13:14:22Z</time></trkpt><trkpt lat="43.01499272231729" lon="11.432980015868107"><ele>251.0</ele><time>2026-04-11T13:14:23Z</time></trkpt><trkpt lat="43.01501032774549" lon="11.432857543136356"><ele>251.00000000000003</ele><time>2026-04-11T13:14:24Z</time></trkpt><trkpt lat="43.01501187598403" lon="11.432741786058902"><ele>251.0</ele><time>2026-04-11T13:14:25Z</time></trkpt><trkpt lat="43.01500293329291" lon="11.432599156679425"><ele>250.4</ele><time>2026-04-11T13:14:26Z</time></trkpt><trkpt lat="43.01497491936675" lon="11.432467805167484"><ele>249.8</ele><time>2026-04-11T13:14:27Z</time></trkpt><trkpt lat="43.01495299099862" lon="11.43233444142199"><ele>249.20000000000002</ele><time>2026-04-11T13:14:28Z</time></trkpt><trkpt lat="43.014926150081386" lon="11.432199294856131"><ele>248.60000000000002</ele><time>2026-04-11T13:14:29Z</time></trkpt><trkpt lat="43.01490122987756" lon="11.432067197936595"><ele>248.0</ele><time>2026-04-11T13:14:30Z</time></trkpt><trkpt lat="43.01487751896241" lon="11.43193314537733"><ele>247.4</ele><time>2026-04-11T13:14:31Z</time></trkpt><trkpt lat="43.01485349127789" lon="11.431798036472866"><ele>246.8</ele><time>2026-04-11T13:14:32Z</time></trkpt><trkpt lat="43.01482702515235" lon="11.431653114887144"><ele>246.2</ele><time>2026-04-11T13:14:33Z</time></trkpt><trkpt lat="43.01480388215622" lon="11.431509313682369"><ele>245.6</ele><time>2026-04-11T13:14:34Z</time></trkpt><trkpt lat="43.01478867048197" lon="11.431369106161867"><ele>245.0</ele><time>2026-04-11T13:14:35Z</time></trkpt><trkpt lat="43.01476409112052" lon="11.431227039943973"><ele>244.0</ele><time>2026-04-11T13:14:36Z</time></trkpt><trkpt lat="43.01473595108856" lon="11.431082679503945"><ele>243.0</ele><time>2026-04-11T13:14:37Z</time></trkpt><trkpt lat="43.01470202880905" lon="11.430946214329925"><ele>242.0</ele><time>2026-04-11T13:14:38Z</time></trkpt><trkpt lat="43.01464877113179" lon="11.43081723923556"><ele>241.0</ele><time>2026-04-11T13:14:39Z</time></trkpt><trkpt lat="43.014587322209216" lon="11.43070246725217"><ele>240.0</ele><time>2026-04-11T13:14:40Z</time></trkpt><trkpt lat="43.0145127490125" lon="11.430622821963142"><ele>240.0</ele><time>2026-04-11T13:14:41Z</time></trkpt><trkpt lat="43.01443697821741" lon="11.43055412571139"><ele>240.0</ele><time>2026-04-11T13:14:42Z</time></trkpt><trkpt lat="43.01434933553646" lon="11.430531560908026"><ele>240.0</ele><time>2026-04-11T13:14:43Z</time></trkpt><trkpt lat="43.014275151649166" lon="11.430486863825157"><ele>240.0</ele><time>2026-04-11T13:14:44Z</time></trkpt><trkpt lat="43.014217545392185" lon="11.430446911059551"><ele>240.0</ele><time>2026-04-11T13:14:45Z</time></trkpt><trkpt lat="43.014158973476306" lon="11.430385775069205"><ele>240.0</ele><time>2026-04-11T13:14:46Z</time></trkpt><trkpt lat="43.01409147706899" lon="11.430296837809598"><ele>239.2</ele><time>2026-04-11T13:14:47Z</time></trkpt><trkpt lat="43.014038521077524" lon="11.430190136551213"><ele>238.4</ele><time>2026-04-11T13:14:48Z</time></trkpt><trkpt lat="43.01399022609448" lon="11.430077470835041"><ele>237.60000000000002</ele><time>2026-04-11T13:14:49Z</time></trkpt><trkpt lat="43.013949031004984" lon="11.429952316947166"><ele>236.8</ele><time>2026-04-11T13:14:50Z</time></trkpt><trkpt lat="43.013918689011525" lon="11.429807622488847"><ele>236.0</ele><time>2026-04-11T13:14:51Z</time></trkpt><trkpt lat="43.013888708775596" lon="11.429661984456175"><ele>234.8</ele><time>2026-04-11T13:14:52Z</time></trkpt><trkpt lat="43.013857118343005" lon="11.42951759140253"><ele>233.60000000000002</ele><time>2026-04-11T13:14:53Z</time></trkpt><trkpt lat="43.013818074326565" lon="11.429386222000748"><ele>232.4</ele><time>2026-04-11T13:14:54Z</time></trkpt><trkpt lat="43.013756526027464" lon="11.429251639350564"><ele>231.2</ele><time>2026-04-11T13:14:55Z</time></trkpt><trkpt lat="43.01369048924966" lon="11.429180379277065"><ele>230.0</ele><time>2026-04-11T13:14:56Z</time></trkpt><trkpt lat="43.01361007041907" lon="11.429118035533811"><ele>230.00000000000003</ele><time>2026-04-11T13:14:57Z</time></trkpt><trkpt lat="43.01352503885785" lon="11.429066203468755"><ele>230.0</ele><time>2026-04-11T13:14:58Z</time></trkpt><trkpt lat="43.013444438231176" lon="11.429014003636933"><ele>230.0</ele><time>2026-04-11T13:14:59Z</time></trkpt><trkpt lat="43.013367048313576" lon="11.428961465774044"><ele>230.0</ele><time>2026-04-11T13:15:00Z</time></trkpt><trkpt lat="43.013286834687726" lon="11.42890196977791"><ele>230.00000000000003</ele><time>2026-04-11T13:15:01Z</time></trkpt><trkpt lat="43.01320518920776" lon="11.428866620130151"><ele>230.0</ele><time>2026-04-11T13:15:02Z</time></trkpt><trkpt lat="43.013122172198976" lon="11.428832434023219"><ele>230.00000000000003</ele><time>2026-04-11T13:15:03Z</time></trkpt><trkpt lat="43.01302789314992" lon="11.42881226955286"><ele>230.0</ele><time>2026-04-11T13:15:04Z</time></trkpt><trkpt lat="43.01294256689806" lon="11.428781781445442"><ele>230.0</ele><time>2026-04-11T13:15:05Z</time></trkpt><trkpt lat="43.01286212609734" lon="11.428752343590487"><ele>230.0</ele><time>2026-04-11T13:15:06Z</time></trkpt><trkpt lat="43.01278697820515" lon="11.428716329851605"><ele>230.00000000000003</ele><time>2026-04-11T13:15:07Z</time></trkpt><trkpt lat="43.01271218549831" lon="11.42868900486899"><ele>230.0</ele><time>2026-04-11T13:15:08Z</time></trkpt><trkpt lat="43.012640281438756" lon="11.428665960995184"><ele>229.6</ele><time>2026-04-11T13:15:09Z</time></trkpt><trkpt lat="43.01257395521295" lon="11.428631733445352"><ele>229.2</ele><time>2026-04-11T13:15:10Z</time></trkpt><trkpt lat="43.01250763799504" lon="11.428605352849514"><ele>228.8</ele><time>2026-04-11T13:15:11Z</time></trkpt><trkpt lat="43.01239138025834" lon="11.428537972573574"><ele>228.4</ele><time>2026-04-11T13:15:13Z</time></trkpt><trkpt lat="43.01227859619368" lon="11.42847148382446"><ele>228.0</ele><time>2026-04-11T13:15:15Z</time></trkpt><trkpt lat="43.01217974455001" lon="11.428376557475547"><ele>228.0</ele><time>2026-04-11T13:15:17Z</time></trkpt><trkpt lat="43.012128949486275" lon="11.428322566068275"><ele>227.99999999999997</ele><time>2026-04-11T13:15:18Z</time></trkpt><trkpt lat="43.01207382864254" lon="11.428272702725875"><ele>228.0</ele><time>2026-04-11T13:15:19Z</time></trkpt><trkpt lat="43.01201482193369" lon="11.42822067098062"><ele>228.0</ele><time>2026-04-11T13:15:20Z</time></trkpt><trkpt lat="43.01195956173723" lon="11.428170016951759"><ele>227.99999999999997</ele><time>2026-04-11T13:15:21Z</time></trkpt><trkpt lat="43.01190669513411" lon="11.428116434032361"><ele>228.0</ele><time>2026-04-11T13:15:22Z</time></trkpt><trkpt lat="43.01185102085135" lon="11.428065729004013"><ele>228.0</ele><time>2026-04-11T13:15:23Z</time></trkpt><trkpt lat="43.01179996588542" lon="11.428005232274344"><ele>227.60000000000002</ele><time>2026-04-11T13:15:24Z</time></trkpt><trkpt lat="43.0116961030837" lon="11.427902477976085"><ele>227.20000000000002</ele><time>2026-04-11T13:15:26Z</time></trkpt><trkpt lat="43.01159893469881" lon="11.427802687060415"><ele>226.8</ele><time>2026-04-11T13:15:28Z</time></trkpt><trkpt lat="43.0115466130541" lon="11.42775370382379"><ele>226.4</ele><time>2026-04-11T13:15:29Z</time></trkpt><trkpt lat="43.011491679161736" lon="11.427698030654039"><ele>226.0</ele><time>2026-04-11T13:15:30Z</time></trkpt><trkpt lat="43.0114395231536" lon="11.427630301559535"><ele>225.99999999999997</ele><time>2026-04-11T13:15:31Z</time></trkpt><trkpt lat="43.01138912479976" lon="11.42755329702182"><ele>226.0</ele><time>2026-04-11T13:15:32Z</time></trkpt><trkpt lat="43.01133813534833" lon="11.427484858004322"><ele>226.0</ele><time>2026-04-11T13:15:33Z</time></trkpt><trkpt lat="43.01129742664379" lon="11.427397905777065"><ele>226.0</ele><time>2026-04-11T13:15:34Z</time></trkpt><trkpt lat="43.011247729263474" lon="11.427318927584643"><ele>225.99999999999997</ele><time>2026-04-11T13:15:35Z</time></trkpt><trkpt lat="43.01120499896522" lon="11.427233076707164"><ele>226.0</ele><time>2026-04-11T13:15:36Z</time></trkpt><trkpt lat="43.01117325694736" lon="11.427140264902581"><ele>226.66666666666666</ele><time>2026-04-11T13:15:37Z</time></trkpt><trkpt lat="43.01113164811762" lon="11.427062101705245"><ele>227.33333333333331</ele><time>2026-04-11T13:15:38Z</time></trkpt><trkpt lat="43.01108376048467" lon="11.42699089736415"><ele>228.0</ele><time>2026-04-11T13:15:38.999Z</time></trkpt><trkpt lat="43.01104998733921" lon="11.426913165449111"><ele>228.66666666666669</ele><time>2026-04-11T13:15:39.999Z</time></trkpt><trkpt lat="43.01102394946399" lon="11.426822089159119"><ele>229.33333333333334</ele><time>2026-04-11T13:15:40.999Z</time></trkpt><trkpt lat="43.010968493620176" lon="11.426666375370637"><ele>230.0</ele><time>2026-04-11T13:15:43Z</time></trkpt><trkpt lat="43.010903574233915" lon="11.426536987345441"><ele>229.99999999999997</ele><time>2026-04-11T13:15:45Z</time></trkpt><trkpt lat="43.01082499856436" lon="11.426417610793889"><ele>230.0</ele><time>2026-04-11T13:15:47Z</time></trkpt><trkpt lat="43.010793008404825" lon="11.426342313342731"><ele>229.99999999999997</ele><time>2026-04-11T13:15:48Z</time></trkpt><trkpt lat="43.01075088047361" lon="11.426267794314377"><ele>229.99999999999997</ele><time>2026-04-11T13:15:49Z</time></trkpt><trkpt lat="43.01070957332241" lon="11.426198506078803"><ele>230.0</ele><time>2026-04-11T13:15:50Z</time></trkpt><trkpt lat="43.010668284805114" lon="11.426129363842913"><ele>229.99999999999997</ele><time>2026-04-11T13:15:51Z</time></trkpt><trkpt lat="43.01062619747495" lon="11.426058218727645"><ele>229.99999999999997</ele><time>2026-04-11T13:15:52Z</time></trkpt><trkpt lat="43.0105848029588" lon="11.425992463046446"><ele>229.4</ele><time>2026-04-11T13:15:53Z</time></trkpt><trkpt lat="43.01054286876214" lon="11.42592497864162"><ele>228.8</ele><time>2026-04-11T13:15:54Z</time></trkpt><trkpt lat="43.01047460324854" lon="11.425806283848445"><ele>228.2</ele><time>2026-04-11T13:15:56Z</time></trkpt><trkpt lat="43.01041795655213" lon="11.425669985584728"><ele>227.6</ele><time>2026-04-11T13:15:58Z</time></trkpt><trkpt lat="43.010369795639164" lon="11.42552674754267"><ele>227.0</ele><time>2026-04-11T13:16:00Z</time></trkpt><trkpt lat="43.010325731184636" lon="11.425355533416269"><ele>226.50000000000003</ele><time>2026-04-11T13:16:02Z</time></trkpt><trkpt lat="43.01031060954557" lon="11.42525538813864"><ele>226.0</ele><time>2026-04-11T13:16:03Z</time></trkpt><trkpt lat="43.01029041883832" lon="11.425151735561892"><ele>225.5</ele><time>2026-04-11T13:16:04Z</time></trkpt><trkpt lat="43.010270582335956" lon="11.425043978089807"><ele>225.0</ele><time>2026-04-11T13:16:05Z</time></trkpt><trkpt lat="43.010258035118454" lon="11.42493366110595"><ele>224.50000000000003</ele><time>2026-04-11T13:16:06Z</time></trkpt><trkpt lat="43.01023169062695" lon="11.424829436507542"><ele>224.0</ele><time>2026-04-11T13:16:07Z</time></trkpt><trkpt lat="43.01021112819455" lon="11.424711874107885"><ele>223.50000000000003</ele><time>2026-04-11T13:16:08Z</time></trkpt><trkpt lat="43.01018870613781" lon="11.424588656737098"><ele>223.0</ele><time>2026-04-11T13:16:09Z</time></trkpt><trkpt lat="43.010162505404246" lon="11.424480850717007"><ele>222.5</ele><time>2026-04-11T13:16:10Z</time></trkpt><trkpt lat="43.0101334893512" lon="11.424364410754725"><ele>222.0</ele><time>2026-04-11T13:16:11Z</time></trkpt><trkpt lat="43.01011825691086" lon="11.424259376436607"><ele>221.50000000000003</ele><time>2026-04-11T13:16:12Z</time></trkpt><trkpt lat="43.010102101526556" lon="11.424139098596271"><ele>221.0</ele><time>2026-04-11T13:16:13Z</time></trkpt><trkpt lat="43.010079931628134" lon="11.424026722927604"><ele>221.0</ele><time>2026-04-11T13:16:14Z</time></trkpt><trkpt lat="43.01005272939138" lon="11.423908919186088"><ele>221.00000000000003</ele><time>2026-04-11T13:16:15Z</time></trkpt><trkpt lat="43.01001420872619" lon="11.423796393866015"><ele>221.00000000000003</ele><time>2026-04-11T13:16:16Z</time></trkpt><trkpt lat="43.00998514554356" lon="11.42366893499181"><ele>221.0</ele><time>2026-04-11T13:16:17Z</time></trkpt><trkpt lat="43.00996840669763" lon="11.423541033232938"><ele>221.0</ele><time>2026-04-11T13:16:18Z</time></trkpt><trkpt lat="43.009939275800356" lon="11.423407150183188"><ele>220.00000000000003</ele><time>2026-04-11T13:16:19Z</time></trkpt><trkpt lat="43.009905831894216" lon="11.423280251347693"><ele>219.0</ele><time>2026-04-11T13:16:20Z</time></trkpt><trkpt lat="43.00987691101777" lon="11.423185242114387"><ele>218.0</ele><time>2026-04-11T13:16:21Z</time></trkpt><trkpt lat="43.009839352949676" lon="11.423068819925279"><ele>217.0</ele><time>2026-04-11T13:16:22Z</time></trkpt><trkpt lat="43.00980008740186" lon="11.422967753609944"><ele>216.00000000000003</ele><time>2026-04-11T13:16:23Z</time></trkpt><trkpt lat="43.00976790973763" lon="11.422877437697444"><ele>215.0</ele><time>2026-04-11T13:16:24Z</time></trkpt><trkpt lat="43.009734858742235" lon="11.422785762290653"><ele>215.0</ele><time>2026-04-11T13:16:25Z</time></trkpt><trkpt lat="43.00970803235012" lon="11.422689784452402"><ele>215.0</ele><time>2026-04-11T13:16:26Z</time></trkpt><trkpt lat="43.00968044734458" lon="11.422599160746715"><ele>215.0</ele><time>2026-04-11T13:16:27Z</time></trkpt><trkpt lat="43.009648479378" lon="11.422507441811918"><ele>215.0</ele><time>2026-04-11T13:16:28Z</time></trkpt><trkpt lat="43.0096186352757" lon="11.422415994570741"><ele>215.0</ele><time>2026-04-11T13:16:29Z</time></trkpt><trkpt lat="43.009585806505925" lon="11.422327296793945"><ele>215.0</ele><time>2026-04-11T13:16:30Z</time></trkpt><trkpt lat="43.00955518415073" lon="11.42224169176717"><ele>215.0</ele><time>2026-04-11T13:16:31Z</time></trkpt><trkpt lat="43.009530705639705" lon="11.422149278611364"><ele>215.8</ele><time>2026-04-11T13:16:32Z</time></trkpt><trkpt lat="43.009505471059555" lon="11.422058519274369"><ele>216.6</ele><time>2026-04-11T13:16:33Z</time></trkpt><trkpt lat="43.00947752230847" lon="11.421975821673538"><ele>217.39999999999998</ele><time>2026-04-11T13:16:34Z</time></trkpt><trkpt lat="43.00942777047831" lon="11.421834010475473"><ele>218.2</ele><time>2026-04-11T13:16:36Z</time></trkpt><trkpt lat="43.00939029711295" lon="11.42169844839204"><ele>219.0</ele><time>2026-04-11T13:16:38Z</time></trkpt><trkpt lat="43.009343120104624" lon="11.421582660227251"><ele>219.0</ele><time>2026-04-11T13:16:40Z</time></trkpt><trkpt lat="43.00929535499369" lon="11.421496633598462"><ele>219.0</ele><time>2026-04-11T13:16:42Z</time></trkpt><trkpt lat="43.009245960018674" lon="11.421418603692556"><ele>219.0</ele><time>2026-04-11T13:16:44Z</time></trkpt><trkpt lat="43.00919577930826" lon="11.421352516773757"><ele>219.0</ele><time>2026-04-11T13:16:46Z</time></trkpt><trkpt lat="43.009120308022396" lon="11.421282497288002"><ele>219.0</ele><time>2026-04-11T13:16:49Z</time></trkpt><trkpt lat="43.00905534852123" lon="11.421233744196485"><ele>219.0</ele><time>2026-04-11T13:16:52Z</time></trkpt><trkpt lat="43.00899543600891" lon="11.42119426865518"><ele>220.0</ele><time>2026-04-11T13:16:55Z</time></trkpt><trkpt lat="43.0089357643951" lon="11.421160685821032"><ele>221.0</ele><time>2026-04-11T13:16:58Z</time></trkpt><trkpt lat="43.008867243809505" lon="11.421115373307703"><ele>222.0</ele><time>2026-04-11T13:17:02Z</time></trkpt><trkpt lat="43.00880469510165" lon="11.421071665065073"><ele>223.0</ele><time>2026-04-11T13:17:06Z</time></trkpt><trkpt lat="43.00874646992347" lon="11.42103275715754"><ele>224.0</ele><time>2026-04-11T13:17:09Z</time></trkpt><trkpt lat="43.00868281727097" lon="11.42098737553349"><ele>225.0</ele><time>2026-04-11T13:17:12Z</time></trkpt><trkpt lat="43.00862514932317" lon="11.420933599227629"><ele>226.0</ele><time>2026-04-11T13:17:15Z</time></trkpt><trkpt lat="43.00856558647626" lon="11.420883203487616"><ele>226.0</ele><time>2026-04-11T13:17:18Z</time></trkpt><trkpt lat="43.00850908236492" lon="11.420839650877298"><ele>226.0</ele><time>2026-04-11T13:17:21Z</time></trkpt><trkpt lat="43.00843977178343" lon="11.420792661531596"><ele>226.0</ele><time>2026-04-11T13:17:24Z</time></trkpt><trkpt lat="43.0083800567451" lon="11.420741656204598"><ele>226.0</ele><time>2026-04-11T13:17:26.999Z</time></trkpt><trkpt lat="43.008322293262765" lon="11.420686151894747"><ele>226.0</ele><time>2026-04-11T13:17:29.999Z</time></trkpt><trkpt lat="43.00825879016437" lon="11.420634996819308"><ele>226.0</ele><time>2026-04-11T13:17:32.999Z</time></trkpt><trkpt lat="43.0081980520611" lon="11.420578543429082"><ele>226.0</ele><time>2026-04-11T13:17:35.999Z</time></trkpt><trkpt lat="43.008139824722505" lon="11.420529992932952"><ele>226.99999999999997</ele><time>2026-04-11T13:17:38.999Z</time></trkpt><trkpt lat="43.00807861584607" lon="11.420485914822544"><ele>228.0</ele><time>2026-04-11T13:17:41.999Z</time></trkpt><trkpt lat="43.008020074199244" lon="11.420431464856604"><ele>229.0</ele><time>2026-04-11T13:17:44.999Z</time></trkpt><trkpt lat="43.00794009297252" lon="11.420377083120986"><ele>230.0</ele><time>2026-04-11T13:17:49Z</time></trkpt><trkpt lat="43.007869174436884" lon="11.420313721899719"><ele>230.99999999999997</ele><time>2026-04-11T13:17:53Z</time></trkpt><trkpt lat="43.00780918916787" lon="11.420267218089913"><ele>232.0</ele><time>2026-04-11T13:17:56Z</time></trkpt><trkpt lat="43.00774740997304" lon="11.420224661746147"><ele>232.14285714285717</ele><time>2026-04-11T13:17:59Z</time></trkpt><trkpt lat="43.00769315413003" lon="11.420180703860007"><ele>232.28571428571428</ele><time>2026-04-11T13:18:02Z</time></trkpt><trkpt lat="43.00761923035223" lon="11.420128141234649"><ele>232.42857142857144</ele><time>2026-04-11T13:18:06Z</time></trkpt><trkpt lat="43.00755299892983" lon="11.420062663902062"><ele>232.57142857142858</ele><time>2026-04-11T13:18:10Z</time></trkpt><trkpt lat="43.00748424410403" lon="11.42000456551494"><ele>232.71428571428572</ele><time>2026-04-11T13:18:14Z</time></trkpt><trkpt lat="43.00743018145251" lon="11.4199599704194"><ele>232.85714285714286</ele><time>2026-04-11T13:18:17Z</time></trkpt><trkpt lat="43.00737413781531" lon="11.419911806704722"><ele>233.0</ele><time>2026-04-11T13:18:20Z</time></trkpt><trkpt lat="43.007317354356374" lon="11.41986605017333"><ele>233.00000000000003</ele><time>2026-04-11T13:18:23Z</time></trkpt><trkpt lat="43.00725163917805" lon="11.419807768400316"><ele>233.0</ele><time>2026-04-11T13:18:26Z</time></trkpt><trkpt lat="43.00717810102283" lon="11.419740456546565"><ele>233.0</ele><time>2026-04-11T13:18:29Z</time></trkpt><trkpt lat="43.007123515298176" lon="11.419690664016551"><ele>233.0</ele><time>2026-04-11T13:18:31Z</time></trkpt><trkpt lat="43.00705437114072" lon="11.419633758381936"><ele>233.00000000000003</ele><time>2026-04-11T13:18:33Z</time></trkpt><trkpt lat="43.00698760861764" lon="11.41956151384743"><ele>233.0</ele><time>2026-04-11T13:18:35Z</time></trkpt><trkpt lat="43.0069183770242" lon="11.419483524589907"><ele>233.0</ele><time>2026-04-11T13:18:37Z</time></trkpt><trkpt lat="43.00684195193129" lon="11.419404888117372"><ele>233.0</ele><time>2026-04-11T13:18:39Z</time></trkpt><trkpt lat="43.00676108330849" lon="11.419317155254527"><ele>233.0</ele><time>2026-04-11T13:18:41Z</time></trkpt><trkpt lat="43.00667225545919" lon="11.419216988043713"><ele>233.0</ele><time>2026-04-11T13:18:43Z</time></trkpt><trkpt lat="43.00659064999691" lon="11.419103070135995"><ele>233.0</ele><time>2026-04-11T13:18:45Z</time></trkpt><trkpt lat="43.006509610532376" lon="11.418975555851361"><ele>233.0</ele><time>2026-04-11T13:18:47Z</time></trkpt><trkpt lat="43.0064432778339" lon="11.418836693465082"><ele>233.0</ele><time>2026-04-11T13:18:49Z</time></trkpt><trkpt lat="43.006371599212095" lon="11.418692761301172"><ele>233.0</ele><time>2026-04-11T13:18:51Z</time></trkpt><trkpt lat="43.00628956225826" lon="11.418557834096838"><ele>233.0</ele><time>2026-04-11T13:18:53Z</time></trkpt><trkpt lat="43.00624898950508" lon="11.418489279553528"><ele>233.0</ele><time>2026-04-11T13:18:54Z</time></trkpt><trkpt lat="43.006208989547105" lon="11.418408847466962"><ele>232.42857142857144</ele><time>2026-04-11T13:18:55Z</time></trkpt><trkpt lat="43.006169274025126" lon="11.418328320675359"><ele>231.85714285714283</ele><time>2026-04-11T13:18:56Z</time></trkpt><trkpt lat="43.006129920843726" lon="11.418241247897573"><ele>231.28571428571428</ele><time>2026-04-11T13:18:57Z</time></trkpt><trkpt lat="43.00608966423083" lon="11.418159291260013"><ele>230.71428571428572</ele><time>2026-04-11T13:18:58Z</time></trkpt><trkpt lat="43.00604825611899" lon="11.418081282120637"><ele>230.14285714285717</ele><time>2026-04-11T13:18:59Z</time></trkpt><trkpt lat="43.00600775649649" lon="11.418005942120756"><ele>229.57142857142856</ele><time>2026-04-11T13:19:00Z</time></trkpt><trkpt lat="43.00596467676285" lon="11.417924007256156"><ele>229.0</ele><time>2026-04-11T13:19:01Z</time></trkpt><trkpt lat="43.00592086973047" lon="11.417848252041583"><ele>228.49999999999997</ele><time>2026-04-11T13:19:02Z</time></trkpt><trkpt lat="43.005883720412676" lon="11.417777520973962"><ele>228.0</ele><time>2026-04-11T13:19:03Z</time></trkpt><trkpt lat="43.005841539690856" lon="11.417689101842617"><ele>227.5</ele><time>2026-04-11T13:19:04Z</time></trkpt><trkpt lat="43.005768176023835" lon="11.417538239864504"><ele>227.0</ele><time>2026-04-11T13:19:06Z</time></trkpt><trkpt lat="43.005734157549576" lon="11.417462597801459"><ele>226.49999999999997</ele><time>2026-04-11T13:19:07Z</time></trkpt><trkpt lat="43.00569082389809" lon="11.417381094350924"><ele>226.0</ele><time>2026-04-11T13:19:08Z</time></trkpt><trkpt lat="43.00565152366284" lon="11.417294884396986"><ele>226.0</ele><time>2026-04-11T13:19:09Z</time></trkpt><trkpt lat="43.00561285917083" lon="11.417206823627225"><ele>226.0</ele><time>2026-04-11T13:19:10Z</time></trkpt><trkpt lat="43.00557817749221" lon="11.417126345237637"><ele>226.0</ele><time>2026-04-11T13:19:11Z</time></trkpt><trkpt lat="43.0055307463151" lon="11.417031705536958"><ele>226.0</ele><time>2026-04-11T13:19:12Z</time></trkpt><trkpt lat="43.005488189310235" lon="11.41694871140976"><ele>226.0</ele><time>2026-04-11T13:19:13Z</time></trkpt><trkpt lat="43.005446172298434" lon="11.416864920257977"><ele>226.0</ele><time>2026-04-11T13:19:14Z</time></trkpt><trkpt lat="43.00540863885458" lon="11.416787713140469"><ele>226.0</ele><time>2026-04-11T13:19:15Z</time></trkpt><trkpt lat="43.00537198202515" lon="11.416704011535153"><ele>225.8</ele><time>2026-04-11T13:19:16Z</time></trkpt><trkpt lat="43.005338319670344" lon="11.416630271006335"><ele>225.60000000000002</ele><time>2026-04-11T13:19:17Z</time></trkpt><trkpt lat="43.005270196855676" lon="11.416486608401039"><ele>225.4</ele><time>2026-04-11T13:19:19Z</time></trkpt><trkpt lat="43.005221520059806" lon="11.416360269874316"><ele>225.2</ele><time>2026-04-11T13:19:21Z</time></trkpt><trkpt lat="43.00516694435787" lon="11.41624840283924"><ele>225.0</ele><time>2026-04-11T13:19:23Z</time></trkpt><trkpt lat="43.00512326376398" lon="11.416160538516033"><ele>225.0</ele><time>2026-04-11T13:19:25Z</time></trkpt><trkpt lat="43.00508261602241" lon="11.416058530224864"><ele>225.0</ele><time>2026-04-11T13:19:28Z</time></trkpt><trkpt lat="43.00504129653379" lon="11.415980090505624"><ele>225.0</ele><time>2026-04-11T13:19:31Z</time></trkpt><trkpt lat="43.00500991661349" lon="11.415869983864514"><ele>225.0</ele><time>2026-04-11T13:19:35Z</time></trkpt><trkpt lat="43.00496759830275" lon="11.415799074668776"><ele>225.0</ele><time>2026-04-11T13:19:38Z</time></trkpt><trkpt lat="43.00491801929342" lon="11.415715725607939"><ele>225.0</ele><time>2026-04-11T13:19:42Z</time></trkpt><trkpt lat="43.004884598025505" lon="11.41563962110894"><ele>224.83333333333334</ele><time>2026-04-11T13:19:44.999Z</time></trkpt><trkpt lat="43.00484886570223" lon="11.415542493600258"><ele>224.66666666666669</ele><time>2026-04-11T13:19:48.999Z</time></trkpt><trkpt lat="43.004797351101814" lon="11.415453447878834"><ele>224.5</ele><time>2026-04-11T13:19:52.999Z</time></trkpt><trkpt lat="43.00475480445373" lon="11.415359976137612"><ele>224.33333333333334</ele><time>2026-04-11T13:19:56Z</time></trkpt><trkpt lat="43.004706904274705" lon="11.415260929625989"><ele>224.16666666666669</ele><time>2026-04-11T13:19:59Z</time></trkpt><trkpt lat="43.00467273191525" lon="11.41517496187034"><ele>224.0</ele><time>2026-04-11T13:20:01Z</time></trkpt><trkpt lat="43.00462882298565" lon="11.415094677672949"><ele>224.85714285714286</ele><time>2026-04-11T13:20:03Z</time></trkpt><trkpt lat="43.004584777853125" lon="11.415015432579969"><ele>225.71428571428572</ele><time>2026-04-11T13:20:05Z</time></trkpt><trkpt lat="43.004548986552265" lon="11.414930850323483"><ele>226.57142857142856</ele><time>2026-04-11T13:20:07Z</time></trkpt><trkpt lat="43.00450986959668" lon="11.414848224623665"><ele>227.42857142857142</ele><time>2026-04-11T13:20:09Z</time></trkpt><trkpt lat="43.00446755181512" lon="11.414773198820553"><ele>228.28571428571428</ele><time>2026-04-11T13:20:11Z</time></trkpt><trkpt lat="43.004430850098004" lon="11.414695975720011"><ele>229.1428571428571</ele><time>2026-04-11T13:20:13Z</time></trkpt><trkpt lat="43.00439074001516" lon="11.414625298694794"><ele>229.99999999999997</ele><time>2026-04-11T13:20:15Z</time></trkpt><trkpt lat="43.0043489646004" lon="11.4145569859332"><ele>230.50000000000003</ele><time>2026-04-11T13:20:17Z</time></trkpt><trkpt lat="43.00429681425539" lon="11.414455838481665"><ele>231.0</ele><time>2026-04-11T13:20:20Z</time></trkpt><trkpt lat="43.00423848637702" lon="11.414363125881437"><ele>231.5</ele><time>2026-04-11T13:20:23Z</time></trkpt><trkpt lat="43.00419129963342" lon="11.414274436118768"><ele>232.0</ele><time>2026-04-11T13:20:26Z</time></trkpt><trkpt lat="43.00414135343235" lon="11.414184432765552"><ele>232.50000000000003</ele><time>2026-04-11T13:20:29Z</time></trkpt><trkpt lat="43.00409580943073" lon="11.414106558671168"><ele>233.0</ele><time>2026-04-11T13:20:32Z</time></trkpt><trkpt lat="43.00404384230377" lon="11.414021995069163"><ele>233.00000000000003</ele><time>2026-04-11T13:20:35Z</time></trkpt><trkpt lat="43.00399349710995" lon="11.413935111111746"><ele>233.0</ele><time>2026-04-11T13:20:38Z</time></trkpt><trkpt lat="43.00394190048173" lon="11.413845098697111"><ele>233.0</ele><time>2026-04-11T13:20:41Z</time></trkpt><trkpt lat="43.00389475473931" lon="11.413754759764254"><ele>233.0</ele><time>2026-04-11T13:20:44Z</time></trkpt><trkpt lat="43.00384476847106" lon="11.413666927193752"><ele>233.00000000000003</ele><time>2026-04-11T13:20:47Z</time></trkpt><trkpt lat="43.003795880156275" lon="11.413587852543312"><ele>233.0</ele><time>2026-04-11T13:20:50Z</time></trkpt><trkpt lat="43.003750985299334" lon="11.413500450915867"><ele>233.00000000000003</ele><time>2026-04-11T13:20:53Z</time></trkpt><trkpt lat="43.00369351528625" lon="11.41340576412649"><ele>233.0</ele><time>2026-04-11T13:20:56Z</time></trkpt><trkpt lat="43.0036387955126" lon="11.413303177190722"><ele>233.0</ele><time>2026-04-11T13:20:59Z</time></trkpt><trkpt lat="43.003595457793644" lon="11.4132289788427"><ele>233.0</ele><time>2026-04-11T13:21:01Z</time></trkpt><trkpt lat="43.00354861453574" lon="11.413150877945823"><ele>233.00000000000003</ele><time>2026-04-11T13:21:03Z</time></trkpt><trkpt lat="43.003508199278734" lon="11.413062797579466"><ele>233.0</ele><time>2026-04-11T13:21:05Z</time></trkpt><trkpt lat="43.003453020835316" lon="11.412960829823495"><ele>233.0</ele><time>2026-04-11T13:21:07Z</time></trkpt><trkpt lat="43.003393263959104" lon="11.412859686757994"><ele>233.0</ele><time>2026-04-11T13:21:09Z</time></trkpt><trkpt lat="43.00333502083545" lon="11.412758370858946"><ele>233.0</ele><time>2026-04-11T13:21:11Z</time></trkpt><trkpt lat="43.00327120413967" lon="11.412655017412346"><ele>233.0</ele><time>2026-04-11T13:21:13Z</time></trkpt><trkpt lat="43.00320931286616" lon="11.41255443042134"><ele>233.0</ele><time>2026-04-11T13:21:15Z</time></trkpt><trkpt lat="43.003151751933" lon="11.412446939572533"><ele>232.83333333333334</ele><time>2026-04-11T13:21:17Z</time></trkpt><trkpt lat="43.00309952104182" lon="11.412346122211178"><ele>232.66666666666669</ele><time>2026-04-11T13:21:19Z</time></trkpt><trkpt lat="43.0030473872888" lon="11.412256133667958"><ele>232.5</ele><time>2026-04-11T13:21:21Z</time></trkpt><trkpt lat="43.0030055998186" lon="11.412177872965538"><ele>232.33333333333331</ele><time>2026-04-11T13:21:23Z</time></trkpt><trkpt lat="43.0029649562811" lon="11.41210521412668"><ele>232.16666666666666</ele><time>2026-04-11T13:21:25Z</time></trkpt><trkpt lat="43.00291144002246" lon="11.412005569060188"><ele>232.0</ele><time>2026-04-11T13:21:28Z</time></trkpt><trkpt lat="43.00285849607595" lon="11.4119082165633"><ele>232.99999999999997</ele><time>2026-04-11T13:21:31Z</time></trkpt><trkpt lat="43.002806564592674" lon="11.411813216367761"><ele>234.0</ele><time>2026-04-11T13:21:34Z</time></trkpt><trkpt lat="43.00274846628916" lon="11.411710541349406"><ele>235.0</ele><time>2026-04-11T13:21:37Z</time></trkpt><trkpt lat="43.00270347656238" lon="11.411642140090189"><ele>236.0</ele><time>2026-04-11T13:21:39Z</time></trkpt><trkpt lat="43.002665966912765" lon="11.411572204389936"><ele>236.99999999999997</ele><time>2026-04-11T13:21:41Z</time></trkpt><trkpt lat="43.002609267131355" lon="11.411471825513384"><ele>238.0</ele><time>2026-04-11T13:21:44Z</time></trkpt><trkpt lat="43.00256165944851" lon="11.411370453268173"><ele>237.99999999999997</ele><time>2026-04-11T13:21:46.999Z</time></trkpt><trkpt lat="43.0025192633317" lon="11.411302089293574"><ele>238.0</ele><time>2026-04-11T13:21:48.999Z</time></trkpt><trkpt lat="43.00247001929981" lon="11.411213853114909"><ele>238.0</ele><time>2026-04-11T13:21:50.999Z</time></trkpt><trkpt lat="43.00242251032357" lon="11.411130394350188"><ele>238.0</ele><time>2026-04-11T13:21:52.999Z</time></trkpt><trkpt lat="43.002373772406216" lon="11.411039087835544"><ele>237.99999999999997</ele><time>2026-04-11T13:21:54.999Z</time></trkpt><trkpt lat="43.002321503926495" lon="11.41096215974565"><ele>238.0</ele><time>2026-04-11T13:21:56.999Z</time></trkpt><trkpt lat="43.002263314846296" lon="11.410890055141392"><ele>238.16666666666666</ele><time>2026-04-11T13:21:58.999Z</time></trkpt><trkpt lat="43.002199436581265" lon="11.41081469700499"><ele>238.33333333333331</ele><time>2026-04-11T13:22:01Z</time></trkpt><trkpt lat="43.00213719284223" lon="11.410755280003674"><ele>238.5</ele><time>2026-04-11T13:22:03Z</time></trkpt><trkpt lat="43.00206438458911" lon="11.410701143495498"><ele>238.66666666666669</ele><time>2026-04-11T13:22:05Z</time></trkpt><trkpt lat="43.001985444810124" lon="11.410667353399537"><ele>238.83333333333334</ele><time>2026-04-11T13:22:07Z</time></trkpt><trkpt lat="43.001899436210735" lon="11.410649810847298"><ele>239.0</ele><time>2026-04-11T13:22:09Z</time></trkpt><trkpt lat="43.00181922325292" lon="11.410648140056468"><ele>239.0</ele><time>2026-04-11T13:22:11Z</time></trkpt><trkpt lat="43.00172683826809" lon="11.410638415560136"><ele>238.99999999999997</ele><time>2026-04-11T13:22:13Z</time></trkpt><trkpt lat="43.00163597338639" lon="11.41065829457541"><ele>238.99999999999997</ele><time>2026-04-11T13:22:15Z</time></trkpt><trkpt lat="43.00154937264507" lon="11.410677848509527"><ele>239.0</ele><time>2026-04-11T13:22:17Z</time></trkpt><trkpt lat="43.00145828503883" lon="11.410698415481468"><ele>239.0</ele><time>2026-04-11T13:22:19Z</time></trkpt><trkpt lat="43.00137156516781" lon="11.410716205734275"><ele>238.83333333333334</ele><time>2026-04-11T13:22:21Z</time></trkpt><trkpt lat="43.001281266563645" lon="11.410734796611106"><ele>238.66666666666669</ele><time>2026-04-11T13:22:23Z</time></trkpt><trkpt lat="43.00119239285008" lon="11.410753094133149"><ele>238.5</ele><time>2026-04-11T13:22:25Z</time></trkpt><trkpt lat="43.001105266217735" lon="11.410771031966945"><ele>238.33333333333331</ele><time>2026-04-11T13:22:27Z</time></trkpt><trkpt lat="43.00101604497298" lon="11.410789401053583"><ele>238.16666666666666</ele><time>2026-04-11T13:22:29Z</time></trkpt><trkpt lat="43.00093521004547" lon="11.41080604353809"><ele>238.0</ele><time>2026-04-11T13:22:31Z</time></trkpt><trkpt lat="43.00085631848254" lon="11.410822125079973"><ele>238.66666666666666</ele><time>2026-04-11T13:22:33Z</time></trkpt><trkpt lat="43.000776031508074" lon="11.410838402115484"><ele>239.33333333333331</ele><time>2026-04-11T13:22:35Z</time></trkpt><trkpt lat="43.0006998104019" lon="11.410853854870696"><ele>240.0</ele><time>2026-04-11T13:22:37Z</time></trkpt><trkpt lat="43.00062363111689" lon="11.41086929914043"><ele>240.66666666666669</ele><time>2026-04-11T13:22:39Z</time></trkpt><trkpt lat="43.00055456804926" lon="11.410883300699567"><ele>241.33333333333334</ele><time>2026-04-11T13:22:41Z</time></trkpt><trkpt lat="43.00048068656013" lon="11.410913788936233"><ele>242.0</ele><time>2026-04-11T13:22:43Z</time></trkpt><trkpt lat="43.000404389656524" lon="11.41093026943307"><ele>242.0</ele><time>2026-04-11T13:22:45Z</time></trkpt><trkpt lat="43.00033002055275" lon="11.410946297060157"><ele>241.99999999999997</ele><time>2026-04-11T13:22:47Z</time></trkpt><trkpt lat="43.000259102869805" lon="11.410962556335802"><ele>242.0</ele><time>2026-04-11T13:22:49Z</time></trkpt><trkpt lat="43.00018224340991" lon="11.41097410813269"><ele>242.0</ele><time>2026-04-11T13:22:51Z</time></trkpt><trkpt lat="43.0001127417834" lon="11.410995778505228"><ele>241.99999999999997</ele><time>2026-04-11T13:22:53Z</time></trkpt><trkpt lat="43.00004454698694" lon="11.411002660227352"><ele>242.0</ele><time>2026-04-11T13:22:55Z</time></trkpt><trkpt lat="42.999973480488585" lon="11.411015988405723"><ele>242.0</ele><time>2026-04-11T13:22:57Z</time></trkpt><trkpt lat="42.99990612270129" lon="11.41103440424576"><ele>242.00000000000003</ele><time>2026-04-11T13:22:59Z</time></trkpt><trkpt lat="42.99981259972134" lon="11.41105446504279"><ele>242.0</ele><time>2026-04-11T13:23:02Z</time></trkpt><trkpt lat="42.99972299203874" lon="11.411078518332042"><ele>242.0</ele><time>2026-04-11T13:23:05Z</time></trkpt><trkpt lat="42.999633133042735" lon="11.411089639548024"><ele>242.0</ele><time>2026-04-11T13:23:08Z</time></trkpt><trkpt lat="42.999549711281574" lon="11.411107599947787"><ele>242.00000000000003</ele><time>2026-04-11T13:23:11Z</time></trkpt><trkpt lat="42.999468160770874" lon="11.411129552560762"><ele>242.0</ele><time>2026-04-11T13:23:14Z</time></trkpt><trkpt lat="42.99939154756394" lon="11.41114871310935"><ele>242.0</ele><time>2026-04-11T13:23:17Z</time></trkpt><trkpt lat="42.9993220268744" lon="11.41116090266231"><ele>241.99999999999997</ele><time>2026-04-11T13:23:20Z</time></trkpt><trkpt lat="42.99925180904943" lon="11.41117845675373"><ele>242.0</ele><time>2026-04-11T13:23:23Z</time></trkpt><trkpt lat="42.999185623328955" lon="11.411191350355185"><ele>242.0</ele><time>2026-04-11T13:23:26Z</time></trkpt><trkpt lat="42.99912186191272" lon="11.411202705158622"><ele>241.99999999999997</ele><time>2026-04-11T13:23:29Z</time></trkpt><trkpt lat="42.99904958997543" lon="11.41120985537316"><ele>242.0</ele><time>2026-04-11T13:23:32Z</time></trkpt><trkpt lat="42.998966657245056" lon="11.411230057759953"><ele>242.0</ele><time>2026-04-11T13:23:35Z</time></trkpt><trkpt lat="42.99890297324458" lon="11.411241677247263"><ele>242.28571428571428</ele><time>2026-04-11T13:23:37Z</time></trkpt><trkpt lat="42.99883819226561" lon="11.411255055881641"><ele>242.57142857142856</ele><time>2026-04-11T13:23:39Z</time></trkpt><trkpt lat="42.99877478224473" lon="11.411262586078415"><ele>242.85714285714283</ele><time>2026-04-11T13:23:41Z</time></trkpt><trkpt lat="42.99870959570817" lon="11.411275386361789"><ele>243.1428571428571</ele><time>2026-04-11T13:23:43Z</time></trkpt><trkpt lat="42.998646822861" lon="11.411288876510097"><ele>243.42857142857142</ele><time>2026-04-11T13:23:45Z</time></trkpt><trkpt lat="42.99855383545141" lon="11.411303216369165"><ele>243.71428571428567</ele><time>2026-04-11T13:23:48Z</time></trkpt><trkpt lat="42.9984858398236" lon="11.411316293308403"><ele>243.99999999999997</ele><time>2026-04-11T13:23:50Z</time></trkpt><trkpt lat="42.998404836748236" lon="11.411345668951984"><ele>245.1428571428571</ele><time>2026-04-11T13:23:52.999Z</time></trkpt><trkpt lat="42.998324061238904" lon="11.411351771519831"><ele>246.28571428571428</ele><time>2026-04-11T13:23:54.999Z</time></trkpt><trkpt lat="42.99825977437035" lon="11.41137098881621"><ele>247.42857142857142</ele><time>2026-04-11T13:23:56.999Z</time></trkpt><trkpt lat="42.99818593166307" lon="11.4113862975653"><ele>248.57142857142856</ele><time>2026-04-11T13:23:58.999Z</time></trkpt><trkpt lat="42.998115078363405" lon="11.411402787457451"><ele>249.71428571428572</ele><time>2026-04-11T13:24:00.999Z</time></trkpt><trkpt lat="42.998041412661806" lon="11.411425804183764"><ele>250.85714285714286</ele><time>2026-04-11T13:24:02.999Z</time></trkpt><trkpt lat="42.99796387994538" lon="11.411437836967105"><ele>252.0</ele><time>2026-04-11T13:24:04.999Z</time></trkpt><trkpt lat="42.9978891941937" lon="11.411457474174174"><ele>252.0</ele><time>2026-04-11T13:24:07Z</time></trkpt><trkpt lat="42.99780720991938" lon="11.411471829431996"><ele>252.0</ele><time>2026-04-11T13:24:09Z</time></trkpt><trkpt lat="42.99772069147792" lon="11.411488884077023"><ele>252.0</ele><time>2026-04-11T13:24:11Z</time></trkpt><trkpt lat="42.997631208291196" lon="11.411502930195685"><ele>252.0</ele><time>2026-04-11T13:24:13Z</time></trkpt><trkpt lat="42.99754326147918" lon="11.41153097359373"><ele>252.0</ele><time>2026-04-11T13:24:15Z</time></trkpt><trkpt lat="42.997448280443166" lon="11.411547123126624"><ele>252.0</ele><time>2026-04-11T13:24:17Z</time></trkpt><trkpt lat="42.997354281057454" lon="11.411558854469718"><ele>252.0</ele><time>2026-04-11T13:24:19Z</time></trkpt><trkpt lat="42.99726181461187" lon="11.411569246253734"><ele>252.0</ele><time>2026-04-11T13:24:21Z</time></trkpt><trkpt lat="42.997173937294654" lon="11.411583401829525"><ele>252.0</ele><time>2026-04-11T13:24:23Z</time></trkpt><trkpt lat="42.99708989970794" lon="11.41159469266683"><ele>252.0</ele><time>2026-04-11T13:24:25Z</time></trkpt><trkpt lat="42.99701583938641" lon="11.4116002637409"><ele>252.0</ele><time>2026-04-11T13:24:27Z</time></trkpt><trkpt lat="42.99694774899705" lon="11.411606204702588"><ele>252.0</ele><time>2026-04-11T13:24:29Z</time></trkpt><trkpt lat="42.9968843663411" lon="11.411620302188902"><ele>252.0</ele><time>2026-04-11T13:24:31Z</time></trkpt><trkpt lat="42.996796444989705" lon="11.411628946401379"><ele>252.0</ele><time>2026-04-11T13:24:34Z</time></trkpt><trkpt lat="42.99671167843352" lon="11.411642202858301"><ele>252.0</ele><time>2026-04-11T13:24:37Z</time></trkpt><trkpt lat="42.99662400785418" lon="11.411659592483142"><ele>252.0</ele><time>2026-04-11T13:24:40Z</time></trkpt><trkpt lat="42.99655489551765" lon="11.411683582822578"><ele>252.0</ele><time>2026-04-11T13:24:42Z</time></trkpt><trkpt lat="42.99648093598289" lon="11.411710486495915"><ele>252.0</ele><time>2026-04-11T13:24:44Z</time></trkpt><trkpt lat="42.99641512533233" lon="11.411738726997719"><ele>252.6</ele><time>2026-04-11T13:24:46Z</time></trkpt><trkpt lat="42.99632568037725" lon="11.411771661217387"><ele>253.2</ele><time>2026-04-11T13:24:48Z</time></trkpt><trkpt lat="42.99622883433918" lon="11.411802218041167"><ele>253.8</ele><time>2026-04-11T13:24:50Z</time></trkpt><trkpt lat="42.996137983501164" lon="11.41183716284227"><ele>254.4</ele><time>2026-04-11T13:24:52Z</time></trkpt><trkpt lat="42.99604165838968" lon="11.411871312094812"><ele>255.0</ele><time>2026-04-11T13:24:54Z</time></trkpt><trkpt lat="42.995947423066504" lon="11.411899717546818"><ele>255.0</ele><time>2026-04-11T13:24:56Z</time></trkpt><trkpt lat="42.99586433137287" lon="11.411936876306239"><ele>255.0</ele><time>2026-04-11T13:24:58Z</time></trkpt><trkpt lat="42.99577321160326" lon="11.411963842375357"><ele>255.0</ele><time>2026-04-11T13:25:00Z</time></trkpt><trkpt lat="42.99567724258921" lon="11.411998121895495"><ele>255.0</ele><time>2026-04-11T13:25:02Z</time></trkpt><trkpt lat="42.995574056682045" lon="11.412029955623737"><ele>255.0</ele><time>2026-04-11T13:25:04Z</time></trkpt><trkpt lat="42.9954650891252" lon="11.412061127398692"><ele>254.6</ele><time>2026-04-11T13:25:06Z</time></trkpt><trkpt lat="42.9953552838669" lon="11.412086572628064"><ele>254.2</ele><time>2026-04-11T13:25:08Z</time></trkpt><trkpt lat="42.99523882125219" lon="11.41210626615489"><ele>253.8</ele><time>2026-04-11T13:25:10Z</time></trkpt><trkpt lat="42.99511490039242" lon="11.412108633223301"><ele>253.4</ele><time>2026-04-11T13:25:12Z</time></trkpt><trkpt lat="42.99504939216609" lon="11.412110698253018"><ele>253.0</ele><time>2026-04-11T13:25:13Z</time></trkpt><trkpt lat="42.99498431974486" lon="11.412111647538934"><ele>252.71428571428575</ele><time>2026-04-11T13:25:14Z</time></trkpt><trkpt lat="42.99491805039179" lon="11.41210326363835"><ele>252.42857142857144</ele><time>2026-04-11T13:25:15Z</time></trkpt><trkpt lat="42.99485010507283" lon="11.412079551860975"><ele>252.14285714285714</ele><time>2026-04-11T13:25:16Z</time></trkpt><trkpt lat="42.994782494605055" lon="11.412044661016322"><ele>251.85714285714286</ele><time>2026-04-11T13:25:17Z</time></trkpt><trkpt lat="42.994715625983396" lon="11.412005825633733"><ele>251.57142857142856</ele><time>2026-04-11T13:25:18Z</time></trkpt><trkpt lat="42.994649679224125" lon="11.411961408023606"><ele>251.28571428571425</ele><time>2026-04-11T13:25:19Z</time></trkpt><trkpt lat="42.994585654218916" lon="11.41190740476965"><ele>250.99999999999997</ele><time>2026-04-11T13:25:20Z</time></trkpt><trkpt lat="42.99452182717303" lon="11.411859153687125"><ele>250.99999999999997</ele><time>2026-04-11T13:25:21Z</time></trkpt><trkpt lat="42.99445295822539" lon="11.411812495517202"><ele>251.0</ele><time>2026-04-11T13:25:22Z</time></trkpt><trkpt lat="42.99438758619471" lon="11.411767176241872"><ele>250.99999999999997</ele><time>2026-04-11T13:25:23Z</time></trkpt><trkpt lat="42.99432334645742" lon="11.41172027250413"><ele>250.99999999999997</ele><time>2026-04-11T13:25:24Z</time></trkpt><trkpt lat="42.994260514502095" lon="11.411674894927026"><ele>251.0</ele><time>2026-04-11T13:25:25Z</time></trkpt><trkpt lat="42.99419847734196" lon="11.41163002065157"><ele>250.99999999999997</ele><time>2026-04-11T13:25:26Z</time></trkpt><trkpt lat="42.99413604638929" lon="11.411580618736828"><ele>250.99999999999997</ele><time>2026-04-11T13:25:27Z</time></trkpt><trkpt lat="42.99407358749676" lon="11.411530762505746"><ele>250.85714285714283</ele><time>2026-04-11T13:25:28Z</time></trkpt><trkpt lat="42.99401409393127" lon="11.411476359628564"><ele>250.71428571428572</ele><time>2026-04-11T13:25:29Z</time></trkpt><trkpt lat="42.99395349110854" lon="11.411419272197252"><ele>250.57142857142856</ele><time>2026-04-11T13:25:30Z</time></trkpt><trkpt lat="42.99388961290248" lon="11.411367546774724"><ele>250.42857142857142</ele><time>2026-04-11T13:25:31Z</time></trkpt><trkpt lat="42.99383052013866" lon="11.41131594375165"><ele>250.28571428571428</ele><time>2026-04-11T13:25:32Z</time></trkpt><trkpt lat="42.99377033405791" lon="11.411262944287865"><ele>250.14285714285714</ele><time>2026-04-11T13:25:33Z</time></trkpt><trkpt lat="42.99371282721075" lon="11.41120483029073"><ele>250.0</ele><time>2026-04-11T13:25:34Z</time></trkpt><trkpt lat="42.99366000665153" lon="11.411143363798327"><ele>249.42857142857142</ele><time>2026-04-11T13:25:35Z</time></trkpt><trkpt lat="42.99360642492752" lon="11.41108481970158"><ele>248.8571428571429</ele><time>2026-04-11T13:25:36Z</time></trkpt><trkpt lat="42.99354935164423" lon="11.411028213969452"><ele>248.2857142857143</ele><time>2026-04-11T13:25:37Z</time></trkpt><trkpt lat="42.99349441138823" lon="11.41097254736492"><ele>247.71428571428572</ele><time>2026-04-11T13:25:38Z</time></trkpt><trkpt lat="42.99344172827977" lon="11.410912549656853"><ele>247.14285714285717</ele><time>2026-04-11T13:25:39Z</time></trkpt><trkpt lat="42.993389382838124" lon="11.410854172162102"><ele>246.5714285714286</ele><time>2026-04-11T13:25:40Z</time></trkpt><trkpt lat="42.99333808484195" lon="11.410798573436479"><ele>246.00000000000003</ele><time>2026-04-11T13:25:41Z</time></trkpt><trkpt lat="42.99328373691859" lon="11.410752508721023"><ele>246.0</ele><time>2026-04-11T13:25:42Z</time></trkpt><trkpt lat="42.993230725762075" lon="11.410703146044026"><ele>246.00000000000003</ele><time>2026-04-11T13:25:43Z</time></trkpt><trkpt lat="42.993129206390016" lon="11.410610932755816"><ele>246.00000000000003</ele><time>2026-04-11T13:25:45Z</time></trkpt><trkpt lat="42.99306962008384" lon="11.410560504882264"><ele>246.0</ele><time>2026-04-11T13:25:46Z</time></trkpt><trkpt lat="42.99295746303311" lon="11.410493660428227"><ele>246.0</ele><time>2026-04-11T13:25:48Z</time></trkpt><trkpt lat="42.99285114017727" lon="11.410447271640527"><ele>245.5</ele><time>2026-04-11T13:25:50Z</time></trkpt><trkpt lat="42.992733411968864" lon="11.410414873986467"><ele>245.0</ele><time>2026-04-11T13:25:52Z</time></trkpt><trkpt lat="42.99261425526857" lon="11.41040281249036"><ele>244.5</ele><time>2026-04-11T13:25:54Z</time></trkpt><trkpt lat="42.992501264516214" lon="11.41039110020177"><ele>244.0</ele><time>2026-04-11T13:25:56Z</time></trkpt><trkpt lat="42.99239308896268" lon="11.41037319939229"><ele>244.0</ele><time>2026-04-11T13:25:58Z</time></trkpt><trkpt lat="42.9922874122676" lon="11.410351234839897"><ele>243.99999999999997</ele><time>2026-04-11T13:26:00Z</time></trkpt><trkpt lat="42.99218512837162" lon="11.410334389745563"><ele>243.99999999999997</ele><time>2026-04-11T13:26:01.999Z</time></trkpt><trkpt lat="42.99208688453137" lon="11.410334396546991"><ele>244.0</ele><time>2026-04-11T13:26:03.999Z</time></trkpt><trkpt lat="42.9919913496152" lon="11.410338204921498"><ele>244.0</ele><time>2026-04-11T13:26:05.999Z</time></trkpt><trkpt lat="42.99189407508151" lon="11.410345817145057"><ele>244.0</ele><time>2026-04-11T13:26:07.999Z</time></trkpt><trkpt lat="42.99180742168655" lon="11.410327254545795"><ele>243.99999999999997</ele><time>2026-04-11T13:26:09.999Z</time></trkpt><trkpt lat="42.99171326637995" lon="11.41035169557205"><ele>243.99999999999997</ele><time>2026-04-11T13:26:12Z</time></trkpt><trkpt lat="42.99162141622833" lon="11.410349385828708"><ele>244.0</ele><time>2026-04-11T13:26:14Z</time></trkpt><trkpt lat="42.991528130161676" lon="11.410364032819507"><ele>244.0</ele><time>2026-04-11T13:26:16Z</time></trkpt><trkpt lat="42.991437360447236" lon="11.410374261920037"><ele>244.25</ele><time>2026-04-11T13:26:18Z</time></trkpt><trkpt lat="42.99132711442539" lon="11.410348427306335"><ele>244.5</ele><time>2026-04-11T13:26:20Z</time></trkpt><trkpt lat="42.9912116377486" lon="11.4103511259488"><ele>244.75</ele><time>2026-04-11T13:26:22Z</time></trkpt><trkpt lat="42.991093605905334" lon="11.410321757198085"><ele>245.0</ele><time>2026-04-11T13:26:24Z</time></trkpt><trkpt lat="42.9909666669093" lon="11.410304158509389"><ele>245.0</ele><time>2026-04-11T13:26:26Z</time></trkpt><trkpt lat="42.990903192795756" lon="11.410297106774934"><ele>245.0</ele><time>2026-04-11T13:26:27Z</time></trkpt><trkpt lat="42.990778491033" lon="11.410277750914393"><ele>245.0</ele><time>2026-04-11T13:26:29Z</time></trkpt><trkpt lat="42.99071510878296" lon="11.410264855641081"><ele>245.0</ele><time>2026-04-11T13:26:30Z</time></trkpt><trkpt lat="42.99060285900307" lon="11.410245235880526"><ele>245.0</ele><time>2026-04-11T13:26:32Z</time></trkpt><trkpt lat="42.99047929347746" lon="11.410240050466875"><ele>244.8</ele><time>2026-04-11T13:26:34Z</time></trkpt><trkpt lat="42.99037145406689" lon="11.410234467271941"><ele>244.6</ele><time>2026-04-11T13:26:36Z</time></trkpt><trkpt lat="42.990260162247075" lon="11.410234179568048"><ele>244.39999999999998</ele><time>2026-04-11T13:26:38Z</time></trkpt><trkpt lat="42.99015460056999" lon="11.41025330484844"><ele>244.2</ele><time>2026-04-11T13:26:40Z</time></trkpt><trkpt lat="42.99005656578368" lon="11.410279428437683"><ele>244.0</ele><time>2026-04-11T13:26:42Z</time></trkpt><trkpt lat="42.989961348779" lon="11.410316120472366"><ele>244.0</ele><time>2026-04-11T13:26:44Z</time></trkpt><trkpt lat="42.9898700452021" lon="11.410339738951873"><ele>243.99999999999997</ele><time>2026-04-11T13:26:46Z</time></trkpt><trkpt lat="42.98977358468704" lon="11.410384478760742"><ele>243.99999999999997</ele><time>2026-04-11T13:26:48Z</time></trkpt><trkpt lat="42.98967170465395" lon="11.410440550638894"><ele>244.0</ele><time>2026-04-11T13:26:50Z</time></trkpt><trkpt lat="42.98954557756305" lon="11.410460898322874"><ele>244.0</ele><time>2026-04-11T13:26:52Z</time></trkpt><trkpt lat="42.989479897268794" lon="11.410468927001622"><ele>243.99999999999997</ele><time>2026-04-11T13:26:53Z</time></trkpt><trkpt lat="42.989414709890205" lon="11.41047733341097"><ele>244.0</ele><time>2026-04-11T13:26:54Z</time></trkpt><trkpt lat="42.989334266432984" lon="11.410480543958101"><ele>244.0</ele><time>2026-04-11T13:26:55Z</time></trkpt><trkpt lat="42.98925388871342" lon="11.410480230834933"><ele>244.0</ele><time>2026-04-11T13:26:56Z</time></trkpt><trkpt lat="42.98916794773082" lon="11.410481540240067"><ele>243.99999999999997</ele><time>2026-04-11T13:26:57Z</time></trkpt><trkpt lat="42.989083558852194" lon="11.410483299671398"><ele>244.0</ele><time>2026-04-11T13:26:58Z</time></trkpt><trkpt lat="42.98899095175556" lon="11.410480940767979"><ele>242.79999999999998</ele><time>2026-04-11T13:26:59Z</time></trkpt><trkpt lat="42.98889824180039" lon="11.410474137795072"><ele>241.59999999999997</ele><time>2026-04-11T13:27:00Z</time></trkpt><trkpt lat="42.98879755945576" lon="11.410463214713117"><ele>240.4</ele><time>2026-04-11T13:27:01Z</time></trkpt><trkpt lat="42.988703387834434" lon="11.410444293783156"><ele>239.2</ele><time>2026-04-11T13:27:02Z</time></trkpt><trkpt lat="42.98860987772388" lon="11.410428020269615"><ele>238.0</ele><time>2026-04-11T13:27:03Z</time></trkpt><trkpt lat="42.98851927325291" lon="11.410409075382166"><ele>237.99999999999997</ele><time>2026-04-11T13:27:04Z</time></trkpt><trkpt lat="42.9884294698275" lon="11.410390496355715"><ele>238.0</ele><time>2026-04-11T13:27:05Z</time></trkpt><trkpt lat="42.98834206534562" lon="11.410374762958742"><ele>238.0</ele><time>2026-04-11T13:27:06Z</time></trkpt><trkpt lat="42.98824796891265" lon="11.410354831443192"><ele>238.0</ele><time>2026-04-11T13:27:07Z</time></trkpt><trkpt lat="42.98816521281611" lon="11.410347897230327"><ele>237.99999999999997</ele><time>2026-04-11T13:27:08Z</time></trkpt><trkpt lat="42.988083047890605" lon="11.410342022212445"><ele>238.0</ele><time>2026-04-11T13:27:09Z</time></trkpt><trkpt lat="42.987994203885904" lon="11.41032065288822"><ele>237.66666666666666</ele><time>2026-04-11T13:27:10Z</time></trkpt><trkpt lat="42.98791197840441" lon="11.410300839852404"><ele>237.33333333333331</ele><time>2026-04-11T13:27:11Z</time></trkpt><trkpt lat="42.98782909654557" lon="11.410294533422402"><ele>237.0</ele><time>2026-04-11T13:27:12Z</time></trkpt><trkpt lat="42.98774902142774" lon="11.410282647271625"><ele>236.66666666666669</ele><time>2026-04-11T13:27:13Z</time></trkpt><trkpt lat="42.987665157803285" lon="11.410263037570097"><ele>236.33333333333334</ele><time>2026-04-11T13:27:14Z</time></trkpt><trkpt lat="42.987583893745374" lon="11.410247793504753"><ele>236.0</ele><time>2026-04-11T13:27:15Z</time></trkpt><trkpt lat="42.987506526658215" lon="11.410226488677516"><ele>236.00000000000003</ele><time>2026-04-11T13:27:16Z</time></trkpt><trkpt lat="42.98743108538095" lon="11.41020229873993"><ele>236.0</ele><time>2026-04-11T13:27:17Z</time></trkpt><trkpt lat="42.987352561278904" lon="11.410186341413512"><ele>236.0</ele><time>2026-04-11T13:27:18Z</time></trkpt><trkpt lat="42.98727467554498" lon="11.410177412380909"><ele>236.0</ele><time>2026-04-11T13:27:19Z</time></trkpt><trkpt lat="42.98719691720313" lon="11.410161981554747"><ele>236.00000000000003</ele><time>2026-04-11T13:27:20Z</time></trkpt><trkpt lat="42.987128093348616" lon="11.410148699036274"><ele>236.0</ele><time>2026-04-11T13:27:21Z</time></trkpt><trkpt lat="42.98704765500756" lon="11.410129564077737"><ele>236.00000000000003</ele><time>2026-04-11T13:27:22Z</time></trkpt><trkpt lat="42.986972091765644" lon="11.410105773560577"><ele>236.0</ele><time>2026-04-11T13:27:23Z</time></trkpt><trkpt lat="42.98689893261849" lon="11.410087319857624"><ele>236.0</ele><time>2026-04-11T13:27:24Z</time></trkpt><trkpt lat="42.986821493219225" lon="11.410071569556084"><ele>236.0</ele><time>2026-04-11T13:27:25Z</time></trkpt><trkpt lat="42.986743334064194" lon="11.410052182240003"><ele>236.00000000000003</ele><time>2026-04-11T13:27:26Z</time></trkpt><trkpt lat="42.9866657226934" lon="11.410034015580427"><ele>236.0</ele><time>2026-04-11T13:27:27Z</time></trkpt><trkpt lat="42.98658873905484" lon="11.410015729350366"><ele>235.33333333333334</ele><time>2026-04-11T13:27:28Z</time></trkpt><trkpt lat="42.98651186179487" lon="11.410001450516848"><ele>234.66666666666669</ele><time>2026-04-11T13:27:29Z</time></trkpt><trkpt lat="42.9864366357697" lon="11.409983086241"><ele>234.0</ele><time>2026-04-11T13:27:30Z</time></trkpt><trkpt lat="42.98636342505302" lon="11.40995967883893"><ele>233.33333333333331</ele><time>2026-04-11T13:27:31Z</time></trkpt><trkpt lat="42.98628972679395" lon="11.409935760103767"><ele>232.66666666666666</ele><time>2026-04-11T13:27:32Z</time></trkpt><trkpt lat="42.98621683760151" lon="11.409912425259062"><ele>232.0</ele><time>2026-04-11T13:27:33Z</time></trkpt><trkpt lat="42.986145185826395" lon="11.40988872092744"><ele>232.00000000000003</ele><time>2026-04-11T13:27:34Z</time></trkpt><trkpt lat="42.98607373511602" lon="11.40986218726191"><ele>232.0</ele><time>2026-04-11T13:27:35Z</time></trkpt><trkpt lat="42.98600671029504" lon="11.409831131577517"><ele>232.00000000000003</ele><time>2026-04-11T13:27:36Z</time></trkpt><trkpt lat="42.985939434550744" lon="11.409794173796838"><ele>232.00000000000003</ele><time>2026-04-11T13:27:37Z</time></trkpt><trkpt lat="42.98587213880756" lon="11.40975363810811"><ele>232.0</ele><time>2026-04-11T13:27:38Z</time></trkpt><trkpt lat="42.985809749589336" lon="11.409708756245045"><ele>232.00000000000003</ele><time>2026-04-11T13:27:39Z</time></trkpt><trkpt lat="42.9857475439381" lon="11.409668788057392"><ele>232.00000000000003</ele><time>2026-04-11T13:27:40Z</time></trkpt><trkpt lat="42.985689549971255" lon="11.409628909881265"><ele>230.71428571428575</ele><time>2026-04-11T13:27:41Z</time></trkpt><trkpt lat="42.98563158417258" lon="11.409589794101633"><ele>229.42857142857144</ele><time>2026-04-11T13:27:42Z</time></trkpt><trkpt lat="42.98557180981554" lon="11.409558916132287"><ele>228.14285714285717</ele><time>2026-04-11T13:27:43Z</time></trkpt><trkpt lat="42.98550560914319" lon="11.409536291885134"><ele>226.8571428571429</ele><time>2026-04-11T13:27:44Z</time></trkpt><trkpt lat="42.98543295457167" lon="11.409509442773784"><ele>225.57142857142856</ele><time>2026-04-11T13:27:45Z</time></trkpt><trkpt lat="42.98535654268692" lon="11.409477384426918"><ele>224.28571428571428</ele><time>2026-04-11T13:27:46Z</time></trkpt><trkpt lat="42.985272239505385" lon="11.40944765970716"><ele>223.0</ele><time>2026-04-11T13:27:47Z</time></trkpt><trkpt lat="42.985174052419204" lon="11.409417036826335"><ele>223.0</ele><time>2026-04-11T13:27:48Z</time></trkpt><trkpt lat="42.985076420802365" lon="11.40938719331717"><ele>223.0</ele><time>2026-04-11T13:27:49Z</time></trkpt><trkpt lat="42.984972002076525" lon="11.409346068195708"><ele>223.0</ele><time>2026-04-11T13:27:50Z</time></trkpt><trkpt lat="42.98486189175457" lon="11.409310866254998"><ele>223.0</ele><time>2026-04-11T13:27:51Z</time></trkpt><trkpt lat="42.984752398504455" lon="11.40926003253521"><ele>223.0</ele><time>2026-04-11T13:27:52Z</time></trkpt><trkpt lat="42.98464207702706" lon="11.409202082263667"><ele>222.5</ele><time>2026-04-11T13:27:53Z</time></trkpt><trkpt lat="42.9845375019003" lon="11.409123710353745"><ele>222.0</ele><time>2026-04-11T13:27:54Z</time></trkpt><trkpt lat="42.98442876937585" lon="11.409040108989007"><ele>221.5</ele><time>2026-04-11T13:27:55Z</time></trkpt><trkpt lat="42.98431947273143" lon="11.408956576850793"><ele>221.0</ele><time>2026-04-11T13:27:56Z</time></trkpt><trkpt lat="42.98421428641178" lon="11.408873499438071"><ele>218.0</ele><time>2026-04-11T13:27:57Z</time></trkpt><trkpt lat="42.98411194882218" lon="11.4087867296225"><ele>215.0</ele><time>2026-04-11T13:27:58Z</time></trkpt><trkpt lat="42.984009757566135" lon="11.408706955026618"><ele>212.0</ele><time>2026-04-11T13:27:59Z</time></trkpt><trkpt lat="42.9839157177955" lon="11.408626567222573"><ele>209.0</ele><time>2026-04-11T13:28:00Z</time></trkpt><trkpt lat="42.983826265041486" lon="11.408545185998975"><ele>209.0</ele><time>2026-04-11T13:28:01Z</time></trkpt><trkpt lat="42.9837342479666" lon="11.408466787089392"><ele>209.0</ele><time>2026-04-11T13:28:02Z</time></trkpt><trkpt lat="42.98364214642065" lon="11.408393839927157"><ele>209.0</ele><time>2026-04-11T13:28:03Z</time></trkpt><trkpt lat="42.98355227162293" lon="11.408321234564978"><ele>209.0</ele><time>2026-04-11T13:28:04Z</time></trkpt><trkpt lat="42.98346450790757" lon="11.408250135962781"><ele>209.0</ele><time>2026-04-11T13:28:05Z</time></trkpt><trkpt lat="42.98337928318762" lon="11.408183038016974"><ele>209.39999999999998</ele><time>2026-04-11T13:28:06Z</time></trkpt><trkpt lat="42.98329599744124" lon="11.408119621347225"><ele>209.8</ele><time>2026-04-11T13:28:07Z</time></trkpt><trkpt lat="42.983216845486254" lon="11.408055592810948"><ele>210.2</ele><time>2026-04-11T13:28:08Z</time></trkpt><trkpt lat="42.98314116195502" lon="11.407987957862428"><ele>210.60000000000002</ele><time>2026-04-11T13:28:09Z</time></trkpt><trkpt lat="42.983064338834396" lon="11.40792122717271"><ele>211.0</ele><time>2026-04-11T13:28:10Z</time></trkpt><trkpt lat="42.98298660171199" lon="11.407854945763672"><ele>209.99999999999997</ele><time>2026-04-11T13:28:11Z</time></trkpt><trkpt lat="42.98291214429544" lon="11.407793376412808"><ele>209.0</ele><time>2026-04-11T13:28:11.999Z</time></trkpt><trkpt lat="42.98283814650109" lon="11.407732718421558"><ele>208.0</ele><time>2026-04-11T13:28:12.999Z</time></trkpt><trkpt lat="42.98276633199041" lon="11.407674744014045"><ele>207.0</ele><time>2026-04-11T13:28:13.999Z</time></trkpt><trkpt lat="42.98269429215125" lon="11.407621545750748"><ele>205.99999999999997</ele><time>2026-04-11T13:28:14.999Z</time></trkpt><trkpt lat="42.9826310218404" lon="11.407572134388602"><ele>205.0</ele><time>2026-04-11T13:28:15.999Z</time></trkpt><trkpt lat="42.98253397591483" lon="11.407501579450733"><ele>205.2</ele><time>2026-04-11T13:28:18Z</time></trkpt><trkpt lat="42.98244089874764" lon="11.407508737236368"><ele>205.4</ele><time>2026-04-11T13:28:20Z</time></trkpt><trkpt lat="42.98236839292351" lon="11.407606819558515"><ele>205.60000000000002</ele><time>2026-04-11T13:28:22Z</time></trkpt><trkpt lat="42.982322486411995" lon="11.407717191284664"><ele>205.8</ele><time>2026-04-11T13:28:24Z</time></trkpt><trkpt lat="42.98228096137267" lon="11.407838085626603"><ele>206.0</ele><time>2026-04-11T13:28:26Z</time></trkpt><trkpt lat="42.98223979584345" lon="11.407964615954045"><ele>206.8</ele><time>2026-04-11T13:28:28Z</time></trkpt><trkpt lat="42.982200574070134" lon="11.408091849961815"><ele>207.60000000000002</ele><time>2026-04-11T13:28:30Z</time></trkpt><trkpt lat="42.98214332814423" lon="11.40821192683641"><ele>208.4</ele><time>2026-04-11T13:28:32Z</time></trkpt><trkpt lat="42.98210925072902" lon="11.408347542804481"><ele>209.2</ele><time>2026-04-11T13:28:34Z</time></trkpt><trkpt lat="42.982062762816774" lon="11.408467871247437"><ele>210.0</ele><time>2026-04-11T13:28:36Z</time></trkpt><trkpt lat="42.98201060205528" lon="11.408571049779237"><ele>210.0</ele><time>2026-04-11T13:28:38Z</time></trkpt><trkpt lat="42.981944481062904" lon="11.40864732589005"><ele>210.0</ele><time>2026-04-11T13:28:40Z</time></trkpt><trkpt lat="42.98188579001452" lon="11.408719734254033"><ele>210.0</ele><time>2026-04-11T13:28:42Z</time></trkpt><trkpt lat="42.981819265740064" lon="11.408793393722734"><ele>210.0</ele><time>2026-04-11T13:28:44Z</time></trkpt><trkpt lat="42.981757184870176" lon="11.408849456255927"><ele>210.0</ele><time>2026-04-11T13:28:46Z</time></trkpt><trkpt lat="42.981685074647935" lon="11.408895019686215"><ele>210.0</ele><time>2026-04-11T13:28:48Z</time></trkpt><trkpt lat="42.9816226290146" lon="11.408942168130483"><ele>210.83333333333334</ele><time>2026-04-11T13:28:50Z</time></trkpt><trkpt lat="42.98155991350588" lon="11.40896863994935"><ele>211.66666666666669</ele><time>2026-04-11T13:28:52Z</time></trkpt><trkpt lat="42.98147209496606" lon="11.408995289620927"><ele>212.5</ele><time>2026-04-11T13:28:55Z</time></trkpt><trkpt lat="42.98138380338445" lon="11.409009153432816"><ele>213.33333333333334</ele><time>2026-04-11T13:28:58Z</time></trkpt><trkpt lat="42.981293901969785" lon="11.409022092257057"><ele>214.16666666666669</ele><time>2026-04-11T13:29:01Z</time></trkpt><trkpt lat="42.98123062694037" lon="11.40903098768336"><ele>215.0</ele><time>2026-04-11T13:29:03Z</time></trkpt><trkpt lat="42.98115443251281" lon="11.409048395072915"><ele>215.0</ele><time>2026-04-11T13:29:05Z</time></trkpt><trkpt lat="42.98107982198724" lon="11.409064014077055"><ele>215.0</ele><time>2026-04-11T13:29:07Z</time></trkpt><trkpt lat="42.98099536812146" lon="11.409083877277391"><ele>215.0</ele><time>2026-04-11T13:29:09Z</time></trkpt><trkpt lat="42.98090689311919" lon="11.409109591940151"><ele>215.0</ele><time>2026-04-11T13:29:11Z</time></trkpt><trkpt lat="42.98080476682605" lon="11.409130477655594"><ele>215.0</ele><time>2026-04-11T13:29:13Z</time></trkpt><trkpt lat="42.980692673951" lon="11.409157246420312"><ele>215.33333333333334</ele><time>2026-04-11T13:29:15Z</time></trkpt><trkpt lat="42.98058380728395" lon="11.409189791127735"><ele>215.66666666666669</ele><time>2026-04-11T13:29:17Z</time></trkpt><trkpt lat="42.98046191400584" lon="11.40921305008846"><ele>216.0</ele><time>2026-04-11T13:29:19Z</time></trkpt><trkpt lat="42.98039748516643" lon="11.409213378464408"><ele>216.33333333333331</ele><time>2026-04-11T13:29:20Z</time></trkpt><trkpt lat="42.98033004897201" lon="11.409249513184083"><ele>216.66666666666666</ele><time>2026-04-11T13:29:21Z</time></trkpt><trkpt lat="42.98025465977524" lon="11.409274565869179"><ele>217.0</ele><time>2026-04-11T13:29:22Z</time></trkpt><trkpt lat="42.98017175751373" lon="11.409308267240856"><ele>217.0</ele><time>2026-04-11T13:29:23Z</time></trkpt><trkpt lat="42.98008619808401" lon="11.409332106082745"><ele>217.0</ele><time>2026-04-11T13:29:24Z</time></trkpt><trkpt lat="42.97998959400526" lon="11.40933908168105"><ele>217.0</ele><time>2026-04-11T13:29:25Z</time></trkpt><trkpt lat="42.979885343145064" lon="11.40932483002403"><ele>217.0</ele><time>2026-04-11T13:29:26Z</time></trkpt><trkpt lat="42.97976954184942" lon="11.409315684573032"><ele>217.0</ele><time>2026-04-11T13:29:27Z</time></trkpt><trkpt lat="42.979680072175526" lon="11.409293266792064"><ele>215.6</ele><time>2026-04-11T13:29:28Z</time></trkpt><trkpt lat="42.97960363026325" lon="11.409285762796644"><ele>214.2</ele><time>2026-04-11T13:29:29Z</time></trkpt><trkpt lat="42.97952281610499" lon="11.409265114157728"><ele>212.8</ele><time>2026-04-11T13:29:30Z</time></trkpt><trkpt lat="42.979417520609516" lon="11.40925576931286"><ele>211.4</ele><time>2026-04-11T13:29:31Z</time></trkpt><trkpt lat="42.979315631199874" lon="11.409267889440526"><ele>210.0</ele><time>2026-04-11T13:29:32Z</time></trkpt><trkpt lat="42.9792072948982" lon="11.40928473171297"><ele>208.0</ele><time>2026-04-11T13:29:33Z</time></trkpt><trkpt lat="42.97910356596576" lon="11.409321816509484"><ele>206.0</ele><time>2026-04-11T13:29:34Z</time></trkpt><trkpt lat="42.97900207846135" lon="11.409354330061916"><ele>204.0</ele><time>2026-04-11T13:29:35Z</time></trkpt><trkpt lat="42.9788945764701" lon="11.40941363709691"><ele>202.0</ele><time>2026-04-11T13:29:36Z</time></trkpt><trkpt lat="42.97879157288591" lon="11.409469421004562"><ele>200.0</ele><time>2026-04-11T13:29:37Z</time></trkpt><trkpt lat="42.978680467499075" lon="11.409468242004893"><ele>200.0</ele><time>2026-04-11T13:29:38Z</time></trkpt><trkpt lat="42.9785713064923" lon="11.409476196250267"><ele>200.0</ele><time>2026-04-11T13:29:39Z</time></trkpt><trkpt lat="42.97846069949466" lon="11.409432193481619"><ele>200.0</ele><time>2026-04-11T13:29:40Z</time></trkpt><trkpt lat="42.97834018388236" lon="11.409387072646126"><ele>200.0</ele><time>2026-04-11T13:29:41Z</time></trkpt><trkpt lat="42.9782251280667" lon="11.409327167370469"><ele>197.75</ele><time>2026-04-11T13:29:42Z</time></trkpt><trkpt lat="42.97810739130114" lon="11.409272287048923"><ele>195.5</ele><time>2026-04-11T13:29:43Z</time></trkpt><trkpt lat="42.977986720571494" lon="11.409215873275102"><ele>193.25</ele><time>2026-04-11T13:29:44Z</time></trkpt><trkpt lat="42.97786433417116" lon="11.409163274826188"><ele>191.0</ele><time>2026-04-11T13:29:45Z</time></trkpt><trkpt lat="42.97773390798294" lon="11.409105818073142"><ele>191.0</ele><time>2026-04-11T13:29:46Z</time></trkpt><trkpt lat="42.97761162048917" lon="11.409032873011508"><ele>191.0</ele><time>2026-04-11T13:29:47Z</time></trkpt><trkpt lat="42.97747839869911" lon="11.408976067194892"><ele>191.0</ele><time>2026-04-11T13:29:48Z</time></trkpt><trkpt lat="42.97735296772314" lon="11.408910363903908"><ele>191.0</ele><time>2026-04-11T13:29:49Z</time></trkpt><trkpt lat="42.977219839965244" lon="11.408827391068805"><ele>187.5</ele><time>2026-04-11T13:29:50Z</time></trkpt><trkpt lat="42.9770955926876" lon="11.408746621492476"><ele>184.0</ele><time>2026-04-11T13:29:51Z</time></trkpt><trkpt lat="42.97697874017218" lon="11.408665748164417"><ele>180.5</ele><time>2026-04-11T13:29:52Z</time></trkpt><trkpt lat="42.97687409158086" lon="11.408608024634518"><ele>177.0</ele><time>2026-04-11T13:29:53Z</time></trkpt><trkpt lat="42.97677070080028" lon="11.408568633582336"><ele>175.66666666666666</ele><time>2026-04-11T13:29:54Z</time></trkpt><trkpt lat="42.976671289310225" lon="11.408540238965344"><ele>174.33333333333334</ele><time>2026-04-11T13:29:55Z</time></trkpt><trkpt lat="42.97658676719496" lon="11.40853035562015"><ele>173.0</ele><time>2026-04-11T13:29:56Z</time></trkpt><trkpt lat="42.976503730022216" lon="11.408529589404711"><ele>171.66666666666669</ele><time>2026-04-11T13:29:57Z</time></trkpt><trkpt lat="42.97643314839709" lon="11.40858245008668"><ele>170.33333333333334</ele><time>2026-04-11T13:29:58Z</time></trkpt><trkpt lat="42.97637182803309" lon="11.408678556809553"><ele>169.0</ele><time>2026-04-11T13:29:59Z</time></trkpt><trkpt lat="42.976336032125204" lon="11.408782027557935"><ele>170.0</ele><time>2026-04-11T13:30:00Z</time></trkpt><trkpt lat="42.97631986587268" lon="11.408895579586925"><ele>171.0</ele><time>2026-04-11T13:30:01Z</time></trkpt><trkpt lat="42.97632270773336" lon="11.409005469621698"><ele>172.0</ele><time>2026-04-11T13:30:02Z</time></trkpt><trkpt lat="42.976318270851436" lon="11.409099639852162"><ele>173.0</ele><time>2026-04-11T13:30:03Z</time></trkpt><trkpt lat="42.976307820210444" lon="11.409187669872924"><ele>174.0</ele><time>2026-04-11T13:30:04Z</time></trkpt><trkpt lat="42.976262845103285" lon="11.40936033974274"><ele>175.0</ele><time>2026-04-11T13:30:06Z</time></trkpt><trkpt lat="42.97622867824547" lon="11.409434721518622"><ele>175.0</ele><time>2026-04-11T13:30:07Z</time></trkpt><trkpt lat="42.97616295844491" lon="11.409587123543515"><ele>175.0</ele><time>2026-04-11T13:30:09Z</time></trkpt><trkpt lat="42.976092859625766" lon="11.409733319292778"><ele>175.0</ele><time>2026-04-11T13:30:11Z</time></trkpt><trkpt lat="42.97604803898478" lon="11.409798775785102"><ele>175.0</ele><time>2026-04-11T13:30:12Z</time></trkpt><trkpt lat="42.97598963896949" lon="11.409861355547228"><ele>175.0</ele><time>2026-04-11T13:30:13Z</time></trkpt><trkpt lat="42.97592249036991" lon="11.40991142673018"><ele>172.8</ele><time>2026-04-11T13:30:14Z</time></trkpt><trkpt lat="42.9758412756339" lon="11.409940734138498"><ele>170.6</ele><time>2026-04-11T13:30:15Z</time></trkpt><trkpt lat="42.975746485985034" lon="11.409990216541896"><ele>168.39999999999998</ele><time>2026-04-11T13:30:16Z</time></trkpt><trkpt lat="42.97566584443419" lon="11.410060282608187"><ele>166.2</ele><time>2026-04-11T13:30:17Z</time></trkpt><trkpt lat="42.97557272801312" lon="11.410113516112732"><ele>164.0</ele><time>2026-04-11T13:30:18Z</time></trkpt><trkpt lat="42.97548491995357" lon="11.410161011919557"><ele>164.0</ele><time>2026-04-11T13:30:19Z</time></trkpt><trkpt lat="42.97539822859102" lon="11.41019695735579"><ele>164.0</ele><time>2026-04-11T13:30:20Z</time></trkpt><trkpt lat="42.97533560395148" lon="11.410282206458373"><ele>164.0</ele><time>2026-04-11T13:30:21Z</time></trkpt><trkpt lat="42.975269721621366" lon="11.410341897411284"><ele>164.0</ele><time>2026-04-11T13:30:21.999Z</time></trkpt><trkpt lat="42.975220829009295" lon="11.41043765781601"><ele>164.0</ele><time>2026-04-11T13:30:22.999Z</time></trkpt><trkpt lat="42.97518149991249" lon="11.410560522712839"><ele>164.0</ele><time>2026-04-11T13:30:24Z</time></trkpt><trkpt lat="42.975155997422725" lon="11.410689108934273"><ele>164.6</ele><time>2026-04-11T13:30:25Z</time></trkpt><trkpt lat="42.97512530436493" lon="11.41081588755878"><ele>165.2</ele><time>2026-04-11T13:30:26Z</time></trkpt><trkpt lat="42.97508260293091" lon="11.410941058963441"><ele>165.79999999999998</ele><time>2026-04-11T13:30:27Z</time></trkpt><trkpt lat="42.975019841156744" lon="11.411057935706502"><ele>166.39999999999998</ele><time>2026-04-11T13:30:28Z</time></trkpt><trkpt lat="42.974942444216914" lon="11.41116400362282"><ele>167.0</ele><time>2026-04-11T13:30:29Z</time></trkpt><trkpt lat="42.974873589389" lon="11.411275515547796"><ele>164.79999999999998</ele><time>2026-04-11T13:30:30Z</time></trkpt><trkpt lat="42.97478904232624" lon="11.411372391346799"><ele>162.6</ele><time>2026-04-11T13:30:31Z</time></trkpt><trkpt lat="42.97471451557891" lon="11.411467269441106"><ele>160.39999999999998</ele><time>2026-04-11T13:30:32Z</time></trkpt><trkpt lat="42.97462981008515" lon="11.411559850256802"><ele>158.2</ele><time>2026-04-11T13:30:33Z</time></trkpt><trkpt lat="42.97455186489587" lon="11.411664127380623"><ele>156.0</ele><time>2026-04-11T13:30:34Z</time></trkpt><trkpt lat="42.97445895871372" lon="11.411748338779159"><ele>156.0</ele><time>2026-04-11T13:30:35Z</time></trkpt><trkpt lat="42.97437548179805" lon="11.411849310387716"><ele>156.0</ele><time>2026-04-11T13:30:36Z</time></trkpt><trkpt lat="42.974299580479936" lon="11.411963747736683"><ele>156.0</ele><time>2026-04-11T13:30:37Z</time></trkpt><trkpt lat="42.974200440533835" lon="11.412061035929865"><ele>156.0</ele><time>2026-04-11T13:30:38Z</time></trkpt><trkpt lat="42.97411493326028" lon="11.412164803321902"><ele>153.5</ele><time>2026-04-11T13:30:39Z</time></trkpt><trkpt lat="42.97402871364435" lon="11.412270132725006"><ele>151.0</ele><time>2026-04-11T13:30:40Z</time></trkpt><trkpt lat="42.973943054087904" lon="11.412374777878009"><ele>148.5</ele><time>2026-04-11T13:30:41Z</time></trkpt><trkpt lat="42.97385697353535" lon="11.412479937375917"><ele>146.0</ele><time>2026-04-11T13:30:42Z</time></trkpt><trkpt lat="42.97376911399296" lon="11.41258859472706"><ele>146.0</ele><time>2026-04-11T13:30:43Z</time></trkpt><trkpt lat="42.97368414212702" lon="11.412693686997489"><ele>146.0</ele><time>2026-04-11T13:30:44Z</time></trkpt><trkpt lat="42.97359750132539" lon="11.412800843556397"><ele>146.0</ele><time>2026-04-11T13:30:45Z</time></trkpt><trkpt lat="42.97350844839839" lon="11.412910984672415"><ele>146.0</ele><time>2026-04-11T13:30:46Z</time></trkpt><trkpt lat="42.973418956529464" lon="11.413021667328673"><ele>143.75</ele><time>2026-04-11T13:30:47Z</time></trkpt><trkpt lat="42.97332781806918" lon="11.413134386505789"><ele>141.5</ele><time>2026-04-11T13:30:48Z</time></trkpt><trkpt lat="42.97323340077243" lon="11.413251160898442"><ele>139.25</ele><time>2026-04-11T13:30:49Z</time></trkpt><trkpt lat="42.97313856404841" lon="11.413369689839602"><ele>137.0</ele><time>2026-04-11T13:30:50Z</time></trkpt><trkpt lat="42.97304446336432" lon="11.413489543470368"><ele>137.0</ele><time>2026-04-11T13:30:51Z</time></trkpt><trkpt lat="42.97294825723907" lon="11.4136137355056"><ele>137.0</ele><time>2026-04-11T13:30:52Z</time></trkpt><trkpt lat="42.97285290722364" lon="11.41373778595547"><ele>137.0</ele><time>2026-04-11T13:30:53Z</time></trkpt><trkpt lat="42.9727569183547" lon="11.413862667526823"><ele>137.0</ele><time>2026-04-11T13:30:54Z</time></trkpt><trkpt lat="42.97266590565363" lon="11.413981075167596"><ele>135.0</ele><time>2026-04-11T13:30:55Z</time></trkpt><trkpt lat="42.97257430396339" lon="11.414100248949438"><ele>133.0</ele><time>2026-04-11T13:30:56Z</time></trkpt><trkpt lat="42.97248195728773" lon="11.414221036415201"><ele>131.0</ele><time>2026-04-11T13:30:57Z</time></trkpt><trkpt lat="42.97239702958152" lon="11.414338411787128"><ele>129.0</ele><time>2026-04-11T13:30:58Z</time></trkpt><trkpt lat="42.97230986981053" lon="11.41445545114502"><ele>129.0</ele><time>2026-04-11T13:30:59Z</time></trkpt><trkpt lat="42.972220917875234" lon="11.414566332511178"><ele>129.0</ele><time>2026-04-11T13:31:00Z</time></trkpt><trkpt lat="42.97212508893163" lon="11.414671603434401"><ele>129.0</ele><time>2026-04-11T13:31:01Z</time></trkpt><trkpt lat="42.97201680574483" lon="11.414768460797358"><ele>129.0</ele><time>2026-04-11T13:31:02Z</time></trkpt><trkpt lat="42.97190400074657" lon="11.414854400788382"><ele>127.25</ele><time>2026-04-11T13:31:03Z</time></trkpt><trkpt lat="42.97178742413517" lon="11.414937132969424"><ele>125.5</ele><time>2026-04-11T13:31:04Z</time></trkpt><trkpt lat="42.97167799835236" lon="11.415037142073595"><ele>123.75</ele><time>2026-04-11T13:31:05Z</time></trkpt><trkpt lat="42.97155469248006" lon="11.415095502251008"><ele>122.0</ele><time>2026-04-11T13:31:06Z</time></trkpt><trkpt lat="42.97144608367761" lon="11.415161922371853"><ele>121.75</ele><time>2026-04-11T13:31:07Z</time></trkpt><trkpt lat="42.971341198143705" lon="11.415242990794932"><ele>121.5</ele><time>2026-04-11T13:31:08Z</time></trkpt><trkpt lat="42.97122987080683" lon="11.415307152727586"><ele>121.25</ele><time>2026-04-11T13:31:09Z</time></trkpt><trkpt lat="42.971121570620575" lon="11.415367985803396"><ele>121.0</ele><time>2026-04-11T13:31:10Z</time></trkpt><trkpt lat="42.97101781901777" lon="11.415429261180666"><ele>120.0</ele><time>2026-04-11T13:31:11Z</time></trkpt><trkpt lat="42.970915906030434" lon="11.415491547605635"><ele>119.0</ele><time>2026-04-11T13:31:12Z</time></trkpt><trkpt lat="42.970816431906194" lon="11.415549624767289"><ele>118.0</ele><time>2026-04-11T13:31:13Z</time></trkpt><trkpt lat="42.97071748488204" lon="11.415606728869477"><ele>117.0</ele><time>2026-04-11T13:31:14Z</time></trkpt><trkpt lat="42.97062604370057" lon="11.415659650199778"><ele>116.0</ele><time>2026-04-11T13:31:15Z</time></trkpt><trkpt lat="42.970531648932436" lon="11.415712645703225"><ele>115.8</ele><time>2026-04-11T13:31:16Z</time></trkpt><trkpt lat="42.970436113015694" lon="11.415748277612705"><ele>115.6</ele><time>2026-04-11T13:31:17Z</time></trkpt><trkpt lat="42.97035283294079" lon="11.415818757860949"><ele>115.4</ele><time>2026-04-11T13:31:18Z</time></trkpt><trkpt lat="42.97026926616221" lon="11.415866919392956"><ele>115.2</ele><time>2026-04-11T13:31:19Z</time></trkpt><trkpt lat="42.970185087364264" lon="11.415907887191413"><ele>115.0</ele><time>2026-04-11T13:31:20Z</time></trkpt><trkpt lat="42.97010100159289" lon="11.415958017002085"><ele>114.66666666666667</ele><time>2026-04-11T13:31:21Z</time></trkpt><trkpt lat="42.970018464176924" lon="11.416000969458603"><ele>114.33333333333334</ele><time>2026-04-11T13:31:22Z</time></trkpt><trkpt lat="42.96993866878158" lon="11.41604182846081"><ele>114.0</ele><time>2026-04-11T13:31:23Z</time></trkpt><trkpt lat="42.9698601827757" lon="11.416092688014547"><ele>113.66666666666666</ele><time>2026-04-11T13:31:24Z</time></trkpt><trkpt lat="42.969774917034115" lon="11.41613619245834"><ele>113.33333333333333</ele><time>2026-04-11T13:31:25Z</time></trkpt><trkpt lat="42.96969865811653" lon="11.416185714188144"><ele>113.0</ele><time>2026-04-11T13:31:26Z</time></trkpt><trkpt lat="42.96961829025472" lon="11.416234375827326"><ele>112.99999999999999</ele><time>2026-04-11T13:31:27Z</time></trkpt><trkpt lat="42.969539095021325" lon="11.41627858891614"><ele>113.0</ele><time>2026-04-11T13:31:28Z</time></trkpt><trkpt lat="42.96945970125965" lon="11.416313541121488"><ele>113.0</ele><time>2026-04-11T13:31:29Z</time></trkpt><trkpt lat="42.969384312162035" lon="11.416348963658807"><ele>113.0</ele><time>2026-04-11T13:31:30Z</time></trkpt><trkpt lat="42.96931202470881" lon="11.416387136647732"><ele>112.99999999999999</ele><time>2026-04-11T13:31:31Z</time></trkpt><trkpt lat="42.969245013020746" lon="11.416432784707412"><ele>113.0</ele><time>2026-04-11T13:31:32Z</time></trkpt><trkpt lat="42.96918348319111" lon="11.416472647400653"><ele>112.60000000000001</ele><time>2026-04-11T13:31:33Z</time></trkpt><trkpt lat="42.969069327035626" lon="11.416498818835718"><ele>112.20000000000002</ele><time>2026-04-11T13:31:35Z</time></trkpt><trkpt lat="42.96897371459307" lon="11.416514164751053"><ele>111.8</ele><time>2026-04-11T13:31:37Z</time></trkpt><trkpt lat="42.96887946231021" lon="11.41656334233223"><ele>111.4</ele><time>2026-04-11T13:31:39Z</time></trkpt><trkpt lat="42.968773636155134" lon="11.416656117578691"><ele>111.0</ele><time>2026-04-11T13:31:41Z</time></trkpt><trkpt lat="42.96869842342109" lon="11.416792381607847"><ele>111.0</ele><time>2026-04-11T13:31:43Z</time></trkpt><trkpt lat="42.968699584729656" lon="11.41690739841226"><ele>111.0</ele><time>2026-04-11T13:31:44Z</time></trkpt><trkpt lat="42.968720782760364" lon="11.417001902833347"><ele>111.0</ele><time>2026-04-11T13:31:45Z</time></trkpt><trkpt lat="42.96872716432615" lon="11.417148353740505"><ele>111.0</ele><time>2026-04-11T13:31:47Z</time></trkpt><trkpt lat="42.96875527313247" lon="11.41728934521365"><ele>111.0</ele><time>2026-04-11T13:31:49Z</time></trkpt><trkpt lat="42.96879047206787" lon="11.417401769390183"><ele>111.28571428571428</ele><time>2026-04-11T13:31:51Z</time></trkpt><trkpt lat="42.96881617138507" lon="11.417513309647974"><ele>111.57142857142858</ele><time>2026-04-11T13:31:54Z</time></trkpt><trkpt lat="42.96884017799052" lon="11.417598898195493"><ele>111.85714285714286</ele><time>2026-04-11T13:31:58Z</time></trkpt><trkpt lat="42.968864434621366" lon="11.417687136261428"><ele>112.14285714285714</ele><time>2026-04-11T13:32:02Z</time></trkpt><trkpt lat="42.96889536217842" lon="11.417778587767527"><ele>112.42857142857142</ele><time>2026-04-11T13:32:07Z</time></trkpt><trkpt lat="42.96891646836425" lon="11.417865569553339"><ele>112.71428571428572</ele><time>2026-04-11T13:32:11.999Z</time></trkpt><trkpt lat="42.96893549285178" lon="11.417956894199719"><ele>113.0</ele><time>2026-04-11T13:32:16.999Z</time></trkpt><trkpt lat="42.968942481298114" lon="11.418049146248592"><ele>115.0</ele><time>2026-04-11T13:32:21.999Z</time></trkpt><trkpt lat="42.968941963037366" lon="11.418147934056309"><ele>117.0</ele><time>2026-04-11T13:32:27.999Z</time></trkpt><trkpt lat="42.968920209533" lon="11.41823293337367"><ele>119.0</ele><time>2026-04-11T13:32:33Z</time></trkpt><trkpt lat="42.968881407005895" lon="11.418305977393185"><ele>121.0</ele><time>2026-04-11T13:32:38Z</time></trkpt><trkpt lat="42.96883376451951" lon="11.41837361590392"><ele>123.0</ele><time>2026-04-11T13:32:42Z</time></trkpt><trkpt lat="42.96877019352305" lon="11.41843045868475"><ele>125.0</ele><time>2026-04-11T13:32:47Z</time></trkpt><trkpt lat="42.96871899121589" lon="11.418488343601643"><ele>127.0</ele><time>2026-04-11T13:32:51Z</time></trkpt><trkpt lat="42.96867046961711" lon="11.418554613597449"><ele>127.0</ele><time>2026-04-11T13:32:56Z</time></trkpt><trkpt lat="42.96860540841268" lon="11.41860063624626"><ele>127.0</ele><time>2026-04-11T13:33:01Z</time></trkpt><trkpt lat="42.96854967257511" lon="11.418665743590042"><ele>127.0</ele><time>2026-04-11T13:33:06Z</time></trkpt><trkpt lat="42.96849304847851" lon="11.418732235377059"><ele>127.0</ele><time>2026-04-11T13:33:11Z</time></trkpt><trkpt lat="42.96844833905865" lon="11.418813550275743"><ele>127.0</ele><time>2026-04-11T13:33:16Z</time></trkpt><trkpt lat="42.96840631642199" lon="11.418902976777707"><ele>127.0</ele><time>2026-04-11T13:33:21Z</time></trkpt><trkpt lat="42.96837810411066" lon="11.418982876656994"><ele>127.0</ele><time>2026-04-11T13:33:25Z</time></trkpt><trkpt lat="42.968358599377076" lon="11.419084483014034"><ele>128.0</ele><time>2026-04-11T13:33:30Z</time></trkpt><trkpt lat="42.9683489969395" lon="11.419180679186853"><ele>129.0</ele><time>2026-04-11T13:33:34Z</time></trkpt><trkpt lat="42.96833699205587" lon="11.419277778898513"><ele>130.0</ele><time>2026-04-11T13:33:38Z</time></trkpt><trkpt lat="42.968320373226824" lon="11.419382385780327"><ele>131.0</ele><time>2026-04-11T13:33:42Z</time></trkpt><trkpt lat="42.968302277189075" lon="11.419484066227746"><ele>132.0</ele><time>2026-04-11T13:33:46Z</time></trkpt><trkpt lat="42.96829776307122" lon="11.419574314761675"><ele>133.0</ele><time>2026-04-11T13:33:49Z</time></trkpt><trkpt lat="42.96829864002175" lon="11.419662893928312"><ele>134.0</ele><time>2026-04-11T13:33:52Z</time></trkpt><trkpt lat="42.9682752558151" lon="11.419765303826875"><ele>134.0</ele><time>2026-04-11T13:33:56Z</time></trkpt><trkpt lat="42.96824662831356" lon="11.419851583595312"><ele>134.0</ele><time>2026-04-11T13:34:00Z</time></trkpt><trkpt lat="42.968236642005756" lon="11.419941351953737"><ele>134.0</ele><time>2026-04-11T13:34:48Z</time></trkpt><trkpt lat="42.968276908408086" lon="11.420033839730163"><ele>134.0</ele><time>2026-04-11T13:34:51Z</time></trkpt><trkpt lat="42.968324442243365" lon="11.420143686014955"><ele>134.0</ele><time>2026-04-11T13:34:53Z</time></trkpt><trkpt lat="42.96836361888784" lon="11.420304357130096"><ele>134.0</ele><time>2026-04-11T13:34:55Z</time></trkpt><trkpt lat="42.968386536208364" lon="11.420396665246292"><ele>134.66666666666666</ele><time>2026-04-11T13:34:56Z</time></trkpt><trkpt lat="42.96841269886792" lon="11.420495116447666"><ele>135.33333333333331</ele><time>2026-04-11T13:34:57Z</time></trkpt><trkpt lat="42.96843854537608" lon="11.420603121202962"><ele>136.0</ele><time>2026-04-11T13:34:58Z</time></trkpt><trkpt lat="42.96845874630491" lon="11.420711417344812"><ele>136.66666666666666</ele><time>2026-04-11T13:34:59Z</time></trkpt><trkpt lat="42.96848121294426" lon="11.420822259243176"><ele>137.33333333333334</ele><time>2026-04-11T13:35:00Z</time></trkpt><trkpt lat="42.968508249527645" lon="11.420930440826172"><ele>138.0</ele><time>2026-04-11T13:35:01Z</time></trkpt><trkpt lat="42.9685242054745" lon="11.421033567225681"><ele>138.0</ele><time>2026-04-11T13:35:02Z</time></trkpt><trkpt lat="42.968555749320835" lon="11.421131249514499"><ele>138.0</ele><time>2026-04-11T13:35:03Z</time></trkpt><trkpt lat="42.96857770466026" lon="11.421224707195933"><ele>138.0</ele><time>2026-04-11T13:35:04Z</time></trkpt><trkpt lat="42.96860042492961" lon="11.421316498235651"><ele>138.0</ele><time>2026-04-11T13:35:05Z</time></trkpt><trkpt lat="42.968621484777564" lon="11.421409478365048"><ele>138.0</ele><time>2026-04-11T13:35:06Z</time></trkpt><trkpt lat="42.968638788089685" lon="11.421496297414388"><ele>138.0</ele><time>2026-04-11T13:35:07Z</time></trkpt><trkpt lat="42.96865914323161" lon="11.421583984718675"><ele>138.0</ele><time>2026-04-11T13:35:08Z</time></trkpt><trkpt lat="42.96868119468216" lon="11.421669710680767"><ele>138.33333333333334</ele><time>2026-04-11T13:35:09Z</time></trkpt><trkpt lat="42.96870334933217" lon="11.421756458333245"><ele>138.66666666666666</ele><time>2026-04-11T13:35:10Z</time></trkpt><trkpt lat="42.968725920005944" lon="11.421841197417967"><ele>139.0</ele><time>2026-04-11T13:35:11Z</time></trkpt><trkpt lat="42.968744435167615" lon="11.421927878331246"><ele>139.33333333333331</ele><time>2026-04-11T13:35:12Z</time></trkpt><trkpt lat="42.96876213121544" lon="11.422013024786956"><ele>139.66666666666666</ele><time>2026-04-11T13:35:13Z</time></trkpt><trkpt lat="42.968797098154475" lon="11.422186698708563"><ele>140.0</ele><time>2026-04-11T13:35:15Z</time></trkpt><trkpt lat="42.96881349824137" lon="11.422270557665277"><ele>140.0</ele><time>2026-04-11T13:35:16Z</time></trkpt><trkpt lat="42.9688282524706" lon="11.422356348494375"><ele>140.0</ele><time>2026-04-11T13:35:17Z</time></trkpt><trkpt lat="42.96883068626321" lon="11.422518429513694"><ele>140.0</ele><time>2026-04-11T13:35:19Z</time></trkpt><trkpt lat="42.96883072103754" lon="11.422673278472901"><ele>140.0</ele><time>2026-04-11T13:35:21Z</time></trkpt><trkpt lat="42.9688239535816" lon="11.42281594458698"><ele>140.0</ele><time>2026-04-11T13:35:23Z</time></trkpt><trkpt lat="42.96880879645935" lon="11.42295738765495"><ele>140.4</ele><time>2026-04-11T13:35:25Z</time></trkpt><trkpt lat="42.96879711905565" lon="11.423085835213655"><ele>140.8</ele><time>2026-04-11T13:35:27Z</time></trkpt><trkpt lat="42.96878928454215" lon="11.423208272695899"><ele>141.2</ele><time>2026-04-11T13:35:29Z</time></trkpt><trkpt lat="42.9687810765733" lon="11.423329643071456"><ele>141.6</ele><time>2026-04-11T13:35:31Z</time></trkpt><trkpt lat="42.96876502766211" lon="11.423458276670859"><ele>142.0</ele><time>2026-04-11T13:35:33Z</time></trkpt><trkpt lat="42.96874507994924" lon="11.423595111195647"><ele>142.0</ele><time>2026-04-11T13:35:35Z</time></trkpt><trkpt lat="42.96873163496765" lon="11.423742243560058"><ele>142.0</ele><time>2026-04-11T13:35:37Z</time></trkpt><trkpt lat="42.968703017391135" lon="11.423886975370685"><ele>142.0</ele><time>2026-04-11T13:35:39Z</time></trkpt><trkpt lat="42.96865752960588" lon="11.424027281301187"><ele>142.0</ele><time>2026-04-11T13:35:41Z</time></trkpt><trkpt lat="42.96861410608838" lon="11.424166380173226"><ele>142.0</ele><time>2026-04-11T13:35:43Z</time></trkpt><trkpt lat="42.968565715214055" lon="11.424306286991055"><ele>142.0</ele><time>2026-04-11T13:35:45Z</time></trkpt><trkpt lat="42.96851638863484" lon="11.424443774148093"><ele>142.0</ele><time>2026-04-11T13:35:47Z</time></trkpt><trkpt lat="42.96846441045424" lon="11.424589364977242"><ele>142.0</ele><time>2026-04-11T13:35:49Z</time></trkpt><trkpt lat="42.9684113027497" lon="11.424741105674562"><ele>142.0</ele><time>2026-04-11T13:35:51Z</time></trkpt><trkpt lat="42.968383032189216" lon="11.42482188096214"><ele>142.0</ele><time>2026-04-11T13:35:52Z</time></trkpt><trkpt lat="42.968355702537515" lon="11.424899967960114"><ele>140.14285714285714</ele><time>2026-04-11T13:35:53Z</time></trkpt><trkpt lat="42.96832782502057" lon="11.424979620431305"><ele>138.28571428571428</ele><time>2026-04-11T13:35:54Z</time></trkpt><trkpt lat="42.968297887424946" lon="11.425065155595629"><ele>136.42857142857142</ele><time>2026-04-11T13:35:55Z</time></trkpt><trkpt lat="42.968281026582844" lon="11.425163642253217"><ele>134.57142857142856</ele><time>2026-04-11T13:35:56Z</time></trkpt><trkpt lat="42.96823863856967" lon="11.42523438050132"><ele>132.71428571428572</ele><time>2026-04-11T13:35:57Z</time></trkpt><trkpt lat="42.96820809287255" lon="11.425321624437258"><ele>130.85714285714283</ele><time>2026-04-11T13:35:58Z</time></trkpt><trkpt lat="42.96817959381833" lon="11.42540302256648"><ele>129.0</ele><time>2026-04-11T13:35:59Z</time></trkpt><trkpt lat="42.96814947699349" lon="11.425489041496858"><ele>128.66666666666666</ele><time>2026-04-11T13:36:00Z</time></trkpt><trkpt lat="42.9681188744516" lon="11.425579765875119"><ele>128.33333333333334</ele><time>2026-04-11T13:36:01Z</time></trkpt><trkpt lat="42.968088054845346" lon="11.425672926844392"><ele>128.0</ele><time>2026-04-11T13:36:02Z</time></trkpt><trkpt lat="42.96805497474391" lon="11.425772920626482"><ele>127.66666666666667</ele><time>2026-04-11T13:36:03Z</time></trkpt><trkpt lat="42.96802450676878" lon="11.425883850771216"><ele>127.33333333333334</ele><time>2026-04-11T13:36:04Z</time></trkpt><trkpt lat="42.96799287561378" lon="11.425995158732466"><ele>127.0</ele><time>2026-04-11T13:36:05Z</time></trkpt><trkpt lat="42.96795666650603" lon="11.426113398481643"><ele>127.0</ele><time>2026-04-11T13:36:06Z</time></trkpt><trkpt lat="42.96791518265943" lon="11.426238788351034"><ele>126.99999999999999</ele><time>2026-04-11T13:36:07Z</time></trkpt><trkpt lat="42.96786453105069" lon="11.426340204861667"><ele>126.99999999999999</ele><time>2026-04-11T13:36:08Z</time></trkpt><trkpt lat="42.96781648960185" lon="11.4264539333366"><ele>127.0</ele><time>2026-04-11T13:36:09Z</time></trkpt><trkpt lat="42.96774876503379" lon="11.42654721154577"><ele>127.0</ele><time>2026-04-11T13:36:10Z</time></trkpt><trkpt lat="42.9676829621156" lon="11.426628310784208"><ele>126.33333333333334</ele><time>2026-04-11T13:36:11Z</time></trkpt><trkpt lat="42.967625708577394" lon="11.426697035823464"><ele>125.66666666666667</ele><time>2026-04-11T13:36:12Z</time></trkpt><trkpt lat="42.96757775184355" lon="11.426760362717848"><ele>125.0</ele><time>2026-04-11T13:36:13Z</time></trkpt><trkpt lat="42.96750914731258" lon="11.42685310929351"><ele>124.33333333333334</ele><time>2026-04-11T13:36:15Z</time></trkpt><trkpt lat="42.96744138099349" lon="11.426940648587593"><ele>123.66666666666667</ele><time>2026-04-11T13:36:18Z</time></trkpt><trkpt lat="42.967368794634794" lon="11.427015529517876"><ele>123.0</ele><time>2026-04-11T13:36:20Z</time></trkpt><trkpt lat="42.96728894039333" lon="11.427147588663553"><ele>123.0</ele><time>2026-04-11T13:36:22Z</time></trkpt><trkpt lat="42.96724555182844" lon="11.42721970635718"><ele>123.0</ele><time>2026-04-11T13:36:23Z</time></trkpt><trkpt lat="42.967195371982875" lon="11.427297769126664"><ele>123.0</ele><time>2026-04-11T13:36:24Z</time></trkpt><trkpt lat="42.9671431972337" lon="11.427382147011109"><ele>123.0</ele><time>2026-04-11T13:36:25Z</time></trkpt><trkpt lat="42.967088972408824" lon="11.427473963027365"><ele>123.0</ele><time>2026-04-11T13:36:26Z</time></trkpt><trkpt lat="42.96703574585345" lon="11.427564087001258"><ele>123.0</ele><time>2026-04-11T13:36:27Z</time></trkpt><trkpt lat="42.96698302788731" lon="11.427658065253215"><ele>123.0</ele><time>2026-04-11T13:36:28Z</time></trkpt><trkpt lat="42.96692687088885" lon="11.427756000718661"><ele>123.0</ele><time>2026-04-11T13:36:29Z</time></trkpt><trkpt lat="42.96687273985622" lon="11.427847838401554"><ele>123.0</ele><time>2026-04-11T13:36:30Z</time></trkpt><trkpt lat="42.96682172593993" lon="11.427934193388856"><ele>123.0</ele><time>2026-04-11T13:36:31Z</time></trkpt><trkpt lat="42.96677473299777" lon="11.42801270455114"><ele>123.0</ele><time>2026-04-11T13:36:32Z</time></trkpt><trkpt lat="42.966732009737726" lon="11.428082385215488"><ele>123.0</ele><time>2026-04-11T13:36:33Z</time></trkpt><trkpt lat="42.96666753626316" lon="11.4282105859791"><ele>121.66666666666667</ele><time>2026-04-11T13:36:35Z</time></trkpt><trkpt lat="42.96659835185198" lon="11.428266028114152"><ele>120.33333333333334</ele><time>2026-04-11T13:36:37Z</time></trkpt><trkpt lat="42.96653494618484" lon="11.428340358831166"><ele>119.0</ele><time>2026-04-11T13:36:40Z</time></trkpt><trkpt lat="42.96652712150872" lon="11.42846260918569"><ele>117.66666666666667</ele><time>2026-04-11T13:36:42Z</time></trkpt><trkpt lat="42.96650012113133" lon="11.428559970027747"><ele>116.33333333333334</ele><time>2026-04-11T13:37:11Z</time></trkpt><trkpt lat="42.96644221533863" lon="11.428629500178392"><ele>115.0</ele><time>2026-04-11T13:37:15Z</time></trkpt><trkpt lat="42.96643227330178" lon="11.428721941353336"><ele>115.00000000000001</ele><time>2026-04-11T13:37:19Z</time></trkpt><trkpt lat="42.96644888605994" lon="11.428830492036875"><ele>115.0</ele><time>2026-04-11T13:37:22Z</time></trkpt><trkpt lat="42.96643882139942" lon="11.428734597571733"><ele>115.0</ele><time>2026-04-11T13:37:31Z</time></trkpt><trkpt lat="42.966443849333345" lon="11.42863517195617"><ele>115.0</ele><time>2026-04-11T13:37:34Z</time></trkpt><trkpt lat="42.96648485169492" lon="11.42852731899466"><ele>115.00000000000001</ele><time>2026-04-11T13:37:37Z</time></trkpt><trkpt lat="42.96652102133688" lon="11.428434234298527"><ele>115.0</ele><time>2026-04-11T13:37:40Z</time></trkpt><trkpt lat="42.96655708688198" lon="11.428348816129223"><ele>115.0</ele><time>2026-04-11T13:37:43Z</time></trkpt><trkpt lat="42.96659331460008" lon="11.428252411182715"><ele>115.0</ele><time>2026-04-11T13:37:46Z</time></trkpt><trkpt lat="42.96653760023086" lon="11.428307325822585"><ele>115.0</ele><time>2026-04-11T13:37:48Z</time></trkpt><trkpt lat="42.96637064429999" lon="11.428195520050966"><ele>115.0</ele><time>2026-04-11T13:38:41.999Z</time></trkpt><trkpt lat="42.96638040301271" lon="11.4282926145656"><ele>115.0</ele><time>2026-04-11T13:38:44.999Z</time></trkpt><trkpt lat="42.966340468905216" lon="11.428367816018968"><ele>115.00000000000001</ele><time>2026-04-11T13:38:48Z</time></trkpt><trkpt lat="42.96631469865369" lon="11.428446391582533"><ele>115.0</ele><time>2026-04-11T13:38:52Z</time></trkpt><trkpt lat="42.96625120752845" lon="11.42845524350052"><ele>115.0</ele><time>2026-04-11T13:39:12Z</time></trkpt><trkpt lat="42.966198425317145" lon="11.428395342971656"><ele>115.0</ele><time>2026-04-11T13:39:19Z</time></trkpt><trkpt lat="42.966134325479956" lon="11.428513979295738"><ele>115.00000000000001</ele><time>2026-04-11T13:40:49.999Z</time></trkpt><trkpt lat="42.966227711142345" lon="11.428501887821879"><ele>115.0</ele><time>2026-04-11T13:41:10Z</time></trkpt><trkpt lat="42.96630043191336" lon="11.428491900054498"><ele>115.00000000000001</ele><time>2026-04-11T13:41:14Z</time></trkpt><trkpt lat="42.966384975470135" lon="11.428504850783234"><ele>115.0</ele><time>2026-04-11T13:41:18Z</time></trkpt><trkpt lat="42.96643998246058" lon="11.428576340928155"><ele>115.0</ele><time>2026-04-11T13:41:22Z</time></trkpt><trkpt lat="42.9664588890144" lon="11.42867918427106"><ele>115.0</ele><time>2026-04-11T13:41:25Z</time></trkpt><trkpt lat="42.966456970433455" lon="11.428768259292978"><ele>115.00000000000001</ele><time>2026-04-11T13:41:27Z</time></trkpt><trkpt lat="42.966443083115" lon="11.42889202320084"><ele>115.0</ele><time>2026-04-11T13:41:30Z</time></trkpt><trkpt lat="42.96642537836846" lon="11.428995201744272"><ele>115.00000000000001</ele><time>2026-04-11T13:41:33Z</time></trkpt><trkpt lat="42.96640571716446" lon="11.429110049298654"><ele>115.0</ele><time>2026-04-11T13:41:36Z</time></trkpt><trkpt lat="42.96639973832488" lon="11.429208271528786"><ele>115.0</ele><time>2026-04-11T13:41:39Z</time></trkpt><trkpt lat="42.96637931793601" lon="11.42932425084889"><ele>115.0</ele><time>2026-04-11T13:41:42Z</time></trkpt><trkpt lat="42.9663732386288" lon="11.429437267760896"><ele>115.00000000000001</ele><time>2026-04-11T13:41:45Z</time></trkpt><trkpt lat="42.96637135457687" lon="11.429552527008866"><ele>115.0</ele><time>2026-04-11T13:41:48Z</time></trkpt><trkpt lat="42.96636988794986" lon="11.429639982266117"><ele>114.83333333333334</ele><time>2026-04-11T13:41:50Z</time></trkpt><trkpt lat="42.96637793869889" lon="11.42976285658401"><ele>114.66666666666667</ele><time>2026-04-11T13:41:53Z</time></trkpt><trkpt lat="42.96637742579929" lon="11.429858820998264"><ele>114.5</ele><time>2026-04-11T13:41:55Z</time></trkpt><trkpt lat="42.96638074055969" lon="11.429955622474028"><ele>114.33333333333334</ele><time>2026-04-11T13:41:57Z</time></trkpt><trkpt lat="42.96639614623788" lon="11.430046750890318"><ele>114.16666666666667</ele><time>2026-04-11T13:41:59Z</time></trkpt><trkpt lat="42.96640595602184" lon="11.430158640383794"><ele>114.0</ele><time>2026-04-11T13:42:02Z</time></trkpt><trkpt lat="42.96642504077473" lon="11.43026163439327"><ele>114.0</ele><time>2026-04-11T13:42:05Z</time></trkpt><trkpt lat="42.96642911224356" lon="11.430356870760505"><ele>114.0</ele><time>2026-04-11T13:42:08Z</time></trkpt><trkpt lat="42.96644567448879" lon="11.430443803504122"><ele>114.0</ele><time>2026-04-11T13:42:10Z</time></trkpt><trkpt lat="42.96646171140897" lon="11.43055792600465"><ele>114.0</ele><time>2026-04-11T13:42:13Z</time></trkpt><trkpt lat="42.96647800796971" lon="11.430680191516812"><ele>114.0</ele><time>2026-04-11T13:42:16Z</time></trkpt><trkpt lat="42.966489862987416" lon="11.430770921152314"><ele>114.0</ele><time>2026-04-11T13:42:18Z</time></trkpt><trkpt lat="42.96650961981177" lon="11.4308719187023"><ele>114.0</ele><time>2026-04-11T13:42:20Z</time></trkpt><trkpt lat="42.96652727258001" lon="11.430981288164391"><ele>114.0</ele><time>2026-04-11T13:42:22Z</time></trkpt><trkpt lat="42.96654957438112" lon="11.431105349180749"><ele>114.0</ele><time>2026-04-11T13:42:24Z</time></trkpt><trkpt lat="42.966575574030344" lon="11.43124058224921"><ele>114.0</ele><time>2026-04-11T13:42:26Z</time></trkpt><trkpt lat="42.966547927148056" lon="11.431322469984593"><ele>114.0</ele><time>2026-04-11T13:42:27Z</time></trkpt><trkpt lat="42.966571947072644" lon="11.431473936121398"><ele>113.6</ele><time>2026-04-11T13:42:29Z</time></trkpt><trkpt lat="42.9665810388794" lon="11.431559280052522"><ele>113.2</ele><time>2026-04-11T13:42:30Z</time></trkpt><trkpt lat="42.96658061902683" lon="11.431716000859364"><ele>112.79999999999998</ele><time>2026-04-11T13:42:32Z</time></trkpt><trkpt lat="42.966569508028414" lon="11.431880299068496"><ele>112.39999999999999</ele><time>2026-04-11T13:42:34Z</time></trkpt><trkpt lat="42.96655105178706" lon="11.432048358271473"><ele>112.0</ele><time>2026-04-11T13:42:36Z</time></trkpt><trkpt lat="42.96653317924614" lon="11.432220903646835"><ele>112.0</ele><time>2026-04-11T13:42:38Z</time></trkpt><trkpt lat="42.96651786540921" lon="11.432378151828704"><ele>112.0</ele><time>2026-04-11T13:42:39.999Z</time></trkpt><trkpt lat="42.96650165388924" lon="11.432542228695441"><ele>112.0</ele><time>2026-04-11T13:42:41.999Z</time></trkpt><trkpt lat="42.96648543652974" lon="11.432700232111515"><ele>112.0</ele><time>2026-04-11T13:42:43.999Z</time></trkpt><trkpt lat="42.96647036128459" lon="11.432842646413832"><ele>112.19999999999999</ele><time>2026-04-11T13:42:45.999Z</time></trkpt><trkpt lat="42.966454884127614" lon="11.432987355808768"><ele>112.39999999999999</ele><time>2026-04-11T13:42:47.999Z</time></trkpt><trkpt lat="42.96644088122781" lon="11.433121370785646"><ele>112.60000000000001</ele><time>2026-04-11T13:42:49.999Z</time></trkpt><trkpt lat="42.966428909404456" lon="11.433241474149112"><ele>112.80000000000001</ele><time>2026-04-11T13:42:51.999Z</time></trkpt><trkpt lat="42.966417515240764" lon="11.433355782375482"><ele>113.0</ele><time>2026-04-11T13:42:53.999Z</time></trkpt><trkpt lat="42.96640704095846" lon="11.433460861887912"><ele>113.0</ele><time>2026-04-11T13:42:55.999Z</time></trkpt><trkpt lat="42.966395697159264" lon="11.43355605301692"><ele>113.0</ele><time>2026-04-11T13:42:57.999Z</time></trkpt><trkpt lat="42.966384764895594" lon="11.433649354975971"><ele>113.0</ele><time>2026-04-11T13:43:00Z</time></trkpt><trkpt lat="42.9663762361762" lon="11.433739709472848"><ele>113.0</ele><time>2026-04-11T13:43:02Z</time></trkpt><trkpt lat="42.966370148124135" lon="11.433832474303797"><ele>113.0</ele><time>2026-04-11T13:43:04Z</time></trkpt><trkpt lat="42.96636665391097" lon="11.433947536690898"><ele>113.0</ele><time>2026-04-11T13:43:07Z</time></trkpt><trkpt lat="42.96636955550198" lon="11.434055781346729"><ele>113.0</ele><time>2026-04-11T13:43:10Z</time></trkpt><trkpt lat="42.96637687266177" lon="11.434164369681564"><ele>113.49999999999999</ele><time>2026-04-11T13:43:13Z</time></trkpt><trkpt lat="42.96638921840008" lon="11.43427258676658"><ele>114.0</ele><time>2026-04-11T13:43:16Z</time></trkpt><trkpt lat="42.96641139897275" lon="11.434386944916094"><ele>114.5</ele><time>2026-04-11T13:43:19Z</time></trkpt><trkpt lat="42.966435168726264" lon="11.434470866690118"><ele>115.0</ele><time>2026-04-11T13:43:21Z</time></trkpt><trkpt lat="42.966464642672854" lon="11.434549336403881"><ele>115.49999999999999</ele><time>2026-04-11T13:43:23Z</time></trkpt><trkpt lat="42.96651191064454" lon="11.434627147016867"><ele>116.0</ele><time>2026-04-11T13:43:25Z</time></trkpt><trkpt lat="42.96657052981454" lon="11.434710992872047"><ele>116.0</ele><time>2026-04-11T13:43:27Z</time></trkpt><trkpt lat="42.966653079365976" lon="11.434771373227663"><ele>116.0</ele><time>2026-04-11T13:43:29Z</time></trkpt><trkpt lat="42.966721218701686" lon="11.434867918189871"><ele>116.0</ele><time>2026-04-11T13:43:31Z</time></trkpt><trkpt lat="42.966822419243734" lon="11.434949138544072"><ele>116.0</ele><time>2026-04-11T13:43:33Z</time></trkpt><trkpt lat="42.9668924737397" lon="11.435066389941106"><ele>116.0</ele><time>2026-04-11T13:43:35Z</time></trkpt><trkpt lat="42.96697903112176" lon="11.435171043313975"><ele>116.8</ele><time>2026-04-11T13:43:37Z</time></trkpt><trkpt lat="42.96700383478298" lon="11.435303827363084"><ele>117.6</ele><time>2026-04-11T13:43:39Z</time></trkpt><trkpt lat="42.96704470662367" lon="11.435416669738075"><ele>118.4</ele><time>2026-04-11T13:43:41Z</time></trkpt><trkpt lat="42.9670917376082" lon="11.43554865120361"><ele>119.2</ele><time>2026-04-11T13:43:43Z</time></trkpt><trkpt lat="42.967149432579184" lon="11.435670819344347"><ele>120.0</ele><time>2026-04-11T13:43:45Z</time></trkpt><trkpt lat="42.96721590116684" lon="11.435791726874555"><ele>120.0</ele><time>2026-04-11T13:43:47Z</time></trkpt><trkpt lat="42.96726256099749" lon="11.43585380732645"><ele>120.0</ele><time>2026-04-11T13:43:48Z</time></trkpt><trkpt lat="42.96733954153822" lon="11.435984499607486"><ele>120.0</ele><time>2026-04-11T13:43:50Z</time></trkpt><trkpt lat="42.96738153514189" lon="11.43605095190972"><ele>120.0</ele><time>2026-04-11T13:43:51Z</time></trkpt><trkpt lat="42.96741410444873" lon="11.436128080265268"><ele>120.0</ele><time>2026-04-11T13:43:52Z</time></trkpt><trkpt lat="42.967424898830046" lon="11.436220549581275"><ele>120.0</ele><time>2026-04-11T13:43:53Z</time></trkpt><trkpt lat="42.967428993019055" lon="11.43630731912007"><ele>120.0</ele><time>2026-04-11T13:43:54Z</time></trkpt><trkpt lat="42.967437716616146" lon="11.436393280806518"><ele>119.66666666666667</ele><time>2026-04-11T13:43:55Z</time></trkpt><trkpt lat="42.96744752740822" lon="11.436562237362141"><ele>119.33333333333334</ele><time>2026-04-11T13:43:57Z</time></trkpt><trkpt lat="42.96745726692472" lon="11.436647671914265"><ele>119.0</ele><time>2026-04-11T13:43:58Z</time></trkpt><trkpt lat="42.96749579996755" lon="11.436811566167561"><ele>118.66666666666667</ele><time>2026-04-11T13:44:00Z</time></trkpt><trkpt lat="42.96751553651053" lon="11.436897571072475"><ele>118.33333333333334</ele><time>2026-04-11T13:44:01Z</time></trkpt><trkpt lat="42.967537815391175" lon="11.436982328981728"><ele>118.0</ele><time>2026-04-11T13:44:02Z</time></trkpt><trkpt lat="42.967558517190426" lon="11.437071386051826"><ele>118.0</ele><time>2026-04-11T13:44:03Z</time></trkpt><trkpt lat="42.96757227584656" lon="11.437160304175963"><ele>118.0</ele><time>2026-04-11T13:44:04Z</time></trkpt><trkpt lat="42.96757576427067" lon="11.437254986841765"><ele>118.0</ele><time>2026-04-11T13:44:05Z</time></trkpt><trkpt lat="42.96756850304474" lon="11.437352619964946"><ele>118.0</ele><time>2026-04-11T13:44:06Z</time></trkpt><trkpt lat="42.96754850465233" lon="11.437446850819816"><ele>118.0</ele><time>2026-04-11T13:44:07Z</time></trkpt><trkpt lat="42.96753701504847" lon="11.437539169758418"><ele>118.0</ele><time>2026-04-11T13:44:08Z</time></trkpt><trkpt lat="42.967526239217065" lon="11.437630380885281"><ele>118.0</ele><time>2026-04-11T13:44:09Z</time></trkpt><trkpt lat="42.967516208283534" lon="11.437720200341444"><ele>118.0</ele><time>2026-04-11T13:44:10Z</time></trkpt><trkpt lat="42.96750103923319" lon="11.437888940022173"><ele>118.0</ele><time>2026-04-11T13:44:12Z</time></trkpt><trkpt lat="42.96748524296435" lon="11.4380544895136"><ele>118.0</ele><time>2026-04-11T13:44:14Z</time></trkpt><trkpt lat="42.96747895793679" lon="11.438211143692987"><ele>118.0</ele><time>2026-04-11T13:44:16Z</time></trkpt><trkpt lat="42.96747431982334" lon="11.438378504860522"><ele>118.00000000000001</ele><time>2026-04-11T13:44:18Z</time></trkpt><trkpt lat="42.96747176312952" lon="11.438466217391898"><ele>118.0</ele><time>2026-04-11T13:44:19Z</time></trkpt><trkpt lat="42.96747324253261" lon="11.43863734341543"><ele>118.0</ele><time>2026-04-11T13:44:21Z</time></trkpt><trkpt lat="42.96745527400811" lon="11.43872239699941"><ele>118.0</ele><time>2026-04-11T13:44:22Z</time></trkpt><trkpt lat="42.967459854501335" lon="11.438822821062697"><ele>118.00000000000001</ele><time>2026-04-11T13:44:23Z</time></trkpt><trkpt lat="42.96746473278765" lon="11.438914991165127"><ele>118.0</ele><time>2026-04-11T13:44:24Z</time></trkpt><trkpt lat="42.96747719206876" lon="11.439003242108269"><ele>118.5</ele><time>2026-04-11T13:44:25Z</time></trkpt><trkpt lat="42.967483257549574" lon="11.439175753965717"><ele>119.0</ele><time>2026-04-11T13:44:27Z</time></trkpt><trkpt lat="42.96748065801776" lon="11.439351975069046"><ele>119.5</ele><time>2026-04-11T13:44:29Z</time></trkpt><trkpt lat="42.967475230557675" lon="11.439442887185502"><ele>120.0</ele><time>2026-04-11T13:44:30Z</time></trkpt><trkpt lat="42.96744910457982" lon="11.439614332058484"><ele>119.6</ele><time>2026-04-11T13:44:32Z</time></trkpt><trkpt lat="42.96744194597704" lon="11.439783490666574"><ele>119.2</ele><time>2026-04-11T13:44:34Z</time></trkpt><trkpt lat="42.96742039821382" lon="11.439927918683223"><ele>118.80000000000001</ele><time>2026-04-11T13:44:36Z</time></trkpt><trkpt lat="42.96740302503732" lon="11.440054357333267"><ele>118.4</ele><time>2026-04-11T13:44:38Z</time></trkpt><trkpt lat="42.9673926019679" lon="11.440189099660252"><ele>118.0</ele><time>2026-04-11T13:44:40Z</time></trkpt><trkpt lat="42.967396064009634" lon="11.440316550036501"><ele>118.0</ele><time>2026-04-11T13:44:42Z</time></trkpt><trkpt lat="42.967391980137826" lon="11.44045337652882"><ele>118.00000000000001</ele><time>2026-04-11T13:44:44Z</time></trkpt><trkpt lat="42.96738579037995" lon="11.440573547653456"><ele>118.00000000000001</ele><time>2026-04-11T13:44:46Z</time></trkpt><trkpt lat="42.967404839108944" lon="11.440680112627582"><ele>118.0</ele><time>2026-04-11T13:44:48Z</time></trkpt><trkpt lat="42.967423848298566" lon="11.440808142138712"><ele>118.0</ele><time>2026-04-11T13:44:49.999Z</time></trkpt><trkpt lat="42.96745460553136" lon="11.440950355448962"><ele>117.80000000000001</ele><time>2026-04-11T13:44:51.999Z</time></trkpt><trkpt lat="42.96745116113985" lon="11.441098321204711"><ele>117.60000000000001</ele><time>2026-04-11T13:44:53.999Z</time></trkpt><trkpt lat="42.96741434488841" lon="11.44124757927236"><ele>117.39999999999999</ele><time>2026-04-11T13:44:55.999Z</time></trkpt><trkpt lat="42.96739818750498" lon="11.44133931710553"><ele>117.19999999999999</ele><time>2026-04-11T13:44:56.999Z</time></trkpt><trkpt lat="42.96735993178499" lon="11.44141376209472"><ele>117.0</ele><time>2026-04-11T13:44:57.999Z</time></trkpt><trkpt lat="42.96728117824049" lon="11.44155792768904"><ele>117.57142857142858</ele><time>2026-04-11T13:44:59.999Z</time></trkpt><trkpt lat="42.96725121605651" lon="11.44166267336098"><ele>118.14285714285715</ele><time>2026-04-11T13:45:00.999Z</time></trkpt><trkpt lat="42.96722813615288" lon="11.441759874035661"><ele>118.71428571428572</ele><time>2026-04-11T13:45:01.999Z</time></trkpt><trkpt lat="42.967214184163716" lon="11.441857081752566"><ele>119.28571428571428</ele><time>2026-04-11T13:45:02.999Z</time></trkpt><trkpt lat="42.96719876736273" lon="11.441952821310549"><ele>119.85714285714285</ele><time>2026-04-11T13:45:03.999Z</time></trkpt><trkpt lat="42.967183133952226" lon="11.44204325505899"><ele>120.42857142857142</ele><time>2026-04-11T13:45:04.999Z</time></trkpt><trkpt lat="42.96717357269829" lon="11.442138219669982"><ele>121.0</ele><time>2026-04-11T13:45:06Z</time></trkpt><trkpt lat="42.967165837602444" lon="11.442233686745741"><ele>121.83333333333334</ele><time>2026-04-11T13:45:07Z</time></trkpt><trkpt lat="42.967140784449334" lon="11.442317044814462"><ele>122.66666666666667</ele><time>2026-04-11T13:45:08Z</time></trkpt><trkpt lat="42.967130849764374" lon="11.44240461814205"><ele>123.5</ele><time>2026-04-11T13:45:09Z</time></trkpt><trkpt lat="42.967112068809406" lon="11.442570170512933"><ele>124.33333333333334</ele><time>2026-04-11T13:45:11Z</time></trkpt><trkpt lat="42.967102029080614" lon="11.442658669748361"><ele>125.16666666666667</ele><time>2026-04-11T13:45:12Z</time></trkpt><trkpt lat="42.96709396539504" lon="11.442812566570588"><ele>126.0</ele><time>2026-04-11T13:45:14Z</time></trkpt><trkpt lat="42.967079890876285" lon="11.442954710960903"><ele>126.4</ele><time>2026-04-11T13:45:16Z</time></trkpt><trkpt lat="42.967068512046566" lon="11.443080658682252"><ele>126.8</ele><time>2026-04-11T13:45:18Z</time></trkpt><trkpt lat="42.96703728008299" lon="11.443217589386835"><ele>127.20000000000002</ele><time>2026-04-11T13:45:20Z</time></trkpt><trkpt lat="42.96703645399499" lon="11.443339895305378"><ele>127.60000000000001</ele><time>2026-04-11T13:45:22Z</time></trkpt><trkpt lat="42.96701693890805" lon="11.443521837460466"><ele>128.0</ele><time>2026-04-11T13:45:25Z</time></trkpt><trkpt lat="42.96700288477633" lon="11.443656571815545"><ele>127.99999999999999</ele><time>2026-04-11T13:45:27Z</time></trkpt><trkpt lat="42.96698994384057" lon="11.44377331231802"><ele>128.0</ele><time>2026-04-11T13:45:29Z</time></trkpt><trkpt lat="42.96698651756195" lon="11.44386565647136"><ele>128.0</ele><time>2026-04-11T13:45:31Z</time></trkpt><trkpt lat="42.966973847574394" lon="11.443967935162474"><ele>128.0</ele><time>2026-04-11T13:45:33Z</time></trkpt><trkpt lat="42.967105063816604" lon="11.444061286113454"><ele>127.99999999999999</ele><time>2026-04-11T13:45:39Z</time></trkpt><trkpt lat="42.96716743832604" lon="11.444021278303133"><ele>128.0</ele><time>2026-04-11T13:45:43Z</time></trkpt><trkpt lat="42.967190446067036" lon="11.443893002680603"><ele>128.0</ele><time>2026-04-11T13:45:48Z</time></trkpt><trkpt lat="42.96717973323571" lon="11.443806127150424"><ele>127.99999999999999</ele><time>2026-04-11T13:45:52Z</time></trkpt><trkpt lat="42.96718917734692" lon="11.443705847918135"><ele>128.0</ele><time>2026-04-11T13:45:58Z</time></trkpt><trkpt lat="42.96720579696456" lon="11.443602685774726"><ele>128.0</ele><time>2026-04-11T13:46:03Z</time></trkpt><trkpt lat="42.9672269601037" lon="11.443517999780706"><ele>127.99999999999999</ele><time>2026-04-11T13:46:07Z</time></trkpt><trkpt lat="42.96724091113906" lon="11.443424660301947"><ele>128.0</ele><time>2026-04-11T13:46:11Z</time></trkpt><trkpt lat="42.967283814603014" lon="11.443347944811048"><ele>128.0</ele><time>2026-04-11T13:46:15Z</time></trkpt><trkpt lat="42.96730521772807" lon="11.443246090615187"><ele>127.99999999999999</ele><time>2026-04-11T13:46:18Z</time></trkpt><trkpt lat="42.96734343087126" lon="11.443169311805768"><ele>128.0</ele><time>2026-04-11T13:46:21Z</time></trkpt><trkpt lat="42.96737784458331" lon="11.443064525403742"><ele>128.0</ele><time>2026-04-11T13:46:25Z</time></trkpt><trkpt lat="42.967396425387136" lon="11.442975606898068"><ele>128.0</ele><time>2026-04-11T13:46:28Z</time></trkpt><trkpt lat="42.96743045029461" lon="11.442881715615714"><ele>127.99999999999999</ele><time>2026-04-11T13:46:31Z</time></trkpt><trkpt lat="42.96747669793641" lon="11.442781866222695"><ele>128.0</ele><time>2026-04-11T13:46:35Z</time></trkpt><trkpt lat="42.96752056855452" lon="11.44269978009017"><ele>130.0</ele><time>2026-04-11T13:46:38Z</time></trkpt><trkpt lat="42.96756910844866" lon="11.442636218269998"><ele>132.0</ele><time>2026-04-11T13:46:41Z</time></trkpt><trkpt lat="42.967606756109674" lon="11.442539661637333"><ele>134.0</ele><time>2026-04-11T13:46:45Z</time></trkpt><trkpt lat="42.96766304672318" lon="11.442492170789588"><ele>136.0</ele><time>2026-04-11T13:46:49Z</time></trkpt><trkpt lat="42.96769314234296" lon="11.442406427849983"><ele>138.0</ele><time>2026-04-11T13:46:53Z</time></trkpt><trkpt lat="42.967759352075895" lon="11.442362468034593"><ele>140.0</ele><time>2026-04-11T13:46:57Z</time></trkpt><trkpt lat="42.96782652948494" lon="11.442291545844276"><ele>142.0</ele><time>2026-04-11T13:47:01Z</time></trkpt><trkpt lat="42.96785721024286" lon="11.442206982160506"><ele>141.71428571428572</ele><time>2026-04-11T13:47:04Z</time></trkpt><trkpt lat="42.96791095002253" lon="11.442130744083867"><ele>141.42857142857142</ele><time>2026-04-11T13:47:08Z</time></trkpt><trkpt lat="42.9679317577725" lon="11.442043978124362"><ele>141.14285714285714</ele><time>2026-04-11T13:47:11Z</time></trkpt><trkpt lat="42.967967883761595" lon="11.441968899502948"><ele>140.85714285714286</ele><time>2026-04-11T13:47:14Z</time></trkpt><trkpt lat="42.968000075895894" lon="11.441876842864174"><ele>140.57142857142856</ele><time>2026-04-11T13:47:17Z</time></trkpt><trkpt lat="42.96803610930656" lon="11.441794506345218"><ele>140.28571428571428</ele><time>2026-04-11T13:47:20Z</time></trkpt><trkpt lat="42.96807168793362" lon="11.441709533081957"><ele>140.0</ele><time>2026-04-11T13:47:23Z</time></trkpt><trkpt lat="42.96810429933346" lon="11.441629116507755"><ele>140.0</ele><time>2026-04-11T13:47:26Z</time></trkpt><trkpt lat="42.9681365339514" lon="11.441548785919085"><ele>140.0</ele><time>2026-04-11T13:47:29Z</time></trkpt><trkpt lat="42.968166328888216" lon="11.441462984634072"><ele>140.0</ele><time>2026-04-11T13:47:32Z</time></trkpt><trkpt lat="42.968201439803025" lon="11.441379860691498"><ele>140.0</ele><time>2026-04-11T13:47:35Z</time></trkpt><trkpt lat="42.968238717176625" lon="11.441269849182042"><ele>140.0</ele><time>2026-04-11T13:47:39Z</time></trkpt><trkpt lat="42.96826594728882" lon="11.441186241735439"><ele>140.0</ele><time>2026-04-11T13:47:42Z</time></trkpt><trkpt lat="42.96828885912783" lon="11.441103687767718"><ele>140.0</ele><time>2026-04-11T13:47:45Z</time></trkpt><trkpt lat="42.968316544303654" lon="11.441003753690952"><ele>139.28571428571428</ele><time>2026-04-11T13:47:49Z</time></trkpt><trkpt lat="42.96833670457142" lon="11.440914535348734"><ele>138.57142857142856</ele><time>2026-04-11T13:47:52Z</time></trkpt><trkpt lat="42.968358091980214" lon="11.440806486462037"><ele>137.85714285714286</ele><time>2026-04-11T13:47:56Z</time></trkpt><trkpt lat="42.96838791571006" lon="11.440725416183149"><ele>137.14285714285714</ele><time>2026-04-11T13:47:59Z</time></trkpt><trkpt lat="42.96840014011778" lon="11.440626472371127"><ele>136.42857142857142</ele><time>2026-04-11T13:48:03Z</time></trkpt><trkpt lat="42.96846994782751" lon="11.440565329273323"><ele>135.71428571428572</ele><time>2026-04-11T13:48:08Z</time></trkpt><trkpt lat="42.96853281452884" lon="11.44054418889526"><ele>135.0</ele><time>2026-04-11T13:48:12Z</time></trkpt><trkpt lat="42.96858392529388" lon="11.440602998046531"><ele>137.28571428571428</ele><time>2026-04-11T13:48:17Z</time></trkpt><trkpt lat="42.9686400941121" lon="11.44065280083825"><ele>139.57142857142856</ele><time>2026-04-11T13:48:21Z</time></trkpt><trkpt lat="42.96868932125363" lon="11.44072044493646"><ele>141.85714285714286</ele><time>2026-04-11T13:49:03.999Z</time></trkpt><trkpt lat="42.968735902268556" lon="11.440792760573132"><ele>144.14285714285714</ele><time>2026-04-11T13:50:30Z</time></trkpt><trkpt lat="42.96877977179897" lon="11.440869932379233"><ele>146.42857142857144</ele><time>2026-04-11T13:50:36Z</time></trkpt><trkpt lat="42.96882910868212" lon="11.440960978761627"><ele>148.71428571428572</ele><time>2026-04-11T13:50:42Z</time></trkpt><trkpt lat="42.968869493968" lon="11.44103549239123"><ele>151.0</ele><time>2026-04-11T13:50:46Z</time></trkpt><trkpt lat="42.968912556118426" lon="11.441140527382927"><ele>151.0</ele><time>2026-04-11T13:50:52Z</time></trkpt><trkpt lat="42.96893642247869" lon="11.441232657409262"><ele>151.0</ele><time>2026-04-11T13:50:56Z</time></trkpt><trkpt lat="42.96895575115361" lon="11.441316101696517"><ele>151.0</ele><time>2026-04-11T13:51:00Z</time></trkpt><trkpt lat="42.968976605323654" lon="11.441410243229502"><ele>151.0</ele><time>2026-04-11T13:51:04Z</time></trkpt><trkpt lat="42.96900492506909" lon="11.441522092889054"><ele>151.0</ele><time>2026-04-11T13:51:08Z</time></trkpt><trkpt lat="42.96904511750021" lon="11.44161083023836"><ele>151.0</ele><time>2026-04-11T13:51:11Z</time></trkpt><trkpt lat="42.96909249316757" lon="11.441707191339475"><ele>150.85714285714286</ele><time>2026-04-11T13:51:14.999Z</time></trkpt><trkpt lat="42.96912585512443" lon="11.441780220575303"><ele>150.71428571428572</ele><time>2026-04-11T13:51:18.999Z</time></trkpt><trkpt lat="42.96914123307936" lon="11.441876934343426"><ele>150.57142857142856</ele><time>2026-04-11T13:51:24Z</time></trkpt><trkpt lat="42.96910767311841" lon="11.441979065593525"><ele>150.42857142857144</ele><time>2026-04-11T13:51:29Z</time></trkpt><trkpt lat="42.969088992620584" lon="11.442075309513674"><ele>150.28571428571428</ele><time>2026-04-11T13:51:33Z</time></trkpt><trkpt lat="42.96907092735488" lon="11.442168382766866"><ele>150.14285714285714</ele><time>2026-04-11T13:51:37Z</time></trkpt><trkpt lat="42.96905382527356" lon="11.442256493650653"><ele>150.0</ele><time>2026-04-11T13:51:42Z</time></trkpt><trkpt lat="42.969151911032455" lon="11.442223632888242"><ele>149.99999999999997</ele><time>2026-04-11T13:51:48Z</time></trkpt><trkpt lat="42.96911978056599" lon="11.442133982059346"><ele>150.0</ele><time>2026-04-11T13:51:52Z</time></trkpt><trkpt lat="42.969185351040124" lon="11.442118870497405"><ele>150.0</ele><time>2026-04-11T13:51:57Z</time></trkpt><trkpt lat="42.969243335247484" lon="11.442183343991216"><ele>150.0</ele><time>2026-04-11T13:52:02Z</time></trkpt><trkpt lat="42.969293746538945" lon="11.442235125377383"><ele>150.0</ele><time>2026-04-11T13:52:06Z</time></trkpt><trkpt lat="42.96935216765012" lon="11.442267651523384"><ele>149.99999999999997</ele><time>2026-04-11T13:52:09Z</time></trkpt><trkpt lat="42.96943933843105" lon="11.442269925596303"><ele>150.0</ele><time>2026-04-11T13:52:13Z</time></trkpt><trkpt lat="42.96951133915081" lon="11.442215701174232"><ele>152.16666666666666</ele><time>2026-04-11T13:52:16Z</time></trkpt><trkpt lat="42.96958373094695" lon="11.442185759465513"><ele>154.33333333333334</ele><time>2026-04-11T13:52:20Z</time></trkpt><trkpt lat="42.96964825877956" lon="11.442134208685118"><ele>156.5</ele><time>2026-04-11T13:52:23Z</time></trkpt><trkpt lat="42.9697087684625" lon="11.442096054244349"><ele>158.66666666666669</ele><time>2026-04-11T13:52:27Z</time></trkpt><trkpt lat="42.969792392417055" lon="11.442044901756102"><ele>160.83333333333334</ele><time>2026-04-11T13:52:31Z</time></trkpt><trkpt lat="42.96986272906287" lon="11.442023051023716"><ele>163.0</ele><time>2026-04-11T13:52:34Z</time></trkpt><trkpt lat="42.969931712692166" lon="11.442000963299364"><ele>163.0</ele><time>2026-04-11T13:52:38Z</time></trkpt><trkpt lat="42.96999777111417" lon="11.441997737451869"><ele>163.0</ele><time>2026-04-11T13:52:41Z</time></trkpt><trkpt lat="42.970085376391225" lon="11.442009656284613"><ele>163.0</ele><time>2026-04-11T13:52:47Z</time></trkpt><trkpt lat="42.970166647396816" lon="11.44197639174276"><ele>163.0</ele><time>2026-04-11T13:52:52Z</time></trkpt><trkpt lat="42.97023970325999" lon="11.441966718873365"><ele>163.0</ele><time>2026-04-11T13:52:55Z</time></trkpt><trkpt lat="42.97030788821517" lon="11.441953344774419"><ele>163.0</ele><time>2026-04-11T13:52:59Z</time></trkpt><trkpt lat="42.97038150132271" lon="11.441927213156845"><ele>164.16666666666669</ele><time>2026-04-11T13:53:03Z</time></trkpt><trkpt lat="42.97044504474715" lon="11.44188246379459"><ele>165.33333333333334</ele><time>2026-04-11T13:53:06Z</time></trkpt><trkpt lat="42.97049877444465" lon="11.441835858960237"><ele>166.5</ele><time>2026-04-11T13:53:09.999Z</time></trkpt><trkpt lat="42.97055218878269" lon="11.441757680789372"><ele>167.66666666666666</ele><time>2026-04-11T13:53:15.999Z</time></trkpt><trkpt lat="42.970610693006165" lon="11.441681486908069"><ele>168.83333333333331</ele><time>2026-04-11T13:53:20.999Z</time></trkpt><trkpt lat="42.97066767021819" lon="11.441605592831976"><ele>170.0</ele><time>2026-04-11T13:53:24.999Z</time></trkpt><trkpt lat="42.97074349009258" lon="11.441560338606855"><ele>170.0</ele><time>2026-04-11T13:53:28.999Z</time></trkpt><trkpt lat="42.97082418180824" lon="11.441522148692712"><ele>170.0</ele><time>2026-04-11T13:53:34Z</time></trkpt><trkpt lat="42.97089593088521" lon="11.44150723759463"><ele>170.0</ele><time>2026-04-11T13:53:38Z</time></trkpt><trkpt lat="42.97096740358857" lon="11.441484731539507"><ele>170.0</ele><time>2026-04-11T13:53:42Z</time></trkpt><trkpt lat="42.97103420447887" lon="11.4414603372358"><ele>170.0</ele><time>2026-04-11T13:53:46Z</time></trkpt><trkpt lat="42.9710998308508" lon="11.441446827980062"><ele>170.0</ele><time>2026-04-11T13:53:50Z</time></trkpt><trkpt lat="42.971166334211006" lon="11.44142285767105"><ele>170.0</ele><time>2026-04-11T13:53:54Z</time></trkpt><trkpt lat="42.971228474111705" lon="11.441408265733308"><ele>170.85714285714286</ele><time>2026-04-11T13:53:58Z</time></trkpt><trkpt lat="42.97130201362597" lon="11.44139831158754"><ele>171.7142857142857</ele><time>2026-04-11T13:54:02Z</time></trkpt><trkpt lat="42.97137253461496" lon="11.441380500858402"><ele>172.57142857142856</ele><time>2026-04-11T13:54:06Z</time></trkpt><trkpt lat="42.97144085922935" lon="11.441357793714108"><ele>173.42857142857144</ele><time>2026-04-11T13:54:11Z</time></trkpt><trkpt lat="42.971503395051144" lon="11.441345141791404"><ele>174.28571428571428</ele><time>2026-04-11T13:54:15Z</time></trkpt><trkpt lat="42.971574647484765" lon="11.44133305064228"><ele>175.14285714285714</ele><time>2026-04-11T13:54:20Z</time></trkpt><trkpt lat="42.971639824145996" lon="11.441313256059619"><ele>176.0</ele><time>2026-04-11T13:54:25Z</time></trkpt><trkpt lat="42.97170833197257" lon="11.441282733713013"><ele>177.14285714285714</ele><time>2026-04-11T13:54:30Z</time></trkpt><trkpt lat="42.97178246685808" lon="11.441252608800037"><ele>178.28571428571428</ele><time>2026-04-11T13:54:35Z</time></trkpt><trkpt lat="42.971855504204" lon="11.441224380859465"><ele>179.42857142857144</ele><time>2026-04-11T13:54:41Z</time></trkpt><trkpt lat="42.971922454010226" lon="11.441198966949853"><ele>180.57142857142856</ele><time>2026-04-11T13:54:46Z</time></trkpt><trkpt lat="42.971988571572325" lon="11.441168931021643"><ele>181.7142857142857</ele><time>2026-04-11T13:54:51Z</time></trkpt><trkpt lat="42.97204895422986" lon="11.441114684558187"><ele>182.85714285714286</ele><time>2026-04-11T13:54:56Z</time></trkpt><trkpt lat="42.97210887220225" lon="11.4410648315417"><ele>184.0</ele><time>2026-04-11T13:55:01Z</time></trkpt><trkpt lat="42.97217150773576" lon="11.44104048796365"><ele>184.0</ele><time>2026-04-11T13:55:06Z</time></trkpt><trkpt lat="42.972234879510374" lon="11.44099042549797"><ele>184.0</ele><time>2026-04-11T13:55:11Z</time></trkpt><trkpt lat="42.972306449883106" lon="11.440955922562397"><ele>184.0</ele><time>2026-04-11T13:55:17Z</time></trkpt><trkpt lat="42.97237508959212" lon="11.440956951705768"><ele>184.0</ele><time>2026-04-11T13:55:22Z</time></trkpt><trkpt lat="42.97243753841464" lon="11.44091193032065"><ele>184.0</ele><time>2026-04-11T13:55:25.999Z</time></trkpt><trkpt lat="42.97251085491329" lon="11.44088116355168"><ele>184.0</ele><time>2026-04-11T13:55:30.999Z</time></trkpt><trkpt lat="42.972581742486945" lon="11.44084110014502"><ele>184.0</ele><time>2026-04-11T13:55:36Z</time></trkpt><trkpt lat="42.972650133111514" lon="11.440812102445095"><ele>185.42857142857144</ele><time>2026-04-11T13:55:41Z</time></trkpt><trkpt lat="42.9727114953267" lon="11.440775929878995"><ele>186.85714285714283</ele><time>2026-04-11T13:55:45Z</time></trkpt><trkpt lat="42.97278245240498" lon="11.440754824674313"><ele>188.28571428571428</ele><time>2026-04-11T13:55:50Z</time></trkpt><trkpt lat="42.97285259639815" lon="11.440742058873068"><ele>189.71428571428572</ele><time>2026-04-11T13:55:55Z</time></trkpt><trkpt lat="42.97291886702305" lon="11.440709613662516"><ele>191.14285714285717</ele><time>2026-04-11T13:55:59Z</time></trkpt><trkpt lat="42.97298189835631" lon="11.440699294697426"><ele>192.57142857142856</ele><time>2026-04-11T13:56:03Z</time></trkpt><trkpt lat="42.973041971327696" lon="11.440670622163246"><ele>194.0</ele><time>2026-04-11T13:56:07Z</time></trkpt><trkpt lat="42.973106355947095" lon="11.440639606344648"><ele>194.0</ele><time>2026-04-11T13:56:11Z</time></trkpt><trkpt lat="42.97317735671121" lon="11.44062731131245"><ele>194.0</ele><time>2026-04-11T13:56:16Z</time></trkpt><trkpt lat="42.97324534043833" lon="11.440599548350436"><ele>194.0</ele><time>2026-04-11T13:56:21Z</time></trkpt><trkpt lat="42.97331766421093" lon="11.44056627629783"><ele>194.0</ele><time>2026-04-11T13:56:26Z</time></trkpt><trkpt lat="42.97339000027088" lon="11.440524762122717"><ele>194.0</ele><time>2026-04-11T13:56:31Z</time></trkpt><trkpt lat="42.97346407736675" lon="11.440491761927039"><ele>194.0</ele><time>2026-04-11T13:56:36Z</time></trkpt><trkpt lat="42.973529873654634" lon="11.440468830723859"><ele>194.0</ele><time>2026-04-11T13:56:40Z</time></trkpt><trkpt lat="42.973594964639716" lon="11.44044254858344"><ele>195.0</ele><time>2026-04-11T13:56:44Z</time></trkpt><trkpt lat="42.973654991374325" lon="11.440410808296736"><ele>196.0</ele><time>2026-04-11T13:56:48Z</time></trkpt><trkpt lat="42.97371462445402" lon="11.44038178159571"><ele>197.0</ele><time>2026-04-11T13:56:52Z</time></trkpt><trkpt lat="42.973776879496434" lon="11.44036316043887"><ele>198.0</ele><time>2026-04-11T13:56:56Z</time></trkpt><trkpt lat="42.97383741816109" lon="11.440338255621725"><ele>199.0</ele><time>2026-04-11T13:57:00Z</time></trkpt><trkpt lat="42.97390482679165" lon="11.44031346192109"><ele>200.0</ele><time>2026-04-11T13:57:04Z</time></trkpt><trkpt lat="42.97397452899044" lon="11.440293327613206"><ele>201.0</ele><time>2026-04-11T13:57:08Z</time></trkpt><trkpt lat="42.97404912602579" lon="11.440265005521262"><ele>201.0</ele><time>2026-04-11T13:57:12Z</time></trkpt><trkpt lat="42.97412594717467" lon="11.440235825331936"><ele>201.0</ele><time>2026-04-11T13:57:16Z</time></trkpt><trkpt lat="42.97419679090471" lon="11.440195027466531"><ele>201.0</ele><time>2026-04-11T13:57:20Z</time></trkpt><trkpt lat="42.97427628017034" lon="11.440179484099202"><ele>201.0</ele><time>2026-04-11T13:57:24Z</time></trkpt><trkpt lat="42.97433750814611" lon="11.440156769709269"><ele>201.0</ele><time>2026-04-11T13:57:26.999Z</time></trkpt><trkpt lat="42.97440346553591" lon="11.44013486485077"><ele>201.0</ele><time>2026-04-11T13:57:29.999Z</time></trkpt><trkpt lat="42.97446909108134" lon="11.44010779954262"><ele>201.0</ele><time>2026-04-11T13:57:32.999Z</time></trkpt><trkpt lat="42.97453126801143" lon="11.44008014129802"><ele>201.7142857142857</ele><time>2026-04-11T13:57:35.999Z</time></trkpt><trkpt lat="42.97461245942533" lon="11.44005319309403"><ele>202.42857142857144</ele><time>2026-04-11T13:57:39.999Z</time></trkpt><trkpt lat="42.97467521979184" lon="11.440033293516349"><ele>203.14285714285714</ele><time>2026-04-11T13:57:43Z</time></trkpt><trkpt lat="42.97473688072613" lon="11.440000149781785"><ele>203.85714285714283</ele><time>2026-04-11T13:57:46Z</time></trkpt><trkpt lat="42.97479854132551" lon="11.439976918009519"><ele>204.57142857142856</ele><time>2026-04-11T13:57:49Z</time></trkpt><trkpt lat="42.97487731323654" lon="11.439948880109961"><ele>205.28571428571428</ele><time>2026-04-11T13:57:53Z</time></trkpt><trkpt lat="42.974934986482694" lon="11.439912220897751"><ele>206.0</ele><time>2026-04-11T13:57:56Z</time></trkpt><trkpt lat="42.974983925422386" lon="11.439847898244292"><ele>205.99999999999997</ele><time>2026-04-11T13:57:59Z</time></trkpt><trkpt lat="42.974988065945524" lon="11.439747903902987"><ele>206.0</ele><time>2026-04-11T13:59:49Z</time></trkpt><trkpt lat="42.974972560477134" lon="11.439654088171089"><ele>206.0</ele><time>2026-04-11T13:59:54Z</time></trkpt><trkpt lat="42.97493747090919" lon="11.439562242639113"><ele>206.0</ele><time>2026-04-11T13:59:57Z</time></trkpt><trkpt lat="42.97491358733416" lon="11.439462646696404"><ele>206.0</ele><time>2026-04-11T14:00:00Z</time></trkpt><trkpt lat="42.97489662132609" lon="11.439365797382834"><ele>205.99999999999997</ele><time>2026-04-11T14:00:03Z</time></trkpt><trkpt lat="42.97487333649417" lon="11.439268679674687"><ele>206.0</ele><time>2026-04-11T14:00:06Z</time></trkpt><trkpt lat="42.97484857156118" lon="11.439165197731764"><ele>206.16666666666669</ele><time>2026-04-11T14:00:09Z</time></trkpt><trkpt lat="42.97482218261195" lon="11.439065600743138"><ele>206.33333333333334</ele><time>2026-04-11T14:00:12Z</time></trkpt><trkpt lat="42.9748015914387" lon="11.438961074617145"><ele>206.5</ele><time>2026-04-11T14:00:15Z</time></trkpt><trkpt lat="42.974781575477785" lon="11.438859288953921"><ele>206.66666666666669</ele><time>2026-04-11T14:00:18Z</time></trkpt><trkpt lat="42.97475790533955" lon="11.438766901250403"><ele>206.83333333333334</ele><time>2026-04-11T14:00:21Z</time></trkpt><trkpt lat="42.97474091262056" lon="11.438673736617526"><ele>207.0</ele><time>2026-04-11T14:00:24Z</time></trkpt><trkpt lat="42.974704790692186" lon="11.438578431499346"><ele>207.33333333333334</ele><time>2026-04-11T14:00:27Z</time></trkpt><trkpt lat="42.97468545291887" lon="11.438472003000268"><ele>207.66666666666669</ele><time>2026-04-11T14:00:30Z</time></trkpt><trkpt lat="42.974668805628916" lon="11.43836870320319"><ele>208.0</ele><time>2026-04-11T14:00:33Z</time></trkpt><trkpt lat="42.974651002048674" lon="11.438262886960272"><ele>208.33333333333334</ele><time>2026-04-11T14:00:36Z</time></trkpt><trkpt lat="42.97464068787736" lon="11.438159282898269"><ele>208.66666666666669</ele><time>2026-04-11T14:00:39Z</time></trkpt><trkpt lat="42.97466829779337" lon="11.438062886418297"><ele>209.0</ele><time>2026-04-11T14:00:42Z</time></trkpt><trkpt lat="42.97473889980846" lon="11.438013577887773"><ele>208.50000000000003</ele><time>2026-04-11T14:00:45Z</time></trkpt><trkpt lat="42.974792870395234" lon="11.437952725249264"><ele>208.0</ele><time>2026-04-11T14:00:48Z</time></trkpt><trkpt lat="42.974861555297906" lon="11.43789948634266"><ele>207.5</ele><time>2026-04-11T14:00:52Z</time></trkpt><trkpt lat="42.97493673044715" lon="11.437845784712543"><ele>207.0</ele><time>2026-04-11T14:00:56Z</time></trkpt><trkpt lat="42.97499557865546" lon="11.437800136173307"><ele>206.50000000000003</ele><time>2026-04-11T14:00:58Z</time></trkpt><trkpt lat="42.97507681772286" lon="11.437740422185154"><ele>206.0</ele><time>2026-04-11T14:01:00Z</time></trkpt><trkpt lat="42.97517200098981" lon="11.437669004511203"><ele>204.33333333333334</ele><time>2026-04-11T14:01:02Z</time></trkpt><trkpt lat="42.97528612495006" lon="11.437582200031887"><ele>202.66666666666669</ele><time>2026-04-11T14:01:04Z</time></trkpt><trkpt lat="42.97534623633894" lon="11.43753672004294"><ele>201.0</ele><time>2026-04-11T14:01:05Z</time></trkpt><trkpt lat="42.97541143032698" lon="11.437490693760806"><ele>199.33333333333331</ele><time>2026-04-11T14:01:06Z</time></trkpt><trkpt lat="42.97548777983746" lon="11.43743088011436"><ele>197.66666666666666</ele><time>2026-04-11T14:01:07Z</time></trkpt><trkpt lat="42.97556378068623" lon="11.437375799320156"><ele>196.0</ele><time>2026-04-11T14:01:08Z</time></trkpt><trkpt lat="42.97563678997597" lon="11.437322142016669"><ele>196.0</ele><time>2026-04-11T14:01:09Z</time></trkpt><trkpt lat="42.97571481909229" lon="11.437264212716451"><ele>196.0</ele><time>2026-04-11T14:01:10Z</time></trkpt><trkpt lat="42.97579022053795" lon="11.437205299373959"><ele>196.0</ele><time>2026-04-11T14:01:11Z</time></trkpt><trkpt lat="42.97587812455436" lon="11.437139553463906"><ele>196.0</ele><time>2026-04-11T14:01:12Z</time></trkpt><trkpt lat="42.97596509588848" lon="11.43710507608573"><ele>196.0</ele><time>2026-04-11T14:01:13Z</time></trkpt><trkpt lat="42.97604650064391" lon="11.43705231692136"><ele>195.49999999999997</ele><time>2026-04-11T14:01:14Z</time></trkpt><trkpt lat="42.976128833936116" lon="11.437002147956559"><ele>195.0</ele><time>2026-04-11T14:01:15Z</time></trkpt><trkpt lat="42.97621828856532" lon="11.436949187629173"><ele>194.5</ele><time>2026-04-11T14:01:16Z</time></trkpt><trkpt lat="42.97630384769302" lon="11.436900979395809"><ele>194.0</ele><time>2026-04-11T14:01:17Z</time></trkpt><trkpt lat="42.97638806959307" lon="11.436853450835525"><ele>193.49999999999997</ele><time>2026-04-11T14:01:18Z</time></trkpt><trkpt lat="42.97645826349314" lon="11.43681383863333"><ele>193.0</ele><time>2026-04-11T14:01:19Z</time></trkpt><trkpt lat="42.976532504238484" lon="11.436771020599812"><ele>193.00000000000003</ele><time>2026-04-11T14:01:20Z</time></trkpt><trkpt lat="42.976601007548716" lon="11.436730205035865"><ele>193.0</ele><time>2026-04-11T14:01:21Z</time></trkpt><trkpt lat="42.976674275744685" lon="11.436684290674913"><ele>193.0</ele><time>2026-04-11T14:01:22Z</time></trkpt><trkpt lat="42.976741581963104" lon="11.436641468107753"><ele>193.0</ele><time>2026-04-11T14:01:23Z</time></trkpt><trkpt lat="42.97680197796643" lon="11.436601490180212"><ele>193.0</ele><time>2026-04-11T14:01:24Z</time></trkpt><trkpt lat="42.97686007685302" lon="11.436562377029594"><ele>193.00000000000003</ele><time>2026-04-11T14:01:25Z</time></trkpt><trkpt lat="42.97690940480198" lon="11.436505745222108"><ele>193.0</ele><time>2026-04-11T14:01:26Z</time></trkpt><trkpt lat="42.97700826223894" lon="11.436437937812517"><ele>193.16666666666666</ele><time>2026-04-11T14:01:28Z</time></trkpt><trkpt lat="42.9771022773489" lon="11.436396767898499"><ele>193.33333333333331</ele><time>2026-04-11T14:01:30Z</time></trkpt><trkpt lat="42.97717224327725" lon="11.436323607396806"><ele>193.5</ele><time>2026-04-11T14:01:32Z</time></trkpt><trkpt lat="42.97724225180025" lon="11.436277303648192"><ele>193.66666666666669</ele><time>2026-04-11T14:01:34Z</time></trkpt><trkpt lat="42.977311940428734" lon="11.436256320395861"><ele>193.83333333333334</ele><time>2026-04-11T14:01:36Z</time></trkpt><trkpt lat="42.97737161517561" lon="11.436217432821527"><ele>194.0</ele><time>2026-04-11T14:01:38Z</time></trkpt><trkpt lat="42.97743081318769" lon="11.436178855920074"><ele>194.33333333333334</ele><time>2026-04-11T14:01:40Z</time></trkpt><trkpt lat="42.97748906457792" lon="11.436129972184187"><ele>194.66666666666669</ele><time>2026-04-11T14:01:41.999Z</time></trkpt><trkpt lat="42.97757122479836" lon="11.43606412162991"><ele>195.0</ele><time>2026-04-11T14:01:44.999Z</time></trkpt><trkpt lat="42.97762832324048" lon="11.436017572634004"><ele>195.33333333333331</ele><time>2026-04-11T14:01:46.999Z</time></trkpt><trkpt lat="42.97769405320195" lon="11.435966362329857"><ele>195.66666666666666</ele><time>2026-04-11T14:01:48.999Z</time></trkpt><trkpt lat="42.97775946801326" lon="11.435914013330223"><ele>196.0</ele><time>2026-04-11T14:01:50.999Z</time></trkpt><trkpt lat="42.97782651499355" lon="11.43586107588251"><ele>195.99999999999997</ele><time>2026-04-11T14:01:52.999Z</time></trkpt><trkpt lat="42.97789598174194" lon="11.435799817244812"><ele>196.0</ele><time>2026-04-11T14:01:55Z</time></trkpt><trkpt lat="42.9779575854077" lon="11.435742945858388"><ele>196.0</ele><time>2026-04-11T14:01:57Z</time></trkpt><trkpt lat="42.9780193231594" lon="11.435686091211576"><ele>196.0</ele><time>2026-04-11T14:01:59Z</time></trkpt><trkpt lat="42.97808059934641" lon="11.435628759859593"><ele>195.99999999999997</ele><time>2026-04-11T14:02:01Z</time></trkpt><trkpt lat="42.978144205635495" lon="11.435565370003452"><ele>196.0</ele><time>2026-04-11T14:02:04Z</time></trkpt><trkpt lat="42.97821340208223" lon="11.435500669324146"><ele>196.49999999999997</ele><time>2026-04-11T14:02:07Z</time></trkpt><trkpt lat="42.97829526845662" lon="11.435440943291628"><ele>197.0</ele><time>2026-04-11T14:02:10Z</time></trkpt><trkpt lat="42.97835413382159" lon="11.435395567077057"><ele>197.5</ele><time>2026-04-11T14:02:12Z</time></trkpt><trkpt lat="42.97841905464884" lon="11.435358900846342"><ele>198.0</ele><time>2026-04-11T14:02:14Z</time></trkpt><trkpt lat="42.97848391653926" lon="11.435300079375326"><ele>198.49999999999997</ele><time>2026-04-11T14:02:16Z</time></trkpt><trkpt lat="42.97855600585953" lon="11.435218276414862"><ele>199.0</ele><time>2026-04-11T14:02:19Z</time></trkpt><trkpt lat="42.978600492914985" lon="11.43514861909341"><ele>198.99999999999997</ele><time>2026-04-11T14:02:21Z</time></trkpt><trkpt lat="42.97865128315387" lon="11.435089488783191"><ele>199.0</ele><time>2026-04-11T14:02:23Z</time></trkpt><trkpt lat="42.978697225184945" lon="11.434978881857175"><ele>199.0</ele><time>2026-04-11T14:02:26Z</time></trkpt><trkpt lat="42.978753163339526" lon="11.434891181204666"><ele>199.0</ele><time>2026-04-11T14:02:29Z</time></trkpt><trkpt lat="42.97878405917694" lon="11.434789115592544"><ele>198.99999999999997</ele><time>2026-04-11T14:02:32Z</time></trkpt><trkpt lat="42.978844178068854" lon="11.43470836953793"><ele>199.0</ele><time>2026-04-11T14:02:35Z</time></trkpt><trkpt lat="42.97888752586528" lon="11.434626715534469"><ele>199.66666666666666</ele><time>2026-04-11T14:02:38Z</time></trkpt><trkpt lat="42.9789293272085" lon="11.434551680457117"><ele>200.33333333333331</ele><time>2026-04-11T14:02:41Z</time></trkpt><trkpt lat="42.978970223839" lon="11.434479266568427"><ele>201.0</ele><time>2026-04-11T14:02:44Z</time></trkpt><trkpt lat="42.979015086914025" lon="11.434399829484422"><ele>201.66666666666669</ele><time>2026-04-11T14:02:47Z</time></trkpt><trkpt lat="42.97906031289534" lon="11.434316828878334"><ele>202.33333333333334</ele><time>2026-04-11T14:02:50Z</time></trkpt><trkpt lat="42.979094138234885" lon="11.434211344862808"><ele>203.0</ele><time>2026-04-11T14:02:53Z</time></trkpt><trkpt lat="42.979142805544" lon="11.434111455868601"><ele>203.00000000000003</ele><time>2026-04-11T14:02:56Z</time></trkpt><trkpt lat="42.979190977188" lon="11.43401084588786"><ele>203.0</ele><time>2026-04-11T14:02:59Z</time></trkpt><trkpt lat="42.979233363176654" lon="11.433903858046104"><ele>203.0</ele><time>2026-04-11T14:03:02Z</time></trkpt><trkpt lat="42.97928179237349" lon="11.433806592038078"><ele>203.0</ele><time>2026-04-11T14:03:05Z</time></trkpt><trkpt lat="42.97934469792567" lon="11.433736007512671"><ele>203.00000000000003</ele><time>2026-04-11T14:03:08Z</time></trkpt><trkpt lat="42.97941348529437" lon="11.433668835215846"><ele>203.0</ele><time>2026-04-11T14:03:12Z</time></trkpt><trkpt lat="42.97948704938601" lon="11.43364106717847"><ele>203.0</ele><time>2026-04-11T14:03:17Z</time></trkpt><trkpt lat="42.979554453891964" lon="11.43360717545389"><ele>203.0</ele><time>2026-04-11T14:03:22Z</time></trkpt><trkpt lat="42.979699210149626" lon="11.433809502199923"><ele>203.0</ele><time>2026-04-11T14:03:52.999Z</time></trkpt><trkpt lat="42.9797606779425" lon="11.433885532810146"><ele>203.0</ele><time>2026-04-11T14:03:54.999Z</time></trkpt><trkpt lat="42.97982575468318" lon="11.433978040790494"><ele>202.4</ele><time>2026-04-11T14:03:56.999Z</time></trkpt><trkpt lat="42.979891161030466" lon="11.434086712292212"><ele>201.8</ele><time>2026-04-11T14:03:58.999Z</time></trkpt><trkpt lat="42.97996416321733" lon="11.434206991556145"><ele>201.2</ele><time>2026-04-11T14:04:01Z</time></trkpt><trkpt lat="42.980051750136234" lon="11.434344140407156"><ele>200.6</ele><time>2026-04-11T14:04:03Z</time></trkpt><trkpt lat="42.980095303750595" lon="11.434424328336284"><ele>200.0</ele><time>2026-04-11T14:04:04Z</time></trkpt><trkpt lat="42.98014466739781" lon="11.434506794467621"><ele>199.83333333333334</ele><time>2026-04-11T14:04:05Z</time></trkpt><trkpt lat="42.98019511548576" lon="11.434585399806233"><ele>199.66666666666669</ele><time>2026-04-11T14:04:06Z</time></trkpt><trkpt lat="42.98025176650422" lon="11.434672650557582"><ele>199.5</ele><time>2026-04-11T14:04:07Z</time></trkpt><trkpt lat="42.98030218021988" lon="11.434756294187268"><ele>199.33333333333331</ele><time>2026-04-11T14:04:08Z</time></trkpt><trkpt lat="42.98036081529076" lon="11.434844682234738"><ele>199.16666666666666</ele><time>2026-04-11T14:04:09Z</time></trkpt><trkpt lat="42.98041798860354" lon="11.434928756358604"><ele>199.0</ele><time>2026-04-11T14:04:10Z</time></trkpt><trkpt lat="42.98047371339307" lon="11.435018732029139"><ele>198.49999999999997</ele><time>2026-04-11T14:04:11Z</time></trkpt><trkpt lat="42.980525095013434" lon="11.43511388014232"><ele>198.0</ele><time>2026-04-11T14:04:12Z</time></trkpt><trkpt lat="42.98057265840469" lon="11.435214271707114"><ele>197.5</ele><time>2026-04-11T14:04:13Z</time></trkpt><trkpt lat="42.98063017644494" lon="11.435294466835755"><ele>197.0</ele><time>2026-04-11T14:04:14Z</time></trkpt><trkpt lat="42.98068479563449" lon="11.43538797888588"><ele>196.49999999999997</ele><time>2026-04-11T14:04:15Z</time></trkpt><trkpt lat="42.980737554763664" lon="11.435479741699334"><ele>196.0</ele><time>2026-04-11T14:04:16Z</time></trkpt><trkpt lat="42.980789258639874" lon="11.435569053002048"><ele>195.49999999999997</ele><time>2026-04-11T14:04:17Z</time></trkpt><trkpt lat="42.98084069859829" lon="11.435657333207924"><ele>195.0</ele><time>2026-04-11T14:04:18Z</time></trkpt><trkpt lat="42.98089145488317" lon="11.435747697902174"><ele>194.5</ele><time>2026-04-11T14:04:19Z</time></trkpt><trkpt lat="42.98094044795876" lon="11.435831190481982"><ele>194.0</ele><time>2026-04-11T14:04:20Z</time></trkpt><trkpt lat="42.98099246238045" lon="11.435922099869124"><ele>193.49999999999997</ele><time>2026-04-11T14:04:21Z</time></trkpt><trkpt lat="42.98104120809673" lon="11.436011292786116"><ele>193.0</ele><time>2026-04-11T14:04:22Z</time></trkpt><trkpt lat="42.981088079260985" lon="11.436099273947432"><ele>193.00000000000003</ele><time>2026-04-11T14:04:23Z</time></trkpt><trkpt lat="42.98113359480553" lon="11.436173300403382"><ele>193.0</ele><time>2026-04-11T14:04:24Z</time></trkpt><trkpt lat="42.98118288240518" lon="11.43625659859254"><ele>193.0</ele><time>2026-04-11T14:04:25Z</time></trkpt><trkpt lat="42.981230005940354" lon="11.4363380414159"><ele>193.0</ele><time>2026-04-11T14:04:26Z</time></trkpt><trkpt lat="42.98127551601894" lon="11.436415877430122"><ele>193.0</ele><time>2026-04-11T14:04:27Z</time></trkpt><trkpt lat="42.981318394328035" lon="11.43649883573499"><ele>193.00000000000003</ele><time>2026-04-11T14:04:28Z</time></trkpt><trkpt lat="42.981359839378044" lon="11.436582013766383"><ele>193.0</ele><time>2026-04-11T14:04:29Z</time></trkpt><trkpt lat="42.98140542455589" lon="11.43666083781268"><ele>192.57142857142858</ele><time>2026-04-11T14:04:30Z</time></trkpt><trkpt lat="42.98145174264273" lon="11.436738991722747"><ele>192.14285714285714</ele><time>2026-04-11T14:04:31Z</time></trkpt><trkpt lat="42.98149634915594" lon="11.436820464736353"><ele>191.71428571428572</ele><time>2026-04-11T14:04:32Z</time></trkpt><trkpt lat="42.981540001692586" lon="11.436895119660766"><ele>191.28571428571428</ele><time>2026-04-11T14:04:33Z</time></trkpt><trkpt lat="42.98158406031351" lon="11.43697484521196"><ele>190.85714285714286</ele><time>2026-04-11T14:04:34Z</time></trkpt><trkpt lat="42.9816284045166" lon="11.437058123017716"><ele>190.42857142857144</ele><time>2026-04-11T14:04:35Z</time></trkpt><trkpt lat="42.98167301740061" lon="11.437134925153222"><ele>190.0</ele><time>2026-04-11T14:04:36Z</time></trkpt><trkpt lat="42.98172016249452" lon="11.437218443428385"><ele>189.16666666666669</ele><time>2026-04-11T14:04:37Z</time></trkpt><trkpt lat="42.98176437733715" lon="11.437299152786983"><ele>188.33333333333334</ele><time>2026-04-11T14:04:38Z</time></trkpt><trkpt lat="42.98180714503015" lon="11.437383615752301"><ele>187.5</ele><time>2026-04-11T14:04:39Z</time></trkpt><trkpt lat="42.981850747188716" lon="11.437471855516751"><ele>186.66666666666666</ele><time>2026-04-11T14:04:40Z</time></trkpt><trkpt lat="42.98190217088693" lon="11.437563192467563"><ele>185.83333333333331</ele><time>2026-04-11T14:04:41Z</time></trkpt><trkpt lat="42.98195031644149" lon="11.437662431578566"><ele>185.0</ele><time>2026-04-11T14:04:42Z</time></trkpt><trkpt lat="42.981999808771214" lon="11.437758548299511"><ele>185.0</ele><time>2026-04-11T14:04:43Z</time></trkpt><trkpt lat="42.98204740496359" lon="11.437864028837685"><ele>185.0</ele><time>2026-04-11T14:04:44Z</time></trkpt><trkpt lat="42.982098384959194" lon="11.437963841824887"><ele>185.0</ele><time>2026-04-11T14:04:45Z</time></trkpt><trkpt lat="42.9821466672939" lon="11.438066655745393"><ele>185.0</ele><time>2026-04-11T14:04:46Z</time></trkpt><trkpt lat="42.982194609494954" lon="11.438167923959798"><ele>185.0</ele><time>2026-04-11T14:04:47Z</time></trkpt><trkpt lat="42.98224548171116" lon="11.438270098087969"><ele>185.0</ele><time>2026-04-11T14:04:48Z</time></trkpt><trkpt lat="42.98229425067415" lon="11.438365805719059"><ele>184.66666666666666</ele><time>2026-04-11T14:04:49Z</time></trkpt><trkpt lat="42.98234168684437" lon="11.438461823410536"><ele>184.33333333333331</ele><time>2026-04-11T14:04:50Z</time></trkpt><trkpt lat="42.98238987984227" lon="11.438555581115844"><ele>184.0</ele><time>2026-04-11T14:04:51Z</time></trkpt><trkpt lat="42.982439380162795" lon="11.438654338210952"><ele>183.66666666666666</ele><time>2026-04-11T14:04:52Z</time></trkpt><trkpt lat="42.98248873328025" lon="11.438752053280892"><ele>183.33333333333334</ele><time>2026-04-11T14:04:53Z</time></trkpt><trkpt lat="42.982538179838045" lon="11.438850384912598"><ele>183.0</ele><time>2026-04-11T14:04:54Z</time></trkpt><trkpt lat="42.98259027077803" lon="11.438950102659467"><ele>181.60000000000002</ele><time>2026-04-11T14:04:55Z</time></trkpt><trkpt lat="42.98264026915158" lon="11.439040560721164"><ele>180.20000000000002</ele><time>2026-04-11T14:04:56Z</time></trkpt><trkpt lat="42.98269210415334" lon="11.439142462485757"><ele>178.8</ele><time>2026-04-11T14:04:57Z</time></trkpt><trkpt lat="42.982746123248276" lon="11.4392504106489"><ele>177.4</ele><time>2026-04-11T14:04:58Z</time></trkpt><trkpt lat="42.98279517296749" lon="11.439359932700675"><ele>176.0</ele><time>2026-04-11T14:04:59Z</time></trkpt><trkpt lat="42.98284766268462" lon="11.43946960170111"><ele>176.0</ele><time>2026-04-11T14:05:00Z</time></trkpt><trkpt lat="42.982898804189475" lon="11.43957499120183"><ele>176.0</ele><time>2026-04-11T14:05:01Z</time></trkpt><trkpt lat="42.98294827313979" lon="11.439673265600655"><ele>176.0</ele><time>2026-04-11T14:05:02Z</time></trkpt><trkpt lat="42.98299881420213" lon="11.439764681085668"><ele>176.0</ele><time>2026-04-11T14:05:03Z</time></trkpt><trkpt lat="42.98304712880537" lon="11.439852124928167"><ele>176.0</ele><time>2026-04-11T14:05:04Z</time></trkpt><trkpt lat="42.98309161809046" lon="11.439943088261021"><ele>176.0</ele><time>2026-04-11T14:05:05Z</time></trkpt><trkpt lat="42.98313172148392" lon="11.440027368479862"><ele>176.0</ele><time>2026-04-11T14:05:06Z</time></trkpt><trkpt lat="42.98317162725873" lon="11.440101417862346"><ele>176.0</ele><time>2026-04-11T14:05:07Z</time></trkpt><trkpt lat="42.983241279629226" lon="11.440232168691603"><ele>176.0</ele><time>2026-04-11T14:05:09Z</time></trkpt><trkpt lat="42.98329301300211" lon="11.440347931893811"><ele>176.0</ele><time>2026-04-11T14:05:11Z</time></trkpt><trkpt lat="42.983349039421505" lon="11.44048445627717"><ele>176.0</ele><time>2026-04-11T14:05:13Z</time></trkpt><trkpt lat="42.9833874597267" lon="11.440605036864293"><ele>176.4</ele><time>2026-04-11T14:05:15Z</time></trkpt><trkpt lat="42.98340231188852" lon="11.44073357825421"><ele>176.8</ele><time>2026-04-11T14:05:17Z</time></trkpt><trkpt lat="42.98340152052718" lon="11.440875046071962"><ele>177.20000000000002</ele><time>2026-04-11T14:05:19Z</time></trkpt><trkpt lat="42.98338414088623" lon="11.44096219315045"><ele>177.60000000000002</ele><time>2026-04-11T14:05:20Z</time></trkpt><trkpt lat="42.98332426881332" lon="11.441095701597888"><ele>178.0</ele><time>2026-04-11T14:05:22Z</time></trkpt><trkpt lat="42.98324469868537" lon="11.441178274189191"><ele>177.0</ele><time>2026-04-11T14:05:24Z</time></trkpt><trkpt lat="42.98314240507569" lon="11.441225278830288"><ele>176.0</ele><time>2026-04-11T14:05:26Z</time></trkpt><trkpt lat="42.983050539477915" lon="11.44125698463918"><ele>175.0</ele><time>2026-04-11T14:05:28Z</time></trkpt><trkpt lat="42.98297242904181" lon="11.441275831457007"><ele>174.0</ele><time>2026-04-11T14:05:30Z</time></trkpt><trkpt lat="42.98289933541541" lon="11.44131493612127"><ele>173.0</ele><time>2026-04-11T14:05:33Z</time></trkpt><trkpt lat="42.98284765017676" lon="11.44138307101855"><ele>172.0</ele><time>2026-04-11T14:05:36Z</time></trkpt><trkpt lat="42.98279924966211" lon="11.441463575812502"><ele>172.00000000000003</ele><time>2026-04-11T14:05:40Z</time></trkpt><trkpt lat="42.98276934956377" lon="11.441554287355324"><ele>172.0</ele><time>2026-04-11T14:05:44Z</time></trkpt><trkpt lat="42.982764629898284" lon="11.441645217092747"><ele>172.0</ele><time>2026-04-11T14:05:48Z</time></trkpt><trkpt lat="42.98278015230301" lon="11.441730766206962"><ele>172.0</ele><time>2026-04-11T14:05:51.999Z</time></trkpt><trkpt lat="42.98282371473366" lon="11.441810960509903"><ele>172.0</ele><time>2026-04-11T14:05:56.999Z</time></trkpt><trkpt lat="42.98286583890561" lon="11.441888581593775"><ele>172.00000000000003</ele><time>2026-04-11T14:06:00.999Z</time></trkpt><trkpt lat="42.98291067959385" lon="11.441957678176378"><ele>172.0</ele><time>2026-04-11T14:06:03.999Z</time></trkpt><trkpt lat="42.982959930798074" lon="11.442044025571812"><ele>172.42857142857144</ele><time>2026-04-11T14:06:08Z</time></trkpt><trkpt lat="42.98300814690639" lon="11.442135211668507"><ele>172.85714285714286</ele><time>2026-04-11T14:06:12Z</time></trkpt><trkpt lat="42.983058769080536" lon="11.442216072284953"><ele>173.28571428571428</ele><time>2026-04-11T14:06:16Z</time></trkpt><trkpt lat="42.98310458866714" lon="11.442278249646687"><ele>173.71428571428572</ele><time>2026-04-11T14:06:19Z</time></trkpt><trkpt lat="42.98314459316195" lon="11.442346733020456"><ele>174.14285714285714</ele><time>2026-04-11T14:06:22Z</time></trkpt><trkpt lat="42.9831917487728" lon="11.442415052179921"><ele>174.57142857142858</ele><time>2026-04-11T14:06:25Z</time></trkpt><trkpt lat="42.9832423432304" lon="11.44248859561054"><ele>175.0</ele><time>2026-04-11T14:06:28Z</time></trkpt><trkpt lat="42.98330199846224" lon="11.442566486917665"><ele>175.0</ele><time>2026-04-11T14:06:31Z</time></trkpt><trkpt lat="42.98335724051519" lon="11.442650213508855"><ele>175.0</ele><time>2026-04-11T14:06:34Z</time></trkpt><trkpt lat="42.98341458580325" lon="11.442740157396718"><ele>175.0</ele><time>2026-04-11T14:06:37Z</time></trkpt><trkpt lat="42.983475721833436" lon="11.442828046508252"><ele>175.0</ele><time>2026-04-11T14:06:40Z</time></trkpt><trkpt lat="42.98353425598211" lon="11.442912808802408"><ele>175.0</ele><time>2026-04-11T14:06:43Z</time></trkpt><trkpt lat="42.983587450467645" lon="11.442988397727131"><ele>175.0</ele><time>2026-04-11T14:06:46Z</time></trkpt><trkpt lat="42.983640451941504" lon="11.443069997733415"><ele>175.66666666666669</ele><time>2026-04-11T14:06:49Z</time></trkpt><trkpt lat="42.98369823358132" lon="11.44314493188778"><ele>176.33333333333334</ele><time>2026-04-11T14:06:52Z</time></trkpt><trkpt lat="42.98375724991538" lon="11.443226183591342"><ele>177.0</ele><time>2026-04-11T14:06:55Z</time></trkpt><trkpt lat="42.983803539039585" lon="11.443305993005007"><ele>177.66666666666666</ele><time>2026-04-11T14:06:58Z</time></trkpt><trkpt lat="42.98385974107009" lon="11.443394614751117"><ele>178.33333333333331</ele><time>2026-04-11T14:07:01Z</time></trkpt><trkpt lat="42.98391567322738" lon="11.443488926455007"><ele>179.0</ele><time>2026-04-11T14:07:04Z</time></trkpt><trkpt lat="42.98395875560665" lon="11.443554379771552"><ele>179.00000000000003</ele><time>2026-04-11T14:07:06Z</time></trkpt><trkpt lat="42.984002925951735" lon="11.443622702924312"><ele>179.0</ele><time>2026-04-11T14:07:08Z</time></trkpt><trkpt lat="42.984044295080935" lon="11.44369844004692"><ele>179.0</ele><time>2026-04-11T14:07:10Z</time></trkpt><trkpt lat="42.9840942315987" lon="11.443772453446183"><ele>179.0</ele><time>2026-04-11T14:07:12Z</time></trkpt><trkpt lat="42.98414403240614" lon="11.443837413292457"><ele>179.0</ele><time>2026-04-11T14:07:14Z</time></trkpt><trkpt lat="42.984190481656576" lon="11.443909575759495"><ele>179.00000000000003</ele><time>2026-04-11T14:07:16Z</time></trkpt><trkpt lat="42.98423923255842" lon="11.443977609587439"><ele>179.0</ele><time>2026-04-11T14:07:18Z</time></trkpt><trkpt lat="42.98428471913974" lon="11.44404653586667"><ele>180.16666666666666</ele><time>2026-04-11T14:07:20Z</time></trkpt><trkpt lat="42.98433116359779" lon="11.444110159414052"><ele>181.33333333333331</ele><time>2026-04-11T14:07:22Z</time></trkpt><trkpt lat="42.984396028419845" lon="11.44420541073846"><ele>182.5</ele><time>2026-04-11T14:07:25Z</time></trkpt><trkpt lat="42.984453131166525" lon="11.444289730413182"><ele>183.66666666666666</ele><time>2026-04-11T14:07:28Z</time></trkpt><trkpt lat="42.98452402128825" lon="11.444362803844882"><ele>184.83333333333334</ele><time>2026-04-11T14:07:31Z</time></trkpt><trkpt lat="42.98456989049729" lon="11.444434466288662"><ele>186.0</ele><time>2026-04-11T14:07:34Z</time></trkpt><trkpt lat="42.98461095395481" lon="11.444505022807714"><ele>186.00000000000003</ele><time>2026-04-11T14:07:37Z</time></trkpt><trkpt lat="42.984654441018364" lon="11.444589656158412"><ele>186.0</ele><time>2026-04-11T14:07:41Z</time></trkpt><trkpt lat="42.98470060122164" lon="11.444674531515716"><ele>186.0</ele><time>2026-04-11T14:07:45Z</time></trkpt><trkpt lat="42.98474187393686" lon="11.444746320540121"><ele>186.0</ele><time>2026-04-11T14:07:49Z</time></trkpt><trkpt lat="42.98478874425812" lon="11.444822094100653"><ele>186.0</ele><time>2026-04-11T14:07:52.999Z</time></trkpt><trkpt lat="42.98483220008591" lon="11.444901957795723"><ele>186.00000000000003</ele><time>2026-04-11T14:07:56.999Z</time></trkpt><trkpt lat="42.98487950171645" lon="11.44497030877354"><ele>186.0</ele><time>2026-04-11T14:08:00.999Z</time></trkpt><trkpt lat="42.984932731237954" lon="11.445038285105326"><ele>186.71428571428572</ele><time>2026-04-11T14:08:04.999Z</time></trkpt><trkpt lat="42.984980642853216" lon="11.445112584896476"><ele>187.42857142857144</ele><time>2026-04-11T14:08:08.999Z</time></trkpt><trkpt lat="42.98502677063666" lon="11.445187653533086"><ele>188.14285714285717</ele><time>2026-04-11T14:08:13Z</time></trkpt><trkpt lat="42.98507532431539" lon="11.44526037331436"><ele>188.85714285714286</ele><time>2026-04-11T14:08:17Z</time></trkpt><trkpt lat="42.985116240975" lon="11.445326453070013"><ele>189.57142857142856</ele><time>2026-04-11T14:08:20Z</time></trkpt><trkpt lat="42.985168994394435" lon="11.445398833088976"><ele>190.2857142857143</ele><time>2026-04-11T14:08:24Z</time></trkpt><trkpt lat="42.985207018538894" lon="11.445488900645094"><ele>191.0</ele><time>2026-04-11T14:08:28Z</time></trkpt><trkpt lat="42.98525917386432" lon="11.445568242175263"><ele>192.5</ele><time>2026-04-11T14:08:32Z</time></trkpt><trkpt lat="42.98530471151191" lon="11.44564298435862"><ele>194.0</ele><time>2026-04-11T14:08:36Z</time></trkpt><trkpt lat="42.985358806856105" lon="11.445728894800602"><ele>195.5</ele><time>2026-04-11T14:08:40Z</time></trkpt><trkpt lat="42.98540426925796" lon="11.445804964241733"><ele>197.0</ele><time>2026-04-11T14:08:44Z</time></trkpt><trkpt lat="42.98545575967264" lon="11.44588428459307"><ele>198.50000000000003</ele><time>2026-04-11T14:08:48Z</time></trkpt><trkpt lat="42.98550338110935" lon="11.445962797744576"><ele>200.0</ele><time>2026-04-11T14:08:52Z</time></trkpt><trkpt lat="42.985553359490275" lon="11.446037784028816"><ele>200.00000000000003</ele><time>2026-04-11T14:08:56Z</time></trkpt><trkpt lat="42.98559922671255" lon="11.44611869923827"><ele>200.0</ele><time>2026-04-11T14:09:00Z</time></trkpt><trkpt lat="42.98566015267587" lon="11.446173298686125"><ele>200.0</ele><time>2026-04-11T14:09:04Z</time></trkpt><trkpt lat="42.98573355976679" lon="11.446201323117739"><ele>200.0</ele><time>2026-04-11T14:09:09Z</time></trkpt><trkpt lat="42.98579438351446" lon="11.446227839243981"><ele>200.0</ele><time>2026-04-11T14:09:13Z</time></trkpt><trkpt lat="42.98586412518366" lon="11.446218654404545"><ele>200.00000000000003</ele><time>2026-04-11T14:11:04Z</time></trkpt><trkpt lat="42.98590373846094" lon="11.446144648465507"><ele>200.0</ele><time>2026-04-11T14:11:08Z</time></trkpt><trkpt lat="42.98597938533572" lon="11.446101506798184"><ele>201.50000000000003</ele><time>2026-04-11T14:11:13Z</time></trkpt><trkpt lat="42.98604580290039" lon="11.44606950586998"><ele>203.0</ele><time>2026-04-11T14:11:18Z</time></trkpt><trkpt lat="42.98612338963989" lon="11.446044076491576"><ele>204.5</ele><time>2026-04-11T14:11:22Z</time></trkpt><trkpt lat="42.986187772890794" lon="11.44602739942163"><ele>206.0</ele><time>2026-04-11T14:11:25Z</time></trkpt><trkpt lat="42.98626764552575" lon="11.446008745013982"><ele>207.50000000000003</ele><time>2026-04-11T14:11:29Z</time></trkpt><trkpt lat="42.986342325701244" lon="11.44598780905554"><ele>209.0</ele><time>2026-04-11T14:11:33Z</time></trkpt><trkpt lat="42.986420685495865" lon="11.445972409629501"><ele>209.0</ele><time>2026-04-11T14:11:37Z</time></trkpt><trkpt lat="42.98649150882035" lon="11.445958714476198"><ele>209.0</ele><time>2026-04-11T14:11:41Z</time></trkpt><trkpt lat="42.98655695413092" lon="11.445945732892573"><ele>209.0</ele><time>2026-04-11T14:11:45Z</time></trkpt><trkpt lat="42.98661967867673" lon="11.445935784774491"><ele>209.0</ele><time>2026-04-11T14:11:49Z</time></trkpt><trkpt lat="42.98668991559488" lon="11.44592763076028"><ele>209.0</ele><time>2026-04-11T14:11:53Z</time></trkpt><trkpt lat="42.98675486054513" lon="11.445904834807587"><ele>209.0</ele><time>2026-04-11T14:11:57Z</time></trkpt><trkpt lat="42.98681926907362" lon="11.445896099632174"><ele>209.0</ele><time>2026-04-11T14:12:01Z</time></trkpt><trkpt lat="42.98688555387296" lon="11.445880226856358"><ele>210.57142857142856</ele><time>2026-04-11T14:12:05Z</time></trkpt><trkpt lat="42.98696096373335" lon="11.445864516031916"><ele>212.14285714285714</ele><time>2026-04-11T14:12:10Z</time></trkpt><trkpt lat="42.98703477763678" lon="11.44586528460927"><ele>213.71428571428572</ele><time>2026-04-11T14:12:15Z</time></trkpt><trkpt lat="42.987103587107285" lon="11.445850514010148"><ele>215.28571428571428</ele><time>2026-04-11T14:12:20Z</time></trkpt><trkpt lat="42.987167710706046" lon="11.445821067898795"><ele>216.85714285714286</ele><time>2026-04-11T14:12:25Z</time></trkpt><trkpt lat="42.98723937309479" lon="11.445806263149933"><ele>218.42857142857142</ele><time>2026-04-11T14:12:30Z</time></trkpt><trkpt lat="42.9873066703787" lon="11.445801291774"><ele>220.0</ele><time>2026-04-11T14:12:35Z</time></trkpt><trkpt lat="42.98737057591151" lon="11.445795094162962"><ele>219.99999999999997</ele><time>2026-04-11T14:12:40Z</time></trkpt><trkpt lat="42.987446063921844" lon="11.445787883768157"><ele>220.0</ele><time>2026-04-11T14:12:46Z</time></trkpt><trkpt lat="42.98751381578744" lon="11.44579063878655"><ele>220.0</ele><time>2026-04-11T14:12:52Z</time></trkpt><trkpt lat="42.987577121507556" lon="11.445810406146002"><ele>220.0</ele><time>2026-04-11T14:12:58Z</time></trkpt><trkpt lat="42.98764308532233" lon="11.445827406608462"><ele>220.0</ele><time>2026-04-11T14:13:04Z</time></trkpt><trkpt lat="42.987709217280404" lon="11.44585075019333"><ele>219.99999999999997</ele><time>2026-04-11T14:13:10Z</time></trkpt><trkpt lat="42.987772440313414" lon="11.44587407663005"><ele>220.0</ele><time>2026-04-11T14:13:26Z</time></trkpt><trkpt lat="42.98785731541272" lon="11.445890036637289"><ele>221.85714285714283</ele><time>2026-04-11T14:13:42Z</time></trkpt><trkpt lat="42.987920362454396" lon="11.445926631751986"><ele>223.71428571428572</ele><time>2026-04-11T14:13:54Z</time></trkpt><trkpt lat="42.98798526776233" lon="11.445962745012567"><ele>225.57142857142856</ele><time>2026-04-11T14:14:04Z</time></trkpt><trkpt lat="42.98805243857306" lon="11.445997005501633"><ele>227.42857142857142</ele><time>2026-04-11T14:14:13Z</time></trkpt><trkpt lat="42.988121808346904" lon="11.446019609701393"><ele>229.28571428571428</ele><time>2026-04-11T14:14:22.999Z</time></trkpt><trkpt lat="42.988184038218286" lon="11.446044770079713"><ele>231.14285714285714</ele><time>2026-04-11T14:14:32Z</time></trkpt><trkpt lat="42.988246446321156" lon="11.446076335917876"><ele>233.0</ele><time>2026-04-11T14:14:40Z</time></trkpt><trkpt lat="42.98831043278602" lon="11.446096118856198"><ele>233.85714285714286</ele><time>2026-04-11T14:14:49Z</time></trkpt><trkpt lat="42.98837191278055" lon="11.446124697725725"><ele>234.71428571428572</ele><time>2026-04-11T14:14:57Z</time></trkpt><trkpt lat="42.98843309266287" lon="11.446148709614686"><ele>235.57142857142858</ele><time>2026-04-11T14:15:05Z</time></trkpt><trkpt lat="42.98850040316407" lon="11.446175365939206"><ele>236.42857142857144</ele><time>2026-04-11T14:15:13Z</time></trkpt><trkpt lat="42.988564730465555" lon="11.446220878484922"><ele>237.28571428571428</ele><time>2026-04-11T14:15:21Z</time></trkpt><trkpt lat="42.988624249981335" lon="11.446249239079755"><ele>238.14285714285717</ele><time>2026-04-11T14:15:28Z</time></trkpt><trkpt lat="42.98868474270082" lon="11.44628839262071"><ele>239.00000000000003</ele><time>2026-04-11T14:15:35Z</time></trkpt><trkpt lat="42.988745431061936" lon="11.4463262458179"><ele>239.42857142857144</ele><time>2026-04-11T14:15:43Z</time></trkpt><trkpt lat="42.988804052940395" lon="11.4463580496393"><ele>239.85714285714286</ele><time>2026-04-11T14:15:50Z</time></trkpt><trkpt lat="42.98886439021935" lon="11.446395356176593"><ele>240.28571428571428</ele><time>2026-04-11T14:16:10Z</time></trkpt><trkpt lat="42.988918749973436" lon="11.446444522735412"><ele>240.71428571428572</ele><time>2026-04-11T14:16:31.999Z</time></trkpt><trkpt lat="42.988987570907156" lon="11.446492441902855"><ele>241.1428571428571</ele><time>2026-04-11T14:16:49Z</time></trkpt><trkpt lat="42.989048018328305" lon="11.446558871524987"><ele>241.57142857142856</ele><time>2026-04-11T14:16:54Z</time></trkpt><trkpt lat="42.98909273391786" lon="11.44662002438754"><ele>242.0</ele><time>2026-04-11T14:16:58Z</time></trkpt><trkpt lat="42.98913282112626" lon="11.446701001805014"><ele>241.85714285714283</ele><time>2026-04-11T14:17:02Z</time></trkpt><trkpt lat="42.98918466949611" lon="11.446785055437982"><ele>241.7142857142857</ele><time>2026-04-11T14:17:06Z</time></trkpt><trkpt lat="42.98923149821764" lon="11.44688112973053"><ele>241.57142857142856</ele><time>2026-04-11T14:17:10Z</time></trkpt><trkpt lat="42.98926523125632" lon="11.446954012988353"><ele>241.42857142857144</ele><time>2026-04-11T14:17:13Z</time></trkpt><trkpt lat="42.98929653153402" lon="11.447030790635951"><ele>241.2857142857143</ele><time>2026-04-11T14:17:16Z</time></trkpt><trkpt lat="42.989327531624006" lon="11.447113698317525"><ele>241.14285714285717</ele><time>2026-04-11T14:17:19Z</time></trkpt><trkpt lat="42.98937503930318" lon="11.44720595586428"><ele>241.0</ele><time>2026-04-11T14:17:23Z</time></trkpt><trkpt lat="42.98940971761505" lon="11.447279757491673"><ele>242.14285714285717</ele><time>2026-04-11T14:17:26Z</time></trkpt><trkpt lat="42.98944094954838" lon="11.447364584847778"><ele>243.2857142857143</ele><time>2026-04-11T14:17:29Z</time></trkpt><trkpt lat="42.98948096168377" lon="11.447436862488"><ele>244.42857142857144</ele><time>2026-04-11T14:17:32Z</time></trkpt><trkpt lat="42.9895156799216" lon="11.447508697871672"><ele>245.57142857142856</ele><time>2026-04-11T14:17:35Z</time></trkpt><trkpt lat="42.989551422751234" lon="11.447608941899354"><ele>246.7142857142857</ele><time>2026-04-11T14:17:39Z</time></trkpt><trkpt lat="42.98958861872841" lon="11.447679133437248"><ele>247.85714285714283</ele><time>2026-04-11T14:17:42Z</time></trkpt><trkpt lat="42.98963433415701" lon="11.44777077648882"><ele>249.0</ele><time>2026-04-11T14:17:46Z</time></trkpt><trkpt lat="42.9896693249371" lon="11.447853878423022"><ele>249.0</ele><time>2026-04-11T14:17:50Z</time></trkpt><trkpt lat="42.98971596260182" lon="11.447938765698924"><ele>248.99999999999997</ele><time>2026-04-11T14:17:54Z</time></trkpt><trkpt lat="42.989751286912394" lon="11.448026752527294"><ele>249.0</ele><time>2026-04-11T14:17:58Z</time></trkpt><trkpt lat="42.98978899706669" lon="11.448106428055585"><ele>249.0</ele><time>2026-04-11T14:18:02Z</time></trkpt><trkpt lat="42.9898209925657" lon="11.448188977921415"><ele>248.99999999999997</ele><time>2026-04-11T14:18:06Z</time></trkpt><trkpt lat="42.98986738329663" lon="11.448260450169142"><ele>249.0</ele><time>2026-04-11T14:18:10Z</time></trkpt><trkpt lat="42.98990608377105" lon="11.448360620105744"><ele>249.0</ele><time>2026-04-11T14:18:15Z</time></trkpt><trkpt lat="42.98991234820437" lon="11.448447264018352"><ele>249.7142857142857</ele><time>2026-04-11T14:18:19Z</time></trkpt><trkpt lat="42.989911106982746" lon="11.448534363917746"><ele>250.4285714285714</ele><time>2026-04-11T14:18:23Z</time></trkpt><trkpt lat="42.989884910879354" lon="11.44861977268301"><ele>251.14285714285714</ele><time>2026-04-11T14:18:26Z</time></trkpt><trkpt lat="42.98987067311949" lon="11.44870569628793"><ele>251.85714285714283</ele><time>2026-04-11T14:18:28.999Z</time></trkpt><trkpt lat="42.98984913401244" lon="11.448817395426904"><ele>252.57142857142856</ele><time>2026-04-11T14:18:31.999Z</time></trkpt><trkpt lat="42.98985038361088" lon="11.448912787069489"><ele>253.28571428571428</ele><time>2026-04-11T14:18:35.999Z</time></trkpt><trkpt lat="42.98985058080553" lon="11.449006423641768"><ele>254.0</ele><time>2026-04-11T14:18:38.999Z</time></trkpt><trkpt lat="42.98985549026073" lon="11.44909415545095"><ele>255.28571428571428</ele><time>2026-04-11T14:18:43Z</time></trkpt><trkpt lat="42.98983047544632" lon="11.449190209304325"><ele>256.57142857142856</ele><time>2026-04-11T14:18:47Z</time></trkpt><trkpt lat="42.989788215889256" lon="11.449265183341057"><ele>257.85714285714283</ele><time>2026-04-11T14:18:50Z</time></trkpt><trkpt lat="42.98973366774273" lon="11.449318998611673"><ele>259.1428571428571</ele><time>2026-04-11T14:18:53Z</time></trkpt><trkpt lat="42.98967276813625" lon="11.449406983880321"><ele>260.4285714285714</ele><time>2026-04-11T14:18:56Z</time></trkpt><trkpt lat="42.98962443782744" lon="11.449465011350732"><ele>261.7142857142857</ele><time>2026-04-11T14:18:58Z</time></trkpt><trkpt lat="42.98957706681475" lon="11.449530270043866"><ele>263.0</ele><time>2026-04-11T14:19:00Z</time></trkpt><trkpt lat="42.98953126342541" lon="11.449601556031169"><ele>264.57142857142856</ele><time>2026-04-11T14:19:02Z</time></trkpt><trkpt lat="42.9894820027722" lon="11.449669232503398"><ele>266.1428571428571</ele><time>2026-04-11T14:19:04Z</time></trkpt><trkpt lat="42.98943566911418" lon="11.44973372809776"><ele>267.7142857142857</ele><time>2026-04-11T14:19:06Z</time></trkpt><trkpt lat="42.989398363989146" lon="11.449815302279818"><ele>269.2857142857143</ele><time>2026-04-11T14:19:08Z</time></trkpt><trkpt lat="42.98936672956444" lon="11.449900381528805"><ele>270.8571428571429</ele><time>2026-04-11T14:19:10Z</time></trkpt><trkpt lat="42.98934328870699" lon="11.449984874878504"><ele>272.42857142857144</ele><time>2026-04-11T14:19:12Z</time></trkpt><trkpt lat="42.98932213506232" lon="11.45007153242899"><ele>274.0</ele><time>2026-04-11T14:19:14Z</time></trkpt><trkpt lat="42.98929740480722" lon="11.450181420927986"><ele>274.0</ele><time>2026-04-11T14:19:17Z</time></trkpt><trkpt lat="42.98927017562037" lon="11.450292653910008"><ele>274.0</ele><time>2026-04-11T14:19:20Z</time></trkpt><trkpt lat="42.98924520191165" lon="11.450398623391244"><ele>274.0</ele><time>2026-04-11T14:19:23Z</time></trkpt><trkpt lat="42.98921361441187" lon="11.450499612514513"><ele>274.0</ele><time>2026-04-11T14:19:26Z</time></trkpt><trkpt lat="42.98918830772953" lon="11.450599727941546"><ele>274.0</ele><time>2026-04-11T14:19:29Z</time></trkpt><trkpt lat="42.98915287067539" lon="11.45069290811765"><ele>274.0</ele><time>2026-04-11T14:19:32Z</time></trkpt><trkpt lat="42.98912528273599" lon="11.450773719204843"><ele>274.7142857142857</ele><time>2026-04-11T14:19:35Z</time></trkpt><trkpt lat="42.98909865041116" lon="11.450881004337628"><ele>275.42857142857144</ele><time>2026-04-11T14:19:39Z</time></trkpt><trkpt lat="42.989062612196136" lon="11.450965722583303"><ele>276.1428571428571</ele><time>2026-04-11T14:19:43Z</time></trkpt><trkpt lat="42.98903041856249" lon="11.451044684538434"><ele>276.8571428571429</ele><time>2026-04-11T14:19:46Z</time></trkpt><trkpt lat="42.98899990117984" lon="11.451140576235082"><ele>277.57142857142856</ele><time>2026-04-11T14:19:50Z</time></trkpt><trkpt lat="42.98896994742935" lon="11.45122619054466"><ele>278.2857142857143</ele><time>2026-04-11T14:19:54Z</time></trkpt><trkpt lat="42.988949159914796" lon="11.451327981508966"><ele>279.0</ele><time>2026-04-11T14:19:58Z</time></trkpt><trkpt lat="42.98892719503584" lon="11.451417060355446"><ele>278.99999999999994</ele><time>2026-04-11T14:20:02Z</time></trkpt><trkpt lat="42.98891564452803" lon="11.45150504416302"><ele>279.0</ele><time>2026-04-11T14:20:06Z</time></trkpt><trkpt lat="42.98889265759207" lon="11.45159943694041"><ele>279.0</ele><time>2026-04-11T14:20:11Z</time></trkpt><trkpt lat="42.988875274942934" lon="11.451699882881028"><ele>279.0</ele><time>2026-04-11T14:20:16Z</time></trkpt><trkpt lat="42.98883244365563" lon="11.451780062533231"><ele>279.0</ele><time>2026-04-11T14:20:22Z</time></trkpt><trkpt lat="42.98875266921727" lon="11.451761940478189"><ele>278.99999999999994</ele><time>2026-04-11T14:20:25.999Z</time></trkpt><trkpt lat="42.98867406597105" lon="11.451734767943467"><ele>279.0</ele><time>2026-04-11T14:20:28.999Z</time></trkpt><trkpt lat="42.98861077943715" lon="11.451701201422424"><ele>279.0</ele><time>2026-04-11T14:20:30.999Z</time></trkpt><trkpt lat="42.98855154969582" lon="11.451661344622028"><ele>279.0</ele><time>2026-04-11T14:20:32.999Z</time></trkpt><trkpt lat="42.98847365855109" lon="11.451614732190578"><ele>279.0</ele><time>2026-04-11T14:20:34.999Z</time></trkpt><trkpt lat="42.988392934397" lon="11.451564699653792"><ele>279.0</ele><time>2026-04-11T14:20:36.999Z</time></trkpt><trkpt lat="42.988307695222666" lon="11.451520143079723"><ele>279.0</ele><time>2026-04-11T14:20:38.999Z</time></trkpt><trkpt lat="42.98822777028714" lon="11.45147318884776"><ele>279.0</ele><time>2026-04-11T14:20:40.999Z</time></trkpt><trkpt lat="42.98815367276648" lon="11.451445973122395"><ele>277.5</ele><time>2026-04-11T14:20:42.999Z</time></trkpt><trkpt lat="42.98807871788831" lon="11.451450244136844"><ele>276.0</ele><time>2026-04-11T14:20:44.999Z</time></trkpt><trkpt lat="42.98801395518732" lon="11.45146595602068"><ele>274.5</ele><time>2026-04-11T14:20:46.999Z</time></trkpt><trkpt lat="42.987944745564604" lon="11.451484565261433"><ele>273.0</ele><time>2026-04-11T14:20:49Z</time></trkpt><trkpt lat="42.98786881855384" lon="11.451512626474573"><ele>271.5</ele><time>2026-04-11T14:20:51Z</time></trkpt><trkpt lat="42.98778357121408" lon="11.451577593493807"><ele>270.0</ele><time>2026-04-11T14:20:53Z</time></trkpt><trkpt lat="42.987729655992545" lon="11.451693819863811"><ele>270.0</ele><time>2026-04-11T14:20:55Z</time></trkpt><trkpt lat="42.98769589213146" lon="11.451818596270272"><ele>270.0</ele><time>2026-04-11T14:20:57Z</time></trkpt><trkpt lat="42.987666103951945" lon="11.451916793797148"><ele>270.0</ele><time>2026-04-11T14:20:59Z</time></trkpt><trkpt lat="42.987648283166415" lon="11.452005853679871"><ele>270.0</ele><time>2026-04-11T14:21:01Z</time></trkpt><trkpt lat="42.98762888729927" lon="11.452114747265469"><ele>270.0</ele><time>2026-04-11T14:21:03Z</time></trkpt><trkpt lat="42.987604958433764" lon="11.452218779439594"><ele>270.0</ele><time>2026-04-11T14:21:05Z</time></trkpt><trkpt lat="42.98756758189072" lon="11.452354379715509"><ele>270.0</ele><time>2026-04-11T14:21:07Z</time></trkpt><trkpt lat="42.9875533349389" lon="11.452488320086866"><ele>270.0</ele><time>2026-04-11T14:21:09Z</time></trkpt><trkpt lat="42.98751484930317" lon="11.45263013511642"><ele>270.0</ele><time>2026-04-11T14:21:11Z</time></trkpt><trkpt lat="42.98749202744783" lon="11.452776649868552"><ele>270.0</ele><time>2026-04-11T14:21:13Z</time></trkpt><trkpt lat="42.98745744705577" lon="11.452924707389739"><ele>270.0</ele><time>2026-04-11T14:21:15Z</time></trkpt><trkpt lat="42.987425406847606" lon="11.453061393927577"><ele>270.0</ele><time>2026-04-11T14:21:17Z</time></trkpt><trkpt lat="42.98741073170536" lon="11.453160054015468"><ele>270.0</ele><time>2026-04-11T14:21:19Z</time></trkpt><trkpt lat="42.98740849147531" lon="11.453308074841166"><ele>270.0</ele><time>2026-04-11T14:21:21Z</time></trkpt><trkpt lat="42.987390486461464" lon="11.453405560084244"><ele>270.0</ele><time>2026-04-11T14:21:23Z</time></trkpt><trkpt lat="42.987412731203435" lon="11.453538181655336"><ele>270.0</ele><time>2026-04-11T14:21:25Z</time></trkpt><trkpt lat="42.98745538180137" lon="11.45365543163993"><ele>270.0</ele><time>2026-04-11T14:21:27Z</time></trkpt><trkpt lat="42.98750903974947" lon="11.45377676412891"><ele>270.0</ele><time>2026-04-11T14:21:29Z</time></trkpt><trkpt lat="42.98757220497803" lon="11.45391577636975"><ele>270.0</ele><time>2026-04-11T14:21:31Z</time></trkpt><trkpt lat="42.987639921169375" lon="11.454051991134406"><ele>270.0</ele><time>2026-04-11T14:21:33Z</time></trkpt><trkpt lat="42.98767738798919" lon="11.454122410127654"><ele>270.0</ele><time>2026-04-11T14:21:34Z</time></trkpt><trkpt lat="42.98774023090601" lon="11.4542609070649"><ele>270.2</ele><time>2026-04-11T14:21:36Z</time></trkpt><trkpt lat="42.98780874444529" lon="11.454361281490437"><ele>270.4</ele><time>2026-04-11T14:21:38Z</time></trkpt><trkpt lat="42.987886983743564" lon="11.454422145214403"><ele>270.6</ele><time>2026-04-11T14:21:40Z</time></trkpt><trkpt lat="42.98799035723178" lon="11.4544729481311"><ele>270.8</ele><time>2026-04-11T14:21:43Z</time></trkpt><trkpt lat="42.98808299539253" lon="11.45449788347277"><ele>271.0</ele><time>2026-04-11T14:21:45Z</time></trkpt><trkpt lat="42.98819790494871" lon="11.454522370481843"><ele>271.0</ele><time>2026-04-11T14:21:47Z</time></trkpt><trkpt lat="42.98826532079376" lon="11.454619863909025"><ele>271.0</ele><time>2026-04-11T14:21:50Z</time></trkpt><trkpt lat="42.98822689906005" lon="11.454718625492585"><ele>271.0</ele><time>2026-04-11T14:21:52Z</time></trkpt><trkpt lat="42.988156861974076" lon="11.454769925379054"><ele>271.0</ele><time>2026-04-11T14:21:54Z</time></trkpt><trkpt lat="42.98809538632907" lon="11.454806577124106"><ele>271.0</ele><time>2026-04-11T14:21:56Z</time></trkpt><trkpt lat="42.98802320690084" lon="11.454869107076018"><ele>271.0</ele><time>2026-04-11T14:21:59Z</time></trkpt><trkpt lat="42.987967480069074" lon="11.45493843957965"><ele>271.6</ele><time>2026-04-11T14:22:01Z</time></trkpt><trkpt lat="42.98792025987879" lon="11.455043568070755"><ele>272.20000000000005</ele><time>2026-04-11T14:22:04Z</time></trkpt><trkpt lat="42.98787040643622" lon="11.455106523442186"><ele>272.79999999999995</ele><time>2026-04-11T14:22:06Z</time></trkpt><trkpt lat="42.98778984138296" lon="11.455197665910742"><ele>273.4</ele><time>2026-04-11T14:22:09Z</time></trkpt><trkpt lat="42.987709091160845" lon="11.455266355697512"><ele>274.0</ele><time>2026-04-11T14:22:11Z</time></trkpt><trkpt lat="42.98763705559162" lon="11.455345992260577"><ele>274.0</ele><time>2026-04-11T14:22:13Z</time></trkpt><trkpt lat="42.98755552888294" lon="11.455439013903773"><ele>274.0</ele><time>2026-04-11T14:22:15Z</time></trkpt><trkpt lat="42.98748585482919" lon="11.455524680205533"><ele>274.0</ele><time>2026-04-11T14:22:17Z</time></trkpt><trkpt lat="42.98742396764521" lon="11.45560671181252"><ele>274.0</ele><time>2026-04-11T14:22:19Z</time></trkpt><trkpt lat="42.98737959560579" lon="11.455689520349605"><ele>274.0</ele><time>2026-04-11T14:22:21Z</time></trkpt><trkpt lat="42.98733639388592" lon="11.455783862429772"><ele>274.0</ele><time>2026-04-11T14:22:23Z</time></trkpt><trkpt lat="42.987278593944175" lon="11.455905671669916"><ele>273.0</ele><time>2026-04-11T14:22:25Z</time></trkpt><trkpt lat="42.98721574387512" lon="11.4560171499791"><ele>272.0</ele><time>2026-04-11T14:22:27Z</time></trkpt><trkpt lat="42.987167763485246" lon="11.456148059734993"><ele>271.0</ele><time>2026-04-11T14:22:29Z</time></trkpt><trkpt lat="42.987140812037204" lon="11.4562638755269"><ele>270.0</ele><time>2026-04-11T14:22:31Z</time></trkpt><trkpt lat="42.98711686627454" lon="11.4563770280089"><ele>269.0</ele><time>2026-04-11T14:22:32.999Z</time></trkpt><trkpt lat="42.98713306373092" lon="11.456509174259777"><ele>269.0</ele><time>2026-04-11T14:22:34.999Z</time></trkpt><trkpt lat="42.98713833452922" lon="11.456661204690775"><ele>269.0</ele><time>2026-04-11T14:22:36.999Z</time></trkpt><trkpt lat="42.98713685912377" lon="11.456795934614696"><ele>269.0</ele><time>2026-04-11T14:22:38.999Z</time></trkpt><trkpt lat="42.98711800288986" lon="11.456881209881562"><ele>269.0</ele><time>2026-04-11T14:22:39.999Z</time></trkpt><trkpt lat="42.987025663497114" lon="11.456935293404612"><ele>269.0</ele><time>2026-04-11T14:22:41.999Z</time></trkpt><trkpt lat="42.98695663782504" lon="11.457002301092471"><ele>269.0</ele><time>2026-04-11T14:22:44.999Z</time></trkpt><trkpt lat="42.98688773950482" lon="11.457044784384417"><ele>269.0</ele><time>2026-04-11T14:22:47.999Z</time></trkpt><trkpt lat="42.98682046493629" lon="11.457095348628542"><ele>269.0</ele><time>2026-04-11T14:22:52.999Z</time></trkpt><trkpt lat="42.9867535920532" lon="11.457144745198358"><ele>269.0</ele><time>2026-04-11T14:22:58Z</time></trkpt><trkpt lat="42.986690775646345" lon="11.457212945177595"><ele>269.0</ele><time>2026-04-11T14:23:03Z</time></trkpt><trkpt lat="42.98663017008875" lon="11.457259378503403"><ele>269.0</ele><time>2026-04-11T14:23:07Z</time></trkpt><trkpt lat="42.98656143832106" lon="11.457298779991474"><ele>268.57142857142856</ele><time>2026-04-11T14:23:12Z</time></trkpt><trkpt lat="42.98650520708198" lon="11.45735248810883"><ele>268.14285714285717</ele><time>2026-04-11T14:23:16Z</time></trkpt><trkpt lat="42.9864463016324" lon="11.457413177848546"><ele>267.7142857142857</ele><time>2026-04-11T14:23:20Z</time></trkpt><trkpt lat="42.98639947113058" lon="11.457491235874043"><ele>267.2857142857143</ele><time>2026-04-11T14:23:24Z</time></trkpt><trkpt lat="42.98633720714622" lon="11.457566811136065"><ele>266.8571428571429</ele><time>2026-04-11T14:23:28Z</time></trkpt><trkpt lat="42.98628599879745" lon="11.457628406858115"><ele>266.42857142857144</ele><time>2026-04-11T14:23:31Z</time></trkpt><trkpt lat="42.986238175186685" lon="11.45771544768774"><ele>266.0</ele><time>2026-04-11T14:23:34Z</time></trkpt><trkpt lat="42.98618848339294" lon="11.457795486936362"><ele>266.0</ele><time>2026-04-11T14:23:37Z</time></trkpt><trkpt lat="42.98613383889483" lon="11.45787250173056"><ele>266.0</ele><time>2026-04-11T14:23:40Z</time></trkpt><trkpt lat="42.98607961476263" lon="11.457954323464806"><ele>266.0</ele><time>2026-04-11T14:23:43Z</time></trkpt><trkpt lat="42.98602513388975" lon="11.458024929917595"><ele>266.0</ele><time>2026-04-11T14:23:46Z</time></trkpt><trkpt lat="42.985976537095674" lon="11.458112487577564"><ele>266.0</ele><time>2026-04-11T14:23:50Z</time></trkpt><trkpt lat="42.98593579436764" lon="11.458186389423556"><ele>266.0</ele><time>2026-04-11T14:24:01Z</time></trkpt><trkpt lat="42.985911631497906" lon="11.458301997066998"><ele>265.83333333333337</ele><time>2026-04-11T14:27:04.999Z</time></trkpt><trkpt lat="42.98579480104238" lon="11.458314197978254"><ele>265.6666666666667</ele><time>2026-04-11T14:31:44Z</time></trkpt><trkpt lat="42.98572867660881" lon="11.45832837492219"><ele>265.5</ele><time>2026-04-11T14:31:46Z</time></trkpt><trkpt lat="42.98565633849859" lon="11.458358510931797"><ele>265.3333333333333</ele><time>2026-04-11T14:31:48Z</time></trkpt><trkpt lat="42.98557617340464" lon="11.45837203097015"><ele>265.16666666666663</ele><time>2026-04-11T14:31:50Z</time></trkpt><trkpt lat="42.98548699329989" lon="11.458413334365613"><ele>265.0</ele><time>2026-04-11T14:31:52Z</time></trkpt><trkpt lat="42.98541109179049" lon="11.458391429348364"><ele>265.0</ele><time>2026-04-11T14:31:55Z</time></trkpt><trkpt lat="42.98534037591532" lon="11.458385029900612"><ele>265.0</ele><time>2026-04-11T14:31:59Z</time></trkpt><trkpt lat="42.985326910626206" lon="11.458553091748092"><ele>265.0</ele><time>2026-04-11T14:32:02Z</time></trkpt><trkpt lat="42.98535672638913" lon="11.458464021224774"><ele>265.0</ele><time>2026-04-11T14:32:08Z</time></trkpt><trkpt lat="42.985492508375025" lon="11.458418911395931"><ele>265.0</ele><time>2026-04-11T14:32:12Z</time></trkpt><trkpt lat="42.98555541695732" lon="11.458379259038496"><ele>264.99999999999994</ele><time>2026-04-11T14:32:16Z</time></trkpt><trkpt lat="42.98561674263807" lon="11.458357530954439"><ele>265.0</ele><time>2026-04-11T14:32:20Z</time></trkpt><trkpt lat="42.98568747461744" lon="11.458332250294953"><ele>265.0</ele><time>2026-04-11T14:32:25Z</time></trkpt><trkpt lat="42.98575872854166" lon="11.458307992098124"><ele>265.0</ele><time>2026-04-11T14:32:31Z</time></trkpt><trkpt lat="42.98582518360085" lon="11.458295494627286"><ele>265.0</ele><time>2026-04-11T14:32:36Z</time></trkpt><trkpt lat="42.98589781369897" lon="11.45829402597881"><ele>264.99999999999994</ele><time>2026-04-11T14:32:42Z</time></trkpt><trkpt lat="42.98596841866141" lon="11.458279280726922"><ele>265.0</ele><time>2026-04-11T14:32:49Z</time></trkpt><trkpt lat="42.986031955475504" lon="11.458263712588469"><ele>265.2</ele><time>2026-04-11T14:32:55Z</time></trkpt><trkpt lat="42.986098441265995" lon="11.458250030595982"><ele>265.4</ele><time>2026-04-11T14:33:01Z</time></trkpt><trkpt lat="42.98616650176769" lon="11.458234007910736"><ele>265.6</ele><time>2026-04-11T14:33:07Z</time></trkpt><trkpt lat="42.98600614749162" lon="11.458094448573211"><ele>265.8</ele><time>2026-04-11T14:33:09Z</time></trkpt><trkpt lat="42.98603233241858" lon="11.458003570616812"><ele>266.0</ele><time>2026-04-11T14:33:12Z</time></trkpt><trkpt lat="42.986074564296466" lon="11.457935475021925"><ele>266.0</ele><time>2026-04-11T14:33:19Z</time></trkpt><trkpt lat="42.98612122503693" lon="11.45786324052941"><ele>266.0</ele><time>2026-04-11T14:33:27.001Z</time></trkpt><trkpt lat="42.986165113751404" lon="11.45779525476918"><ele>266.0</ele><time>2026-04-11T14:33:35Z</time></trkpt><trkpt lat="42.986209124957824" lon="11.457726207057988"><ele>266.0</ele><time>2026-04-11T14:33:43Z</time></trkpt><trkpt lat="42.98625420489553" lon="11.457655482624851"><ele>266.0</ele><time>2026-04-11T14:33:51Z</time></trkpt><trkpt lat="42.986297912297736" lon="11.457591040280805"><ele>266.0</ele><time>2026-04-11T14:33:56Z</time></trkpt><trkpt lat="42.986366582155036" lon="11.457565894744132"><ele>266.0</ele><time>2026-04-11T14:33:57Z</time></trkpt><trkpt lat="42.98642677798417" lon="11.457622696468942"><ele>266.0</ele><time>2026-04-11T14:33:59Z</time></trkpt><trkpt lat="42.98648441783102" lon="11.457687674325298"><ele>266.0</ele><time>2026-04-11T14:34:01Z</time></trkpt><trkpt lat="42.98657538944476" lon="11.457720033334564"><ele>266.0</ele><time>2026-04-11T14:34:03Z</time></trkpt><trkpt lat="42.986644486448185" lon="11.457788363030485"><ele>266.0</ele><time>2026-04-11T14:34:05Z</time></trkpt><trkpt lat="42.98670707372136" lon="11.457866338941662"><ele>266.0</ele><time>2026-04-11T14:34:07Z</time></trkpt><trkpt lat="42.98678667719132" lon="11.45793511762717"><ele>266.0</ele><time>2026-04-11T14:34:09Z</time></trkpt><trkpt lat="42.98685824637829" lon="11.458018830131866"><ele>269.2</ele><time>2026-04-11T14:34:11Z</time></trkpt><trkpt lat="42.9870270504643" lon="11.458245336799624"><ele>272.40000000000003</ele><time>2026-04-11T14:34:15Z</time></trkpt><trkpt lat="42.98709102958571" lon="11.45825118914594"><ele>275.6</ele><time>2026-04-11T14:34:20Z</time></trkpt><trkpt lat="42.987163528527226" lon="11.45827809679646"><ele>278.8</ele><time>2026-04-11T14:34:25Z</time></trkpt><trkpt lat="42.98722684499547" lon="11.458300835401174"><ele>282.0</ele><time>2026-04-11T14:34:30Z</time></trkpt><trkpt lat="42.987283982934926" lon="11.458341003506266"><ele>282.0</ele><time>2026-04-11T14:34:35Z</time></trkpt><trkpt lat="42.98734535883219" lon="11.458393703421514"><ele>282.0</ele><time>2026-04-11T14:34:40Z</time></trkpt><trkpt lat="42.98740571138147" lon="11.458450551293701"><ele>282.0</ele><time>2026-04-11T14:34:45Z</time></trkpt><trkpt lat="42.98744128737478" lon="11.458538914703462"><ele>282.0</ele><time>2026-04-11T14:34:51Z</time></trkpt><trkpt lat="42.98746670849462" lon="11.45862175830499"><ele>282.0</ele><time>2026-04-11T14:34:56Z</time></trkpt><trkpt lat="42.98749110363269" lon="11.458701458937258"><ele>282.0</ele><time>2026-04-11T14:35:01Z</time></trkpt><trkpt lat="42.9875471174387" lon="11.458769602516165"><ele>282.0</ele><time>2026-04-11T14:35:07Z</time></trkpt><trkpt lat="42.987613229786525" lon="11.45880423547761"><ele>285.57142857142856</ele><time>2026-04-11T14:35:13Z</time></trkpt><trkpt lat="42.98768636667011" lon="11.458809417848707"><ele>289.1428571428571</ele><time>2026-04-11T14:35:19Z</time></trkpt><trkpt lat="42.987756521005196" lon="11.458828452166461"><ele>292.71428571428567</ele><time>2026-04-11T14:36:07Z</time></trkpt><trkpt lat="42.98782331056749" lon="11.458849222803595"><ele>296.2857142857143</ele><time>2026-04-11T14:38:26Z</time></trkpt><trkpt lat="42.987887010795255" lon="11.458867518661917"><ele>299.85714285714283</ele><time>2026-04-11T14:38:32Z</time></trkpt><trkpt lat="42.987954815265525" lon="11.458881812677998"><ele>303.4285714285714</ele><time>2026-04-11T14:38:39Z</time></trkpt><trkpt lat="42.988010291170454" lon="11.458933084373513"><ele>307.0</ele><time>2026-04-11T14:38:49Z</time></trkpt><trkpt lat="42.98805695079612" lon="11.459002872196633"><ele>306.99999999999994</ele><time>2026-04-11T14:38:57Z</time></trkpt><trkpt lat="42.988041994807645" lon="11.459088467093073"><ele>307.0</ele><time>2026-04-11T14:39:06Z</time></trkpt><trkpt lat="42.98797066997405" lon="11.45911262115602"><ele>307.0</ele><time>2026-04-11T14:39:29Z</time></trkpt><trkpt lat="42.98789517418279" lon="11.459121275788469"><ele>307.0</ele><time>2026-04-11T14:39:34Z</time></trkpt><trkpt lat="42.98781848335304" lon="11.45913491998293"><ele>307.0</ele><time>2026-04-11T14:39:38Z</time></trkpt><trkpt lat="42.98775512934596" lon="11.459167057937805"><ele>306.99999999999994</ele><time>2026-04-11T14:39:42Z</time></trkpt><trkpt lat="42.98769459991065" lon="11.459207838827421"><ele>307.0</ele><time>2026-04-11T14:39:46Z</time></trkpt><trkpt lat="42.98764003674106" lon="11.45925225716378"><ele>306.99999999999994</ele><time>2026-04-11T14:39:50Z</time></trkpt><trkpt lat="42.98757637829828" lon="11.459306816718412"><ele>307.0</ele><time>2026-04-11T14:39:54Z</time></trkpt><trkpt lat="42.98751192093074" lon="11.459348382643364"><ele>307.0</ele><time>2026-04-11T14:39:58Z</time></trkpt><trkpt lat="42.987445975991655" lon="11.459399793866394"><ele>307.0</ele><time>2026-04-11T14:40:02Z</time></trkpt><trkpt lat="42.987387488779405" lon="11.459445108625394"><ele>307.0</ele><time>2026-04-11T14:40:06Z</time></trkpt><trkpt lat="42.98733960940483" lon="11.45950158806019"><ele>306.99999999999994</ele><time>2026-04-11T14:40:10Z</time></trkpt><trkpt lat="42.98729102125919" lon="11.459559520139841"><ele>307.0</ele><time>2026-04-11T14:40:14Z</time></trkpt><trkpt lat="42.98724907370145" lon="11.459632853636995"><ele>308.2857142857143</ele><time>2026-04-11T14:40:18Z</time></trkpt><trkpt lat="42.98720314828235" lon="11.45970306759168"><ele>309.57142857142856</ele><time>2026-04-11T14:40:22Z</time></trkpt><trkpt lat="42.98715616798779" lon="11.459783416447381"><ele>310.8571428571429</ele><time>2026-04-11T14:40:26Z</time></trkpt><trkpt lat="42.98711512044677" lon="11.45985105715882"><ele>312.1428571428571</ele><time>2026-04-11T14:40:30Z</time></trkpt><trkpt lat="42.98708825918291" lon="11.459932203470197"><ele>313.42857142857144</ele><time>2026-04-11T14:40:34Z</time></trkpt><trkpt lat="42.98706016058011" lon="11.460011844152378"><ele>314.7142857142857</ele><time>2026-04-11T14:40:38Z</time></trkpt><trkpt lat="42.98704105602777" lon="11.460114072894095"><ele>316.0</ele><time>2026-04-11T14:40:43Z</time></trkpt><trkpt lat="42.987027161384965" lon="11.460206310752987"><ele>316.00000000000006</ele><time>2026-04-11T14:40:47Z</time></trkpt><trkpt lat="42.98701885858178" lon="11.460293988671392"><ele>316.0</ele><time>2026-04-11T14:40:51Z</time></trkpt><trkpt lat="42.9870480714645" lon="11.460389881014335"><ele>316.0</ele><time>2026-04-11T14:40:56Z</time></trkpt><trkpt lat="42.98712311292996" lon="11.460340560042107"><ele>316.0</ele><time>2026-04-11T14:41:02Z</time></trkpt><trkpt lat="42.98717556759384" lon="11.460275590641855"><ele>316.0</ele><time>2026-04-11T14:41:06Z</time></trkpt><trkpt lat="42.98722659589117" lon="11.460221723498941"><ele>316.00000000000006</ele><time>2026-04-11T14:41:10Z</time></trkpt><trkpt lat="42.98728418722428" lon="11.460170663477365"><ele>316.0</ele><time>2026-04-11T14:41:14Z</time></trkpt><trkpt lat="42.98734252838833" lon="11.460129130754863"><ele>316.00000000000006</ele><time>2026-04-11T14:41:18Z</time></trkpt><trkpt lat="42.98740516865548" lon="11.460094156093442"><ele>316.0</ele><time>2026-04-11T14:41:22Z</time></trkpt><trkpt lat="42.98746585113488" lon="11.46006912995429"><ele>316.0</ele><time>2026-04-11T14:41:26Z</time></trkpt><trkpt lat="42.98752783554879" lon="11.460049247695421"><ele>316.0</ele><time>2026-04-11T14:41:30Z</time></trkpt><trkpt lat="42.987605267196436" lon="11.460039691359583"><ele>316.0</ele><time>2026-04-11T14:41:35Z</time></trkpt><trkpt lat="42.987672161836755" lon="11.460043288570002"><ele>316.00000000000006</ele><time>2026-04-11T14:41:39Z</time></trkpt><trkpt lat="42.98773950423079" lon="11.460056684990592"><ele>316.0</ele><time>2026-04-11T14:41:43Z</time></trkpt><trkpt lat="42.98780677834472" lon="11.460060805335663"><ele>317.14285714285717</ele><time>2026-04-11T14:41:47Z</time></trkpt><trkpt lat="42.98788044991217" lon="11.460086463157918"><ele>318.2857142857143</ele><time>2026-04-11T14:41:52Z</time></trkpt><trkpt lat="42.98794359969824" lon="11.460106919012214"><ele>319.42857142857144</ele><time>2026-04-11T14:41:56Z</time></trkpt><trkpt lat="42.98800572378545" lon="11.460133873072177"><ele>320.57142857142856</ele><time>2026-04-11T14:42:01Z</time></trkpt><trkpt lat="42.9880812752588" lon="11.460156710661757"><ele>321.7142857142857</ele><time>2026-04-11T14:42:06Z</time></trkpt><trkpt lat="42.988143600441596" lon="11.460175092904539"><ele>322.8571428571429</ele><time>2026-04-11T14:42:10Z</time></trkpt><trkpt lat="42.988212197262484" lon="11.460202523264615"><ele>324.0</ele><time>2026-04-11T14:42:15Z</time></trkpt><trkpt lat="42.98828223667095" lon="11.460235170310867"><ele>324.7142857142857</ele><time>2026-04-11T14:42:20Z</time></trkpt><trkpt lat="42.98835572341718" lon="11.460258632073053"><ele>325.42857142857144</ele><time>2026-04-11T14:42:24Z</time></trkpt><trkpt lat="42.988428564042934" lon="11.460281384540066"><ele>326.1428571428571</ele><time>2026-04-11T14:42:28Z</time></trkpt><trkpt lat="42.98850310813046" lon="11.460314181629762"><ele>326.8571428571429</ele><time>2026-04-11T14:42:32Z</time></trkpt><trkpt lat="42.98857628094706" lon="11.460350259965756"><ele>327.57142857142856</ele><time>2026-04-11T14:42:36Z</time></trkpt><trkpt lat="42.988634259769" lon="11.46038665312417"><ele>328.2857142857143</ele><time>2026-04-11T14:42:39Z</time></trkpt><trkpt lat="42.988691640551394" lon="11.460426160122967"><ele>329.0</ele><time>2026-04-11T14:42:42Z</time></trkpt><trkpt lat="42.98874458510048" lon="11.46047598221644"><ele>330.0</ele><time>2026-04-11T14:42:45Z</time></trkpt><trkpt lat="42.988813478798576" lon="11.46053919187106"><ele>331.0</ele><time>2026-04-11T14:42:49Z</time></trkpt><trkpt lat="42.98886878510651" lon="11.460586276028186"><ele>332.0</ele><time>2026-04-11T14:42:52Z</time></trkpt><trkpt lat="42.98891695153673" lon="11.460647649486376"><ele>333.0</ele><time>2026-04-11T14:42:55Z</time></trkpt><trkpt lat="42.98896940102993" lon="11.460703196524172"><ele>334.0</ele><time>2026-04-11T14:42:58Z</time></trkpt><trkpt lat="42.989033986789586" lon="11.460775857567809"><ele>335.0</ele><time>2026-04-11T14:43:02Z</time></trkpt><trkpt lat="42.989089866464816" lon="11.460829502886833"><ele>336.0</ele><time>2026-04-11T14:43:05Z</time></trkpt><trkpt lat="42.98915133057461" lon="11.460874362320189"><ele>336.7142857142857</ele><time>2026-04-11T14:43:08Z</time></trkpt><trkpt lat="42.98921177578948" lon="11.460929765300786"><ele>337.42857142857144</ele><time>2026-04-11T14:43:11Z</time></trkpt><trkpt lat="42.98928752460471" lon="11.460955678356163"><ele>338.1428571428571</ele><time>2026-04-11T14:43:14Z</time></trkpt><trkpt lat="42.989359595638916" lon="11.460965912523783"><ele>338.8571428571429</ele><time>2026-04-11T14:43:17Z</time></trkpt><trkpt lat="42.98942578497093" lon="11.460970347206311"><ele>339.57142857142856</ele><time>2026-04-11T14:43:20Z</time></trkpt><trkpt lat="42.989490603323524" lon="11.460971711564635"><ele>340.2857142857143</ele><time>2026-04-11T14:43:23Z</time></trkpt><trkpt lat="42.9895557012287" lon="11.460971270386802"><ele>341.0</ele><time>2026-04-11T14:43:26Z</time></trkpt><trkpt lat="42.989631604074916" lon="11.460970755981474"><ele>341.0</ele><time>2026-04-11T14:43:30Z</time></trkpt><trkpt lat="42.98970940859271" lon="11.460970228689435"><ele>341.0</ele><time>2026-04-11T14:43:34Z</time></trkpt><trkpt lat="42.98978998277909" lon="11.460969682626219"><ele>341.0</ele><time>2026-04-11T14:43:39Z</time></trkpt><trkpt lat="42.98986337965284" lon="11.460969405725443"><ele>341.0</ele><time>2026-04-11T14:43:44Z</time></trkpt><trkpt lat="42.98994450250551" lon="11.460970099078086"><ele>341.0</ele><time>2026-04-11T14:43:49Z</time></trkpt><trkpt lat="42.990012159374174" lon="11.460970677340127"><ele>341.0</ele><time>2026-04-11T14:43:54Z</time></trkpt><trkpt lat="42.9900857777085" lon="11.460974642928058"><ele>343.1428571428571</ele><time>2026-04-11T14:43:59Z</time></trkpt><trkpt lat="42.990162789789395" lon="11.46098322742945"><ele>345.2857142857143</ele><time>2026-04-11T14:44:04Z</time></trkpt><trkpt lat="42.99022998899163" lon="11.46101227362588"><ele>347.42857142857144</ele><time>2026-04-11T14:44:09Z</time></trkpt><trkpt lat="42.99029159785658" lon="11.461059394662927"><ele>349.57142857142856</ele><time>2026-04-11T14:44:14Z</time></trkpt><trkpt lat="42.99036213751555" lon="11.461101712725725"><ele>351.7142857142857</ele><time>2026-04-11T14:44:19Z</time></trkpt><trkpt lat="42.990423558284846" lon="11.461164250918326"><ele>353.85714285714283</ele><time>2026-04-11T14:44:24Z</time></trkpt><trkpt lat="42.990481579095075" lon="11.461228289519582"><ele>356.0</ele><time>2026-04-11T14:44:29Z</time></trkpt><trkpt lat="42.990546655006966" lon="11.461280514541938"><ele>355.85714285714283</ele><time>2026-04-11T14:44:34Z</time></trkpt><trkpt lat="42.99060827403764" lon="11.461328277220531"><ele>355.7142857142857</ele><time>2026-04-11T14:44:39Z</time></trkpt><trkpt lat="42.990660166459406" lon="11.461381218634337"><ele>355.57142857142856</ele><time>2026-04-11T14:44:43Z</time></trkpt><trkpt lat="42.99073829200139" lon="11.46139857796245"><ele>355.42857142857144</ele><time>2026-04-11T14:44:48Z</time></trkpt><trkpt lat="42.990806736388606" lon="11.46137301748296"><ele>355.2857142857143</ele><time>2026-04-11T14:44:52Z</time></trkpt><trkpt lat="42.99086373927374" lon="11.46132868341008"><ele>355.1428571428571</ele><time>2026-04-11T14:44:56Z</time></trkpt><trkpt lat="42.99091885309682" lon="11.461267616589437"><ele>355.0</ele><time>2026-04-11T14:45:00Z</time></trkpt><trkpt lat="42.990928051437315" lon="11.461167824857785"><ele>357.2857142857143</ele><time>2026-04-11T14:45:04Z</time></trkpt><trkpt lat="42.99094871551093" lon="11.461082353998593"><ele>359.57142857142856</ele><time>2026-04-11T14:45:09Z</time></trkpt><trkpt lat="42.99094171720846" lon="11.460990482201147"><ele>361.8571428571429</ele><time>2026-04-11T14:45:14Z</time></trkpt><trkpt lat="42.990964925090424" lon="11.46090155984482"><ele>364.1428571428571</ele><time>2026-04-11T14:45:19Z</time></trkpt><trkpt lat="42.991011183257164" lon="11.460830303474543"><ele>366.42857142857144</ele><time>2026-04-11T14:45:24Z</time></trkpt><trkpt lat="42.99106685734851" lon="11.460772631300339"><ele>368.7142857142857</ele><time>2026-04-11T14:45:29Z</time></trkpt><trkpt lat="42.99113269151" lon="11.460738672665842"><ele>371.0</ele><time>2026-04-11T14:45:34Z</time></trkpt><trkpt lat="42.99119558698593" lon="11.460713700605014"><ele>371.0</ele><time>2026-04-11T14:45:39Z</time></trkpt><trkpt lat="42.99125565535191" lon="11.4606872024362"><ele>371.0</ele><time>2026-04-11T14:45:44Z</time></trkpt><trkpt lat="42.99131751674104" lon="11.460667464418"><ele>371.0</ele><time>2026-04-11T14:45:49Z</time></trkpt><trkpt lat="42.99138257279914" lon="11.460685762370899"><ele>371.0</ele><time>2026-04-11T14:45:54Z</time></trkpt><trkpt lat="42.991457554966274" lon="11.460705839477848"><ele>371.0</ele><time>2026-04-11T14:46:00Z</time></trkpt><trkpt lat="42.99151746181124" lon="11.460736824896857"><ele>371.0</ele><time>2026-04-11T14:46:05Z</time></trkpt><trkpt lat="42.99158666917528" lon="11.460743048585543"><ele>371.0</ele><time>2026-04-11T14:46:10Z</time></trkpt><trkpt lat="42.991649973733104" lon="11.460725046028307"><ele>374.57142857142856</ele><time>2026-04-11T14:46:15Z</time></trkpt><trkpt lat="42.991710488084024" lon="11.460674026716507"><ele>378.1428571428571</ele><time>2026-04-11T14:46:20Z</time></trkpt><trkpt lat="42.991748576718265" lon="11.460597614095317"><ele>381.7142857142857</ele><time>2026-04-11T14:46:25Z</time></trkpt><trkpt lat="42.99175309738676" lon="11.460499820040376"><ele>385.2857142857143</ele><time>2026-04-11T14:46:30Z</time></trkpt><trkpt lat="42.991745243826486" lon="11.460402849592118"><ele>388.85714285714283</ele><time>2026-04-11T14:46:35Z</time></trkpt><trkpt lat="42.99175517203557" lon="11.460299391672214"><ele>392.42857142857144</ele><time>2026-04-11T14:46:40Z</time></trkpt><trkpt lat="42.99177063884606" lon="11.460212249746705"><ele>396.0</ele><time>2026-04-11T14:46:44Z</time></trkpt><trkpt lat="42.99179685603411" lon="11.460132886713698"><ele>396.0</ele><time>2026-04-11T14:46:48Z</time></trkpt><trkpt lat="42.991829969275095" lon="11.460040465476194"><ele>396.0</ele><time>2026-04-11T14:46:53Z</time></trkpt><trkpt lat="42.99187639379878" lon="11.459954179921606"><ele>396.0</ele><time>2026-04-11T14:46:58Z</time></trkpt><trkpt lat="42.991904551288066" lon="11.45986625119173"><ele>396.0</ele><time>2026-04-11T14:47:02Z</time></trkpt><trkpt lat="42.991947754524546" lon="11.459785932186998"><ele>396.0</ele><time>2026-04-11T14:47:06Z</time></trkpt><trkpt lat="42.99200112657842" lon="11.45970959808929"><ele>396.0</ele><time>2026-04-11T14:47:10Z</time></trkpt><trkpt lat="42.99205295134151" lon="11.459631186248474"><ele>396.42857142857144</ele><time>2026-04-11T14:47:14Z</time></trkpt><trkpt lat="42.99212116708488" lon="11.459565266993787"><ele>396.85714285714283</ele><time>2026-04-11T14:47:18Z</time></trkpt><trkpt lat="42.99218579066842" lon="11.459508895708009"><ele>397.2857142857143</ele><time>2026-04-11T14:47:22Z</time></trkpt><trkpt lat="42.992251244986846" lon="11.459455400620191"><ele>397.7142857142857</ele><time>2026-04-11T14:47:26Z</time></trkpt><trkpt lat="42.99231103616317" lon="11.459407734029536"><ele>398.1428571428571</ele><time>2026-04-11T14:47:30Z</time></trkpt><trkpt lat="42.99237516467964" lon="11.45937580002384"><ele>398.57142857142856</ele><time>2026-04-11T14:47:34Z</time></trkpt><trkpt lat="42.99243919863828" lon="11.459338695396895"><ele>399.0</ele><time>2026-04-11T14:47:38Z</time></trkpt><trkpt lat="42.99250855844749" lon="11.459302275665518"><ele>399.0</ele><time>2026-04-11T14:47:43Z</time></trkpt><trkpt lat="42.992577560371586" lon="11.459265119348972"><ele>399.0</ele><time>2026-04-11T14:47:48Z</time></trkpt><trkpt lat="42.99264992047638" lon="11.45924020956933"><ele>399.0</ele><time>2026-04-11T14:47:53Z</time></trkpt><trkpt lat="42.9927192971832" lon="11.459235990491072"><ele>399.0</ele><time>2026-04-11T14:47:58Z</time></trkpt><trkpt lat="42.99277993032192" lon="11.459205778914056"><ele>399.0</ele><time>2026-04-11T14:48:02Z</time></trkpt><trkpt lat="42.992836568606464" lon="11.459165656158577"><ele>399.0</ele><time>2026-04-11T14:48:06Z</time></trkpt><trkpt lat="42.99290009409869" lon="11.459147605223404"><ele>399.0</ele><time>2026-04-11T14:48:10Z</time></trkpt><trkpt lat="42.99296833464411" lon="11.459117205764763"><ele>399.0</ele><time>2026-04-11T14:48:15Z</time></trkpt><trkpt lat="42.993037286477865" lon="11.459096184832303"><ele>399.0</ele><time>2026-04-11T14:48:19Z</time></trkpt><trkpt lat="42.993102281070996" lon="11.45907940239965"><ele>399.0</ele><time>2026-04-11T14:48:23Z</time></trkpt><trkpt lat="42.993189040202424" lon="11.459053107578995"><ele>399.0</ele><time>2026-04-11T14:48:29Z</time></trkpt><trkpt lat="42.993261535728934" lon="11.459037399601412"><ele>399.0</ele><time>2026-04-11T14:48:34Z</time></trkpt><trkpt lat="42.99332749555797" lon="11.459010373085043"><ele>399.0</ele><time>2026-04-11T14:48:38Z</time></trkpt><trkpt lat="42.99340346088807" lon="11.458977217772622"><ele>399.0</ele><time>2026-04-11T14:48:42Z</time></trkpt><trkpt lat="42.99346592736078" lon="11.45895232033351"><ele>400.6666666666667</ele><time>2026-04-11T14:48:45Z</time></trkpt><trkpt lat="42.99354576171708" lon="11.45892685205007"><ele>402.33333333333337</ele><time>2026-04-11T14:48:49Z</time></trkpt><trkpt lat="42.99361796249189" lon="11.458894813890485"><ele>404.0</ele><time>2026-04-11T14:48:52Z</time></trkpt><trkpt lat="42.993694864715344" lon="11.45886225711487"><ele>405.6666666666667</ele><time>2026-04-11T14:48:56Z</time></trkpt><trkpt lat="42.993764569299024" lon="11.458837807645816"><ele>407.33333333333337</ele><time>2026-04-11T14:49:00Z</time></trkpt><trkpt lat="42.99383984671196" lon="11.458797077220174"><ele>409.0</ele><time>2026-04-11T14:49:04Z</time></trkpt><trkpt lat="42.99390896687932" lon="11.458773560194613"><ele>405.33333333333337</ele><time>2026-04-11T14:49:08Z</time></trkpt><trkpt lat="42.993979360194515" lon="11.45875794106214"><ele>401.6666666666667</ele><time>2026-04-11T14:49:13Z</time></trkpt><trkpt lat="42.9940509704048" lon="11.458722775444185"><ele>398.0</ele><time>2026-04-11T14:49:16Z</time></trkpt><trkpt lat="42.99413110820948" lon="11.458679374902951"><ele>394.33333333333337</ele><time>2026-04-11T14:49:19Z</time></trkpt><trkpt lat="42.99420342735356" lon="11.458650773479729"><ele>390.6666666666667</ele><time>2026-04-11T14:49:21Z</time></trkpt><trkpt lat="42.99427562850436" lon="11.458611165178104"><ele>387.0</ele><time>2026-04-11T14:49:23Z</time></trkpt><trkpt lat="42.994333816307716" lon="11.458566973326343"><ele>387.0</ele><time>2026-04-11T14:49:24Z</time></trkpt><trkpt lat="42.9943980366235" lon="11.458528023541419"><ele>387.0</ele><time>2026-04-11T14:49:26Z</time></trkpt><trkpt lat="42.99449080639908" lon="11.4585117997739"><ele>387.0</ele><time>2026-04-11T14:49:28Z</time></trkpt><trkpt lat="42.99459155812182" lon="11.458469855937006"><ele>387.0</ele><time>2026-04-11T14:49:30Z</time></trkpt><trkpt lat="42.99469701421504" lon="11.458473401141442"><ele>387.0</ele><time>2026-04-11T14:49:32Z</time></trkpt><trkpt lat="42.994791472220705" lon="11.45851892251339"><ele>387.0</ele><time>2026-04-11T14:49:34Z</time></trkpt><trkpt lat="42.99487940809814" lon="11.458554854819946"><ele>387.0</ele><time>2026-04-11T14:49:36Z</time></trkpt><trkpt lat="42.994956725294195" lon="11.458623126340592"><ele>387.0</ele><time>2026-04-11T14:49:38Z</time></trkpt><trkpt lat="42.995009140928325" lon="11.45867080648195"><ele>387.0</ele><time>2026-04-11T14:49:40Z</time></trkpt><trkpt lat="42.99507375044258" lon="11.45872968029542"><ele>387.0</ele><time>2026-04-11T14:50:10.999Z</time></trkpt><trkpt lat="42.99512383945006" lon="11.458784248862674"><ele>387.0</ele><time>2026-04-11T14:51:01Z</time></trkpt><trkpt lat="42.99516773787776" lon="11.458855365832365"><ele>387.7142857142857</ele><time>2026-04-11T14:51:07Z</time></trkpt><trkpt lat="42.995206095485344" lon="11.458928497240628"><ele>388.42857142857144</ele><time>2026-04-11T14:51:13Z</time></trkpt><trkpt lat="42.995248790426075" lon="11.459013275265406"><ele>389.1428571428571</ele><time>2026-04-11T14:51:19Z</time></trkpt><trkpt lat="42.995287856554484" lon="11.459097033418995"><ele>389.8571428571429</ele><time>2026-04-11T14:51:24Z</time></trkpt><trkpt lat="42.99532159081538" lon="11.459181842503307"><ele>390.57142857142856</ele><time>2026-04-11T14:51:29Z</time></trkpt><trkpt lat="42.9953557483179" lon="11.459272574684665"><ele>391.2857142857143</ele><time>2026-04-11T14:51:34Z</time></trkpt><trkpt lat="42.9953889482695" lon="11.459366754111356"><ele>392.0</ele><time>2026-04-11T14:51:39Z</time></trkpt><trkpt lat="42.995433539293174" lon="11.459444814069474"><ele>392.0</ele><time>2026-04-11T14:51:44Z</time></trkpt><trkpt lat="42.99545322610962" lon="11.459535593658098"><ele>392.0</ele><time>2026-04-11T14:51:49Z</time></trkpt><trkpt lat="42.99548648505483" lon="11.459621727236915"><ele>392.0</ele><time>2026-04-11T14:51:54Z</time></trkpt><trkpt lat="42.995518376121844" lon="11.459719520691364"><ele>392.0</ele><time>2026-04-11T14:51:59.999Z</time></trkpt><trkpt lat="42.99554484158709" lon="11.459806404893138"><ele>392.0</ele><time>2026-04-11T14:52:04.999Z</time></trkpt><trkpt lat="42.99557114657505" lon="11.459884737844895"><ele>392.0</ele><time>2026-04-11T14:52:09.999Z</time></trkpt><trkpt lat="42.99559732872882" lon="11.459968330186092"><ele>392.0</ele><time>2026-04-11T14:52:14.999Z</time></trkpt><trkpt lat="42.99561592354001" lon="11.460051738384125"><ele>394.14285714285717</ele><time>2026-04-11T14:52:20Z</time></trkpt><trkpt lat="42.99563690395298" lon="11.460150478306984"><ele>396.2857142857143</ele><time>2026-04-11T14:52:25Z</time></trkpt><trkpt lat="42.99564900885962" lon="11.460242478736141"><ele>398.42857142857144</ele><time>2026-04-11T14:52:30Z</time></trkpt><trkpt lat="42.99565923508284" lon="11.460339525030234"><ele>400.57142857142856</ele><time>2026-04-11T14:52:35Z</time></trkpt><trkpt lat="42.99567733366877" lon="11.460433798442782"><ele>402.7142857142857</ele><time>2026-04-11T14:52:40Z</time></trkpt><trkpt lat="42.99569310332913" lon="11.460526793587213"><ele>404.8571428571429</ele><time>2026-04-11T14:52:45Z</time></trkpt><trkpt lat="42.99575308783951" lon="11.460590206078223"><ele>407.0</ele><time>2026-04-11T14:52:50Z</time></trkpt><trkpt lat="42.99581479838438" lon="11.460626912438062"><ele>408.49999999999994</ele><time>2026-04-11T14:52:52Z</time></trkpt><trkpt lat="42.995858850995305" lon="11.460709080696308"><ele>410.0</ele><time>2026-04-11T14:52:55Z</time></trkpt><trkpt lat="42.99589449932696" lon="11.460785321699435"><ele>411.5</ele><time>2026-04-11T14:52:59Z</time></trkpt><trkpt lat="42.99594238661554" lon="11.460860709656917"><ele>413.0</ele><time>2026-04-11T14:53:03Z</time></trkpt><trkpt lat="42.99598452699093" lon="11.460934928143681"><ele>414.49999999999994</ele><time>2026-04-11T14:53:07Z</time></trkpt><trkpt lat="42.99601702540708" lon="11.461019297088756"><ele>416.0</ele><time>2026-04-11T14:53:11Z</time></trkpt><trkpt lat="42.9961042365013" lon="11.46093908040348"><ele>416.0</ele><time>2026-04-11T15:04:41.999Z</time></trkpt><trkpt lat="42.99609567769628" lon="11.461027578862849"><ele>416.0</ele><time>2026-04-11T15:09:12Z</time></trkpt><trkpt lat="42.99602903881948" lon="11.461019137430768"><ele>416.0</ele><time>2026-04-11T15:09:16Z</time></trkpt><trkpt lat="42.99599510358325" lon="11.460923981078235"><ele>416.0</ele><time>2026-04-11T15:09:19Z</time></trkpt><trkpt lat="42.995940559376486" lon="11.460864553885736"><ele>416.0</ele><time>2026-04-11T15:09:21Z</time></trkpt><trkpt lat="42.99589705603568" lon="11.460781570442888"><ele>416.0</ele><time>2026-04-11T15:09:23Z</time></trkpt><trkpt lat="42.99586218990773" lon="11.460691650524202"><ele>416.0</ele><time>2026-04-11T15:09:26Z</time></trkpt><trkpt lat="42.99585684239935" lon="11.46056532107175"><ele>415.99999999999994</ele><time>2026-04-11T15:09:29Z</time></trkpt><trkpt lat="42.995943767428344" lon="11.460515443892868"><ele>416.0</ele><time>2026-04-11T15:09:31Z</time></trkpt><trkpt lat="42.99604040596317" lon="11.460477221853457"><ele>416.0</ele><time>2026-04-11T15:09:33Z</time></trkpt><trkpt lat="42.99615075486995" lon="11.460432170802603"><ele>416.0</ele><time>2026-04-11T15:09:35Z</time></trkpt><trkpt lat="42.99620880957895" lon="11.460396284953765"><ele>415.99999999999994</ele><time>2026-04-11T15:09:36Z</time></trkpt><trkpt lat="42.996265619699024" lon="11.46035200081128"><ele>416.0</ele><time>2026-04-11T15:09:37Z</time></trkpt><trkpt lat="42.99632068538435" lon="11.460297160092319"><ele>415.3333333333333</ele><time>2026-04-11T15:09:38Z</time></trkpt><trkpt lat="42.99635725138512" lon="11.460212512173612"><ele>414.66666666666663</ele><time>2026-04-11T15:09:39Z</time></trkpt><trkpt lat="42.996389709172526" lon="11.460137623955898"><ele>414.0</ele><time>2026-04-11T15:09:40Z</time></trkpt><trkpt lat="42.996423305236156" lon="11.460062813149174"><ele>413.33333333333337</ele><time>2026-04-11T15:09:41Z</time></trkpt><trkpt lat="42.99648766958595" lon="11.45993136229874"><ele>412.6666666666667</ele><time>2026-04-11T15:09:43Z</time></trkpt><trkpt lat="42.99653823875789" lon="11.459819950750884"><ele>412.0</ele><time>2026-04-11T15:09:45Z</time></trkpt><trkpt lat="42.99659033142777" lon="11.459750289594794"><ele>411.99999999999994</ele><time>2026-04-11T15:09:47Z</time></trkpt><trkpt lat="42.99664238030626" lon="11.459678670261432"><ele>412.0</ele><time>2026-04-11T15:09:49Z</time></trkpt><trkpt lat="42.99668759862584" lon="11.459614602600608"><ele>412.0</ele><time>2026-04-11T15:09:51Z</time></trkpt><trkpt lat="42.99671917136005" lon="11.459533885267854"><ele>412.0</ele><time>2026-04-11T15:09:53Z</time></trkpt><trkpt lat="42.996754545645885" lon="11.45944823101393"><ele>412.0</ele><time>2026-04-11T15:09:55Z</time></trkpt><trkpt lat="42.996803644361385" lon="11.459370371380622"><ele>411.99999999999994</ele><time>2026-04-11T15:09:57Z</time></trkpt><trkpt lat="42.99685075974413" lon="11.459283377129422"><ele>412.0</ele><time>2026-04-11T15:09:59Z</time></trkpt><trkpt lat="42.99689074362959" lon="11.459170996283865"><ele>412.8</ele><time>2026-04-11T15:10:01Z</time></trkpt><trkpt lat="42.99693215225762" lon="11.459053958622027"><ele>413.6</ele><time>2026-04-11T15:10:03Z</time></trkpt><trkpt lat="42.996968684824175" lon="11.458937019470794"><ele>414.40000000000003</ele><time>2026-04-11T15:10:05Z</time></trkpt><trkpt lat="42.997001766150326" lon="11.458812056323676"><ele>415.20000000000005</ele><time>2026-04-11T15:10:07Z</time></trkpt><trkpt lat="42.99707689570108" lon="11.458726797092739"><ele>416.0</ele><time>2026-04-11T15:10:09Z</time></trkpt><trkpt lat="42.99715607327815" lon="11.458725881553137"><ele>415.99999999999994</ele><time>2026-04-11T15:10:11Z</time></trkpt><trkpt lat="42.99724211669209" lon="11.458742935954374"><ele>416.0</ele><time>2026-04-11T15:10:14Z</time></trkpt><trkpt lat="42.99732640968299" lon="11.458736525515521"><ele>416.0</ele><time>2026-04-11T15:10:17Z</time></trkpt><trkpt lat="42.99740232968093" lon="11.458708836898353"><ele>416.0</ele><time>2026-04-11T15:10:20Z</time></trkpt><trkpt lat="42.99747695690903" lon="11.45866977875949"><ele>415.99999999999994</ele><time>2026-04-11T15:10:22.999Z</time></trkpt><trkpt lat="42.99754828829279" lon="11.45862225018963"><ele>416.0</ele><time>2026-04-11T15:10:25.999Z</time></trkpt><trkpt lat="42.99761657062346" lon="11.458571343673404"><ele>416.57142857142856</ele><time>2026-04-11T15:10:28.999Z</time></trkpt><trkpt lat="42.99768676089147" lon="11.458536981659364"><ele>417.14285714285717</ele><time>2026-04-11T15:10:31.999Z</time></trkpt><trkpt lat="42.99775172539192" lon="11.458491688858066"><ele>417.7142857142857</ele><time>2026-04-11T15:10:34.999Z</time></trkpt><trkpt lat="42.997816198911245" lon="11.458451370473004"><ele>418.2857142857143</ele><time>2026-04-11T15:10:37.999Z</time></trkpt><trkpt lat="42.99788313387349" lon="11.458417074923027"><ele>418.8571428571429</ele><time>2026-04-11T15:10:40.999Z</time></trkpt><trkpt lat="42.99795470111762" lon="11.458385451877648"><ele>419.42857142857144</ele><time>2026-04-11T15:10:43.999Z</time></trkpt><trkpt lat="42.998018199627566" lon="11.458342411504967"><ele>420.0</ele><time>2026-04-11T15:10:46.999Z</time></trkpt><trkpt lat="42.99808749478615" lon="11.45829844749499"><ele>420.0</ele><time>2026-04-11T15:10:49.999Z</time></trkpt><trkpt lat="42.998157936399586" lon="11.458251058062574"><ele>420.0</ele><time>2026-04-11T15:10:52.999Z</time></trkpt><trkpt lat="42.99822946997497" lon="11.458206618470973"><ele>420.0</ele><time>2026-04-11T15:10:55.999Z</time></trkpt><trkpt lat="42.99829829431621" lon="11.458156027673875"><ele>420.0</ele><time>2026-04-11T15:10:58.999Z</time></trkpt><trkpt lat="42.998371931349325" lon="11.458121147451351"><ele>420.0</ele><time>2026-04-11T15:11:01.999Z</time></trkpt><trkpt lat="42.99844147556148" lon="11.458081024304313"><ele>420.0</ele><time>2026-04-11T15:11:05Z</time></trkpt><trkpt lat="42.99851945202075" lon="11.458051346053848"><ele>420.1666666666667</ele><time>2026-04-11T15:11:08Z</time></trkpt><trkpt lat="42.99859561044632" lon="11.45802284499429"><ele>420.33333333333337</ele><time>2026-04-11T15:11:11Z</time></trkpt><trkpt lat="42.99867226084119" lon="11.457996282444661"><ele>420.5</ele><time>2026-04-11T15:11:14Z</time></trkpt><trkpt lat="42.99874917516162" lon="11.457980199027139"><ele>420.6666666666667</ele><time>2026-04-11T15:11:17Z</time></trkpt><trkpt lat="42.998834217357924" lon="11.457961800404501"><ele>420.83333333333337</ele><time>2026-04-11T15:11:20Z</time></trkpt><trkpt lat="42.998915769319694" lon="11.457946975052046"><ele>421.0</ele><time>2026-04-11T15:11:23Z</time></trkpt><trkpt lat="42.99900106307666" lon="11.457940527653808"><ele>421.00000000000006</ele><time>2026-04-11T15:11:26Z</time></trkpt><trkpt lat="42.999086054674294" lon="11.45792071737182"><ele>421.0</ele><time>2026-04-11T15:11:29Z</time></trkpt><trkpt lat="42.99917323621254" lon="11.457885835223301"><ele>421.0</ele><time>2026-04-11T15:11:32Z</time></trkpt><trkpt lat="42.99925949471754" lon="11.457871448654299"><ele>421.0</ele><time>2026-04-11T15:11:35Z</time></trkpt><trkpt lat="42.99935001231404" lon="11.457855070314475"><ele>421.00000000000006</ele><time>2026-04-11T15:11:38Z</time></trkpt><trkpt lat="42.99941610155075" lon="11.457843376359902"><ele>421.0</ele><time>2026-04-11T15:11:40Z</time></trkpt><trkpt lat="42.99948033710809" lon="11.457831702952127"><ele>421.00000000000006</ele><time>2026-04-11T15:11:42Z</time></trkpt><trkpt lat="42.9995453052645" lon="11.457818362681934"><ele>421.0</ele><time>2026-04-11T15:11:44Z</time></trkpt><trkpt lat="42.99961326749188" lon="11.457818428693995"><ele>421.0</ele><time>2026-04-11T15:11:46Z</time></trkpt><trkpt lat="42.99971438884666" lon="11.45781074275523"><ele>421.0</ele><time>2026-04-11T15:11:49Z</time></trkpt><trkpt lat="42.99978342631621" lon="11.4578085221547"><ele>421.0</ele><time>2026-04-11T15:11:51Z</time></trkpt><trkpt lat="42.99984796286378" lon="11.457800653540863"><ele>421.00000000000006</ele><time>2026-04-11T15:11:53Z</time></trkpt><trkpt lat="42.99991327378505" lon="11.45780004727536"><ele>421.0</ele><time>2026-04-11T15:11:55Z</time></trkpt><trkpt lat="43.00011227295226" lon="11.45781331558757"><ele>421.0</ele><time>2026-04-11T15:12:00Z</time></trkpt><trkpt lat="43.000216366859746" lon="11.457813819721267"><ele>421.0</ele><time>2026-04-11T15:12:02Z</time></trkpt><trkpt lat="43.000325520371476" lon="11.457812998267203"><ele>421.0</ele><time>2026-04-11T15:12:04Z</time></trkpt><trkpt lat="43.00044537399069" lon="11.457826913794593"><ele>421.0</ele><time>2026-04-11T15:12:06Z</time></trkpt><trkpt lat="43.00057210350995" lon="11.45784829528653"><ele>421.00000000000006</ele><time>2026-04-11T15:12:08Z</time></trkpt><trkpt lat="43.00069138183068" lon="11.457880833927522"><ele>421.0</ele><time>2026-04-11T15:12:10Z</time></trkpt><trkpt lat="43.000752877187544" lon="11.457914878905067"><ele>421.0</ele><time>2026-04-11T15:12:11Z</time></trkpt><trkpt lat="43.00081493810627" lon="11.45795444349901"><ele>421.0</ele><time>2026-04-11T15:12:12Z</time></trkpt><trkpt lat="43.00087682513345" lon="11.457996056068433"><ele>421.00000000000006</ele><time>2026-04-11T15:12:13Z</time></trkpt><trkpt lat="43.00093899921553" lon="11.458038989594888"><ele>421.0</ele><time>2026-04-11T15:12:14Z</time></trkpt><trkpt lat="43.00099735172215" lon="11.458089416369628"><ele>422.28571428571433</ele><time>2026-04-11T15:12:15Z</time></trkpt><trkpt lat="43.00106281067443" lon="11.458138336001001"><ele>423.57142857142856</ele><time>2026-04-11T15:12:16Z</time></trkpt><trkpt lat="43.00111661479832" lon="11.45818553567668"><ele>424.8571428571429</ele><time>2026-04-11T15:12:17Z</time></trkpt><trkpt lat="43.00117628506637" lon="11.458235231467594"><ele>426.14285714285717</ele><time>2026-04-11T15:12:18Z</time></trkpt><trkpt lat="43.0012320308641" lon="11.458281518533163"><ele>427.42857142857144</ele><time>2026-04-11T15:12:19Z</time></trkpt><trkpt lat="43.00128614676448" lon="11.45833064203073"><ele>428.7142857142857</ele><time>2026-04-11T15:12:20Z</time></trkpt><trkpt lat="43.0013419697858" lon="11.458382287478729"><ele>430.0</ele><time>2026-04-11T15:12:21Z</time></trkpt><trkpt lat="43.001397164723706" lon="11.458442627302446"><ele>430.0</ele><time>2026-04-11T15:12:22Z</time></trkpt><trkpt lat="43.001456804448516" lon="11.45849068616472"><ele>430.0</ele><time>2026-04-11T15:12:23Z</time></trkpt><trkpt lat="43.001512488205016" lon="11.458539982828013"><ele>430.0</ele><time>2026-04-11T15:12:24Z</time></trkpt><trkpt lat="43.00157226623385" lon="11.45858846740253"><ele>430.0</ele><time>2026-04-11T15:12:25Z</time></trkpt><trkpt lat="43.00163330279843" lon="11.458642552226356"><ele>430.0</ele><time>2026-04-11T15:12:26Z</time></trkpt><trkpt lat="43.00169458166451" lon="11.458699272806838"><ele>430.0</ele><time>2026-04-11T15:12:27Z</time></trkpt><trkpt lat="43.00175944453958" lon="11.45874612556179"><ele>430.0</ele><time>2026-04-11T15:12:28Z</time></trkpt><trkpt lat="43.00182337796516" lon="11.45880310155551"><ele>431.00000000000006</ele><time>2026-04-11T15:12:29Z</time></trkpt><trkpt lat="43.00188530274086" lon="11.458863245332576"><ele>432.0</ele><time>2026-04-11T15:12:30Z</time></trkpt><trkpt lat="43.001950416829345" lon="11.458928299609967"><ele>433.0</ele><time>2026-04-11T15:12:31Z</time></trkpt><trkpt lat="43.00201336771003" lon="11.45898733758615"><ele>434.0</ele><time>2026-04-11T15:12:32Z</time></trkpt><trkpt lat="43.002081809439815" lon="11.459055417464596"><ele>435.00000000000006</ele><time>2026-04-11T15:12:33Z</time></trkpt><trkpt lat="43.002146139395364" lon="11.45912671370723"><ele>436.0</ele><time>2026-04-11T15:12:34Z</time></trkpt><trkpt lat="43.00220827944747" lon="11.459203517014341"><ele>436.00000000000006</ele><time>2026-04-11T15:12:35Z</time></trkpt><trkpt lat="43.00226776177945" lon="11.45928534718555"><ele>436.0</ele><time>2026-04-11T15:12:36Z</time></trkpt><trkpt lat="43.00231931898728" lon="11.459367948740827"><ele>436.0</ele><time>2026-04-11T15:12:37Z</time></trkpt><trkpt lat="43.00237305786355" lon="11.459452449177864"><ele>436.0</ele><time>2026-04-11T15:12:37.999Z</time></trkpt><trkpt lat="43.00242508253443" lon="11.459538471935518"><ele>436.00000000000006</ele><time>2026-04-11T15:12:38.999Z</time></trkpt><trkpt lat="43.00247036818527" lon="11.45963212918713"><ele>436.0</ele><time>2026-04-11T15:12:39.999Z</time></trkpt><trkpt lat="43.00252394699142" lon="11.459726502942031"><ele>434.1666666666667</ele><time>2026-04-11T15:12:40.999Z</time></trkpt><trkpt lat="43.00258094870635" lon="11.459827013423737"><ele>432.33333333333337</ele><time>2026-04-11T15:12:41.999Z</time></trkpt><trkpt lat="43.00263736399329" lon="11.459922733790966"><ele>430.5</ele><time>2026-04-11T15:12:42.999Z</time></trkpt><trkpt lat="43.002686396939936" lon="11.460020983942991"><ele>428.66666666666663</ele><time>2026-04-11T15:12:43.999Z</time></trkpt><trkpt lat="43.00273347090559" lon="11.460125146831263"><ele>426.8333333333333</ele><time>2026-04-11T15:12:44.999Z</time></trkpt><trkpt lat="43.00277548050367" lon="11.460231543698965"><ele>425.0</ele><time>2026-04-11T15:12:45.999Z</time></trkpt><trkpt lat="43.00280923003054" lon="11.460347237752783"><ele>426.4</ele><time>2026-04-11T15:12:46.999Z</time></trkpt><trkpt lat="43.00284524888415" lon="11.460462188474212"><ele>427.8</ele><time>2026-04-11T15:12:47.999Z</time></trkpt><trkpt lat="43.00288849215927" lon="11.460580982039414"><ele>429.20000000000005</ele><time>2026-04-11T15:12:48.999Z</time></trkpt><trkpt lat="43.0029161982033" lon="11.460697253887774"><ele>430.6</ele><time>2026-04-11T15:12:49.999Z</time></trkpt><trkpt lat="43.00293628093762" lon="11.460814338449415"><ele>432.0</ele><time>2026-04-11T15:12:50.999Z</time></trkpt><trkpt lat="43.00296059049809" lon="11.460934180003617"><ele>432.0</ele><time>2026-04-11T15:12:51.999Z</time></trkpt><trkpt lat="43.00296709337109" lon="11.461048732385754"><ele>432.0</ele><time>2026-04-11T15:12:52.999Z</time></trkpt><trkpt lat="43.002978517109135" lon="11.461159330491478"><ele>432.0</ele><time>2026-04-11T15:12:53.999Z</time></trkpt><trkpt lat="43.00298480144479" lon="11.461273646655778"><ele>432.0</ele><time>2026-04-11T15:12:54.999Z</time></trkpt><trkpt lat="43.002995916754124" lon="11.461384868169642"><ele>432.0</ele><time>2026-04-11T15:12:55.999Z</time></trkpt><trkpt lat="43.002992976655115" lon="11.461489556685486"><ele>432.0</ele><time>2026-04-11T15:12:56.999Z</time></trkpt><trkpt lat="43.00299578172431" lon="11.461594770052345"><ele>431.3333333333333</ele><time>2026-04-11T15:12:57.999Z</time></trkpt><trkpt lat="43.003001652841" lon="11.461696800998856"><ele>430.66666666666663</ele><time>2026-04-11T15:12:58.999Z</time></trkpt><trkpt lat="43.00300175945674" lon="11.461796381281184"><ele>430.0</ele><time>2026-04-11T15:12:59.999Z</time></trkpt><trkpt lat="43.00299557993892" lon="11.46189394300609"><ele>429.3333333333333</ele><time>2026-04-11T15:13:00.999Z</time></trkpt><trkpt lat="43.00299754863673" lon="11.461989270451994"><ele>428.66666666666663</ele><time>2026-04-11T15:13:01.999Z</time></trkpt><trkpt lat="43.00300351684369" lon="11.4620765724398"><ele>428.0</ele><time>2026-04-11T15:13:02.999Z</time></trkpt><trkpt lat="43.003019607946385" lon="11.462252184022404"><ele>427.79999999999995</ele><time>2026-04-11T15:13:04.999Z</time></trkpt><trkpt lat="43.00304485752517" lon="11.46233301529196"><ele>427.59999999999997</ele><time>2026-04-11T15:13:05.999Z</time></trkpt><trkpt lat="43.00309826067011" lon="11.462464505529638"><ele>427.40000000000003</ele><time>2026-04-11T15:13:07.999Z</time></trkpt><trkpt lat="43.00314957529245" lon="11.46258880505693"><ele>427.20000000000005</ele><time>2026-04-11T15:13:10Z</time></trkpt><trkpt lat="43.003210322039614" lon="11.462702982938708"><ele>427.0</ele><time>2026-04-11T15:13:12Z</time></trkpt><trkpt lat="43.00326941086641" lon="11.462804091101193"><ele>425.1666666666667</ele><time>2026-04-11T15:13:14Z</time></trkpt><trkpt lat="43.00334224053291" lon="11.462885881655138"><ele>423.33333333333337</ele><time>2026-04-11T15:13:16Z</time></trkpt><trkpt lat="43.003427748013024" lon="11.462960728456668"><ele>421.5</ele><time>2026-04-11T15:13:18Z</time></trkpt><trkpt lat="43.00351040855513" lon="11.463023375140049"><ele>419.66666666666663</ele><time>2026-04-11T15:13:20Z</time></trkpt><trkpt lat="43.00358449137232" lon="11.46307756403962"><ele>417.8333333333333</ele><time>2026-04-11T15:13:22Z</time></trkpt><trkpt lat="43.003633274304654" lon="11.463151707677117"><ele>416.0</ele><time>2026-04-11T15:13:24Z</time></trkpt><trkpt lat="43.003698854442746" lon="11.463170155335408"><ele>416.0</ele><time>2026-04-11T15:13:27Z</time></trkpt><trkpt lat="43.00368806534465" lon="11.463315005494215"><ele>416.0</ele><time>2026-04-11T15:13:28Z</time></trkpt><trkpt lat="43.00376082883881" lon="11.463416742217754"><ele>416.0</ele><time>2026-04-11T15:13:30Z</time></trkpt><trkpt lat="43.00385280617179" lon="11.463508135209834"><ele>416.0</ele><time>2026-04-11T15:13:32Z</time></trkpt><trkpt lat="43.003953645291894" lon="11.46360370364673"><ele>416.0</ele><time>2026-04-11T15:13:34Z</time></trkpt><trkpt lat="43.00404340010001" lon="11.463701127063775"><ele>415.8</ele><time>2026-04-11T15:13:36Z</time></trkpt><trkpt lat="43.00412917721749" lon="11.46379191718589"><ele>415.6</ele><time>2026-04-11T15:13:38Z</time></trkpt><trkpt lat="43.00422266969877" lon="11.463855244894793"><ele>415.4</ele><time>2026-04-11T15:13:40Z</time></trkpt><trkpt lat="43.004315746398476" lon="11.463895333053873"><ele>415.2</ele><time>2026-04-11T15:13:42Z</time></trkpt><trkpt lat="43.00440222040792" lon="11.463940299689071"><ele>415.0</ele><time>2026-04-11T15:13:44Z</time></trkpt><trkpt lat="43.00449269553111" lon="11.463985206403196"><ele>415.00000000000006</ele><time>2026-04-11T15:13:46Z</time></trkpt><trkpt lat="43.00457662138869" lon="11.464037874326703"><ele>415.0</ele><time>2026-04-11T15:13:48Z</time></trkpt><trkpt lat="43.00464964982857" lon="11.464096638455324"><ele>415.0</ele><time>2026-04-11T15:13:50Z</time></trkpt><trkpt lat="43.00470725440397" lon="11.464179670121439"><ele>415.0</ele><time>2026-04-11T15:13:52Z</time></trkpt><trkpt lat="43.00475087336561" lon="11.46427647730298"><ele>415.00000000000006</ele><time>2026-04-11T15:13:54Z</time></trkpt><trkpt lat="43.00477551964769" lon="11.46440442130012"><ele>415.0</ele><time>2026-04-11T15:13:56Z</time></trkpt><trkpt lat="43.00480439552869" lon="11.464513280966392"><ele>414.0</ele><time>2026-04-11T15:13:58Z</time></trkpt><trkpt lat="43.00481518864361" lon="11.46464764994491"><ele>413.0</ele><time>2026-04-11T15:14:00Z</time></trkpt><trkpt lat="43.00481682525488" lon="11.464797713497287"><ele>412.0</ele><time>2026-04-11T15:14:02Z</time></trkpt><trkpt lat="43.00480963422175" lon="11.464927539612566"><ele>411.0</ele><time>2026-04-11T15:14:04Z</time></trkpt><trkpt lat="43.00478068084718" lon="11.465078368404917"><ele>410.0</ele><time>2026-04-11T15:14:06Z</time></trkpt><trkpt lat="43.00473892612426" lon="11.465226148399292"><ele>410.0</ele><time>2026-04-11T15:14:08Z</time></trkpt><trkpt lat="43.00470980286443" lon="11.46531812464123"><ele>410.0</ele><time>2026-04-11T15:14:09Z</time></trkpt><trkpt lat="43.0046852523337" lon="11.465400615220751"><ele>410.0</ele><time>2026-04-11T15:14:10Z</time></trkpt><trkpt lat="43.004681378064774" lon="11.465488856250625"><ele>410.0</ele><time>2026-04-11T15:14:11Z</time></trkpt><trkpt lat="43.00464824055613" lon="11.465570652655174"><ele>410.0</ele><time>2026-04-11T15:14:12Z</time></trkpt><trkpt lat="43.00463648507748" lon="11.465665836869029"><ele>410.0</ele><time>2026-04-11T15:14:13Z</time></trkpt><trkpt lat="43.004627308011656" lon="11.465761426968534"><ele>410.0</ele><time>2026-04-11T15:14:14Z</time></trkpt><trkpt lat="43.00462147576836" lon="11.465860795258907"><ele>409.8333333333333</ele><time>2026-04-11T15:14:15Z</time></trkpt><trkpt lat="43.00461939722623" lon="11.465964965104561"><ele>409.66666666666663</ele><time>2026-04-11T15:14:16Z</time></trkpt><trkpt lat="43.00461657692566" lon="11.466064131205169"><ele>409.5</ele><time>2026-04-11T15:14:17Z</time></trkpt><trkpt lat="43.0046132824544" lon="11.46616748820785"><ele>409.33333333333337</ele><time>2026-04-11T15:14:18Z</time></trkpt><trkpt lat="43.00462726458243" lon="11.466277892497374"><ele>409.1666666666667</ele><time>2026-04-11T15:14:19Z</time></trkpt><trkpt lat="43.004616658265626" lon="11.466390801398756"><ele>409.0</ele><time>2026-04-11T15:14:20Z</time></trkpt><trkpt lat="43.00462133050505" lon="11.4665001206817"><ele>408.33333333333337</ele><time>2026-04-11T15:14:21Z</time></trkpt><trkpt lat="43.00462990572362" lon="11.466615456958415"><ele>407.6666666666667</ele><time>2026-04-11T15:14:22Z</time></trkpt><trkpt lat="43.004638568589094" lon="11.466726831896874"><ele>407.0</ele><time>2026-04-11T15:14:23Z</time></trkpt><trkpt lat="43.004635709103056" lon="11.466856892426298"><ele>406.33333333333337</ele><time>2026-04-11T15:14:24Z</time></trkpt><trkpt lat="43.0046412242407" lon="11.466968546089749"><ele>405.6666666666667</ele><time>2026-04-11T15:14:25Z</time></trkpt><trkpt lat="43.0046461480827" lon="11.467076268997875"><ele>405.0</ele><time>2026-04-11T15:14:26Z</time></trkpt><trkpt lat="43.00465967250814" lon="11.467182849756055"><ele>404.2857142857143</ele><time>2026-04-11T15:14:27Z</time></trkpt><trkpt lat="43.00466988649388" lon="11.467287224253432"><ele>403.57142857142856</ele><time>2026-04-11T15:14:28Z</time></trkpt><trkpt lat="43.004685792887045" lon="11.467383719116622"><ele>402.8571428571429</ele><time>2026-04-11T15:14:29Z</time></trkpt><trkpt lat="43.0047065490117" lon="11.467484575955913"><ele>402.1428571428571</ele><time>2026-04-11T15:14:30Z</time></trkpt><trkpt lat="43.004729065362554" lon="11.467581879931034"><ele>401.42857142857144</ele><time>2026-04-11T15:14:31Z</time></trkpt><trkpt lat="43.00474762404095" lon="11.467679149343303"><ele>400.7142857142857</ele><time>2026-04-11T15:14:32Z</time></trkpt><trkpt lat="43.0047588086811" lon="11.467771561390094"><ele>400.0</ele><time>2026-04-11T15:14:33Z</time></trkpt><trkpt lat="43.00475628973457" lon="11.467863974382805"><ele>400.1666666666667</ele><time>2026-04-11T15:14:34Z</time></trkpt><trkpt lat="43.004744879022276" lon="11.467958938393378"><ele>400.33333333333337</ele><time>2026-04-11T15:14:35Z</time></trkpt><trkpt lat="43.00472384867407" lon="11.468068779916281"><ele>400.5</ele><time>2026-04-11T15:14:36Z</time></trkpt><trkpt lat="43.004670504337795" lon="11.468169289558698"><ele>400.66666666666663</ele><time>2026-04-11T15:14:37Z</time></trkpt><trkpt lat="43.00462446871714" lon="11.468248952917467"><ele>400.8333333333333</ele><time>2026-04-11T15:14:37.999Z</time></trkpt><trkpt lat="43.00455825886419" lon="11.468277590284185"><ele>401.0</ele><time>2026-04-11T15:14:39.999Z</time></trkpt><trkpt lat="43.00444569317" lon="11.468272587184819"><ele>401.0</ele><time>2026-04-11T15:14:41.999Z</time></trkpt><trkpt lat="43.00435493328967" lon="11.468279609243739"><ele>401.0</ele><time>2026-04-11T15:14:42.999Z</time></trkpt><trkpt lat="43.00424318914673" lon="11.468287291984272"><ele>401.0</ele><time>2026-04-11T15:14:44.999Z</time></trkpt><trkpt lat="43.00417488389371" lon="11.468302363571842"><ele>401.0</ele><time>2026-04-11T15:14:46.999Z</time></trkpt><trkpt lat="43.00407225033185" lon="11.468314034303745"><ele>401.0</ele><time>2026-04-11T15:14:48.999Z</time></trkpt><trkpt lat="43.003977946797264" lon="11.468358134890703"><ele>398.8</ele><time>2026-04-11T15:14:50.999Z</time></trkpt><trkpt lat="43.00392201242891" lon="11.468400456397228"><ele>396.6</ele><time>2026-04-11T15:14:51.999Z</time></trkpt><trkpt lat="43.0038258870081" lon="11.468514261518695"><ele>394.4</ele><time>2026-04-11T15:14:53.999Z</time></trkpt><trkpt lat="43.003776688270584" lon="11.468573555430922"><ele>392.2</ele><time>2026-04-11T15:14:54.999Z</time></trkpt><trkpt lat="43.00372636543887" lon="11.468749536668659"><ele>390.0</ele><time>2026-04-11T15:14:56.999Z</time></trkpt><trkpt lat="43.00369172334837" lon="11.468923230570166"><ele>389.8</ele><time>2026-04-11T15:14:58.999Z</time></trkpt><trkpt lat="43.00367684335159" lon="11.469052741847053"><ele>389.6</ele><time>2026-04-11T15:15:00.999Z</time></trkpt><trkpt lat="43.00365701094506" lon="11.46921461408203"><ele>389.4</ele><time>2026-04-11T15:15:02.999Z</time></trkpt><trkpt lat="43.00363641989674" lon="11.46935176208875"><ele>389.2</ele><time>2026-04-11T15:15:04.999Z</time></trkpt><trkpt lat="43.00362177268555" lon="11.46945850258557"><ele>389.0</ele><time>2026-04-11T15:15:06.999Z</time></trkpt><trkpt lat="43.00362255776389" lon="11.469588413448665"><ele>389.2</ele><time>2026-04-11T15:15:08.999Z</time></trkpt><trkpt lat="43.003613189818026" lon="11.469723456766943"><ele>389.4</ele><time>2026-04-11T15:15:10.999Z</time></trkpt><trkpt lat="43.00360615252732" lon="11.46983595767034"><ele>389.6</ele><time>2026-04-11T15:15:12.999Z</time></trkpt><trkpt lat="43.003589039192846" lon="11.46995835789039"><ele>389.8</ele><time>2026-04-11T15:15:14.999Z</time></trkpt><trkpt lat="43.00357586614094" lon="11.47008368312649"><ele>390.0</ele><time>2026-04-11T15:15:17Z</time></trkpt><trkpt lat="43.00352385402317" lon="11.470199971980238"><ele>390.0</ele><time>2026-04-11T15:15:19Z</time></trkpt><trkpt lat="43.00350456815427" lon="11.470286264824775"><ele>390.0</ele><time>2026-04-11T15:15:20Z</time></trkpt><trkpt lat="43.00347249738221" lon="11.470406351446869"><ele>390.0</ele><time>2026-04-11T15:15:22Z</time></trkpt><trkpt lat="43.00341494816924" lon="11.47050894124282"><ele>390.0</ele><time>2026-04-11T15:15:24Z</time></trkpt><trkpt lat="43.00340134959515" lon="11.470657311940332"><ele>390.0</ele><time>2026-04-11T15:15:26Z</time></trkpt><trkpt lat="43.00337865046949" lon="11.470787449493265"><ele>390.4</ele><time>2026-04-11T15:15:28Z</time></trkpt><trkpt lat="43.00333165856526" lon="11.47094429367192"><ele>390.8</ele><time>2026-04-11T15:15:30Z</time></trkpt><trkpt lat="43.003296818094995" lon="11.471081791480449"><ele>391.20000000000005</ele><time>2026-04-11T15:15:32Z</time></trkpt><trkpt lat="43.003282377348796" lon="11.471238114960638"><ele>391.6</ele><time>2026-04-11T15:15:34Z</time></trkpt><trkpt lat="43.00326756159909" lon="11.471376601793533"><ele>392.0</ele><time>2026-04-11T15:15:36Z</time></trkpt><trkpt lat="43.0032513498668" lon="11.471530722373839"><ele>390.20000000000005</ele><time>2026-04-11T15:15:38Z</time></trkpt><trkpt lat="43.003224941578196" lon="11.471668841480533"><ele>388.4</ele><time>2026-04-11T15:15:40Z</time></trkpt><trkpt lat="43.00321801301748" lon="11.471806288618836"><ele>386.6</ele><time>2026-04-11T15:15:42Z</time></trkpt><trkpt lat="43.00317694250758" lon="11.4719277196119"><ele>384.79999999999995</ele><time>2026-04-11T15:15:44Z</time></trkpt><trkpt lat="43.00314054351439" lon="11.472037411084823"><ele>383.0</ele><time>2026-04-11T15:15:46Z</time></trkpt><trkpt lat="43.003105999419084" lon="11.47217051583988"><ele>383.0</ele><time>2026-04-11T15:15:48Z</time></trkpt><trkpt lat="43.003104748480425" lon="11.472323492574239"><ele>383.0</ele><time>2026-04-11T15:15:50Z</time></trkpt><trkpt lat="43.003109583849685" lon="11.4724603172375"><ele>383.0</ele><time>2026-04-11T15:15:52Z</time></trkpt><trkpt lat="43.00311474169474" lon="11.472623623633796"><ele>383.0</ele><time>2026-04-11T15:15:54Z</time></trkpt><trkpt lat="43.00310790358675" lon="11.472785807765389"><ele>383.2</ele><time>2026-04-11T15:15:56Z</time></trkpt><trkpt lat="43.00310817262438" lon="11.472946746749146"><ele>383.4</ele><time>2026-04-11T15:15:58Z</time></trkpt><trkpt lat="43.00309178341992" lon="11.473032174989115"><ele>383.59999999999997</ele><time>2026-04-11T15:15:59Z</time></trkpt><trkpt lat="43.00308956391033" lon="11.47312027045317"><ele>383.79999999999995</ele><time>2026-04-11T15:16:00Z</time></trkpt><trkpt lat="43.00306866051895" lon="11.473286404354283"><ele>384.0</ele><time>2026-04-11T15:16:02Z</time></trkpt><trkpt lat="43.00306280533659" lon="11.473445204290218"><ele>384.0</ele><time>2026-04-11T15:16:04Z</time></trkpt><trkpt lat="43.003070763633694" lon="11.473600726664843"><ele>384.0</ele><time>2026-04-11T15:16:06Z</time></trkpt><trkpt lat="43.00309691210804" lon="11.473689309455162"><ele>384.0</ele><time>2026-04-11T15:16:07Z</time></trkpt><trkpt lat="43.00312426994775" lon="11.473769938575227"><ele>384.0</ele><time>2026-04-11T15:16:08Z</time></trkpt><trkpt lat="43.00318339763909" lon="11.473890186791193"><ele>384.0</ele><time>2026-04-11T15:16:10Z</time></trkpt><trkpt lat="43.00325137826416" lon="11.473993415132936"><ele>384.8333333333333</ele><time>2026-04-11T15:16:12Z</time></trkpt><trkpt lat="43.00334758839484" lon="11.474097329466819"><ele>385.66666666666663</ele><time>2026-04-11T15:16:14Z</time></trkpt><trkpt lat="43.00340626895581" lon="11.474132974064661"><ele>386.5</ele><time>2026-04-11T15:16:15Z</time></trkpt><trkpt lat="43.00346967966348" lon="11.474163071324623"><ele>387.3333333333333</ele><time>2026-04-11T15:16:16Z</time></trkpt><trkpt lat="43.00352051780589" lon="11.474214139659605"><ele>388.16666666666663</ele><time>2026-04-11T15:16:17Z</time></trkpt><trkpt lat="43.003584249350574" lon="11.474235236607706"><ele>389.0</ele><time>2026-04-11T15:16:18Z</time></trkpt><trkpt lat="43.00366248668328" lon="11.4743355750007"><ele>389.0</ele><time>2026-04-11T15:16:20Z</time></trkpt><trkpt lat="43.00367463381808" lon="11.474496556907175"><ele>389.0</ele><time>2026-04-11T15:16:22Z</time></trkpt><trkpt lat="43.003601878338834" lon="11.474606945779454"><ele>389.0</ele><time>2026-04-11T15:16:24Z</time></trkpt><trkpt lat="43.00353201244945" lon="11.474664039494089"><ele>389.0</ele><time>2026-04-11T15:16:26Z</time></trkpt><trkpt lat="43.003453358260884" lon="11.474728070492143"><ele>389.0</ele><time>2026-04-11T15:16:28Z</time></trkpt><trkpt lat="43.00335142130764" lon="11.474781532437659"><ele>387.2</ele><time>2026-04-11T15:16:30Z</time></trkpt><trkpt lat="43.00325887542127" lon="11.474794990102161"><ele>385.4</ele><time>2026-04-11T15:16:32Z</time></trkpt><trkpt lat="43.003155589093026" lon="11.474832425861619"><ele>383.6</ele><time>2026-04-11T15:16:34Z</time></trkpt><trkpt lat="43.00307200673501" lon="11.474851590227146"><ele>381.8</ele><time>2026-04-11T15:16:36Z</time></trkpt><trkpt lat="43.002962742746874" lon="11.47490192910659"><ele>380.0</ele><time>2026-04-11T15:16:38Z</time></trkpt><trkpt lat="43.00290176226353" lon="11.474945805154682"><ele>380.0</ele><time>2026-04-11T15:16:39Z</time></trkpt><trkpt lat="43.00284104563016" lon="11.47499145726727"><ele>380.0</ele><time>2026-04-11T15:16:40Z</time></trkpt><trkpt lat="43.002781968604474" lon="11.47503896925696"><ele>380.0</ele><time>2026-04-11T15:16:41Z</time></trkpt><trkpt lat="43.00270953350738" lon="11.475074103020958"><ele>380.0</ele><time>2026-04-11T15:16:42Z</time></trkpt><trkpt lat="43.00264304812053" lon="11.475125831987343"><ele>380.0</ele><time>2026-04-11T15:16:43Z</time></trkpt><trkpt lat="43.002572422787395" lon="11.475178876965494"><ele>380.0</ele><time>2026-04-11T15:16:44Z</time></trkpt><trkpt lat="43.00250177821518" lon="11.47523047760416"><ele>379.5</ele><time>2026-04-11T15:16:45Z</time></trkpt><trkpt lat="43.00243695365931" lon="11.475284514544747"><ele>379.0</ele><time>2026-04-11T15:16:46Z</time></trkpt><trkpt lat="43.00236991852591" lon="11.475334722064176"><ele>378.5</ele><time>2026-04-11T15:16:47Z</time></trkpt><trkpt lat="43.002300000611676" lon="11.475390511305829"><ele>378.0</ele><time>2026-04-11T15:16:48Z</time></trkpt><trkpt lat="43.00222876924066" lon="11.47545162391178"><ele>377.5</ele><time>2026-04-11T15:16:49Z</time></trkpt><trkpt lat="43.00215726309226" lon="11.475505478062457"><ele>377.0</ele><time>2026-04-11T15:16:50Z</time></trkpt><trkpt lat="43.002083295999306" lon="11.475559287677855"><ele>377.0</ele><time>2026-04-11T15:16:51Z</time></trkpt><trkpt lat="43.002015068678794" lon="11.475615543109587"><ele>377.0</ele><time>2026-04-11T15:16:52Z</time></trkpt><trkpt lat="43.001940504923816" lon="11.475675223519223"><ele>377.0</ele><time>2026-04-11T15:16:52.999Z</time></trkpt><trkpt lat="43.00186620821538" lon="11.475729354829504"><ele>377.0</ele><time>2026-04-11T15:16:53.999Z</time></trkpt><trkpt lat="43.00179147247098" lon="11.475779421956995"><ele>377.0</ele><time>2026-04-11T15:16:54.999Z</time></trkpt><trkpt lat="43.0017197792278" lon="11.475832088079525"><ele>377.0</ele><time>2026-04-11T15:16:55.999Z</time></trkpt><trkpt lat="43.00164925044645" lon="11.47588881095804"><ele>376.5</ele><time>2026-04-11T15:16:56.999Z</time></trkpt><trkpt lat="43.001579059863815" lon="11.475941881616162"><ele>376.0</ele><time>2026-04-11T15:16:57.999Z</time></trkpt><trkpt lat="43.00150728269427" lon="11.475997585094815"><ele>375.5</ele><time>2026-04-11T15:16:58.999Z</time></trkpt><trkpt lat="43.00143989649026" lon="11.476052374291646"><ele>375.0</ele><time>2026-04-11T15:16:59.999Z</time></trkpt><trkpt lat="43.001371936404816" lon="11.476109423462553"><ele>374.5</ele><time>2026-04-11T15:17:00.999Z</time></trkpt><trkpt lat="43.00130611575922" lon="11.476166572697835"><ele>374.0</ele><time>2026-04-11T15:17:01.999Z</time></trkpt><trkpt lat="43.00123507252647" lon="11.476216170588023"><ele>375.2</ele><time>2026-04-11T15:17:02.999Z</time></trkpt><trkpt lat="43.00117464219243" lon="11.476273085305575"><ele>376.4</ele><time>2026-04-11T15:17:03.999Z</time></trkpt><trkpt lat="43.001112784336925" lon="11.47631252072623"><ele>377.6</ele><time>2026-04-11T15:17:04.999Z</time></trkpt><trkpt lat="43.00099814136914" lon="11.476398786867152"><ele>378.8</ele><time>2026-04-11T15:17:06.999Z</time></trkpt><trkpt lat="43.00093050476725" lon="11.476381766376909"><ele>380.0</ele><time>2026-04-11T15:17:07.999Z</time></trkpt><trkpt lat="43.00081825652423" lon="11.476343264854851"><ele>380.2</ele><time>2026-04-11T15:17:09.999Z</time></trkpt><trkpt lat="43.00077699770326" lon="11.476274723044101"><ele>380.4</ele><time>2026-04-11T15:17:10.999Z</time></trkpt><trkpt lat="43.00071134808053" lon="11.476163814870771"><ele>380.6</ele><time>2026-04-11T15:17:12.999Z</time></trkpt><trkpt lat="43.00065751750654" lon="11.476040675021581"><ele>380.8</ele><time>2026-04-11T15:17:14.999Z</time></trkpt><trkpt lat="43.00060363056715" lon="11.475926162562278"><ele>381.0</ele><time>2026-04-11T15:17:16.999Z</time></trkpt><trkpt lat="43.00053998863683" lon="11.475790920153091"><ele>379.5</ele><time>2026-04-11T15:17:18.999Z</time></trkpt><trkpt lat="43.00047320901186" lon="11.475661488906825"><ele>378.0</ele><time>2026-04-11T15:17:20.999Z</time></trkpt><trkpt lat="43.00041163366099" lon="11.475524115419386"><ele>376.5</ele><time>2026-04-11T15:17:23Z</time></trkpt><trkpt lat="43.00035058771826" lon="11.475385062194308"><ele>375.0</ele><time>2026-04-11T15:17:25Z</time></trkpt><trkpt lat="43.00027467370402" lon="11.4752415908769"><ele>374.3333333333333</ele><time>2026-04-11T15:17:27Z</time></trkpt><trkpt lat="43.00023262521835" lon="11.475174616086516"><ele>373.6666666666667</ele><time>2026-04-11T15:17:28Z</time></trkpt><trkpt lat="43.00015260021944" lon="11.47503721929098"><ele>373.0</ele><time>2026-04-11T15:17:30Z</time></trkpt><trkpt lat="43.00010536388183" lon="11.474967181472396"><ele>372.33333333333337</ele><time>2026-04-11T15:17:31Z</time></trkpt><trkpt lat="43.00005557411278" lon="11.474892618331717"><ele>371.6666666666667</ele><time>2026-04-11T15:17:32Z</time></trkpt><trkpt lat="43.000009116959205" lon="11.474817709632793"><ele>371.0</ele><time>2026-04-11T15:17:33Z</time></trkpt><trkpt lat="42.99995930828485" lon="11.474743828272107"><ele>371.0</ele><time>2026-04-11T15:17:34Z</time></trkpt><trkpt lat="42.99990735957152" lon="11.474665985460945"><ele>371.0</ele><time>2026-04-11T15:17:35Z</time></trkpt><trkpt lat="42.9998562431719" lon="11.4745889978566"><ele>371.0</ele><time>2026-04-11T15:17:36Z</time></trkpt><trkpt lat="42.99980136442072" lon="11.47450388097424"><ele>371.0</ele><time>2026-04-11T15:17:37Z</time></trkpt><trkpt lat="42.99975182729455" lon="11.474423296651906"><ele>371.0</ele><time>2026-04-11T15:17:38Z</time></trkpt><trkpt lat="42.999703109714055" lon="11.474342091234984"><ele>371.0</ele><time>2026-04-11T15:17:39Z</time></trkpt><trkpt lat="42.99965386077416" lon="11.474266946487273"><ele>370.1666666666667</ele><time>2026-04-11T15:17:40Z</time></trkpt><trkpt lat="42.99960896445844" lon="11.474193547699498"><ele>369.33333333333337</ele><time>2026-04-11T15:17:41Z</time></trkpt><trkpt lat="42.99955230085624" lon="11.474113481534024"><ele>368.5</ele><time>2026-04-11T15:17:42Z</time></trkpt><trkpt lat="42.99950189470962" lon="11.47403640417997"><ele>367.6666666666667</ele><time>2026-04-11T15:17:43Z</time></trkpt><trkpt lat="42.99945410940519" lon="11.473967513448788"><ele>366.8333333333333</ele><time>2026-04-11T15:17:44Z</time></trkpt><trkpt lat="42.99934660355419" lon="11.473863900213747"><ele>366.0</ele><time>2026-04-11T15:17:46Z</time></trkpt><trkpt lat="42.99928458504378" lon="11.473821207740361"><ele>366.0</ele><time>2026-04-11T15:17:47Z</time></trkpt><trkpt lat="42.99921728886946" lon="11.473791077881986"><ele>366.0</ele><time>2026-04-11T15:17:48Z</time></trkpt><trkpt lat="42.99914669685221" lon="11.473772546261879"><ele>366.0</ele><time>2026-04-11T15:17:49Z</time></trkpt><trkpt lat="42.9990759260924" lon="11.47376242849008"><ele>366.0</ele><time>2026-04-11T15:17:50Z</time></trkpt><trkpt lat="42.999001465010174" lon="11.47373679071228"><ele>366.0</ele><time>2026-04-11T15:17:51Z</time></trkpt><trkpt lat="42.9989340358762" lon="11.473727072757772"><ele>366.0</ele><time>2026-04-11T15:17:52Z</time></trkpt><trkpt lat="42.99885888334874" lon="11.473707821548043"><ele>366.0</ele><time>2026-04-11T15:17:53Z</time></trkpt><trkpt lat="42.998793775749526" lon="11.473673538822155"><ele>365.5</ele><time>2026-04-11T15:17:54Z</time></trkpt><trkpt lat="42.99872843850057" lon="11.473669838438505"><ele>365.0</ele><time>2026-04-11T15:17:55Z</time></trkpt><trkpt lat="42.998663628628236" lon="11.473655310013605"><ele>364.5</ele><time>2026-04-11T15:17:56Z</time></trkpt><trkpt lat="42.99854529737862" lon="11.473620290419765"><ele>364.0</ele><time>2026-04-11T15:17:58Z</time></trkpt><trkpt lat="42.99848162067006" lon="11.473608115011478"><ele>363.5</ele><time>2026-04-11T15:17:59Z</time></trkpt><trkpt lat="42.99841388683694" lon="11.473590490845751"><ele>363.0</ele><time>2026-04-11T15:18:00Z</time></trkpt><trkpt lat="42.99835065468729" lon="11.473572494927792"><ele>363.1666666666667</ele><time>2026-04-11T15:18:01Z</time></trkpt><trkpt lat="42.9982863413379" lon="11.473552230012983"><ele>363.3333333333333</ele><time>2026-04-11T15:18:02Z</time></trkpt><trkpt lat="42.99820863063814" lon="11.473532213909946"><ele>363.5</ele><time>2026-04-11T15:18:03Z</time></trkpt><trkpt lat="42.998136957714635" lon="11.47350531038408"><ele>363.66666666666663</ele><time>2026-04-11T15:18:04Z</time></trkpt><trkpt lat="42.998059215939314" lon="11.47348621111547"><ele>363.8333333333333</ele><time>2026-04-11T15:18:05Z</time></trkpt><trkpt lat="42.99797837662649" lon="11.473465350296769"><ele>364.0</ele><time>2026-04-11T15:18:06Z</time></trkpt><trkpt lat="42.99790492828958" lon="11.473435480437185"><ele>364.0</ele><time>2026-04-11T15:18:07Z</time></trkpt><trkpt lat="42.99783335751377" lon="11.473409957731004"><ele>364.0</ele><time>2026-04-11T15:18:08Z</time></trkpt><trkpt lat="42.99777883570671" lon="11.473362589964793"><ele>364.0</ele><time>2026-04-11T15:18:09Z</time></trkpt><trkpt lat="42.99766593673784" lon="11.473293230844337"><ele>364.0</ele><time>2026-04-11T15:18:11Z</time></trkpt><trkpt lat="42.997604751161774" lon="11.473261126865136"><ele>364.0</ele><time>2026-04-11T15:18:12Z</time></trkpt><trkpt lat="42.997510717509506" lon="11.473195770594918"><ele>364.0</ele><time>2026-04-11T15:18:14Z</time></trkpt><trkpt lat="42.99743167898973" lon="11.473154056860235"><ele>364.5</ele><time>2026-04-11T15:18:16Z</time></trkpt><trkpt lat="42.99737304740987" lon="11.473107304335818"><ele>365.0</ele><time>2026-04-11T15:18:18Z</time></trkpt><trkpt lat="42.99730856257713" lon="11.473073144425081"><ele>365.5</ele><time>2026-04-11T15:18:20Z</time></trkpt><trkpt lat="42.99723555204166" lon="11.473024976306986"><ele>366.0</ele><time>2026-04-11T15:18:23Z</time></trkpt><trkpt lat="42.997155904985505" lon="11.472977987287514"><ele>366.5</ele><time>2026-04-11T15:18:27Z</time></trkpt><trkpt lat="42.99708104677659" lon="11.4729424191211"><ele>367.0</ele><time>2026-04-11T15:18:31Z</time></trkpt><trkpt lat="42.997014256057156" lon="11.472949309233544"><ele>367.0</ele><time>2026-04-11T15:18:34Z</time></trkpt><trkpt lat="42.99695751788298" lon="11.472991452699054"><ele>367.0</ele><time>2026-04-11T15:18:37Z</time></trkpt><trkpt lat="42.996899947067284" lon="11.473048570518309"><ele>367.0</ele><time>2026-04-11T15:18:40Z</time></trkpt><trkpt lat="42.99683959276613" lon="11.473104610254866"><ele>367.0</ele><time>2026-04-11T15:18:43Z</time></trkpt><trkpt lat="42.99679866394719" lon="11.473185566224494"><ele>367.0</ele><time>2026-04-11T15:18:46Z</time></trkpt><trkpt lat="42.99674735714613" lon="11.473242441367095"><ele>367.0</ele><time>2026-04-11T15:18:49Z</time></trkpt><trkpt lat="42.99669103895888" lon="11.47332682516577"><ele>367.0</ele><time>2026-04-11T15:18:52.999Z</time></trkpt><trkpt lat="42.996640582868885" lon="11.473389140319092"><ele>367.7142857142857</ele><time>2026-04-11T15:18:55.999Z</time></trkpt><trkpt lat="42.996593434217075" lon="11.473455394834266"><ele>368.42857142857144</ele><time>2026-04-11T15:18:58.999Z</time></trkpt><trkpt lat="42.99654621203384" lon="11.473521374984047"><ele>369.14285714285717</ele><time>2026-04-11T15:19:01.999Z</time></trkpt><trkpt lat="42.99650206446923" lon="11.473590873349877"><ele>369.8571428571429</ele><time>2026-04-11T15:19:04.999Z</time></trkpt><trkpt lat="42.996457299325854" lon="11.473670879050085"><ele>370.57142857142856</ele><time>2026-04-11T15:19:07.999Z</time></trkpt><trkpt lat="42.996408359723546" lon="11.473734151981091"><ele>371.28571428571433</ele><time>2026-04-11T15:19:10.999Z</time></trkpt><trkpt lat="42.996364869872956" lon="11.473813193011642"><ele>372.0</ele><time>2026-04-11T15:19:13.999Z</time></trkpt><trkpt lat="42.99631277757284" lon="11.473892760117238"><ele>372.1666666666667</ele><time>2026-04-11T15:19:16.999Z</time></trkpt><trkpt lat="42.99626350441716" lon="11.47397220316765"><ele>372.3333333333333</ele><time>2026-04-11T15:19:19.999Z</time></trkpt><trkpt lat="42.99621246246301" lon="11.474056224208617"><ele>372.5</ele><time>2026-04-11T15:19:22.999Z</time></trkpt><trkpt lat="42.99615112674705" lon="11.474153896803669"><ele>372.66666666666663</ele><time>2026-04-11T15:19:25.999Z</time></trkpt><trkpt lat="42.99609060436254" lon="11.474236183599464"><ele>372.8333333333333</ele><time>2026-04-11T15:19:29Z</time></trkpt><trkpt lat="42.99603069044506" lon="11.474327256058658"><ele>373.0</ele><time>2026-04-11T15:19:32Z</time></trkpt><trkpt lat="42.9959591894251" lon="11.474412390321518"><ele>373.0</ele><time>2026-04-11T15:19:35Z</time></trkpt><trkpt lat="42.99588518113125" lon="11.47448462433456"><ele>373.0</ele><time>2026-04-11T15:19:38Z</time></trkpt><trkpt lat="42.995820830243886" lon="11.474544206534661"><ele>373.0</ele><time>2026-04-11T15:19:40Z</time></trkpt><trkpt lat="42.99575919109483" lon="11.47461166373948"><ele>373.0</ele><time>2026-04-11T15:19:42Z</time></trkpt><trkpt lat="42.99568807755315" lon="11.474673489096501"><ele>373.0</ele><time>2026-04-11T15:19:44Z</time></trkpt><trkpt lat="42.99561874190801" lon="11.474737618062768"><ele>373.0</ele><time>2026-04-11T15:19:46Z</time></trkpt><trkpt lat="42.995536268324194" lon="11.474805677628607"><ele>374.0</ele><time>2026-04-11T15:19:48Z</time></trkpt><trkpt lat="42.9954442620762" lon="11.474847636795785"><ele>375.0</ele><time>2026-04-11T15:19:50Z</time></trkpt><trkpt lat="42.99536639188317" lon="11.47486004093153"><ele>376.0</ele><time>2026-04-11T15:19:52Z</time></trkpt><trkpt lat="42.99527734568666" lon="11.474847018087614"><ele>377.0</ele><time>2026-04-11T15:19:54Z</time></trkpt><trkpt lat="42.99517745508326" lon="11.474811346569547"><ele>378.0</ele><time>2026-04-11T15:19:56Z</time></trkpt><trkpt lat="42.995054803722155" lon="11.474805087706686"><ele>377.7142857142857</ele><time>2026-04-11T15:19:58Z</time></trkpt><trkpt lat="42.99498874625514" lon="11.474794236527439"><ele>377.42857142857144</ele><time>2026-04-11T15:19:59Z</time></trkpt><trkpt lat="42.99492314090051" lon="11.474789213232144"><ele>377.1428571428571</ele><time>2026-04-11T15:20:00Z</time></trkpt><trkpt lat="42.99485266804089" lon="11.474771806324236"><ele>376.8571428571429</ele><time>2026-04-11T15:20:01Z</time></trkpt><trkpt lat="42.99477801316024" lon="11.474757825348705"><ele>376.57142857142856</ele><time>2026-04-11T15:20:02Z</time></trkpt><trkpt lat="42.99471036056657" lon="11.47474240482088"><ele>376.2857142857143</ele><time>2026-04-11T15:20:03Z</time></trkpt><trkpt lat="42.99464667614531" lon="11.474732182465644"><ele>376.0</ele><time>2026-04-11T15:20:04Z</time></trkpt><trkpt lat="42.99452135044217" lon="11.474733792885399"><ele>376.0</ele><time>2026-04-11T15:20:06Z</time></trkpt><trkpt lat="42.9944052413232" lon="11.474764521707078"><ele>376.0</ele><time>2026-04-11T15:20:08Z</time></trkpt><trkpt lat="42.99430250944396" lon="11.474845978462625"><ele>376.0</ele><time>2026-04-11T15:20:10Z</time></trkpt><trkpt lat="42.99419714711369" lon="11.47491926497652"><ele>376.0</ele><time>2026-04-11T15:20:12Z</time></trkpt><trkpt lat="42.99408580146695" lon="11.475008049440474"><ele>374.0</ele><time>2026-04-11T15:20:14Z</time></trkpt><trkpt lat="42.99398319040744" lon="11.475101631428906"><ele>372.0</ele><time>2026-04-11T15:20:16Z</time></trkpt><trkpt lat="42.993882633805015" lon="11.475157723203422"><ele>370.0</ele><time>2026-04-11T15:20:18Z</time></trkpt><trkpt lat="42.99377243715269" lon="11.47525481595528"><ele>368.0</ele><time>2026-04-11T15:20:20Z</time></trkpt><trkpt lat="42.993709600599665" lon="11.475297818157458"><ele>366.0</ele><time>2026-04-11T15:20:21Z</time></trkpt><trkpt lat="42.99365226001154" lon="11.475359820215253"><ele>367.75</ele><time>2026-04-11T15:20:22Z</time></trkpt><trkpt lat="42.99356374331987" lon="11.475481333115585"><ele>369.5</ele><time>2026-04-11T15:20:24Z</time></trkpt><trkpt lat="42.99349739364522" lon="11.475624871136805"><ele>371.25</ele><time>2026-04-11T15:20:26Z</time></trkpt><trkpt lat="42.993468306147435" lon="11.475721521709483"><ele>373.0</ele><time>2026-04-11T15:20:27Z</time></trkpt><trkpt lat="42.99342028328435" lon="11.475890628948441"><ele>373.0</ele><time>2026-04-11T15:20:29Z</time></trkpt><trkpt lat="42.99340976360209" lon="11.475988901655548"><ele>373.0</ele><time>2026-04-11T15:20:30Z</time></trkpt><trkpt lat="42.993385158079846" lon="11.4760743886285"><ele>373.0</ele><time>2026-04-11T15:20:31Z</time></trkpt><trkpt lat="42.99335258810202" lon="11.476163680772952"><ele>373.0</ele><time>2026-04-11T15:20:32Z</time></trkpt><trkpt lat="42.993323749222384" lon="11.476259852651774"><ele>373.0</ele><time>2026-04-11T15:20:33Z</time></trkpt><trkpt lat="42.99329626245961" lon="11.47635228351398"><ele>373.0</ele><time>2026-04-11T15:20:34Z</time></trkpt><trkpt lat="42.99326898045141" lon="11.476442515710016"><ele>373.0</ele><time>2026-04-11T15:20:35Z</time></trkpt><trkpt lat="42.993231117068945" lon="11.476536524329141"><ele>369.79999999999995</ele><time>2026-04-11T15:20:36Z</time></trkpt><trkpt lat="42.99317049532056" lon="11.476683568875345"><ele>366.6</ele><time>2026-04-11T15:20:38Z</time></trkpt><trkpt lat="42.99312762095653" lon="11.47681857085498"><ele>363.4</ele><time>2026-04-11T15:20:40Z</time></trkpt><trkpt lat="42.993091424350894" lon="11.476945971410428"><ele>360.20000000000005</ele><time>2026-04-11T15:20:42Z</time></trkpt><trkpt lat="42.99306134807907" lon="11.477072140970963"><ele>357.0</ele><time>2026-04-11T15:20:44Z</time></trkpt><trkpt lat="42.993055482197185" lon="11.477207466292306"><ele>355.6</ele><time>2026-04-11T15:20:46Z</time></trkpt><trkpt lat="42.99306914013543" lon="11.47735391501459"><ele>354.20000000000005</ele><time>2026-04-11T15:20:48Z</time></trkpt><trkpt lat="42.99308160079644" lon="11.477498769107621"><ele>352.8</ele><time>2026-04-11T15:20:50Z</time></trkpt><trkpt lat="42.99311009904423" lon="11.477620938177445"><ele>351.4</ele><time>2026-04-11T15:20:52Z</time></trkpt><trkpt lat="42.993154885836255" lon="11.477756483907934"><ele>350.0</ele><time>2026-04-11T15:20:54Z</time></trkpt><trkpt lat="42.99321406683081" lon="11.4778791355881"><ele>349.5</ele><time>2026-04-11T15:20:55.999Z</time></trkpt><trkpt lat="42.99330571282874" lon="11.47799015219636"><ele>349.0</ele><time>2026-04-11T15:20:57.999Z</time></trkpt><trkpt lat="42.993373628214655" lon="11.478010568496558"><ele>348.5</ele><time>2026-04-11T15:20:58.999Z</time></trkpt><trkpt lat="42.99343698483495" lon="11.478048264638575"><ele>348.0</ele><time>2026-04-11T15:20:59.999Z</time></trkpt><trkpt lat="42.99349993173518" lon="11.478093531379681"><ele>347.5</ele><time>2026-04-11T15:21:00.999Z</time></trkpt><trkpt lat="42.99356822272912" lon="11.47813750254324"><ele>347.0</ele><time>2026-04-11T15:21:01.999Z</time></trkpt><trkpt lat="42.99363636797531" lon="11.478179187619926"><ele>347.0</ele><time>2026-04-11T15:21:02.999Z</time></trkpt><trkpt lat="42.99370234609762" lon="11.478221908009505"><ele>347.0</ele><time>2026-04-11T15:21:03.999Z</time></trkpt><trkpt lat="42.99377076977489" lon="11.478273633352421"><ele>347.0</ele><time>2026-04-11T15:21:04.999Z</time></trkpt><trkpt lat="42.9938817592337" lon="11.478353376429816"><ele>347.0</ele><time>2026-04-11T15:21:06.999Z</time></trkpt><trkpt lat="42.99394285063835" lon="11.478380326736888"><ele>347.0</ele><time>2026-04-11T15:21:07.999Z</time></trkpt><trkpt lat="42.99400842632619" lon="11.478395016610325"><ele>347.0</ele><time>2026-04-11T15:21:08.999Z</time></trkpt><trkpt lat="42.99413146728782" lon="11.478401962942087"><ele>350.6</ele><time>2026-04-11T15:21:10.999Z</time></trkpt><trkpt lat="42.99423575934924" lon="11.478422674157924"><ele>354.20000000000005</ele><time>2026-04-11T15:21:12.999Z</time></trkpt><trkpt lat="42.99432360911348" lon="11.478522137300597"><ele>357.8</ele><time>2026-04-11T15:21:14.999Z</time></trkpt><trkpt lat="42.99432258098816" lon="11.478688446903462"><ele>361.4</ele><time>2026-04-11T15:21:16.999Z</time></trkpt><trkpt lat="42.99427180065863" lon="11.478753429288753"><ele>365.0</ele><time>2026-04-11T15:21:17.999Z</time></trkpt><trkpt lat="42.99420535018479" lon="11.478863345333338"><ele>360.6666666666667</ele><time>2026-04-11T15:21:19.999Z</time></trkpt><trkpt lat="42.99415042733913" lon="11.478922574770602"><ele>356.33333333333337</ele><time>2026-04-11T15:21:20.999Z</time></trkpt><trkpt lat="42.99408278117293" lon="11.47897680687866"><ele>352.0</ele><time>2026-04-11T15:21:21.999Z</time></trkpt><trkpt lat="42.99404233310773" lon="11.479070697695585"><ele>347.6666666666667</ele><time>2026-04-11T15:21:22.999Z</time></trkpt><trkpt lat="42.993994311944874" lon="11.479166187114306"><ele>343.3333333333333</ele><time>2026-04-11T15:21:23.999Z</time></trkpt><trkpt lat="42.99394479419443" lon="11.479252684396153"><ele>339.0</ele><time>2026-04-11T15:21:24.999Z</time></trkpt><trkpt lat="42.99390954998464" lon="11.479327204522802"><ele>339.0</ele><time>2026-04-11T15:21:25.999Z</time></trkpt><trkpt lat="42.99386933035988" lon="11.479405058980497"><ele>339.0</ele><time>2026-04-11T15:21:26.999Z</time></trkpt><trkpt lat="42.993791667431395" lon="11.479548919585762"><ele>339.0</ele><time>2026-04-11T15:21:28.999Z</time></trkpt><trkpt lat="42.99372248287988" lon="11.479668083737986"><ele>339.0</ele><time>2026-04-11T15:21:30.999Z</time></trkpt><trkpt lat="42.993689404002126" lon="11.479804064242414"><ele>339.0</ele><time>2026-04-11T15:21:32.999Z</time></trkpt><trkpt lat="42.99368697962703" lon="11.479960835017224"><ele>339.4285714285714</ele><time>2026-04-11T15:21:35Z</time></trkpt><trkpt lat="42.99369638758559" lon="11.480046245446013"><ele>339.8571428571429</ele><time>2026-04-11T15:21:36Z</time></trkpt><trkpt lat="42.993703809355935" lon="11.480143945195591"><ele>340.2857142857143</ele><time>2026-04-11T15:21:37Z</time></trkpt><trkpt lat="42.99371571270723" lon="11.48024108486546"><ele>340.71428571428567</ele><time>2026-04-11T15:21:38Z</time></trkpt><trkpt lat="42.993725801400515" lon="11.480341748393203"><ele>341.1428571428571</ele><time>2026-04-11T15:21:39Z</time></trkpt><trkpt lat="42.99373967269942" lon="11.48045181792279"><ele>341.57142857142856</ele><time>2026-04-11T15:21:40Z</time></trkpt><trkpt lat="42.9937516641863" lon="11.480549297262877"><ele>342.0</ele><time>2026-04-11T15:21:41Z</time></trkpt><trkpt lat="42.99376949566104" lon="11.48064926172437"><ele>340.40000000000003</ele><time>2026-04-11T15:21:42Z</time></trkpt><trkpt lat="42.99379745919989" lon="11.480819561945792"><ele>338.8</ele><time>2026-04-11T15:21:44Z</time></trkpt><trkpt lat="42.993813166120184" lon="11.480917616693976"><ele>337.2</ele><time>2026-04-11T15:21:45Z</time></trkpt><trkpt lat="42.993828330542904" lon="11.48101115861627"><ele>335.6</ele><time>2026-04-11T15:21:46Z</time></trkpt><trkpt lat="42.993824091265196" lon="11.48110998511631"><ele>334.0</ele><time>2026-04-11T15:21:47Z</time></trkpt><trkpt lat="42.99384762500347" lon="11.481267512824239"><ele>331.16666666666663</ele><time>2026-04-11T15:21:49Z</time></trkpt><trkpt lat="42.993833398080874" lon="11.481446583594682"><ele>328.3333333333333</ele><time>2026-04-11T15:21:51Z</time></trkpt><trkpt lat="42.993816373682535" lon="11.48155274081242"><ele>325.5</ele><time>2026-04-11T15:21:52Z</time></trkpt><trkpt lat="42.99379060043079" lon="11.48164551181747"><ele>322.6666666666667</ele><time>2026-04-11T15:21:53Z</time></trkpt><trkpt lat="42.993766675318916" lon="11.481738407599064"><ele>319.83333333333337</ele><time>2026-04-11T15:21:54Z</time></trkpt><trkpt lat="42.993745975274486" lon="11.481830350687087"><ele>317.0</ele><time>2026-04-11T15:21:55Z</time></trkpt><trkpt lat="42.99370690519718" lon="11.481934486666544"><ele>317.0</ele><time>2026-04-11T15:21:56Z</time></trkpt><trkpt lat="42.99370441230628" lon="11.482025321448265"><ele>317.0</ele><time>2026-04-11T15:21:57Z</time></trkpt><trkpt lat="42.99368909740572" lon="11.482109967672411"><ele>317.0</ele><time>2026-04-11T15:21:58Z</time></trkpt><trkpt lat="42.99368348943764" lon="11.482268138784802"><ele>317.0</ele><time>2026-04-11T15:22:00Z</time></trkpt><trkpt lat="42.99369285140604" lon="11.48235571663308"><ele>317.0</ele><time>2026-04-11T15:22:01Z</time></trkpt><trkpt lat="42.9937268482684" lon="11.48251767850439"><ele>317.0</ele><time>2026-04-11T15:22:03Z</time></trkpt><trkpt lat="42.99375483814282" lon="11.482598006917506"><ele>315.6</ele><time>2026-04-11T15:22:04Z</time></trkpt><trkpt lat="42.993810900001506" lon="11.482739054707162"><ele>314.2</ele><time>2026-04-11T15:22:06Z</time></trkpt><trkpt lat="42.99387075734021" lon="11.482872770350935"><ele>312.8</ele><time>2026-04-11T15:22:08Z</time></trkpt><trkpt lat="42.9939162234648" lon="11.482940875510621"><ele>311.4</ele><time>2026-04-11T15:22:09Z</time></trkpt><trkpt lat="42.99396749715895" lon="11.483071764850628"><ele>310.0</ele><time>2026-04-11T15:22:11Z</time></trkpt><trkpt lat="42.9940080202325" lon="11.48321967642629"><ele>310.0</ele><time>2026-04-11T15:22:13Z</time></trkpt><trkpt lat="42.9940603117733" lon="11.48336730448071"><ele>310.0</ele><time>2026-04-11T15:22:15Z</time></trkpt><trkpt lat="42.99411035004599" lon="11.483491946527552"><ele>310.0</ele><time>2026-04-11T15:22:17Z</time></trkpt><trkpt lat="42.99416400504006" lon="11.48362271836626"><ele>310.0</ele><time>2026-04-11T15:22:19Z</time></trkpt><trkpt lat="42.994213307496615" lon="11.483742623464241"><ele>310.0</ele><time>2026-04-11T15:22:21Z</time></trkpt><trkpt lat="42.994289719189176" lon="11.483834247695919"><ele>308.4</ele><time>2026-04-11T15:22:23Z</time></trkpt><trkpt lat="42.99436598965473" lon="11.483951482298743"><ele>306.8</ele><time>2026-04-11T15:22:25Z</time></trkpt><trkpt lat="42.99441825883603" lon="11.48400513640569"><ele>305.2</ele><time>2026-04-11T15:22:26Z</time></trkpt><trkpt lat="42.99453279553943" lon="11.484081867110305"><ele>303.6</ele><time>2026-04-11T15:22:28Z</time></trkpt><trkpt lat="42.99463382711823" lon="11.484149834207946"><ele>302.0</ele><time>2026-04-11T15:22:30Z</time></trkpt><trkpt lat="42.99470126497223" lon="11.484172308208171"><ele>302.00000000000006</ele><time>2026-04-11T15:22:31Z</time></trkpt><trkpt lat="42.99477094657363" lon="11.484198103578771"><ele>302.0</ele><time>2026-04-11T15:22:32Z</time></trkpt><trkpt lat="42.99484254982896" lon="11.484216568614897"><ele>302.0</ele><time>2026-04-11T15:22:33Z</time></trkpt><trkpt lat="42.99490863677816" lon="11.484249064967065"><ele>302.0</ele><time>2026-04-11T15:22:34Z</time></trkpt><trkpt lat="42.994977006344534" lon="11.48428629132929"><ele>302.0</ele><time>2026-04-11T15:22:35Z</time></trkpt><trkpt lat="42.995046013935244" lon="11.484340124182456"><ele>302.00000000000006</ele><time>2026-04-11T15:22:36Z</time></trkpt><trkpt lat="42.9951089524119" lon="11.48439167496111"><ele>302.0</ele><time>2026-04-11T15:22:37Z</time></trkpt><trkpt lat="42.995158255782314" lon="11.484457109283904"><ele>303.00000000000006</ele><time>2026-04-11T15:22:38Z</time></trkpt><trkpt lat="42.99521047397272" lon="11.484510029836164"><ele>304.0</ele><time>2026-04-11T15:22:39Z</time></trkpt><trkpt lat="42.99526055452423" lon="11.484584398996164"><ele>305.0</ele><time>2026-04-11T15:22:40Z</time></trkpt><trkpt lat="42.99531537266218" lon="11.484662653161218"><ele>306.0</ele><time>2026-04-11T15:22:41Z</time></trkpt><trkpt lat="42.99536621795315" lon="11.484721901826134"><ele>307.0</ele><time>2026-04-11T15:22:42Z</time></trkpt><trkpt lat="42.99539562044401" lon="11.484799988984072"><ele>308.00000000000006</ele><time>2026-04-11T15:22:43Z</time></trkpt><trkpt lat="42.99542705151572" lon="11.484913323106756"><ele>309.0</ele><time>2026-04-11T15:22:44Z</time></trkpt><trkpt lat="42.99544097348257" lon="11.485008781988409"><ele>309.0</ele><time>2026-04-11T15:22:45Z</time></trkpt><trkpt lat="42.99543350765153" lon="11.485109564873571"><ele>309.0</ele><time>2026-04-11T15:22:46Z</time></trkpt><trkpt lat="42.995453399915604" lon="11.48527753133143"><ele>309.0</ele><time>2026-04-11T15:22:48Z</time></trkpt><trkpt lat="42.995431188180184" lon="11.485361443710437"><ele>309.0</ele><time>2026-04-11T15:22:49Z</time></trkpt><trkpt lat="42.99540114283266" lon="11.48544531099136"><ele>309.0</ele><time>2026-04-11T15:22:50Z</time></trkpt><trkpt lat="42.99531102850712" lon="11.485522122004337"><ele>309.0</ele><time>2026-04-11T15:22:52Z</time></trkpt><trkpt lat="42.99524725352111" lon="11.485522383977637"><ele>309.00000000000006</ele><time>2026-04-11T15:22:54Z</time></trkpt><trkpt lat="42.995173796611155" lon="11.48546026388067"><ele>309.0</ele><time>2026-04-11T15:22:58Z</time></trkpt><trkpt lat="42.995108566689396" lon="11.485419042807527"><ele>309.0</ele><time>2026-04-11T15:23:01Z</time></trkpt><trkpt lat="42.995047237592914" lon="11.485378600673991"><ele>309.0</ele><time>2026-04-11T15:23:04Z</time></trkpt><trkpt lat="42.994980789226034" lon="11.485362020882853"><ele>309.0</ele><time>2026-04-11T15:23:07Z</time></trkpt><trkpt lat="42.994912913668166" lon="11.485366220239221"><ele>309.00000000000006</ele><time>2026-04-11T15:23:10Z</time></trkpt><trkpt lat="42.99485076639308" lon="11.485382519351958"><ele>309.0</ele><time>2026-04-11T15:23:11.999Z</time></trkpt><trkpt lat="42.994782382526914" lon="11.485394138037487"><ele>307.8333333333333</ele><time>2026-04-11T15:23:13.999Z</time></trkpt><trkpt lat="42.994716752782914" lon="11.485423550391356"><ele>306.6666666666667</ele><time>2026-04-11T15:23:15.999Z</time></trkpt><trkpt lat="42.994640347091014" lon="11.485464091034737"><ele>305.5</ele><time>2026-04-11T15:23:17.999Z</time></trkpt><trkpt lat="42.99456145891551" lon="11.485505503260601"><ele>304.33333333333337</ele><time>2026-04-11T15:23:19.999Z</time></trkpt><trkpt lat="42.99449707701359" lon="11.485565524660004"><ele>303.1666666666667</ele><time>2026-04-11T15:23:22.999Z</time></trkpt><trkpt lat="42.994420977371696" lon="11.485582809991287"><ele>302.0</ele><time>2026-04-11T15:23:24.999Z</time></trkpt><trkpt lat="42.99436091665624" lon="11.485615558959301"><ele>302.0</ele><time>2026-04-11T15:23:26.999Z</time></trkpt><trkpt lat="42.99431002682889" lon="11.485690963580451"><ele>302.0</ele><time>2026-04-11T15:23:28.999Z</time></trkpt><trkpt lat="42.99424511858421" lon="11.485707468626089"><ele>302.0</ele><time>2026-04-11T15:23:30.999Z</time></trkpt><trkpt lat="42.994178586044654" lon="11.485747652453453"><ele>302.0</ele><time>2026-04-11T15:23:32.999Z</time></trkpt><trkpt lat="42.9941088910501" lon="11.485757336605667"><ele>302.0</ele><time>2026-04-11T15:23:34.999Z</time></trkpt><trkpt lat="42.99401063115528" lon="11.485786821868043"><ele>302.0</ele><time>2026-04-11T15:23:37.999Z</time></trkpt><trkpt lat="42.993938452892" lon="11.485735660363757"><ele>302.6</ele><time>2026-04-11T15:23:40Z</time></trkpt><trkpt lat="42.993848720496146" lon="11.485735065808479"><ele>303.2</ele><time>2026-04-11T15:23:42Z</time></trkpt><trkpt lat="42.993768346425405" lon="11.48573453325893"><ele>303.8</ele><time>2026-04-11T15:23:44Z</time></trkpt><trkpt lat="42.99366424856984" lon="11.485751183457081"><ele>304.4</ele><time>2026-04-11T15:23:46Z</time></trkpt><trkpt lat="42.99356446546076" lon="11.48574552538052"><ele>305.0</ele><time>2026-04-11T15:23:48Z</time></trkpt><trkpt lat="42.9934608215127" lon="11.48574428693966"><ele>305.0</ele><time>2026-04-11T15:23:50Z</time></trkpt><trkpt lat="42.993353914859675" lon="11.485746188169125"><ele>305.0</ele><time>2026-04-11T15:23:52Z</time></trkpt><trkpt lat="42.993261596770665" lon="11.4857508000294"><ele>305.0</ele><time>2026-04-11T15:23:54Z</time></trkpt><trkpt lat="42.99316597357921" lon="11.485753634137934"><ele>305.0</ele><time>2026-04-11T15:23:56Z</time></trkpt><trkpt lat="42.99306827201852" lon="11.485779696919852"><ele>305.0</ele><time>2026-04-11T15:23:58Z</time></trkpt><trkpt lat="42.992959876112046" lon="11.485800940225"><ele>304.42857142857144</ele><time>2026-04-11T15:24:00Z</time></trkpt><trkpt lat="42.99285372363922" lon="11.485880426148102"><ele>303.85714285714283</ele><time>2026-04-11T15:24:02Z</time></trkpt><trkpt lat="42.992800831678785" lon="11.485931613549731"><ele>303.2857142857143</ele><time>2026-04-11T15:24:03Z</time></trkpt><trkpt lat="42.99275235098614" lon="11.485994846788092"><ele>302.7142857142857</ele><time>2026-04-11T15:24:04Z</time></trkpt><trkpt lat="42.99270585813483" lon="11.486054980446374"><ele>302.1428571428571</ele><time>2026-04-11T15:24:05Z</time></trkpt><trkpt lat="42.99265968708875" lon="11.486122920373724"><ele>301.57142857142856</ele><time>2026-04-11T15:24:06Z</time></trkpt><trkpt lat="42.99261640911208" lon="11.486186000898318"><ele>301.0</ele><time>2026-04-11T15:24:07Z</time></trkpt><trkpt lat="42.99257094004979" lon="11.48625227496666"><ele>299.40000000000003</ele><time>2026-04-11T15:24:08Z</time></trkpt><trkpt lat="42.99248592450904" lon="11.486376226189357"><ele>297.8</ele><time>2026-04-11T15:24:10Z</time></trkpt><trkpt lat="42.99244294476573" lon="11.48644100642844"><ele>296.20000000000005</ele><time>2026-04-11T15:24:11Z</time></trkpt><trkpt lat="42.99236730849612" lon="11.486555007047462"><ele>294.6</ele><time>2026-04-11T15:24:13Z</time></trkpt><trkpt lat="42.99230046653651" lon="11.486691657235061"><ele>293.0</ele><time>2026-04-11T15:24:15Z</time></trkpt><trkpt lat="42.99221264217621" lon="11.486795738951487"><ele>293.0</ele><time>2026-04-11T15:24:17Z</time></trkpt><trkpt lat="42.99215825481242" lon="11.486928784047771"><ele>293.0</ele><time>2026-04-11T15:24:19Z</time></trkpt><trkpt lat="42.99211280597472" lon="11.487052143124531"><ele>293.0</ele><time>2026-04-11T15:24:21Z</time></trkpt><trkpt lat="42.99209782820935" lon="11.48717822715774"><ele>293.0</ele><time>2026-04-11T15:24:23Z</time></trkpt><trkpt lat="42.992079081428855" lon="11.487291913089086"><ele>293.0</ele><time>2026-04-11T15:24:25Z</time></trkpt><trkpt lat="42.99206723070111" lon="11.487386536339008"><ele>294.57142857142856</ele><time>2026-04-11T15:24:27Z</time></trkpt><trkpt lat="42.99207265895966" lon="11.487473826773966"><ele>296.1428571428571</ele><time>2026-04-11T15:24:29Z</time></trkpt><trkpt lat="42.99204539951254" lon="11.487553450531989"><ele>297.71428571428567</ele><time>2026-04-11T15:24:31Z</time></trkpt><trkpt lat="42.992029446953495" lon="11.487656449456816"><ele>299.2857142857143</ele><time>2026-04-11T15:24:34Z</time></trkpt><trkpt lat="42.992012595778895" lon="11.48776525026331"><ele>300.8571428571429</ele><time>2026-04-11T15:24:37Z</time></trkpt><trkpt lat="42.99199809892246" lon="11.487868234091437"><ele>302.4285714285714</ele><time>2026-04-11T15:24:40Z</time></trkpt><trkpt lat="42.99199076900678" lon="11.487970584752263"><ele>304.0</ele><time>2026-04-11T15:24:43Z</time></trkpt><trkpt lat="42.99197532720813" lon="11.488082826035468"><ele>304.8333333333333</ele><time>2026-04-11T15:24:46Z</time></trkpt><trkpt lat="42.991966872798066" lon="11.488199569377658"><ele>305.66666666666663</ele><time>2026-04-11T15:24:49Z</time></trkpt><trkpt lat="42.99195561676557" lon="11.488295815208213"><ele>306.5</ele><time>2026-04-11T15:24:51Z</time></trkpt><trkpt lat="42.991942482790016" lon="11.488391091606795"><ele>307.3333333333333</ele><time>2026-04-11T15:24:53Z</time></trkpt><trkpt lat="42.99193074247977" lon="11.4885043521568"><ele>308.1666666666667</ele><time>2026-04-11T15:24:55Z</time></trkpt><trkpt lat="42.9919126756608" lon="11.488610080994283"><ele>309.0</ele><time>2026-04-11T15:24:57Z</time></trkpt><trkpt lat="42.99190422060042" lon="11.488723506806004"><ele>309.4</ele><time>2026-04-11T15:24:59Z</time></trkpt><trkpt lat="42.99190728531307" lon="11.488847926774316"><ele>309.79999999999995</ele><time>2026-04-11T15:25:01Z</time></trkpt><trkpt lat="42.9919006058195" lon="11.488988286206416"><ele>310.20000000000005</ele><time>2026-04-11T15:25:03Z</time></trkpt><trkpt lat="42.99186729769827" lon="11.489131660040345"><ele>310.6</ele><time>2026-04-11T15:25:05Z</time></trkpt><trkpt lat="42.99184409709898" lon="11.48928421914761"><ele>311.0</ele><time>2026-04-11T15:25:07Z</time></trkpt><trkpt lat="42.9918215216059" lon="11.489422173040493"><ele>311.0</ele><time>2026-04-11T15:25:09Z</time></trkpt><trkpt lat="42.991814165756146" lon="11.489565597464615"><ele>311.0</ele><time>2026-04-11T15:25:11Z</time></trkpt><trkpt lat="42.99177358919027" lon="11.489703460197626"><ele>311.0</ele><time>2026-04-11T15:25:13Z</time></trkpt><trkpt lat="42.9917487234708" lon="11.489844257237852"><ele>311.0</ele><time>2026-04-11T15:25:14.999Z</time></trkpt><trkpt lat="42.991723622670044" lon="11.489986572677486"><ele>311.0</ele><time>2026-04-11T15:25:16.999Z</time></trkpt><trkpt lat="42.99169924772014" lon="11.49013143635596"><ele>311.1666666666667</ele><time>2026-04-11T15:25:18.999Z</time></trkpt><trkpt lat="42.991675725649756" lon="11.490271231265636"><ele>311.33333333333337</ele><time>2026-04-11T15:25:20.999Z</time></trkpt><trkpt lat="42.99165658358411" lon="11.49042399099607"><ele>311.5</ele><time>2026-04-11T15:25:22.999Z</time></trkpt><trkpt lat="42.991635862235945" lon="11.490508144793871"><ele>311.6666666666667</ele><time>2026-04-11T15:25:23.999Z</time></trkpt><trkpt lat="42.9916357461258" lon="11.490597506127942"><ele>311.8333333333333</ele><time>2026-04-11T15:25:24.999Z</time></trkpt><trkpt lat="42.991615030330294" lon="11.490684164019134"><ele>312.0</ele><time>2026-04-11T15:25:25.999Z</time></trkpt><trkpt lat="42.99160152500928" lon="11.490774146672557"><ele>309.0</ele><time>2026-04-11T15:25:26.999Z</time></trkpt><trkpt lat="42.991585708005076" lon="11.490861776115187"><ele>306.0</ele><time>2026-04-11T15:25:27.999Z</time></trkpt><trkpt lat="42.991569119044605" lon="11.49096006088383"><ele>303.0</ele><time>2026-04-11T15:25:28.999Z</time></trkpt><trkpt lat="42.99155396650991" lon="11.491055486383459"><ele>300.0</ele><time>2026-04-11T15:25:29.999Z</time></trkpt><trkpt lat="42.991537289405635" lon="11.491160436339321"><ele>297.0</ele><time>2026-04-11T15:25:30.999Z</time></trkpt><trkpt lat="42.99151606735204" lon="11.491266567439617"><ele>294.0</ele><time>2026-04-11T15:25:31.999Z</time></trkpt><trkpt lat="42.99149360096104" lon="11.491374793674"><ele>293.8333333333333</ele><time>2026-04-11T15:25:32.999Z</time></trkpt><trkpt lat="42.99147272918979" lon="11.491486475225928"><ele>293.6666666666667</ele><time>2026-04-11T15:25:33.999Z</time></trkpt><trkpt lat="42.99145321837511" lon="11.491595950206262"><ele>293.5</ele><time>2026-04-11T15:25:34.999Z</time></trkpt><trkpt lat="42.99142859244257" lon="11.491709104098412"><ele>293.33333333333337</ele><time>2026-04-11T15:25:35.999Z</time></trkpt><trkpt lat="42.99140911188636" lon="11.491811156173"><ele>293.1666666666667</ele><time>2026-04-11T15:25:36.999Z</time></trkpt><trkpt lat="42.99139196825356" lon="11.491939822696272"><ele>293.0</ele><time>2026-04-11T15:25:37.999Z</time></trkpt><trkpt lat="42.99137251812282" lon="11.492065673114748"><ele>293.0</ele><time>2026-04-11T15:25:38.999Z</time></trkpt><trkpt lat="42.991355766188995" lon="11.492186647206442"><ele>293.0</ele><time>2026-04-11T15:25:39.999Z</time></trkpt><trkpt lat="42.99133836906414" lon="11.492296304767962"><ele>293.0</ele><time>2026-04-11T15:25:40.999Z</time></trkpt><trkpt lat="42.991318238517295" lon="11.492407656559484"><ele>293.0</ele><time>2026-04-11T15:25:41.999Z</time></trkpt><trkpt lat="42.991301910651174" lon="11.492511254355426"><ele>293.0</ele><time>2026-04-11T15:25:42.999Z</time></trkpt><trkpt lat="42.99127832402485" lon="11.492605748773189"><ele>293.0</ele><time>2026-04-11T15:25:43.999Z</time></trkpt><trkpt lat="42.991261800365905" lon="11.492707417442807"><ele>293.0</ele><time>2026-04-11T15:25:44.999Z</time></trkpt><trkpt lat="42.991227577193946" lon="11.49287284299845"><ele>293.0</ele><time>2026-04-11T15:25:47Z</time></trkpt><trkpt lat="42.991207275469485" lon="11.492969263866588"><ele>293.0</ele><time>2026-04-11T15:25:48Z</time></trkpt><trkpt lat="42.99119046900035" lon="11.493062924248864"><ele>293.0</ele><time>2026-04-11T15:25:49Z</time></trkpt><trkpt lat="42.99117307874876" lon="11.493161187037257"><ele>293.0</ele><time>2026-04-11T15:25:50Z</time></trkpt><trkpt lat="42.991153212609206" lon="11.493261874188587"><ele>293.0</ele><time>2026-04-11T15:25:51Z</time></trkpt><trkpt lat="42.99113032695042" lon="11.493365766033214"><ele>292.8</ele><time>2026-04-11T15:25:52Z</time></trkpt><trkpt lat="42.99110608820513" lon="11.493478117796569"><ele>292.6</ele><time>2026-04-11T15:25:53Z</time></trkpt><trkpt lat="42.99108400537666" lon="11.493594175227575"><ele>292.4</ele><time>2026-04-11T15:25:54Z</time></trkpt><trkpt lat="42.99105831689838" lon="11.49370220034298"><ele>292.2</ele><time>2026-04-11T15:25:55Z</time></trkpt><trkpt lat="42.991033997703596" lon="11.493826479060234"><ele>292.0</ele><time>2026-04-11T15:25:56Z</time></trkpt><trkpt lat="42.99100220956493" lon="11.493964706351438"><ele>292.4</ele><time>2026-04-11T15:25:57Z</time></trkpt><trkpt lat="42.990972997814836" lon="11.494101441027318"><ele>292.79999999999995</ele><time>2026-04-11T15:25:58Z</time></trkpt><trkpt lat="42.99094622191207" lon="11.494229223915921"><ele>293.2</ele><time>2026-04-11T15:25:59Z</time></trkpt><trkpt lat="42.990919702993494" lon="11.494363357947156"><ele>293.59999999999997</ele><time>2026-04-11T15:26:00Z</time></trkpt><trkpt lat="42.99089058996223" lon="11.4945037065617"><ele>294.0</ele><time>2026-04-11T15:26:01Z</time></trkpt><trkpt lat="42.990857161504984" lon="11.494650654899171"><ele>291.0</ele><time>2026-04-11T15:26:02Z</time></trkpt><trkpt lat="42.99082312642413" lon="11.494804330983298"><ele>288.0</ele><time>2026-04-11T15:26:03Z</time></trkpt><trkpt lat="42.99078528374879" lon="11.494944774557327"><ele>285.0</ele><time>2026-04-11T15:26:04Z</time></trkpt><trkpt lat="42.99074958997477" lon="11.495072330600058"><ele>282.0</ele><time>2026-04-11T15:26:05Z</time></trkpt><trkpt lat="42.990719974625755" lon="11.495191403928924"><ele>279.0</ele><time>2026-04-11T15:26:06Z</time></trkpt><trkpt lat="42.990699291318" lon="11.495313720210182"><ele>279.6666666666667</ele><time>2026-04-11T15:26:07Z</time></trkpt><trkpt lat="42.99066966237298" lon="11.495421083750424"><ele>280.3333333333333</ele><time>2026-04-11T15:26:08Z</time></trkpt><trkpt lat="42.99064060339553" lon="11.495532530661402"><ele>281.0</ele><time>2026-04-11T15:26:09Z</time></trkpt><trkpt lat="42.99061155549849" lon="11.495649213481679"><ele>281.66666666666663</ele><time>2026-04-11T15:26:10Z</time></trkpt><trkpt lat="42.99058208182572" lon="11.495748029760975"><ele>282.3333333333333</ele><time>2026-04-11T15:26:11Z</time></trkpt><trkpt lat="42.99055325225612" lon="11.495837345500542"><ele>283.0</ele><time>2026-04-11T15:26:12Z</time></trkpt><trkpt lat="42.990525312454004" lon="11.495916390834653"><ele>283.0</ele><time>2026-04-11T15:26:13Z</time></trkpt><trkpt lat="42.99049763987709" lon="11.495998289393835"><ele>283.0</ele><time>2026-04-11T15:26:14Z</time></trkpt><trkpt lat="42.99045172084038" lon="11.496144691047775"><ele>283.0</ele><time>2026-04-11T15:26:16Z</time></trkpt><trkpt lat="42.99040308660453" lon="11.496294869328677"><ele>283.0</ele><time>2026-04-11T15:26:18Z</time></trkpt><trkpt lat="42.990359302403704" lon="11.496429937794515"><ele>283.0</ele><time>2026-04-11T15:26:20Z</time></trkpt><trkpt lat="42.99031903038151" lon="11.49656377827156"><ele>284.5</ele><time>2026-04-11T15:26:22Z</time></trkpt><trkpt lat="42.990283408799876" lon="11.496674639631422"><ele>286.0</ele><time>2026-04-11T15:26:24Z</time></trkpt><trkpt lat="42.99025187837046" lon="11.49677633407551"><ele>287.5</ele><time>2026-04-11T15:26:26Z</time></trkpt><trkpt lat="42.990223090441376" lon="11.496875269508104"><ele>289.0</ele><time>2026-04-11T15:26:28Z</time></trkpt><trkpt lat="42.99019232444292" lon="11.496957575034141"><ele>290.5</ele><time>2026-04-11T15:26:30Z</time></trkpt><trkpt lat="42.99015921021957" lon="11.497075648490382"><ele>292.0</ele><time>2026-04-11T15:26:33Z</time></trkpt><trkpt lat="42.99013230937039" lon="11.49715450000499"><ele>293.0</ele><time>2026-04-11T15:26:35Z</time></trkpt><trkpt lat="42.99011649010281" lon="11.497256503753347"><ele>294.0</ele><time>2026-04-11T15:27:53Z</time></trkpt><trkpt lat="42.990103200774804" lon="11.497350616646555"><ele>295.0</ele><time>2026-04-11T15:28:00Z</time></trkpt><trkpt lat="42.99009324934271" lon="11.49744370245418"><ele>296.0</ele><time>2026-04-11T15:28:05Z</time></trkpt><trkpt lat="42.99009128984852" lon="11.497549828028706"><ele>297.0</ele><time>2026-04-11T15:28:09Z</time></trkpt><trkpt lat="42.99006565518661" lon="11.497659147362713"><ele>298.0</ele><time>2026-04-11T15:28:13Z</time></trkpt><trkpt lat="42.9900578851497" lon="11.497761303371"><ele>298.0</ele><time>2026-04-11T15:28:16Z</time></trkpt><trkpt lat="42.99006205214914" lon="11.497870127082107"><ele>298.0</ele><time>2026-04-11T15:28:19Z</time></trkpt><trkpt lat="42.990064885313366" lon="11.497969620374878"><ele>298.0</ele><time>2026-04-11T15:28:21Z</time></trkpt><trkpt lat="42.99004174898478" lon="11.49807201263165"><ele>298.0</ele><time>2026-04-11T15:28:23Z</time></trkpt><trkpt lat="42.9900320870269" lon="11.49820373113572"><ele>298.0</ele><time>2026-04-11T15:28:25Z</time></trkpt><trkpt lat="42.990022136146024" lon="11.498322491655161"><ele>298.0</ele><time>2026-04-11T15:28:27Z</time></trkpt><trkpt lat="42.99003170389855" lon="11.49844928581475"><ele>297.6</ele><time>2026-04-11T15:28:29Z</time></trkpt><trkpt lat="42.99006916697815" lon="11.498582633376417"><ele>297.20000000000005</ele><time>2026-04-11T15:28:31Z</time></trkpt><trkpt lat="42.99005942886798" lon="11.498671580375127"><ele>296.8</ele><time>2026-04-11T15:28:32Z</time></trkpt><trkpt lat="42.990136121917175" lon="11.498805639477101"><ele>296.40000000000003</ele><time>2026-04-11T15:28:34Z</time></trkpt><trkpt lat="42.990221657457845" lon="11.498931177999417"><ele>296.0</ele><time>2026-04-11T15:28:36Z</time></trkpt><trkpt lat="42.99026672531728" lon="11.498996190259486"><ele>294.7142857142857</ele><time>2026-04-11T15:28:37Z</time></trkpt><trkpt lat="42.99031085812255" lon="11.499059889656666"><ele>293.42857142857144</ele><time>2026-04-11T15:28:38Z</time></trkpt><trkpt lat="42.99035628128747" lon="11.499126193733693"><ele>292.1428571428571</ele><time>2026-04-11T15:28:39Z</time></trkpt><trkpt lat="42.99040340859835" lon="11.49919498534666"><ele>290.8571428571429</ele><time>2026-04-11T15:28:40Z</time></trkpt><trkpt lat="42.99045032289448" lon="11.499263465967575"><ele>289.57142857142856</ele><time>2026-04-11T15:28:41Z</time></trkpt><trkpt lat="42.99050614903539" lon="11.49934495514018"><ele>288.2857142857143</ele><time>2026-04-11T15:28:42Z</time></trkpt><trkpt lat="42.99055665448255" lon="11.499418677844037"><ele>287.0</ele><time>2026-04-11T15:28:43Z</time></trkpt><trkpt lat="42.99061091268544" lon="11.499501964255723"><ele>286.6</ele><time>2026-04-11T15:28:44Z</time></trkpt><trkpt lat="42.99068009899968" lon="11.499597142621267"><ele>286.2</ele><time>2026-04-11T15:28:45Z</time></trkpt><trkpt lat="42.99073961054296" lon="11.499688383393623"><ele>285.8</ele><time>2026-04-11T15:28:46Z</time></trkpt><trkpt lat="42.99080849703938" lon="11.49978348713822"><ele>285.4</ele><time>2026-04-11T15:28:47Z</time></trkpt><trkpt lat="42.990876065749035" lon="11.499871286052741"><ele>285.0</ele><time>2026-04-11T15:28:48Z</time></trkpt><trkpt lat="42.990932045242204" lon="11.499961099509733"><ele>285.0</ele><time>2026-04-11T15:28:49Z</time></trkpt><trkpt lat="42.990990945307004" lon="11.500041322300538"><ele>285.0</ele><time>2026-04-11T15:28:50Z</time></trkpt><trkpt lat="42.991038270786234" lon="11.500145366951145"><ele>285.0</ele><time>2026-04-11T15:28:51Z</time></trkpt><trkpt lat="42.991106757544124" lon="11.500235793845647"><ele>285.0</ele><time>2026-04-11T15:28:52Z</time></trkpt><trkpt lat="42.991171654175304" lon="11.500321352214534"><ele>285.0</ele><time>2026-04-11T15:28:53Z</time></trkpt><trkpt lat="42.991219575485054" lon="11.500417497153022"><ele>285.0</ele><time>2026-04-11T15:28:54Z</time></trkpt><trkpt lat="42.99127049092785" lon="11.500492392172758"><ele>282.8333333333333</ele><time>2026-04-11T15:28:55Z</time></trkpt><trkpt lat="42.9913190941982" lon="11.500564948858234"><ele>280.6666666666667</ele><time>2026-04-11T15:28:56Z</time></trkpt><trkpt lat="42.991364287915665" lon="11.500629754982691"><ele>278.5</ele><time>2026-04-11T15:28:57Z</time></trkpt><trkpt lat="42.99141709202628" lon="11.500695308723841"><ele>276.33333333333337</ele><time>2026-04-11T15:28:58Z</time></trkpt><trkpt lat="42.99152440627728" lon="11.50077113553336"><ele>274.1666666666667</ele><time>2026-04-11T15:29:00Z</time></trkpt><trkpt lat="42.9915928537806" lon="11.500823960998936"><ele>272.0</ele><time>2026-04-11T15:29:01Z</time></trkpt><trkpt lat="42.99165478819518" lon="11.500883320143211"><ele>274.33333333333337</ele><time>2026-04-11T15:29:02Z</time></trkpt><trkpt lat="42.99171797659248" lon="11.500924295816686"><ele>276.6666666666667</ele><time>2026-04-11T15:29:03Z</time></trkpt><trkpt lat="42.99178507471279" lon="11.5009647948769"><ele>279.0</ele><time>2026-04-11T15:29:04Z</time></trkpt><trkpt lat="42.991847050030806" lon="11.501002201856137"><ele>281.3333333333333</ele><time>2026-04-11T15:29:05Z</time></trkpt><trkpt lat="42.99195263958658" lon="11.501073440198608"><ele>283.66666666666663</ele><time>2026-04-11T15:29:06.999Z</time></trkpt><trkpt lat="42.99203070816874" lon="11.501174600049534"><ele>286.0</ele><time>2026-04-11T15:29:08.999Z</time></trkpt><trkpt lat="42.99206985025964" lon="11.501301197964443"><ele>286.40000000000003</ele><time>2026-04-11T15:29:10.999Z</time></trkpt><trkpt lat="42.992061572926985" lon="11.501445502497567"><ele>286.8</ele><time>2026-04-11T15:29:12.999Z</time></trkpt><trkpt lat="42.992011024304276" lon="11.501564922486287"><ele>287.20000000000005</ele><time>2026-04-11T15:29:14.999Z</time></trkpt><trkpt lat="42.991967226268216" lon="11.50170056806983"><ele>287.6</ele><time>2026-04-11T15:29:16.999Z</time></trkpt><trkpt lat="42.99191924719482" lon="11.501840341907641"><ele>288.0</ele><time>2026-04-11T15:29:18.999Z</time></trkpt><trkpt lat="42.99186990402911" lon="11.501984089729694"><ele>290.8</ele><time>2026-04-11T15:29:20.999Z</time></trkpt><trkpt lat="42.99182013197101" lon="11.502129086562027"><ele>293.6</ele><time>2026-04-11T15:29:22.999Z</time></trkpt><trkpt lat="42.99179150996833" lon="11.502212462200506"><ele>296.4</ele><time>2026-04-11T15:29:23.999Z</time></trkpt><trkpt lat="42.99177899169697" lon="11.502299062346596"><ele>299.2</ele><time>2026-04-11T15:29:24.999Z</time></trkpt><trkpt lat="42.99171468275657" lon="11.502435972784957"><ele>302.0</ele><time>2026-04-11T15:29:26.999Z</time></trkpt><trkpt lat="42.99166499925221" lon="11.50259714486785"><ele>298.5</ele><time>2026-04-11T15:29:28.999Z</time></trkpt><trkpt lat="42.99162523872793" lon="11.502743071399909"><ele>295.0</ele><time>2026-04-11T15:29:30.999Z</time></trkpt><trkpt lat="42.99158736869438" lon="11.502830241185324"><ele>291.5</ele><time>2026-04-11T15:29:31.999Z</time></trkpt><trkpt lat="42.991565082396505" lon="11.502913133554378"><ele>288.0</ele><time>2026-04-11T15:29:32.999Z</time></trkpt><trkpt lat="42.991510765593" lon="11.503049923518397"><ele>284.5</ele><time>2026-04-11T15:29:34.999Z</time></trkpt><trkpt lat="42.991488487866796" lon="11.503145330886571"><ele>281.0</ele><time>2026-04-11T15:29:35.999Z</time></trkpt><trkpt lat="42.991452638086166" lon="11.50322895124252"><ele>281.00000000000006</ele><time>2026-04-11T15:29:36.999Z</time></trkpt><trkpt lat="42.99142516475828" lon="11.503309967568422"><ele>281.0</ele><time>2026-04-11T15:29:37.999Z</time></trkpt><trkpt lat="42.99139567628982" lon="11.503389855654357"><ele>281.0</ele><time>2026-04-11T15:29:38.999Z</time></trkpt><trkpt lat="42.99136195709282" lon="11.503470270829018"><ele>281.0</ele><time>2026-04-11T15:29:39.999Z</time></trkpt><trkpt lat="42.99132859006865" lon="11.503550908093002"><ele>281.0</ele><time>2026-04-11T15:29:40.999Z</time></trkpt><trkpt lat="42.991289129699844" lon="11.50362629422668"><ele>281.00000000000006</ele><time>2026-04-11T15:29:41.999Z</time></trkpt><trkpt lat="42.991238477947654" lon="11.503701278306357"><ele>281.0</ele><time>2026-04-11T15:29:42.999Z</time></trkpt><trkpt lat="42.99119879919036" lon="11.503776837780675"><ele>283.0</ele><time>2026-04-11T15:29:43.999Z</time></trkpt><trkpt lat="42.991155835832714" lon="11.503853243635783"><ele>285.0</ele><time>2026-04-11T15:29:44.999Z</time></trkpt><trkpt lat="42.99111722355851" lon="11.503937662012904"><ele>287.0</ele><time>2026-04-11T15:29:45.999Z</time></trkpt><trkpt lat="42.991074582646675" lon="11.504028351967253"><ele>289.0</ele><time>2026-04-11T15:29:46.999Z</time></trkpt><trkpt lat="42.9910350072323" lon="11.504131397161832"><ele>291.0</ele><time>2026-04-11T15:29:47.999Z</time></trkpt><trkpt lat="42.99098903634325" lon="11.504222566113691"><ele>293.0</ele><time>2026-04-11T15:29:48.999Z</time></trkpt><trkpt lat="42.99095068871143" lon="11.50432849300968"><ele>293.0</ele><time>2026-04-11T15:29:49.999Z</time></trkpt><trkpt lat="42.99090834659142" lon="11.50443664741137"><ele>293.0</ele><time>2026-04-11T15:29:50.999Z</time></trkpt><trkpt lat="42.990874488560856" lon="11.504542911908088"><ele>293.0</ele><time>2026-04-11T15:29:51.999Z</time></trkpt><trkpt lat="42.99082626977899" lon="11.50463266514217"><ele>293.0</ele><time>2026-04-11T15:29:52.999Z</time></trkpt><trkpt lat="42.99078696480277" lon="11.504737909944742"><ele>293.0</ele><time>2026-04-11T15:29:53.999Z</time></trkpt><trkpt lat="42.990748428413" lon="11.504840798333472"><ele>293.0</ele><time>2026-04-11T15:29:54.999Z</time></trkpt><trkpt lat="42.99071286003744" lon="11.504935067892845"><ele>291.5</ele><time>2026-04-11T15:29:55.999Z</time></trkpt><trkpt lat="42.990671757975946" lon="11.505040256908822"><ele>290.0</ele><time>2026-04-11T15:29:56.999Z</time></trkpt><trkpt lat="42.99063762380305" lon="11.505127613313164"><ele>288.5</ele><time>2026-04-11T15:29:58Z</time></trkpt><trkpt lat="42.990600913612" lon="11.505221562555992"><ele>287.0</ele><time>2026-04-11T15:29:59Z</time></trkpt><trkpt lat="42.990567713227385" lon="11.505305239226756"><ele>285.5</ele><time>2026-04-11T15:30:00Z</time></trkpt><trkpt lat="42.99051924868596" lon="11.505464664103428"><ele>284.0</ele><time>2026-04-11T15:30:02Z</time></trkpt><trkpt lat="42.990452640603166" lon="11.505584436370043"><ele>284.0</ele><time>2026-04-11T15:30:04Z</time></trkpt><trkpt lat="42.99039974797076" lon="11.505691438997694"><ele>284.0</ele><time>2026-04-11T15:30:06Z</time></trkpt><trkpt lat="42.99032754077976" lon="11.505809373249305"><ele>284.0</ele><time>2026-04-11T15:30:08Z</time></trkpt><trkpt lat="42.990286914499016" lon="11.505896842998803"><ele>284.0</ele><time>2026-04-11T15:30:10Z</time></trkpt><trkpt lat="42.99023511596691" lon="11.505975676085871"><ele>284.0</ele><time>2026-04-11T15:30:12Z</time></trkpt><trkpt lat="42.99018879983571" lon="11.506065012091423"><ele>284.0</ele><time>2026-04-11T15:30:14Z</time></trkpt><trkpt lat="42.99014097819347" lon="11.506178592681767"><ele>285.4</ele><time>2026-04-11T15:30:16Z</time></trkpt><trkpt lat="42.99010924452914" lon="11.506319648845992"><ele>286.79999999999995</ele><time>2026-04-11T15:30:18Z</time></trkpt><trkpt lat="42.99010291726591" lon="11.506464468367609"><ele>288.20000000000005</ele><time>2026-04-11T15:30:20Z</time></trkpt><trkpt lat="42.990109363484144" lon="11.506620040090773"><ele>289.6</ele><time>2026-04-11T15:30:22Z</time></trkpt><trkpt lat="42.990087873819704" lon="11.50678188929282"><ele>291.0</ele><time>2026-04-11T15:30:24Z</time></trkpt><trkpt lat="42.99008342554662" lon="11.506931240856712"><ele>291.0</ele><time>2026-04-11T15:30:26Z</time></trkpt><trkpt lat="42.99005474149734" lon="11.507055414784038"><ele>291.0</ele><time>2026-04-11T15:30:28Z</time></trkpt><trkpt lat="42.98998812587946" lon="11.507118450808699"><ele>291.0</ele><time>2026-04-11T15:30:30Z</time></trkpt><trkpt lat="42.98991861043372" lon="11.507205079871635"><ele>291.0</ele><time>2026-04-11T15:30:33Z</time></trkpt><trkpt lat="42.98985666532261" lon="11.50728729224093"><ele>291.0</ele><time>2026-04-11T15:30:36Z</time></trkpt><trkpt lat="42.98979045787914" lon="11.50732241312563"><ele>291.0</ele><time>2026-04-11T15:30:38Z</time></trkpt><trkpt lat="42.98972857019785" lon="11.507405809510761"><ele>289.5</ele><time>2026-04-11T15:30:41Z</time></trkpt><trkpt lat="42.98967539089187" lon="11.507510760048877"><ele>288.0</ele><time>2026-04-11T15:30:44Z</time></trkpt><trkpt lat="42.989648915215014" lon="11.507604558846523"><ele>286.5</ele><time>2026-04-11T15:30:46Z</time></trkpt><trkpt lat="42.98960770388507" lon="11.50772117542684"><ele>285.0</ele><time>2026-04-11T15:30:49Z</time></trkpt><trkpt lat="42.98956872900568" lon="11.507794348470336"><ele>283.5</ele><time>2026-04-11T15:30:51Z</time></trkpt><trkpt lat="42.98956038396153" lon="11.507881581883613"><ele>282.0</ele><time>2026-04-11T15:30:53Z</time></trkpt><trkpt lat="42.98952995293097" lon="11.507960229289482"><ele>282.0</ele><time>2026-04-11T15:30:55Z</time></trkpt><trkpt lat="42.989513552789816" lon="11.508054680867403"><ele>282.0</ele><time>2026-04-11T15:30:57Z</time></trkpt><trkpt lat="42.9895159593571" lon="11.508155322386127"><ele>282.0</ele><time>2026-04-11T15:30:59Z</time></trkpt><trkpt lat="42.98949978758763" lon="11.508255707317593"><ele>282.0</ele><time>2026-04-11T15:31:01Z</time></trkpt><trkpt lat="42.9894935315735" lon="11.50835899600187"><ele>282.0</ele><time>2026-04-11T15:31:03Z</time></trkpt><trkpt lat="42.989478964623395" lon="11.508455877958708"><ele>282.0</ele><time>2026-04-11T15:31:05Z</time></trkpt><trkpt lat="42.98947833743925" lon="11.508559795522052"><ele>282.0</ele><time>2026-04-11T15:31:07Z</time></trkpt><trkpt lat="42.98946047932114" lon="11.50866530004876"><ele>284.1666666666667</ele><time>2026-04-11T15:31:09Z</time></trkpt><trkpt lat="42.98945150622354" lon="11.508775629548452"><ele>286.3333333333333</ele><time>2026-04-11T15:31:11Z</time></trkpt><trkpt lat="42.98944036339225" lon="11.508874788348942"><ele>288.5</ele><time>2026-04-11T15:31:13Z</time></trkpt><trkpt lat="42.98943344094715" lon="11.508967177366525"><ele>290.66666666666663</ele><time>2026-04-11T15:31:15Z</time></trkpt><trkpt lat="42.989426388576135" lon="11.509086689302846"><ele>292.8333333333333</ele><time>2026-04-11T15:31:18Z</time></trkpt><trkpt lat="42.98942011726472" lon="11.509187545640684"><ele>295.0</ele><time>2026-04-11T15:31:21Z</time></trkpt><trkpt lat="42.98940979373346" lon="11.509280640888457"><ele>295.0</ele><time>2026-04-11T15:31:23.999Z</time></trkpt><trkpt lat="42.98939447123145" lon="11.509389549839007"><ele>295.0</ele><time>2026-04-11T15:31:27.999Z</time></trkpt><trkpt lat="42.989388208039664" lon="11.509488422740585"><ele>295.0</ele><time>2026-04-11T15:31:31.999Z</time></trkpt><trkpt lat="42.98936735840662" lon="11.509592134921261"><ele>295.0</ele><time>2026-04-11T15:31:35.999Z</time></trkpt><trkpt lat="42.989370781293346" lon="11.50969899673854"><ele>295.0</ele><time>2026-04-11T15:31:39.999Z</time></trkpt><trkpt lat="42.98936612358939" lon="11.50980196989422"><ele>295.0</ele><time>2026-04-11T15:31:43.999Z</time></trkpt><trkpt lat="42.989356811626784" lon="11.509915278736964"><ele>294.8333333333333</ele><time>2026-04-11T15:31:47.999Z</time></trkpt><trkpt lat="42.98938126420541" lon="11.510019782744381"><ele>294.66666666666663</ele><time>2026-04-11T15:31:51.999Z</time></trkpt><trkpt lat="42.98939485939204" lon="11.510124071803633"><ele>294.5</ele><time>2026-04-11T15:31:55.999Z</time></trkpt><trkpt lat="42.989399721319785" lon="11.510229042185522"><ele>294.3333333333333</ele><time>2026-04-11T15:31:59.999Z</time></trkpt><trkpt lat="42.989422389077895" lon="11.510323658600917"><ele>294.1666666666667</ele><time>2026-04-11T15:32:04Z</time></trkpt><trkpt lat="42.98943816429515" lon="11.510420814739549"><ele>294.0</ele><time>2026-04-11T15:32:08Z</time></trkpt><trkpt lat="42.98945176421471" lon="11.510521921880619"><ele>294.0</ele><time>2026-04-11T15:32:12Z</time></trkpt><trkpt lat="42.98947587567241" lon="11.510623043567744"><ele>294.0</ele><time>2026-04-11T15:32:17Z</time></trkpt><trkpt lat="42.98949234022307" lon="11.510723661340466"><ele>294.0</ele><time>2026-04-11T15:32:22Z</time></trkpt><trkpt lat="42.98950484116875" lon="11.510810174226568"><ele>294.0</ele><time>2026-04-11T15:32:26Z</time></trkpt><trkpt lat="42.98951840552629" lon="11.510901301527735"><ele>294.0</ele><time>2026-04-11T15:32:30Z</time></trkpt><trkpt lat="42.9895308391855" lon="11.511002796771574"><ele>294.0</ele><time>2026-04-11T15:32:34Z</time></trkpt><trkpt lat="42.989549638416406" lon="11.511118955302631"><ele>294.0</ele><time>2026-04-11T15:32:38Z</time></trkpt><trkpt lat="42.98956696761691" lon="11.51120512678438"><ele>292.6666666666667</ele><time>2026-04-11T15:32:41Z</time></trkpt><trkpt lat="42.98959506029428" lon="11.511288406906589"><ele>291.3333333333333</ele><time>2026-04-11T15:32:44Z</time></trkpt><trkpt lat="42.989610422794335" lon="11.511398772571999"><ele>290.0</ele><time>2026-04-11T15:32:47Z</time></trkpt><trkpt lat="42.98963728000275" lon="11.511496419907946"><ele>288.66666666666663</ele><time>2026-04-11T15:32:50Z</time></trkpt><trkpt lat="42.9896798070976" lon="11.51159437385215"><ele>287.3333333333333</ele><time>2026-04-11T15:32:53Z</time></trkpt><trkpt lat="42.98973299351603" lon="11.511649055814745"><ele>286.0</ele><time>2026-04-11T15:32:55Z</time></trkpt><trkpt lat="42.989801350289845" lon="11.511706780164813"><ele>286.0</ele><time>2026-04-11T15:32:57Z</time></trkpt><trkpt lat="42.989890822544936" lon="11.511725430231484"><ele>286.0</ele><time>2026-04-11T15:32:59Z</time></trkpt><trkpt lat="42.98996159406944" lon="11.511737135173378"><ele>286.0</ele><time>2026-04-11T15:33:00Z</time></trkpt><trkpt lat="42.99007914060231" lon="11.511793024010942"><ele>286.0</ele><time>2026-04-11T15:33:02Z</time></trkpt><trkpt lat="42.990154929501216" lon="11.511812312267383"><ele>286.0</ele><time>2026-04-11T15:33:03Z</time></trkpt><trkpt lat="42.990224917613" lon="11.511820132723749"><ele>286.0</ele><time>2026-04-11T15:33:04Z</time></trkpt><trkpt lat="42.99028621930982" lon="11.511841033898223"><ele>285.99999999999994</ele><time>2026-04-11T15:33:05Z</time></trkpt><trkpt lat="42.99036154209534" lon="11.511853581433897"><ele>286.0</ele><time>2026-04-11T15:33:06Z</time></trkpt><trkpt lat="42.99044249961854" lon="11.511873413183295"><ele>286.0</ele><time>2026-04-11T15:33:07Z</time></trkpt><trkpt lat="42.99051375916554" lon="11.511914857385944"><ele>286.0</ele><time>2026-04-11T15:33:08Z</time></trkpt><trkpt lat="42.99057972713403" lon="11.511936106014605"><ele>286.0</ele><time>2026-04-11T15:33:09Z</time></trkpt><trkpt lat="42.990645897476334" lon="11.511957419838438"><ele>285.99999999999994</ele><time>2026-04-11T15:33:10Z</time></trkpt><trkpt lat="42.99071181723388" lon="11.51197865295383"><ele>286.0</ele><time>2026-04-11T15:33:11Z</time></trkpt><trkpt lat="42.99078879971729" lon="11.512002592716767"><ele>286.16666666666663</ele><time>2026-04-11T15:33:12Z</time></trkpt><trkpt lat="42.99086144590137" lon="11.512024893838037"><ele>286.3333333333333</ele><time>2026-04-11T15:33:13Z</time></trkpt><trkpt lat="42.990939317443434" lon="11.512048799033625"><ele>286.5</ele><time>2026-04-11T15:33:14Z</time></trkpt><trkpt lat="42.99101569236552" lon="11.512071302424621"><ele>286.6666666666667</ele><time>2026-04-11T15:33:15Z</time></trkpt><trkpt lat="42.99109343376792" lon="11.512072968224603"><ele>286.83333333333337</ele><time>2026-04-11T15:33:16Z</time></trkpt><trkpt lat="42.99117025147015" lon="11.51210430355019"><ele>287.0</ele><time>2026-04-11T15:33:17Z</time></trkpt><trkpt lat="42.99124194560868" lon="11.512124925041254"><ele>285.83333333333337</ele><time>2026-04-11T15:33:18Z</time></trkpt><trkpt lat="42.99132274926712" lon="11.512147881261283"><ele>284.6666666666667</ele><time>2026-04-11T15:33:19Z</time></trkpt><trkpt lat="42.99141734742412" lon="11.512179690270218"><ele>283.5</ele><time>2026-04-11T15:33:20Z</time></trkpt><trkpt lat="42.99149491043476" lon="11.512208063918324"><ele>282.3333333333333</ele><time>2026-04-11T15:33:21Z</time></trkpt><trkpt lat="42.991563475005314" lon="11.51222816714825"><ele>281.16666666666663</ele><time>2026-04-11T15:33:22Z</time></trkpt><trkpt lat="42.99164886452706" lon="11.512252767483838"><ele>280.0</ele><time>2026-04-11T15:33:23Z</time></trkpt><trkpt lat="42.99172687574968" lon="11.512283282473435"><ele>280.0</ele><time>2026-04-11T15:33:24Z</time></trkpt><trkpt lat="42.99178962299228" lon="11.512302787887627"><ele>280.0</ele><time>2026-04-11T15:33:25Z</time></trkpt><trkpt lat="42.991844027886536" lon="11.512357962605526"><ele>280.0</ele><time>2026-04-11T15:33:25.999Z</time></trkpt><trkpt lat="42.991898778796546" lon="11.512410927159332"><ele>280.0</ele><time>2026-04-11T15:33:26.999Z</time></trkpt><trkpt lat="42.991933225789225" lon="11.512496892769954"><ele>280.0</ele><time>2026-04-11T15:33:27.999Z</time></trkpt><trkpt lat="42.991962716955804" lon="11.512580893180044"><ele>280.0</ele><time>2026-04-11T15:33:28.999Z</time></trkpt><trkpt lat="42.992001774508" lon="11.512728951663009"><ele>280.0</ele><time>2026-04-11T15:33:30.999Z</time></trkpt><trkpt lat="42.99204700456243" lon="11.512858161040526"><ele>280.0</ele><time>2026-04-11T15:33:32.999Z</time></trkpt><trkpt lat="42.992091992632474" lon="11.512962603525493"><ele>280.0</ele><time>2026-04-11T15:33:34.999Z</time></trkpt><trkpt lat="42.99216970131803" lon="11.513028008118022"><ele>280.0</ele><time>2026-04-11T15:33:36.999Z</time></trkpt><trkpt lat="42.992235285229704" lon="11.513070700437043"><ele>280.0</ele><time>2026-04-11T15:33:38.999Z</time></trkpt><trkpt lat="42.992295466699694" lon="11.513098962315514"><ele>280.0</ele><time>2026-04-11T15:33:40.999Z</time></trkpt><trkpt lat="42.99237785577474" lon="11.513139521588325"><ele>279.85714285714283</ele><time>2026-04-11T15:33:43.999Z</time></trkpt><trkpt lat="42.992456099593284" lon="11.513164396744449"><ele>279.7142857142857</ele><time>2026-04-11T15:33:46.999Z</time></trkpt><trkpt lat="42.99253565591916" lon="11.513185964824425"><ele>279.57142857142856</ele><time>2026-04-11T15:33:49.999Z</time></trkpt><trkpt lat="42.99260033816668" lon="11.513215658880153"><ele>279.42857142857144</ele><time>2026-04-11T15:33:52.999Z</time></trkpt><trkpt lat="42.9926661238709" lon="11.513241936210408"><ele>279.2857142857143</ele><time>2026-04-11T15:33:55.999Z</time></trkpt><trkpt lat="42.99273796995983" lon="11.513262604734127"><ele>279.1428571428571</ele><time>2026-04-11T15:33:58.999Z</time></trkpt><trkpt lat="42.99280218629629" lon="11.513308565559026"><ele>279.0</ele><time>2026-04-11T15:34:02.999Z</time></trkpt><trkpt lat="42.99286790585009" lon="11.51333936773655"><ele>278.99999999999994</ele><time>2026-04-11T15:34:06.999Z</time></trkpt><trkpt lat="42.99293500252131" lon="11.513390171658552"><ele>279.0</ele><time>2026-04-11T15:34:11Z</time></trkpt><trkpt lat="42.992989642254045" lon="11.513444810349322"><ele>279.0</ele><time>2026-04-11T15:34:15Z</time></trkpt><trkpt lat="42.99305645255738" lon="11.513492784979213"><ele>279.0</ele><time>2026-04-11T15:34:20Z</time></trkpt><trkpt lat="42.99311533945504" lon="11.513547233779585"><ele>279.0</ele><time>2026-04-11T15:34:24Z</time></trkpt><trkpt lat="42.99317506557718" lon="11.513605965791932"><ele>278.99999999999994</ele><time>2026-04-11T15:34:28Z</time></trkpt><trkpt lat="42.99324067258402" lon="11.513654459560522"><ele>279.0</ele><time>2026-04-11T15:34:32Z</time></trkpt><trkpt lat="42.993297689338725" lon="11.513693236535293"><ele>282.57142857142856</ele><time>2026-04-11T15:34:36Z</time></trkpt><trkpt lat="42.99334737392914" lon="11.513746650097438"><ele>286.1428571428571</ele><time>2026-04-11T15:34:39Z</time></trkpt><trkpt lat="42.99340524455323" lon="11.51379313952903"><ele>289.71428571428567</ele><time>2026-04-11T15:34:43Z</time></trkpt><trkpt lat="42.99346127370194" lon="11.51383862416603"><ele>293.2857142857143</ele><time>2026-04-11T15:34:46Z</time></trkpt><trkpt lat="42.993525396285" lon="11.513901046122454"><ele>296.8571428571429</ele><time>2026-04-11T15:34:50Z</time></trkpt><trkpt lat="42.9936006955453" lon="11.513949031164323"><ele>300.4285714285714</ele><time>2026-04-11T15:34:54Z</time></trkpt><trkpt lat="42.99365861552359" lon="11.51401335272066"><ele>304.0</ele><time>2026-04-11T15:34:58Z</time></trkpt><trkpt lat="42.99373213119942" lon="11.514038999075662"><ele>304.0</ele><time>2026-04-11T15:35:02Z</time></trkpt><trkpt lat="42.99380626465259" lon="11.514068077914127"><ele>304.0</ele><time>2026-04-11T15:35:06Z</time></trkpt><trkpt lat="42.99386984163034" lon="11.514063353762253"><ele>304.0</ele><time>2026-04-11T15:35:09Z</time></trkpt><trkpt lat="42.99399524021131" lon="11.514052123464465"><ele>304.0</ele><time>2026-04-11T15:35:15Z</time></trkpt><trkpt lat="42.9940677818515" lon="11.514008839431723"><ele>304.0</ele><time>2026-04-11T15:35:19Z</time></trkpt><trkpt lat="42.994138047235595" lon="11.513972068310348"><ele>304.0</ele><time>2026-04-11T15:35:23Z</time></trkpt><trkpt lat="42.994200087269284" lon="11.513928693359377"><ele>303.2857142857143</ele><time>2026-04-11T15:35:27Z</time></trkpt><trkpt lat="42.99426890838078" lon="11.513889904033753"><ele>302.5714285714286</ele><time>2026-04-11T15:35:31Z</time></trkpt><trkpt lat="42.99433981407553" lon="11.513845021033271"><ele>301.8571428571429</ele><time>2026-04-11T15:35:35Z</time></trkpt><trkpt lat="42.994400496083806" lon="11.513814370195517"><ele>301.1428571428571</ele><time>2026-04-11T15:35:39Z</time></trkpt><trkpt lat="42.99447289068265" lon="11.513772857195969"><ele>300.42857142857144</ele><time>2026-04-11T15:35:42.999Z</time></trkpt><trkpt lat="42.994542419289836" lon="11.51373094632921"><ele>299.7142857142857</ele><time>2026-04-11T15:35:46.999Z</time></trkpt><trkpt lat="42.994609295470184" lon="11.513704365435812"><ele>299.0</ele><time>2026-04-11T15:35:50.999Z</time></trkpt><trkpt lat="42.99467833722762" lon="11.513669749806269"><ele>299.0</ele><time>2026-04-11T15:35:54.999Z</time></trkpt><trkpt lat="42.99473739321329" lon="11.513626210246715"><ele>299.0</ele><time>2026-04-11T15:35:58.999Z</time></trkpt><trkpt lat="42.99480609562908" lon="11.513576608390828"><ele>299.0</ele><time>2026-04-11T15:36:02.999Z</time></trkpt><trkpt lat="42.99487646659632" lon="11.513537408020225"><ele>299.0</ele><time>2026-04-11T15:36:06.999Z</time></trkpt><trkpt lat="42.9949421018546" lon="11.513491822345141"><ele>299.0</ele><time>2026-04-11T15:36:10.999Z</time></trkpt><trkpt lat="42.99501296201718" lon="11.513468621376449"><ele>299.0</ele><time>2026-04-11T15:36:14.999Z</time></trkpt><trkpt lat="42.99507614393149" lon="11.513424594680457"><ele>299.0</ele><time>2026-04-11T15:36:19Z</time></trkpt><trkpt lat="42.995138585361566" lon="11.51337381406044"><ele>300.59999999999997</ele><time>2026-04-11T15:36:23Z</time></trkpt><trkpt lat="42.995213641915676" lon="11.513344796673946"><ele>302.2</ele><time>2026-04-11T15:36:28Z</time></trkpt><trkpt lat="42.99530326410971" lon="11.513335797765295"><ele>303.79999999999995</ele><time>2026-04-11T15:36:33Z</time></trkpt><trkpt lat="42.99545286005279" lon="11.513330776419082"><ele>305.4</ele><time>2026-04-11T15:36:42Z</time></trkpt><trkpt lat="42.9955301850905" lon="11.513342246827179"><ele>307.0</ele><time>2026-04-11T15:36:47Z</time></trkpt><trkpt lat="42.99559630109333" lon="11.513347446085024"><ele>306.99999999999994</ele><time>2026-04-11T15:36:51Z</time></trkpt><trkpt lat="42.995659975667934" lon="11.513372478943571"><ele>307.0</ele><time>2026-04-11T15:36:55Z</time></trkpt><trkpt lat="42.99573269097841" lon="11.513378355782006"><ele>307.0</ele><time>2026-04-11T15:36:59Z</time></trkpt><trkpt lat="42.995801850139074" lon="11.513403340329214"><ele>307.0</ele><time>2026-04-11T15:37:03Z</time></trkpt><trkpt lat="42.995863068912655" lon="11.513427157862699"><ele>307.0</ele><time>2026-04-11T15:37:07Z</time></trkpt><trkpt lat="42.995931575613334" lon="11.513447745337796"><ele>306.99999999999994</ele><time>2026-04-11T15:37:10Z</time></trkpt><trkpt lat="42.995992580978985" lon="11.513472622658654"><ele>307.0</ele><time>2026-04-11T15:37:13Z</time></trkpt><trkpt lat="42.99607144484901" lon="11.51350620270773"><ele>307.16666666666663</ele><time>2026-04-11T15:37:17Z</time></trkpt><trkpt lat="42.99613409029972" lon="11.51355139025903"><ele>307.3333333333333</ele><time>2026-04-11T15:37:20Z</time></trkpt><trkpt lat="42.99620622810579" lon="11.513574743968674"><ele>307.5</ele><time>2026-04-11T15:37:23Z</time></trkpt><trkpt lat="42.99628612479903" lon="11.513602785679595"><ele>307.6666666666667</ele><time>2026-04-11T15:37:26Z</time></trkpt><trkpt lat="42.99637376880723" lon="11.51362815109625"><ele>307.83333333333337</ele><time>2026-04-11T15:37:29Z</time></trkpt><trkpt lat="42.99645866717795" lon="11.513649301325346"><ele>308.0</ele><time>2026-04-11T15:37:32Z</time></trkpt><trkpt lat="42.99655325338312" lon="11.513649177568151"><ele>308.0</ele><time>2026-04-11T15:37:35Z</time></trkpt><trkpt lat="42.99663721861523" lon="11.513670718714778"><ele>308.0</ele><time>2026-04-11T15:37:38Z</time></trkpt><trkpt lat="42.99671774862033" lon="11.513695067181114"><ele>308.0</ele><time>2026-04-11T15:37:40.999Z</time></trkpt><trkpt lat="42.99679788563547" lon="11.51374631627384"><ele>308.0</ele><time>2026-04-11T15:37:43.999Z</time></trkpt><trkpt lat="42.99686105682171" lon="11.513818214519015"><ele>308.0</ele><time>2026-04-11T15:37:46.999Z</time></trkpt><trkpt lat="42.99690999707108" lon="11.513892331966982"><ele>308.0</ele><time>2026-04-11T15:37:49.999Z</time></trkpt><trkpt lat="42.996935312625844" lon="11.51397341897323"><ele>307.5</ele><time>2026-04-11T15:37:51.999Z</time></trkpt><trkpt lat="42.99697543414419" lon="11.514089099921573"><ele>307.0</ele><time>2026-04-11T15:37:54.999Z</time></trkpt><trkpt lat="42.99700723574351" lon="11.514164439389587"><ele>306.5</ele><time>2026-04-11T15:37:56.999Z</time></trkpt><trkpt lat="42.99704144073092" lon="11.51428499723725"><ele>306.0</ele><time>2026-04-11T15:37:59.999Z</time></trkpt><trkpt lat="42.997082439476415" lon="11.514394553382866"><ele>305.5</ele><time>2026-04-11T15:38:02.999Z</time></trkpt><trkpt lat="42.99710366484498" lon="11.514479987362225"><ele>305.0</ele><time>2026-04-11T15:38:04.999Z</time></trkpt><trkpt lat="42.99713655438551" lon="11.514556865526773"><ele>305.8571428571429</ele><time>2026-04-11T15:38:06.999Z</time></trkpt><trkpt lat="42.99717948257232" lon="11.514667586263437"><ele>306.71428571428567</ele><time>2026-04-11T15:38:09.999Z</time></trkpt><trkpt lat="42.99719636808668" lon="11.514751560629316"><ele>307.57142857142856</ele><time>2026-04-11T15:38:11.999Z</time></trkpt><trkpt lat="42.99721808254006" lon="11.514838594956412"><ele>308.42857142857144</ele><time>2026-04-11T15:38:13.999Z</time></trkpt><trkpt lat="42.99724758762531" lon="11.514921463887383"><ele>309.28571428571433</ele><time>2026-04-11T15:38:15.999Z</time></trkpt><trkpt lat="42.99727785589236" lon="11.514999729462373"><ele>310.1428571428571</ele><time>2026-04-11T15:38:17.999Z</time></trkpt><trkpt lat="42.99729806645996" lon="11.515089709643048"><ele>311.0</ele><time>2026-04-11T15:38:19.999Z</time></trkpt><trkpt lat="42.99731102185084" lon="11.515173992232016"><ele>311.0</ele><time>2026-04-11T15:38:22Z</time></trkpt><trkpt lat="42.99732470740656" lon="11.515270067946812"><ele>311.0</ele><time>2026-04-11T15:38:24Z</time></trkpt><trkpt lat="42.99732943422041" lon="11.515362169006181"><ele>311.0</ele><time>2026-04-11T15:38:26Z</time></trkpt><trkpt lat="42.9973236897452" lon="11.515459293168648"><ele>311.0</ele><time>2026-04-11T15:38:28Z</time></trkpt><trkpt lat="42.99732004781467" lon="11.515558647547444"><ele>311.0</ele><time>2026-04-11T15:38:30Z</time></trkpt><trkpt lat="42.99731657971368" lon="11.515655142239044"><ele>311.0</ele><time>2026-04-11T15:38:32Z</time></trkpt><trkpt lat="42.99730302550838" lon="11.515748163616877"><ele>311.0</ele><time>2026-04-11T15:38:34Z</time></trkpt><trkpt lat="42.997289813918286" lon="11.515847476908348"><ele>311.2857142857143</ele><time>2026-04-11T15:38:36Z</time></trkpt><trkpt lat="42.99727331103339" lon="11.515948599560378"><ele>311.5714285714286</ele><time>2026-04-11T15:38:38Z</time></trkpt><trkpt lat="42.9972582869282" lon="11.516052026941429"><ele>311.8571428571429</ele><time>2026-04-11T15:38:40Z</time></trkpt><trkpt lat="42.997244704144244" lon="11.516156491894588"><ele>312.1428571428571</ele><time>2026-04-11T15:38:42Z</time></trkpt><trkpt lat="42.997229393412034" lon="11.516255407993999"><ele>312.42857142857144</ele><time>2026-04-11T15:38:44Z</time></trkpt><trkpt lat="42.99721877755348" lon="11.516346663697021"><ele>312.7142857142857</ele><time>2026-04-11T15:38:46Z</time></trkpt><trkpt lat="42.99720426379871" lon="11.516437190288556"><ele>313.0</ele><time>2026-04-11T15:38:48Z</time></trkpt><trkpt lat="42.99718739994031" lon="11.516530028017321"><ele>313.0</ele><time>2026-04-11T15:38:50Z</time></trkpt><trkpt lat="42.99717450772917" lon="11.516619937778692"><ele>313.0</ele><time>2026-04-11T15:38:52Z</time></trkpt><trkpt lat="42.99715361987621" lon="11.516704619120432"><ele>313.0</ele><time>2026-04-11T15:38:54Z</time></trkpt><trkpt lat="42.99712323325094" lon="11.51678331330415"><ele>313.0</ele><time>2026-04-11T15:38:56Z</time></trkpt><trkpt lat="42.99709148363351" lon="11.516859535086917"><ele>313.0</ele><time>2026-04-11T15:38:58Z</time></trkpt><trkpt lat="42.997048740569106" lon="11.516968880233621"><ele>313.0</ele><time>2026-04-11T15:39:01Z</time></trkpt><trkpt lat="42.997004801038884" lon="11.517074762787326"><ele>313.0</ele><time>2026-04-11T15:39:04Z</time></trkpt><trkpt lat="42.996954508473976" lon="11.517173641970514"><ele>312.66666666666663</ele><time>2026-04-11T15:39:07Z</time></trkpt><trkpt lat="42.99690085303246" lon="11.51726635297016"><ele>312.3333333333333</ele><time>2026-04-11T15:39:10Z</time></trkpt><trkpt lat="42.996852949619296" lon="11.517359334416353"><ele>312.0</ele><time>2026-04-11T15:39:13Z</time></trkpt><trkpt lat="42.99679076309861" lon="11.517438487565194"><ele>311.6666666666667</ele><time>2026-04-11T15:39:16Z</time></trkpt><trkpt lat="42.99671900267005" lon="11.517514234372257"><ele>311.33333333333337</ele><time>2026-04-11T15:39:19Z</time></trkpt><trkpt lat="42.99665647998631" lon="11.517593839550017"><ele>311.0</ele><time>2026-04-11T15:39:22Z</time></trkpt><trkpt lat="42.99658653162554" lon="11.517654062132673"><ele>312.83333333333337</ele><time>2026-04-11T15:39:25Z</time></trkpt><trkpt lat="42.996520769273786" lon="11.517721889015052"><ele>314.6666666666667</ele><time>2026-04-11T15:39:28Z</time></trkpt><trkpt lat="42.99644566249023" lon="11.517777873094342"><ele>316.5</ele><time>2026-04-11T15:39:31Z</time></trkpt><trkpt lat="42.99636636738322" lon="11.517832405980728"><ele>318.3333333333333</ele><time>2026-04-11T15:39:34Z</time></trkpt><trkpt lat="42.99629512049244" lon="11.517880110471651"><ele>320.16666666666663</ele><time>2026-04-11T15:39:37Z</time></trkpt><trkpt lat="42.99623806055152" lon="11.517922623390657"><ele>322.0</ele><time>2026-04-11T15:39:40Z</time></trkpt><trkpt lat="42.996179682119134" lon="11.517960767560679"><ele>322.0</ele><time>2026-04-11T15:39:43Z</time></trkpt><trkpt lat="42.99611837478004" lon="11.517997044635893"><ele>322.0</ele><time>2026-04-11T15:39:45.999Z</time></trkpt><trkpt lat="42.996047000235535" lon="11.518053962030368"><ele>322.0</ele><time>2026-04-11T15:39:49.999Z</time></trkpt><trkpt lat="42.99597880499052" lon="11.518112784122527"><ele>322.0</ele><time>2026-04-11T15:39:53.999Z</time></trkpt><trkpt lat="42.9959149917517" lon="11.518171720772207"><ele>322.0</ele><time>2026-04-11T15:39:57.999Z</time></trkpt><trkpt lat="42.995858477154506" lon="11.518236244576526"><ele>322.0</ele><time>2026-04-11T15:40:01.999Z</time></trkpt><trkpt lat="42.99580740145154" lon="11.518312508640667"><ele>324.0</ele><time>2026-04-11T15:40:05.999Z</time></trkpt><trkpt lat="42.99575605348778" lon="11.518394314831845"><ele>326.0</ele><time>2026-04-11T15:40:09.999Z</time></trkpt><trkpt lat="42.99570452977534" lon="11.518471057171336"><ele>328.0</ele><time>2026-04-11T15:40:13.999Z</time></trkpt><trkpt lat="42.995658723070164" lon="11.518533881833731"><ele>330.0</ele><time>2026-04-11T15:40:16.999Z</time></trkpt><trkpt lat="42.99560491196473" lon="11.518600225469749"><ele>332.0</ele><time>2026-04-11T15:40:20.999Z</time></trkpt><trkpt lat="42.995541794741364" lon="11.518671860068634"><ele>334.0</ele><time>2026-04-11T15:40:24.999Z</time></trkpt><trkpt lat="42.995484024183284" lon="11.51875552032154"><ele>334.0</ele><time>2026-04-11T15:40:29Z</time></trkpt><trkpt lat="42.99542700483144" lon="11.518826991520259"><ele>334.0</ele><time>2026-04-11T15:40:33Z</time></trkpt><trkpt lat="42.99537997551332" lon="11.518889404073901"><ele>334.0</ele><time>2026-04-11T15:40:36Z</time></trkpt><trkpt lat="42.99531777632305" lon="11.518932293214473"><ele>334.0</ele><time>2026-04-11T15:40:40Z</time></trkpt><trkpt lat="42.99525031233389" lon="11.5189935305606"><ele>334.0</ele><time>2026-04-11T15:40:44Z</time></trkpt><trkpt lat="42.99519017501848" lon="11.519030287497138"><ele>334.0</ele><time>2026-04-11T15:40:48Z</time></trkpt><trkpt lat="42.99512380709422" lon="11.51907780264623"><ele>334.0</ele><time>2026-04-11T15:40:52Z</time></trkpt><trkpt lat="42.99507346549717" lon="11.519138681512691"><ele>334.0</ele><time>2026-04-11T15:40:55Z</time></trkpt><trkpt lat="42.995024988397944" lon="11.519201351872288"><ele>334.0</ele><time>2026-04-11T15:40:58Z</time></trkpt><trkpt lat="42.994990980778596" lon="11.519289890022364"><ele>334.0</ele><time>2026-04-11T15:41:01Z</time></trkpt><trkpt lat="42.99494806660535" lon="11.519372181429953"><ele>334.0</ele><time>2026-04-11T15:41:04Z</time></trkpt><trkpt lat="42.994904866084944" lon="11.519445675856144"><ele>334.0</ele><time>2026-04-11T15:41:07Z</time></trkpt><trkpt lat="42.99486851868689" lon="11.519532599715395"><ele>334.0</ele><time>2026-04-11T15:41:10Z</time></trkpt><trkpt lat="42.994829136367244" lon="11.519633606123701"><ele>334.0</ele><time>2026-04-11T15:41:13Z</time></trkpt><trkpt lat="42.994864957776" lon="11.519747567348176"><ele>335.0</ele><time>2026-04-11T15:41:16Z</time></trkpt><trkpt lat="42.99492627126276" lon="11.519801346112962"><ele>336.0</ele><time>2026-04-11T15:41:18Z</time></trkpt><trkpt lat="42.995013540761235" lon="11.519847493998249"><ele>337.0</ele><time>2026-04-11T15:41:20Z</time></trkpt><trkpt lat="42.99509411705349" lon="11.519893590447197"><ele>338.0</ele><time>2026-04-11T15:41:22Z</time></trkpt><trkpt lat="42.99517466136222" lon="11.519961244281426"><ele>339.0</ele><time>2026-04-11T15:41:24Z</time></trkpt><trkpt lat="42.995265898913175" lon="11.520027013826622"><ele>339.0</ele><time>2026-04-11T15:41:26Z</time></trkpt><trkpt lat="42.99535933900246" lon="11.520099303146958"><ele>339.0</ele><time>2026-04-11T15:41:28Z</time></trkpt><trkpt lat="42.99545940845945" lon="11.52017384480346"><ele>339.0</ele><time>2026-04-11T15:41:30Z</time></trkpt><trkpt lat="42.99555584203551" lon="11.52024496017965"><ele>339.0</ele><time>2026-04-11T15:41:32Z</time></trkpt><trkpt lat="42.995667304385506" lon="11.520312924548374"><ele>340.0</ele><time>2026-04-11T15:41:34Z</time></trkpt><trkpt lat="42.99577538982664" lon="11.520406005553546"><ele>341.0</ele><time>2026-04-11T15:41:36Z</time></trkpt><trkpt lat="42.995842301245865" lon="11.520456515459541"><ele>342.0</ele><time>2026-04-11T15:41:37Z</time></trkpt><trkpt lat="42.99589689914247" lon="11.520528363156043"><ele>343.0</ele><time>2026-04-11T15:41:38Z</time></trkpt><trkpt lat="42.99594859033924" lon="11.520602011690627"><ele>344.0</ele><time>2026-04-11T15:41:39Z</time></trkpt><trkpt lat="42.99598835052705" lon="11.520682849375358"><ele>345.0</ele><time>2026-04-11T15:41:40Z</time></trkpt><trkpt lat="42.996033173721656" lon="11.520775805951473"><ele>344.0</ele><time>2026-04-11T15:41:41Z</time></trkpt><trkpt lat="42.99608188404198" lon="11.520884157241689"><ele>343.0</ele><time>2026-04-11T15:41:42Z</time></trkpt><trkpt lat="42.996136042018755" lon="11.520977331533624"><ele>342.0</ele><time>2026-04-11T15:41:43Z</time></trkpt><trkpt lat="42.99619201258012" lon="11.521068228796056"><ele>341.0</ele><time>2026-04-11T15:41:44Z</time></trkpt><trkpt lat="42.99625365757578" lon="11.521164878362866"><ele>340.0</ele><time>2026-04-11T15:41:45Z</time></trkpt><trkpt lat="42.99631289541006" lon="11.521250906562628"><ele>339.0</ele><time>2026-04-11T15:41:46Z</time></trkpt><trkpt lat="42.996379400551895" lon="11.521336841708438"><ele>339.0</ele><time>2026-04-11T15:41:47Z</time></trkpt><trkpt lat="42.99645098341408" lon="11.521414930956904"><ele>339.0</ele><time>2026-04-11T15:41:48Z</time></trkpt><trkpt lat="42.996525426797795" lon="11.521492505723606"><ele>339.0</ele><time>2026-04-11T15:41:49Z</time></trkpt><trkpt lat="42.99660748868616" lon="11.52156835546878"><ele>339.0</ele><time>2026-04-11T15:41:50Z</time></trkpt><trkpt lat="42.996689150194356" lon="11.521651734594126"><ele>339.0</ele><time>2026-04-11T15:41:50.999Z</time></trkpt><trkpt lat="42.996770243028784" lon="11.521733792978452"><ele>337.2</ele><time>2026-04-11T15:41:51.999Z</time></trkpt><trkpt lat="42.99685040996659" lon="11.521815143760545"><ele>335.4</ele><time>2026-04-11T15:41:52.999Z</time></trkpt><trkpt lat="42.99693677717184" lon="11.521897262363282"><ele>333.6</ele><time>2026-04-11T15:41:53.999Z</time></trkpt><trkpt lat="42.997019256009445" lon="11.521985297069643"><ele>331.8</ele><time>2026-04-11T15:41:54.999Z</time></trkpt><trkpt lat="42.99711464768743" lon="11.522074971048834"><ele>330.0</ele><time>2026-04-11T15:41:55.999Z</time></trkpt><trkpt lat="42.997206699908894" lon="11.522166698172313"><ele>330.0</ele><time>2026-04-11T15:41:56.999Z</time></trkpt><trkpt lat="42.99729936356539" lon="11.52225283398028"><ele>330.0</ele><time>2026-04-11T15:41:57.999Z</time></trkpt><trkpt lat="42.99739752466681" lon="11.522351180320795"><ele>330.0</ele><time>2026-04-11T15:41:58.999Z</time></trkpt><trkpt lat="42.997493379428235" lon="11.522448771038473"><ele>330.0</ele><time>2026-04-11T15:41:59.999Z</time></trkpt><trkpt lat="42.99758094652004" lon="11.52254595381892"><ele>328.25</ele><time>2026-04-11T15:42:00.999Z</time></trkpt><trkpt lat="42.997674661801405" lon="11.52264537547426"><ele>326.5</ele><time>2026-04-11T15:42:01.999Z</time></trkpt><trkpt lat="42.997768304648005" lon="11.522737312779972"><ele>324.75</ele><time>2026-04-11T15:42:02.999Z</time></trkpt><trkpt lat="42.99786453684251" lon="11.522836666079762"><ele>323.0</ele><time>2026-04-11T15:42:03.999Z</time></trkpt><trkpt lat="42.997959169020085" lon="11.522934851045724"><ele>323.0</ele><time>2026-04-11T15:42:04.999Z</time></trkpt><trkpt lat="42.99805311673931" lon="11.523027333541165"><ele>323.0</ele><time>2026-04-11T15:42:05.999Z</time></trkpt><trkpt lat="42.998150978978714" lon="11.523112815596244"><ele>323.0</ele><time>2026-04-11T15:42:06.999Z</time></trkpt><trkpt lat="42.99826552709032" lon="11.523186117237016"><ele>323.0</ele><time>2026-04-11T15:42:07.999Z</time></trkpt><trkpt lat="42.99838043127282" lon="11.5232379914206"><ele>321.25</ele><time>2026-04-11T15:42:08.999Z</time></trkpt><trkpt lat="42.99849617113765" lon="11.523282421460106"><ele>319.5</ele><time>2026-04-11T15:42:09.999Z</time></trkpt><trkpt lat="42.998608621713004" lon="11.523323254493187"><ele>317.75</ele><time>2026-04-11T15:42:10.999Z</time></trkpt><trkpt lat="42.998718786889846" lon="11.523366968314791"><ele>316.0</ele><time>2026-04-11T15:42:11.999Z</time></trkpt><trkpt lat="42.99883167434582" lon="11.523414396683908"><ele>316.0</ele><time>2026-04-11T15:42:12.999Z</time></trkpt><trkpt lat="42.99894354450373" lon="11.523463233281088"><ele>316.0</ele><time>2026-04-11T15:42:13.999Z</time></trkpt><trkpt lat="42.99905628540086" lon="11.52353041208138"><ele>316.0</ele><time>2026-04-11T15:42:14.999Z</time></trkpt><trkpt lat="42.99915603505096" lon="11.523594716927503"><ele>316.0</ele><time>2026-04-11T15:42:15.999Z</time></trkpt><trkpt lat="42.99926022331693" lon="11.52366695664261"><ele>316.25</ele><time>2026-04-11T15:42:16.999Z</time></trkpt><trkpt lat="42.99935762768115" lon="11.523749228976374"><ele>316.5</ele><time>2026-04-11T15:42:17.999Z</time></trkpt><trkpt lat="42.99946039308841" lon="11.523825578580196"><ele>316.75</ele><time>2026-04-11T15:42:18.999Z</time></trkpt><trkpt lat="42.999559717398306" lon="11.523892513818469"><ele>317.0</ele><time>2026-04-11T15:42:19.999Z</time></trkpt><trkpt lat="42.99965946988487" lon="11.523968608991012"><ele>317.0</ele><time>2026-04-11T15:42:20.999Z</time></trkpt><trkpt lat="42.99975727741474" lon="11.524038065195137"><ele>317.0</ele><time>2026-04-11T15:42:21.999Z</time></trkpt><trkpt lat="42.99985561172148" lon="11.52410215356067"><ele>317.0</ele><time>2026-04-11T15:42:22.999Z</time></trkpt><trkpt lat="42.9999487093716" lon="11.524148464117443"><ele>317.0</ele><time>2026-04-11T15:42:23.999Z</time></trkpt><trkpt lat="43.000042407911664" lon="11.524194972360531"><ele>317.0</ele><time>2026-04-11T15:42:24.999Z</time></trkpt><trkpt lat="43.00013896703148" lon="11.524236494996831"><ele>317.0</ele><time>2026-04-11T15:42:25.999Z</time></trkpt><trkpt lat="43.000231249365136" lon="11.52427385892633"><ele>317.0</ele><time>2026-04-11T15:42:26.999Z</time></trkpt><trkpt lat="43.00032696280292" lon="11.524312576559186"><ele>317.0</ele><time>2026-04-11T15:42:27.999Z</time></trkpt><trkpt lat="43.00041677431765" lon="11.524348588796006"><ele>317.0</ele><time>2026-04-11T15:42:28.999Z</time></trkpt><trkpt lat="43.000504181638895" lon="11.524385851649372"><ele>317.0</ele><time>2026-04-11T15:42:29.999Z</time></trkpt><trkpt lat="43.0005904618496" lon="11.524419153198304"><ele>317.0</ele><time>2026-04-11T15:42:30.999Z</time></trkpt><trkpt lat="43.00067449490267" lon="11.524454771971625"><ele>317.0</ele><time>2026-04-11T15:42:31.999Z</time></trkpt><trkpt lat="43.00075870785046" lon="11.524484281127501"><ele>317.0</ele><time>2026-04-11T15:42:32.999Z</time></trkpt><trkpt lat="43.00083801554634" lon="11.524520159863851"><ele>317.0</ele><time>2026-04-11T15:42:34Z</time></trkpt><trkpt lat="43.00091685087784" lon="11.52455450240211"><ele>317.0</ele><time>2026-04-11T15:42:35Z</time></trkpt><trkpt lat="43.00100035739387" lon="11.524585138256356"><ele>317.0</ele><time>2026-04-11T15:42:36Z</time></trkpt><trkpt lat="43.00108008946469" lon="11.52461804281913"><ele>317.6666666666667</ele><time>2026-04-11T15:42:37Z</time></trkpt><trkpt lat="43.00115693483434" lon="11.524651374205275"><ele>318.33333333333337</ele><time>2026-04-11T15:42:38Z</time></trkpt><trkpt lat="43.00123188389541" lon="11.524681151279715"><ele>319.0</ele><time>2026-04-11T15:42:39Z</time></trkpt><trkpt lat="43.00131176414412" lon="11.524710937978513"><ele>319.6666666666667</ele><time>2026-04-11T15:42:40Z</time></trkpt><trkpt lat="43.00138610830614" lon="11.524743645421124"><ele>320.3333333333333</ele><time>2026-04-11T15:42:41Z</time></trkpt><trkpt lat="43.00146184339909" lon="11.524772448113628"><ele>321.0</ele><time>2026-04-11T15:42:42Z</time></trkpt><trkpt lat="43.00153331479687" lon="11.524802292613094"><ele>320.99999999999994</ele><time>2026-04-11T15:42:43Z</time></trkpt><trkpt lat="43.00160151565828" lon="11.524832873177111"><ele>321.0</ele><time>2026-04-11T15:42:44Z</time></trkpt><trkpt lat="43.00166803201982" lon="11.524866878094043"><ele>321.0</ele><time>2026-04-11T15:42:45Z</time></trkpt><trkpt lat="43.001733913014455" lon="11.524895800732777"><ele>321.0</ele><time>2026-04-11T15:42:46Z</time></trkpt><trkpt lat="43.00180364762239" lon="11.524923733741831"><ele>321.0</ele><time>2026-04-11T15:42:47Z</time></trkpt><trkpt lat="43.00187420850846" lon="11.524947727480358"><ele>320.99999999999994</ele><time>2026-04-11T15:42:48Z</time></trkpt><trkpt lat="43.001945491125184" lon="11.524972820203388"><ele>321.0</ele><time>2026-04-11T15:42:49Z</time></trkpt><trkpt lat="43.002013386989915" lon="11.525001360687712"><ele>320.99999999999994</ele><time>2026-04-11T15:42:50Z</time></trkpt><trkpt lat="43.00208204758119" lon="11.525026217669113"><ele>321.0</ele><time>2026-04-11T15:42:51Z</time></trkpt><trkpt lat="43.002155960653106" lon="11.52504223541858"><ele>321.0</ele><time>2026-04-11T15:42:52Z</time></trkpt><trkpt lat="43.002225740762384" lon="11.525057607166689"><ele>321.0</ele><time>2026-04-11T15:42:53Z</time></trkpt><trkpt lat="43.00229875945577" lon="11.525079932960404"><ele>321.0</ele><time>2026-04-11T15:42:54Z</time></trkpt><trkpt lat="43.002368882694995" lon="11.52510258137142"><ele>320.99999999999994</ele><time>2026-04-11T15:42:55Z</time></trkpt><trkpt lat="43.002438541842494" lon="11.525124954797988"><ele>321.0</ele><time>2026-04-11T15:42:56Z</time></trkpt><trkpt lat="43.00250771625136" lon="11.52514464440487"><ele>320.99999999999994</ele><time>2026-04-11T15:42:57Z</time></trkpt><trkpt lat="43.00257672568076" lon="11.525163899279793"><ele>321.0</ele><time>2026-04-11T15:42:58Z</time></trkpt><trkpt lat="43.002647506517626" lon="11.525184485837448"><ele>321.0</ele><time>2026-04-11T15:42:59Z</time></trkpt><trkpt lat="43.002716459528585" lon="11.525205511333276"><ele>321.0</ele><time>2026-04-11T15:43:00Z</time></trkpt><trkpt lat="43.00278554503907" lon="11.525224068798142"><ele>321.0</ele><time>2026-04-11T15:43:01Z</time></trkpt><trkpt lat="43.00285966385831" lon="11.525240781227618"><ele>320.99999999999994</ele><time>2026-04-11T15:43:02Z</time></trkpt><trkpt lat="43.00293070822742" lon="11.525263819097825"><ele>321.0</ele><time>2026-04-11T15:43:03Z</time></trkpt><trkpt lat="43.00300752829013" lon="11.525284350279861"><ele>321.0</ele><time>2026-04-11T15:43:04Z</time></trkpt><trkpt lat="43.0030825164967" lon="11.525308451878004"><ele>321.0</ele><time>2026-04-11T15:43:05Z</time></trkpt><trkpt lat="43.003154792638895" lon="11.525328742074269"><ele>321.0</ele><time>2026-04-11T15:43:06Z</time></trkpt><trkpt lat="43.0032282737318" lon="11.525349958481643"><ele>321.0</ele><time>2026-04-11T15:43:07Z</time></trkpt><trkpt lat="43.00330514635631" lon="11.525370617292497"><ele>321.0</ele><time>2026-04-11T15:43:08Z</time></trkpt><trkpt lat="43.00337931131431" lon="11.525395052291353"><ele>321.0</ele><time>2026-04-11T15:43:09Z</time></trkpt><trkpt lat="43.00345508068216" lon="11.52541587164984"><ele>321.3333333333333</ele><time>2026-04-11T15:43:10Z</time></trkpt><trkpt lat="43.00353468202801" lon="11.525434009794958"><ele>321.6666666666667</ele><time>2026-04-11T15:43:11Z</time></trkpt><trkpt lat="43.003611089400394" lon="11.525451536205923"><ele>322.0</ele><time>2026-04-11T15:43:12Z</time></trkpt><trkpt lat="43.0036852741073" lon="11.525471619050423"><ele>322.33333333333337</ele><time>2026-04-11T15:43:13Z</time></trkpt><trkpt lat="43.00375813689512" lon="11.525494326549943"><ele>322.6666666666667</ele><time>2026-04-11T15:43:14Z</time></trkpt><trkpt lat="43.00383259199201" lon="11.525513021597598"><ele>323.0</ele><time>2026-04-11T15:43:15Z</time></trkpt><trkpt lat="43.003903174752686" lon="11.525531569362222"><ele>323.0</ele><time>2026-04-11T15:43:16Z</time></trkpt><trkpt lat="43.00397249960366" lon="11.525552854683609"><ele>323.0</ele><time>2026-04-11T15:43:17Z</time></trkpt><trkpt lat="43.00403484532245" lon="11.525572950905937"><ele>323.0</ele><time>2026-04-11T15:43:18Z</time></trkpt><trkpt lat="43.004096734943175" lon="11.525591327913997"><ele>323.0</ele><time>2026-04-11T15:43:19Z</time></trkpt><trkpt lat="43.004216608847386" lon="11.525631536582226"><ele>323.0</ele><time>2026-04-11T15:43:21Z</time></trkpt><trkpt lat="43.004342291873854" lon="11.525668874693737"><ele>323.2</ele><time>2026-04-11T15:43:23Z</time></trkpt><trkpt lat="43.004456797539085" lon="11.525701354546829"><ele>323.4</ele><time>2026-04-11T15:43:25Z</time></trkpt><trkpt lat="43.0045645342757" lon="11.525726946009145"><ele>323.59999999999997</ele><time>2026-04-11T15:43:27Z</time></trkpt><trkpt lat="43.00466524865166" lon="11.525759517764467"><ele>323.79999999999995</ele><time>2026-04-11T15:43:29Z</time></trkpt><trkpt lat="43.00477021573482" lon="11.525789978890174"><ele>324.0</ele><time>2026-04-11T15:43:31Z</time></trkpt><trkpt lat="43.0048726022946" lon="11.525819533807136"><ele>324.0</ele><time>2026-04-11T15:43:33Z</time></trkpt><trkpt lat="43.00497131927668" lon="11.525842594168495"><ele>324.0</ele><time>2026-04-11T15:43:35Z</time></trkpt><trkpt lat="43.00506605805368" lon="11.525872404513569"><ele>324.0</ele><time>2026-04-11T15:43:37Z</time></trkpt><trkpt lat="43.0051583452931" lon="11.5259057182037"><ele>324.0</ele><time>2026-04-11T15:43:39Z</time></trkpt><trkpt lat="43.00524756124181" lon="11.525933521139944"><ele>324.0</ele><time>2026-04-11T15:43:41Z</time></trkpt><trkpt lat="43.005337688542404" lon="11.525957229927261"><ele>324.2</ele><time>2026-04-11T15:43:43Z</time></trkpt><trkpt lat="43.005429598492945" lon="11.525981605326114"><ele>324.4</ele><time>2026-04-11T15:43:45Z</time></trkpt><trkpt lat="43.00552069486969" lon="11.52600538290329"><ele>324.6</ele><time>2026-04-11T15:43:47Z</time></trkpt><trkpt lat="43.005613369080976" lon="11.526036056410621"><ele>324.8</ele><time>2026-04-11T15:43:49Z</time></trkpt><trkpt lat="43.00569829102279" lon="11.52605940396756"><ele>325.0</ele><time>2026-04-11T15:43:51Z</time></trkpt><trkpt lat="43.005781565673736" lon="11.526083075336444"><ele>325.16666666666663</ele><time>2026-04-11T15:43:53Z</time></trkpt><trkpt lat="43.00586302803967" lon="11.52610837942539"><ele>325.3333333333333</ele><time>2026-04-11T15:43:55Z</time></trkpt><trkpt lat="43.005946889339725" lon="11.526140173693953"><ele>325.5</ele><time>2026-04-11T15:43:56.999Z</time></trkpt><trkpt lat="43.00602765479353" lon="11.526163926708016"><ele>325.6666666666667</ele><time>2026-04-11T15:43:58.999Z</time></trkpt><trkpt lat="43.006113433107124" lon="11.526184369455697"><ele>325.83333333333337</ele><time>2026-04-11T15:44:00.999Z</time></trkpt><trkpt lat="43.00620198296268" lon="11.526211589747223"><ele>326.0</ele><time>2026-04-11T15:44:02.999Z</time></trkpt><trkpt lat="43.00628681801186" lon="11.526241062656638"><ele>326.1666666666667</ele><time>2026-04-11T15:44:04.999Z</time></trkpt><trkpt lat="43.00637248509275" lon="11.526268030590161"><ele>326.33333333333337</ele><time>2026-04-11T15:44:06.999Z</time></trkpt><trkpt lat="43.00646050572981" lon="11.52629146995289"><ele>326.5</ele><time>2026-04-11T15:44:08.999Z</time></trkpt><trkpt lat="43.00653955499782" lon="11.526319120852758"><ele>326.6666666666667</ele><time>2026-04-11T15:44:10.999Z</time></trkpt><trkpt lat="43.00661780915863" lon="11.52634499513386"><ele>326.8333333333333</ele><time>2026-04-11T15:44:12.999Z</time></trkpt><trkpt lat="43.00669725050314" lon="11.526369153889826"><ele>327.0</ele><time>2026-04-11T15:44:14.999Z</time></trkpt><trkpt lat="43.00677436776075" lon="11.526396099430322"><ele>327.3333333333333</ele><time>2026-04-11T15:44:16.999Z</time></trkpt><trkpt lat="43.00684965187344" lon="11.526416946619534"><ele>327.6666666666667</ele><time>2026-04-11T15:44:18.999Z</time></trkpt><trkpt lat="43.00693132005621" lon="11.526433519977447"><ele>328.0</ele><time>2026-04-11T15:44:20.999Z</time></trkpt><trkpt lat="43.0070145170765" lon="11.526451941135871"><ele>328.33333333333337</ele><time>2026-04-11T15:44:22.999Z</time></trkpt><trkpt lat="43.00710399315343" lon="11.526465013834471"><ele>328.6666666666667</ele><time>2026-04-11T15:44:24.999Z</time></trkpt><trkpt lat="43.00719261125381" lon="11.526473569163562"><ele>329.0</ele><time>2026-04-11T15:44:26.999Z</time></trkpt><trkpt lat="43.00728183774974" lon="11.526491186965902"><ele>329.0</ele><time>2026-04-11T15:44:28.999Z</time></trkpt><trkpt lat="43.007370988240154" lon="11.526499054320723"><ele>329.0</ele><time>2026-04-11T15:44:30.999Z</time></trkpt><trkpt lat="43.00746145781453" lon="11.526506767534515"><ele>329.0</ele><time>2026-04-11T15:44:32.999Z</time></trkpt><trkpt lat="43.00754764036906" lon="11.526514927693851"><ele>329.0</ele><time>2026-04-11T15:44:34.999Z</time></trkpt><trkpt lat="43.00763333158427" lon="11.526523332634536"><ele>329.0</ele><time>2026-04-11T15:44:36.999Z</time></trkpt><trkpt lat="43.007713810504" lon="11.526532150108707"><ele>329.0</ele><time>2026-04-11T15:44:38.999Z</time></trkpt><trkpt lat="43.007797239353806" lon="11.526538217741976"><ele>329.0</ele><time>2026-04-11T15:44:41Z</time></trkpt><trkpt lat="43.00788199851921" lon="11.526544901876829"><ele>329.0</ele><time>2026-04-11T15:44:43Z</time></trkpt><trkpt lat="43.00796635100244" lon="11.526553929245633"><ele>329.0</ele><time>2026-04-11T15:44:45Z</time></trkpt><trkpt lat="43.00805327111171" lon="11.526563005690372"><ele>329.0</ele><time>2026-04-11T15:44:47Z</time></trkpt><trkpt lat="43.00814344531936" lon="11.526575346401565"><ele>329.0</ele><time>2026-04-11T15:44:49Z</time></trkpt><trkpt lat="43.008231853987056" lon="11.526590484378442"><ele>329.0</ele><time>2026-04-11T15:44:51Z</time></trkpt><trkpt lat="43.008316287311544" lon="11.526596770381428"><ele>329.33333333333337</ele><time>2026-04-11T15:44:53Z</time></trkpt><trkpt lat="43.00840335771558" lon="11.526603256873457"><ele>329.6666666666667</ele><time>2026-04-11T15:44:55Z</time></trkpt><trkpt lat="43.008486519705244" lon="11.526616094599499"><ele>330.0</ele><time>2026-04-11T15:44:57Z</time></trkpt><trkpt lat="43.008571578603735" lon="11.526628216561535"><ele>330.3333333333333</ele><time>2026-04-11T15:44:59Z</time></trkpt><trkpt lat="43.00865655214215" lon="11.526637918213876"><ele>330.66666666666663</ele><time>2026-04-11T15:45:01Z</time></trkpt><trkpt lat="43.008745796917665" lon="11.526644812872059"><ele>331.0</ele><time>2026-04-11T15:45:03Z</time></trkpt><trkpt lat="43.00883392724553" lon="11.52665163672927"><ele>331.0</ele><time>2026-04-11T15:45:05Z</time></trkpt><trkpt lat="43.00892137726796" lon="11.526665558581003"><ele>331.0</ele><time>2026-04-11T15:45:07Z</time></trkpt><trkpt lat="43.00900707757021" lon="11.526678531889216"><ele>331.0</ele><time>2026-04-11T15:45:09Z</time></trkpt><trkpt lat="43.00909573003707" lon="11.526690530745402"><ele>331.0</ele><time>2026-04-11T15:45:11Z</time></trkpt><trkpt lat="43.00918254615042" lon="11.526699556338928"><ele>331.0</ele><time>2026-04-11T15:45:13Z</time></trkpt><trkpt lat="43.00926830726263" lon="11.526708054351099"><ele>331.0</ele><time>2026-04-11T15:45:15Z</time></trkpt><trkpt lat="43.00935167577311" lon="11.526720210796062"><ele>331.16666666666663</ele><time>2026-04-11T15:45:17Z</time></trkpt><trkpt lat="43.00943614846935" lon="11.526729315093265"><ele>331.3333333333333</ele><time>2026-04-11T15:45:19Z</time></trkpt><trkpt lat="43.00952052907418" lon="11.526742279364552"><ele>331.5</ele><time>2026-04-11T15:45:21Z</time></trkpt><trkpt lat="43.00960642937391" lon="11.52674702328554"><ele>331.6666666666667</ele><time>2026-04-11T15:45:23Z</time></trkpt><trkpt lat="43.00969236283915" lon="11.526755119472009"><ele>331.83333333333337</ele><time>2026-04-11T15:45:25Z</time></trkpt><trkpt lat="43.009778815141885" lon="11.526763017159489"><ele>332.0</ele><time>2026-04-11T15:45:27Z</time></trkpt><trkpt lat="43.00986756568715" lon="11.526779098491469"><ele>332.0</ele><time>2026-04-11T15:45:29Z</time></trkpt><trkpt lat="43.009950516886384" lon="11.526789605911427"><ele>332.0</ele><time>2026-04-11T15:45:31Z</time></trkpt><trkpt lat="43.01003329820299" lon="11.526796541588048"><ele>332.0</ele><time>2026-04-11T15:45:33Z</time></trkpt><trkpt lat="43.01011156504833" lon="11.526812104876512"><ele>332.0</ele><time>2026-04-11T15:45:35Z</time></trkpt><trkpt lat="43.01019192819669" lon="11.52681749813231"><ele>332.0</ele><time>2026-04-11T15:45:37Z</time></trkpt><trkpt lat="43.0102703863514" lon="11.52683138976307"><ele>332.0</ele><time>2026-04-11T15:45:39Z</time></trkpt><trkpt lat="43.01034836917886" lon="11.526842187748457"><ele>332.2857142857143</ele><time>2026-04-11T15:45:41Z</time></trkpt><trkpt lat="43.0104251531538" lon="11.526845224379937"><ele>332.5714285714286</ele><time>2026-04-11T15:45:43Z</time></trkpt><trkpt lat="43.010499742830945" lon="11.526860770894022"><ele>332.8571428571429</ele><time>2026-04-11T15:45:45Z</time></trkpt><trkpt lat="43.01057017037701" lon="11.526872364916747"><ele>333.1428571428571</ele><time>2026-04-11T15:45:47Z</time></trkpt><trkpt lat="43.01064327298016" lon="11.52687745570828"><ele>333.42857142857144</ele><time>2026-04-11T15:45:49Z</time></trkpt><trkpt lat="43.01071386276438" lon="11.5268953810651"><ele>333.7142857142857</ele><time>2026-04-11T15:45:51Z</time></trkpt><trkpt lat="43.01078574202253" lon="11.526899807686082"><ele>334.0</ele><time>2026-04-11T15:45:53Z</time></trkpt><trkpt lat="43.01085759449216" lon="11.526906011148263"><ele>334.57142857142856</ele><time>2026-04-11T15:45:55Z</time></trkpt><trkpt lat="43.01092554236257" lon="11.526916317360682"><ele>335.14285714285717</ele><time>2026-04-11T15:45:57Z</time></trkpt><trkpt lat="43.01099454472978" lon="11.52692538900884"><ele>335.7142857142857</ele><time>2026-04-11T15:45:59Z</time></trkpt><trkpt lat="43.01106420081468" lon="11.526935939045451"><ele>336.2857142857143</ele><time>2026-04-11T15:46:01Z</time></trkpt><trkpt lat="43.011136024065884" lon="11.526941907444613"><ele>336.85714285714283</ele><time>2026-04-11T15:46:03Z</time></trkpt><trkpt lat="43.01120563289111" lon="11.526942312340882"><ele>337.42857142857144</ele><time>2026-04-11T15:46:05Z</time></trkpt><trkpt lat="43.011273606811756" lon="11.526952042574178"><ele>338.0</ele><time>2026-04-11T15:46:07Z</time></trkpt><trkpt lat="43.01133689603882" lon="11.526962668694614"><ele>338.0</ele><time>2026-04-11T15:46:09Z</time></trkpt><trkpt lat="43.01139996189668" lon="11.526970429528507"><ele>338.0</ele><time>2026-04-11T15:46:11Z</time></trkpt><trkpt lat="43.011465923103586" lon="11.52697351238359"><ele>338.0</ele><time>2026-04-11T15:46:13Z</time></trkpt><trkpt lat="43.01153331692329" lon="11.526977983820464"><ele>338.0</ele><time>2026-04-11T15:46:15Z</time></trkpt><trkpt lat="43.011600080178425" lon="11.526975990168378"><ele>338.0</ele><time>2026-04-11T15:46:16.999Z</time></trkpt><trkpt lat="43.01166791282144" lon="11.526973058282474"><ele>338.0</ele><time>2026-04-11T15:46:18.999Z</time></trkpt><trkpt lat="43.011739990918095" lon="11.526982596237819"><ele>338.0</ele><time>2026-04-11T15:46:20.999Z</time></trkpt><trkpt lat="43.011813128161705" lon="11.526980785350943"><ele>338.7142857142857</ele><time>2026-04-11T15:46:22.999Z</time></trkpt><trkpt lat="43.01188651450634" lon="11.526974970774143"><ele>339.42857142857144</ele><time>2026-04-11T15:46:24.999Z</time></trkpt><trkpt lat="43.01196092760831" lon="11.526975585491867"><ele>340.1428571428571</ele><time>2026-04-11T15:46:26.999Z</time></trkpt><trkpt lat="43.012033714454866" lon="11.526966574645414"><ele>340.8571428571429</ele><time>2026-04-11T15:46:28.999Z</time></trkpt><trkpt lat="43.01210636453913" lon="11.526953123670111"><ele>341.57142857142856</ele><time>2026-04-11T15:46:30.999Z</time></trkpt><trkpt lat="43.01217924141664" lon="11.526946628830297"><ele>342.2857142857143</ele><time>2026-04-11T15:46:32.999Z</time></trkpt><trkpt lat="43.01225009665215" lon="11.526932326620832"><ele>343.0</ele><time>2026-04-11T15:46:34.999Z</time></trkpt><trkpt lat="43.01232120137088" lon="11.52691106664985"><ele>343.0</ele><time>2026-04-11T15:46:36.999Z</time></trkpt><trkpt lat="43.0123982624375" lon="11.526880994794245"><ele>343.0</ele><time>2026-04-11T15:46:38.999Z</time></trkpt><trkpt lat="43.012478422589815" lon="11.526867661483266"><ele>343.0</ele><time>2026-04-11T15:46:40.999Z</time></trkpt><trkpt lat="43.012562259343674" lon="11.52685219514354"><ele>343.0</ele><time>2026-04-11T15:46:42.999Z</time></trkpt><trkpt lat="43.01264429005357" lon="11.526833197993918"><ele>343.0</ele><time>2026-04-11T15:46:44.999Z</time></trkpt><trkpt lat="43.01272966288979" lon="11.526805192209688"><ele>343.0</ele><time>2026-04-11T15:46:47Z</time></trkpt><trkpt lat="43.012819098373924" lon="11.526780862173448"><ele>343.59999999999997</ele><time>2026-04-11T15:46:49Z</time></trkpt><trkpt lat="43.01291074957165" lon="11.526759418640069"><ele>344.2</ele><time>2026-04-11T15:46:51Z</time></trkpt><trkpt lat="43.012999942160334" lon="11.526735249908645"><ele>344.8</ele><time>2026-04-11T15:46:53Z</time></trkpt><trkpt lat="43.01309401000338" lon="11.526716622750408"><ele>345.4</ele><time>2026-04-11T15:46:55Z</time></trkpt><trkpt lat="43.01318704661067" lon="11.526721581801231"><ele>346.0</ele><time>2026-04-11T15:46:57Z</time></trkpt><trkpt lat="43.013277916426254" lon="11.526725061468055"><ele>346.0</ele><time>2026-04-11T15:46:59Z</time></trkpt><trkpt lat="43.01337233186954" lon="11.526725714528519"><ele>346.0</ele><time>2026-04-11T15:47:01Z</time></trkpt><trkpt lat="43.013468509034794" lon="11.526721139133606"><ele>346.0</ele><time>2026-04-11T15:47:03Z</time></trkpt><trkpt lat="43.013568027846695" lon="11.526722004379884"><ele>346.0</ele><time>2026-04-11T15:47:05Z</time></trkpt><trkpt lat="43.013659737954825" lon="11.526719486529611"><ele>346.0</ele><time>2026-04-11T15:47:07Z</time></trkpt><trkpt lat="43.013746821650535" lon="11.526722656666815"><ele>346.0</ele><time>2026-04-11T15:47:09Z</time></trkpt><trkpt lat="43.01382660651113" lon="11.52672708366562"><ele>346.0</ele><time>2026-04-11T15:47:11Z</time></trkpt><trkpt lat="43.01390725783302" lon="11.526722859788364"><ele>346.0</ele><time>2026-04-11T15:47:13Z</time></trkpt><trkpt lat="43.01398746964208" lon="11.526690159600742"><ele>346.0</ele><time>2026-04-11T15:47:15Z</time></trkpt><trkpt lat="43.01405724944014" lon="11.52664097085952"><ele>346.0</ele><time>2026-04-11T15:47:17Z</time></trkpt><trkpt lat="43.014125530934955" lon="11.526572401956551"><ele>346.0</ele><time>2026-04-11T15:47:19Z</time></trkpt><trkpt lat="43.0141868935779" lon="11.526495278012602"><ele>346.16666666666663</ele><time>2026-04-11T15:47:21Z</time></trkpt><trkpt lat="43.014247502658016" lon="11.526416163149596"><ele>346.3333333333333</ele><time>2026-04-11T15:47:23Z</time></trkpt><trkpt lat="43.0142998988258" lon="11.526334911130377"><ele>346.5</ele><time>2026-04-11T15:47:25Z</time></trkpt><trkpt lat="43.0143390604231" lon="11.526238813572085"><ele>346.6666666666667</ele><time>2026-04-11T15:47:27Z</time></trkpt><trkpt lat="43.014382100735524" lon="11.526145450939326"><ele>346.83333333333337</ele><time>2026-04-11T15:47:29Z</time></trkpt><trkpt lat="43.01442894353965" lon="11.52605732124852"><ele>347.0</ele><time>2026-04-11T15:47:31Z</time></trkpt><trkpt lat="43.01447364529738" lon="11.525971811139597"><ele>349.0</ele><time>2026-04-11T15:47:33Z</time></trkpt><trkpt lat="43.01451622168267" lon="11.52589064111047"><ele>351.0</ele><time>2026-04-11T15:47:35Z</time></trkpt><trkpt lat="43.01456736751753" lon="11.52581737746274"><ele>353.0</ele><time>2026-04-11T15:47:37Z</time></trkpt><trkpt lat="43.014613479158356" lon="11.525750308997381"><ele>355.0</ele><time>2026-04-11T15:47:39Z</time></trkpt><trkpt lat="43.01465994260008" lon="11.52568029159652"><ele>357.0</ele><time>2026-04-11T15:47:41Z</time></trkpt><trkpt lat="43.0147125271123" lon="11.525627588548803"><ele>359.0</ele><time>2026-04-11T15:47:43Z</time></trkpt><trkpt lat="43.01478591390782" lon="11.525559847885884"><ele>361.0</ele><time>2026-04-11T15:47:46Z</time></trkpt><trkpt lat="43.01485350208359" lon="11.525493590480737"><ele>361.0</ele><time>2026-04-11T15:47:49Z</time></trkpt><trkpt lat="43.014924345756704" lon="11.525426632749888"><ele>361.0</ele><time>2026-04-11T15:47:52Z</time></trkpt><trkpt lat="43.01499257914863" lon="11.525369588930355"><ele>361.0</ele><time>2026-04-11T15:47:55Z</time></trkpt><trkpt lat="43.01505916328998" lon="11.525324164044612"><ele>361.0</ele><time>2026-04-11T15:47:58Z</time></trkpt><trkpt lat="43.015119485841055" lon="11.525280610961142"><ele>361.0</ele><time>2026-04-11T15:48:01Z</time></trkpt><trkpt lat="43.01518043033461" lon="11.525225729115142"><ele>361.0</ele><time>2026-04-11T15:48:04Z</time></trkpt><trkpt lat="43.015248134178755" lon="11.525190823780425"><ele>361.0</ele><time>2026-04-11T15:48:07Z</time></trkpt><trkpt lat="43.01530832893752" lon="11.525153229518622"><ele>361.0</ele><time>2026-04-11T15:48:10Z</time></trkpt><trkpt lat="43.01538106735052" lon="11.525122759505539"><ele>361.0</ele><time>2026-04-11T15:48:13Z</time></trkpt><trkpt lat="43.015442192198435" lon="11.52508761253783"><ele>361.0</ele><time>2026-04-11T15:48:16Z</time></trkpt><trkpt lat="43.015502441976615" lon="11.52505424827133"><ele>361.0</ele><time>2026-04-11T15:48:19Z</time></trkpt><trkpt lat="43.015570536309475" lon="11.525016575017947"><ele>361.0</ele><time>2026-04-11T15:48:22Z</time></trkpt><trkpt lat="43.01565110061788" lon="11.524969871273216"><ele>361.0</ele><time>2026-04-11T15:48:24.999Z</time></trkpt><trkpt lat="43.0157159113732" lon="11.5249241459854"><ele>361.0</ele><time>2026-04-11T15:48:27.999Z</time></trkpt><trkpt lat="43.01578329894517" lon="11.524888548873923"><ele>361.0</ele><time>2026-04-11T15:48:29.999Z</time></trkpt><trkpt lat="43.015859256464935" lon="11.5247895938031"><ele>361.0</ele><time>2026-04-11T15:48:32.999Z</time></trkpt><trkpt lat="43.0159100014567" lon="11.524703516271748"><ele>361.0</ele><time>2026-04-11T15:48:34.999Z</time></trkpt><trkpt lat="43.01595766604468" lon="11.52458613269063"><ele>361.0</ele><time>2026-04-11T15:48:36.999Z</time></trkpt><trkpt lat="43.01600809981424" lon="11.524459719699918"><ele>362.6</ele><time>2026-04-11T15:48:38.999Z</time></trkpt><trkpt lat="43.01606286547259" lon="11.52433513735418"><ele>364.20000000000005</ele><time>2026-04-11T15:48:40.999Z</time></trkpt><trkpt lat="43.01611293063996" lon="11.524222063548066"><ele>365.79999999999995</ele><time>2026-04-11T15:48:42.999Z</time></trkpt><trkpt lat="43.01617329003625" lon="11.524106112183885"><ele>367.4</ele><time>2026-04-11T15:48:44.999Z</time></trkpt><trkpt lat="43.0162356410824" lon="11.524005855456595"><ele>369.0</ele><time>2026-04-11T15:48:46.999Z</time></trkpt><trkpt lat="43.01628252280884" lon="11.523895160701072"><ele>369.0</ele><time>2026-04-11T15:48:48.999Z</time></trkpt><trkpt lat="43.01634508201893" lon="11.523800612948508"><ele>369.0</ele><time>2026-04-11T15:48:50.999Z</time></trkpt><trkpt lat="43.01638152978417" lon="11.523704679323735"><ele>369.0</ele><time>2026-04-11T15:48:53Z</time></trkpt><trkpt lat="43.01641456516699" lon="11.523620068519197"><ele>369.0</ele><time>2026-04-11T15:48:55Z</time></trkpt><trkpt lat="43.01645307123553" lon="11.523544292145484"><ele>369.0</ele><time>2026-04-11T15:48:57Z</time></trkpt><trkpt lat="43.01649612360781" lon="11.523473892480409"><ele>369.0</ele><time>2026-04-11T15:48:59Z</time></trkpt><trkpt lat="43.016561807921384" lon="11.523381723289543"><ele>367.8333333333333</ele><time>2026-04-11T15:49:02Z</time></trkpt><trkpt lat="43.01661626176807" lon="11.5232870712481"><ele>366.6666666666667</ele><time>2026-04-11T15:49:05Z</time></trkpt><trkpt lat="43.01667223352277" lon="11.523206736976285"><ele>365.5</ele><time>2026-04-11T15:49:08Z</time></trkpt><trkpt lat="43.01672012938458" lon="11.523137483105794"><ele>364.33333333333337</ele><time>2026-04-11T15:49:11Z</time></trkpt><trkpt lat="43.016770130606545" lon="11.523071719300033"><ele>363.1666666666667</ele><time>2026-04-11T15:49:14Z</time></trkpt><trkpt lat="43.01681502029388" lon="11.522997031122806"><ele>362.0</ele><time>2026-04-11T15:49:17Z</time></trkpt><trkpt lat="43.01687762041711" lon="11.522917131912227"><ele>363.42857142857144</ele><time>2026-04-11T15:49:20Z</time></trkpt><trkpt lat="43.016937401477605" lon="11.522859155719676"><ele>364.85714285714283</ele><time>2026-04-11T15:49:22Z</time></trkpt><trkpt lat="43.0169960150939" lon="11.522810356722696"><ele>366.28571428571433</ele><time>2026-04-11T15:49:24Z</time></trkpt><trkpt lat="43.01705150679586" lon="11.522760276827222"><ele>367.7142857142857</ele><time>2026-04-11T15:49:26Z</time></trkpt><trkpt lat="43.01711163738225" lon="11.522716694939955"><ele>369.14285714285717</ele><time>2026-04-11T15:49:28Z</time></trkpt><trkpt lat="43.01717132212028" lon="11.522681877304185"><ele>370.5714285714286</ele><time>2026-04-11T15:49:30Z</time></trkpt><trkpt lat="43.01723326364791" lon="11.52263227294577"><ele>372.0</ele><time>2026-04-11T15:49:32Z</time></trkpt><trkpt lat="43.01729352047703" lon="11.522587516338348"><ele>372.00000000000006</ele><time>2026-04-11T15:49:34Z</time></trkpt><trkpt lat="43.01735579229149" lon="11.522548575812309"><ele>372.0</ele><time>2026-04-11T15:49:36Z</time></trkpt><trkpt lat="43.017407983117934" lon="11.522493189143251"><ele>372.0</ele><time>2026-04-11T15:49:38Z</time></trkpt><trkpt lat="43.01747769137774" lon="11.52242349453456"><ele>372.0</ele><time>2026-04-11T15:49:41Z</time></trkpt><trkpt lat="43.017545215471465" lon="11.522373044414902"><ele>372.0</ele><time>2026-04-11T15:49:44Z</time></trkpt><trkpt lat="43.01760142654349" lon="11.52233367179974"><ele>372.00000000000006</ele><time>2026-04-11T15:49:47Z</time></trkpt><trkpt lat="43.01764987980997" lon="11.522277937330923"><ele>372.0</ele><time>2026-04-11T15:49:50Z</time></trkpt><trkpt lat="43.01771077764572" lon="11.5222193580221"><ele>371.0</ele><time>2026-04-11T15:49:53Z</time></trkpt><trkpt lat="43.01776855461701" lon="11.522155086149475"><ele>370.0</ele><time>2026-04-11T15:49:56Z</time></trkpt><trkpt lat="43.01782765484754" lon="11.522094260017663"><ele>369.0</ele><time>2026-04-11T15:49:59Z</time></trkpt><trkpt lat="43.01788479379037" lon="11.52201183188827"><ele>368.0</ele><time>2026-04-11T15:50:02Z</time></trkpt><trkpt lat="43.01795272067705" lon="11.521928918711495"><ele>367.0</ele><time>2026-04-11T15:50:05Z</time></trkpt><trkpt lat="43.01800908632837" lon="11.52184942659867"><ele>366.0</ele><time>2026-04-11T15:50:08Z</time></trkpt><trkpt lat="43.01806619752481" lon="11.52177841780638"><ele>367.2857142857143</ele><time>2026-04-11T15:50:11Z</time></trkpt><trkpt lat="43.018117050325166" lon="11.521717519721616"><ele>368.57142857142856</ele><time>2026-04-11T15:50:14Z</time></trkpt><trkpt lat="43.01816927051082" lon="11.521654731030736"><ele>369.8571428571429</ele><time>2026-04-11T15:50:18Z</time></trkpt><trkpt lat="43.01822667269989" lon="11.521611635592354"><ele>371.1428571428571</ele><time>2026-04-11T15:50:22Z</time></trkpt><trkpt lat="43.01828601241495" lon="11.521554779161407"><ele>372.4285714285714</ele><time>2026-04-11T15:50:26Z</time></trkpt><trkpt lat="43.018356796713086" lon="11.521498870235337"><ele>373.7142857142857</ele><time>2026-04-11T15:50:30Z</time></trkpt><trkpt lat="43.018425984164374" lon="11.521462500451667"><ele>375.0</ele><time>2026-04-11T15:50:33Z</time></trkpt><trkpt lat="43.018499932355134" lon="11.521415598002923"><ele>375.0</ele><time>2026-04-11T15:50:36Z</time></trkpt><trkpt lat="43.018569624899776" lon="11.521364564743594"><ele>375.0</ele><time>2026-04-11T15:50:39Z</time></trkpt><trkpt lat="43.01864236300691" lon="11.521325713670556"><ele>375.0</ele><time>2026-04-11T15:50:42Z</time></trkpt><trkpt lat="43.01871095264061" lon="11.52127796980638"><ele>375.0</ele><time>2026-04-11T15:50:45Z</time></trkpt><trkpt lat="43.01877696471443" lon="11.521232493602229"><ele>375.0</ele><time>2026-04-11T15:50:48Z</time></trkpt><trkpt lat="43.01884713807355" lon="11.52119481912988"><ele>375.0</ele><time>2026-04-11T15:50:50.999Z</time></trkpt><trkpt lat="43.01892823680159" lon="11.521160585389024"><ele>376.3333333333333</ele><time>2026-04-11T15:50:53.999Z</time></trkpt><trkpt lat="43.019012291616484" lon="11.521110359527222"><ele>377.6666666666667</ele><time>2026-04-11T15:50:56.999Z</time></trkpt><trkpt lat="43.01906794013593" lon="11.5210670365977"><ele>379.0</ele><time>2026-04-11T15:50:59Z</time></trkpt><trkpt lat="43.019144924559534" lon="11.521027964190337"><ele>380.33333333333337</ele><time>2026-04-11T15:51:02Z</time></trkpt><trkpt lat="43.01920393296916" lon="11.520997325964764"><ele>381.6666666666667</ele><time>2026-04-11T15:51:04Z</time></trkpt><trkpt lat="43.01928257076953" lon="11.520944740281708"><ele>383.0</ele><time>2026-04-11T15:51:07Z</time></trkpt><trkpt lat="43.01936603379785" lon="11.52089598489772"><ele>383.0</ele><time>2026-04-11T15:51:10Z</time></trkpt><trkpt lat="43.01942880629288" lon="11.520856508711566"><ele>383.0</ele><time>2026-04-11T15:51:12Z</time></trkpt><trkpt lat="43.0195115031325" lon="11.520805898503339"><ele>383.0</ele><time>2026-04-11T15:51:15Z</time></trkpt><trkpt lat="43.01957192191057" lon="11.520759837709024"><ele>383.0</ele><time>2026-04-11T15:51:17Z</time></trkpt><trkpt lat="43.01965743049502" lon="11.520710943400507"><ele>383.0</ele><time>2026-04-11T15:51:20Z</time></trkpt><trkpt lat="43.01972463799299" lon="11.520684113039463"><ele>383.0</ele><time>2026-04-11T15:51:22Z</time></trkpt><trkpt lat="43.01978861294407" lon="11.520640275466919"><ele>383.0</ele><time>2026-04-11T15:51:24Z</time></trkpt><trkpt lat="43.01985226615353" lon="11.52059482794718"><ele>383.0</ele><time>2026-04-11T15:51:26Z</time></trkpt><trkpt lat="43.01992342210808" lon="11.520552639082226"><ele>383.0</ele><time>2026-04-11T15:51:28Z</time></trkpt><trkpt lat="43.01999050140676" lon="11.52051044978067"><ele>383.0</ele><time>2026-04-11T15:51:30Z</time></trkpt><trkpt lat="43.020070522437386" lon="11.520473740790607"><ele>383.0</ele><time>2026-04-11T15:51:32Z</time></trkpt><trkpt lat="43.02012997769194" lon="11.520427380491627"><ele>383.0</ele><time>2026-04-11T15:51:34Z</time></trkpt><trkpt lat="43.02019296295719" lon="11.520372784022902"><ele>383.7142857142857</ele><time>2026-04-11T15:51:36Z</time></trkpt><trkpt lat="43.02024343676111" lon="11.520305832187152"><ele>384.42857142857144</ele><time>2026-04-11T15:51:38Z</time></trkpt><trkpt lat="43.02029563921205" lon="11.52023353174551"><ele>385.1428571428571</ele><time>2026-04-11T15:51:40Z</time></trkpt><trkpt lat="43.02034035740446" lon="11.520157751483605"><ele>385.8571428571429</ele><time>2026-04-11T15:51:42Z</time></trkpt><trkpt lat="43.02038240959829" lon="11.5200758174646"><ele>386.5714285714286</ele><time>2026-04-11T15:51:44Z</time></trkpt><trkpt lat="43.020419235811666" lon="11.519984033670367"><ele>387.2857142857143</ele><time>2026-04-11T15:51:46Z</time></trkpt><trkpt lat="43.02045997893804" lon="11.51988983070921"><ele>388.0</ele><time>2026-04-11T15:51:48Z</time></trkpt><trkpt lat="43.02049873878392" lon="11.51978882724086"><ele>388.00000000000006</ele><time>2026-04-11T15:51:50Z</time></trkpt><trkpt lat="43.02054159006505" lon="11.519680961212865"><ele>388.0</ele><time>2026-04-11T15:51:52Z</time></trkpt><trkpt lat="43.02058500217569" lon="11.519579462301584"><ele>388.0</ele><time>2026-04-11T15:51:54Z</time></trkpt><trkpt lat="43.02062983735359" lon="11.519479374689158"><ele>388.0</ele><time>2026-04-11T15:51:56Z</time></trkpt><trkpt lat="43.02068068550255" lon="11.519378682679097"><ele>388.00000000000006</ele><time>2026-04-11T15:51:58Z</time></trkpt><trkpt lat="43.020726644094346" lon="11.519263556730237"><ele>388.0</ele><time>2026-04-11T15:52:00Z</time></trkpt><trkpt lat="43.02077998704255" lon="11.519139889622313"><ele>387.79999999999995</ele><time>2026-04-11T15:52:02Z</time></trkpt><trkpt lat="43.02083584968078" lon="11.519007376316113"><ele>387.6</ele><time>2026-04-11T15:52:04Z</time></trkpt><trkpt lat="43.020888909138634" lon="11.51887861589997"><ele>387.4</ele><time>2026-04-11T15:52:06Z</time></trkpt><trkpt lat="43.02095110554896" lon="11.518749041796104"><ele>387.20000000000005</ele><time>2026-04-11T15:52:08Z</time></trkpt><trkpt lat="43.0210070851992" lon="11.518625272965254"><ele>387.0</ele><time>2026-04-11T15:52:10Z</time></trkpt><trkpt lat="43.021066152369336" lon="11.518519830243841"><ele>387.0</ele><time>2026-04-11T15:52:12Z</time></trkpt><trkpt lat="43.02111470317857" lon="11.51840223684916"><ele>387.0</ele><time>2026-04-11T15:52:14Z</time></trkpt><trkpt lat="43.02116420804281" lon="11.518284387442325"><ele>387.0</ele><time>2026-04-11T15:52:16Z</time></trkpt><trkpt lat="43.02121000985392" lon="11.518157008449728"><ele>387.0</ele><time>2026-04-11T15:52:18Z</time></trkpt><trkpt lat="43.0212673080854" lon="11.518029538819274"><ele>387.0</ele><time>2026-04-11T15:52:20Z</time></trkpt><trkpt lat="43.02132380191109" lon="11.517899651119246"><ele>387.6666666666667</ele><time>2026-04-11T15:52:22Z</time></trkpt><trkpt lat="43.021404766936094" lon="11.517780185283895"><ele>388.33333333333337</ele><time>2026-04-11T15:52:24Z</time></trkpt><trkpt lat="43.0214550004244" lon="11.517725597369516"><ele>389.0</ele><time>2026-04-11T15:52:25Z</time></trkpt><trkpt lat="43.02151309266936" lon="11.517680557422967"><ele>389.6666666666667</ele><time>2026-04-11T15:52:26Z</time></trkpt><trkpt lat="43.02157181913255" lon="11.517629207903124"><ele>390.33333333333337</ele><time>2026-04-11T15:52:27Z</time></trkpt><trkpt lat="43.02162773065926" lon="11.517582298975961"><ele>391.0</ele><time>2026-04-11T15:52:28Z</time></trkpt><trkpt lat="43.02168445051069" lon="11.517531057743353"><ele>388.99999999999994</ele><time>2026-04-11T15:52:29Z</time></trkpt><trkpt lat="43.021743583773386" lon="11.517477205183734"><ele>387.0</ele><time>2026-04-11T15:52:30Z</time></trkpt><trkpt lat="43.02180313718623" lon="11.517423354165059"><ele>385.0</ele><time>2026-04-11T15:52:31Z</time></trkpt><trkpt lat="43.02186453563319" lon="11.517369882976395"><ele>383.0</ele><time>2026-04-11T15:52:32Z</time></trkpt><trkpt lat="43.02192780369963" lon="11.51732263327738"><ele>381.0</ele><time>2026-04-11T15:52:33Z</time></trkpt><trkpt lat="43.021990368943534" lon="11.517272230657937"><ele>378.99999999999994</ele><time>2026-04-11T15:52:34Z</time></trkpt><trkpt lat="43.022051144805296" lon="11.51722177057933"><ele>377.0</ele><time>2026-04-11T15:52:35Z</time></trkpt><trkpt lat="43.022104826441975" lon="11.517169728686246"><ele>377.0</ele><time>2026-04-11T15:52:36Z</time></trkpt><trkpt lat="43.02215810334027" lon="11.51711967834505"><ele>377.0</ele><time>2026-04-11T15:52:37Z</time></trkpt><trkpt lat="43.022245683414404" lon="11.517026627815968"><ele>377.0</ele><time>2026-04-11T15:52:39Z</time></trkpt><trkpt lat="43.022316433480924" lon="11.516943757422293"><ele>377.0</ele><time>2026-04-11T15:52:41Z</time></trkpt><trkpt lat="43.022353698712905" lon="11.516850640668201"><ele>377.0</ele><time>2026-04-11T15:52:43Z</time></trkpt><trkpt lat="43.022376277880326" lon="11.516763053473115"><ele>377.0</ele><time>2026-04-11T15:52:45Z</time></trkpt><trkpt lat="43.02240099534159" lon="11.516655807170975"><ele>377.99999999999994</ele><time>2026-04-11T15:52:48Z</time></trkpt><trkpt lat="43.02240992100853" lon="11.516552716714012"><ele>379.0</ele><time>2026-04-11T15:52:51Z</time></trkpt><trkpt lat="43.022417914142515" lon="11.516466971901806"><ele>380.0</ele><time>2026-04-11T15:52:54Z</time></trkpt><trkpt lat="43.022421924340655" lon="11.516376092067844"><ele>381.0</ele><time>2026-04-11T15:52:57Z</time></trkpt><trkpt lat="43.02242343886551" lon="11.516283349522066"><ele>382.0</ele><time>2026-04-11T15:53:00Z</time></trkpt><trkpt lat="43.02241975129677" lon="11.516178873095182"><ele>382.99999999999994</ele><time>2026-04-11T15:53:04Z</time></trkpt><trkpt lat="43.02243289641056" lon="11.516071187104997"><ele>384.0</ele><time>2026-04-11T15:53:09Z</time></trkpt><trkpt lat="43.02244054380397" lon="11.515955145075374"><ele>384.8333333333333</ele><time>2026-04-11T15:53:14Z</time></trkpt><trkpt lat="43.02243752325797" lon="11.51585234955758"><ele>385.66666666666663</ele><time>2026-04-11T15:53:18Z</time></trkpt><trkpt lat="43.02244879730078" lon="11.515762179116344"><ele>386.5</ele><time>2026-04-11T15:53:21Z</time></trkpt><trkpt lat="43.02243498544614" lon="11.515665826560102"><ele>387.3333333333333</ele><time>2026-04-11T15:53:25Z</time></trkpt><trkpt lat="43.02243962298915" lon="11.515563281503393"><ele>388.16666666666663</ele><time>2026-04-11T15:53:29Z</time></trkpt><trkpt lat="43.02246907830942" lon="11.515459018495552"><ele>389.0</ele><time>2026-04-11T15:53:33Z</time></trkpt><trkpt lat="43.022469479688056" lon="11.515350990061583"><ele>388.8571428571429</ele><time>2026-04-11T15:53:37Z</time></trkpt><trkpt lat="43.02247491867258" lon="11.515248263176922"><ele>388.71428571428567</ele><time>2026-04-11T15:53:41Z</time></trkpt><trkpt lat="43.02248526616751" lon="11.515147811061613"><ele>388.57142857142856</ele><time>2026-04-11T15:53:45Z</time></trkpt><trkpt lat="43.022507000959365" lon="11.515049229528088"><ele>388.42857142857144</ele><time>2026-04-11T15:53:49Z</time></trkpt><trkpt lat="43.02253289785163" lon="11.514959456961916"><ele>388.28571428571433</ele><time>2026-04-11T15:53:53Z</time></trkpt><trkpt lat="43.02256220786591" lon="11.514868008302724"><ele>388.1428571428571</ele><time>2026-04-11T15:53:57Z</time></trkpt><trkpt lat="43.02260110001856" lon="11.514782550885723"><ele>388.0</ele><time>2026-04-11T15:54:01Z</time></trkpt><trkpt lat="43.022645128533014" lon="11.51469268829846"><ele>388.0</ele><time>2026-04-11T15:54:05Z</time></trkpt><trkpt lat="43.02267567527972" lon="11.514613890275683"><ele>388.0</ele><time>2026-04-11T15:54:08Z</time></trkpt><trkpt lat="43.0227188351917" lon="11.514538114964093"><ele>388.0</ele><time>2026-04-11T15:54:12Z</time></trkpt><trkpt lat="43.022757270196166" lon="11.514446408407949"><ele>388.0</ele><time>2026-04-11T15:54:16Z</time></trkpt><trkpt lat="43.02279500882579" lon="11.51436116230547"><ele>388.0</ele><time>2026-04-11T15:54:20Z</time></trkpt><trkpt lat="43.02283359605782" lon="11.514269979522327"><ele>388.0</ele><time>2026-04-11T15:54:24Z</time></trkpt><trkpt lat="43.022866017742324" lon="11.514183656871632"><ele>388.0</ele><time>2026-04-11T15:54:28Z</time></trkpt><trkpt lat="43.022902145841456" lon="11.514099790356083"><ele>388.7142857142857</ele><time>2026-04-11T15:54:32Z</time></trkpt><trkpt lat="43.02295350179529" lon="11.514021715253437"><ele>389.42857142857144</ele><time>2026-04-11T15:54:36Z</time></trkpt><trkpt lat="43.02300368993329" lon="11.513951033977724"><ele>390.14285714285717</ele><time>2026-04-11T15:54:40Z</time></trkpt><trkpt lat="43.02305985087546" lon="11.513896697107434"><ele>390.8571428571429</ele><time>2026-04-11T15:54:44Z</time></trkpt><trkpt lat="43.023123770374816" lon="11.513839933135158"><ele>391.57142857142856</ele><time>2026-04-11T15:54:48Z</time></trkpt><trkpt lat="43.02319024406189" lon="11.513795115714384"><ele>392.28571428571433</ele><time>2026-04-11T15:54:52Z</time></trkpt><trkpt lat="43.02326106764092" lon="11.51374406261969"><ele>393.0</ele><time>2026-04-11T15:54:56Z</time></trkpt><trkpt lat="43.023323688379996" lon="11.513701294617908"><ele>394.0</ele><time>2026-04-11T15:55:00Z</time></trkpt><trkpt lat="43.02338928773012" lon="11.513661460688834"><ele>395.0</ele><time>2026-04-11T15:55:04Z</time></trkpt><trkpt lat="43.0234587644031" lon="11.513620637977958"><ele>396.0</ele><time>2026-04-11T15:55:08Z</time></trkpt><trkpt lat="43.023524822381475" lon="11.513575531481116"><ele>397.0</ele><time>2026-04-11T15:55:12Z</time></trkpt><trkpt lat="43.02359139382215" lon="11.51352908358735"><ele>398.0</ele><time>2026-04-11T15:55:16Z</time></trkpt><trkpt lat="43.0236639698044" lon="11.51348285493444"><ele>399.0</ele><time>2026-04-11T15:55:20Z</time></trkpt><trkpt lat="43.023730572372365" lon="11.513434565667703"><ele>399.0</ele><time>2026-04-11T15:55:24Z</time></trkpt><trkpt lat="43.02379877588745" lon="11.513391030206833"><ele>399.0</ele><time>2026-04-11T15:55:28Z</time></trkpt><trkpt lat="43.0238700591983" lon="11.51334521178973"><ele>399.0</ele><time>2026-04-11T15:55:32Z</time></trkpt><trkpt lat="43.023935699586886" lon="11.513296415775711"><ele>399.0</ele><time>2026-04-11T15:55:36Z</time></trkpt><trkpt lat="43.02400686555382" lon="11.513259689728791"><ele>399.0</ele><time>2026-04-11T15:55:40Z</time></trkpt><trkpt lat="43.02407752844271" lon="11.513225704577351"><ele>399.0</ele><time>2026-04-11T15:55:44Z</time></trkpt><trkpt lat="43.024151485040484" lon="11.513175827597763"><ele>400.5</ele><time>2026-04-11T15:55:48Z</time></trkpt><trkpt lat="43.02421801599221" lon="11.513129421139421"><ele>402.0</ele><time>2026-04-11T15:55:52Z</time></trkpt><trkpt lat="43.02428924604596" lon="11.5130744580229"><ele>403.5</ele><time>2026-04-11T15:55:56Z</time></trkpt><trkpt lat="43.02435450075057" lon="11.513025963356874"><ele>405.0</ele><time>2026-04-11T15:56:00Z</time></trkpt><trkpt lat="43.02442312563051" lon="11.512982157051589"><ele>406.5</ele><time>2026-04-11T15:56:04Z</time></trkpt><trkpt lat="43.024492293759465" lon="11.512946968514077"><ele>408.0</ele><time>2026-04-11T15:56:08Z</time></trkpt><trkpt lat="43.02455773546411" lon="11.51290257661324"><ele>408.0</ele><time>2026-04-11T15:56:12Z</time></trkpt><trkpt lat="43.02463361451472" lon="11.512871378076476"><ele>408.0</ele><time>2026-04-11T15:56:16Z</time></trkpt><trkpt lat="43.024689619680785" lon="11.512828182144858"><ele>408.0</ele><time>2026-04-11T15:56:19Z</time></trkpt><trkpt lat="43.024759610161276" lon="11.512772103655529"><ele>408.0</ele><time>2026-04-11T15:56:23Z</time></trkpt><trkpt lat="43.0248239089417" lon="11.512717674941383"><ele>408.0</ele><time>2026-04-11T15:56:27Z</time></trkpt><trkpt lat="43.02488393171103" lon="11.512680543310244"><ele>408.0</ele><time>2026-04-11T15:56:30Z</time></trkpt><trkpt lat="43.024958342016745" lon="11.512638721867011"><ele>408.0</ele><time>2026-04-11T15:56:34Z</time></trkpt><trkpt lat="43.02501770440721" lon="11.512604493561978"><ele>409.0</ele><time>2026-04-11T15:56:37Z</time></trkpt><trkpt lat="43.025083421925274" lon="11.512557911301743"><ele>410.0</ele><time>2026-04-11T15:56:41Z</time></trkpt><trkpt lat="43.02514944592752" lon="11.512504478439906"><ele>411.0</ele><time>2026-04-11T15:56:45Z</time></trkpt><trkpt lat="43.02520625257898" lon="11.512454659740827"><ele>412.0</ele><time>2026-04-11T15:56:48Z</time></trkpt><trkpt lat="43.02525795877003" lon="11.512388739580025"><ele>413.0</ele><time>2026-04-11T15:56:51Z</time></trkpt><trkpt lat="43.02530707897487" lon="11.512321553316669"><ele>414.0</ele><time>2026-04-11T15:56:54Z</time></trkpt><trkpt lat="43.02536415299441" lon="11.512261551519947"><ele>415.0</ele><time>2026-04-11T15:56:57Z</time></trkpt><trkpt lat="43.02541231124688" lon="11.512199433634366"><ele>415.0</ele><time>2026-04-11T15:56:59.999Z</time></trkpt><trkpt lat="43.02546419296497" lon="11.51214113857423"><ele>415.0</ele><time>2026-04-11T15:57:02.999Z</time></trkpt><trkpt lat="43.02552336438558" lon="11.512065030028827"><ele>415.0</ele><time>2026-04-11T15:57:06.999Z</time></trkpt><trkpt lat="43.02558013935383" lon="11.51199755867761"><ele>415.0</ele><time>2026-04-11T15:57:10.999Z</time></trkpt><trkpt lat="43.0256485319158" lon="11.511942591741514"><ele>415.0</ele><time>2026-04-11T15:57:14.999Z</time></trkpt><trkpt lat="43.0256874248165" lon="11.511870973599837"><ele>415.0</ele><time>2026-04-11T15:57:18Z</time></trkpt><trkpt lat="43.02573918242638" lon="11.511803430055185"><ele>415.0</ele><time>2026-04-11T15:57:21Z</time></trkpt><trkpt lat="43.025795009582026" lon="11.511762597941164"><ele>415.42857142857144</ele><time>2026-04-11T15:57:24Z</time></trkpt><trkpt lat="43.02585441800569" lon="11.51171468925933"><ele>415.8571428571429</ele><time>2026-04-11T15:57:27Z</time></trkpt><trkpt lat="43.02592144831751" lon="11.511690751943247"><ele>416.2857142857143</ele><time>2026-04-11T15:57:30Z</time></trkpt><trkpt lat="43.025987825409224" lon="11.51166373460726"><ele>416.7142857142857</ele><time>2026-04-11T15:57:33Z</time></trkpt><trkpt lat="43.026055270989104" lon="11.511635272450246"><ele>417.1428571428571</ele><time>2026-04-11T15:57:36Z</time></trkpt><trkpt lat="43.02613265831914" lon="11.511611623052968"><ele>417.57142857142856</ele><time>2026-04-11T15:57:39Z</time></trkpt><trkpt lat="43.026198673300485" lon="11.511585322679823"><ele>418.0</ele><time>2026-04-11T15:57:42Z</time></trkpt><trkpt lat="43.02626039664375" lon="11.511560157039284"><ele>418.0</ele><time>2026-04-11T15:57:45Z</time></trkpt><trkpt lat="43.02635506782054" lon="11.511554554553292"><ele>418.0</ele><time>2026-04-11T15:57:49Z</time></trkpt><trkpt lat="43.0264733365236" lon="11.511527665162713"><ele>418.0</ele><time>2026-04-11T15:57:54Z</time></trkpt><trkpt lat="43.02660647266334" lon="11.51151917981382"><ele>418.0</ele><time>2026-04-11T15:58:00Z</time></trkpt><trkpt lat="43.026671541485065" lon="11.511501666853803"><ele>418.0</ele><time>2026-04-11T15:58:03Z</time></trkpt><trkpt lat="43.026740480501054" lon="11.511493701657612"><ele>418.42857142857144</ele><time>2026-04-11T15:58:06Z</time></trkpt><trkpt lat="43.02680251109736" lon="11.51145745309306"><ele>418.85714285714283</ele><time>2026-04-11T15:58:09Z</time></trkpt><trkpt lat="43.02686160696457" lon="11.511399334161482"><ele>419.28571428571433</ele><time>2026-04-11T15:58:12Z</time></trkpt><trkpt lat="43.02691399627219" lon="11.51133051398756"><ele>419.7142857142857</ele><time>2026-04-11T15:58:15Z</time></trkpt><trkpt lat="43.02695187562803" lon="11.511238600769879"><ele>420.14285714285717</ele><time>2026-04-11T15:58:18Z</time></trkpt><trkpt lat="43.02698110213422" lon="11.511150613863233"><ele>420.5714285714286</ele><time>2026-04-11T15:58:21Z</time></trkpt><trkpt lat="43.0270042191773" lon="11.511057804960709"><ele>421.0</ele><time>2026-04-11T15:58:24Z</time></trkpt><trkpt lat="43.027036948108965" lon="11.510974875827015"><ele>421.00000000000006</ele><time>2026-04-11T15:58:27Z</time></trkpt><trkpt lat="43.027067022788216" lon="11.510893196581625"><ele>421.0</ele><time>2026-04-11T15:58:30Z</time></trkpt><trkpt lat="43.0271071303329" lon="11.51082141283556"><ele>421.0</ele><time>2026-04-11T15:58:33Z</time></trkpt><trkpt lat="43.027158692440935" lon="11.510748584801934"><ele>421.0</ele><time>2026-04-11T15:58:36Z</time></trkpt><trkpt lat="43.027223205176334" lon="11.51068749194329"><ele>421.0</ele><time>2026-04-11T15:58:39Z</time></trkpt><trkpt lat="43.02727620761756" lon="11.51061690181337"><ele>421.00000000000006</ele><time>2026-04-11T15:58:42Z</time></trkpt><trkpt lat="43.02734337395739" lon="11.510566373384242"><ele>421.0</ele><time>2026-04-11T15:58:45Z</time></trkpt><trkpt lat="43.02740498776349" lon="11.510484330074673"><ele>421.00000000000006</ele><time>2026-04-11T15:58:48Z</time></trkpt><trkpt lat="43.02747423884459" lon="11.51041853799213"><ele>421.0</ele><time>2026-04-11T15:58:50.999Z</time></trkpt><trkpt lat="43.02754380454552" lon="11.510359717757954"><ele>421.0</ele><time>2026-04-11T15:58:53.999Z</time></trkpt><trkpt lat="43.02760988570114" lon="11.51028912573911"><ele>421.0</ele><time>2026-04-11T15:58:56.999Z</time></trkpt><trkpt lat="43.02767638170202" lon="11.51020698571321"><ele>421.00000000000006</ele><time>2026-04-11T15:58:59.999Z</time></trkpt><trkpt lat="43.027734481594656" lon="11.510108190360652"><ele>421.0</ele><time>2026-04-11T15:59:02.999Z</time></trkpt><trkpt lat="43.02780639073505" lon="11.51002928588917"><ele>421.33333333333337</ele><time>2026-04-11T15:59:05.999Z</time></trkpt><trkpt lat="43.02787210730105" lon="11.509941098662809"><ele>421.6666666666667</ele><time>2026-04-11T15:59:08.999Z</time></trkpt><trkpt lat="43.02793252712524" lon="11.509845855958552"><ele>422.0</ele><time>2026-04-11T15:59:11.999Z</time></trkpt><trkpt lat="43.02798405009933" lon="11.509758562678048"><ele>422.33333333333337</ele><time>2026-04-11T15:59:14.999Z</time></trkpt><trkpt lat="43.02804335544111" lon="11.50968567909343"><ele>422.6666666666667</ele><time>2026-04-11T15:59:17.999Z</time></trkpt><trkpt lat="43.028090332094436" lon="11.509599419144381"><ele>423.0</ele><time>2026-04-11T15:59:20.999Z</time></trkpt><trkpt lat="43.028138959416715" lon="11.509507575254572"><ele>423.0</ele><time>2026-04-11T15:59:24Z</time></trkpt><trkpt lat="43.028195722103675" lon="11.50943210553384"><ele>423.0</ele><time>2026-04-11T15:59:27Z</time></trkpt><trkpt lat="43.028241821065954" lon="11.509370686090083"><ele>423.0</ele><time>2026-04-11T15:59:29Z</time></trkpt><trkpt lat="43.02831680248375" lon="11.509318914621437"><ele>423.0</ele><time>2026-04-11T15:59:32Z</time></trkpt><trkpt lat="43.02838540335466" lon="11.50924461499264"><ele>423.0</ele><time>2026-04-11T15:59:35Z</time></trkpt><trkpt lat="43.02845482319016" lon="11.509183565394991"><ele>423.0</ele><time>2026-04-11T15:59:38Z</time></trkpt><trkpt lat="43.02852995976109" lon="11.509129894152277"><ele>425.5</ele><time>2026-04-11T15:59:41Z</time></trkpt><trkpt lat="43.028601285793734" lon="11.509087592766186"><ele>428.0</ele><time>2026-04-11T15:59:44Z</time></trkpt><trkpt lat="43.02867752348378" lon="11.509054638786358"><ele>430.5</ele><time>2026-04-11T15:59:47Z</time></trkpt><trkpt lat="43.02873673950555" lon="11.508995192040935"><ele>433.0</ele><time>2026-04-11T15:59:50Z</time></trkpt><trkpt lat="43.02880305933538" lon="11.50894939243546"><ele>435.5</ele><time>2026-04-11T15:59:53Z</time></trkpt><trkpt lat="43.02886500026748" lon="11.508895525486198"><ele>438.0</ele><time>2026-04-11T15:59:56Z</time></trkpt><trkpt lat="43.02893490361681" lon="11.508849003263352"><ele>438.0</ele><time>2026-04-11T15:59:59Z</time></trkpt><trkpt lat="43.0290082978672" lon="11.508794313644277"><ele>438.0</ele><time>2026-04-11T16:00:02Z</time></trkpt><trkpt lat="43.02908418343998" lon="11.508744958565755"><ele>438.0</ele><time>2026-04-11T16:00:05Z</time></trkpt><trkpt lat="43.02915410187049" lon="11.508690099611794"><ele>438.0</ele><time>2026-04-11T16:00:08Z</time></trkpt><trkpt lat="43.02922354676752" lon="11.50862521295381"><ele>438.0</ele><time>2026-04-11T16:00:11Z</time></trkpt><trkpt lat="43.02929158158178" lon="11.50856035495734"><ele>438.0</ele><time>2026-04-11T16:00:14Z</time></trkpt><trkpt lat="43.02935810878786" lon="11.508501525871681"><ele>438.0</ele><time>2026-04-11T16:00:17Z</time></trkpt><trkpt lat="43.029434271941774" lon="11.508450241196506"><ele>438.0</ele><time>2026-04-11T16:00:20Z</time></trkpt><trkpt lat="43.029504839973754" lon="11.508403663303849"><ele>438.0</ele><time>2026-04-11T16:00:23Z</time></trkpt><trkpt lat="43.029580145716004" lon="11.50835844542148"><ele>438.0</ele><time>2026-04-11T16:00:26Z</time></trkpt><trkpt lat="43.02965277561895" lon="11.508305030348222"><ele>438.0</ele><time>2026-04-11T16:00:29Z</time></trkpt><trkpt lat="43.0297232513037" lon="11.508252229525672"><ele>438.0</ele><time>2026-04-11T16:00:32Z</time></trkpt><trkpt lat="43.029797441443996" lon="11.508199245719537"><ele>438.0</ele><time>2026-04-11T16:00:35Z</time></trkpt><trkpt lat="43.02986717253181" lon="11.508147169962777"><ele>438.0</ele><time>2026-04-11T16:00:38Z</time></trkpt><trkpt lat="43.029935392685374" lon="11.508095721819638"><ele>438.0</ele><time>2026-04-11T16:00:41Z</time></trkpt><trkpt lat="43.02999981445659" lon="11.508029958494545"><ele>438.0</ele><time>2026-04-11T16:00:44Z</time></trkpt><trkpt lat="43.0300705226458" lon="11.507983061870497"><ele>438.0</ele><time>2026-04-11T16:00:47Z</time></trkpt><trkpt lat="43.030138394718804" lon="11.507929817371666"><ele>438.0</ele><time>2026-04-11T16:00:50Z</time></trkpt><trkpt lat="43.03020389825624" lon="11.507870685456782"><ele>438.3333333333333</ele><time>2026-04-11T16:00:53Z</time></trkpt><trkpt lat="43.0302766398532" lon="11.507821809948402"><ele>438.66666666666663</ele><time>2026-04-11T16:00:55.999Z</time></trkpt><trkpt lat="43.03034478851882" lon="11.50776286929069"><ele>439.0</ele><time>2026-04-11T16:00:58.999Z</time></trkpt><trkpt lat="43.03041693102933" lon="11.507713380334561"><ele>439.3333333333333</ele><time>2026-04-11T16:01:01.999Z</time></trkpt><trkpt lat="43.030483323003416" lon="11.507648772043213"><ele>439.66666666666663</ele><time>2026-04-11T16:01:04.999Z</time></trkpt><trkpt lat="43.03054909730028" lon="11.507593055318383"><ele>440.0</ele><time>2026-04-11T16:01:07.999Z</time></trkpt><trkpt lat="43.030627306875004" lon="11.507572820532467"><ele>440.0</ele><time>2026-04-11T16:01:10.999Z</time></trkpt><trkpt lat="43.030711752056156" lon="11.507550448339943"><ele>440.0</ele><time>2026-04-11T16:01:13.999Z</time></trkpt><trkpt lat="43.030926273504754" lon="11.507536828382598"><ele>440.0</ele><time>2026-04-11T16:01:20.999Z</time></trkpt><trkpt lat="43.03104253174561" lon="11.507549464355279"><ele>440.0</ele><time>2026-04-11T16:01:24.999Z</time></trkpt><trkpt lat="43.03112838721562" lon="11.507552628366438"><ele>441.3333333333333</ele><time>2026-04-11T16:01:28Z</time></trkpt><trkpt lat="43.03121279769988" lon="11.507555357633324"><ele>442.66666666666663</ele><time>2026-04-11T16:01:31Z</time></trkpt><trkpt lat="43.03128125961447" lon="11.507570478295554"><ele>444.0</ele><time>2026-04-11T16:01:33Z</time></trkpt><trkpt lat="43.031369781618594" lon="11.50758577695131"><ele>445.33333333333337</ele><time>2026-04-11T16:01:36Z</time></trkpt><trkpt lat="43.0314541822517" lon="11.50758302045762"><ele>446.6666666666667</ele><time>2026-04-11T16:01:39Z</time></trkpt><trkpt lat="43.031548066852764" lon="11.507598924973093"><ele>448.0</ele><time>2026-04-11T16:01:42Z</time></trkpt><trkpt lat="43.03164828441207" lon="11.50764397850424"><ele>449.0</ele><time>2026-04-11T16:01:46Z</time></trkpt><trkpt lat="43.03171661249289" lon="11.507646542680742"><ele>450.0</ele><time>2026-04-11T16:01:48Z</time></trkpt><trkpt lat="43.0319678935979" lon="11.507656539865927"><ele>451.0</ele><time>2026-04-11T16:01:57Z</time></trkpt><trkpt lat="43.03204611008778" lon="11.507666046174874"><ele>452.0</ele><time>2026-04-11T16:02:00Z</time></trkpt><trkpt lat="43.03213734437232" lon="11.507675520700344"><ele>451.99999999999994</ele><time>2026-04-11T16:02:03Z</time></trkpt><trkpt lat="43.032234025797145" lon="11.507694437991294"><ele>452.0</ele><time>2026-04-11T16:02:08Z</time></trkpt><trkpt lat="43.03231490327748" lon="11.507703357033547"><ele>452.0</ele><time>2026-04-11T16:02:11Z</time></trkpt><trkpt lat="43.0323879133971" lon="11.507701034402613"><ele>452.0</ele><time>2026-04-11T16:02:13Z</time></trkpt><trkpt lat="43.03245411448451" lon="11.507690949334153"><ele>451.99999999999994</ele><time>2026-04-11T16:02:15Z</time></trkpt><trkpt lat="43.03254567909149" lon="11.507671564819669"><ele>452.0</ele><time>2026-04-11T16:02:18Z</time></trkpt><trkpt lat="43.03261742954058" lon="11.507644897975608"><ele>452.66666666666663</ele><time>2026-04-11T16:02:20Z</time></trkpt><trkpt lat="43.03267411770778" lon="11.507603591801361"><ele>453.3333333333333</ele><time>2026-04-11T16:02:22Z</time></trkpt><trkpt lat="43.032754442099666" lon="11.507543579828926"><ele>454.0</ele><time>2026-04-11T16:02:25Z</time></trkpt><trkpt lat="43.032803540456015" lon="11.507479798261079"><ele>454.66666666666663</ele><time>2026-04-11T16:02:27Z</time></trkpt><trkpt lat="43.03287460192136" lon="11.507395769452769"><ele>455.3333333333333</ele><time>2026-04-11T16:02:30Z</time></trkpt><trkpt lat="43.032919368471276" lon="11.507334668015291"><ele>456.0</ele><time>2026-04-11T16:02:32Z</time></trkpt><trkpt lat="43.03297293908188" lon="11.507237486995253"><ele>456.0</ele><time>2026-04-11T16:02:35Z</time></trkpt><trkpt lat="43.033013831266906" lon="11.507171273420827"><ele>455.99999999999994</ele><time>2026-04-11T16:02:37Z</time></trkpt><trkpt lat="43.03306567633916" lon="11.507113437322111"><ele>456.0</ele><time>2026-04-11T16:02:39Z</time></trkpt><trkpt lat="43.03312138445967" lon="11.50701335172504"><ele>456.0</ele><time>2026-04-11T16:02:42Z</time></trkpt><trkpt lat="43.03317198929771" lon="11.506958377812955"><ele>455.99999999999994</ele><time>2026-04-11T16:02:44Z</time></trkpt><trkpt lat="43.03320862989421" lon="11.50688348434624"><ele>456.0</ele><time>2026-04-11T16:02:46Z</time></trkpt><trkpt lat="43.03325268937634" lon="11.506816473195801"><ele>456.0</ele><time>2026-04-11T16:02:48Z</time></trkpt><trkpt lat="43.03331576859021" lon="11.506724242346374"><ele>456.1666666666667</ele><time>2026-04-11T16:02:51Z</time></trkpt><trkpt lat="43.033359204968484" lon="11.50665172130457"><ele>456.33333333333337</ele><time>2026-04-11T16:02:53Z</time></trkpt><trkpt lat="43.03341906941971" lon="11.506562884594944"><ele>456.5</ele><time>2026-04-11T16:02:56Z</time></trkpt><trkpt lat="43.0334621062278" lon="11.506485872428376"><ele>456.6666666666667</ele><time>2026-04-11T16:02:58Z</time></trkpt><trkpt lat="43.03352119301504" lon="11.506396183905006"><ele>456.83333333333337</ele><time>2026-04-11T16:03:00.999Z</time></trkpt><trkpt lat="43.03356067769871" lon="11.506327446247356"><ele>457.0</ele><time>2026-04-11T16:03:02.999Z</time></trkpt><trkpt lat="43.0336200239852" lon="11.506230913457312"><ele>457.00000000000006</ele><time>2026-04-11T16:03:05.999Z</time></trkpt><trkpt lat="43.03365777168883" lon="11.506158260903295"><ele>457.0</ele><time>2026-04-11T16:03:07.999Z</time></trkpt><trkpt lat="43.03370373834578" lon="11.506084003107793"><ele>457.00000000000006</ele><time>2026-04-11T16:03:09.999Z</time></trkpt><trkpt lat="43.033761075240804" lon="11.50597845144421"><ele>457.00000000000006</ele><time>2026-04-11T16:03:12.999Z</time></trkpt><trkpt lat="43.03380586894526" lon="11.50589941833323"><ele>457.0</ele><time>2026-04-11T16:03:14.999Z</time></trkpt><trkpt lat="43.03384676750702" lon="11.505822501908922"><ele>457.00000000000006</ele><time>2026-04-11T16:03:16.999Z</time></trkpt><trkpt lat="43.03388900904394" lon="11.505752408824312"><ele>457.00000000000006</ele><time>2026-04-11T16:03:18.999Z</time></trkpt><trkpt lat="43.0339332030834" lon="11.50568250705215"><ele>457.00000000000006</ele><time>2026-04-11T16:03:20.999Z</time></trkpt><trkpt lat="43.03399402817939" lon="11.505585809830087"><ele>457.0</ele><time>2026-04-11T16:03:23.999Z</time></trkpt><trkpt lat="43.03403520057702" lon="11.505520498441808"><ele>457.0</ele><time>2026-04-11T16:03:25.999Z</time></trkpt><trkpt lat="43.03409596408281" lon="11.505438358198054"><ele>457.0</ele><time>2026-04-11T16:03:28.999Z</time></trkpt><trkpt lat="43.034147622508215" lon="11.505327903265735"><ele>457.00000000000006</ele><time>2026-04-11T16:03:31.999Z</time></trkpt><trkpt lat="43.034231190746915" lon="11.505266906156553"><ele>457.0</ele><time>2026-04-11T16:03:35Z</time></trkpt><trkpt lat="43.03428001759093" lon="11.505204001177677"><ele>458.1666666666667</ele><time>2026-04-11T16:03:37Z</time></trkpt><trkpt lat="43.03434072693377" lon="11.505145914628544"><ele>459.33333333333337</ele><time>2026-04-11T16:03:39Z</time></trkpt><trkpt lat="43.03440038117498" lon="11.505082488286785"><ele>460.5</ele><time>2026-04-11T16:03:41Z</time></trkpt><trkpt lat="43.03447737794773" lon="11.505041368913494"><ele>461.66666666666663</ele><time>2026-04-11T16:03:43Z</time></trkpt><trkpt lat="43.03453382043345" lon="11.504964283938882"><ele>462.8333333333333</ele><time>2026-04-11T16:03:45Z</time></trkpt><trkpt lat="43.034598365658766" lon="11.504896444795554"><ele>464.0</ele><time>2026-04-11T16:03:47Z</time></trkpt><trkpt lat="43.03466661938927" lon="11.504840529169572"><ele>463.99999999999994</ele><time>2026-04-11T16:03:49Z</time></trkpt><trkpt lat="43.03472748835861" lon="11.504773340668127"><ele>464.0</ele><time>2026-04-11T16:03:51Z</time></trkpt><trkpt lat="43.034794828683154" lon="11.504716882260263"><ele>464.0</ele><time>2026-04-11T16:03:53Z</time></trkpt><trkpt lat="43.03486331404865" lon="11.504659248867693"><ele>464.0</ele><time>2026-04-11T16:03:55Z</time></trkpt><trkpt lat="43.03493174938876" lon="11.504594814644621"><ele>463.99999999999994</ele><time>2026-04-11T16:03:57Z</time></trkpt><trkpt lat="43.034999306957864" lon="11.504528700590324"><ele>464.0</ele><time>2026-04-11T16:03:59Z</time></trkpt><trkpt lat="43.0350639848653" lon="11.504459088218528"><ele>464.16666666666663</ele><time>2026-04-11T16:04:01Z</time></trkpt><trkpt lat="43.03512760827246" lon="11.50438586107449"><ele>464.3333333333333</ele><time>2026-04-11T16:04:03Z</time></trkpt><trkpt lat="43.03519342678813" lon="11.50430715914446"><ele>464.5</ele><time>2026-04-11T16:04:05Z</time></trkpt><trkpt lat="43.03526102171107" lon="11.504242017727698"><ele>464.66666666666663</ele><time>2026-04-11T16:04:07Z</time></trkpt><trkpt lat="43.03532592690913" lon="11.504177844841985"><ele>464.8333333333333</ele><time>2026-04-11T16:04:09Z</time></trkpt><trkpt lat="43.03539553332856" lon="11.504112900797178"><ele>465.0</ele><time>2026-04-11T16:04:11Z</time></trkpt><trkpt lat="43.03545197120103" lon="11.504046516644868"><ele>465.0</ele><time>2026-04-11T16:04:13Z</time></trkpt><trkpt lat="43.035508722506734" lon="11.503973262511538"><ele>465.0</ele><time>2026-04-11T16:04:15Z</time></trkpt><trkpt lat="43.03556608297601" lon="11.503913470493428"><ele>465.0</ele><time>2026-04-11T16:04:17Z</time></trkpt><trkpt lat="43.035632463401285" lon="11.5038548885681"><ele>465.0</ele><time>2026-04-11T16:04:19Z</time></trkpt><trkpt lat="43.0356918681452" lon="11.5037931997215"><ele>465.0</ele><time>2026-04-11T16:04:21Z</time></trkpt><trkpt lat="43.03575438656802" lon="11.503750351114908"><ele>465.0</ele><time>2026-04-11T16:04:23Z</time></trkpt><trkpt lat="43.03582488409408" lon="11.503732121964614"><ele>465.0</ele><time>2026-04-11T16:04:25Z</time></trkpt><trkpt lat="43.03589507249418" lon="11.503719420527935"><ele>464.42857142857144</ele><time>2026-04-11T16:04:27Z</time></trkpt><trkpt lat="43.03596683936589" lon="11.503711507012202"><ele>463.8571428571429</ele><time>2026-04-11T16:04:29Z</time></trkpt><trkpt lat="43.036035355156855" lon="11.503726657994008"><ele>463.28571428571433</ele><time>2026-04-11T16:04:31Z</time></trkpt><trkpt lat="43.03610731615038" lon="11.503742473818416"><ele>462.7142857142857</ele><time>2026-04-11T16:04:33Z</time></trkpt><trkpt lat="43.036170800132155" lon="11.503765412994728"><ele>462.1428571428572</ele><time>2026-04-11T16:04:35Z</time></trkpt><trkpt lat="43.03623718181381" lon="11.503789233366076"><ele>461.5714285714286</ele><time>2026-04-11T16:04:37Z</time></trkpt><trkpt lat="43.03630558241145" lon="11.503815811589261"><ele>461.0</ele><time>2026-04-11T16:04:39Z</time></trkpt><trkpt lat="43.03637716548753" lon="11.503843955875164"><ele>463.14285714285717</ele><time>2026-04-11T16:04:41Z</time></trkpt><trkpt lat="43.036448444822014" lon="11.503861263769949"><ele>465.28571428571433</ele><time>2026-04-11T16:04:43Z</time></trkpt><trkpt lat="43.036540579175984" lon="11.50387819680809"><ele>467.42857142857144</ele><time>2026-04-11T16:04:46Z</time></trkpt><trkpt lat="43.036605567691346" lon="11.503895388759998"><ele>469.57142857142856</ele><time>2026-04-11T16:04:48Z</time></trkpt><trkpt lat="43.03667302657809" lon="11.503917880033422"><ele>471.7142857142857</ele><time>2026-04-11T16:04:50Z</time></trkpt><trkpt lat="43.036738715142086" lon="11.503941336960107"><ele>473.8571428571429</ele><time>2026-04-11T16:04:52Z</time></trkpt><trkpt lat="43.0368067956672" lon="11.503962395082706"><ele>476.0</ele><time>2026-04-11T16:04:54Z</time></trkpt><trkpt lat="43.03687000854756" lon="11.503970695095287"><ele>476.57142857142856</ele><time>2026-04-11T16:04:56Z</time></trkpt><trkpt lat="43.0369427277402" lon="11.503981484540619"><ele>477.1428571428571</ele><time>2026-04-11T16:04:58Z</time></trkpt><trkpt lat="43.03701278866956" lon="11.503978998365664"><ele>477.7142857142857</ele><time>2026-04-11T16:05:00Z</time></trkpt><trkpt lat="43.03708546639324" lon="11.503960631656472"><ele>478.2857142857143</ele><time>2026-04-11T16:05:01.999Z</time></trkpt><trkpt lat="43.037159892922304" lon="11.503928278456153"><ele>478.85714285714283</ele><time>2026-04-11T16:05:03.999Z</time></trkpt><trkpt lat="43.03722780766771" lon="11.503891522036927"><ele>479.42857142857144</ele><time>2026-04-11T16:05:05.999Z</time></trkpt><trkpt lat="43.0372900621283" lon="11.503837107061816"><ele>480.0</ele><time>2026-04-11T16:05:07.999Z</time></trkpt><trkpt lat="43.037360822439325" lon="11.50378285068183"><ele>478.8333333333333</ele><time>2026-04-11T16:05:09.999Z</time></trkpt><trkpt lat="43.03742836938395" lon="11.503741634128504"><ele>477.66666666666663</ele><time>2026-04-11T16:05:11.999Z</time></trkpt><trkpt lat="43.037495520694904" lon="11.503688537509987"><ele>476.5</ele><time>2026-04-11T16:05:13.999Z</time></trkpt><trkpt lat="43.03755934948977" lon="11.50362956187112"><ele>475.3333333333333</ele><time>2026-04-11T16:05:15.999Z</time></trkpt><trkpt lat="43.03762634639459" lon="11.5035779826068"><ele>474.16666666666663</ele><time>2026-04-11T16:05:17.999Z</time></trkpt><trkpt lat="43.03768862654009" lon="11.503524162230308"><ele>473.0</ele><time>2026-04-11T16:05:19.999Z</time></trkpt><trkpt lat="43.03774916935597" lon="11.50347448062166"><ele>473.0</ele><time>2026-04-11T16:05:21.999Z</time></trkpt><trkpt lat="43.03782133824139" lon="11.50344862719905"><ele>473.0</ele><time>2026-04-11T16:05:23.999Z</time></trkpt><trkpt lat="43.03787912512107" lon="11.503387193537826"><ele>473.0</ele><time>2026-04-11T16:05:25.999Z</time></trkpt><trkpt lat="43.03794453701772" lon="11.50334511474511"><ele>473.0</ele><time>2026-04-11T16:05:27.999Z</time></trkpt><trkpt lat="43.03801155395266" lon="11.503293032421173"><ele>473.0</ele><time>2026-04-11T16:05:29.999Z</time></trkpt><trkpt lat="43.03807716009324" lon="11.503244485726754"><ele>473.0</ele><time>2026-04-11T16:05:31.999Z</time></trkpt><trkpt lat="43.038142233388015" lon="11.503195710869687"><ele>473.0</ele><time>2026-04-11T16:05:33.999Z</time></trkpt><trkpt lat="43.03820674241043" lon="11.503139121190925"><ele>472.99999999999994</ele><time>2026-04-11T16:05:35.999Z</time></trkpt><trkpt lat="43.03827334454428" lon="11.503081437575124"><ele>473.0</ele><time>2026-04-11T16:05:37.999Z</time></trkpt><trkpt lat="43.038344008712016" lon="11.503037928745465"><ele>473.0</ele><time>2026-04-11T16:05:40Z</time></trkpt><trkpt lat="43.0384107615446" lon="11.502991468570935"><ele>473.0</ele><time>2026-04-11T16:05:42Z</time></trkpt><trkpt lat="43.03846847014319" lon="11.502936648276245"><ele>472.99999999999994</ele><time>2026-04-11T16:05:44Z</time></trkpt><trkpt lat="43.038530941369366" lon="11.502894749836143"><ele>473.0</ele><time>2026-04-11T16:05:46Z</time></trkpt><trkpt lat="43.038598672788915" lon="11.502838119353997"><ele>473.8333333333333</ele><time>2026-04-11T16:05:49Z</time></trkpt><trkpt lat="43.03866151520673" lon="11.50277540809896"><ele>474.66666666666663</ele><time>2026-04-11T16:05:52Z</time></trkpt><trkpt lat="43.03874716226252" lon="11.502719269851129"><ele>475.5</ele><time>2026-04-11T16:05:55Z</time></trkpt><trkpt lat="43.038830937019654" lon="11.502654793776674"><ele>476.33333333333337</ele><time>2026-04-11T16:05:58Z</time></trkpt><trkpt lat="43.038885506245755" lon="11.502608351546996"><ele>477.1666666666667</ele><time>2026-04-11T16:06:00Z</time></trkpt><trkpt lat="43.03893942665301" lon="11.502558360728356"><ele>478.0</ele><time>2026-04-11T16:06:02Z</time></trkpt><trkpt lat="43.039002315164225" lon="11.502519044466931"><ele>478.00000000000006</ele><time>2026-04-11T16:06:04Z</time></trkpt><trkpt lat="43.039065417270486" lon="11.502471642007572"><ele>478.0</ele><time>2026-04-11T16:06:06Z</time></trkpt><trkpt lat="43.039129725200475" lon="11.502420604606243"><ele>478.00000000000006</ele><time>2026-04-11T16:06:08Z</time></trkpt><trkpt lat="43.03918777541818" lon="11.502358650159888"><ele>478.00000000000006</ele><time>2026-04-11T16:06:10Z</time></trkpt><trkpt lat="43.03923689325728" lon="11.502288676158054"><ele>478.0</ele><time>2026-04-11T16:06:12Z</time></trkpt><trkpt lat="43.039292686154944" lon="11.502220632897671"><ele>478.00000000000006</ele><time>2026-04-11T16:06:14Z</time></trkpt><trkpt lat="43.0393433999971" lon="11.502146416525584"><ele>478.00000000000006</ele><time>2026-04-11T16:06:16Z</time></trkpt><trkpt lat="43.039387195444384" lon="11.50206560574528"><ele>478.28571428571433</ele><time>2026-04-11T16:06:18Z</time></trkpt><trkpt lat="43.03943267413609" lon="11.501989477814787"><ele>478.57142857142856</ele><time>2026-04-11T16:06:20Z</time></trkpt><trkpt lat="43.03947210112" lon="11.501906816092234"><ele>478.8571428571429</ele><time>2026-04-11T16:06:22Z</time></trkpt><trkpt lat="43.03950817473524" lon="11.501831093279236"><ele>479.14285714285717</ele><time>2026-04-11T16:06:24Z</time></trkpt><trkpt lat="43.03954466579799" lon="11.50174622375883"><ele>479.42857142857144</ele><time>2026-04-11T16:06:26Z</time></trkpt><trkpt lat="43.039590576531175" lon="11.501666648814457"><ele>479.7142857142857</ele><time>2026-04-11T16:06:28Z</time></trkpt><trkpt lat="43.03963991158044" lon="11.501592718854416"><ele>480.0</ele><time>2026-04-11T16:06:30Z</time></trkpt><trkpt lat="43.03968790040609" lon="11.501515094488996"><ele>480.0</ele><time>2026-04-11T16:06:32Z</time></trkpt><trkpt lat="43.03973423121079" lon="11.501433876437718"><ele>480.0</ele><time>2026-04-11T16:06:34Z</time></trkpt><trkpt lat="43.03978442728333" lon="11.50135286551613"><ele>480.0</ele><time>2026-04-11T16:06:36Z</time></trkpt><trkpt lat="43.03983627066846" lon="11.501274775814306"><ele>480.0</ele><time>2026-04-11T16:06:38Z</time></trkpt><trkpt lat="43.03987830648173" lon="11.501177460495432"><ele>480.0</ele><time>2026-04-11T16:06:40Z</time></trkpt><trkpt lat="43.03992786768243" lon="11.50109101343504"><ele>480.0</ele><time>2026-04-11T16:06:42Z</time></trkpt><trkpt lat="43.03997368248661" lon="11.500992712291353"><ele>480.1666666666667</ele><time>2026-04-11T16:06:44Z</time></trkpt><trkpt lat="43.04002810761829" lon="11.500905902209565"><ele>480.33333333333337</ele><time>2026-04-11T16:06:46Z</time></trkpt><trkpt lat="43.04007902402165" lon="11.500813007339676"><ele>480.5</ele><time>2026-04-11T16:06:48Z</time></trkpt><trkpt lat="43.04012448005326" lon="11.500724281877297"><ele>480.6666666666667</ele><time>2026-04-11T16:06:50Z</time></trkpt><trkpt lat="43.040171685289" lon="11.500641422113256"><ele>480.83333333333337</ele><time>2026-04-11T16:06:52Z</time></trkpt><trkpt lat="43.040217898567036" lon="11.500566068079488"><ele>481.0</ele><time>2026-04-11T16:06:54Z</time></trkpt><trkpt lat="43.04026173658215" lon="11.500483915776003"><ele>480.6666666666667</ele><time>2026-04-11T16:06:56Z</time></trkpt><trkpt lat="43.04030805197026" lon="11.500395602713636"><ele>480.33333333333337</ele><time>2026-04-11T16:06:58Z</time></trkpt><trkpt lat="43.04035425243586" lon="11.500311114190549"><ele>480.0</ele><time>2026-04-11T16:07:00Z</time></trkpt><trkpt lat="43.040396124555514" lon="11.500223431999881"><ele>479.66666666666663</ele><time>2026-04-11T16:07:01.999Z</time></trkpt><trkpt lat="43.04044127738179" lon="11.500143323110652"><ele>479.3333333333333</ele><time>2026-04-11T16:07:03.999Z</time></trkpt><trkpt lat="43.040486179823866" lon="11.500062918553763"><ele>479.0</ele><time>2026-04-11T16:07:05.999Z</time></trkpt><trkpt lat="43.04053399882997" lon="11.499980751526754"><ele>479.0</ele><time>2026-04-11T16:07:07.999Z</time></trkpt><trkpt lat="43.0405768044368" lon="11.499903402484046"><ele>479.0</ele><time>2026-04-11T16:07:09.999Z</time></trkpt><trkpt lat="43.040613817555105" lon="11.499819991465412"><ele>479.0</ele><time>2026-04-11T16:07:11.999Z</time></trkpt><trkpt lat="43.04065527621739" lon="11.499740404063505"><ele>479.0</ele><time>2026-04-11T16:07:13.999Z</time></trkpt><trkpt lat="43.04070291363962" lon="11.499660914547224"><ele>479.0</ele><time>2026-04-11T16:07:15.999Z</time></trkpt><trkpt lat="43.04074982564158" lon="11.499583251567355"><ele>479.0</ele><time>2026-04-11T16:07:17.999Z</time></trkpt><trkpt lat="43.04078908835824" lon="11.499500379666168"><ele>479.0</ele><time>2026-04-11T16:07:19.999Z</time></trkpt><trkpt lat="43.04082969023783" lon="11.499417135028725"><ele>479.71428571428567</ele><time>2026-04-11T16:07:21.999Z</time></trkpt><trkpt lat="43.04087527578896" lon="11.499344219511354"><ele>480.42857142857144</ele><time>2026-04-11T16:07:23.999Z</time></trkpt><trkpt lat="43.0409176971328" lon="11.499269158200711"><ele>481.1428571428571</ele><time>2026-04-11T16:07:25.999Z</time></trkpt><trkpt lat="43.0409648473966" lon="11.499198344673736"><ele>481.85714285714283</ele><time>2026-04-11T16:07:27.999Z</time></trkpt><trkpt lat="43.04100442448332" lon="11.499116698367079"><ele>482.57142857142856</ele><time>2026-04-11T16:07:29.999Z</time></trkpt><trkpt lat="43.04105167164322" lon="11.49904479264682"><ele>483.2857142857143</ele><time>2026-04-11T16:07:31.999Z</time></trkpt><trkpt lat="43.04109457121512" lon="11.4989631060742"><ele>484.0</ele><time>2026-04-11T16:07:33.999Z</time></trkpt><trkpt lat="43.04113378122345" lon="11.498882555231807"><ele>484.0</ele><time>2026-04-11T16:07:35.999Z</time></trkpt><trkpt lat="43.041175054422006" lon="11.498811165753756"><ele>483.99999999999994</ele><time>2026-04-11T16:07:37.999Z</time></trkpt><trkpt lat="43.041216365166065" lon="11.498730074311572"><ele>484.0</ele><time>2026-04-11T16:07:39.999Z</time></trkpt><trkpt lat="43.0412614439212" lon="11.49865434501998"><ele>484.0</ele><time>2026-04-11T16:07:41.999Z</time></trkpt><trkpt lat="43.04130289393119" lon="11.49858137529565"><ele>483.99999999999994</ele><time>2026-04-11T16:07:43.999Z</time></trkpt><trkpt lat="43.041342881129914" lon="11.498507761442248"><ele>484.0</ele><time>2026-04-11T16:07:46Z</time></trkpt><trkpt lat="43.04138317356339" lon="11.498435410978992"><ele>484.0</ele><time>2026-04-11T16:07:48Z</time></trkpt><trkpt lat="43.04142313720374" lon="11.498357791304606"><ele>484.0</ele><time>2026-04-11T16:07:50Z</time></trkpt><trkpt lat="43.041469778462734" lon="11.498291022291825"><ele>483.99999999999994</ele><time>2026-04-11T16:07:52Z</time></trkpt><trkpt lat="43.04150744991367" lon="11.498211389511399"><ele>484.0</ele><time>2026-04-11T16:07:54Z</time></trkpt><trkpt lat="43.04154620314525" lon="11.498133210516178"><ele>484.0</ele><time>2026-04-11T16:07:56Z</time></trkpt><trkpt lat="43.041586902555494" lon="11.498054614472842"><ele>483.99999999999994</ele><time>2026-04-11T16:07:58Z</time></trkpt><trkpt lat="43.04162325883392" lon="11.497977118699088"><ele>484.0</ele><time>2026-04-11T16:08:00Z</time></trkpt><trkpt lat="43.04166755368964" lon="11.497899894325949"><ele>484.0</ele><time>2026-04-11T16:08:02Z</time></trkpt><trkpt lat="43.04170940180057" lon="11.497823585830584"><ele>484.71428571428567</ele><time>2026-04-11T16:08:04Z</time></trkpt><trkpt lat="43.04175900807455" lon="11.49775849458482"><ele>485.4285714285714</ele><time>2026-04-11T16:08:06Z</time></trkpt><trkpt lat="43.04179685897173" lon="11.497681591466709"><ele>486.1428571428571</ele><time>2026-04-11T16:08:08Z</time></trkpt><trkpt lat="43.041828066400385" lon="11.497599210154915"><ele>486.8571428571429</ele><time>2026-04-11T16:08:10Z</time></trkpt><trkpt lat="43.04187389505447" lon="11.49753191684825"><ele>487.5714285714286</ele><time>2026-04-11T16:08:12Z</time></trkpt><trkpt lat="43.04191891490839" lon="11.497465990095737"><ele>488.28571428571433</ele><time>2026-04-11T16:08:14Z</time></trkpt><trkpt lat="43.041986177897996" lon="11.497376192410165"><ele>489.0</ele><time>2026-04-11T16:08:17Z</time></trkpt><trkpt lat="43.04205786780595" lon="11.497289989371456"><ele>489.0</ele><time>2026-04-11T16:08:20Z</time></trkpt><trkpt lat="43.04211414053225" lon="11.497241209377352"><ele>489.0</ele><time>2026-04-11T16:08:22Z</time></trkpt><trkpt lat="43.042182414859575" lon="11.497166584573309"><ele>489.0</ele><time>2026-04-11T16:08:25Z</time></trkpt><trkpt lat="43.04225764880505" lon="11.497110889106487"><ele>489.0</ele><time>2026-04-11T16:08:28Z</time></trkpt><trkpt lat="43.04233024571829" lon="11.49704046552763"><ele>489.0</ele><time>2026-04-11T16:08:31Z</time></trkpt><trkpt lat="43.042407330963705" lon="11.496988292130494"><ele>489.0</ele><time>2026-04-11T16:08:34Z</time></trkpt><trkpt lat="43.04247884041854" lon="11.496957021847996"><ele>490.3333333333333</ele><time>2026-04-11T16:08:37Z</time></trkpt><trkpt lat="43.042565364228984" lon="11.496919763050103"><ele>491.66666666666663</ele><time>2026-04-11T16:08:40Z</time></trkpt><trkpt lat="43.04264656365275" lon="11.496869713888692"><ele>493.0</ele><time>2026-04-11T16:08:43Z</time></trkpt><trkpt lat="43.0427362681475" lon="11.496833152226978"><ele>494.3333333333333</ele><time>2026-04-11T16:08:46Z</time></trkpt><trkpt lat="43.042798028277765" lon="11.496793470950394"><ele>495.66666666666663</ele><time>2026-04-11T16:08:48Z</time></trkpt><trkpt lat="43.04287703342526" lon="11.4967428391151"><ele>497.0</ele><time>2026-04-11T16:08:51Z</time></trkpt><trkpt lat="43.04293997157704" lon="11.496718535322517"><ele>497.0</ele><time>2026-04-11T16:08:53Z</time></trkpt><trkpt lat="43.043001642809784" lon="11.496689713957007"><ele>497.0</ele><time>2026-04-11T16:08:55Z</time></trkpt><trkpt lat="43.043065088062576" lon="11.496660903151335"><ele>497.0</ele><time>2026-04-11T16:08:57Z</time></trkpt><trkpt lat="43.04313112115801" lon="11.496642322520925"><ele>497.0</ele><time>2026-04-11T16:08:59Z</time></trkpt><trkpt lat="43.04319716939259" lon="11.496617464297206"><ele>497.0</ele><time>2026-04-11T16:09:01Z</time></trkpt><trkpt lat="43.04326167014587" lon="11.496592048119762"><ele>497.0</ele><time>2026-04-11T16:09:03Z</time></trkpt><trkpt lat="43.04332966823823" lon="11.496564411429405"><ele>497.0</ele><time>2026-04-11T16:09:05Z</time></trkpt><trkpt lat="43.04339576874358" lon="11.496544477714512"><ele>497.66666666666663</ele><time>2026-04-11T16:09:07Z</time></trkpt><trkpt lat="43.04347022439341" lon="11.496529939159858"><ele>498.3333333333333</ele><time>2026-04-11T16:09:08.999Z</time></trkpt><trkpt lat="43.04354112874345" lon="11.496523267747323"><ele>499.0</ele><time>2026-04-11T16:09:10.999Z</time></trkpt><trkpt lat="43.04361192358664" lon="11.496508918078009"><ele>499.66666666666663</ele><time>2026-04-11T16:09:12.999Z</time></trkpt><trkpt lat="43.04368876658818" lon="11.496497286962574"><ele>500.3333333333333</ele><time>2026-04-11T16:09:14.999Z</time></trkpt><trkpt lat="43.04377098782939" lon="11.496490681136912"><ele>501.0</ele><time>2026-04-11T16:09:16.999Z</time></trkpt><trkpt lat="43.04385159473357" lon="11.496481517103279"><ele>501.0</ele><time>2026-04-11T16:09:18.999Z</time></trkpt><trkpt lat="43.043927890880084" lon="11.496468378258877"><ele>501.0</ele><time>2026-04-11T16:09:20.999Z</time></trkpt><trkpt lat="43.04401028371747" lon="11.496459636291853"><ele>501.0</ele><time>2026-04-11T16:09:22.999Z</time></trkpt><trkpt lat="43.04408669028697" lon="11.496447271913048"><ele>501.0</ele><time>2026-04-11T16:09:24.999Z</time></trkpt><trkpt lat="43.044163560072896" lon="11.496435405468544"><ele>501.0</ele><time>2026-04-11T16:09:26.999Z</time></trkpt><trkpt lat="43.044239544203236" lon="11.496423795412756"><ele>501.0</ele><time>2026-04-11T16:09:28.999Z</time></trkpt><trkpt lat="43.04431130436794" lon="11.496413713583419"><ele>500.3333333333333</ele><time>2026-04-11T16:09:30.999Z</time></trkpt><trkpt lat="43.04437848310742" lon="11.496403568717406"><ele>499.66666666666663</ele><time>2026-04-11T16:09:32.999Z</time></trkpt><trkpt lat="43.04444890246242" lon="11.496400095130968"><ele>499.0</ele><time>2026-04-11T16:09:34.999Z</time></trkpt><trkpt lat="43.04451640887175" lon="11.496391459005176"><ele>498.3333333333333</ele><time>2026-04-11T16:09:36.999Z</time></trkpt><trkpt lat="43.044611159612245" lon="11.496377502842526"><ele>497.66666666666663</ele><time>2026-04-11T16:09:39.999Z</time></trkpt><trkpt lat="43.04467946897255" lon="11.496370197754615"><ele>497.0</ele><time>2026-04-11T16:09:41.999Z</time></trkpt><trkpt lat="43.04477217826921" lon="11.496357517599561"><ele>497.0</ele><time>2026-04-11T16:09:44.999Z</time></trkpt><trkpt lat="43.044836668353256" lon="11.496346528931186"><ele>497.00000000000006</ele><time>2026-04-11T16:09:46.999Z</time></trkpt><trkpt lat="43.04492886228195" lon="11.49633226701727"><ele>497.00000000000006</ele><time>2026-04-11T16:09:49.999Z</time></trkpt><trkpt lat="43.04511910884421" lon="11.496316222525083"><ele>497.0</ele><time>2026-04-11T16:09:56Z</time></trkpt><trkpt lat="43.045196200028286" lon="11.496292068457814"><ele>497.0</ele><time>2026-04-11T16:09:59Z</time></trkpt><trkpt lat="43.045282825771494" lon="11.49628006099072"><ele>497.16666666666663</ele><time>2026-04-11T16:10:02Z</time></trkpt><trkpt lat="43.045362144334895" lon="11.496263960940308"><ele>497.3333333333333</ele><time>2026-04-11T16:10:05Z</time></trkpt><trkpt lat="43.0454402821138" lon="11.49625670002443"><ele>497.5</ele><time>2026-04-11T16:10:08Z</time></trkpt><trkpt lat="43.04552517150503" lon="11.49624258374802"><ele>497.66666666666663</ele><time>2026-04-11T16:10:11Z</time></trkpt><trkpt lat="43.045610531419904" lon="11.4962301684733"><ele>497.8333333333333</ele><time>2026-04-11T16:10:14Z</time></trkpt><trkpt lat="43.04569432079728" lon="11.496223673547311"><ele>498.0</ele><time>2026-04-11T16:10:17Z</time></trkpt><trkpt lat="43.045779713475454" lon="11.496211907201845"><ele>500.1666666666667</ele><time>2026-04-11T16:10:20Z</time></trkpt><trkpt lat="43.04586131007906" lon="11.496194589216529"><ele>502.33333333333337</ele><time>2026-04-11T16:10:23Z</time></trkpt><trkpt lat="43.045938679465785" lon="11.496186267061782"><ele>504.5</ele><time>2026-04-11T16:10:26Z</time></trkpt><trkpt lat="43.046026112401435" lon="11.496168400516323"><ele>506.6666666666667</ele><time>2026-04-11T16:10:29Z</time></trkpt><trkpt lat="43.04610695060353" lon="11.496159925510751"><ele>508.83333333333337</ele><time>2026-04-11T16:10:32Z</time></trkpt><trkpt lat="43.046182531241634" lon="11.496151511078194"><ele>511.0</ele><time>2026-04-11T16:10:35Z</time></trkpt><trkpt lat="43.04628859482601" lon="11.496151383140177"><ele>511.00000000000006</ele><time>2026-04-11T16:10:39Z</time></trkpt><trkpt lat="43.046360003301224" lon="11.496137097424873"><ele>511.0</ele><time>2026-04-11T16:10:42Z</time></trkpt><trkpt lat="43.04645937646827" lon="11.496128369188826"><ele>511.0</ele><time>2026-04-11T16:10:46Z</time></trkpt><trkpt lat="43.046554310893114" lon="11.496108703112363"><ele>511.0</ele><time>2026-04-11T16:10:50Z</time></trkpt><trkpt lat="43.04662734072866" lon="11.496095919257666"><ele>511.00000000000006</ele><time>2026-04-11T16:10:53Z</time></trkpt><trkpt lat="43.046727235002805" lon="11.496088546475644"><ele>511.0</ele><time>2026-04-11T16:10:57Z</time></trkpt><trkpt lat="43.0467975133924" lon="11.496065972959569"><ele>511.57142857142856</ele><time>2026-04-11T16:11:00Z</time></trkpt><trkpt lat="43.04686811219764" lon="11.496053127108482"><ele>512.1428571428571</ele><time>2026-04-11T16:11:03Z</time></trkpt><trkpt lat="43.046935144964316" lon="11.49601903530654"><ele>512.7142857142858</ele><time>2026-04-11T16:11:06Z</time></trkpt><trkpt lat="43.047000505321876" lon="11.495974119681373"><ele>513.2857142857142</ele><time>2026-04-11T16:11:09Z</time></trkpt><trkpt lat="43.047054552181805" lon="11.495929027441875"><ele>513.8571428571429</ele><time>2026-04-11T16:11:12Z</time></trkpt><trkpt lat="43.0471076387007" lon="11.495879594610642"><ele>514.4285714285714</ele><time>2026-04-11T16:11:15Z</time></trkpt><trkpt lat="43.047167858499435" lon="11.495800015972744"><ele>515.0</ele><time>2026-04-11T16:11:19Z</time></trkpt><trkpt lat="43.04722216383836" lon="11.495715835468738"><ele>515.0</ele><time>2026-04-11T16:11:22Z</time></trkpt><trkpt lat="43.047261556392165" lon="11.495619800803667"><ele>515.0</ele><time>2026-04-11T16:11:24.999Z</time></trkpt><trkpt lat="43.04729159406022" lon="11.495520170819091"><ele>515.0</ele><time>2026-04-11T16:11:27.999Z</time></trkpt><trkpt lat="43.047340748757634" lon="11.495411327496853"><ele>515.0</ele><time>2026-04-11T16:11:30.999Z</time></trkpt><trkpt lat="43.04738040245226" lon="11.495304563026536"><ele>515.0</ele><time>2026-04-11T16:11:33.999Z</time></trkpt><trkpt lat="43.047417143316785" lon="11.495188640909264"><ele>515.0</ele><time>2026-04-11T16:11:36.999Z</time></trkpt><trkpt lat="43.04746638350078" lon="11.495099325458499"><ele>515.5714285714286</ele><time>2026-04-11T16:11:39.999Z</time></trkpt><trkpt lat="43.04749143293066" lon="11.495013606377341"><ele>516.1428571428571</ele><time>2026-04-11T16:11:41.999Z</time></trkpt><trkpt lat="43.04751847276751" lon="11.494926888222285"><ele>516.7142857142857</ele><time>2026-04-11T16:11:43.999Z</time></trkpt><trkpt lat="43.04756624093451" lon="11.494817947672198"><ele>517.2857142857142</ele><time>2026-04-11T16:11:46.999Z</time></trkpt><trkpt lat="43.047595313523054" lon="11.494741514655399"><ele>517.8571428571428</ele><time>2026-04-11T16:11:48.999Z</time></trkpt><trkpt lat="43.04762415262817" lon="11.494660397129856"><ele>518.4285714285714</ele><time>2026-04-11T16:11:50.999Z</time></trkpt><trkpt lat="43.04766212091669" lon="11.494577711903842"><ele>519.0</ele><time>2026-04-11T16:11:52.999Z</time></trkpt><trkpt lat="43.04768952210604" lon="11.494495525935232"><ele>520.7142857142857</ele><time>2026-04-11T16:11:54.999Z</time></trkpt><trkpt lat="43.04770851317823" lon="11.494409633719943"><ele>522.4285714285713</ele><time>2026-04-11T16:11:56.999Z</time></trkpt><trkpt lat="43.04774159795385" lon="11.494320931131613"><ele>524.1428571428571</ele><time>2026-04-11T16:11:59Z</time></trkpt><trkpt lat="43.04777176995045" lon="11.494233563860854"><ele>525.8571428571429</ele><time>2026-04-11T16:12:01Z</time></trkpt><trkpt lat="43.047807560866445" lon="11.494153114116582"><ele>527.5714285714287</ele><time>2026-04-11T16:12:03Z</time></trkpt><trkpt lat="43.04784591617413" lon="11.494065478590555"><ele>529.2857142857143</ele><time>2026-04-11T16:12:05Z</time></trkpt><trkpt lat="43.04787068151368" lon="11.493973833355657"><ele>531.0</ele><time>2026-04-11T16:12:07Z</time></trkpt><trkpt lat="43.04790539739224" lon="11.493885386144626"><ele>531.0</ele><time>2026-04-11T16:12:09Z</time></trkpt><trkpt lat="43.0479447091979" lon="11.493802100952317"><ele>531.0</ele><time>2026-04-11T16:12:11Z</time></trkpt><trkpt lat="43.04798508568683" lon="11.493714997132695"><ele>531.0</ele><time>2026-04-11T16:12:13Z</time></trkpt><trkpt lat="43.04805487283428" lon="11.493634952217576"><ele>531.0</ele><time>2026-04-11T16:12:15Z</time></trkpt><trkpt lat="43.0481256899829" lon="11.493571880367213"><ele>531.0</ele><time>2026-04-11T16:12:17Z</time></trkpt><trkpt lat="43.048204713115794" lon="11.493568389711463"><ele>531.0</ele><time>2026-04-11T16:12:19Z</time></trkpt><trkpt lat="43.04829403315819" lon="11.493591746294976"><ele>531.0</ele><time>2026-04-11T16:12:21Z</time></trkpt><trkpt lat="43.048335996846234" lon="11.493698792749234"><ele>531.0</ele><time>2026-04-11T16:12:23Z</time></trkpt><trkpt lat="43.04835989150744" lon="11.493803066561435"><ele>531.0</ele><time>2026-04-11T16:12:25Z</time></trkpt><trkpt lat="43.048363607079644" lon="11.4939138225648"><ele>531.0</ele><time>2026-04-11T16:12:27Z</time></trkpt><trkpt lat="43.04833937455201" lon="11.494023826420166"><ele>531.0</ele><time>2026-04-11T16:12:29Z</time></trkpt><trkpt lat="43.04831167129414" lon="11.494123850150666"><ele>531.0</ele><time>2026-04-11T16:12:31Z</time></trkpt><trkpt lat="43.04828762890404" lon="11.494229507123148"><ele>531.0</ele><time>2026-04-11T16:12:33Z</time></trkpt><trkpt lat="43.04826136106996" lon="11.494335330271602"><ele>531.0</ele><time>2026-04-11T16:12:35Z</time></trkpt><trkpt lat="43.0482510229187" lon="11.494444136741727"><ele>531.0</ele><time>2026-04-11T16:12:37Z</time></trkpt><trkpt lat="43.048243045822225" lon="11.494554454475237"><ele>531.0</ele><time>2026-04-11T16:12:39Z</time></trkpt><trkpt lat="43.048240981922035" lon="11.494675430194901"><ele>531.0</ele><time>2026-04-11T16:12:41Z</time></trkpt><trkpt lat="43.04825116104188" lon="11.494778536335449"><ele>531.0</ele><time>2026-04-11T16:12:43Z</time></trkpt><trkpt lat="43.04826485529251" lon="11.494868093947371"><ele>529.5</ele><time>2026-04-11T16:12:45Z</time></trkpt><trkpt lat="43.04828749395849" lon="11.494967796043492"><ele>528.0</ele><time>2026-04-11T16:12:47Z</time></trkpt><trkpt lat="43.04831738780554" lon="11.495054974715881"><ele>526.5</ele><time>2026-04-11T16:12:49Z</time></trkpt><trkpt lat="43.048357320930876" lon="11.495126685811998"><ele>525.0</ele><time>2026-04-11T16:12:51Z</time></trkpt><trkpt lat="43.04840999804705" lon="11.49518760455457"><ele>523.5</ele><time>2026-04-11T16:12:53Z</time></trkpt><trkpt lat="43.04849058047572" lon="11.495273178874026"><ele>522.0</ele><time>2026-04-11T16:12:56Z</time></trkpt><trkpt lat="43.04854467325793" lon="11.495341242111277"><ele>522.0</ele><time>2026-04-11T16:12:58Z</time></trkpt><trkpt lat="43.04859743204791" lon="11.495406945118187"><ele>522.0</ele><time>2026-04-11T16:13:00Z</time></trkpt><trkpt lat="43.04864144233087" lon="11.495483798586625"><ele>522.0</ele><time>2026-04-11T16:13:02Z</time></trkpt><trkpt lat="43.048672702119354" lon="11.495575970332581"><ele>522.0</ele><time>2026-04-11T16:13:04Z</time></trkpt><trkpt lat="43.04870580431714" lon="11.495656769629019"><ele>522.0</ele><time>2026-04-11T16:13:06Z</time></trkpt><trkpt lat="43.04873665639074" lon="11.495734715726131"><ele>522.0</ele><time>2026-04-11T16:13:08Z</time></trkpt><trkpt lat="43.04876767790254" lon="11.495855681298611"><ele>522.0</ele><time>2026-04-11T16:13:11Z</time></trkpt><trkpt lat="43.04881275252295" lon="11.49595945646007"><ele>521.6666666666666</ele><time>2026-04-11T16:13:14Z</time></trkpt><trkpt lat="43.048862577640264" lon="11.496054621648073"><ele>521.3333333333334</ele><time>2026-04-11T16:13:17Z</time></trkpt><trkpt lat="43.04892915633988" lon="11.496144825555143"><ele>521.0</ele><time>2026-04-11T16:13:20Z</time></trkpt><trkpt lat="43.0489814039982" lon="11.496207875621145"><ele>520.6666666666667</ele><time>2026-04-11T16:13:22Z</time></trkpt><trkpt lat="43.04905297944712" lon="11.496243990705622"><ele>520.3333333333334</ele><time>2026-04-11T16:13:24Z</time></trkpt><trkpt lat="43.04910062745946" lon="11.496301125822795"><ele>520.0</ele><time>2026-04-11T16:13:26.999Z</time></trkpt><trkpt lat="43.04915250154239" lon="11.496351200130748"><ele>520.0000000000001</ele><time>2026-04-11T16:13:28.999Z</time></trkpt><trkpt lat="43.049220250968645" lon="11.496409437828337"><ele>520.0</ele><time>2026-04-11T16:13:30.999Z</time></trkpt><trkpt lat="43.049285263162076" lon="11.49645023846674"><ele>520.0</ele><time>2026-04-11T16:13:32.999Z</time></trkpt><trkpt lat="43.049345488460816" lon="11.496491999115586"><ele>520.0</ele><time>2026-04-11T16:13:34.999Z</time></trkpt><trkpt lat="43.04939586583526" lon="11.496543876369937"><ele>520.0</ele><time>2026-04-11T16:13:36.999Z</time></trkpt><trkpt lat="43.04945800956674" lon="11.496587618446133"><ele>520.0000000000001</ele><time>2026-04-11T16:13:38.999Z</time></trkpt><trkpt lat="43.04952004938893" lon="11.496627079565954"><ele>520.0</ele><time>2026-04-11T16:13:40.999Z</time></trkpt><trkpt lat="43.04957561130241" lon="11.49667141646605"><ele>520.0</ele><time>2026-04-11T16:13:42.999Z</time></trkpt><trkpt lat="43.04963428494354" lon="11.496717016951571"><ele>520.0</ele><time>2026-04-11T16:13:44.999Z</time></trkpt><trkpt lat="43.04969347427285" lon="11.49675246446395"><ele>520.0</ele><time>2026-04-11T16:13:46.999Z</time></trkpt><trkpt lat="43.049749452096464" lon="11.496795389701314"><ele>520.0</ele><time>2026-04-11T16:13:48.999Z</time></trkpt><trkpt lat="43.04982130620378" lon="11.496864087939464"><ele>520.0</ele><time>2026-04-11T16:13:51.999Z</time></trkpt><trkpt lat="43.04988786735879" lon="11.496910255578667"><ele>520.0</ele><time>2026-04-11T16:13:53.999Z</time></trkpt><trkpt lat="43.04996562044523" lon="11.496981382018165"><ele>521.0</ele><time>2026-04-11T16:13:56.999Z</time></trkpt><trkpt lat="43.05002662174688" lon="11.497023901288793"><ele>522.0</ele><time>2026-04-11T16:13:58.999Z</time></trkpt><trkpt lat="43.050109466689804" lon="11.497067055562352"><ele>523.0</ele><time>2026-04-11T16:14:01.999Z</time></trkpt><trkpt lat="43.05018378566671" lon="11.497113755827167"><ele>524.0</ele><time>2026-04-11T16:14:05Z</time></trkpt><trkpt lat="43.0502619276354" lon="11.497139423023137"><ele>525.0</ele><time>2026-04-11T16:14:08Z</time></trkpt><trkpt lat="43.050358174008984" lon="11.497134500184176"><ele>526.0</ele><time>2026-04-11T16:14:11Z</time></trkpt><trkpt lat="43.05042937370745" lon="11.497103134979108"><ele>527.5</ele><time>2026-04-11T16:14:13Z</time></trkpt><trkpt lat="43.050496857034055" lon="11.497074067267604"><ele>529.0</ele><time>2026-04-11T16:14:15Z</time></trkpt><trkpt lat="43.05055172497105" lon="11.497031133690571"><ele>530.5</ele><time>2026-04-11T16:14:17Z</time></trkpt><trkpt lat="43.05060847517859" lon="11.496965210869929"><ele>532.0</ele><time>2026-04-11T16:14:19Z</time></trkpt><trkpt lat="43.050654548545026" lon="11.496901915726637"><ele>533.5</ele><time>2026-04-11T16:14:21Z</time></trkpt><trkpt lat="43.05070710152321" lon="11.496799026165982"><ele>535.0</ele><time>2026-04-11T16:14:24Z</time></trkpt><trkpt lat="43.05075545834583" lon="11.496688122234442"><ele>535.0</ele><time>2026-04-11T16:14:27Z</time></trkpt><trkpt lat="43.05078711781917" lon="11.496603637543465"><ele>535.0</ele><time>2026-04-11T16:14:29Z</time></trkpt><trkpt lat="43.05081185076417" lon="11.496509426264883"><ele>535.0</ele><time>2026-04-11T16:14:31Z</time></trkpt><trkpt lat="43.05084530525929" lon="11.496431039380719"><ele>535.0</ele><time>2026-04-11T16:14:33Z</time></trkpt><trkpt lat="43.050886261076265" lon="11.496349008035727"><ele>535.0</ele><time>2026-04-11T16:14:35Z</time></trkpt><trkpt lat="43.05091947226223" lon="11.4962254879137"><ele>535.0</ele><time>2026-04-11T16:14:38Z</time></trkpt><trkpt lat="43.0509467807416" lon="11.49614383928522"><ele>535.0</ele><time>2026-04-11T16:14:40Z</time></trkpt><trkpt lat="43.050973286348494" lon="11.49602471727685"><ele>536.1666666666667</ele><time>2026-04-11T16:14:43Z</time></trkpt><trkpt lat="43.05099488886127" lon="11.495941157323362"><ele>537.3333333333334</ele><time>2026-04-11T16:14:45Z</time></trkpt><trkpt lat="43.05100829387852" lon="11.495826244415554"><ele>538.5</ele><time>2026-04-11T16:14:48Z</time></trkpt><trkpt lat="43.05101432924141" lon="11.495707888268832"><ele>539.6666666666666</ele><time>2026-04-11T16:14:51Z</time></trkpt><trkpt lat="43.051026279568795" lon="11.49557882632819"><ele>540.8333333333333</ele><time>2026-04-11T16:14:54Z</time></trkpt><trkpt lat="43.05102566012829" lon="11.495442063017506"><ele>542.0</ele><time>2026-04-11T16:14:57Z</time></trkpt><trkpt lat="43.051030125917656" lon="11.495313986610006"><ele>542.7142857142857</ele><time>2026-04-11T16:15:00Z</time></trkpt><trkpt lat="43.051032115765416" lon="11.495221022177203"><ele>543.4285714285714</ele><time>2026-04-11T16:15:02Z</time></trkpt><trkpt lat="43.05103848534383" lon="11.495130056043859"><ele>544.1428571428571</ele><time>2026-04-11T16:15:04Z</time></trkpt><trkpt lat="43.05105458326639" lon="11.495008830413585"><ele>544.8571428571429</ele><time>2026-04-11T16:15:07Z</time></trkpt><trkpt lat="43.05105485519704" lon="11.494915982206482"><ele>545.5714285714286</ele><time>2026-04-11T16:15:09Z</time></trkpt><trkpt lat="43.051066677992246" lon="11.494826831692643"><ele>546.2857142857142</ele><time>2026-04-11T16:15:11Z</time></trkpt><trkpt lat="43.05107957939237" lon="11.494708113054598"><ele>547.0</ele><time>2026-04-11T16:15:14Z</time></trkpt><trkpt lat="43.051093690481295" lon="11.494584203290344"><ele>548.8333333333334</ele><time>2026-04-11T16:15:17Z</time></trkpt><trkpt lat="43.05111575617599" lon="11.494459672606347"><ele>550.6666666666667</ele><time>2026-04-11T16:15:20Z</time></trkpt><trkpt lat="43.05112928089293" lon="11.494374918705494"><ele>552.5</ele><time>2026-04-11T16:15:22Z</time></trkpt><trkpt lat="43.05114472765214" lon="11.494260019804944"><ele>554.3333333333334</ele><time>2026-04-11T16:15:24.999Z</time></trkpt><trkpt lat="43.0511726043762" lon="11.49414428127415"><ele>556.1666666666666</ele><time>2026-04-11T16:15:27.999Z</time></trkpt><trkpt lat="43.05119536839083" lon="11.494032402859634"><ele>558.0</ele><time>2026-04-11T16:15:30.999Z</time></trkpt><trkpt lat="43.05122029695777" lon="11.493915906998579"><ele>558.0</ele><time>2026-04-11T16:15:33.999Z</time></trkpt><trkpt lat="43.05124869133542" lon="11.493799084408145"><ele>558.0</ele><time>2026-04-11T16:15:36.999Z</time></trkpt><trkpt lat="43.05127031933517" lon="11.493675337747696"><ele>558.0</ele><time>2026-04-11T16:15:39.999Z</time></trkpt><trkpt lat="43.0512871499396" lon="11.49355964699142"><ele>558.0</ele><time>2026-04-11T16:15:42.999Z</time></trkpt><trkpt lat="43.051307445186715" lon="11.493448836554316"><ele>558.0</ele><time>2026-04-11T16:15:45.999Z</time></trkpt><trkpt lat="43.05130650549177" lon="11.493322149086154"><ele>558.0</ele><time>2026-04-11T16:15:48.999Z</time></trkpt><trkpt lat="43.0513224866061" lon="11.493206416106728"><ele>558.6666666666666</ele><time>2026-04-11T16:15:51.999Z</time></trkpt><trkpt lat="43.051309740652925" lon="11.493085601922237"><ele>559.3333333333334</ele><time>2026-04-11T16:15:54.999Z</time></trkpt><trkpt lat="43.051298554795444" lon="11.492958855777355"><ele>560.0</ele><time>2026-04-11T16:15:57.999Z</time></trkpt><trkpt lat="43.05128971715167" lon="11.492837778816334"><ele>560.6666666666667</ele><time>2026-04-11T16:16:00.999Z</time></trkpt><trkpt lat="43.05127294134714" lon="11.492741576400002"><ele>561.3333333333334</ele><time>2026-04-11T16:16:03.999Z</time></trkpt><trkpt lat="43.051291474414036" lon="11.492652603708091"><ele>562.0</ele><time>2026-04-11T16:16:05.999Z</time></trkpt><trkpt lat="43.051288727210085" lon="11.492561207695234"><ele>563.0</ele><time>2026-04-11T16:16:07.999Z</time></trkpt><trkpt lat="43.05128893130979" lon="11.492429582224299"><ele>564.0</ele><time>2026-04-11T16:16:11Z</time></trkpt><trkpt lat="43.05130405595772" lon="11.492301819087457"><ele>565.0</ele><time>2026-04-11T16:16:14Z</time></trkpt><trkpt lat="43.05130611932628" lon="11.492204509195417"><ele>566.0</ele><time>2026-04-11T16:16:16Z</time></trkpt><trkpt lat="43.051300603038044" lon="11.492108932260555"><ele>567.0</ele><time>2026-04-11T16:16:18Z</time></trkpt><trkpt lat="43.0513121544454" lon="11.49200864433372"><ele>568.0</ele><time>2026-04-11T16:16:20Z</time></trkpt><trkpt lat="43.05132551290966" lon="11.491901871557763"><ele>568.3333333333334</ele><time>2026-04-11T16:16:22Z</time></trkpt><trkpt lat="43.051337617255555" lon="11.49179918694044"><ele>568.6666666666667</ele><time>2026-04-11T16:16:24Z</time></trkpt><trkpt lat="43.05139052381593" lon="11.491719288654439"><ele>569.0</ele><time>2026-04-11T16:16:26Z</time></trkpt><trkpt lat="43.05147207221922" lon="11.491688330129767"><ele>569.3333333333334</ele><time>2026-04-11T16:16:28Z</time></trkpt><trkpt lat="43.051558957528265" lon="11.491717090658117"><ele>569.6666666666666</ele><time>2026-04-11T16:16:30Z</time></trkpt><trkpt lat="43.05163529726157" lon="11.49180266697641"><ele>570.0</ele><time>2026-04-11T16:16:32Z</time></trkpt><trkpt lat="43.05168409301371" lon="11.491914643148728"><ele>567.4</ele><time>2026-04-11T16:16:34Z</time></trkpt><trkpt lat="43.05173002462449" lon="11.492023725506668"><ele>564.8</ele><time>2026-04-11T16:16:36Z</time></trkpt><trkpt lat="43.05177575038092" lon="11.4921381921882"><ele>562.2</ele><time>2026-04-11T16:16:38Z</time></trkpt><trkpt lat="43.05182745722511" lon="11.492252688211199"><ele>559.6</ele><time>2026-04-11T16:16:40Z</time></trkpt><trkpt lat="43.05189625609012" lon="11.492351580364808"><ele>557.0</ele><time>2026-04-11T16:16:42Z</time></trkpt><trkpt lat="43.05196954480512" lon="11.492447513475856"><ele>554.8000000000001</ele><time>2026-04-11T16:16:44Z</time></trkpt><trkpt lat="43.052057395343205" lon="11.492515376069266"><ele>552.6</ele><time>2026-04-11T16:16:46Z</time></trkpt><trkpt lat="43.05215105997037" lon="11.492552310999585"><ele>550.4000000000001</ele><time>2026-04-11T16:16:48Z</time></trkpt><trkpt lat="43.05226314903144" lon="11.492520177862477"><ele>548.2</ele><time>2026-04-11T16:16:50Z</time></trkpt><trkpt lat="43.052336625053435" lon="11.49241671295057"><ele>546.0</ele><time>2026-04-11T16:16:52Z</time></trkpt><trkpt lat="43.052380316175665" lon="11.492273778164318"><ele>546.0</ele><time>2026-04-11T16:16:54Z</time></trkpt><trkpt lat="43.05241219020939" lon="11.492127270698617"><ele>546.0</ele><time>2026-04-11T16:16:56Z</time></trkpt><trkpt lat="43.052461123049746" lon="11.491995471688806"><ele>546.0</ele><time>2026-04-11T16:16:58Z</time></trkpt><trkpt lat="43.05253473320217" lon="11.491879854879963"><ele>546.0</ele><time>2026-04-11T16:17:00Z</time></trkpt><trkpt lat="43.05263963732899" lon="11.491805703837235"><ele>548.2</ele><time>2026-04-11T16:17:02Z</time></trkpt><trkpt lat="43.05274699647756" lon="11.491762722967442"><ele>550.4000000000001</ele><time>2026-04-11T16:17:04Z</time></trkpt><trkpt lat="43.05285511721903" lon="11.491763357020426"><ele>552.6</ele><time>2026-04-11T16:17:06Z</time></trkpt><trkpt lat="43.052965508254836" lon="11.491799795294716"><ele>554.8000000000001</ele><time>2026-04-11T16:17:08Z</time></trkpt><trkpt lat="43.053069199886714" lon="11.491856760835065"><ele>557.0</ele><time>2026-04-11T16:17:10Z</time></trkpt><trkpt lat="43.05317093241137" lon="11.491919993421066"><ele>557.0</ele><time>2026-04-11T16:17:12Z</time></trkpt><trkpt lat="43.053278102864695" lon="11.491973168205464"><ele>557.0</ele><time>2026-04-11T16:17:14Z</time></trkpt><trkpt lat="43.053394849714344" lon="11.492010182671715"><ele>557.0</ele><time>2026-04-11T16:17:16Z</time></trkpt><trkpt lat="43.05350640730714" lon="11.49202470701012"><ele>557.0</ele><time>2026-04-11T16:17:18Z</time></trkpt><trkpt lat="43.05361619653269" lon="11.49198921674862"><ele>555.6</ele><time>2026-04-11T16:17:20Z</time></trkpt><trkpt lat="43.05370331448072" lon="11.491886407051068"><ele>554.2</ele><time>2026-04-11T16:17:22Z</time></trkpt><trkpt lat="43.053751100863856" lon="11.491744283666916"><ele>552.8</ele><time>2026-04-11T16:17:24Z</time></trkpt><trkpt lat="43.053758901357206" lon="11.491593938545417"><ele>551.4</ele><time>2026-04-11T16:17:26Z</time></trkpt><trkpt lat="43.05376430094814" lon="11.491450200869046"><ele>550.0</ele><time>2026-04-11T16:17:28Z</time></trkpt><trkpt lat="43.05379037041464" lon="11.491353253584592"><ele>552.1666666666667</ele><time>2026-04-11T16:17:30Z</time></trkpt><trkpt lat="43.053782584924065" lon="11.491224126386792"><ele>554.3333333333334</ele><time>2026-04-11T16:17:32Z</time></trkpt><trkpt lat="43.05378801144423" lon="11.491079242234157"><ele>556.5</ele><time>2026-04-11T16:17:33.999Z</time></trkpt><trkpt lat="43.05378971507404" lon="11.490970622341424"><ele>558.6666666666666</ele><time>2026-04-11T16:17:35.999Z</time></trkpt><trkpt lat="43.05379465722115" lon="11.490867884828718"><ele>560.8333333333333</ele><time>2026-04-11T16:17:37.999Z</time></trkpt><trkpt lat="43.053792147956386" lon="11.490761710782568"><ele>563.0</ele><time>2026-04-11T16:17:39.999Z</time></trkpt><trkpt lat="43.05378957653544" lon="11.49066091545719"><ele>563.0</ele><time>2026-04-11T16:17:41.999Z</time></trkpt><trkpt lat="43.05379826670709" lon="11.490558234356625"><ele>563.0</ele><time>2026-04-11T16:17:43.999Z</time></trkpt><trkpt lat="43.053785443963655" lon="11.490433870010252"><ele>563.0</ele><time>2026-04-11T16:17:45.999Z</time></trkpt><trkpt lat="43.05379047077692" lon="11.490342869853299"><ele>563.0</ele><time>2026-04-11T16:17:47.999Z</time></trkpt><trkpt lat="43.05379604647307" lon="11.490208391532915"><ele>563.0</ele><time>2026-04-11T16:17:49.999Z</time></trkpt><trkpt lat="43.05379342180282" lon="11.490076793947937"><ele>563.0</ele><time>2026-04-11T16:17:51.999Z</time></trkpt><trkpt lat="43.05379678367142" lon="11.48994715567099"><ele>563.4</ele><time>2026-04-11T16:17:53.999Z</time></trkpt><trkpt lat="43.05380700857738" lon="11.48982826485879"><ele>563.8</ele><time>2026-04-11T16:17:55.999Z</time></trkpt><trkpt lat="43.053797771547885" lon="11.489717376357264"><ele>564.2</ele><time>2026-04-11T16:17:57.999Z</time></trkpt><trkpt lat="43.053799717599276" lon="11.489605087236681"><ele>564.6</ele><time>2026-04-11T16:17:59.999Z</time></trkpt><trkpt lat="43.05382866351725" lon="11.489465205629527"><ele>565.0</ele><time>2026-04-11T16:18:01.999Z</time></trkpt><trkpt lat="43.05389128954887" lon="11.489359309906838"><ele>565.8</ele><time>2026-04-11T16:18:03.999Z</time></trkpt><trkpt lat="43.05397386340248" lon="11.489293179748561"><ele>566.6</ele><time>2026-04-11T16:18:05.999Z</time></trkpt><trkpt lat="43.05406107491288" lon="11.489241780850517"><ele>567.4</ele><time>2026-04-11T16:18:07.999Z</time></trkpt><trkpt lat="43.0541576590201" lon="11.489215246017498"><ele>568.2</ele><time>2026-04-11T16:18:09.999Z</time></trkpt><trkpt lat="43.05425225457312" lon="11.489199856385271"><ele>569.0</ele><time>2026-04-11T16:18:11.999Z</time></trkpt><trkpt lat="43.054352484971616" lon="11.489188819904562"><ele>566.2</ele><time>2026-04-11T16:18:13.999Z</time></trkpt><trkpt lat="43.054449527300854" lon="11.489184787278575"><ele>563.4</ele><time>2026-04-11T16:18:16Z</time></trkpt><trkpt lat="43.054545822708775" lon="11.489174908444314"><ele>560.6</ele><time>2026-04-11T16:18:18Z</time></trkpt><trkpt lat="43.05464318233742" lon="11.489168579483273"><ele>557.8</ele><time>2026-04-11T16:18:20Z</time></trkpt><trkpt lat="43.054740702248054" lon="11.489160970842924"><ele>555.0</ele><time>2026-04-11T16:18:22Z</time></trkpt><trkpt lat="43.0548395667506" lon="11.489157234276616"><ele>555.0</ele><time>2026-04-11T16:18:24Z</time></trkpt><trkpt lat="43.05493624201693" lon="11.48914982582708"><ele>555.0</ele><time>2026-04-11T16:18:26Z</time></trkpt><trkpt lat="43.055035331212444" lon="11.489147205481618"><ele>555.0</ele><time>2026-04-11T16:18:28Z</time></trkpt><trkpt lat="43.05513865543824" lon="11.48914281906459"><ele>555.0</ele><time>2026-04-11T16:18:30Z</time></trkpt><trkpt lat="43.05525037545168" lon="11.489085416846521"><ele>555.0</ele><time>2026-04-11T16:18:32Z</time></trkpt><trkpt lat="43.05531396012871" lon="11.48908424060027"><ele>554.6666666666666</ele><time>2026-04-11T16:18:33Z</time></trkpt><trkpt lat="43.0554082848787" lon="11.489058390957704"><ele>554.3333333333334</ele><time>2026-04-11T16:18:35Z</time></trkpt><trkpt lat="43.05547290669177" lon="11.489023146514935"><ele>554.0</ele><time>2026-04-11T16:18:37Z</time></trkpt><trkpt lat="43.05554488667081" lon="11.488997863910551"><ele>553.6666666666667</ele><time>2026-04-11T16:18:40Z</time></trkpt><trkpt lat="43.05561774568294" lon="11.488979310677319"><ele>553.3333333333334</ele><time>2026-04-11T16:18:57Z</time></trkpt><trkpt lat="43.05569575222882" lon="11.488982234020211"><ele>553.0</ele><time>2026-04-11T16:19:00Z</time></trkpt><trkpt lat="43.055757654928286" lon="11.489011689755786"><ele>552.4285714285714</ele><time>2026-04-11T16:19:02Z</time></trkpt><trkpt lat="43.05581246933274" lon="11.489078623206767"><ele>551.8571428571429</ele><time>2026-04-11T16:19:04Z</time></trkpt><trkpt lat="43.055886019616054" lon="11.489145615840162"><ele>551.2857142857142</ele><time>2026-04-11T16:19:07Z</time></trkpt><trkpt lat="43.05594474095139" lon="11.489209146501475"><ele>550.7142857142858</ele><time>2026-04-11T16:19:10Z</time></trkpt><trkpt lat="43.0560135044943" lon="11.489231776178038"><ele>550.1428571428571</ele><time>2026-04-11T16:19:21Z</time></trkpt><trkpt lat="43.0560672416491" lon="11.489281144397024"><ele>549.5714285714286</ele><time>2026-04-11T16:19:27Z</time></trkpt><trkpt lat="43.05612141218026" lon="11.489335251586086"><ele>549.0</ele><time>2026-04-11T16:19:34Z</time></trkpt><trkpt lat="43.05618171676561" lon="11.489367978196118"><ele>549.0</ele><time>2026-04-11T16:19:44.999Z</time></trkpt><trkpt lat="43.05624874795599" lon="11.489408829642223"><ele>549.0</ele><time>2026-04-11T16:19:50.999Z</time></trkpt><trkpt lat="43.056316989587074" lon="11.489451908040154"><ele>549.0</ele><time>2026-04-11T16:19:54.999Z</time></trkpt><trkpt lat="43.05638578073864" lon="11.489445727936722"><ele>549.0</ele><time>2026-04-11T16:20:08.999Z</time></trkpt><trkpt lat="43.056463351761664" lon="11.489409833410535"><ele>549.0</ele><time>2026-04-11T16:20:13.999Z</time></trkpt><trkpt lat="43.05653094386955" lon="11.489360588981878"><ele>549.0</ele><time>2026-04-11T16:20:15.999Z</time></trkpt><trkpt lat="43.05659997378026" lon="11.489337305551928"><ele>549.0</ele><time>2026-04-11T16:20:17.999Z</time></trkpt><trkpt lat="43.05666780024255" lon="11.489320887086988"><ele>549.1428571428571</ele><time>2026-04-11T16:20:19.999Z</time></trkpt><trkpt lat="43.05673513444554" lon="11.489294568587114"><ele>549.2857142857143</ele><time>2026-04-11T16:20:23Z</time></trkpt><trkpt lat="43.056826470439674" lon="11.489292156572848"><ele>549.4285714285714</ele><time>2026-04-11T16:20:26Z</time></trkpt><trkpt lat="43.05689610646663" lon="11.489273802706874"><ele>549.5714285714286</ele><time>2026-04-11T16:20:29Z</time></trkpt><trkpt lat="43.05682609302814" lon="11.489257033406501"><ele>549.7142857142857</ele><time>2026-04-11T16:36:03Z</time></trkpt><trkpt lat="43.056762956058" lon="11.489261298317746"><ele>549.8571428571429</ele><time>2026-04-11T16:36:23.999Z</time></trkpt><trkpt lat="43.05669491327567" lon="11.48930577028006"><ele>550.0</ele><time>2026-04-11T16:36:28.999Z</time></trkpt><trkpt lat="43.05662502154115" lon="11.489332278047353"><ele>549.8333333333334</ele><time>2026-04-11T16:36:32.999Z</time></trkpt><trkpt lat="43.05655407178973" lon="11.489365119021212"><ele>549.6666666666667</ele><time>2026-04-11T16:36:36.999Z</time></trkpt><trkpt lat="43.056490808534654" lon="11.489424080561081"><ele>549.5</ele><time>2026-04-11T16:36:40.999Z</time></trkpt><trkpt lat="43.056427034782764" lon="11.48947336275192"><ele>549.3333333333334</ele><time>2026-04-11T16:36:44.999Z</time></trkpt><trkpt lat="43.05634757964477" lon="11.489487965697986"><ele>549.1666666666666</ele><time>2026-04-11T16:36:48.999Z</time></trkpt><trkpt lat="43.056273645905044" lon="11.489426930859748"><ele>549.0</ele><time>2026-04-11T16:36:51.999Z</time></trkpt><trkpt lat="43.056212607597615" lon="11.489383165528192"><ele>549.0</ele><time>2026-04-11T16:36:53.999Z</time></trkpt><trkpt lat="43.05615092671943" lon="11.489351325317458"><ele>549.0</ele><time>2026-04-11T16:36:55.999Z</time></trkpt><trkpt lat="43.05609229703863" lon="11.489302140722765"><ele>549.0</ele><time>2026-04-11T16:36:57.999Z</time></trkpt><trkpt lat="43.05602443556766" lon="11.489232781969731"><ele>549.0</ele><time>2026-04-11T16:36:59.999Z</time></trkpt><trkpt lat="43.055943762026246" lon="11.489165425848656"><ele>549.0</ele><time>2026-04-11T16:37:01.999Z</time></trkpt><trkpt lat="43.0558700209845" lon="11.489101406160083"><ele>549.0</ele><time>2026-04-11T16:37:03.999Z</time></trkpt><trkpt lat="43.05579352002142" lon="11.489039528670405"><ele>549.5714285714286</ele><time>2026-04-11T16:37:06.999Z</time></trkpt><trkpt lat="43.055753704328595" lon="11.488927264382475"><ele>550.1428571428571</ele><time>2026-04-11T16:37:08.999Z</time></trkpt><trkpt lat="43.05568864813675" lon="11.488911666443562"><ele>550.7142857142858</ele><time>2026-04-11T16:37:23Z</time></trkpt><trkpt lat="43.05560878806201" lon="11.488912304469522"><ele>551.2857142857142</ele><time>2026-04-11T16:37:28Z</time></trkpt><trkpt lat="43.05554567610994" lon="11.48892727072407"><ele>551.8571428571429</ele><time>2026-04-11T16:37:31Z</time></trkpt><trkpt lat="43.055469056585494" lon="11.488954195082455"><ele>552.4285714285714</ele><time>2026-04-11T16:37:34Z</time></trkpt><trkpt lat="43.05540454342508" lon="11.488976025385726"><ele>553.0</ele><time>2026-04-11T16:37:37Z</time></trkpt><trkpt lat="43.0553222602741" lon="11.489003376485638"><ele>553.0</ele><time>2026-04-11T16:37:41Z</time></trkpt><trkpt lat="43.05524474681371" lon="11.488993252038615"><ele>553.0</ele><time>2026-04-11T16:37:45Z</time></trkpt><trkpt lat="43.05518049714375" lon="11.489000324907277"><ele>553.0</ele><time>2026-04-11T16:37:48Z</time></trkpt><trkpt lat="43.055118425908326" lon="11.48901952456094"><ele>553.0</ele><time>2026-04-11T16:37:52Z</time></trkpt><trkpt lat="43.055184773758555" lon="11.489035555497656"><ele>553.0</ele><time>2026-04-11T16:37:59Z</time></trkpt><trkpt lat="43.05520559387032" lon="11.488943227203528"><ele>553.0</ele><time>2026-04-11T16:38:07Z</time></trkpt><trkpt lat="43.055166445276065" lon="11.489012263478104"><ele>553.0</ele><time>2026-04-11T16:43:30Z</time></trkpt><trkpt lat="43.05513299218089" lon="11.489127582037137"><ele>553.0</ele><time>2026-04-11T16:43:34Z</time></trkpt><trkpt lat="43.055101958709045" lon="11.489234559714424"><ele>553.0</ele><time>2026-04-11T16:43:37Z</time></trkpt><trkpt lat="43.05507682217699" lon="11.48932120955683"><ele>553.0</ele><time>2026-04-11T16:43:40Z</time></trkpt><trkpt lat="43.05467413094112" lon="11.48922879337764"><ele>553.2857142857143</ele><time>2026-04-11T16:43:43Z</time></trkpt><trkpt lat="43.054600236877455" lon="11.489240404505955"><ele>553.5714285714286</ele><time>2026-04-11T16:43:44Z</time></trkpt><trkpt lat="43.05453256069427" lon="11.489248485730513"><ele>553.8571428571429</ele><time>2026-04-11T16:43:45Z</time></trkpt><trkpt lat="43.05445896058307" lon="11.489261423679645"><ele>554.1428571428571</ele><time>2026-04-11T16:43:46Z</time></trkpt><trkpt lat="43.054385882687555" lon="11.48927748031247"><ele>554.4285714285714</ele><time>2026-04-11T16:43:47Z</time></trkpt><trkpt lat="43.0543148534022" lon="11.489312805405206"><ele>554.7142857142858</ele><time>2026-04-11T16:43:48Z</time></trkpt><trkpt lat="43.05424930827045" lon="11.489361900630577"><ele>555.0</ele><time>2026-04-11T16:43:49Z</time></trkpt><trkpt lat="43.05417008980085" lon="11.489507588304754"><ele>555.0</ele><time>2026-04-11T16:43:50Z</time></trkpt><trkpt lat="43.05413348553852" lon="11.489591005415924"><ele>555.0</ele><time>2026-04-11T16:43:51Z</time></trkpt><trkpt lat="43.054109078177255" lon="11.489735971382425"><ele>555.0</ele><time>2026-04-11T16:43:53Z</time></trkpt><trkpt lat="43.05411545151466" lon="11.489847795882367"><ele>555.0</ele><time>2026-04-11T16:43:55Z</time></trkpt><trkpt lat="43.05409061935178" lon="11.489954549010903"><ele>555.0</ele><time>2026-04-11T16:43:59Z</time></trkpt><trkpt lat="43.05411808292128" lon="11.490044660646124"><ele>555.0</ele><time>2026-04-11T16:44:03Z</time></trkpt><trkpt lat="43.05416879496669" lon="11.490117238101975"><ele>553.2</ele><time>2026-04-11T16:44:06Z</time></trkpt><trkpt lat="43.05426237965076" lon="11.490099227439625"><ele>551.4</ele><time>2026-04-11T16:44:09Z</time></trkpt><trkpt lat="43.05435375758268" lon="11.490169458586506"><ele>549.6</ele><time>2026-04-11T16:44:11Z</time></trkpt><trkpt lat="43.054451678816996" lon="11.490278682122941"><ele>547.8</ele><time>2026-04-11T16:44:13Z</time></trkpt><trkpt lat="43.05451504579934" lon="11.490334586303907"><ele>546.0</ele><time>2026-04-11T16:44:14Z</time></trkpt><trkpt lat="43.054566562782846" lon="11.490405031333985"><ele>544.6666666666666</ele><time>2026-04-11T16:44:15Z</time></trkpt><trkpt lat="43.05462501514703" lon="11.490479030811866"><ele>543.3333333333334</ele><time>2026-04-11T16:44:16Z</time></trkpt><trkpt lat="43.0546928390158" lon="11.490549962794093"><ele>542.0</ele><time>2026-04-11T16:44:17Z</time></trkpt><trkpt lat="43.054756107405" lon="11.490639693626795"><ele>540.6666666666667</ele><time>2026-04-11T16:44:18Z</time></trkpt><trkpt lat="43.05482295883894" lon="11.490721485707367"><ele>539.3333333333334</ele><time>2026-04-11T16:44:19Z</time></trkpt><trkpt lat="43.05488785497665" lon="11.490825742214724"><ele>538.0</ele><time>2026-04-11T16:44:20Z</time></trkpt><trkpt lat="43.05495483315259" lon="11.490923165401208"><ele>537.8</ele><time>2026-04-11T16:44:21Z</time></trkpt><trkpt lat="43.055012934701764" lon="11.491047173433886"><ele>537.5999999999999</ele><time>2026-04-11T16:44:22Z</time></trkpt><trkpt lat="43.05506371702011" lon="11.491169900714345"><ele>537.4000000000001</ele><time>2026-04-11T16:44:23Z</time></trkpt><trkpt lat="43.05510916214212" lon="11.491294524068016"><ele>537.2</ele><time>2026-04-11T16:44:24Z</time></trkpt><trkpt lat="43.05516232698525" lon="11.491410376909547"><ele>537.0</ele><time>2026-04-11T16:44:25Z</time></trkpt><trkpt lat="43.05521112783646" lon="11.491501941920417"><ele>533.0</ele><time>2026-04-11T16:44:26Z</time></trkpt><trkpt lat="43.05526623782755" lon="11.491598778878773"><ele>529.0</ele><time>2026-04-11T16:44:27Z</time></trkpt><trkpt lat="43.05531940908436" lon="11.491680172753558"><ele>525.0</ele><time>2026-04-11T16:44:28Z</time></trkpt><trkpt lat="43.055373068420266" lon="11.49174320325739"><ele>521.0</ele><time>2026-04-11T16:44:29Z</time></trkpt><trkpt lat="43.05543538098332" lon="11.491840198399286"><ele>517.0</ele><time>2026-04-11T16:44:31Z</time></trkpt><trkpt lat="43.05532371546288" lon="11.49179470577843"><ele>517.0</ele><time>2026-04-11T16:44:35.999Z</time></trkpt><trkpt lat="43.05525724863567" lon="11.4916797165763"><ele>517.0</ele><time>2026-04-11T16:44:37.999Z</time></trkpt><trkpt lat="43.05516493270315" lon="11.49157000173338"><ele>517.0</ele><time>2026-04-11T16:44:39.999Z</time></trkpt><trkpt lat="43.055081648901364" lon="11.491452280183127"><ele>517.0</ele><time>2026-04-11T16:44:41.999Z</time></trkpt><trkpt lat="43.05503576234044" lon="11.491388140215944"><ele>517.0</ele><time>2026-04-11T16:44:42.999Z</time></trkpt><trkpt lat="43.05499261233612" lon="11.491315802892883"><ele>520.5</ele><time>2026-04-11T16:44:43.999Z</time></trkpt><trkpt lat="43.05495258835349" lon="11.491247489301136"><ele>524.0</ele><time>2026-04-11T16:44:44.999Z</time></trkpt><trkpt lat="43.05488686412829" lon="11.491163938384485"><ele>527.5</ele><time>2026-04-11T16:44:46.999Z</time></trkpt><trkpt lat="43.05483327156173" lon="11.491097357062912"><ele>531.0</ele><time>2026-04-11T16:44:49.999Z</time></trkpt><trkpt lat="43.05478660406159" lon="11.4910390219018"><ele>534.5</ele><time>2026-04-11T16:45:00.999Z</time></trkpt><trkpt lat="43.05470538674377" lon="11.490955938303054"><ele>538.0</ele><time>2026-04-11T16:45:07.999Z</time></trkpt><trkpt lat="43.05463804923706" lon="11.490934023366922"><ele>538.0</ele><time>2026-04-11T16:45:13.999Z</time></trkpt><trkpt lat="43.054573091863766" lon="11.490929998741368"><ele>538.0</ele><time>2026-04-11T16:46:11Z</time></trkpt><trkpt lat="43.05450911337" lon="11.490958758154642"><ele>538.0</ele><time>2026-04-11T16:46:31Z</time></trkpt><trkpt lat="43.05453984124585" lon="11.491043596394924"><ele>538.0</ele><time>2026-04-11T16:49:43.999Z</time></trkpt><trkpt lat="43.05453788940469" lon="11.491133545619325"><ele>538.0</ele><time>2026-04-11T16:51:28.999Z</time></trkpt><trkpt lat="43.05447473882652" lon="11.491217974460966"><ele>538.0</ele><time>2026-04-11T16:51:31.999Z</time></trkpt><trkpt lat="43.05442328847064" lon="11.491315605864687"><ele>538.0</ele><time>2026-04-11T16:51:34.999Z</time></trkpt><trkpt lat="43.0543804382834" lon="11.491386405936913"><ele>537.6666666666667</ele><time>2026-04-11T16:51:37.999Z</time></trkpt><trkpt lat="43.05437102614705" lon="11.491488006441047"><ele>537.3333333333334</ele><time>2026-04-11T16:51:40.999Z</time></trkpt><trkpt lat="43.0543707043849" lon="11.491574292416738"><ele>537.0</ele><time>2026-04-11T16:51:42.999Z</time></trkpt><trkpt lat="43.0543771834278" lon="11.491679933390975"><ele>536.6666666666666</ele><time>2026-04-11T16:51:44.999Z</time></trkpt><trkpt lat="43.0543944275378" lon="11.491807986099985"><ele>536.3333333333333</ele><time>2026-04-11T16:51:46.999Z</time></trkpt><trkpt lat="43.054410262938596" lon="11.491945488833437"><ele>536.0</ele><time>2026-04-11T16:51:48.999Z</time></trkpt><trkpt lat="43.05442451345491" lon="11.492105257205843"><ele>534.0</ele><time>2026-04-11T16:51:50.999Z</time></trkpt><trkpt lat="43.054433319895615" lon="11.492197732486025"><ele>532.0</ele><time>2026-04-11T16:51:52Z</time></trkpt><trkpt lat="43.054434373032976" lon="11.49236520179199"><ele>530.0</ele><time>2026-04-11T16:51:54Z</time></trkpt><trkpt lat="43.05443207579607" lon="11.492463089730826"><ele>528.0</ele><time>2026-04-11T16:51:55Z</time></trkpt><trkpt lat="43.05442284710241" lon="11.492573461670442"><ele>526.0</ele><time>2026-04-11T16:51:56Z</time></trkpt><trkpt lat="43.05441076450761" lon="11.492679488928715"><ele>524.0</ele><time>2026-04-11T16:51:57Z</time></trkpt><trkpt lat="43.054394900418394" lon="11.49278445665316"><ele>524.0</ele><time>2026-04-11T16:51:58Z</time></trkpt><trkpt lat="43.05435734309021" lon="11.492892612159578"><ele>524.0</ele><time>2026-04-11T16:51:59Z</time></trkpt><trkpt lat="43.054328454421615" lon="11.492988209053662"><ele>524.0</ele><time>2026-04-11T16:52:00Z</time></trkpt><trkpt lat="43.05429287450068" lon="11.493086519263708"><ele>524.0</ele><time>2026-04-11T16:52:01Z</time></trkpt><trkpt lat="43.054253921461076" lon="11.493186139966577"><ele>524.0</ele><time>2026-04-11T16:52:02Z</time></trkpt><trkpt lat="43.05419927842324" lon="11.493270430547435"><ele>524.0</ele><time>2026-04-11T16:52:03Z</time></trkpt><trkpt lat="43.054137781091285" lon="11.493355299574379"><ele>522.0</ele><time>2026-04-11T16:52:04Z</time></trkpt><trkpt lat="43.05407031290976" lon="11.4934282737173"><ele>520.0</ele><time>2026-04-11T16:52:05Z</time></trkpt><trkpt lat="43.05399555701434" lon="11.493493056997687"><ele>518.0</ele><time>2026-04-11T16:52:06Z</time></trkpt><trkpt lat="43.05390432171222" lon="11.493554146723111"><ele>516.0</ele><time>2026-04-11T16:52:07Z</time></trkpt><trkpt lat="43.05383130231042" lon="11.493621772390577"><ele>514.0</ele><time>2026-04-11T16:52:08Z</time></trkpt><trkpt lat="43.05376064442305" lon="11.493700359039138"><ele>512.8</ele><time>2026-04-11T16:52:09Z</time></trkpt><trkpt lat="43.053699737001516" lon="11.493789468463326"><ele>511.59999999999997</ele><time>2026-04-11T16:52:10Z</time></trkpt><trkpt lat="43.05364136821911" lon="11.493888826848613"><ele>510.4</ele><time>2026-04-11T16:52:11Z</time></trkpt><trkpt lat="43.053589959021" lon="11.493998116490886"><ele>509.2</ele><time>2026-04-11T16:52:12Z</time></trkpt><trkpt lat="43.053542842736704" lon="11.494110906151148"><ele>508.0</ele><time>2026-04-11T16:52:13Z</time></trkpt><trkpt lat="43.05350610785615" lon="11.494235017466439"><ele>508.0</ele><time>2026-04-11T16:52:14Z</time></trkpt><trkpt lat="43.05348179558531" lon="11.494365718134652"><ele>507.99999999999994</ele><time>2026-04-11T16:52:15Z</time></trkpt><trkpt lat="43.05347928919189" lon="11.494502285546892"><ele>507.99999999999994</ele><time>2026-04-11T16:52:16Z</time></trkpt><trkpt lat="43.053481532970586" lon="11.49464969715642"><ele>508.0</ele><time>2026-04-11T16:52:17Z</time></trkpt><trkpt lat="43.053478676598026" lon="11.494786659541957"><ele>508.0</ele><time>2026-04-11T16:52:18Z</time></trkpt><trkpt lat="43.05349335553941" lon="11.494907466925003"><ele>507.4</ele><time>2026-04-11T16:52:19Z</time></trkpt><trkpt lat="43.053512850639315" lon="11.495048192706513"><ele>506.79999999999995</ele><time>2026-04-11T16:52:20Z</time></trkpt><trkpt lat="43.05351428256831" lon="11.495174826835592"><ele>506.2</ele><time>2026-04-11T16:52:21Z</time></trkpt><trkpt lat="43.053527092684746" lon="11.495307522665284"><ele>505.6</ele><time>2026-04-11T16:52:22Z</time></trkpt><trkpt lat="43.053528540629884" lon="11.495453951282505"><ele>505.0</ele><time>2026-04-11T16:52:23Z</time></trkpt><trkpt lat="43.05353566827316" lon="11.495579410234372"><ele>504.8</ele><time>2026-04-11T16:52:24Z</time></trkpt><trkpt lat="43.0535384111661" lon="11.495709488966199"><ele>504.6</ele><time>2026-04-11T16:52:25Z</time></trkpt><trkpt lat="43.05353484204351" lon="11.495851892892718"><ele>504.4</ele><time>2026-04-11T16:52:26Z</time></trkpt><trkpt lat="43.05353143759338" lon="11.495985292558085"><ele>504.2</ele><time>2026-04-11T16:52:27Z</time></trkpt><trkpt lat="43.053528699119916" lon="11.496115012956919"><ele>504.0</ele><time>2026-04-11T16:52:28Z</time></trkpt><trkpt lat="43.05350848653755" lon="11.4962454708534"><ele>503.1666666666667</ele><time>2026-04-11T16:52:29Z</time></trkpt><trkpt lat="43.05349645907034" lon="11.49636970972523"><ele>502.33333333333337</ele><time>2026-04-11T16:52:30Z</time></trkpt><trkpt lat="43.053476284780494" lon="11.49650067517047"><ele>501.5</ele><time>2026-04-11T16:52:31Z</time></trkpt><trkpt lat="43.05345826857114" lon="11.496619076363666"><ele>500.6666666666667</ele><time>2026-04-11T16:52:32Z</time></trkpt><trkpt lat="43.053446463955034" lon="11.496732997429032"><ele>499.83333333333337</ele><time>2026-04-11T16:52:33Z</time></trkpt><trkpt lat="43.05343458478842" lon="11.496849120709392"><ele>499.0</ele><time>2026-04-11T16:52:34Z</time></trkpt><trkpt lat="43.05342023923925" lon="11.496967960438383"><ele>499.00000000000006</ele><time>2026-04-11T16:52:35Z</time></trkpt><trkpt lat="43.053400120223216" lon="11.497077436790686"><ele>499.0</ele><time>2026-04-11T16:52:36Z</time></trkpt><trkpt lat="43.053368753939814" lon="11.497181636592"><ele>499.0</ele><time>2026-04-11T16:52:37Z</time></trkpt><trkpt lat="43.05334310207234" lon="11.497291295726829"><ele>499.0</ele><time>2026-04-11T16:52:38Z</time></trkpt><trkpt lat="43.053309807496866" lon="11.49738527630399"><ele>499.00000000000006</ele><time>2026-04-11T16:52:39Z</time></trkpt><trkpt lat="43.05326888555979" lon="11.497478323151475"><ele>499.0</ele><time>2026-04-11T16:52:40Z</time></trkpt><trkpt lat="43.05323997418002" lon="11.497575347498687"><ele>499.1666666666667</ele><time>2026-04-11T16:52:41Z</time></trkpt><trkpt lat="43.05320081880174" lon="11.497673449789952"><ele>499.33333333333337</ele><time>2026-04-11T16:52:42Z</time></trkpt><trkpt lat="43.05316128453828" lon="11.497763450724655"><ele>499.5</ele><time>2026-04-11T16:52:43Z</time></trkpt><trkpt lat="43.05311798732441" lon="11.497857493582908"><ele>499.66666666666663</ele><time>2026-04-11T16:52:44Z</time></trkpt><trkpt lat="43.05307696850408" lon="11.497951100073289"><ele>499.8333333333333</ele><time>2026-04-11T16:52:45Z</time></trkpt><trkpt lat="43.05303464851834" lon="11.498045938165038"><ele>500.0</ele><time>2026-04-11T16:52:46Z</time></trkpt><trkpt lat="43.05299004838717" lon="11.498141094666849"><ele>500.0</ele><time>2026-04-11T16:52:47Z</time></trkpt><trkpt lat="43.05293248736101" lon="11.49823222734316"><ele>500.0</ele><time>2026-04-11T16:52:48Z</time></trkpt><trkpt lat="43.052887860420704" lon="11.498333474473652"><ele>500.0</ele><time>2026-04-11T16:52:49Z</time></trkpt><trkpt lat="43.052840848182385" lon="11.49844070256855"><ele>500.0</ele><time>2026-04-11T16:52:50Z</time></trkpt><trkpt lat="43.05279428077135" lon="11.498549886239257"><ele>500.0</ele><time>2026-04-11T16:52:51Z</time></trkpt><trkpt lat="43.052748179201764" lon="11.498660463601086"><ele>498.0</ele><time>2026-04-11T16:52:52Z</time></trkpt><trkpt lat="43.05270238698179" lon="11.498772128921434"><ele>496.0</ele><time>2026-04-11T16:52:53Z</time></trkpt><trkpt lat="43.052655551746355" lon="11.498887009384012"><ele>494.0</ele><time>2026-04-11T16:52:54Z</time></trkpt><trkpt lat="43.052609719000024" lon="11.498999430852129"><ele>492.0</ele><time>2026-04-11T16:52:55Z</time></trkpt><trkpt lat="43.05256304115622" lon="11.499113925248954"><ele>490.0</ele><time>2026-04-11T16:52:56Z</time></trkpt><trkpt lat="43.0525273504263" lon="11.499238392976334"><ele>490.0</ele><time>2026-04-11T16:52:57Z</time></trkpt><trkpt lat="43.052474520857174" lon="11.499351754931112"><ele>490.0</ele><time>2026-04-11T16:52:58Z</time></trkpt><trkpt lat="43.05242976909781" lon="11.49946633568325"><ele>490.0</ele><time>2026-04-11T16:52:59Z</time></trkpt><trkpt lat="43.052383989256164" lon="11.49958555252575"><ele>490.0</ele><time>2026-04-11T16:53:00Z</time></trkpt><trkpt lat="43.052338336575836" lon="11.499709879488424"><ele>490.0</ele><time>2026-04-11T16:53:01Z</time></trkpt><trkpt lat="43.052278570820356" lon="11.499811017827062"><ele>487.8</ele><time>2026-04-11T16:53:02Z</time></trkpt><trkpt lat="43.052230161407046" lon="11.49993072406725"><ele>485.6</ele><time>2026-04-11T16:53:03Z</time></trkpt><trkpt lat="43.05218299324842" lon="11.500044437811328"><ele>483.4</ele><time>2026-04-11T16:53:04Z</time></trkpt><trkpt lat="43.05213730571025" lon="11.50015459408201"><ele>481.2</ele><time>2026-04-11T16:53:05Z</time></trkpt><trkpt lat="43.052093609775" lon="11.500261370663548"><ele>479.0</ele><time>2026-04-11T16:53:06Z</time></trkpt><trkpt lat="43.052049926375176" lon="11.500371370167265"><ele>478.0</ele><time>2026-04-11T16:53:07Z</time></trkpt><trkpt lat="43.05200938415257" lon="11.500478211018144"><ele>477.0</ele><time>2026-04-11T16:53:08Z</time></trkpt><trkpt lat="43.051975984621365" lon="11.500593771097796"><ele>476.0</ele><time>2026-04-11T16:53:09Z</time></trkpt><trkpt lat="43.05196195056331" lon="11.500718322807801"><ele>475.0</ele><time>2026-04-11T16:53:10Z</time></trkpt><trkpt lat="43.0519358598635" lon="11.500839867160822"><ele>474.0</ele><time>2026-04-11T16:53:11Z</time></trkpt><trkpt lat="43.05192621588397" lon="11.500969473339612"><ele>474.0</ele><time>2026-04-11T16:53:12Z</time></trkpt><trkpt lat="43.05192560851134" lon="11.501095476337525"><ele>474.0</ele><time>2026-04-11T16:53:13Z</time></trkpt><trkpt lat="43.05192744637991" lon="11.501225774895785"><ele>474.0</ele><time>2026-04-11T16:53:14Z</time></trkpt><trkpt lat="43.05193185212849" lon="11.501355348634721"><ele>474.0</ele><time>2026-04-11T16:53:15Z</time></trkpt><trkpt lat="43.051937826828805" lon="11.501486462142323"><ele>474.0</ele><time>2026-04-11T16:53:16Z</time></trkpt><trkpt lat="43.05194299840986" lon="11.501617737994817"><ele>473.0</ele><time>2026-04-11T16:53:17Z</time></trkpt><trkpt lat="43.05194323705065" lon="11.501751090763245"><ele>472.0</ele><time>2026-04-11T16:53:18Z</time></trkpt><trkpt lat="43.051947105341604" lon="11.501873807030487"><ele>471.0</ele><time>2026-04-11T16:53:19Z</time></trkpt><trkpt lat="43.05191978067382" lon="11.502003461509107"><ele>470.0</ele><time>2026-04-11T16:53:20Z</time></trkpt><trkpt lat="43.051902934050595" lon="11.50213331129386"><ele>469.0</ele><time>2026-04-11T16:53:21Z</time></trkpt><trkpt lat="43.05187730011835" lon="11.502260663331638"><ele>468.50000000000006</ele><time>2026-04-11T16:53:22Z</time></trkpt><trkpt lat="43.05183968656808" lon="11.50238198521487"><ele>468.0</ele><time>2026-04-11T16:53:22.999Z</time></trkpt><trkpt lat="43.05182101929351" lon="11.502497235691939"><ele>467.5</ele><time>2026-04-11T16:53:23.999Z</time></trkpt><trkpt lat="43.051793498242844" lon="11.502612993577165"><ele>467.0</ele><time>2026-04-11T16:53:24.999Z</time></trkpt><trkpt lat="43.05176605397793" lon="11.502722486517152"><ele>466.50000000000006</ele><time>2026-04-11T16:53:25.999Z</time></trkpt><trkpt lat="43.05174652264405" lon="11.50282887953078"><ele>466.0</ele><time>2026-04-11T16:53:26.999Z</time></trkpt><trkpt lat="43.051740146002466" lon="11.502941816102465"><ele>465.6</ele><time>2026-04-11T16:53:27.999Z</time></trkpt><trkpt lat="43.05174007675343" lon="11.503065480354925"><ele>465.20000000000005</ele><time>2026-04-11T16:53:28.999Z</time></trkpt><trkpt lat="43.051742403084894" lon="11.50319077217603"><ele>464.79999999999995</ele><time>2026-04-11T16:53:29.999Z</time></trkpt><trkpt lat="43.051782211765136" lon="11.503297007369895"><ele>464.4</ele><time>2026-04-11T16:53:30.999Z</time></trkpt><trkpt lat="43.05181737666433" lon="11.5034071862764"><ele>464.0</ele><time>2026-04-11T16:53:31.999Z</time></trkpt><trkpt lat="43.05186916476334" lon="11.503517016525201"><ele>464.0</ele><time>2026-04-11T16:53:32.999Z</time></trkpt><trkpt lat="43.051922085702614" lon="11.503627849775897"><ele>464.0</ele><time>2026-04-11T16:53:33.999Z</time></trkpt><trkpt lat="43.051971575604206" lon="11.503742270369763"><ele>464.0</ele><time>2026-04-11T16:53:34.999Z</time></trkpt><trkpt lat="43.052016768385165" lon="11.503863169972526"><ele>464.0</ele><time>2026-04-11T16:53:35.999Z</time></trkpt><trkpt lat="43.05205651315956" lon="11.503986395644764"><ele>464.0</ele><time>2026-04-11T16:53:36.999Z</time></trkpt><trkpt lat="43.05210822155572" lon="11.504111135495666"><ele>462.66666666666663</ele><time>2026-04-11T16:53:37.999Z</time></trkpt><trkpt lat="43.05215909475614" lon="11.504237792866602"><ele>461.3333333333333</ele><time>2026-04-11T16:53:38.999Z</time></trkpt><trkpt lat="43.05220127850684" lon="11.504353786393615"><ele>460.0</ele><time>2026-04-11T16:53:39.999Z</time></trkpt><trkpt lat="43.052234391645" lon="11.504452547093047"><ele>458.66666666666663</ele><time>2026-04-11T16:53:40.999Z</time></trkpt><trkpt lat="43.05226689717408" lon="11.50455006369716"><ele>457.3333333333333</ele><time>2026-04-11T16:53:41.999Z</time></trkpt><trkpt lat="43.05230316877731" lon="11.504630567014903"><ele>456.0</ele><time>2026-04-11T16:53:42.999Z</time></trkpt><trkpt lat="43.05231093558278" lon="11.504723360686002"><ele>456.4</ele><time>2026-04-11T16:53:43.999Z</time></trkpt><trkpt lat="43.05229510406906" lon="11.504897773113196"><ele>456.8</ele><time>2026-04-11T16:53:45.999Z</time></trkpt><trkpt lat="43.05228324970293" lon="11.505049105591787"><ele>457.19999999999993</ele><time>2026-04-11T16:53:47.999Z</time></trkpt><trkpt lat="43.052334974778645" lon="11.50509969142207"><ele>457.59999999999997</ele><time>2026-04-11T16:53:48.999Z</time></trkpt><trkpt lat="43.052405009086755" lon="11.505144196955678"><ele>458.0</ele><time>2026-04-11T16:53:50.999Z</time></trkpt><trkpt lat="43.05250099103287" lon="11.505015105937511"><ele>457.99999999999994</ele><time>2026-04-11T16:53:51.999Z</time></trkpt><trkpt lat="43.052601471405524" lon="11.504998043925106"><ele>458.0</ele><time>2026-04-11T16:53:53.999Z</time></trkpt><trkpt lat="43.05271626859183" lon="11.505051044805011"><ele>458.0</ele><time>2026-04-11T16:53:55.999Z</time></trkpt><trkpt lat="43.05278109745068" lon="11.50507926017741"><ele>458.0</ele><time>2026-04-11T16:53:56.999Z</time></trkpt><trkpt lat="43.05284868541518" lon="11.505111898071688"><ele>457.99999999999994</ele><time>2026-04-11T16:53:58Z</time></trkpt><trkpt lat="43.05291247157266" lon="11.505174377973718"><ele>458.0</ele><time>2026-04-11T16:53:59Z</time></trkpt><trkpt lat="43.05297979543183" lon="11.505227468501689"><ele>458.0</ele><time>2026-04-11T16:54:00Z</time></trkpt><trkpt lat="43.053051846949856" lon="11.505290868667737"><ele>457.99999999999994</ele><time>2026-04-11T16:54:01Z</time></trkpt><trkpt lat="43.05313039348491" lon="11.505356527295719"><ele>457.99999999999994</ele><time>2026-04-11T16:54:02Z</time></trkpt><trkpt lat="43.053174567896065" lon="11.505471595507347"><ele>458.0</ele><time>2026-04-11T16:54:03Z</time></trkpt><trkpt lat="43.05321434359993" lon="11.505583449497284"><ele>458.0</ele><time>2026-04-11T16:54:04Z</time></trkpt><trkpt lat="43.05325109538683" lon="11.505710059717229"><ele>457.59999999999997</ele><time>2026-04-11T16:54:05Z</time></trkpt><trkpt lat="43.05325677937974" lon="11.505842587493785"><ele>457.19999999999993</ele><time>2026-04-11T16:54:06Z</time></trkpt><trkpt lat="43.05324504345644" lon="11.505984945489029"><ele>456.8</ele><time>2026-04-11T16:54:07Z</time></trkpt><trkpt lat="43.05322906973932" lon="11.50613102723522"><ele>456.4</ele><time>2026-04-11T16:54:08Z</time></trkpt><trkpt lat="43.053210177127696" lon="11.506280370893542"><ele>456.0</ele><time>2026-04-11T16:54:09Z</time></trkpt><trkpt lat="43.05319091031289" lon="11.506432672585671"><ele>455.25</ele><time>2026-04-11T16:54:10Z</time></trkpt><trkpt lat="43.053173596084555" lon="11.506580582957426"><ele>454.5</ele><time>2026-04-11T16:54:11Z</time></trkpt><trkpt lat="43.05315559789535" lon="11.506734993816533"><ele>453.75</ele><time>2026-04-11T16:54:12Z</time></trkpt><trkpt lat="43.053137242707194" lon="11.506892467457648"><ele>453.0</ele><time>2026-04-11T16:54:13Z</time></trkpt><trkpt lat="43.053132501878785" lon="11.507057141453547"><ele>451.0</ele><time>2026-04-11T16:54:14Z</time></trkpt><trkpt lat="43.05311348057865" lon="11.50721922788435"><ele>449.0</ele><time>2026-04-11T16:54:15Z</time></trkpt><trkpt lat="43.053079095139594" lon="11.507375529862816"><ele>447.0</ele><time>2026-04-11T16:54:16Z</time></trkpt><trkpt lat="43.053059949753376" lon="11.50753725104875"><ele>445.0</ele><time>2026-04-11T16:54:17Z</time></trkpt><trkpt lat="43.05305295988808" lon="11.507703098313078"><ele>445.0</ele><time>2026-04-11T16:54:18Z</time></trkpt><trkpt lat="43.05302411675942" lon="11.507868744723266"><ele>445.0</ele><time>2026-04-11T16:54:19Z</time></trkpt><trkpt lat="43.05300918335724" lon="11.508026166135888"><ele>445.0</ele><time>2026-04-11T16:54:20Z</time></trkpt><trkpt lat="43.05299517674243" lon="11.508189590110506"><ele>445.0</ele><time>2026-04-11T16:54:21Z</time></trkpt><trkpt lat="43.05297522926234" lon="11.508356637084677"><ele>442.75</ele><time>2026-04-11T16:54:22Z</time></trkpt><trkpt lat="43.05297208584771" lon="11.508531773801616"><ele>440.5</ele><time>2026-04-11T16:54:23Z</time></trkpt><trkpt lat="43.05297772887435" lon="11.508706874925343"><ele>438.25</ele><time>2026-04-11T16:54:24Z</time></trkpt><trkpt lat="43.05299879801721" lon="11.508891446402114"><ele>436.0</ele><time>2026-04-11T16:54:25Z</time></trkpt><trkpt lat="43.05303837880163" lon="11.509077024108304"><ele>434.0</ele><time>2026-04-11T16:54:26Z</time></trkpt><trkpt lat="43.05307409679755" lon="11.509262458204354"><ele>432.0</ele><time>2026-04-11T16:54:27Z</time></trkpt><trkpt lat="43.05311312806568" lon="11.50943922570596"><ele>430.0</ele><time>2026-04-11T16:54:28Z</time></trkpt><trkpt lat="43.05315013940044" lon="11.509619980089102"><ele>428.0</ele><time>2026-04-11T16:54:29Z</time></trkpt><trkpt lat="43.05318926682892" lon="11.509799992230677"><ele>427.25</ele><time>2026-04-11T16:54:30Z</time></trkpt><trkpt lat="43.053248413173684" lon="11.509970925868346"><ele>426.5</ele><time>2026-04-11T16:54:31Z</time></trkpt><trkpt lat="43.05332612935402" lon="11.510127861512853"><ele>425.75</ele><time>2026-04-11T16:54:32Z</time></trkpt><trkpt lat="43.053426699447975" lon="11.51026009316343"><ele>425.0</ele><time>2026-04-11T16:54:33Z</time></trkpt><trkpt lat="43.053538970442986" lon="11.510369646512688"><ele>423.25</ele><time>2026-04-11T16:54:34Z</time></trkpt><trkpt lat="43.05365999152694" lon="11.510466391754091"><ele>421.5</ele><time>2026-04-11T16:54:35Z</time></trkpt><trkpt lat="43.053786084149564" lon="11.510547421248473"><ele>419.75</ele><time>2026-04-11T16:54:36Z</time></trkpt><trkpt lat="43.053918509187106" lon="11.510606837603733"><ele>418.0</ele><time>2026-04-11T16:54:37Z</time></trkpt><trkpt lat="43.054052418448215" lon="11.510639479269756"><ele>417.5</ele><time>2026-04-11T16:54:38Z</time></trkpt><trkpt lat="43.05418600488929" lon="11.510643581571006"><ele>417.0</ele><time>2026-04-11T16:54:39Z</time></trkpt><trkpt lat="43.054314448894345" lon="11.510606039454684"><ele>416.5</ele><time>2026-04-11T16:54:40Z</time></trkpt><trkpt lat="43.05444090053524" lon="11.510544871732009"><ele>416.0</ele><time>2026-04-11T16:54:41Z</time></trkpt><trkpt lat="43.054556094650195" lon="11.510462273031207"><ele>418.75</ele><time>2026-04-11T16:54:42Z</time></trkpt><trkpt lat="43.05465723080348" lon="11.510347405901005"><ele>421.5</ele><time>2026-04-11T16:54:43Z</time></trkpt><trkpt lat="43.05476092439589" lon="11.510240780789495"><ele>424.25</ele><time>2026-04-11T16:54:44Z</time></trkpt><trkpt lat="43.05485092680265" lon="11.510111005955178"><ele>427.0</ele><time>2026-04-11T16:54:45Z</time></trkpt><trkpt lat="43.05493240892782" lon="11.509973161202149"><ele>423.75</ele><time>2026-04-11T16:54:46Z</time></trkpt><trkpt lat="43.055003828038416" lon="11.509820198565526"><ele>420.5</ele><time>2026-04-11T16:54:47Z</time></trkpt><trkpt lat="43.055059523194004" lon="11.509658364687901"><ele>417.25</ele><time>2026-04-11T16:54:48Z</time></trkpt><trkpt lat="43.05511371643739" lon="11.509495207564296"><ele>414.0</ele><time>2026-04-11T16:54:49Z</time></trkpt><trkpt lat="43.055166653055764" lon="11.509336954530312"><ele>414.0</ele><time>2026-04-11T16:54:50Z</time></trkpt><trkpt lat="43.05522505756985" lon="11.509192108256908"><ele>414.0</ele><time>2026-04-11T16:54:51Z</time></trkpt><trkpt lat="43.05529825082253" lon="11.509057067536634"><ele>414.0</ele><time>2026-04-11T16:54:52Z</time></trkpt><trkpt lat="43.05537113003475" lon="11.508914951067794"><ele>414.0</ele><time>2026-04-11T16:54:53Z</time></trkpt><trkpt lat="43.05546433756971" lon="11.508798329948192"><ele>414.25</ele><time>2026-04-11T16:54:54Z</time></trkpt><trkpt lat="43.055558901402584" lon="11.508689038342514"><ele>414.5</ele><time>2026-04-11T16:54:55Z</time></trkpt><trkpt lat="43.05565045605866" lon="11.50857320766691"><ele>414.75</ele><time>2026-04-11T16:54:56Z</time></trkpt><trkpt lat="43.05574002438091" lon="11.508460947305803"><ele>415.0</ele><time>2026-04-11T16:54:57Z</time></trkpt><trkpt lat="43.055827790850884" lon="11.508357833453031"><ele>411.6</ele><time>2026-04-11T16:54:58Z</time></trkpt><trkpt lat="43.05589001591784" lon="11.508231219585763"><ele>408.2</ele><time>2026-04-11T16:54:59Z</time></trkpt><trkpt lat="43.055933516135376" lon="11.508085956587513"><ele>404.79999999999995</ele><time>2026-04-11T16:55:00Z</time></trkpt><trkpt lat="43.055956150770214" lon="11.507935731707795"><ele>401.4</ele><time>2026-04-11T16:55:01Z</time></trkpt><trkpt lat="43.05595829057682" lon="11.507785128263622"><ele>398.0</ele><time>2026-04-11T16:55:02Z</time></trkpt><trkpt lat="43.05595818838351" lon="11.507638752488816"><ele>397.59999999999997</ele><time>2026-04-11T16:55:03Z</time></trkpt><trkpt lat="43.05595930072864" lon="11.507493177797492"><ele>397.2</ele><time>2026-04-11T16:55:04Z</time></trkpt><trkpt lat="43.055953579226404" lon="11.507353490252585"><ele>396.8</ele><time>2026-04-11T16:55:05Z</time></trkpt><trkpt lat="43.05592397183709" lon="11.50722676978327"><ele>396.4</ele><time>2026-04-11T16:55:06Z</time></trkpt><trkpt lat="43.05588682793896" lon="11.507102434095332"><ele>396.0</ele><time>2026-04-11T16:55:07Z</time></trkpt><trkpt lat="43.05583820004287" lon="11.506991448191258"><ele>397.20000000000005</ele><time>2026-04-11T16:55:08Z</time></trkpt><trkpt lat="43.05578174311469" lon="11.506889302345376"><ele>398.40000000000003</ele><time>2026-04-11T16:55:09Z</time></trkpt><trkpt lat="43.05572222635348" lon="11.506792599678183"><ele>399.6</ele><time>2026-04-11T16:55:10Z</time></trkpt><trkpt lat="43.055658611881086" lon="11.506698416367385"><ele>400.8</ele><time>2026-04-11T16:55:11Z</time></trkpt><trkpt lat="43.05560176103953" lon="11.50659471259479"><ele>402.0</ele><time>2026-04-11T16:55:12Z</time></trkpt><trkpt lat="43.0555544859256" lon="11.506478095898967"><ele>402.0</ele><time>2026-04-11T16:55:13Z</time></trkpt><trkpt lat="43.05552037752091" lon="11.506353002972228"><ele>402.0</ele><time>2026-04-11T16:55:14Z</time></trkpt><trkpt lat="43.05550380509639" lon="11.506222172745076"><ele>402.0</ele><time>2026-04-11T16:55:15Z</time></trkpt><trkpt lat="43.05550322821344" lon="11.506089456474943"><ele>402.0</ele><time>2026-04-11T16:55:16Z</time></trkpt><trkpt lat="43.055520054227195" lon="11.505955255268253"><ele>402.0</ele><time>2026-04-11T16:55:17Z</time></trkpt><trkpt lat="43.05554383794388" lon="11.505824791456186"><ele>402.0</ele><time>2026-04-11T16:55:18Z</time></trkpt><trkpt lat="43.05558062698987" lon="11.505694601574627"><ele>402.0</ele><time>2026-04-11T16:55:19Z</time></trkpt><trkpt lat="43.055621737938" lon="11.505565859751286"><ele>402.0</ele><time>2026-04-11T16:55:20Z</time></trkpt><trkpt lat="43.05566158576866" lon="11.50543546222283"><ele>402.0</ele><time>2026-04-11T16:55:21Z</time></trkpt><trkpt lat="43.0557049572708" lon="11.505302647159183"><ele>402.0</ele><time>2026-04-11T16:55:22Z</time></trkpt><trkpt lat="43.05575012640831" lon="11.505169966685468"><ele>399.6</ele><time>2026-04-11T16:55:23Z</time></trkpt><trkpt lat="43.05579611521374" lon="11.50503668348951"><ele>397.20000000000005</ele><time>2026-04-11T16:55:23.999Z</time></trkpt><trkpt lat="43.05585164685917" lon="11.504907553859944"><ele>394.8</ele><time>2026-04-11T16:55:24.999Z</time></trkpt><trkpt lat="43.05591177602748" lon="11.504783431669338"><ele>392.4</ele><time>2026-04-11T16:55:25.999Z</time></trkpt><trkpt lat="43.05597227259006" lon="11.504657798401121"><ele>390.0</ele><time>2026-04-11T16:55:26.999Z</time></trkpt><trkpt lat="43.05603847733038" lon="11.504535425720382"><ele>390.0</ele><time>2026-04-11T16:55:27.999Z</time></trkpt><trkpt lat="43.05610468940523" lon="11.504413796079925"><ele>390.0</ele><time>2026-04-11T16:55:28.999Z</time></trkpt><trkpt lat="43.05616496789235" lon="11.504286562318935"><ele>390.0</ele><time>2026-04-11T16:55:29.999Z</time></trkpt><trkpt lat="43.05623497216271" lon="11.504170879976723"><ele>390.0</ele><time>2026-04-11T16:55:30.999Z</time></trkpt><trkpt lat="43.05632195207408" lon="11.504073953078214"><ele>390.0</ele><time>2026-04-11T16:55:31.999Z</time></trkpt><trkpt lat="43.05642102919183" lon="11.503994587383723"><ele>390.0</ele><time>2026-04-11T16:55:32.999Z</time></trkpt><trkpt lat="43.056522119783494" lon="11.50392226866862"><ele>390.0</ele><time>2026-04-11T16:55:33.999Z</time></trkpt><trkpt lat="43.0566276713786" lon="11.503857677421172"><ele>390.0</ele><time>2026-04-11T16:55:34.999Z</time></trkpt><trkpt lat="43.05673099033511" lon="11.5037945904599"><ele>390.0</ele><time>2026-04-11T16:55:35.999Z</time></trkpt><trkpt lat="43.05683650167729" lon="11.503723626400413"><ele>388.5</ele><time>2026-04-11T16:55:36.999Z</time></trkpt><trkpt lat="43.05693901978865" lon="11.503649335491403"><ele>387.0</ele><time>2026-04-11T16:55:37.999Z</time></trkpt><trkpt lat="43.05704728249948" lon="11.50358528890719"><ele>385.5</ele><time>2026-04-11T16:55:38.999Z</time></trkpt><trkpt lat="43.05715906487906" lon="11.503537207738256"><ele>384.0</ele><time>2026-04-11T16:55:39.999Z</time></trkpt><trkpt lat="43.057273536182926" lon="11.503498564354306"><ele>384.0</ele><time>2026-04-11T16:55:40.999Z</time></trkpt><trkpt lat="43.05738481316384" lon="11.503463576995935"><ele>384.0</ele><time>2026-04-11T16:55:41.999Z</time></trkpt><trkpt lat="43.057495981565445" lon="11.503431760976321"><ele>384.0</ele><time>2026-04-11T16:55:42.999Z</time></trkpt><trkpt lat="43.05760015152194" lon="11.503389086122068"><ele>384.0</ele><time>2026-04-11T16:55:43.999Z</time></trkpt><trkpt lat="43.05768178044173" lon="11.503299512062604"><ele>384.0</ele><time>2026-04-11T16:55:44.999Z</time></trkpt><trkpt lat="43.05774450101889" lon="11.503182344568053"><ele>382.2</ele><time>2026-04-11T16:55:45.999Z</time></trkpt><trkpt lat="43.05778602038635" lon="11.503045845161244"><ele>380.4</ele><time>2026-04-11T16:55:46.999Z</time></trkpt><trkpt lat="43.057801653260185" lon="11.50289538141994"><ele>378.6</ele><time>2026-04-11T16:55:47.999Z</time></trkpt><trkpt lat="43.05780049365805" lon="11.502743423019984"><ele>376.8</ele><time>2026-04-11T16:55:48.999Z</time></trkpt><trkpt lat="43.057779681499774" lon="11.502592117898118"><ele>375.0</ele><time>2026-04-11T16:55:49.999Z</time></trkpt><trkpt lat="43.05779942628911" lon="11.502456821715773"><ele>375.0</ele><time>2026-04-11T16:55:50.999Z</time></trkpt><trkpt lat="43.05782974806769" lon="11.502330955831738"><ele>375.0</ele><time>2026-04-11T16:55:51.999Z</time></trkpt><trkpt lat="43.057879146454724" lon="11.502220823509184"><ele>375.0</ele><time>2026-04-11T16:55:52.999Z</time></trkpt><trkpt lat="43.057958924859506" lon="11.50214304759437"><ele>375.0</ele><time>2026-04-11T16:55:53.999Z</time></trkpt><trkpt lat="43.05803967463228" lon="11.502090541559511"><ele>375.0</ele><time>2026-04-11T16:55:54.999Z</time></trkpt><trkpt lat="43.05812755613989" lon="11.502053156080057"><ele>374.6</ele><time>2026-04-11T16:55:55.999Z</time></trkpt><trkpt lat="43.058217181691745" lon="11.502029760622488"><ele>374.2</ele><time>2026-04-11T16:55:56.999Z</time></trkpt><trkpt lat="43.05830377928403" lon="11.502019276976633"><ele>373.79999999999995</ele><time>2026-04-11T16:55:57.999Z</time></trkpt><trkpt lat="43.058394549329236" lon="11.502020420787277"><ele>373.4</ele><time>2026-04-11T16:55:58.999Z</time></trkpt><trkpt lat="43.05847788460185" lon="11.50205095228072"><ele>373.0</ele><time>2026-04-11T16:55:59.999Z</time></trkpt><trkpt lat="43.05854769542501" lon="11.502148551717568"><ele>370.59999999999997</ele><time>2026-04-11T16:56:00.999Z</time></trkpt><trkpt lat="43.05862784692721" lon="11.502216822063957"><ele>368.2</ele><time>2026-04-11T16:56:01.999Z</time></trkpt><trkpt lat="43.05870295224615" lon="11.502308357565365"><ele>365.8</ele><time>2026-04-11T16:56:02.999Z</time></trkpt><trkpt lat="43.05877657635027" lon="11.502396990696681"><ele>363.4</ele><time>2026-04-11T16:56:04Z</time></trkpt><trkpt lat="43.05885496802141" lon="11.502479146387794"><ele>361.0</ele><time>2026-04-11T16:56:05Z</time></trkpt><trkpt lat="43.05893381709751" lon="11.502570951082713"><ele>361.0</ele><time>2026-04-11T16:56:06Z</time></trkpt><trkpt lat="43.05900938736701" lon="11.502664645641373"><ele>361.0</ele><time>2026-04-11T16:56:07Z</time></trkpt><trkpt lat="43.05909057974513" lon="11.50274562861521"><ele>361.0</ele><time>2026-04-11T16:56:08Z</time></trkpt><trkpt lat="43.05916790206964" lon="11.502831066540654"><ele>361.0</ele><time>2026-04-11T16:56:09Z</time></trkpt><trkpt lat="43.059248924493275" lon="11.502902537428854"><ele>361.0</ele><time>2026-04-11T16:56:10Z</time></trkpt><trkpt lat="43.059341020539605" lon="11.502955953221537"><ele>357.20000000000005</ele><time>2026-04-11T16:56:11Z</time></trkpt><trkpt lat="43.05944066165495" lon="11.502997561994365"><ele>353.40000000000003</ele><time>2026-04-11T16:56:12Z</time></trkpt><trkpt lat="43.05954571765155" lon="11.50302117633945"><ele>349.6</ele><time>2026-04-11T16:56:13Z</time></trkpt><trkpt lat="43.05965089397666" lon="11.503037435625412"><ele>345.8</ele><time>2026-04-11T16:56:14Z</time></trkpt><trkpt lat="43.059756764753885" lon="11.503046312376002"><ele>342.0</ele><time>2026-04-11T16:56:15Z</time></trkpt><trkpt lat="43.05986343762616" lon="11.503056429608849"><ele>341.20000000000005</ele><time>2026-04-11T16:56:16Z</time></trkpt><trkpt lat="43.05997029935538" lon="11.503060568546944"><ele>340.4</ele><time>2026-04-11T16:56:17Z</time></trkpt><trkpt lat="43.06007198080815" lon="11.503057078251906"><ele>339.6</ele><time>2026-04-11T16:56:18Z</time></trkpt><trkpt lat="43.060181315213164" lon="11.503032000811835"><ele>338.79999999999995</ele><time>2026-04-11T16:56:19Z</time></trkpt><trkpt lat="43.06028422742249" lon="11.502970595335144"><ele>338.0</ele><time>2026-04-11T16:56:20Z</time></trkpt><trkpt lat="43.06038078104933" lon="11.50289902305312"><ele>341.59999999999997</ele><time>2026-04-11T16:56:21Z</time></trkpt><trkpt lat="43.060467052112486" lon="11.502810673389822"><ele>345.2</ele><time>2026-04-11T16:56:22Z</time></trkpt><trkpt lat="43.06054406215438" lon="11.502707141384478"><ele>348.8</ele><time>2026-04-11T16:56:23Z</time></trkpt><trkpt lat="43.06060722742069" lon="11.502586650285576"><ele>352.4</ele><time>2026-04-11T16:56:24Z</time></trkpt><trkpt lat="43.060669744081615" lon="11.502467011572216"><ele>356.0</ele><time>2026-04-11T16:56:25Z</time></trkpt><trkpt lat="43.060732929899515" lon="11.502353437642762"><ele>354.8</ele><time>2026-04-11T16:56:26Z</time></trkpt><trkpt lat="43.06082105141861" lon="11.502270290742594"><ele>353.6</ele><time>2026-04-11T16:56:27Z</time></trkpt><trkpt lat="43.060900488662895" lon="11.502171105004765"><ele>352.4</ele><time>2026-04-11T16:56:28Z</time></trkpt><trkpt lat="43.06100521746627" lon="11.502111285889734"><ele>351.2</ele><time>2026-04-11T16:56:29Z</time></trkpt><trkpt lat="43.061114810088604" lon="11.502103106334014"><ele>350.0</ele><time>2026-04-11T16:56:30Z</time></trkpt><trkpt lat="43.06122849522417" lon="11.502071124447092"><ele>350.0</ele><time>2026-04-11T16:56:31Z</time></trkpt><trkpt lat="43.06133910911116" lon="11.502060822003731"><ele>350.0</ele><time>2026-04-11T16:56:32Z</time></trkpt><trkpt lat="43.06145052871718" lon="11.50203716938079"><ele>350.0</ele><time>2026-04-11T16:56:33Z</time></trkpt><trkpt lat="43.06155811684941" lon="11.50199037783258"><ele>350.0</ele><time>2026-04-11T16:56:34Z</time></trkpt><trkpt lat="43.06166032688273" lon="11.501925010612524"><ele>350.0</ele><time>2026-04-11T16:56:35Z</time></trkpt><trkpt lat="43.06175977803847" lon="11.50185597765816"><ele>348.4</ele><time>2026-04-11T16:56:36Z</time></trkpt><trkpt lat="43.06185311824131" lon="11.501776996744601"><ele>346.8</ele><time>2026-04-11T16:56:37Z</time></trkpt><trkpt lat="43.06194146425859" lon="11.501688754842771"><ele>345.20000000000005</ele><time>2026-04-11T16:56:38Z</time></trkpt><trkpt lat="43.06203245344475" lon="11.501603230378551"><ele>343.6</ele><time>2026-04-11T16:56:39Z</time></trkpt><trkpt lat="43.06212318275179" lon="11.501519629498624"><ele>342.0</ele><time>2026-04-11T16:56:40Z</time></trkpt><trkpt lat="43.06221077576571" lon="11.501429160883015"><ele>342.0</ele><time>2026-04-11T16:56:41Z</time></trkpt><trkpt lat="43.06230000914664" lon="11.50134259706577"><ele>342.0</ele><time>2026-04-11T16:56:42Z</time></trkpt><trkpt lat="43.06239264913737" lon="11.501264200755317"><ele>342.0</ele><time>2026-04-11T16:56:43Z</time></trkpt><trkpt lat="43.062482663287454" lon="11.501186047312776"><ele>342.0</ele><time>2026-04-11T16:56:44Z</time></trkpt><trkpt lat="43.06257057668673" lon="11.501105411675432"><ele>342.0</ele><time>2026-04-11T16:56:45Z</time></trkpt><trkpt lat="43.06266370082832" lon="11.50104276204962"><ele>341.0</ele><time>2026-04-11T16:56:46Z</time></trkpt><trkpt lat="43.062767301550736" lon="11.501008385461784"><ele>340.0</ele><time>2026-04-11T16:56:47Z</time></trkpt><trkpt lat="43.062875035488645" lon="11.500993085626131"><ele>339.0</ele><time>2026-04-11T16:56:48Z</time></trkpt><trkpt lat="43.06297938133571" lon="11.500994892525572"><ele>338.0</ele><time>2026-04-11T16:56:49Z</time></trkpt><trkpt lat="43.063084435005344" lon="11.501015465082673"><ele>337.0</ele><time>2026-04-11T16:56:50Z</time></trkpt><trkpt lat="43.063184501588964" lon="11.50105302544896"><ele>335.8</ele><time>2026-04-11T16:56:51Z</time></trkpt><trkpt lat="43.063282244820414" lon="11.501108725951017"><ele>334.6</ele><time>2026-04-11T16:56:52Z</time></trkpt><trkpt lat="43.06337958991118" lon="11.501164173750274"><ele>333.40000000000003</ele><time>2026-04-11T16:56:53Z</time></trkpt><trkpt lat="43.063477235177736" lon="11.501215158477903"><ele>332.20000000000005</ele><time>2026-04-11T16:56:54Z</time></trkpt><trkpt lat="43.063577515419034" lon="11.501267883325031"><ele>331.0</ele><time>2026-04-11T16:56:55Z</time></trkpt><trkpt lat="43.06367768999538" lon="11.501314989176231"><ele>329.4</ele><time>2026-04-11T16:56:56Z</time></trkpt><trkpt lat="43.063778928906395" lon="11.501364254736998"><ele>327.8</ele><time>2026-04-11T16:56:57Z</time></trkpt><trkpt lat="43.06388143647475" lon="11.501413685351135"><ele>326.2</ele><time>2026-04-11T16:56:58Z</time></trkpt><trkpt lat="43.06398481966138" lon="11.501467712523725"><ele>324.59999999999997</ele><time>2026-04-11T16:56:59Z</time></trkpt><trkpt lat="43.064086727530906" lon="11.501522150896992"><ele>323.0</ele><time>2026-04-11T16:57:00Z</time></trkpt><trkpt lat="43.064192254771136" lon="11.501575916484136"><ele>322.75</ele><time>2026-04-11T16:57:01Z</time></trkpt><trkpt lat="43.06429722205438" lon="11.501630437568332"><ele>322.5</ele><time>2026-04-11T16:57:02Z</time></trkpt><trkpt lat="43.064403342487246" lon="11.50168310549453"><ele>322.25</ele><time>2026-04-11T16:57:03Z</time></trkpt><trkpt lat="43.064511376728575" lon="11.50173039980073"><ele>322.0</ele><time>2026-04-11T16:57:04Z</time></trkpt><trkpt lat="43.06462291307084" lon="11.501759364755948"><ele>322.0</ele><time>2026-04-11T16:57:05Z</time></trkpt><trkpt lat="43.0647379125278" lon="11.50175598501067"><ele>322.0</ele><time>2026-04-11T16:57:06Z</time></trkpt><trkpt lat="43.06485172279381" lon="11.501732267676816"><ele>322.0</ele><time>2026-04-11T16:57:07Z</time></trkpt><trkpt lat="43.064960145537476" lon="11.501683492277097"><ele>322.0</ele><time>2026-04-11T16:57:08Z</time></trkpt><trkpt lat="43.06506204197089" lon="11.501618477747398"><ele>321.75</ele><time>2026-04-11T16:57:09Z</time></trkpt><trkpt lat="43.065158000220435" lon="11.501540757741905"><ele>321.5</ele><time>2026-04-11T16:57:10Z</time></trkpt><trkpt lat="43.06524331443585" lon="11.501441130539607"><ele>321.25</ele><time>2026-04-11T16:57:11Z</time></trkpt><trkpt lat="43.06531892880734" lon="11.50132235972024"><ele>321.0</ele><time>2026-04-11T16:57:12Z</time></trkpt><trkpt lat="43.06538425107697" lon="11.501195191960772"><ele>321.0</ele><time>2026-04-11T16:57:13Z</time></trkpt><trkpt lat="43.06544462121558" lon="11.501063119886771"><ele>321.0</ele><time>2026-04-11T16:57:14Z</time></trkpt><trkpt lat="43.06550622590862" lon="11.50093135352609"><ele>321.0</ele><time>2026-04-11T16:57:15Z</time></trkpt><trkpt lat="43.065566300213305" lon="11.5008032596646"><ele>321.0</ele><time>2026-04-11T16:57:16Z</time></trkpt><trkpt lat="43.065625732392164" lon="11.500679483830824"><ele>321.0</ele><time>2026-04-11T16:57:17Z</time></trkpt><trkpt lat="43.065686732047524" lon="11.500557076488734"><ele>321.0</ele><time>2026-04-11T16:57:18Z</time></trkpt><trkpt lat="43.065754236402" lon="11.500439890596079"><ele>321.0</ele><time>2026-04-11T16:57:19Z</time></trkpt><trkpt lat="43.06583750871261" lon="11.500338481039886"><ele>321.0</ele><time>2026-04-11T16:57:20Z</time></trkpt><trkpt lat="43.065929743775115" lon="11.500255871705603"><ele>321.0</ele><time>2026-04-11T16:57:21Z</time></trkpt><trkpt lat="43.06602940177678" lon="11.5001885158955"><ele>321.0</ele><time>2026-04-11T16:57:22Z</time></trkpt><trkpt lat="43.066133573124546" lon="11.500138259309367"><ele>319.6</ele><time>2026-04-11T16:57:23Z</time></trkpt><trkpt lat="43.066241655918304" lon="11.500097487600353"><ele>318.20000000000005</ele><time>2026-04-11T16:57:24Z</time></trkpt><trkpt lat="43.066349048780644" lon="11.500062129187345"><ele>316.79999999999995</ele><time>2026-04-11T16:57:24.999Z</time></trkpt><trkpt lat="43.06645669354903" lon="11.500027596565173"><ele>315.4</ele><time>2026-04-11T16:57:25.999Z</time></trkpt><trkpt lat="43.066563917243926" lon="11.499995004619265"><ele>314.0</ele><time>2026-04-11T16:57:26.999Z</time></trkpt><trkpt lat="43.06666914517941" lon="11.499957979796719"><ele>312.4</ele><time>2026-04-11T16:57:27.999Z</time></trkpt><trkpt lat="43.066771894503795" lon="11.4999135815431"><ele>310.79999999999995</ele><time>2026-04-11T16:57:28.999Z</time></trkpt><trkpt lat="43.06687032894857" lon="11.499862202237587"><ele>309.20000000000005</ele><time>2026-04-11T16:57:29.999Z</time></trkpt><trkpt lat="43.06696132981008" lon="11.499802420008072"><ele>307.6</ele><time>2026-04-11T16:57:30.999Z</time></trkpt><trkpt lat="43.06705173292187" lon="11.499735908902656"><ele>306.0</ele><time>2026-04-11T16:57:31.999Z</time></trkpt><trkpt lat="43.067142290809535" lon="11.499663039263146"><ele>306.0</ele><time>2026-04-11T16:57:32.999Z</time></trkpt><trkpt lat="43.06723719406623" lon="11.499603725867887"><ele>306.0</ele><time>2026-04-11T16:57:33.999Z</time></trkpt><trkpt lat="43.067329386425875" lon="11.49953495863762"><ele>306.0</ele><time>2026-04-11T16:57:34.999Z</time></trkpt><trkpt lat="43.06742098702397" lon="11.499465671107536"><ele>306.0</ele><time>2026-04-11T16:57:35.999Z</time></trkpt><trkpt lat="43.06751866407738" lon="11.499402773685683"><ele>306.0</ele><time>2026-04-11T16:57:36.999Z</time></trkpt><trkpt lat="43.06761982515352" lon="11.49934761424422"><ele>305.6</ele><time>2026-04-11T16:57:37.999Z</time></trkpt><trkpt lat="43.06771923281261" lon="11.499290643115058"><ele>305.20000000000005</ele><time>2026-04-11T16:57:38.999Z</time></trkpt><trkpt lat="43.06782150508584" lon="11.4992445619725"><ele>304.79999999999995</ele><time>2026-04-11T16:57:39.999Z</time></trkpt><trkpt lat="43.067929270861" lon="11.49921491755722"><ele>304.4</ele><time>2026-04-11T16:57:40.999Z</time></trkpt><trkpt lat="43.06803758842682" lon="11.499181792322348"><ele>304.0</ele><time>2026-04-11T16:57:41.999Z</time></trkpt><trkpt lat="43.06815008579868" lon="11.499149760880723"><ele>304.0</ele><time>2026-04-11T16:57:42.999Z</time></trkpt><trkpt lat="43.06826167771524" lon="11.499117119112764"><ele>304.0</ele><time>2026-04-11T16:57:43.999Z</time></trkpt><trkpt lat="43.06837552725033" lon="11.499086320666553"><ele>304.0</ele><time>2026-04-11T16:57:44.999Z</time></trkpt><trkpt lat="43.068490143481164" lon="11.499052121876574"><ele>304.0</ele><time>2026-04-11T16:57:45.999Z</time></trkpt><trkpt lat="43.06860333019731" lon="11.499017885038915"><ele>301.5</ele><time>2026-04-11T16:57:46.999Z</time></trkpt><trkpt lat="43.068718542270226" lon="11.498980755877058"><ele>299.0</ele><time>2026-04-11T16:57:47.999Z</time></trkpt><trkpt lat="43.068835086737195" lon="11.498941473750143"><ele>296.5</ele><time>2026-04-11T16:57:48.999Z</time></trkpt><trkpt lat="43.068951264745714" lon="11.49890539317979"><ele>294.0</ele><time>2026-04-11T16:57:49.999Z</time></trkpt><trkpt lat="43.069068029156774" lon="11.498875688967065"><ele>292.75</ele><time>2026-04-11T16:57:50.999Z</time></trkpt><trkpt lat="43.06918321522772" lon="11.498838325774667"><ele>291.5</ele><time>2026-04-11T16:57:51.999Z</time></trkpt><trkpt lat="43.069296626853856" lon="11.498799499820384"><ele>290.25</ele><time>2026-04-11T16:57:52.999Z</time></trkpt><trkpt lat="43.06940895858355" lon="11.498764669339634"><ele>289.0</ele><time>2026-04-11T16:57:53.999Z</time></trkpt><trkpt lat="43.06952223180508" lon="11.498736559939921"><ele>289.0</ele><time>2026-04-11T16:57:54.999Z</time></trkpt><trkpt lat="43.0696344544444" lon="11.49870254787398"><ele>289.0</ele><time>2026-04-11T16:57:55.999Z</time></trkpt><trkpt lat="43.06974626000677" lon="11.498668792995122"><ele>289.0</ele><time>2026-04-11T16:57:56.999Z</time></trkpt><trkpt lat="43.069858447428246" lon="11.498635906625472"><ele>289.0</ele><time>2026-04-11T16:57:57.999Z</time></trkpt><trkpt lat="43.06996483047928" lon="11.4985965680995"><ele>288.2</ele><time>2026-04-11T16:57:58.999Z</time></trkpt><trkpt lat="43.07006853950888" lon="11.49855013106591"><ele>287.4</ele><time>2026-04-11T16:57:59.999Z</time></trkpt><trkpt lat="43.070168453437354" lon="11.498500803740672"><ele>286.6</ele><time>2026-04-11T16:58:00.999Z</time></trkpt><trkpt lat="43.07026597024545" lon="11.498440984511083"><ele>285.8</ele><time>2026-04-11T16:58:01.999Z</time></trkpt><trkpt lat="43.07036459335545" lon="11.498377997080947"><ele>285.0</ele><time>2026-04-11T16:58:02.999Z</time></trkpt><trkpt lat="43.07046223587509" lon="11.498309821007643"><ele>285.0</ele><time>2026-04-11T16:58:03.999Z</time></trkpt><trkpt lat="43.0705546551002" lon="11.498239968285041"><ele>285.0</ele><time>2026-04-11T16:58:04.999Z</time></trkpt><trkpt lat="43.07064477464385" lon="11.498165657837665"><ele>285.0</ele><time>2026-04-11T16:58:05.999Z</time></trkpt><trkpt lat="43.07073806340386" lon="11.498093581678518"><ele>285.0</ele><time>2026-04-11T16:58:06.999Z</time></trkpt><trkpt lat="43.07083254806353" lon="11.498027136537125"><ele>285.0</ele><time>2026-04-11T16:58:07.999Z</time></trkpt><trkpt lat="43.07092453760157" lon="11.497957520155191"><ele>283.4</ele><time>2026-04-11T16:58:08.999Z</time></trkpt><trkpt lat="43.07101394112315" lon="11.497884816851576"><ele>281.8</ele><time>2026-04-11T16:58:10Z</time></trkpt><trkpt lat="43.07110575511817" lon="11.49781587635377"><ele>280.2</ele><time>2026-04-11T16:58:11Z</time></trkpt><trkpt lat="43.071195851235984" lon="11.497749195695059"><ele>278.6</ele><time>2026-04-11T16:58:12Z</time></trkpt><trkpt lat="43.07128740174446" lon="11.497685360370392"><ele>277.0</ele><time>2026-04-11T16:58:13Z</time></trkpt><trkpt lat="43.071375288950655" lon="11.497618205226825"><ele>277.0</ele><time>2026-04-11T16:58:14Z</time></trkpt><trkpt lat="43.071464637767974" lon="11.497545129493036"><ele>277.0</ele><time>2026-04-11T16:58:15Z</time></trkpt><trkpt lat="43.07155708837169" lon="11.49747479000366"><ele>277.0</ele><time>2026-04-11T16:58:16Z</time></trkpt><trkpt lat="43.07164366696449" lon="11.497404954239782"><ele>277.0</ele><time>2026-04-11T16:58:17Z</time></trkpt><trkpt lat="43.07173216289196" lon="11.49733784841625"><ele>277.0</ele><time>2026-04-11T16:58:18Z</time></trkpt><trkpt lat="43.071821749982675" lon="11.497272992642802"><ele>277.6</ele><time>2026-04-11T16:58:19Z</time></trkpt><trkpt lat="43.07190998134391" lon="11.497204071965225"><ele>278.2</ele><time>2026-04-11T16:58:20Z</time></trkpt><trkpt lat="43.071997006632394" lon="11.497136746295737"><ele>278.8</ele><time>2026-04-11T16:58:21Z</time></trkpt><trkpt lat="43.07208408058966" lon="11.497069198443716"><ele>279.4</ele><time>2026-04-11T16:58:22Z</time></trkpt><trkpt lat="43.07217112204445" lon="11.496999818405252"><ele>280.0</ele><time>2026-04-11T16:58:23Z</time></trkpt><trkpt lat="43.07225836862368" lon="11.496929470689352"><ele>279.2</ele><time>2026-04-11T16:58:24Z</time></trkpt><trkpt lat="43.07234651044214" lon="11.496861474773524"><ele>278.4</ele><time>2026-04-11T16:58:25Z</time></trkpt><trkpt lat="43.07243910644368" lon="11.496791395908604"><ele>277.6</ele><time>2026-04-11T16:58:26Z</time></trkpt><trkpt lat="43.072531723220195" lon="11.496726476165104"><ele>276.8</ele><time>2026-04-11T16:58:27Z</time></trkpt><trkpt lat="43.07263335065608" lon="11.496668238370024"><ele>276.0</ele><time>2026-04-11T16:58:28Z</time></trkpt><trkpt lat="43.072721832374356" lon="11.49661079486248"><ele>276.0</ele><time>2026-04-11T16:58:29Z</time></trkpt><trkpt lat="43.072814672974644" lon="11.496552979871105"><ele>276.0</ele><time>2026-04-11T16:58:30Z</time></trkpt><trkpt lat="43.072909730555935" lon="11.496501704122212"><ele>276.0</ele><time>2026-04-11T16:58:31Z</time></trkpt><trkpt lat="43.07300902713549" lon="11.49646136793876"><ele>276.0</ele><time>2026-04-11T16:58:32Z</time></trkpt><trkpt lat="43.07311058827571" lon="11.496422088149403"><ele>276.0</ele><time>2026-04-11T16:58:33Z</time></trkpt><trkpt lat="43.07321035654196" lon="11.496377822662838"><ele>275.40000000000003</ele><time>2026-04-11T16:58:34Z</time></trkpt><trkpt lat="43.07331055033818" lon="11.496322576257617"><ele>274.8</ele><time>2026-04-11T16:58:35Z</time></trkpt><trkpt lat="43.07341867372712" lon="11.496287539693125"><ele>274.20000000000005</ele><time>2026-04-11T16:58:36Z</time></trkpt><trkpt lat="43.07352147712769" lon="11.496241199612712"><ele>273.6</ele><time>2026-04-11T16:58:37Z</time></trkpt><trkpt lat="43.073624239186024" lon="11.496188392579803"><ele>273.0</ele><time>2026-04-11T16:58:38Z</time></trkpt><trkpt lat="43.073728887416515" lon="11.496138729077348"><ele>271.4</ele><time>2026-04-11T16:58:39Z</time></trkpt><trkpt lat="43.073832047550646" lon="11.49607978362137"><ele>269.8</ele><time>2026-04-11T16:58:40Z</time></trkpt><trkpt lat="43.07393134843219" lon="11.496017669834036"><ele>268.2</ele><time>2026-04-11T16:58:41Z</time></trkpt><trkpt lat="43.07402883343701" lon="11.495947906038728"><ele>266.6</ele><time>2026-04-11T16:58:42Z</time></trkpt><trkpt lat="43.07412156398325" lon="11.495866397953534"><ele>265.0</ele><time>2026-04-11T16:58:43Z</time></trkpt><trkpt lat="43.074214662306034" lon="11.495790080701857"><ele>264.8</ele><time>2026-04-11T16:58:44Z</time></trkpt><trkpt lat="43.07430791779049" lon="11.495715101034252"><ele>264.6</ele><time>2026-04-11T16:58:45Z</time></trkpt><trkpt lat="43.07440173095071" lon="11.495643593022146"><ele>264.4</ele><time>2026-04-11T16:58:46Z</time></trkpt><trkpt lat="43.07449044039505" lon="11.495565250836624"><ele>264.2</ele><time>2026-04-11T16:58:47Z</time></trkpt><trkpt lat="43.07457961028919" lon="11.495490723564236"><ele>264.0</ele><time>2026-04-11T16:58:48Z</time></trkpt><trkpt lat="43.07466855182094" lon="11.495412464268881"><ele>263.2</ele><time>2026-04-11T16:58:49Z</time></trkpt><trkpt lat="43.07475521732919" lon="11.495333668049195"><ele>262.4</ele><time>2026-04-11T16:58:50Z</time></trkpt><trkpt lat="43.0748453720327" lon="11.495263385122993"><ele>261.6</ele><time>2026-04-11T16:58:51Z</time></trkpt><trkpt lat="43.07493390437972" lon="11.495187296298228"><ele>260.8</ele><time>2026-04-11T16:58:52Z</time></trkpt><trkpt lat="43.07502410776521" lon="11.495111754454406"><ele>260.0</ele><time>2026-04-11T16:58:53Z</time></trkpt><trkpt lat="43.075112657936565" lon="11.495036984630993"><ele>259.6</ele><time>2026-04-11T16:58:54Z</time></trkpt><trkpt lat="43.07520305870143" lon="11.494964402116779"><ele>259.2</ele><time>2026-04-11T16:58:55Z</time></trkpt><trkpt lat="43.07529327380561" lon="11.494889937328436"><ele>258.8</ele><time>2026-04-11T16:58:56Z</time></trkpt><trkpt lat="43.075381832322854" lon="11.494814274613512"><ele>258.4</ele><time>2026-04-11T16:58:57Z</time></trkpt><trkpt lat="43.07546758448138" lon="11.494732832042137"><ele>258.0</ele><time>2026-04-11T16:58:58Z</time></trkpt><trkpt lat="43.075554342425946" lon="11.494653138270216"><ele>257.4</ele><time>2026-04-11T16:58:59Z</time></trkpt><trkpt lat="43.075641081864205" lon="11.494573833497178"><ele>256.8</ele><time>2026-04-11T16:59:00Z</time></trkpt><trkpt lat="43.07572767707486" lon="11.494493319489267"><ele>256.2</ele><time>2026-04-11T16:59:01Z</time></trkpt><trkpt lat="43.07581221865503" lon="11.494411871243852"><ele>255.6</ele><time>2026-04-11T16:59:02Z</time></trkpt><trkpt lat="43.075893298125294" lon="11.494326699845129"><ele>255.0</ele><time>2026-04-11T16:59:03Z</time></trkpt><trkpt lat="43.075972246788375" lon="11.49423798993567"><ele>254.6</ele><time>2026-04-11T16:59:04Z</time></trkpt><trkpt lat="43.076055337378406" lon="11.494153548952427"><ele>254.2</ele><time>2026-04-11T16:59:05Z</time></trkpt><trkpt lat="43.07613756364988" lon="11.494074707715738"><ele>253.8</ele><time>2026-04-11T16:59:06Z</time></trkpt><trkpt lat="43.0762173339347" lon="11.493992936800737"><ele>253.4</ele><time>2026-04-11T16:59:07Z</time></trkpt><trkpt lat="43.07629442479907" lon="11.493910697339794"><ele>253.0</ele><time>2026-04-11T16:59:08Z</time></trkpt><trkpt lat="43.07637300530749" lon="11.493827998492884"><ele>252.8</ele><time>2026-04-11T16:59:09Z</time></trkpt><trkpt lat="43.076452298596216" lon="11.493745411993011"><ele>252.60000000000002</ele><time>2026-04-11T16:59:10Z</time></trkpt><trkpt lat="43.07653051434512" lon="11.493660252554475"><ele>252.39999999999998</ele><time>2026-04-11T16:59:11Z</time></trkpt><trkpt lat="43.07660561823998" lon="11.493576000319752"><ele>252.2</ele><time>2026-04-11T16:59:12Z</time></trkpt><trkpt lat="43.07667846883462" lon="11.493493081188841"><ele>252.0</ele><time>2026-04-11T16:59:13Z</time></trkpt><trkpt lat="43.0767536749299" lon="11.493416346961858"><ele>251.8</ele><time>2026-04-11T16:59:14Z</time></trkpt><trkpt lat="43.07683089238451" lon="11.493343014445953"><ele>251.6</ele><time>2026-04-11T16:59:15Z</time></trkpt><trkpt lat="43.076904581503435" lon="11.493270816402424"><ele>251.40000000000003</ele><time>2026-04-11T16:59:16Z</time></trkpt><trkpt lat="43.07698304179741" lon="11.493205151037845"><ele>251.20000000000002</ele><time>2026-04-11T16:59:17Z</time></trkpt><trkpt lat="43.07706338811534" lon="11.49314709773743"><ele>251.0</ele><time>2026-04-11T16:59:18Z</time></trkpt><trkpt lat="43.07714862674146" lon="11.493099593778814"><ele>251.00000000000003</ele><time>2026-04-11T16:59:19Z</time></trkpt><trkpt lat="43.07722668338021" lon="11.493048032450671"><ele>251.0</ele><time>2026-04-11T16:59:20Z</time></trkpt><trkpt lat="43.07731003192135" lon="11.493004154324328"><ele>251.0</ele><time>2026-04-11T16:59:21Z</time></trkpt><trkpt lat="43.07738997406505" lon="11.492957489493087"><ele>251.0</ele><time>2026-04-11T16:59:22Z</time></trkpt><trkpt lat="43.07746961222177" lon="11.492911985786806"><ele>251.00000000000003</ele><time>2026-04-11T16:59:23Z</time></trkpt><trkpt lat="43.077535222801835" lon="11.492870003283164"><ele>251.0</ele><time>2026-04-11T16:59:24Z</time></trkpt><trkpt lat="43.077645504371944" lon="11.492859486019674"><ele>250.8</ele><time>2026-04-11T16:59:26Z</time></trkpt><trkpt lat="43.077750270516745" lon="11.492976482585734"><ele>250.60000000000002</ele><time>2026-04-11T16:59:27.999Z</time></trkpt><trkpt lat="43.077820274342486" lon="11.493027825864598"><ele>250.4</ele><time>2026-04-11T16:59:29.999Z</time></trkpt><trkpt lat="43.077881641005334" lon="11.493086842895092"><ele>250.2</ele><time>2026-04-11T16:59:31.999Z</time></trkpt><trkpt lat="43.07795037318181" lon="11.49315271899523"><ele>250.0</ele><time>2026-04-11T16:59:33.999Z</time></trkpt><trkpt lat="43.07800952022307" lon="11.493233190522107"><ele>249.99999999999997</ele><time>2026-04-11T16:59:35.999Z</time></trkpt><trkpt lat="43.078068271558365" lon="11.493310270417277"><ele>250.0</ele><time>2026-04-11T16:59:37.999Z</time></trkpt><trkpt lat="43.078120095701394" lon="11.493386715284773"><ele>250.0</ele><time>2026-04-11T16:59:39.999Z</time></trkpt><trkpt lat="43.07816722478955" lon="11.493465990739809"><ele>250.0</ele><time>2026-04-11T16:59:41.999Z</time></trkpt><trkpt lat="43.078224279412" lon="11.49353609099496"><ele>249.99999999999997</ele><time>2026-04-11T16:59:43.999Z</time></trkpt><trkpt lat="43.07828068102325" lon="11.493600589862758"><ele>250.0</ele><time>2026-04-11T16:59:45.999Z</time></trkpt><trkpt lat="43.07833793020801" lon="11.493666041259006"><ele>250.33333333333331</ele><time>2026-04-11T16:59:47.999Z</time></trkpt><trkpt lat="43.07839292565258" lon="11.493744008438927"><ele>250.66666666666666</ele><time>2026-04-11T16:59:49.999Z</time></trkpt><trkpt lat="43.07845278950777" lon="11.493817124631253"><ele>251.0</ele><time>2026-04-11T16:59:51.999Z</time></trkpt><trkpt lat="43.0785089985316" lon="11.493904050701559"><ele>251.33333333333331</ele><time>2026-04-11T16:59:53.999Z</time></trkpt><trkpt lat="43.07856442490576" lon="11.493992156018622"><ele>251.66666666666666</ele><time>2026-04-11T16:59:55.999Z</time></trkpt><trkpt lat="43.07861264752829" lon="11.494080208276724"><ele>252.0</ele><time>2026-04-11T16:59:57.999Z</time></trkpt><trkpt lat="43.07865092273398" lon="11.49416995122631"><ele>252.33333333333334</ele><time>2026-04-11T16:59:59.999Z</time></trkpt><trkpt lat="43.07869546211378" lon="11.494255379309331"><ele>252.66666666666669</ele><time>2026-04-11T17:00:01.999Z</time></trkpt><trkpt lat="43.07872942682732" lon="11.494341289058806"><ele>253.0</ele><time>2026-04-11T17:00:03.999Z</time></trkpt><trkpt lat="43.078780976565916" lon="11.494446335987368"><ele>253.33333333333334</ele><time>2026-04-11T17:00:06.999Z</time></trkpt><trkpt lat="43.07880399372886" lon="11.49453211553082"><ele>253.66666666666669</ele><time>2026-04-11T17:00:08.999Z</time></trkpt><trkpt lat="43.078844321885796" lon="11.49464611176937"><ele>254.0</ele><time>2026-04-11T17:00:11.999Z</time></trkpt><trkpt lat="43.07887777431074" lon="11.4947606690637"><ele>254.00000000000003</ele><time>2026-04-11T17:00:14.999Z</time></trkpt><trkpt lat="43.07891108002831" lon="11.494859492498957"><ele>254.0</ele><time>2026-04-11T17:00:18Z</time></trkpt><trkpt lat="43.07894124981514" lon="11.494958470268347"><ele>254.0</ele><time>2026-04-11T17:00:21Z</time></trkpt><trkpt lat="43.07897052080696" lon="11.49505120902807"><ele>254.0</ele><time>2026-04-11T17:00:24Z</time></trkpt><trkpt lat="43.07900005833185" lon="11.4951331351094"><ele>254.00000000000003</ele><time>2026-04-11T17:00:27Z</time></trkpt><trkpt lat="43.07904189044961" lon="11.49522741489472"><ele>254.0</ele><time>2026-04-11T17:00:31Z</time></trkpt><trkpt lat="43.079079058643785" lon="11.495323459147674"><ele>254.42857142857144</ele><time>2026-04-11T17:00:35Z</time></trkpt><trkpt lat="43.07910750301329" lon="11.49540246366247"><ele>254.85714285714283</ele><time>2026-04-11T17:00:38Z</time></trkpt><trkpt lat="43.07913337677835" lon="11.495511058296465"><ele>255.28571428571428</ele><time>2026-04-11T17:00:42Z</time></trkpt><trkpt lat="43.07916440445244" lon="11.49559524048963"><ele>255.71428571428572</ele><time>2026-04-11T17:00:45Z</time></trkpt><trkpt lat="43.079192656977575" lon="11.495683904386956"><ele>256.14285714285717</ele><time>2026-04-11T17:00:48Z</time></trkpt><trkpt lat="43.07921951092584" lon="11.495764875215727"><ele>256.57142857142856</ele><time>2026-04-11T17:00:51Z</time></trkpt><trkpt lat="43.07925342186026" lon="11.495858828106693"><ele>257.0</ele><time>2026-04-11T17:00:55Z</time></trkpt><trkpt lat="43.07928572521604" lon="11.495943897581332"><ele>257.83333333333337</ele><time>2026-04-11T17:00:59Z</time></trkpt><trkpt lat="43.0793156572192" lon="11.496044580758888"><ele>258.6666666666667</ele><time>2026-04-11T17:01:03Z</time></trkpt><trkpt lat="43.07934731348888" lon="11.496138844588167"><ele>259.5</ele><time>2026-04-11T17:01:07Z</time></trkpt><trkpt lat="43.07938564584291" lon="11.496228748037467"><ele>260.3333333333333</ele><time>2026-04-11T17:01:11Z</time></trkpt><trkpt lat="43.07942287140521" lon="11.496319855847618"><ele>261.16666666666663</ele><time>2026-04-11T17:01:15Z</time></trkpt><trkpt lat="43.07945206223703" lon="11.496413692941614"><ele>262.0</ele><time>2026-04-11T17:01:19Z</time></trkpt><trkpt lat="43.07947842120654" lon="11.496508714140766"><ele>262.14285714285717</ele><time>2026-04-11T17:01:23Z</time></trkpt><trkpt lat="43.079495953522205" lon="11.496592595970437"><ele>262.28571428571433</ele><time>2026-04-11T17:01:26Z</time></trkpt><trkpt lat="43.079521239001274" lon="11.496702573714595"><ele>262.42857142857144</ele><time>2026-04-11T17:01:30Z</time></trkpt><trkpt lat="43.079534739250434" lon="11.496797757485021"><ele>262.57142857142856</ele><time>2026-04-11T17:01:33Z</time></trkpt><trkpt lat="43.079546347908504" lon="11.496912537466983"><ele>262.71428571428567</ele><time>2026-04-11T17:01:36Z</time></trkpt><trkpt lat="43.07955164255906" lon="11.496999879119263"><ele>262.85714285714283</ele><time>2026-04-11T17:01:38Z</time></trkpt><trkpt lat="43.079565812287285" lon="11.497102783243658"><ele>263.0</ele><time>2026-04-11T17:01:40Z</time></trkpt><trkpt lat="43.07958451200308" lon="11.497217057240382"><ele>263.0</ele><time>2026-04-11T17:01:41.999Z</time></trkpt><trkpt lat="43.07960925892482" lon="11.497340659283356"><ele>263.0</ele><time>2026-04-11T17:01:43.999Z</time></trkpt><trkpt lat="43.07963449645687" lon="11.497430992930699"><ele>263.0</ele><time>2026-04-11T17:01:45.999Z</time></trkpt><trkpt lat="43.07966545976501" lon="11.497543479565032"><ele>263.0</ele><time>2026-04-11T17:01:47.999Z</time></trkpt><trkpt lat="43.079702727710135" lon="11.497653061510771"><ele>263.0</ele><time>2026-04-11T17:01:49.999Z</time></trkpt><trkpt lat="43.07972567850292" lon="11.497761403471129"><ele>263.0</ele><time>2026-04-11T17:01:51.999Z</time></trkpt><trkpt lat="43.079761561680336" lon="11.497862180999208"><ele>262.57142857142856</ele><time>2026-04-11T17:01:53.999Z</time></trkpt><trkpt lat="43.07979020278291" lon="11.497962329593046"><ele>262.1428571428571</ele><time>2026-04-11T17:01:55.999Z</time></trkpt><trkpt lat="43.079816359814174" lon="11.49805998553916"><ele>261.7142857142857</ele><time>2026-04-11T17:01:57.999Z</time></trkpt><trkpt lat="43.07984304370993" lon="11.498154160899945"><ele>261.2857142857143</ele><time>2026-04-11T17:01:59.999Z</time></trkpt><trkpt lat="43.079867788346455" lon="11.498244804699944"><ele>260.8571428571429</ele><time>2026-04-11T17:02:01.999Z</time></trkpt><trkpt lat="43.07989769895806" lon="11.498332046170693"><ele>260.42857142857144</ele><time>2026-04-11T17:02:03.999Z</time></trkpt><trkpt lat="43.07992752767927" lon="11.49842084293074"><ele>260.0</ele><time>2026-04-11T17:02:05.999Z</time></trkpt><trkpt lat="43.079965487300406" lon="11.498504485261918"><ele>261.33333333333337</ele><time>2026-04-11T17:02:07.999Z</time></trkpt><trkpt lat="43.080005303848914" lon="11.498587606346456"><ele>262.6666666666667</ele><time>2026-04-11T17:02:09.999Z</time></trkpt><trkpt lat="43.08005273459195" lon="11.498662767609174"><ele>264.0</ele><time>2026-04-11T17:02:11.999Z</time></trkpt><trkpt lat="43.080112050983736" lon="11.498756869114079"><ele>265.3333333333333</ele><time>2026-04-11T17:02:13.999Z</time></trkpt><trkpt lat="43.08017687559339" lon="11.498858412759988"><ele>266.66666666666663</ele><time>2026-04-11T17:02:15.999Z</time></trkpt><trkpt lat="43.080247401222266" lon="11.498964164930841"><ele>268.0</ele><time>2026-04-11T17:02:17.999Z</time></trkpt><trkpt lat="43.080307374099355" lon="11.499076921705363"><ele>268.0</ele><time>2026-04-11T17:02:19.999Z</time></trkpt><trkpt lat="43.080389271449185" lon="11.499172100502756"><ele>268.0</ele><time>2026-04-11T17:02:22Z</time></trkpt><trkpt lat="43.08046397552007" lon="11.499276741262381"><ele>268.0</ele><time>2026-04-11T17:02:24Z</time></trkpt><trkpt lat="43.080537188917624" lon="11.499380458356264"><ele>268.0</ele><time>2026-04-11T17:02:26Z</time></trkpt><trkpt lat="43.08059849852959" lon="11.499507387118479"><ele>268.0</ele><time>2026-04-11T17:02:28Z</time></trkpt><trkpt lat="43.08068335394792" lon="11.499611950982992"><ele>268.0</ele><time>2026-04-11T17:02:30Z</time></trkpt><trkpt lat="43.08075553079584" lon="11.499727712348419"><ele>268.0</ele><time>2026-04-11T17:02:32Z</time></trkpt><trkpt lat="43.08083060939154" lon="11.499853290411034"><ele>268.0</ele><time>2026-04-11T17:02:34Z</time></trkpt><trkpt lat="43.08090035355383" lon="11.499968427362607"><ele>268.0</ele><time>2026-04-11T17:02:36Z</time></trkpt><trkpt lat="43.08098030301015" lon="11.500072809187118"><ele>268.0</ele><time>2026-04-11T17:02:38Z</time></trkpt><trkpt lat="43.08106250147348" lon="11.500164759356993"><ele>268.0</ele><time>2026-04-11T17:02:40Z</time></trkpt><trkpt lat="43.08115661679674" lon="11.50024698516018"><ele>268.0</ele><time>2026-04-11T17:02:42Z</time></trkpt><trkpt lat="43.08126322171763" lon="11.500303418273278"><ele>268.0</ele><time>2026-04-11T17:02:44Z</time></trkpt><trkpt lat="43.08133016960549" lon="11.500324223295848"><ele>268.0</ele><time>2026-04-11T17:02:45Z</time></trkpt><trkpt lat="43.08142692956221" lon="11.50035185865004"><ele>268.0</ele><time>2026-04-11T17:02:47Z</time></trkpt><trkpt lat="43.08153772786129" lon="11.500373569244397"><ele>267.8</ele><time>2026-04-11T17:02:49Z</time></trkpt><trkpt lat="43.081646333799725" lon="11.500395833514057"><ele>267.6</ele><time>2026-04-11T17:02:51Z</time></trkpt><trkpt lat="43.08174471887842" lon="11.50041658059643"><ele>267.4</ele><time>2026-04-11T17:02:53Z</time></trkpt><trkpt lat="43.08184487984639" lon="11.500439792737803"><ele>267.2</ele><time>2026-04-11T17:02:55Z</time></trkpt><trkpt lat="43.081943624401866" lon="11.500465009242943"><ele>267.0</ele><time>2026-04-11T17:02:57Z</time></trkpt><trkpt lat="43.082050548913415" lon="11.500472212340672"><ele>267.0</ele><time>2026-04-11T17:02:59Z</time></trkpt><trkpt lat="43.08214648086741" lon="11.50052546576791"><ele>267.0</ele><time>2026-04-11T17:03:01Z</time></trkpt><trkpt lat="43.08225212127306" lon="11.500569422851756"><ele>267.0</ele><time>2026-04-11T17:03:03Z</time></trkpt><trkpt lat="43.08236427583757" lon="11.500621312823316"><ele>267.0</ele><time>2026-04-11T17:03:05Z</time></trkpt><trkpt lat="43.082469434285166" lon="11.500668858385714"><ele>267.0</ele><time>2026-04-11T17:03:07Z</time></trkpt><trkpt lat="43.08258122442416" lon="11.500706083475233"><ele>267.5</ele><time>2026-04-11T17:03:09Z</time></trkpt><trkpt lat="43.08269611425963" lon="11.500755724781628"><ele>268.0</ele><time>2026-04-11T17:03:11Z</time></trkpt><trkpt lat="43.082749318316914" lon="11.500810745744566"><ele>268.5</ele><time>2026-04-11T17:03:12Z</time></trkpt><trkpt lat="43.082806565734295" lon="11.500846684385632"><ele>269.0</ele><time>2026-04-11T17:03:13Z</time></trkpt><trkpt lat="43.082874922943546" lon="11.500889901695873"><ele>269.5</ele><time>2026-04-11T17:03:14Z</time></trkpt><trkpt lat="43.082941918022605" lon="11.500927833585239"><ele>270.0</ele><time>2026-04-11T17:03:15Z</time></trkpt><trkpt lat="43.083008455479444" lon="11.500965506344075"><ele>270.0</ele><time>2026-04-11T17:03:16Z</time></trkpt><trkpt lat="43.08307615603919" lon="11.501003508867626"><ele>270.0</ele><time>2026-04-11T17:03:17Z</time></trkpt><trkpt lat="43.08315194875026" lon="11.501026888024322"><ele>270.0</ele><time>2026-04-11T17:03:18Z</time></trkpt><trkpt lat="43.08322022333255" lon="11.501066492214003"><ele>270.0</ele><time>2026-04-11T17:03:19Z</time></trkpt><trkpt lat="43.08329646775203" lon="11.501114226748028"><ele>270.0</ele><time>2026-04-11T17:03:20Z</time></trkpt><trkpt lat="43.083360350359335" lon="11.501145602189318"><ele>270.0</ele><time>2026-04-11T17:03:21Z</time></trkpt><trkpt lat="43.08344008867221" lon="11.501186366484891"><ele>269.5</ele><time>2026-04-11T17:03:22Z</time></trkpt><trkpt lat="43.08350234137165" lon="11.501244538283746"><ele>269.0</ele><time>2026-04-11T17:03:23Z</time></trkpt><trkpt lat="43.083578019837226" lon="11.501288161419886"><ele>268.5</ele><time>2026-04-11T17:03:24Z</time></trkpt><trkpt lat="43.08365351991015" lon="11.50133228626668"><ele>268.0</ele><time>2026-04-11T17:03:25Z</time></trkpt><trkpt lat="43.0837222704426" lon="11.501372466432855"><ele>267.5</ele><time>2026-04-11T17:03:26Z</time></trkpt><trkpt lat="43.08379601024607" lon="11.501415562487749"><ele>267.0</ele><time>2026-04-11T17:03:27Z</time></trkpt><trkpt lat="43.08386626627012" lon="11.501458572484458"><ele>267.0</ele><time>2026-04-11T17:03:28Z</time></trkpt><trkpt lat="43.083935562491845" lon="11.50150247927721"><ele>267.0</ele><time>2026-04-11T17:03:29Z</time></trkpt><trkpt lat="43.08399872476312" lon="11.501542499511752"><ele>267.0</ele><time>2026-04-11T17:03:30Z</time></trkpt><trkpt lat="43.084057633898965" lon="11.50157982489456"><ele>267.0</ele><time>2026-04-11T17:03:31Z</time></trkpt><trkpt lat="43.08415421390186" lon="11.501637590060469"><ele>267.0</ele><time>2026-04-11T17:03:33Z</time></trkpt><trkpt lat="43.084228324958396" lon="11.501720727098576"><ele>267.0</ele><time>2026-04-11T17:03:35Z</time></trkpt><trkpt lat="43.08420321178684" lon="11.501935253939697"><ele>267.25</ele><time>2026-04-11T17:03:38Z</time></trkpt><trkpt lat="43.08416009261102" lon="11.502084609088442"><ele>267.5</ele><time>2026-04-11T17:03:40Z</time></trkpt><trkpt lat="43.084127372730826" lon="11.502253192946407"><ele>267.75</ele><time>2026-04-11T17:03:42Z</time></trkpt><trkpt lat="43.084079714332034" lon="11.502405276015851"><ele>268.0</ele><time>2026-04-11T17:03:44Z</time></trkpt><trkpt lat="43.08402049732286" lon="11.502554085369981"><ele>268.0</ele><time>2026-04-11T17:03:46Z</time></trkpt><trkpt lat="43.08399624209292" lon="11.50269953437355"><ele>268.0</ele><time>2026-04-11T17:03:48Z</time></trkpt><trkpt lat="43.083999552889196" lon="11.502852641119995"><ele>268.0</ele><time>2026-04-11T17:03:50Z</time></trkpt><trkpt lat="43.08400918481133" lon="11.502969535182736"><ele>268.0</ele><time>2026-04-11T17:03:52Z</time></trkpt><trkpt lat="43.08402079536285" lon="11.503065830552366"><ele>268.0</ele><time>2026-04-11T17:03:54Z</time></trkpt><trkpt lat="43.08403381886553" lon="11.503178775337403"><ele>268.8571428571429</ele><time>2026-04-11T17:03:57Z</time></trkpt><trkpt lat="43.0840393211985" lon="11.503274538874816"><ele>269.7142857142857</ele><time>2026-04-11T17:03:59.999Z</time></trkpt><trkpt lat="43.084041357155314" lon="11.503388730657795"><ele>270.57142857142856</ele><time>2026-04-11T17:04:03.999Z</time></trkpt><trkpt lat="43.084035200020345" lon="11.503491286227078"><ele>271.42857142857144</ele><time>2026-04-11T17:04:07.999Z</time></trkpt><trkpt lat="43.084025137346735" lon="11.503580506066498"><ele>272.2857142857143</ele><time>2026-04-11T17:04:11.999Z</time></trkpt><trkpt lat="43.08402312647432" lon="11.503675486727412"><ele>273.14285714285717</ele><time>2026-04-11T17:04:15.999Z</time></trkpt><trkpt lat="43.08400138345717" lon="11.50376537039238"><ele>274.0</ele><time>2026-04-11T17:04:19.999Z</time></trkpt><trkpt lat="43.08397189171045" lon="11.503844663660715"><ele>274.7142857142857</ele><time>2026-04-11T17:04:23.999Z</time></trkpt><trkpt lat="43.08393394855249" lon="11.503939266055324"><ele>275.42857142857144</ele><time>2026-04-11T17:04:29Z</time></trkpt><trkpt lat="43.08389938393718" lon="11.50401245352952"><ele>276.1428571428571</ele><time>2026-04-11T17:04:33Z</time></trkpt><trkpt lat="43.083864349056306" lon="11.504085568142193"><ele>276.8571428571429</ele><time>2026-04-11T17:04:36Z</time></trkpt><trkpt lat="43.08382381523146" lon="11.504166003768207"><ele>277.57142857142856</ele><time>2026-04-11T17:04:40Z</time></trkpt><trkpt lat="43.08377891171005" lon="11.504238895549454"><ele>278.2857142857143</ele><time>2026-04-11T17:04:44Z</time></trkpt><trkpt lat="43.08371605789188" lon="11.504288693387966"><ele>279.0</ele><time>2026-04-11T17:04:48Z</time></trkpt><trkpt lat="43.083647951893056" lon="11.504316194697413"><ele>278.99999999999994</ele><time>2026-04-11T17:04:52Z</time></trkpt><trkpt lat="43.083580691839956" lon="11.504309984820601"><ele>279.0</ele><time>2026-04-11T17:04:56Z</time></trkpt><trkpt lat="43.08350834845094" lon="11.504293845891452"><ele>279.0</ele><time>2026-04-11T17:05:00Z</time></trkpt><trkpt lat="43.0834446146541" lon="11.504282719486953"><ele>279.0</ele><time>2026-04-11T17:05:04Z</time></trkpt><trkpt lat="43.0833827510991" lon="11.504256154510063"><ele>279.0</ele><time>2026-04-11T17:05:08Z</time></trkpt><trkpt lat="43.08331783150977" lon="11.504238749577313"><ele>278.99999999999994</ele><time>2026-04-11T17:05:12Z</time></trkpt><trkpt lat="43.08325596945489" lon="11.504221133036404"><ele>279.0</ele><time>2026-04-11T17:05:16Z</time></trkpt><trkpt lat="43.08319094880749" lon="11.504213658212963"><ele>280.5</ele><time>2026-04-11T17:05:20Z</time></trkpt><trkpt lat="43.08311175644682" lon="11.504222623754362"><ele>282.0</ele><time>2026-04-11T17:05:25Z</time></trkpt><trkpt lat="43.083037047160474" lon="11.504256742716212"><ele>283.5</ele><time>2026-04-11T17:05:30Z</time></trkpt><trkpt lat="43.082978760727755" lon="11.504300797495906"><ele>285.0</ele><time>2026-04-11T17:05:34Z</time></trkpt><trkpt lat="43.082928754156725" lon="11.504380079918104"><ele>286.5</ele><time>2026-04-11T17:05:38Z</time></trkpt><trkpt lat="43.08287770952025" lon="11.504452274474083"><ele>288.0</ele><time>2026-04-11T17:05:42Z</time></trkpt><trkpt lat="43.08283657338035" lon="11.504540332103083"><ele>288.7142857142857</ele><time>2026-04-11T17:05:46Z</time></trkpt><trkpt lat="43.08279450220043" lon="11.504608615326104"><ele>289.42857142857144</ele><time>2026-04-11T17:05:50Z</time></trkpt><trkpt lat="43.08275241890793" lon="11.504680405877275"><ele>290.1428571428571</ele><time>2026-04-11T17:05:54Z</time></trkpt><trkpt lat="43.08271469954349" lon="11.504763225303131"><ele>290.8571428571429</ele><time>2026-04-11T17:05:58Z</time></trkpt><trkpt lat="43.08266923182454" lon="11.504837482229288"><ele>291.57142857142856</ele><time>2026-04-11T17:06:01.999Z</time></trkpt><trkpt lat="43.08262650661542" lon="11.504907520443473"><ele>292.2857142857143</ele><time>2026-04-11T17:06:05.999Z</time></trkpt><trkpt lat="43.082588453317285" lon="11.50498471427463"><ele>293.0</ele><time>2026-04-11T17:06:09.999Z</time></trkpt><trkpt lat="43.08254149568823" lon="11.505060102783272"><ele>292.99999999999994</ele><time>2026-04-11T17:06:13.999Z</time></trkpt><trkpt lat="43.08250375584179" lon="11.505136141532422"><ele>293.0</ele><time>2026-04-11T17:06:17.999Z</time></trkpt><trkpt lat="43.0824600731933" lon="11.505211608460415"><ele>293.0</ele><time>2026-04-11T17:06:21.999Z</time></trkpt><trkpt lat="43.08241171864403" lon="11.5052923964906"><ele>293.0</ele><time>2026-04-11T17:06:25.999Z</time></trkpt><trkpt lat="43.08237351835458" lon="11.505361414724822"><ele>293.0</ele><time>2026-04-11T17:06:28.999Z</time></trkpt><trkpt lat="43.08232831280102" lon="11.505429923395898"><ele>292.99999999999994</ele><time>2026-04-11T17:06:31.999Z</time></trkpt><trkpt lat="43.08228410783459" lon="11.505497859203397"><ele>293.0</ele><time>2026-04-11T17:06:35Z</time></trkpt><trkpt lat="43.082237995781405" lon="11.505574642150465"><ele>294.1666666666667</ele><time>2026-04-11T17:06:38Z</time></trkpt><trkpt lat="43.08219240189328" lon="11.505659422433055"><ele>295.33333333333337</ele><time>2026-04-11T17:06:41Z</time></trkpt><trkpt lat="43.08214390907966" lon="11.505742983763328"><ele>296.5</ele><time>2026-04-11T17:06:44Z</time></trkpt><trkpt lat="43.08209067475468" lon="11.505827862100794"><ele>297.6666666666667</ele><time>2026-04-11T17:06:47Z</time></trkpt><trkpt lat="43.082040879456834" lon="11.50590910159875"><ele>298.8333333333333</ele><time>2026-04-11T17:06:50Z</time></trkpt><trkpt lat="43.08199933607005" lon="11.505988598802022"><ele>300.0</ele><time>2026-04-11T17:06:53Z</time></trkpt><trkpt lat="43.08195726051954" lon="11.506067823466962"><ele>299.99999999999994</ele><time>2026-04-11T17:06:56Z</time></trkpt><trkpt lat="43.08190811115922" lon="11.506148193783536"><ele>300.0</ele><time>2026-04-11T17:07:00Z</time></trkpt><trkpt lat="43.08186684863992" lon="11.506222948862769"><ele>300.0</ele><time>2026-04-11T17:07:03Z</time></trkpt><trkpt lat="43.08182905508711" lon="11.506292097838958"><ele>300.0</ele><time>2026-04-11T17:07:06Z</time></trkpt><trkpt lat="43.08179248629953" lon="11.506370243027218"><ele>300.0</ele><time>2026-04-11T17:07:09Z</time></trkpt><trkpt lat="43.0817512300191" lon="11.506462050086352"><ele>299.99999999999994</ele><time>2026-04-11T17:07:13Z</time></trkpt><trkpt lat="43.081706405035376" lon="11.506525114603525"><ele>300.0</ele><time>2026-04-11T17:07:16Z</time></trkpt><trkpt lat="43.08164822081294" lon="11.506601885082826"><ele>299.5</ele><time>2026-04-11T17:07:20Z</time></trkpt><trkpt lat="43.08159788590401" lon="11.506686078802467"><ele>299.0</ele><time>2026-04-11T17:07:24Z</time></trkpt><trkpt lat="43.081558819600176" lon="11.506754155003463"><ele>298.5</ele><time>2026-04-11T17:07:27Z</time></trkpt><trkpt lat="43.08152136448749" lon="11.506830398383451"><ele>298.0</ele><time>2026-04-11T17:07:30Z</time></trkpt><trkpt lat="43.0814813547732" lon="11.506912600848041"><ele>297.5</ele><time>2026-04-11T17:07:33Z</time></trkpt><trkpt lat="43.081422769879865" lon="11.506998227262072"><ele>297.0</ele><time>2026-04-11T17:07:36Z</time></trkpt><trkpt lat="43.08136618152969" lon="11.507091898364102"><ele>298.6666666666667</ele><time>2026-04-11T17:07:39Z</time></trkpt><trkpt lat="43.08131246438014" lon="11.50719308952582"><ele>300.3333333333333</ele><time>2026-04-11T17:07:42Z</time></trkpt><trkpt lat="43.08126940009399" lon="11.507263153930321"><ele>302.0</ele><time>2026-04-11T17:07:44Z</time></trkpt><trkpt lat="43.08123081852182" lon="11.507333386593555"><ele>303.66666666666663</ele><time>2026-04-11T17:07:46Z</time></trkpt><trkpt lat="43.08119060404572" lon="11.507402180949875"><ele>305.3333333333333</ele><time>2026-04-11T17:07:48Z</time></trkpt><trkpt lat="43.08113715786123" lon="11.507500342791149"><ele>307.0</ele><time>2026-04-11T17:07:51Z</time></trkpt><trkpt lat="43.081091950857406" lon="11.507594856907122"><ele>307.0</ele><time>2026-04-11T17:07:54Z</time></trkpt><trkpt lat="43.08103251243258" lon="11.507672886715595"><ele>307.0</ele><time>2026-04-11T17:07:57Z</time></trkpt><trkpt lat="43.08098735850964" lon="11.507764471330482"><ele>307.0</ele><time>2026-04-11T17:08:00Z</time></trkpt><trkpt lat="43.08093634031473" lon="11.507847382758378"><ele>307.0</ele><time>2026-04-11T17:08:02.999Z</time></trkpt><trkpt lat="43.080887407010835" lon="11.507934083437267"><ele>307.0</ele><time>2026-04-11T17:08:05.999Z</time></trkpt><trkpt lat="43.08083720346605" lon="11.508026621525106"><ele>307.0</ele><time>2026-04-11T17:08:08.999Z</time></trkpt><trkpt lat="43.08078400585827" lon="11.508114345652881"><ele>307.0</ele><time>2026-04-11T17:08:11.999Z</time></trkpt><trkpt lat="43.08072977917831" lon="11.508202680177346"><ele>307.0</ele><time>2026-04-11T17:08:14.999Z</time></trkpt><trkpt lat="43.080673263490645" lon="11.508289158771987"><ele>307.0</ele><time>2026-04-11T17:08:17.999Z</time></trkpt><trkpt lat="43.080615620148244" lon="11.508383727353394"><ele>307.0</ele><time>2026-04-11T17:08:20.999Z</time></trkpt><trkpt lat="43.08055361469194" lon="11.508464670991843"><ele>307.0</ele><time>2026-04-11T17:08:23.999Z</time></trkpt><trkpt lat="43.080496047092886" lon="11.508552503620582"><ele>307.0</ele><time>2026-04-11T17:08:26.999Z</time></trkpt><trkpt lat="43.080443866617294" lon="11.508653120046223"><ele>307.0</ele><time>2026-04-11T17:08:29.999Z</time></trkpt><trkpt lat="43.08040403923367" lon="11.508733884029695"><ele>307.0</ele><time>2026-04-11T17:08:31.999Z</time></trkpt><trkpt lat="43.08035316868225" lon="11.508842250588943"><ele>307.0</ele><time>2026-04-11T17:08:33.999Z</time></trkpt><trkpt lat="43.08029087648899" lon="11.508964202268743"><ele>307.0</ele><time>2026-04-11T17:08:35.999Z</time></trkpt><trkpt lat="43.08022363628982" lon="11.509102554966866"><ele>307.0</ele><time>2026-04-11T17:08:37.999Z</time></trkpt><trkpt lat="43.080194516160404" lon="11.509179074371204"><ele>307.2</ele><time>2026-04-11T17:08:38.999Z</time></trkpt><trkpt lat="43.080133046877414" lon="11.509319587833778"><ele>307.4</ele><time>2026-04-11T17:08:41Z</time></trkpt><trkpt lat="43.080064042968566" lon="11.509441294053257"><ele>307.6</ele><time>2026-04-11T17:08:43Z</time></trkpt><trkpt lat="43.080026647405155" lon="11.5095690160371"><ele>307.8</ele><time>2026-04-11T17:08:45Z</time></trkpt><trkpt lat="43.07998305509766" lon="11.509670363319776"><ele>308.0</ele><time>2026-04-11T17:08:47Z</time></trkpt><trkpt lat="43.079954327167655" lon="11.509756674818197"><ele>306.33333333333337</ele><time>2026-04-11T17:08:49Z</time></trkpt><trkpt lat="43.07993079621624" lon="11.509836779047282"><ele>304.6666666666667</ele><time>2026-04-11T17:08:51Z</time></trkpt><trkpt lat="43.07990116275086" lon="11.509943928243873"><ele>303.0</ele><time>2026-04-11T17:08:54Z</time></trkpt><trkpt lat="43.07989091070405" lon="11.510042693696178"><ele>301.3333333333333</ele><time>2026-04-11T17:08:57Z</time></trkpt><trkpt lat="43.079882677546905" lon="11.51016122611199"><ele>299.66666666666663</ele><time>2026-04-11T17:09:01Z</time></trkpt><trkpt lat="43.07988340624565" lon="11.51024828601765"><ele>298.0</ele><time>2026-04-11T17:09:04Z</time></trkpt><trkpt lat="43.079890943633316" lon="11.51035850001265"><ele>297.85714285714283</ele><time>2026-04-11T17:09:08Z</time></trkpt><trkpt lat="43.07989583067926" lon="11.510459605801557"><ele>297.71428571428567</ele><time>2026-04-11T17:09:12Z</time></trkpt><trkpt lat="43.079904436269864" lon="11.5105608265495"><ele>297.57142857142856</ele><time>2026-04-11T17:09:16Z</time></trkpt><trkpt lat="43.07991515838858" lon="11.510649085004136"><ele>297.42857142857144</ele><time>2026-04-11T17:09:19Z</time></trkpt><trkpt lat="43.07992499869192" lon="11.51074379512343"><ele>297.28571428571433</ele><time>2026-04-11T17:09:22Z</time></trkpt><trkpt lat="43.079928677876225" lon="11.510843904366642"><ele>297.14285714285717</ele><time>2026-04-11T17:09:25Z</time></trkpt><trkpt lat="43.0799285390933" lon="11.510965842041728"><ele>297.0</ele><time>2026-04-11T17:09:28Z</time></trkpt><trkpt lat="43.079933330826705" lon="11.511097651118343"><ele>299.1666666666667</ele><time>2026-04-11T17:09:31Z</time></trkpt><trkpt lat="43.07994175598856" lon="11.511196750878671"><ele>301.3333333333333</ele><time>2026-04-11T17:09:33Z</time></trkpt><trkpt lat="43.07996280231927" lon="11.511289189324685"><ele>303.5</ele><time>2026-04-11T17:09:35Z</time></trkpt><trkpt lat="43.07998654438744" lon="11.511384991891589"><ele>305.66666666666663</ele><time>2026-04-11T17:09:37Z</time></trkpt><trkpt lat="43.080022311862386" lon="11.511475112493486"><ele>307.8333333333333</ele><time>2026-04-11T17:09:39Z</time></trkpt><trkpt lat="43.080057695329366" lon="11.511557332794762"><ele>310.0</ele><time>2026-04-11T17:09:41Z</time></trkpt><trkpt lat="43.08011117858352" lon="11.511661153501173"><ele>310.0</ele><time>2026-04-11T17:09:44Z</time></trkpt><trkpt lat="43.080165169387506" lon="11.511760066849416"><ele>310.0</ele><time>2026-04-11T17:09:47Z</time></trkpt><trkpt lat="43.08021485999199" lon="11.511849140808799"><ele>310.0</ele><time>2026-04-11T17:09:50Z</time></trkpt><trkpt lat="43.08026428284818" lon="11.51193660050155"><ele>310.0</ele><time>2026-04-11T17:09:53Z</time></trkpt><trkpt lat="43.080312826271744" lon="11.512017950254235"><ele>310.0</ele><time>2026-04-11T17:09:56Z</time></trkpt><trkpt lat="43.080359572982324" lon="11.512099051660515"><ele>310.0</ele><time>2026-04-11T17:09:59Z</time></trkpt><trkpt lat="43.080401455396114" lon="11.512187775981536"><ele>310.3333333333333</ele><time>2026-04-11T17:10:02Z</time></trkpt><trkpt lat="43.08045120439501" lon="11.51226998886683"><ele>310.66666666666663</ele><time>2026-04-11T17:10:05Z</time></trkpt><trkpt lat="43.08049767735331" lon="11.512354814357401"><ele>311.0</ele><time>2026-04-11T17:10:08Z</time></trkpt><trkpt lat="43.08054553972479" lon="11.51244095299621"><ele>311.3333333333333</ele><time>2026-04-11T17:10:10.999Z</time></trkpt><trkpt lat="43.08059196969851" lon="11.51251682608244"><ele>311.6666666666667</ele><time>2026-04-11T17:10:13.999Z</time></trkpt><trkpt lat="43.080635455917246" lon="11.512595091646803"><ele>312.0</ele><time>2026-04-11T17:10:16.999Z</time></trkpt><trkpt lat="43.08067879681742" lon="11.51268083572603"><ele>312.0</ele><time>2026-04-11T17:10:19.999Z</time></trkpt><trkpt lat="43.0807215374622" lon="11.512761281590059"><ele>312.0</ele><time>2026-04-11T17:10:22.999Z</time></trkpt><trkpt lat="43.080764607605744" lon="11.512837669702618"><ele>312.0</ele><time>2026-04-11T17:10:25.999Z</time></trkpt><trkpt lat="43.08080065362714" lon="11.512913201739481"><ele>312.0</ele><time>2026-04-11T17:10:28.999Z</time></trkpt><trkpt lat="43.08084745061038" lon="11.512989117928099"><ele>312.0</ele><time>2026-04-11T17:10:31.999Z</time></trkpt><trkpt lat="43.080901657076836" lon="11.51306312759789"><ele>312.0</ele><time>2026-04-11T17:10:34.999Z</time></trkpt><trkpt lat="43.08095764605662" lon="11.513114591133897"><ele>312.0</ele><time>2026-04-11T17:10:37.999Z</time></trkpt><trkpt lat="43.08102074966742" lon="11.513162004249553"><ele>314.0</ele><time>2026-04-11T17:10:40.999Z</time></trkpt><trkpt lat="43.081088958195046" lon="11.513179506162377"><ele>316.0</ele><time>2026-04-11T17:10:43.999Z</time></trkpt><trkpt lat="43.08116471818968" lon="11.51319625562937"><ele>318.0</ele><time>2026-04-11T17:10:47Z</time></trkpt><trkpt lat="43.081242474945654" lon="11.513187238951458"><ele>320.0</ele><time>2026-04-11T17:10:50Z</time></trkpt><trkpt lat="43.08132318158292" lon="11.513173954194135"><ele>322.0</ele><time>2026-04-11T17:10:53Z</time></trkpt><trkpt lat="43.08139815696207" lon="11.51317379243726"><ele>324.0</ele><time>2026-04-11T17:10:56Z</time></trkpt><trkpt lat="43.081471478443596" lon="11.513178253981803"><ele>324.0</ele><time>2026-04-11T17:10:59Z</time></trkpt><trkpt lat="43.08155327675846" lon="11.513209669329159"><ele>324.0</ele><time>2026-04-11T17:11:02Z</time></trkpt><trkpt lat="43.08161038939828" lon="11.51325095809877"><ele>324.0</ele><time>2026-04-11T17:11:04Z</time></trkpt><trkpt lat="43.081692629875306" lon="11.513306384387462"><ele>324.0</ele><time>2026-04-11T17:11:07Z</time></trkpt><trkpt lat="43.081745340627265" lon="11.513359197886631"><ele>324.0</ele><time>2026-04-11T17:11:09Z</time></trkpt><trkpt lat="43.08180715966104" lon="11.513419820901513"><ele>324.0</ele><time>2026-04-11T17:11:12Z</time></trkpt><trkpt lat="43.081873130289146" lon="11.513514014867003"><ele>324.5</ele><time>2026-04-11T17:11:15Z</time></trkpt><trkpt lat="43.08192294602068" lon="11.513594727368167"><ele>325.0</ele><time>2026-04-11T17:11:17Z</time></trkpt><trkpt lat="43.0819796749539" lon="11.513675353967452"><ele>325.5</ele><time>2026-04-11T17:11:19Z</time></trkpt><trkpt lat="43.08203858685808" lon="11.513764599784896"><ele>326.0</ele><time>2026-04-11T17:11:21Z</time></trkpt><trkpt lat="43.08210284514565" lon="11.513854113235814"><ele>326.5</ele><time>2026-04-11T17:11:23Z</time></trkpt><trkpt lat="43.08217298332226" lon="11.513946355684705"><ele>327.0</ele><time>2026-04-11T17:11:25Z</time></trkpt><trkpt lat="43.08223913465688" lon="11.514050204196309"><ele>327.20000000000005</ele><time>2026-04-11T17:11:27Z</time></trkpt><trkpt lat="43.08231566688166" lon="11.514147079452151"><ele>327.4</ele><time>2026-04-11T17:11:29Z</time></trkpt><trkpt lat="43.08238645692459" lon="11.51425018014709"><ele>327.6</ele><time>2026-04-11T17:11:31Z</time></trkpt><trkpt lat="43.08246115130523" lon="11.51435598299119"><ele>327.79999999999995</ele><time>2026-04-11T17:11:33Z</time></trkpt><trkpt lat="43.082551824120564" lon="11.514438098693448"><ele>328.0</ele><time>2026-04-11T17:11:35Z</time></trkpt><trkpt lat="43.082652583084304" lon="11.51450305767802"><ele>327.79999999999995</ele><time>2026-04-11T17:11:37Z</time></trkpt><trkpt lat="43.08274375688318" lon="11.514582423731737"><ele>327.6</ele><time>2026-04-11T17:11:39Z</time></trkpt><trkpt lat="43.08283743309446" lon="11.514670439997197"><ele>327.4</ele><time>2026-04-11T17:11:41Z</time></trkpt><trkpt lat="43.08292609892124" lon="11.514769538117175"><ele>327.20000000000005</ele><time>2026-04-11T17:11:43Z</time></trkpt><trkpt lat="43.083023433505446" lon="11.514848407404944"><ele>327.0</ele><time>2026-04-11T17:11:45Z</time></trkpt><trkpt lat="43.08312737887224" lon="11.514919250173923"><ele>327.0</ele><time>2026-04-11T17:11:47Z</time></trkpt><trkpt lat="43.08323913177748" lon="11.514972707987727"><ele>327.0</ele><time>2026-04-11T17:11:49Z</time></trkpt><trkpt lat="43.083349362746674" lon="11.515014033065556"><ele>327.0</ele><time>2026-04-11T17:11:51Z</time></trkpt><trkpt lat="43.083456458426944" lon="11.515029468457136"><ele>327.0</ele><time>2026-04-11T17:11:53Z</time></trkpt><trkpt lat="43.08355657613764" lon="11.515074281925289"><ele>327.0</ele><time>2026-04-11T17:11:55Z</time></trkpt><trkpt lat="43.08366233606604" lon="11.515076702061116"><ele>326.5</ele><time>2026-04-11T17:11:57Z</time></trkpt><trkpt lat="43.083783310647206" lon="11.515088281379272"><ele>326.0</ele><time>2026-04-11T17:11:59Z</time></trkpt><trkpt lat="43.08384841959222" lon="11.515106917398471"><ele>325.5</ele><time>2026-04-11T17:12:00Z</time></trkpt><trkpt lat="43.08391619531934" lon="11.515101537327306"><ele>325.0</ele><time>2026-04-11T17:12:01Z</time></trkpt><trkpt lat="43.083990949868394" lon="11.515075932999421"><ele>324.5</ele><time>2026-04-11T17:12:02Z</time></trkpt><trkpt lat="43.08406089747791" lon="11.515034062282744"><ele>324.0</ele><time>2026-04-11T17:12:03Z</time></trkpt><trkpt lat="43.08412464854181" lon="11.514970321172164"><ele>323.5</ele><time>2026-04-11T17:12:04Z</time></trkpt><trkpt lat="43.084191168462446" lon="11.51491842591627"><ele>323.0</ele><time>2026-04-11T17:12:05Z</time></trkpt><trkpt lat="43.08425807148068" lon="11.514860442033203"><ele>322.5</ele><time>2026-04-11T17:12:06Z</time></trkpt><trkpt lat="43.08433672999878" lon="11.514829152696771"><ele>322.0</ele><time>2026-04-11T17:12:07Z</time></trkpt><trkpt lat="43.08442159178189" lon="11.514853417412715"><ele>321.5</ele><time>2026-04-11T17:12:08Z</time></trkpt><trkpt lat="43.08450726724657" lon="11.514854819458387"><ele>321.0</ele><time>2026-04-11T17:12:08.999Z</time></trkpt><trkpt lat="43.084594372789724" lon="11.514859247933506"><ele>321.0</ele><time>2026-04-11T17:12:09.999Z</time></trkpt><trkpt lat="43.08468224164327" lon="11.514863715217857"><ele>321.0</ele><time>2026-04-11T17:12:10.999Z</time></trkpt><trkpt lat="43.0847728001184" lon="11.514866869886868"><ele>321.0</ele><time>2026-04-11T17:12:11.999Z</time></trkpt><trkpt lat="43.08485869579286" lon="11.514868984002185"><ele>321.0</ele><time>2026-04-11T17:12:12.999Z</time></trkpt><trkpt lat="43.08494749445608" lon="11.514871110905831"><ele>321.0</ele><time>2026-04-11T17:12:13.999Z</time></trkpt><trkpt lat="43.08503815455908" lon="11.51487282895697"><ele>321.0</ele><time>2026-04-11T17:12:14.999Z</time></trkpt><trkpt lat="43.08512848881736" lon="11.514874958328031"><ele>320.2</ele><time>2026-04-11T17:12:15.999Z</time></trkpt><trkpt lat="43.085218890368026" lon="11.514877368255991"><ele>319.40000000000003</ele><time>2026-04-11T17:12:16.999Z</time></trkpt><trkpt lat="43.08530519806359" lon="11.51486511366596"><ele>318.6</ele><time>2026-04-11T17:12:17.999Z</time></trkpt><trkpt lat="43.08539926212571" lon="11.514903641199592"><ele>317.8</ele><time>2026-04-11T17:12:18.999Z</time></trkpt><trkpt lat="43.085488228832546" lon="11.514959438130266"><ele>317.0</ele><time>2026-04-11T17:12:19.999Z</time></trkpt><trkpt lat="43.08556774327913" lon="11.515028941774053"><ele>317.0</ele><time>2026-04-11T17:12:20.999Z</time></trkpt><trkpt lat="43.085634462110434" lon="11.515112220677487"><ele>317.0</ele><time>2026-04-11T17:12:21.999Z</time></trkpt><trkpt lat="43.08568392353267" lon="11.515213607439671"><ele>317.0</ele><time>2026-04-11T17:12:22.999Z</time></trkpt><trkpt lat="43.085728568001585" lon="11.515299407350172"><ele>317.0</ele><time>2026-04-11T17:12:23.999Z</time></trkpt><trkpt lat="43.08578532231122" lon="11.515364383862016"><ele>317.0</ele><time>2026-04-11T17:12:24.999Z</time></trkpt><trkpt lat="43.08583291212511" lon="11.515427167978203"><ele>317.0</ele><time>2026-04-11T17:12:25.999Z</time></trkpt><trkpt lat="43.08587186679182" lon="11.515501559525788"><ele>316.2857142857143</ele><time>2026-04-11T17:12:26.999Z</time></trkpt><trkpt lat="43.08592208915561" lon="11.515556101870187"><ele>315.57142857142856</ele><time>2026-04-11T17:12:27.999Z</time></trkpt><trkpt lat="43.085979410761595" lon="11.515604090002489"><ele>314.8571428571429</ele><time>2026-04-11T17:12:28.999Z</time></trkpt><trkpt lat="43.08604798940348" lon="11.51562428826121"><ele>314.1428571428571</ele><time>2026-04-11T17:12:29.999Z</time></trkpt><trkpt lat="43.08611390031081" lon="11.515673350946514"><ele>313.4285714285714</ele><time>2026-04-11T17:12:30.999Z</time></trkpt><trkpt lat="43.086178061718115" lon="11.515732160369668"><ele>312.7142857142857</ele><time>2026-04-11T17:12:31.999Z</time></trkpt><trkpt lat="43.08623721326913" lon="11.51580580510325"><ele>312.0</ele><time>2026-04-11T17:12:32.999Z</time></trkpt><trkpt lat="43.0862959582103" lon="11.515888091740923"><ele>312.0</ele><time>2026-04-11T17:12:33.999Z</time></trkpt><trkpt lat="43.08635176504052" lon="11.515977546188417"><ele>312.0</ele><time>2026-04-11T17:12:34.999Z</time></trkpt><trkpt lat="43.08639934659939" lon="11.51607248717572"><ele>312.0</ele><time>2026-04-11T17:12:35.999Z</time></trkpt><trkpt lat="43.08644833801856" lon="11.5161644479919"><ele>312.0</ele><time>2026-04-11T17:12:36.999Z</time></trkpt><trkpt lat="43.08649160873072" lon="11.516263594294424"><ele>312.0</ele><time>2026-04-11T17:12:37.999Z</time></trkpt><trkpt lat="43.08652198982893" lon="11.516366859914836"><ele>312.0</ele><time>2026-04-11T17:12:38.999Z</time></trkpt><trkpt lat="43.08654592739625" lon="11.516470246614787"><ele>310.6666666666667</ele><time>2026-04-11T17:12:39.999Z</time></trkpt><trkpt lat="43.08655690119852" lon="11.516592941419551"><ele>309.3333333333333</ele><time>2026-04-11T17:12:40.999Z</time></trkpt><trkpt lat="43.086556605547614" lon="11.516714153770689"><ele>308.0</ele><time>2026-04-11T17:12:41.999Z</time></trkpt><trkpt lat="43.0865506077589" lon="11.516832892845073"><ele>306.66666666666663</ele><time>2026-04-11T17:12:42.999Z</time></trkpt><trkpt lat="43.08654136712884" lon="11.516959045386448"><ele>305.3333333333333</ele><time>2026-04-11T17:12:43.999Z</time></trkpt><trkpt lat="43.086530076714155" lon="11.517080836170088"><ele>304.0</ele><time>2026-04-11T17:12:44.999Z</time></trkpt><trkpt lat="43.086516854418335" lon="11.517204476526377"><ele>303.0</ele><time>2026-04-11T17:12:45.999Z</time></trkpt><trkpt lat="43.0865019431544" lon="11.517331876128829"><ele>302.0</ele><time>2026-04-11T17:12:46.999Z</time></trkpt><trkpt lat="43.08649116469452" lon="11.517455987882814"><ele>301.0</ele><time>2026-04-11T17:12:47.999Z</time></trkpt><trkpt lat="43.08647965856315" lon="11.51758424994006"><ele>300.0</ele><time>2026-04-11T17:12:48.999Z</time></trkpt><trkpt lat="43.08646773473742" lon="11.517707024938192"><ele>299.0</ele><time>2026-04-11T17:12:49.999Z</time></trkpt><trkpt lat="43.0864572319985" lon="11.51784055482816"><ele>298.4</ele><time>2026-04-11T17:12:50.999Z</time></trkpt><trkpt lat="43.08644025634177" lon="11.517969263913347"><ele>297.79999999999995</ele><time>2026-04-11T17:12:52Z</time></trkpt><trkpt lat="43.08642801766718" lon="11.518102378285404"><ele>297.20000000000005</ele><time>2026-04-11T17:12:53Z</time></trkpt><trkpt lat="43.086417427257594" lon="11.518233226872432"><ele>296.6</ele><time>2026-04-11T17:12:54Z</time></trkpt><trkpt lat="43.08640605259724" lon="11.518359139312956"><ele>296.0</ele><time>2026-04-11T17:12:55Z</time></trkpt><trkpt lat="43.08639239281948" lon="11.51848672639216"><ele>296.0</ele><time>2026-04-11T17:12:56Z</time></trkpt><trkpt lat="43.08638019228327" lon="11.518608764341774"><ele>296.0</ele><time>2026-04-11T17:12:57Z</time></trkpt><trkpt lat="43.0863713945574" lon="11.51872664737805"><ele>296.0</ele><time>2026-04-11T17:12:58Z</time></trkpt><trkpt lat="43.08635616891342" lon="11.518846093054023"><ele>296.0</ele><time>2026-04-11T17:12:59Z</time></trkpt><trkpt lat="43.086347123381756" lon="11.518966542399749"><ele>296.0</ele><time>2026-04-11T17:13:00Z</time></trkpt><trkpt lat="43.08633142403519" lon="11.519074397952064"><ele>296.0</ele><time>2026-04-11T17:13:01Z</time></trkpt><trkpt lat="43.08631850033225" lon="11.519177854431273"><ele>296.0</ele><time>2026-04-11T17:13:02Z</time></trkpt><trkpt lat="43.086309173273506" lon="11.519283227798795"><ele>296.0</ele><time>2026-04-11T17:13:03Z</time></trkpt><trkpt lat="43.08630210965385" lon="11.519382058473441"><ele>296.0</ele><time>2026-04-11T17:13:04Z</time></trkpt><trkpt lat="43.08629214973771" lon="11.519475182475432"><ele>296.0</ele><time>2026-04-11T17:13:05Z</time></trkpt><trkpt lat="43.0862786405869" lon="11.519573278977433"><ele>296.0</ele><time>2026-04-11T17:13:06Z</time></trkpt><trkpt lat="43.086266535355286" lon="11.519671065156071"><ele>296.0</ele><time>2026-04-11T17:13:07Z</time></trkpt><trkpt lat="43.08625760214553" lon="11.519765873936606"><ele>296.0</ele><time>2026-04-11T17:13:08Z</time></trkpt><trkpt lat="43.0862526091183" lon="11.519858023755027"><ele>296.0</ele><time>2026-04-11T17:13:09Z</time></trkpt><trkpt lat="43.08623852258483" lon="11.51995448300764"><ele>296.0</ele><time>2026-04-11T17:13:10Z</time></trkpt><trkpt lat="43.08622738270161" lon="11.520047077573397"><ele>296.0</ele><time>2026-04-11T17:13:11Z</time></trkpt><trkpt lat="43.086212670255925" lon="11.52014218602875"><ele>296.0</ele><time>2026-04-11T17:13:12Z</time></trkpt><trkpt lat="43.086203160273534" lon="11.520234197135533"><ele>296.0</ele><time>2026-04-11T17:13:13Z</time></trkpt><trkpt lat="43.086188959007636" lon="11.520325877796731"><ele>296.0</ele><time>2026-04-11T17:13:14Z</time></trkpt><trkpt lat="43.08617067866915" lon="11.520409831148868"><ele>296.0</ele><time>2026-04-11T17:13:15Z</time></trkpt><trkpt lat="43.08614427649202" lon="11.52049337996523"><ele>296.6</ele><time>2026-04-11T17:13:16Z</time></trkpt><trkpt lat="43.08611958172796" lon="11.52057612912293"><ele>297.20000000000005</ele><time>2026-04-11T17:13:17Z</time></trkpt><trkpt lat="43.08606163126925" lon="11.520723257291579"><ele>297.79999999999995</ele><time>2026-04-11T17:13:19Z</time></trkpt><trkpt lat="43.08599347684835" lon="11.520859375154544"><ele>298.4</ele><time>2026-04-11T17:13:21Z</time></trkpt><trkpt lat="43.085919461185" lon="11.520982768245283"><ele>299.0</ele><time>2026-04-11T17:13:23Z</time></trkpt><trkpt lat="43.0858376120308" lon="11.521088644660205"><ele>298.8</ele><time>2026-04-11T17:13:25Z</time></trkpt><trkpt lat="43.08574746497341" lon="11.521183737990588"><ele>298.59999999999997</ele><time>2026-04-11T17:13:27Z</time></trkpt><trkpt lat="43.08565527428481" lon="11.521264905132256"><ele>298.4</ele><time>2026-04-11T17:13:29Z</time></trkpt><trkpt lat="43.0855623962251" lon="11.521340526286743"><ele>298.2</ele><time>2026-04-11T17:13:31Z</time></trkpt><trkpt lat="43.08546042269826" lon="11.521409299374087"><ele>298.0</ele><time>2026-04-11T17:13:33Z</time></trkpt><trkpt lat="43.0853543482976" lon="11.52147048934496"><ele>298.0</ele><time>2026-04-11T17:13:35Z</time></trkpt><trkpt lat="43.08524579069013" lon="11.52152231473123"><ele>298.0</ele><time>2026-04-11T17:13:37Z</time></trkpt><trkpt lat="43.08513559831425" lon="11.521562444610081"><ele>298.0</ele><time>2026-04-11T17:13:39Z</time></trkpt><trkpt lat="43.08501560977966" lon="11.521596109462136"><ele>298.0</ele><time>2026-04-11T17:13:41Z</time></trkpt><trkpt lat="43.08495238701097" lon="11.521622959907914"><ele>298.0</ele><time>2026-04-11T17:13:42Z</time></trkpt><trkpt lat="43.08482741052415" lon="11.521667058188546"><ele>297.57142857142856</ele><time>2026-04-11T17:13:44Z</time></trkpt><trkpt lat="43.084760357598675" lon="11.521693224540188"><ele>297.1428571428571</ele><time>2026-04-11T17:13:45Z</time></trkpt><trkpt lat="43.084691166964866" lon="11.521718899736593"><ele>296.7142857142857</ele><time>2026-04-11T17:13:46Z</time></trkpt><trkpt lat="43.08462726908136" lon="11.521748953820245"><ele>296.2857142857143</ele><time>2026-04-11T17:13:47Z</time></trkpt><trkpt lat="43.08456007032938" lon="11.521773977537082"><ele>295.8571428571429</ele><time>2026-04-11T17:13:48Z</time></trkpt><trkpt lat="43.08449489810193" lon="11.521802456829159"><ele>295.42857142857144</ele><time>2026-04-11T17:13:49Z</time></trkpt><trkpt lat="43.084433674120966" lon="11.52183546371059"><ele>295.0</ele><time>2026-04-11T17:13:50Z</time></trkpt><trkpt lat="43.084371176591496" lon="11.52186480767378"><ele>295.0</ele><time>2026-04-11T17:13:51Z</time></trkpt><trkpt lat="43.084310595016056" lon="11.521896007730103"><ele>295.0</ele><time>2026-04-11T17:13:52Z</time></trkpt><trkpt lat="43.084251820027326" lon="11.52193134733424"><ele>295.0</ele><time>2026-04-11T17:13:53Z</time></trkpt><trkpt lat="43.08419302618662" lon="11.521963774275683"><ele>295.0</ele><time>2026-04-11T17:13:54Z</time></trkpt><trkpt lat="43.084133461816975" lon="11.521996184010058"><ele>295.0</ele><time>2026-04-11T17:13:55Z</time></trkpt><trkpt lat="43.08401740942451" lon="11.522053411743181"><ele>295.0</ele><time>2026-04-11T17:13:57Z</time></trkpt><trkpt lat="43.08390673304113" lon="11.522112712906726"><ele>295.8</ele><time>2026-04-11T17:13:59Z</time></trkpt><trkpt lat="43.08380592690442" lon="11.52216912138079"><ele>296.6</ele><time>2026-04-11T17:14:01Z</time></trkpt><trkpt lat="43.08371918599368" lon="11.522242500129147"><ele>297.4</ele><time>2026-04-11T17:14:03Z</time></trkpt><trkpt lat="43.08364779913276" lon="11.522316136862756"><ele>298.2</ele><time>2026-04-11T17:14:05Z</time></trkpt><trkpt lat="43.08358749397405" lon="11.522396949480214"><ele>299.0</ele><time>2026-04-11T17:14:07Z</time></trkpt><trkpt lat="43.08353926542256" lon="11.522483945306714"><ele>299.0</ele><time>2026-04-11T17:14:09Z</time></trkpt><trkpt lat="43.08349553329227" lon="11.522571882333848"><ele>299.0</ele><time>2026-04-11T17:14:11Z</time></trkpt><trkpt lat="43.08346182707417" lon="11.522664526821016"><ele>299.0</ele><time>2026-04-11T17:14:13Z</time></trkpt><trkpt lat="43.08343329850337" lon="11.52276004301727"><ele>299.0</ele><time>2026-04-11T17:14:15Z</time></trkpt><trkpt lat="43.0833923313048" lon="11.522856549744965"><ele>299.0</ele><time>2026-04-11T17:14:17Z</time></trkpt><trkpt lat="43.08336489410943" lon="11.522959538459475"><ele>299.0</ele><time>2026-04-11T17:14:18.999Z</time></trkpt><trkpt lat="43.08335326459912" lon="11.52306719228483"><ele>299.0</ele><time>2026-04-11T17:14:20.999Z</time></trkpt><trkpt lat="43.08333247704757" lon="11.523167116778549"><ele>299.0</ele><time>2026-04-11T17:14:22.999Z</time></trkpt><trkpt lat="43.083306612802716" lon="11.523269388038763"><ele>299.0</ele><time>2026-04-11T17:14:24.999Z</time></trkpt><trkpt lat="43.0832805673603" lon="11.52337620838105"><ele>299.0</ele><time>2026-04-11T17:14:26.999Z</time></trkpt><trkpt lat="43.08325364341036" lon="11.523490149421892"><ele>299.0</ele><time>2026-04-11T17:14:28.999Z</time></trkpt><trkpt lat="43.08323630205142" lon="11.523604367894672"><ele>299.0</ele><time>2026-04-11T17:14:30.999Z</time></trkpt><trkpt lat="43.08321693994724" lon="11.523721201266943"><ele>298.59999999999997</ele><time>2026-04-11T17:14:32.999Z</time></trkpt><trkpt lat="43.083176297667265" lon="11.52382721295214"><ele>298.2</ele><time>2026-04-11T17:14:34.999Z</time></trkpt><trkpt lat="43.083116345972414" lon="11.523936695154555"><ele>297.79999999999995</ele><time>2026-04-11T17:14:36.999Z</time></trkpt><trkpt lat="43.08302198151599" lon="11.524052208134467"><ele>297.4</ele><time>2026-04-11T17:14:38.999Z</time></trkpt><trkpt lat="43.08295824558457" lon="11.524098763243888"><ele>297.0</ele><time>2026-04-11T17:14:39.999Z</time></trkpt><trkpt lat="43.08288905413485" lon="11.52413865355489"><ele>297.0</ele><time>2026-04-11T17:14:40.999Z</time></trkpt><trkpt lat="43.08281356694585" lon="11.524175371565574"><ele>297.0</ele><time>2026-04-11T17:14:41.999Z</time></trkpt><trkpt lat="43.08273696547885" lon="11.524208266489744"><ele>297.0</ele><time>2026-04-11T17:14:42.999Z</time></trkpt><trkpt lat="43.08266399561533" lon="11.524247159616706"><ele>297.0</ele><time>2026-04-11T17:14:43.999Z</time></trkpt><trkpt lat="43.08259235013094" lon="11.52428961764196"><ele>297.0</ele><time>2026-04-11T17:14:44.999Z</time></trkpt><trkpt lat="43.08252225240636" lon="11.524340930894143"><ele>297.0</ele><time>2026-04-11T17:14:45.999Z</time></trkpt><trkpt lat="43.082453181352776" lon="11.52439582404476"><ele>296.1666666666667</ele><time>2026-04-11T17:14:46.999Z</time></trkpt><trkpt lat="43.08238771040551" lon="11.524461502063195"><ele>295.3333333333333</ele><time>2026-04-11T17:14:47.999Z</time></trkpt><trkpt lat="43.08232562326769" lon="11.52453305527282"><ele>294.5</ele><time>2026-04-11T17:14:48.999Z</time></trkpt><trkpt lat="43.08226519898433" lon="11.52459948416015"><ele>293.66666666666663</ele><time>2026-04-11T17:14:49.999Z</time></trkpt><trkpt lat="43.08220672421982" lon="11.52466477124098"><ele>292.8333333333333</ele><time>2026-04-11T17:14:50.999Z</time></trkpt><trkpt lat="43.08215283549132" lon="11.524731139391294"><ele>292.0</ele><time>2026-04-11T17:14:51.999Z</time></trkpt><trkpt lat="43.08210039834234" lon="11.52480025260376"><ele>292.0</ele><time>2026-04-11T17:14:52.999Z</time></trkpt><trkpt lat="43.08204917037433" lon="11.524866241308876"><ele>292.0</ele><time>2026-04-11T17:14:53.999Z</time></trkpt><trkpt lat="43.08200071065661" lon="11.524924368811378"><ele>292.0</ele><time>2026-04-11T17:14:54.999Z</time></trkpt><trkpt lat="43.08191796949458" lon="11.525041539037034"><ele>292.0</ele><time>2026-04-11T17:14:56.999Z</time></trkpt><trkpt lat="43.081829266489976" lon="11.525144712568716"><ele>292.0</ele><time>2026-04-11T17:14:59Z</time></trkpt><trkpt lat="43.08174425746819" lon="11.52525515591636"><ele>292.0</ele><time>2026-04-11T17:15:01Z</time></trkpt><trkpt lat="43.08166442946293" lon="11.525364041271027"><ele>292.0</ele><time>2026-04-11T17:15:03Z</time></trkpt><trkpt lat="43.081593269538274" lon="11.525461740289048"><ele>292.0</ele><time>2026-04-11T17:15:05Z</time></trkpt><trkpt lat="43.08153091601759" lon="11.52555557964806"><ele>292.0</ele><time>2026-04-11T17:15:07Z</time></trkpt><trkpt lat="43.081480227333365" lon="11.525647921542575"><ele>292.0</ele><time>2026-04-11T17:15:09Z</time></trkpt><trkpt lat="43.081433171894474" lon="11.525731700885121"><ele>292.16666666666663</ele><time>2026-04-11T17:15:11Z</time></trkpt><trkpt lat="43.081390819461284" lon="11.525817776051104"><ele>292.3333333333333</ele><time>2026-04-11T17:15:13Z</time></trkpt><trkpt lat="43.08135479638177" lon="11.525903485789419"><ele>292.5</ele><time>2026-04-11T17:15:15Z</time></trkpt><trkpt lat="43.08131008022942" lon="11.526014176472874"><ele>292.6666666666667</ele><time>2026-04-11T17:15:18Z</time></trkpt><trkpt lat="43.081276040264314" lon="11.526111808011086"><ele>292.83333333333337</ele><time>2026-04-11T17:15:21Z</time></trkpt><trkpt lat="43.08124140257618" lon="11.52620522414036"><ele>293.0</ele><time>2026-04-11T17:15:24Z</time></trkpt><trkpt lat="43.08120561247191" lon="11.526312631874259"><ele>293.4285714285714</ele><time>2026-04-11T17:15:27Z</time></trkpt><trkpt lat="43.081168902849015" lon="11.526393537374734"><ele>293.85714285714283</ele><time>2026-04-11T17:15:29Z</time></trkpt><trkpt lat="43.08113542374297" lon="11.526485498345469"><ele>294.2857142857143</ele><time>2026-04-11T17:15:31Z</time></trkpt><trkpt lat="43.08110355746777" lon="11.526576402080272"><ele>294.71428571428567</ele><time>2026-04-11T17:15:33Z</time></trkpt><trkpt lat="43.08106781409318" lon="11.526666801309952"><ele>295.1428571428571</ele><time>2026-04-11T17:15:35Z</time></trkpt><trkpt lat="43.08103477295816" lon="11.526751723225514"><ele>295.57142857142856</ele><time>2026-04-11T17:15:37Z</time></trkpt><trkpt lat="43.081005389971025" lon="11.526845825541596"><ele>296.0</ele><time>2026-04-11T17:15:39Z</time></trkpt><trkpt lat="43.080973191738714" lon="11.526927044389367"><ele>296.0</ele><time>2026-04-11T17:15:41Z</time></trkpt><trkpt lat="43.080942142592036" lon="11.52701054954282"><ele>296.0</ele><time>2026-04-11T17:15:43Z</time></trkpt><trkpt lat="43.08091206288141" lon="11.527089823154025"><ele>296.0</ele><time>2026-04-11T17:15:45Z</time></trkpt><trkpt lat="43.08086961491449" lon="11.52720047971839"><ele>296.0</ele><time>2026-04-11T17:15:48Z</time></trkpt><trkpt lat="43.08081411021263" lon="11.527306514869895"><ele>296.0</ele><time>2026-04-11T17:15:51Z</time></trkpt><trkpt lat="43.08077603875978" lon="11.527417576145785"><ele>296.0</ele><time>2026-04-11T17:15:54Z</time></trkpt><trkpt lat="43.080733878997904" lon="11.527524876003287"><ele>298.0</ele><time>2026-04-11T17:15:57Z</time></trkpt><trkpt lat="43.080686364887576" lon="11.527633833518067"><ele>300.0</ele><time>2026-04-11T17:16:00Z</time></trkpt><trkpt lat="43.08064972374753" lon="11.52775275891699"><ele>302.0</ele><time>2026-04-11T17:16:03Z</time></trkpt><trkpt lat="43.08061626241643" lon="11.5278302918515"><ele>304.0</ele><time>2026-04-11T17:16:05Z</time></trkpt><trkpt lat="43.08058611552862" lon="11.52791276587015"><ele>306.0</ele><time>2026-04-11T17:16:07Z</time></trkpt><trkpt lat="43.080540131154926" lon="11.528017410005527"><ele>308.0</ele><time>2026-04-11T17:16:10Z</time></trkpt><trkpt lat="43.080500051828075" lon="11.528121351837342"><ele>308.14285714285717</ele><time>2026-04-11T17:16:13Z</time></trkpt><trkpt lat="43.080462131567025" lon="11.528213950719968"><ele>308.2857142857143</ele><time>2026-04-11T17:16:16Z</time></trkpt><trkpt lat="43.080430912195794" lon="11.528293659602715"><ele>308.42857142857144</ele><time>2026-04-11T17:16:19Z</time></trkpt><trkpt lat="43.08038943092167" lon="11.528389425498458"><ele>308.57142857142856</ele><time>2026-04-11T17:16:23Z</time></trkpt><trkpt lat="43.08035970637602" lon="11.528465440505975"><ele>308.7142857142857</ele><time>2026-04-11T17:16:26Z</time></trkpt><trkpt lat="43.080333638936914" lon="11.528548653988196"><ele>308.8571428571429</ele><time>2026-04-11T17:16:28.999Z</time></trkpt><trkpt lat="43.08029419750354" lon="11.528645593223272"><ele>309.0</ele><time>2026-04-11T17:16:31.999Z</time></trkpt><trkpt lat="43.08025417391245" lon="11.528747759839026"><ele>309.00000000000006</ele><time>2026-04-11T17:16:34.999Z</time></trkpt><trkpt lat="43.080215651904936" lon="11.528864950334304"><ele>309.0</ele><time>2026-04-11T17:16:37.999Z</time></trkpt><trkpt lat="43.08018230631293" lon="11.52894557678961"><ele>309.0</ele><time>2026-04-11T17:16:39.999Z</time></trkpt><trkpt lat="43.080152965912504" lon="11.529030555079109"><ele>309.0</ele><time>2026-04-11T17:16:41.999Z</time></trkpt><trkpt lat="43.08012616912676" lon="11.529120645301413"><ele>309.0</ele><time>2026-04-11T17:16:43.999Z</time></trkpt><trkpt lat="43.08010228652228" lon="11.529206791480599"><ele>309.00000000000006</ele><time>2026-04-11T17:16:45.999Z</time></trkpt><trkpt lat="43.08008174492051" lon="11.529289749127162"><ele>309.0</ele><time>2026-04-11T17:16:47.999Z</time></trkpt><trkpt lat="43.08005861969148" lon="11.529372107282928"><ele>309.0</ele><time>2026-04-11T17:16:49.999Z</time></trkpt><trkpt lat="43.08004217114984" lon="11.529464593122427"><ele>309.0</ele><time>2026-04-11T17:16:51.999Z</time></trkpt><trkpt lat="43.0800233967613" lon="11.529558629958396"><ele>309.0</ele><time>2026-04-11T17:16:53.999Z</time></trkpt><trkpt lat="43.080004090674876" lon="11.529672422374414"><ele>309.0</ele><time>2026-04-11T17:16:55.999Z</time></trkpt><trkpt lat="43.07998718777686" lon="11.529793813411144"><ele>309.0</ele><time>2026-04-11T17:16:57.999Z</time></trkpt><trkpt lat="43.07996850323378" lon="11.529924659251984"><ele>309.0</ele><time>2026-04-11T17:16:59.999Z</time></trkpt><trkpt lat="43.07996549185128" lon="11.530064514505716"><ele>308.25</ele><time>2026-04-11T17:17:01.999Z</time></trkpt><trkpt lat="43.079973308879666" lon="11.530219250683151"><ele>307.5</ele><time>2026-04-11T17:17:04Z</time></trkpt><trkpt lat="43.079977331434165" lon="11.530380210490833"><ele>306.75</ele><time>2026-04-11T17:17:06Z</time></trkpt><trkpt lat="43.079978984801414" lon="11.530537745303747"><ele>306.0</ele><time>2026-04-11T17:17:08Z</time></trkpt><trkpt lat="43.07998243783128" lon="11.530691909195408"><ele>305.75</ele><time>2026-04-11T17:17:10Z</time></trkpt><trkpt lat="43.079981355801216" lon="11.530850938738151"><ele>305.5</ele><time>2026-04-11T17:17:12Z</time></trkpt><trkpt lat="43.07998137215101" lon="11.53101385623141"><ele>305.25</ele><time>2026-04-11T17:17:14Z</time></trkpt><trkpt lat="43.0799664606906" lon="11.531175728672595"><ele>305.0</ele><time>2026-04-11T17:17:16Z</time></trkpt><trkpt lat="43.07993751314879" lon="11.53133256574223"><ele>303.4</ele><time>2026-04-11T17:17:18Z</time></trkpt><trkpt lat="43.07989856026361" lon="11.53147730452476"><ele>301.8</ele><time>2026-04-11T17:17:20Z</time></trkpt><trkpt lat="43.079855669674785" lon="11.531605726581203"><ele>300.2</ele><time>2026-04-11T17:17:22Z</time></trkpt><trkpt lat="43.07981321760299" lon="11.531718951574655"><ele>298.6</ele><time>2026-04-11T17:17:24Z</time></trkpt><trkpt lat="43.0797766698214" lon="11.531824098569816"><ele>297.0</ele><time>2026-04-11T17:17:26Z</time></trkpt><trkpt lat="43.079740385364516" lon="11.531907977760323"><ele>297.0</ele><time>2026-04-11T17:17:28Z</time></trkpt><trkpt lat="43.07969964931458" lon="11.532014911393668"><ele>297.0</ele><time>2026-04-11T17:17:31Z</time></trkpt><trkpt lat="43.07967184346716" lon="11.53210014212178"><ele>297.0</ele><time>2026-04-11T17:17:34Z</time></trkpt><trkpt lat="43.07964883420323" lon="11.532195441008735"><ele>297.0</ele><time>2026-04-11T17:17:38Z</time></trkpt><trkpt lat="43.079629786735445" lon="11.532284647906001"><ele>297.0</ele><time>2026-04-11T17:17:42Z</time></trkpt><trkpt lat="43.079618992439514" lon="11.53237216649145"><ele>297.0</ele><time>2026-04-11T17:17:46Z</time></trkpt><trkpt lat="43.07962804064673" lon="11.532459183419071"><ele>297.0</ele><time>2026-04-11T17:17:50Z</time></trkpt><trkpt lat="43.0796379812907" lon="11.532548121212361"><ele>298.1666666666667</ele><time>2026-04-11T17:17:54Z</time></trkpt><trkpt lat="43.07966100288459" lon="11.532652945999008"><ele>299.3333333333333</ele><time>2026-04-11T17:17:58Z</time></trkpt><trkpt lat="43.07968326250386" lon="11.532737705951803"><ele>300.5</ele><time>2026-04-11T17:18:01Z</time></trkpt><trkpt lat="43.079712816119944" lon="11.532832688359028"><ele>301.66666666666663</ele><time>2026-04-11T17:18:04Z</time></trkpt><trkpt lat="43.079740188442116" lon="11.532938157725344"><ele>302.8333333333333</ele><time>2026-04-11T17:18:07Z</time></trkpt><trkpt lat="43.07977027006409" lon="11.533059541693982"><ele>304.0</ele><time>2026-04-11T17:18:10Z</time></trkpt><trkpt lat="43.07978626874836" lon="11.533144827190922"><ele>305.1428571428571</ele><time>2026-04-11T17:18:12Z</time></trkpt><trkpt lat="43.07979618058635" lon="11.533236923586818"><ele>306.28571428571433</ele><time>2026-04-11T17:18:14Z</time></trkpt><trkpt lat="43.079791229226984" lon="11.533335272022402"><ele>307.42857142857144</ele><time>2026-04-11T17:18:16Z</time></trkpt><trkpt lat="43.079775277000635" lon="11.533432882026517"><ele>308.57142857142856</ele><time>2026-04-11T17:18:18Z</time></trkpt><trkpt lat="43.07975351540089" lon="11.533526604768149"><ele>309.71428571428567</ele><time>2026-04-11T17:18:20Z</time></trkpt><trkpt lat="43.07971897085963" lon="11.533622705908357"><ele>310.8571428571429</ele><time>2026-04-11T17:18:22Z</time></trkpt><trkpt lat="43.079701362161536" lon="11.533728056204337"><ele>312.0</ele><time>2026-04-11T17:18:24Z</time></trkpt><trkpt lat="43.07970192949876" lon="11.533851907977812"><ele>313.0</ele><time>2026-04-11T17:18:26Z</time></trkpt><trkpt lat="43.079713918226155" lon="11.533975013101863"><ele>314.0</ele><time>2026-04-11T17:18:28Z</time></trkpt><trkpt lat="43.07973474639713" lon="11.53409244408065"><ele>315.0</ele><time>2026-04-11T17:18:30Z</time></trkpt><trkpt lat="43.07975689356365" lon="11.534228120941933"><ele>316.0</ele><time>2026-04-11T17:18:32Z</time></trkpt><trkpt lat="43.07978538376659" lon="11.53437208431058"><ele>317.0</ele><time>2026-04-11T17:18:34Z</time></trkpt><trkpt lat="43.079824618152074" lon="11.534520337318353"><ele>317.4</ele><time>2026-04-11T17:18:36Z</time></trkpt><trkpt lat="43.079871882859095" lon="11.53467399523133"><ele>317.79999999999995</ele><time>2026-04-11T17:18:38Z</time></trkpt><trkpt lat="43.07992716973637" lon="11.534829591394212"><ele>318.2</ele><time>2026-04-11T17:18:40Z</time></trkpt><trkpt lat="43.07996235071861" lon="11.534904816217775"><ele>318.59999999999997</ele><time>2026-04-11T17:18:41Z</time></trkpt><trkpt lat="43.0800054188035" lon="11.53498455301821"><ele>319.0</ele><time>2026-04-11T17:18:42Z</time></trkpt><trkpt lat="43.080060891682564" lon="11.535060054279649"><ele>317.8571428571429</ele><time>2026-04-11T17:18:42.999Z</time></trkpt><trkpt lat="43.08011604835959" lon="11.535126330256581"><ele>316.71428571428567</ele><time>2026-04-11T17:18:43.999Z</time></trkpt><trkpt lat="43.08016555364194" lon="11.535195284959453"><ele>315.57142857142856</ele><time>2026-04-11T17:18:44.999Z</time></trkpt><trkpt lat="43.080205043002714" lon="11.53527954045335"><ele>314.42857142857144</ele><time>2026-04-11T17:18:45.999Z</time></trkpt><trkpt lat="43.08023147541156" lon="11.535359507550565"><ele>313.28571428571433</ele><time>2026-04-11T17:18:46.999Z</time></trkpt><trkpt lat="43.08024840198852" lon="11.535450764732447"><ele>312.1428571428571</ele><time>2026-04-11T17:18:47.999Z</time></trkpt><trkpt lat="43.0802541246058" lon="11.535545865299202"><ele>311.0</ele><time>2026-04-11T17:18:48.999Z</time></trkpt><trkpt lat="43.08024493207851" lon="11.535641350327976"><ele>310.33333333333337</ele><time>2026-04-11T17:18:49.999Z</time></trkpt><trkpt lat="43.08022840794374" lon="11.535738644618492"><ele>309.6666666666667</ele><time>2026-04-11T17:18:50.999Z</time></trkpt><trkpt lat="43.08021112513643" lon="11.535842227671338"><ele>309.0</ele><time>2026-04-11T17:18:51.999Z</time></trkpt><trkpt lat="43.080201838773476" lon="11.535956134071375"><ele>308.3333333333333</ele><time>2026-04-11T17:18:52.999Z</time></trkpt><trkpt lat="43.080200289076444" lon="11.53607245581621"><ele>307.66666666666663</ele><time>2026-04-11T17:18:53.999Z</time></trkpt><trkpt lat="43.080202203242884" lon="11.536198648330025"><ele>307.0</ele><time>2026-04-11T17:18:54.999Z</time></trkpt><trkpt lat="43.080214821901095" lon="11.5363210863996"><ele>305.5</ele><time>2026-04-11T17:18:55.999Z</time></trkpt><trkpt lat="43.08023256523202" lon="11.536438697185435"><ele>304.0</ele><time>2026-04-11T17:18:56.999Z</time></trkpt><trkpt lat="43.08024929669313" lon="11.53655440872569"><ele>302.5</ele><time>2026-04-11T17:18:57.999Z</time></trkpt><trkpt lat="43.080255244991065" lon="11.536678478867888"><ele>301.0</ele><time>2026-04-11T17:18:58.999Z</time></trkpt><trkpt lat="43.08024104653889" lon="11.53679148038557"><ele>299.5</ele><time>2026-04-11T17:18:59.999Z</time></trkpt><trkpt lat="43.08021593177202" lon="11.536907824891331"><ele>298.0</ele><time>2026-04-11T17:19:00.999Z</time></trkpt><trkpt lat="43.08020647533979" lon="11.537006428054136"><ele>296.8333333333333</ele><time>2026-04-11T17:19:01.999Z</time></trkpt><trkpt lat="43.08021472353084" lon="11.53711143561694"><ele>295.66666666666663</ele><time>2026-04-11T17:19:02.999Z</time></trkpt><trkpt lat="43.08023916840453" lon="11.537225408278617"><ele>294.5</ele><time>2026-04-11T17:19:03.999Z</time></trkpt><trkpt lat="43.08028947932452" lon="11.537332645145502"><ele>293.3333333333333</ele><time>2026-04-11T17:19:04.999Z</time></trkpt><trkpt lat="43.080364756329544" lon="11.53740153596977"><ele>292.1666666666667</ele><time>2026-04-11T17:19:05.999Z</time></trkpt><trkpt lat="43.08045486412215" lon="11.537420308377992"><ele>291.0</ele><time>2026-04-11T17:19:06.999Z</time></trkpt><trkpt lat="43.08052228789859" lon="11.537458092597037"><ele>291.0</ele><time>2026-04-11T17:19:07.999Z</time></trkpt><trkpt lat="43.0805799947958" lon="11.53751615939007"><ele>291.0</ele><time>2026-04-11T17:19:08.999Z</time></trkpt><trkpt lat="43.08063560425859" lon="11.537598458553852"><ele>291.0</ele><time>2026-04-11T17:19:10Z</time></trkpt><trkpt lat="43.08067828522624" lon="11.537691914198215"><ele>291.0</ele><time>2026-04-11T17:19:11Z</time></trkpt><trkpt lat="43.080702621838824" lon="11.537791916175625"><ele>291.0</ele><time>2026-04-11T17:19:12Z</time></trkpt><trkpt lat="43.08071992988686" lon="11.537899590341748"><ele>291.0</ele><time>2026-04-11T17:19:13Z</time></trkpt><trkpt lat="43.08073324962289" lon="11.53800783792658"><ele>290.3333333333333</ele><time>2026-04-11T17:19:14Z</time></trkpt><trkpt lat="43.08074713505082" lon="11.538113236617875"><ele>289.6666666666667</ele><time>2026-04-11T17:19:15Z</time></trkpt><trkpt lat="43.08076352984294" lon="11.538219941667425"><ele>289.0</ele><time>2026-04-11T17:19:16Z</time></trkpt><trkpt lat="43.080776361858504" lon="11.53832902277"><ele>288.33333333333337</ele><time>2026-04-11T17:19:17Z</time></trkpt><trkpt lat="43.080792669656965" lon="11.538438820885437"><ele>287.6666666666667</ele><time>2026-04-11T17:19:18Z</time></trkpt><trkpt lat="43.080814022428676" lon="11.538546950627914"><ele>287.0</ele><time>2026-04-11T17:19:19Z</time></trkpt><trkpt lat="43.080829305940995" lon="11.538658890775654"><ele>286.85714285714283</ele><time>2026-04-11T17:19:20Z</time></trkpt><trkpt lat="43.08084826668124" lon="11.538763666915386"><ele>286.7142857142857</ele><time>2026-04-11T17:19:21Z</time></trkpt><trkpt lat="43.08086170014016" lon="11.538865802278565"><ele>286.57142857142856</ele><time>2026-04-11T17:19:22Z</time></trkpt><trkpt lat="43.08087835839842" lon="11.538971680410961"><ele>286.42857142857144</ele><time>2026-04-11T17:19:23Z</time></trkpt><trkpt lat="43.08089602345068" lon="11.539071005265896"><ele>286.2857142857143</ele><time>2026-04-11T17:19:24Z</time></trkpt><trkpt lat="43.08091338618561" lon="11.539163160364318"><ele>286.1428571428571</ele><time>2026-04-11T17:19:25Z</time></trkpt><trkpt lat="43.08092718371993" lon="11.539255736207972"><ele>286.0</ele><time>2026-04-11T17:19:26Z</time></trkpt><trkpt lat="43.08094861394932" lon="11.539345547213246"><ele>286.0</ele><time>2026-04-11T17:19:27Z</time></trkpt><trkpt lat="43.08100601462206" lon="11.539495670922971"><ele>286.0</ele><time>2026-04-11T17:19:29Z</time></trkpt><trkpt lat="43.08107976130152" lon="11.539630091868842"><ele>286.0</ele><time>2026-04-11T17:19:31Z</time></trkpt><trkpt lat="43.08116210740774" lon="11.539760029170495"><ele>286.0</ele><time>2026-04-11T17:19:33Z</time></trkpt><trkpt lat="43.081211931978515" lon="11.539813338622542"><ele>286.0</ele><time>2026-04-11T17:19:34Z</time></trkpt><trkpt lat="43.08130447966431" lon="11.539912359470938"><ele>286.6</ele><time>2026-04-11T17:19:36Z</time></trkpt><trkpt lat="43.08140046281073" lon="11.539986519234956"><ele>287.20000000000005</ele><time>2026-04-11T17:19:38Z</time></trkpt><trkpt lat="43.08147757611033" lon="11.54008729151253"><ele>287.79999999999995</ele><time>2026-04-11T17:19:40Z</time></trkpt><trkpt lat="43.08153951669432" lon="11.540183647128433"><ele>288.4</ele><time>2026-04-11T17:19:42Z</time></trkpt><trkpt lat="43.08158805122617" lon="11.540288862888405"><ele>289.0</ele><time>2026-04-11T17:19:44Z</time></trkpt><trkpt lat="43.08162600444675" lon="11.540397985642937"><ele>289.8</ele><time>2026-04-11T17:19:46Z</time></trkpt><trkpt lat="43.081651823867276" lon="11.540524645370251"><ele>290.59999999999997</ele><time>2026-04-11T17:19:48Z</time></trkpt><trkpt lat="43.08166084366662" lon="11.540656624021166"><ele>291.4</ele><time>2026-04-11T17:19:50Z</time></trkpt><trkpt lat="43.08168079823755" lon="11.540788882577388"><ele>292.2</ele><time>2026-04-11T17:19:52Z</time></trkpt><trkpt lat="43.08168754231664" lon="11.540920841924661"><ele>293.0</ele><time>2026-04-11T17:19:54Z</time></trkpt><trkpt lat="43.08170029799306" lon="11.54106233727783"><ele>293.0</ele><time>2026-04-11T17:19:56Z</time></trkpt><trkpt lat="43.08171038255746" lon="11.541192690747133"><ele>293.0</ele><time>2026-04-11T17:19:58Z</time></trkpt><trkpt lat="43.08173163821675" lon="11.541321881084952"><ele>293.0</ele><time>2026-04-11T17:20:00Z</time></trkpt><trkpt lat="43.08176254938373" lon="11.541445903894688"><ele>293.0</ele><time>2026-04-11T17:20:02Z</time></trkpt><trkpt lat="43.08179153430274" lon="11.5415781801598"><ele>293.0</ele><time>2026-04-11T17:20:04Z</time></trkpt><trkpt lat="43.08182564190676" lon="11.541704530133481"><ele>293.6</ele><time>2026-04-11T17:20:06Z</time></trkpt><trkpt lat="43.081855528990644" lon="11.541842700621622"><ele>294.20000000000005</ele><time>2026-04-11T17:20:08Z</time></trkpt><trkpt lat="43.08187780763752" lon="11.541982608983126"><ele>294.8</ele><time>2026-04-11T17:20:10Z</time></trkpt><trkpt lat="43.081883739732355" lon="11.542127973677728"><ele>295.40000000000003</ele><time>2026-04-11T17:20:12Z</time></trkpt><trkpt lat="43.08188750718179" lon="11.542267326599813"><ele>296.0</ele><time>2026-04-11T17:20:14Z</time></trkpt><trkpt lat="43.08188221505898" lon="11.54240589169965"><ele>296.0</ele><time>2026-04-11T17:20:16Z</time></trkpt><trkpt lat="43.08189027815627" lon="11.542562300137792"><ele>296.0</ele><time>2026-04-11T17:20:18Z</time></trkpt><trkpt lat="43.0819083195503" lon="11.542724990478911"><ele>296.0</ele><time>2026-04-11T17:20:20Z</time></trkpt><trkpt lat="43.08193204370304" lon="11.54280502133704"><ele>296.0</ele><time>2026-04-11T17:20:21Z</time></trkpt><trkpt lat="43.08201212510006" lon="11.542927430932076"><ele>296.0</ele><time>2026-04-11T17:20:23Z</time></trkpt><trkpt lat="43.08211938437333" lon="11.543014844596891"><ele>294.8</ele><time>2026-04-11T17:20:25Z</time></trkpt><trkpt lat="43.08223671365141" lon="11.543041643225294"><ele>293.6</ele><time>2026-04-11T17:20:27Z</time></trkpt><trkpt lat="43.08235197936979" lon="11.543061771968985"><ele>292.4</ele><time>2026-04-11T17:20:29Z</time></trkpt><trkpt lat="43.082473377869285" lon="11.543076012030236"><ele>291.2</ele><time>2026-04-11T17:20:31Z</time></trkpt><trkpt lat="43.08253849556282" lon="11.543105801290997"><ele>290.0</ele><time>2026-04-11T17:20:32Z</time></trkpt><trkpt lat="43.082660294504784" lon="11.543156643074784"><ele>290.0</ele><time>2026-04-11T17:20:34Z</time></trkpt><trkpt lat="43.082725098183005" lon="11.5431817612276"><ele>290.0</ele><time>2026-04-11T17:20:35Z</time></trkpt><trkpt lat="43.08279077227216" lon="11.543200719748146"><ele>290.0</ele><time>2026-04-11T17:20:36Z</time></trkpt><trkpt lat="43.08285820995046" lon="11.543213700892878"><ele>290.0</ele><time>2026-04-11T17:20:37Z</time></trkpt><trkpt lat="43.082921445619" lon="11.543220479915076"><ele>290.0</ele><time>2026-04-11T17:20:38Z</time></trkpt><trkpt lat="43.0829902814778" lon="11.543221902802665"><ele>290.0</ele><time>2026-04-11T17:20:39Z</time></trkpt><trkpt lat="43.083065639893135" lon="11.543229267299871"><ele>290.0</ele><time>2026-04-11T17:20:40Z</time></trkpt><trkpt lat="43.083138742391924" lon="11.543263081060921"><ele>290.0</ele><time>2026-04-11T17:20:41Z</time></trkpt><trkpt lat="43.08321957433904" lon="11.54326309922008"><ele>290.0</ele><time>2026-04-11T17:20:42Z</time></trkpt><trkpt lat="43.08329778041459" lon="11.543285789388767"><ele>290.0</ele><time>2026-04-11T17:20:43Z</time></trkpt><trkpt lat="43.08337027050366" lon="11.543311773143394"><ele>290.0</ele><time>2026-04-11T17:20:44Z</time></trkpt><trkpt lat="43.0834368471735" lon="11.54335595552241"><ele>290.0</ele><time>2026-04-11T17:20:45Z</time></trkpt><trkpt lat="43.083512232144386" lon="11.543370451773447"><ele>290.0</ele><time>2026-04-11T17:20:46Z</time></trkpt><trkpt lat="43.08359339839382" lon="11.543367378572704"><ele>289.1666666666667</ele><time>2026-04-11T17:20:47Z</time></trkpt><trkpt lat="43.08367399371076" lon="11.54333991082032"><ele>288.33333333333337</ele><time>2026-04-11T17:20:48Z</time></trkpt><trkpt lat="43.08375134376203" lon="11.543300750735733"><ele>287.5</ele><time>2026-04-11T17:20:49Z</time></trkpt><trkpt lat="43.08381370614868" lon="11.543245643612627"><ele>286.6666666666667</ele><time>2026-04-11T17:20:50Z</time></trkpt><trkpt lat="43.083876620332134" lon="11.543207801873946"><ele>285.8333333333333</ele><time>2026-04-11T17:20:50.999Z</time></trkpt><trkpt lat="43.08394505072859" lon="11.543160414567089"><ele>285.0</ele><time>2026-04-11T17:20:51.999Z</time></trkpt><trkpt lat="43.08402562302453" lon="11.543189931844333"><ele>283.4</ele><time>2026-04-11T17:20:52.999Z</time></trkpt><trkpt lat="43.08410970179376" lon="11.543223106552718"><ele>281.8</ele><time>2026-04-11T17:20:53.999Z</time></trkpt><trkpt lat="43.08418984226877" lon="11.543254852956677"><ele>280.2</ele><time>2026-04-11T17:20:54.999Z</time></trkpt><trkpt lat="43.08426836422947" lon="11.543291774431829"><ele>278.6</ele><time>2026-04-11T17:20:55.999Z</time></trkpt><trkpt lat="43.08434817290222" lon="11.543318603244947"><ele>277.0</ele><time>2026-04-11T17:20:56.999Z</time></trkpt><trkpt lat="43.08446996817085" lon="11.543385056449125"><ele>277.0</ele><time>2026-04-11T17:20:58.999Z</time></trkpt><trkpt lat="43.08453743319208" lon="11.543411545287348"><ele>277.0</ele><time>2026-04-11T17:20:59.999Z</time></trkpt><trkpt lat="43.08460741565652" lon="11.543440625934904"><ele>277.0</ele><time>2026-04-11T17:21:00.999Z</time></trkpt><trkpt lat="43.08467492112042" lon="11.543463420206052"><ele>277.0</ele><time>2026-04-11T17:21:01.999Z</time></trkpt><trkpt lat="43.08474252092097" lon="11.543484262925116"><ele>277.0</ele><time>2026-04-11T17:21:02.999Z</time></trkpt><trkpt lat="43.084808712598424" lon="11.54350917694964"><ele>277.0</ele><time>2026-04-11T17:21:03.999Z</time></trkpt><trkpt lat="43.08487423567964" lon="11.543545220741974"><ele>277.0</ele><time>2026-04-11T17:21:04.999Z</time></trkpt><trkpt lat="43.084945490234254" lon="11.5435771583865"><ele>275.8333333333333</ele><time>2026-04-11T17:21:05.999Z</time></trkpt><trkpt lat="43.085015338744945" lon="11.5436173106823"><ele>274.66666666666663</ele><time>2026-04-11T17:21:06.999Z</time></trkpt><trkpt lat="43.08508352657605" lon="11.543654539702965"><ele>273.5</ele><time>2026-04-11T17:21:07.999Z</time></trkpt><trkpt lat="43.08515143080621" lon="11.54370358534579"><ele>272.3333333333333</ele><time>2026-04-11T17:21:08.999Z</time></trkpt><trkpt lat="43.085226190175" lon="11.54375031575641"><ele>271.1666666666667</ele><time>2026-04-11T17:21:09.999Z</time></trkpt><trkpt lat="43.08530549453961" lon="11.543798692400117"><ele>270.0</ele><time>2026-04-11T17:21:10.999Z</time></trkpt><trkpt lat="43.085382354143185" lon="11.543840924413033"><ele>270.0</ele><time>2026-04-11T17:21:11.999Z</time></trkpt><trkpt lat="43.08545670507471" lon="11.543881256359603"><ele>270.0</ele><time>2026-04-11T17:21:12.999Z</time></trkpt><trkpt lat="43.085517273268785" lon="11.543934531403853"><ele>270.0</ele><time>2026-04-11T17:21:13.999Z</time></trkpt><trkpt lat="43.08558300235761" lon="11.543964727413208"><ele>270.0</ele><time>2026-04-11T17:21:14.999Z</time></trkpt><trkpt lat="43.0856507134277" lon="11.543991945170099"><ele>270.0</ele><time>2026-04-11T17:21:16Z</time></trkpt><trkpt lat="43.085717466704175" lon="11.544012620615403"><ele>270.0</ele><time>2026-04-11T17:21:17Z</time></trkpt><trkpt lat="43.08578269088293" lon="11.544027118436233"><ele>270.0</ele><time>2026-04-11T17:21:18Z</time></trkpt><trkpt lat="43.08584954246342" lon="11.54403962277746"><ele>270.0</ele><time>2026-04-11T17:21:19Z</time></trkpt><trkpt lat="43.08591506204113" lon="11.54404960029476"><ele>270.0</ele><time>2026-04-11T17:21:20Z</time></trkpt><trkpt lat="43.08598163852439" lon="11.544055725781426"><ele>270.0</ele><time>2026-04-11T17:21:21Z</time></trkpt><trkpt lat="43.08604558412" lon="11.544060957301927"><ele>270.0</ele><time>2026-04-11T17:21:22Z</time></trkpt><trkpt lat="43.086111848327796" lon="11.544047830531683"><ele>270.0</ele><time>2026-04-11T17:21:23Z</time></trkpt><trkpt lat="43.08617695368064" lon="11.544052882576938"><ele>270.0</ele><time>2026-04-11T17:21:24Z</time></trkpt><trkpt lat="43.08624229113628" lon="11.54406653169164"><ele>270.0</ele><time>2026-04-11T17:21:25Z</time></trkpt><trkpt lat="43.086300537391786" lon="11.544115183419008"><ele>270.0</ele><time>2026-04-11T17:21:26Z</time></trkpt><trkpt lat="43.08636520592382" lon="11.544143662815177"><ele>270.0</ele><time>2026-04-11T17:21:27Z</time></trkpt><trkpt lat="43.08642752914381" lon="11.54417690163034"><ele>270.0</ele><time>2026-04-11T17:21:28Z</time></trkpt><trkpt lat="43.086485156863716" lon="11.544211893131456"><ele>270.0</ele><time>2026-04-11T17:21:29Z</time></trkpt><trkpt lat="43.086553203574034" lon="11.544232022676939"><ele>270.0</ele><time>2026-04-11T17:21:30Z</time></trkpt><trkpt lat="43.0866066693892" lon="11.5442960185958"><ele>270.0</ele><time>2026-04-11T17:21:31Z</time></trkpt><trkpt lat="43.086670017886895" lon="11.544342761651656"><ele>270.0</ele><time>2026-04-11T17:21:32Z</time></trkpt><trkpt lat="43.08673097681986" lon="11.544387740485497"><ele>270.2</ele><time>2026-04-11T17:21:33Z</time></trkpt><trkpt lat="43.08684953208194" lon="11.54447203564762"><ele>270.4</ele><time>2026-04-11T17:21:35Z</time></trkpt><trkpt lat="43.08689685565685" lon="11.54454079121189"><ele>270.6</ele><time>2026-04-11T17:21:36Z</time></trkpt><trkpt lat="43.0869861965982" lon="11.544641597602103"><ele>270.8</ele><time>2026-04-11T17:21:38Z</time></trkpt><trkpt lat="43.08707291033101" lon="11.544706322427821"><ele>271.0</ele><time>2026-04-11T17:21:40Z</time></trkpt><trkpt lat="43.087121490673624" lon="11.544797800278733"><ele>271.0</ele><time>2026-04-11T17:21:42Z</time></trkpt><trkpt lat="43.087080985711424" lon="11.544930447658496"><ele>271.0</ele><time>2026-04-11T17:21:43Z</time></trkpt><trkpt lat="43.08705092236629" lon="11.545010693746717"><ele>271.0</ele><time>2026-04-11T17:21:44Z</time></trkpt><trkpt lat="43.08702217008374" lon="11.54509084272036"><ele>271.0</ele><time>2026-04-11T17:21:45Z</time></trkpt><trkpt lat="43.086992637037326" lon="11.545171490648714"><ele>271.0</ele><time>2026-04-11T17:21:46Z</time></trkpt><trkpt lat="43.08696023913625" lon="11.545252511124017"><ele>271.0</ele><time>2026-04-11T17:21:47Z</time></trkpt><trkpt lat="43.086928466804096" lon="11.545342529433425"><ele>271.0</ele><time>2026-04-11T17:21:48Z</time></trkpt><trkpt lat="43.08689734878389" lon="11.545431717329492"><ele>270.3333333333333</ele><time>2026-04-11T17:21:49Z</time></trkpt><trkpt lat="43.0868673944866" lon="11.545522176473666"><ele>269.66666666666663</ele><time>2026-04-11T17:21:50Z</time></trkpt><trkpt lat="43.08683639190902" lon="11.545616202762796"><ele>269.0</ele><time>2026-04-11T17:21:51Z</time></trkpt><trkpt lat="43.08680539918766" lon="11.545715478232356"><ele>268.3333333333333</ele><time>2026-04-11T17:21:52Z</time></trkpt><trkpt lat="43.08678556242678" lon="11.545820017562734"><ele>267.6666666666667</ele><time>2026-04-11T17:21:53Z</time></trkpt><trkpt lat="43.0867675066325" lon="11.545929343899406"><ele>267.0</ele><time>2026-04-11T17:21:54Z</time></trkpt><trkpt lat="43.08673289839254" lon="11.54601558064542"><ele>267.0</ele><time>2026-04-11T17:21:55Z</time></trkpt><trkpt lat="43.08671118835495" lon="11.546108365721093"><ele>267.0</ele><time>2026-04-11T17:21:56Z</time></trkpt><trkpt lat="43.086690190748925" lon="11.546209099343988"><ele>267.0</ele><time>2026-04-11T17:21:57Z</time></trkpt><trkpt lat="43.08668250699688" lon="11.546314661759174"><ele>267.0</ele><time>2026-04-11T17:21:58Z</time></trkpt><trkpt lat="43.086654943253286" lon="11.546417715785992"><ele>267.0</ele><time>2026-04-11T17:21:59Z</time></trkpt><trkpt lat="43.086633723248575" lon="11.546523297690653"><ele>267.0</ele><time>2026-04-11T17:22:00Z</time></trkpt><trkpt lat="43.086595967276274" lon="11.546622666326789"><ele>265.6666666666667</ele><time>2026-04-11T17:22:01Z</time></trkpt><trkpt lat="43.0865784245732" lon="11.54674374092708"><ele>264.3333333333333</ele><time>2026-04-11T17:22:02Z</time></trkpt><trkpt lat="43.08655287438" lon="11.546850877563235"><ele>263.0</ele><time>2026-04-11T17:22:03Z</time></trkpt><trkpt lat="43.08652881902803" lon="11.546961718181166"><ele>261.66666666666663</ele><time>2026-04-11T17:22:04Z</time></trkpt><trkpt lat="43.08650413429871" lon="11.547075620353716"><ele>260.3333333333333</ele><time>2026-04-11T17:22:05Z</time></trkpt><trkpt lat="43.08647845997381" lon="11.547189570494849"><ele>259.0</ele><time>2026-04-11T17:22:06Z</time></trkpt><trkpt lat="43.08645374464023" lon="11.547302449181517"><ele>258.8333333333333</ele><time>2026-04-11T17:22:07Z</time></trkpt><trkpt lat="43.086420336649574" lon="11.547404023565377"><ele>258.66666666666663</ele><time>2026-04-11T17:22:08Z</time></trkpt><trkpt lat="43.086396612949514" lon="11.547513336708484"><ele>258.5</ele><time>2026-04-11T17:22:09Z</time></trkpt><trkpt lat="43.08637677556625" lon="11.547626933958318"><ele>258.3333333333333</ele><time>2026-04-11T17:22:10Z</time></trkpt><trkpt lat="43.0863653577504" lon="11.547738890071647"><ele>258.1666666666667</ele><time>2026-04-11T17:22:11Z</time></trkpt><trkpt lat="43.0863443216308" lon="11.547834327471529"><ele>258.0</ele><time>2026-04-11T17:22:12Z</time></trkpt><trkpt lat="43.0863236244189" lon="11.547937517586044"><ele>257.6666666666667</ele><time>2026-04-11T17:22:13Z</time></trkpt><trkpt lat="43.086301173465316" lon="11.548039484841206"><ele>257.3333333333333</ele><time>2026-04-11T17:22:14Z</time></trkpt><trkpt lat="43.08628328886755" lon="11.548138427906265"><ele>257.0</ele><time>2026-04-11T17:22:15Z</time></trkpt><trkpt lat="43.086246851169676" lon="11.548217652395714"><ele>256.66666666666663</ele><time>2026-04-11T17:22:16Z</time></trkpt><trkpt lat="43.08621502000726" lon="11.548314605132822"><ele>256.3333333333333</ele><time>2026-04-11T17:22:17Z</time></trkpt><trkpt lat="43.086164423612466" lon="11.548468704290444"><ele>256.0</ele><time>2026-04-11T17:22:19Z</time></trkpt><trkpt lat="43.08613555312545" lon="11.548559288953616"><ele>255.99999999999997</ele><time>2026-04-11T17:22:20Z</time></trkpt><trkpt lat="43.086109995175484" lon="11.548644018228801"><ele>256.0</ele><time>2026-04-11T17:22:21Z</time></trkpt><trkpt lat="43.08608356384275" lon="11.548731282623459"><ele>256.0</ele><time>2026-04-11T17:22:22Z</time></trkpt><trkpt lat="43.086057922304704" lon="11.548820041458015"><ele>256.0</ele><time>2026-04-11T17:22:23Z</time></trkpt><trkpt lat="43.086034925317236" lon="11.548908265227128"><ele>255.99999999999997</ele><time>2026-04-11T17:22:24Z</time></trkpt><trkpt lat="43.08601454777402" lon="11.548995748017601"><ele>256.0</ele><time>2026-04-11T17:22:25Z</time></trkpt><trkpt lat="43.08598049101855" lon="11.549148719915566"><ele>256.3333333333333</ele><time>2026-04-11T17:22:27Z</time></trkpt><trkpt lat="43.08595669582966" lon="11.549267258906992"><ele>256.66666666666663</ele><time>2026-04-11T17:22:29Z</time></trkpt><trkpt lat="43.08593921382401" lon="11.549354347592992"><ele>257.0</ele><time>2026-04-11T17:22:31Z</time></trkpt><trkpt lat="43.085919759814686" lon="11.5494512545616"><ele>257.3333333333333</ele><time>2026-04-11T17:22:33Z</time></trkpt><trkpt lat="43.08587379967602" lon="11.549557028817695"><ele>257.6666666666667</ele><time>2026-04-11T17:22:35Z</time></trkpt><trkpt lat="43.08582387017837" lon="11.54966592794242"><ele>258.0</ele><time>2026-04-11T17:22:37Z</time></trkpt><trkpt lat="43.0857784406423" lon="11.549732846907014"><ele>256.85714285714283</ele><time>2026-04-11T17:22:38Z</time></trkpt><trkpt lat="43.08572783509809" lon="11.549787048102836"><ele>255.71428571428572</ele><time>2026-04-11T17:22:39Z</time></trkpt><trkpt lat="43.08568349147387" lon="11.549858195507575"><ele>254.57142857142856</ele><time>2026-04-11T17:22:40Z</time></trkpt><trkpt lat="43.0856348525689" lon="11.549935805764797"><ele>253.42857142857142</ele><time>2026-04-11T17:22:41Z</time></trkpt><trkpt lat="43.085597811523584" lon="11.550026282313194"><ele>252.28571428571428</ele><time>2026-04-11T17:22:42Z</time></trkpt><trkpt lat="43.08554189031131" lon="11.550106316214642"><ele>251.14285714285714</ele><time>2026-04-11T17:22:43Z</time></trkpt><trkpt lat="43.08549578988003" lon="11.550190201201964"><ele>250.0</ele><time>2026-04-11T17:22:44Z</time></trkpt><trkpt lat="43.08544661329114" lon="11.550270881840039"><ele>249.99999999999997</ele><time>2026-04-11T17:22:45Z</time></trkpt><trkpt lat="43.0853983066425" lon="11.550355110523416"><ele>250.0</ele><time>2026-04-11T17:22:46Z</time></trkpt><trkpt lat="43.08533236433716" lon="11.550431764980257"><ele>250.0</ele><time>2026-04-11T17:22:47Z</time></trkpt><trkpt lat="43.085277552201156" lon="11.550518583177789"><ele>250.0</ele><time>2026-04-11T17:22:48Z</time></trkpt><trkpt lat="43.0852338742771" lon="11.550620552193639"><ele>249.99999999999997</ele><time>2026-04-11T17:22:49Z</time></trkpt><trkpt lat="43.08517496553747" lon="11.550702620253404"><ele>250.0</ele><time>2026-04-11T17:22:50Z</time></trkpt><trkpt lat="43.08511618369203" lon="11.550785250287491"><ele>249.71428571428572</ele><time>2026-04-11T17:22:51Z</time></trkpt><trkpt lat="43.085059010830406" lon="11.550859002825394"><ele>249.42857142857144</ele><time>2026-04-11T17:22:52Z</time></trkpt><trkpt lat="43.085004506640935" lon="11.550929000028155"><ele>249.14285714285717</ele><time>2026-04-11T17:22:53Z</time></trkpt><trkpt lat="43.084956139007694" lon="11.551006518918447"><ele>248.85714285714286</ele><time>2026-04-11T17:22:54Z</time></trkpt><trkpt lat="43.084907206613785" lon="11.551077441116952"><ele>248.5714285714286</ele><time>2026-04-11T17:22:55Z</time></trkpt><trkpt lat="43.08486028329258" lon="11.551149765727242"><ele>248.2857142857143</ele><time>2026-04-11T17:22:56Z</time></trkpt><trkpt lat="43.08479905979307" lon="11.551210590844397"><ele>248.0</ele><time>2026-04-11T17:22:57Z</time></trkpt><trkpt lat="43.08475763821666" lon="11.551297139751084"><ele>247.71428571428572</ele><time>2026-04-11T17:22:58Z</time></trkpt><trkpt lat="43.08470363693085" lon="11.551359112021006"><ele>247.42857142857144</ele><time>2026-04-11T17:22:59Z</time></trkpt><trkpt lat="43.08465039968301" lon="11.551426520136825"><ele>247.14285714285717</ele><time>2026-04-11T17:23:00Z</time></trkpt><trkpt lat="43.0845896827789" lon="11.551477889479811"><ele>246.8571428571429</ele><time>2026-04-11T17:23:01Z</time></trkpt><trkpt lat="43.08454960975691" lon="11.55156583796777"><ele>246.57142857142858</ele><time>2026-04-11T17:23:02Z</time></trkpt><trkpt lat="43.08451007258721" lon="11.551638243133164"><ele>246.28571428571433</ele><time>2026-04-11T17:23:03Z</time></trkpt><trkpt lat="43.08446716232982" lon="11.551701854919376"><ele>246.00000000000003</ele><time>2026-04-11T17:23:03.999Z</time></trkpt><trkpt lat="43.08438127398542" lon="11.551802646856752"><ele>246.0</ele><time>2026-04-11T17:23:05.999Z</time></trkpt><trkpt lat="43.08431329116152" lon="11.551929156997668"><ele>246.00000000000003</ele><time>2026-04-11T17:23:07.999Z</time></trkpt><trkpt lat="43.08425490422193" lon="11.552039819810433"><ele>246.00000000000003</ele><time>2026-04-11T17:23:09.999Z</time></trkpt><trkpt lat="43.08419801110887" lon="11.55214344589842"><ele>246.0</ele><time>2026-04-11T17:23:11.999Z</time></trkpt><trkpt lat="43.08413044547467" lon="11.552240761623516"><ele>246.0</ele><time>2026-04-11T17:23:13.999Z</time></trkpt><trkpt lat="43.08407928237141" lon="11.552348311070682"><ele>245.4</ele><time>2026-04-11T17:23:15.999Z</time></trkpt><trkpt lat="43.08402424257119" lon="11.552465465254542"><ele>244.8</ele><time>2026-04-11T17:23:17.999Z</time></trkpt><trkpt lat="43.08397086520311" lon="11.552599298034709"><ele>244.20000000000002</ele><time>2026-04-11T17:23:19.999Z</time></trkpt><trkpt lat="43.083934091172466" lon="11.552747362977687"><ele>243.60000000000002</ele><time>2026-04-11T17:23:22Z</time></trkpt><trkpt lat="43.08389379594886" lon="11.552899181103546"><ele>243.0</ele><time>2026-04-11T17:23:24Z</time></trkpt><trkpt lat="43.0838459528308" lon="11.553043941223013"><ele>243.0</ele><time>2026-04-11T17:23:26Z</time></trkpt><trkpt lat="43.08381820828727" lon="11.55318768075467"><ele>243.0</ele><time>2026-04-11T17:23:28Z</time></trkpt><trkpt lat="43.08379533549378" lon="11.55332006901539"><ele>243.0</ele><time>2026-04-11T17:23:30Z</time></trkpt><trkpt lat="43.08377616783698" lon="11.553432236718308"><ele>243.0</ele><time>2026-04-11T17:23:32Z</time></trkpt><trkpt lat="43.08377152913328" lon="11.553528313182568"><ele>243.0</ele><time>2026-04-11T17:23:34Z</time></trkpt><trkpt lat="43.0837544343144" lon="11.55364699059841"><ele>243.5</ele><time>2026-04-11T17:23:37Z</time></trkpt><trkpt lat="43.083734242847434" lon="11.553772358230761"><ele>244.0</ele><time>2026-04-11T17:23:40Z</time></trkpt><trkpt lat="43.08372524915144" lon="11.553866886251337"><ele>244.5</ele><time>2026-04-11T17:23:42Z</time></trkpt><trkpt lat="43.08370675713154" lon="11.553990332162142"><ele>245.0</ele><time>2026-04-11T17:23:45Z</time></trkpt><trkpt lat="43.08368064642316" lon="11.554110517934003"><ele>245.5</ele><time>2026-04-11T17:23:48Z</time></trkpt><trkpt lat="43.08365829503856" lon="11.554223325872188"><ele>246.0</ele><time>2026-04-11T17:23:51Z</time></trkpt><trkpt lat="43.083642068244664" lon="11.554343790540745"><ele>246.0</ele><time>2026-04-11T17:23:54Z</time></trkpt><trkpt lat="43.083622952083694" lon="11.554453395555397"><ele>246.0</ele><time>2026-04-11T17:23:57Z</time></trkpt><trkpt lat="43.083605535456414" lon="11.554555224040103"><ele>246.0</ele><time>2026-04-11T17:24:00Z</time></trkpt><trkpt lat="43.08359298413986" lon="11.554664416053877"><ele>246.0</ele><time>2026-04-11T17:24:03Z</time></trkpt><trkpt lat="43.08358186096332" lon="11.554760403237738"><ele>246.0</ele><time>2026-04-11T17:24:06Z</time></trkpt><trkpt lat="43.08356630950827" lon="11.554852309455315"><ele>246.0</ele><time>2026-04-11T17:24:09Z</time></trkpt><trkpt lat="43.083540037864815" lon="11.55494981799212"><ele>246.71428571428575</ele><time>2026-04-11T17:24:12Z</time></trkpt><trkpt lat="43.083527640299266" lon="11.555047848828869"><ele>247.42857142857144</ele><time>2026-04-11T17:24:15Z</time></trkpt><trkpt lat="43.08351599311406" lon="11.55514477433733"><ele>248.14285714285714</ele><time>2026-04-11T17:24:18Z</time></trkpt><trkpt lat="43.08350349979374" lon="11.555257929357657"><ele>248.85714285714286</ele><time>2026-04-11T17:24:22Z</time></trkpt><trkpt lat="43.08348774664972" lon="11.555341765119953"><ele>249.57142857142856</ele><time>2026-04-11T17:24:25Z</time></trkpt><trkpt lat="43.083476451098036" lon="11.555451051789106"><ele>250.28571428571425</ele><time>2026-04-11T17:24:29Z</time></trkpt><trkpt lat="43.08347026499499" lon="11.555551206377858"><ele>250.99999999999997</ele><time>2026-04-11T17:24:33Z</time></trkpt><trkpt lat="43.08345788387865" lon="11.555660873643056"><ele>251.57142857142856</ele><time>2026-04-11T17:24:37Z</time></trkpt><trkpt lat="43.08344904221276" lon="11.555766911610794"><ele>252.14285714285714</ele><time>2026-04-11T17:24:41Z</time></trkpt><trkpt lat="43.083455620201995" lon="11.555868432660796"><ele>252.71428571428572</ele><time>2026-04-11T17:24:45Z</time></trkpt><trkpt lat="43.08347591550686" lon="11.555965537675425"><ele>253.28571428571428</ele><time>2026-04-11T17:24:49Z</time></trkpt><trkpt lat="43.08350126467624" lon="11.556045725758647"><ele>253.8571428571429</ele><time>2026-04-11T17:24:53Z</time></trkpt><trkpt lat="43.08354764716986" lon="11.556131709650135"><ele>254.42857142857144</ele><time>2026-04-11T17:24:57Z</time></trkpt><trkpt lat="43.08360764921616" lon="11.556179443788524"><ele>255.0</ele><time>2026-04-11T17:25:01Z</time></trkpt><trkpt lat="43.08366252951455" lon="11.556223239326844"><ele>255.0</ele><time>2026-04-11T17:25:04Z</time></trkpt><trkpt lat="43.08372974904356" lon="11.55624452036009"><ele>255.0</ele><time>2026-04-11T17:25:06.999Z</time></trkpt><trkpt lat="43.08380794624799" lon="11.556280957139547"><ele>255.0</ele><time>2026-04-11T17:25:09.999Z</time></trkpt><trkpt lat="43.08388993967641" lon="11.556312023676627"><ele>255.0</ele><time>2026-04-11T17:25:12.999Z</time></trkpt><trkpt lat="43.08396258542829" lon="11.556335809542498"><ele>255.0</ele><time>2026-04-11T17:25:15.999Z</time></trkpt><trkpt lat="43.08402952107732" lon="11.556370739866132"><ele>255.0</ele><time>2026-04-11T17:25:18.999Z</time></trkpt><trkpt lat="43.084100779220144" lon="11.556414263316547"><ele>256.42857142857144</ele><time>2026-04-11T17:25:21.999Z</time></trkpt><trkpt lat="43.084166348861295" lon="11.55646466199982"><ele>257.8571428571429</ele><time>2026-04-11T17:25:24.999Z</time></trkpt><trkpt lat="43.084222196535116" lon="11.556524377081507"><ele>259.2857142857143</ele><time>2026-04-11T17:25:28Z</time></trkpt><trkpt lat="43.08427779525485" lon="11.556588506309893"><ele>260.7142857142857</ele><time>2026-04-11T17:25:31Z</time></trkpt><trkpt lat="43.08433417633373" lon="11.55664502818837"><ele>262.1428571428571</ele><time>2026-04-11T17:25:34Z</time></trkpt><trkpt lat="43.084389521216906" lon="11.556718672960915"><ele>263.57142857142856</ele><time>2026-04-11T17:25:37Z</time></trkpt><trkpt lat="43.084434125107435" lon="11.556797422156778"><ele>265.0</ele><time>2026-04-11T17:25:40Z</time></trkpt><trkpt lat="43.08447403928192" lon="11.556874574759902"><ele>265.0</ele><time>2026-04-11T17:25:43Z</time></trkpt><trkpt lat="43.08450431375604" lon="11.556960297754667"><ele>265.0</ele><time>2026-04-11T17:25:46Z</time></trkpt><trkpt lat="43.08451847239194" lon="11.557060283311948"><ele>265.0</ele><time>2026-04-11T17:25:49Z</time></trkpt><trkpt lat="43.08453439656497" lon="11.557149904128485"><ele>265.0</ele><time>2026-04-11T17:25:52Z</time></trkpt><trkpt lat="43.084543053279766" lon="11.557255905446015"><ele>265.0</ele><time>2026-04-11T17:25:56Z</time></trkpt><trkpt lat="43.08456134536968" lon="11.5573597452032"><ele>265.0</ele><time>2026-04-11T17:26:00Z</time></trkpt><trkpt lat="43.08457030017903" lon="11.557471951599974"><ele>266.3333333333333</ele><time>2026-04-11T17:26:04Z</time></trkpt><trkpt lat="43.08456720557901" lon="11.557583477128354"><ele>267.66666666666663</ele><time>2026-04-11T17:26:08Z</time></trkpt><trkpt lat="43.084562419001365" lon="11.557694766211663"><ele>269.0</ele><time>2026-04-11T17:26:12Z</time></trkpt><trkpt lat="43.084544926051755" lon="11.557803496531596"><ele>270.3333333333333</ele><time>2026-04-11T17:26:16Z</time></trkpt><trkpt lat="43.08452639700618" lon="11.557906312158876"><ele>271.6666666666667</ele><time>2026-04-11T17:26:20Z</time></trkpt><trkpt lat="43.0845022511236" lon="11.557991803672781"><ele>273.0</ele><time>2026-04-11T17:26:24Z</time></trkpt><trkpt lat="43.08448218058811" lon="11.558088571181818"><ele>273.7142857142857</ele><time>2026-04-11T17:26:28Z</time></trkpt><trkpt lat="43.0844585037475" lon="11.558178425340792"><ele>274.42857142857144</ele><time>2026-04-11T17:26:32Z</time></trkpt><trkpt lat="43.08443908671267" lon="11.55826578559538"><ele>275.1428571428571</ele><time>2026-04-11T17:26:36Z</time></trkpt><trkpt lat="43.0844086536422" lon="11.558359533110794"><ele>275.8571428571429</ele><time>2026-04-11T17:26:40Z</time></trkpt><trkpt lat="43.084381468307654" lon="11.558446364847418"><ele>276.57142857142856</ele><time>2026-04-11T17:26:44Z</time></trkpt><trkpt lat="43.08435753281283" lon="11.558538432918402"><ele>277.2857142857143</ele><time>2026-04-11T17:26:48Z</time></trkpt><trkpt lat="43.08434106077851" lon="11.558644969261588"><ele>278.0</ele><time>2026-04-11T17:26:52Z</time></trkpt><trkpt lat="43.08434645201449" lon="11.558733803182095"><ele>278.42857142857144</ele><time>2026-04-11T17:26:55Z</time></trkpt><trkpt lat="43.0843528128132" lon="11.558836573323623"><ele>278.8571428571429</ele><time>2026-04-11T17:26:58Z</time></trkpt><trkpt lat="43.08435685246203" lon="11.558933872296096"><ele>279.28571428571433</ele><time>2026-04-11T17:27:01Z</time></trkpt><trkpt lat="43.08436470114227" lon="11.559024517529581"><ele>279.7142857142857</ele><time>2026-04-11T17:27:04Z</time></trkpt><trkpt lat="43.08440477055727" lon="11.559121504091792"><ele>280.14285714285717</ele><time>2026-04-11T17:27:07.999Z</time></trkpt><trkpt lat="43.08445562548119" lon="11.559191483183794"><ele>280.5714285714286</ele><time>2026-04-11T17:27:10.999Z</time></trkpt><trkpt lat="43.08451238425547" lon="11.559238608685419"><ele>281.0</ele><time>2026-04-11T17:27:13.999Z</time></trkpt><trkpt lat="43.08458454233483" lon="11.55925447627084"><ele>281.00000000000006</ele><time>2026-04-11T17:27:16.999Z</time></trkpt><trkpt lat="43.084660468429675" lon="11.559270712528948"><ele>281.0</ele><time>2026-04-11T17:27:19.999Z</time></trkpt><trkpt lat="43.084732379118975" lon="11.559301657946946"><ele>281.0</ele><time>2026-04-11T17:27:22.999Z</time></trkpt><trkpt lat="43.084787847316896" lon="11.559362425064299"><ele>281.0</ele><time>2026-04-11T17:27:25.999Z</time></trkpt><trkpt lat="43.084822222840785" lon="11.559436215741808"><ele>281.0</ele><time>2026-04-11T17:27:28.999Z</time></trkpt><trkpt lat="43.0848393174737" lon="11.559539810996988"><ele>281.00000000000006</ele><time>2026-04-11T17:27:32.999Z</time></trkpt><trkpt lat="43.084816272085604" lon="11.559643073368951"><ele>281.0</ele><time>2026-04-11T17:27:37Z</time></trkpt><trkpt lat="43.08479483097766" lon="11.55974436238538"><ele>281.00000000000006</ele><time>2026-04-11T17:27:41Z</time></trkpt><trkpt lat="43.08477987752247" lon="11.55984937272236"><ele>281.0</ele><time>2026-04-11T17:27:45Z</time></trkpt><trkpt lat="43.08476346882232" lon="11.559956276930553"><ele>281.0</ele><time>2026-04-11T17:27:49Z</time></trkpt><trkpt lat="43.08480204665585" lon="11.560051206218148"><ele>281.0</ele><time>2026-04-11T17:27:53Z</time></trkpt><trkpt lat="43.084850632015836" lon="11.560124150708095"><ele>281.0</ele><time>2026-04-11T17:27:56Z</time></trkpt><trkpt lat="43.08490159289066" lon="11.560187485897945"><ele>281.00000000000006</ele><time>2026-04-11T17:27:59Z</time></trkpt><trkpt lat="43.08495110649574" lon="11.560243615945188"><ele>281.0</ele><time>2026-04-11T17:28:02Z</time></trkpt><trkpt lat="43.08501421767983" lon="11.560317728820467"><ele>282.42857142857144</ele><time>2026-04-11T17:28:05Z</time></trkpt><trkpt lat="43.08507073093614" lon="11.560383972861766"><ele>283.8571428571429</ele><time>2026-04-11T17:28:08Z</time></trkpt><trkpt lat="43.085105309480824" lon="11.56046180900614"><ele>285.2857142857143</ele><time>2026-04-11T17:28:11Z</time></trkpt><trkpt lat="43.08511862839806" lon="11.560555042226408"><ele>286.7142857142857</ele><time>2026-04-11T17:28:14Z</time></trkpt><trkpt lat="43.08511665155198" lon="11.560647816620776"><ele>288.1428571428571</ele><time>2026-04-11T17:28:17Z</time></trkpt><trkpt lat="43.08509848027635" lon="11.560745478433539"><ele>289.57142857142856</ele><time>2026-04-11T17:28:21Z</time></trkpt><trkpt lat="43.08503703711707" lon="11.560811805920952"><ele>291.0</ele><time>2026-04-11T17:28:24Z</time></trkpt><trkpt lat="43.08498970155145" lon="11.560872037712837"><ele>291.2857142857143</ele><time>2026-04-11T17:28:27Z</time></trkpt><trkpt lat="43.08491984698819" lon="11.560919308571778"><ele>291.57142857142856</ele><time>2026-04-11T17:28:31Z</time></trkpt><trkpt lat="43.08485601079063" lon="11.560977871129207"><ele>291.85714285714283</ele><time>2026-04-11T17:28:35Z</time></trkpt><trkpt lat="43.084815597562205" lon="11.561055017709725"><ele>292.1428571428571</ele><time>2026-04-11T17:28:39Z</time></trkpt><trkpt lat="43.08478769680155" lon="11.561141902411043"><ele>292.42857142857144</ele><time>2026-04-11T17:28:43Z</time></trkpt><trkpt lat="43.08478601185326" lon="11.561234463299101"><ele>292.71428571428567</ele><time>2026-04-11T17:28:47Z</time></trkpt><trkpt lat="43.084810070922956" lon="11.561326988295447"><ele>293.0</ele><time>2026-04-11T17:28:50Z</time></trkpt><trkpt lat="43.084838362007225" lon="11.561406220982562"><ele>293.71428571428567</ele><time>2026-04-11T17:28:53Z</time></trkpt><trkpt lat="43.08486805925027" lon="11.561510429701062"><ele>294.42857142857144</ele><time>2026-04-11T17:28:57Z</time></trkpt><trkpt lat="43.084899915093395" lon="11.561606381531673"><ele>295.1428571428571</ele><time>2026-04-11T17:29:01Z</time></trkpt><trkpt lat="43.084937628984676" lon="11.56170822680652"><ele>295.85714285714283</ele><time>2026-04-11T17:29:05Z</time></trkpt><trkpt lat="43.08496481801727" lon="11.56178928605448"><ele>296.57142857142856</ele><time>2026-04-11T17:29:08Z</time></trkpt><trkpt lat="43.08499757374021" lon="11.561872827507571"><ele>297.2857142857143</ele><time>2026-04-11T17:29:11Z</time></trkpt><trkpt lat="43.08502893720785" lon="11.561949350338177"><ele>298.0</ele><time>2026-04-11T17:29:13.999Z</time></trkpt><trkpt lat="43.08505883442566" lon="11.562033521320336"><ele>298.42857142857144</ele><time>2026-04-11T17:29:16.999Z</time></trkpt><trkpt lat="43.08508242965475" lon="11.562116569468705"><ele>298.85714285714283</ele><time>2026-04-11T17:29:19.999Z</time></trkpt><trkpt lat="43.085104902076196" lon="11.562205961325551"><ele>299.2857142857143</ele><time>2026-04-11T17:29:22.999Z</time></trkpt><trkpt lat="43.08510893522613" lon="11.562295024897871"><ele>299.7142857142857</ele><time>2026-04-11T17:29:25.999Z</time></trkpt><trkpt lat="43.08510386293291" lon="11.562409244276962"><ele>300.1428571428571</ele><time>2026-04-11T17:29:29.999Z</time></trkpt><trkpt lat="43.08508668819248" lon="11.562495102687969"><ele>300.57142857142856</ele><time>2026-04-11T17:29:32.999Z</time></trkpt><trkpt lat="43.08504279136183" lon="11.562588109380805"><ele>301.0</ele><time>2026-04-11T17:29:36.999Z</time></trkpt><trkpt lat="43.08499217303081" lon="11.562669021400017"><ele>301.0</ele><time>2026-04-11T17:29:41Z</time></trkpt><trkpt lat="43.0849444435736" lon="11.562726126193093"><ele>301.0</ele><time>2026-04-11T17:29:44Z</time></trkpt><trkpt lat="43.084891312317545" lon="11.562779714408036"><ele>301.0</ele><time>2026-04-11T17:29:47Z</time></trkpt><trkpt lat="43.0848269351433" lon="11.562819311732747"><ele>301.0</ele><time>2026-04-11T17:29:50Z</time></trkpt><trkpt lat="43.08475849474861" lon="11.562834652872048"><ele>301.0</ele><time>2026-04-11T17:29:53Z</time></trkpt><trkpt lat="43.084693812153176" lon="11.56285190085354"><ele>301.0</ele><time>2026-04-11T17:29:56Z</time></trkpt><trkpt lat="43.08463076485667" lon="11.562854815225922"><ele>301.0</ele><time>2026-04-11T17:29:59Z</time></trkpt><trkpt lat="43.084563529579775" lon="11.562857071066803"><ele>301.0</ele><time>2026-04-11T17:30:02Z</time></trkpt><trkpt lat="43.08449872992419" lon="11.562858335223726"><ele>301.0</ele><time>2026-04-11T17:30:05Z</time></trkpt><trkpt lat="43.08443322635206" lon="11.56286059877368"><ele>301.0</ele><time>2026-04-11T17:30:08Z</time></trkpt><trkpt lat="43.08436588611912" lon="11.562865747685017"><ele>301.0</ele><time>2026-04-11T17:30:11Z</time></trkpt><trkpt lat="43.084291711843385" lon="11.562867772813501"><ele>301.0</ele><time>2026-04-11T17:30:14Z</time></trkpt><trkpt lat="43.084216753235964" lon="11.562877269517278"><ele>301.0</ele><time>2026-04-11T17:30:17Z</time></trkpt><trkpt lat="43.08414157495632" lon="11.562891636945773"><ele>301.0</ele><time>2026-04-11T17:30:20Z</time></trkpt><trkpt lat="43.084069331346264" lon="11.562910847163188"><ele>301.0</ele><time>2026-04-11T17:30:23Z</time></trkpt><trkpt lat="43.083993784706145" lon="11.562938418128947"><ele>301.0</ele><time>2026-04-11T17:30:26Z</time></trkpt><trkpt lat="43.08393030453863" lon="11.562962606584131"><ele>301.0</ele><time>2026-04-11T17:30:29Z</time></trkpt><trkpt lat="43.0838459163748" lon="11.562999502513202"><ele>301.0</ele><time>2026-04-11T17:30:32Z</time></trkpt><trkpt lat="43.08378509313474" lon="11.563029938422439"><ele>301.0</ele><time>2026-04-11T17:30:34Z</time></trkpt><trkpt lat="43.083732227812796" lon="11.563085716317648"><ele>301.0</ele><time>2026-04-11T17:30:36Z</time></trkpt><trkpt lat="43.083678482724885" lon="11.563152350378777"><ele>301.0</ele><time>2026-04-11T17:30:38Z</time></trkpt><trkpt lat="43.083624638004586" lon="11.56322879222921"><ele>301.0</ele><time>2026-04-11T17:30:40Z</time></trkpt><trkpt lat="43.083565441810514" lon="11.563302709977101"><ele>301.0</ele><time>2026-04-11T17:30:42Z</time></trkpt><trkpt lat="43.08351271358229" lon="11.563386780336328"><ele>301.0</ele><time>2026-04-11T17:30:44Z</time></trkpt><trkpt lat="43.08346168213434" lon="11.563485126778174"><ele>301.0</ele><time>2026-04-11T17:30:46Z</time></trkpt><trkpt lat="43.083407795818104" lon="11.563585300983375"><ele>301.0</ele><time>2026-04-11T17:30:48Z</time></trkpt><trkpt lat="43.083350781946685" lon="11.563683911286681"><ele>301.0</ele><time>2026-04-11T17:30:50Z</time></trkpt><trkpt lat="43.08329732598442" lon="11.56378092020014"><ele>301.0</ele><time>2026-04-11T17:30:52Z</time></trkpt><trkpt lat="43.083247957939875" lon="11.563865248135919"><ele>301.0</ele><time>2026-04-11T17:30:54Z</time></trkpt><trkpt lat="43.08320372311317" lon="11.563960165989453"><ele>301.0</ele><time>2026-04-11T17:30:56Z</time></trkpt><trkpt lat="43.083164274669365" lon="11.564056935943047"><ele>301.0</ele><time>2026-04-11T17:30:58Z</time></trkpt><trkpt lat="43.08312478381535" lon="11.564149116305389"><ele>301.0</ele><time>2026-04-11T17:31:00Z</time></trkpt><trkpt lat="43.0830910025707" lon="11.564235680199527"><ele>301.0</ele><time>2026-04-11T17:31:02Z</time></trkpt><trkpt lat="43.0830629699053" lon="11.564313018339444"><ele>301.0</ele><time>2026-04-11T17:31:04Z</time></trkpt><trkpt lat="43.08302559935361" lon="11.564421799108818"><ele>301.0</ele><time>2026-04-11T17:31:07Z</time></trkpt><trkpt lat="43.082990261644454" lon="11.564532682774104"><ele>301.0</ele><time>2026-04-11T17:31:10Z</time></trkpt><trkpt lat="43.082955728147205" lon="11.564627054407081"><ele>301.0</ele><time>2026-04-11T17:31:13Z</time></trkpt><trkpt lat="43.08292648208539" lon="11.56471129027818"><ele>301.0</ele><time>2026-04-11T17:31:16Z</time></trkpt><trkpt lat="43.08289815380102" lon="11.564802779221257"><ele>301.0</ele><time>2026-04-11T17:31:19Z</time></trkpt><trkpt lat="43.082863182025115" lon="11.564880831706242"><ele>301.85714285714283</ele><time>2026-04-11T17:31:22Z</time></trkpt><trkpt lat="43.08283082720889" lon="11.564960105176532"><ele>302.7142857142857</ele><time>2026-04-11T17:31:25Z</time></trkpt><trkpt lat="43.08279764497287" lon="11.565044228766592"><ele>303.57142857142856</ele><time>2026-04-11T17:31:27.999Z</time></trkpt><trkpt lat="43.08277263409014" lon="11.56512634734603"><ele>304.42857142857144</ele><time>2026-04-11T17:31:30.999Z</time></trkpt><trkpt lat="43.0827280454183" lon="11.565224138663122"><ele>305.2857142857143</ele><time>2026-04-11T17:31:34.999Z</time></trkpt><trkpt lat="43.08268334520888" lon="11.56531780418021"><ele>306.1428571428571</ele><time>2026-04-11T17:31:38.999Z</time></trkpt><trkpt lat="43.08264007408948" lon="11.565403949127138"><ele>307.0</ele><time>2026-04-11T17:31:42.999Z</time></trkpt><trkpt lat="43.082593298807254" lon="11.565489361819088"><ele>307.1428571428571</ele><time>2026-04-11T17:31:47Z</time></trkpt><trkpt lat="43.08253177619521" lon="11.565570277601154"><ele>307.2857142857143</ele><time>2026-04-11T17:31:51Z</time></trkpt><trkpt lat="43.08247859771765" lon="11.565636647537964"><ele>307.42857142857144</ele><time>2026-04-11T17:31:54Z</time></trkpt><trkpt lat="43.08243036409886" lon="11.565710740811214"><ele>307.57142857142856</ele><time>2026-04-11T17:31:57Z</time></trkpt><trkpt lat="43.08238421928699" lon="11.56579353058724"><ele>307.7142857142857</ele><time>2026-04-11T17:32:00Z</time></trkpt><trkpt lat="43.0823348149795" lon="11.565864648204562"><ele>307.85714285714283</ele><time>2026-04-11T17:32:03Z</time></trkpt><trkpt lat="43.08228831650762" lon="11.56593934357058"><ele>308.0</ele><time>2026-04-11T17:32:06Z</time></trkpt><trkpt lat="43.08224346696754" lon="11.566014979555364"><ele>308.0</ele><time>2026-04-11T17:32:09Z</time></trkpt><trkpt lat="43.08219999063794" lon="11.566092246301361"><ele>308.0</ele><time>2026-04-11T17:32:12Z</time></trkpt><trkpt lat="43.08215524042094" lon="11.566163861250185"><ele>308.0</ele><time>2026-04-11T17:32:15Z</time></trkpt><trkpt lat="43.0821015603805" lon="11.566225794666028"><ele>308.0</ele><time>2026-04-11T17:32:18Z</time></trkpt><trkpt lat="43.08205857221368" lon="11.566299029073642"><ele>308.0</ele><time>2026-04-11T17:32:21Z</time></trkpt><trkpt lat="43.08201099414298" lon="11.566373588669595"><ele>308.0</ele><time>2026-04-11T17:32:24Z</time></trkpt><trkpt lat="43.081965544236134" lon="11.566444447280501"><ele>308.0</ele><time>2026-04-11T17:32:27Z</time></trkpt><trkpt lat="43.08192521451541" lon="11.566521528290535"><ele>309.57142857142856</ele><time>2026-04-11T17:32:30Z</time></trkpt><trkpt lat="43.08187848809271" lon="11.566590898456822"><ele>311.1428571428571</ele><time>2026-04-11T17:32:33Z</time></trkpt><trkpt lat="43.081835326414264" lon="11.566663490551464"><ele>312.7142857142857</ele><time>2026-04-11T17:32:36Z</time></trkpt><trkpt lat="43.08179574850244" lon="11.56673618140281"><ele>314.2857142857143</ele><time>2026-04-11T17:32:39Z</time></trkpt><trkpt lat="43.08176407239293" lon="11.56681949434944"><ele>315.85714285714283</ele><time>2026-04-11T17:32:42Z</time></trkpt><trkpt lat="43.08173321575065" lon="11.566909769266479"><ele>317.42857142857144</ele><time>2026-04-11T17:32:45Z</time></trkpt><trkpt lat="43.081703391347" lon="11.567000181572709"><ele>319.0</ele><time>2026-04-11T17:32:48Z</time></trkpt><trkpt lat="43.08167687079435" lon="11.567094910663943"><ele>320.2857142857143</ele><time>2026-04-11T17:32:51Z</time></trkpt><trkpt lat="43.0816459402723" lon="11.567182028200174"><ele>321.57142857142856</ele><time>2026-04-11T17:32:54Z</time></trkpt><trkpt lat="43.08163107472447" lon="11.567283990673317"><ele>322.85714285714283</ele><time>2026-04-11T17:32:57Z</time></trkpt><trkpt lat="43.081608182057586" lon="11.567394273144386"><ele>324.1428571428571</ele><time>2026-04-11T17:33:00Z</time></trkpt><trkpt lat="43.081591751402385" lon="11.56749276912354"><ele>325.42857142857144</ele><time>2026-04-11T17:33:03Z</time></trkpt><trkpt lat="43.08158074675706" lon="11.567587994048075"><ele>326.71428571428567</ele><time>2026-04-11T17:33:06Z</time></trkpt><trkpt lat="43.081572047432736" lon="11.567688833139442"><ele>328.0</ele><time>2026-04-11T17:33:09Z</time></trkpt><trkpt lat="43.08156877366759" lon="11.567799823807189"><ele>325.4285714285714</ele><time>2026-04-11T17:33:12Z</time></trkpt><trkpt lat="43.08155680605915" lon="11.567921570635471"><ele>322.85714285714283</ele><time>2026-04-11T17:33:15Z</time></trkpt><trkpt lat="43.08155052520399" lon="11.56800859463149"><ele>320.2857142857143</ele><time>2026-04-11T17:33:17Z</time></trkpt><trkpt lat="43.081540726906205" lon="11.568097611375627"><ele>317.71428571428567</ele><time>2026-04-11T17:33:19Z</time></trkpt><trkpt lat="43.08153298948633" lon="11.568186393928801"><ele>315.1428571428571</ele><time>2026-04-11T17:33:21Z</time></trkpt><trkpt lat="43.08152343273829" lon="11.568277644729225"><ele>312.57142857142856</ele><time>2026-04-11T17:33:23Z</time></trkpt><trkpt lat="43.08151476763013" lon="11.568372138555722"><ele>310.0</ele><time>2026-04-11T17:33:25Z</time></trkpt><trkpt lat="43.08150165611982" lon="11.568465119515452"><ele>310.0</ele><time>2026-04-11T17:33:27Z</time></trkpt><trkpt lat="43.0814849535108" lon="11.568557669468902"><ele>310.0</ele><time>2026-04-11T17:33:29Z</time></trkpt><trkpt lat="43.081468582855564" lon="11.568650729940293"><ele>310.0</ele><time>2026-04-11T17:33:31Z</time></trkpt><trkpt lat="43.08144910566129" lon="11.568750413754818"><ele>310.0</ele><time>2026-04-11T17:33:33Z</time></trkpt><trkpt lat="43.08142488489871" lon="11.56885082052051"><ele>310.0</ele><time>2026-04-11T17:33:35Z</time></trkpt><trkpt lat="43.08139507499433" lon="11.568944959175667"><ele>310.0</ele><time>2026-04-11T17:33:37Z</time></trkpt><trkpt lat="43.08135745288742" lon="11.569033508652957"><ele>310.0</ele><time>2026-04-11T17:33:39Z</time></trkpt><trkpt lat="43.08132888655395" lon="11.569120083754878"><ele>311.57142857142856</ele><time>2026-04-11T17:33:40.999Z</time></trkpt><trkpt lat="43.08129446814502" lon="11.56921210045106"><ele>313.1428571428571</ele><time>2026-04-11T17:33:42.999Z</time></trkpt><trkpt lat="43.08126210221603" lon="11.569299813360523"><ele>314.71428571428567</ele><time>2026-04-11T17:33:44.999Z</time></trkpt><trkpt lat="43.081227518841715" lon="11.569386530010112"><ele>316.2857142857143</ele><time>2026-04-11T17:33:46.999Z</time></trkpt><trkpt lat="43.08119483335324" lon="11.569477945493338"><ele>317.85714285714283</ele><time>2026-04-11T17:33:48.999Z</time></trkpt><trkpt lat="43.08115974357962" lon="11.569568362332673"><ele>319.4285714285714</ele><time>2026-04-11T17:33:50.999Z</time></trkpt><trkpt lat="43.08112721364577" lon="11.569649859464553"><ele>321.0</ele><time>2026-04-11T17:33:53Z</time></trkpt><trkpt lat="43.08109742862001" lon="11.569736348294196"><ele>321.99999999999994</ele><time>2026-04-11T17:33:55Z</time></trkpt><trkpt lat="43.08106971445019" lon="11.569824831548301"><ele>323.0</ele><time>2026-04-11T17:33:57Z</time></trkpt><trkpt lat="43.08103182731973" lon="11.569911014532583"><ele>324.0</ele><time>2026-04-11T17:33:59Z</time></trkpt><trkpt lat="43.08098978988306" lon="11.569988453031696"><ele>325.0</ele><time>2026-04-11T17:34:01Z</time></trkpt><trkpt lat="43.08094394801626" lon="11.57006467501038"><ele>326.0</ele><time>2026-04-11T17:34:03Z</time></trkpt><trkpt lat="43.08089124506243" lon="11.570132701489742"><ele>326.99999999999994</ele><time>2026-04-11T17:34:05Z</time></trkpt><trkpt lat="43.080823922951694" lon="11.5701932972546"><ele>328.0</ele><time>2026-04-11T17:34:07Z</time></trkpt><trkpt lat="43.08074816496186" lon="11.570242391093355"><ele>328.0</ele><time>2026-04-11T17:34:09Z</time></trkpt><trkpt lat="43.08066643719181" lon="11.570288081508531"><ele>328.0</ele><time>2026-04-11T17:34:11Z</time></trkpt><trkpt lat="43.08058386445401" lon="11.570319830509195"><ele>328.0</ele><time>2026-04-11T17:34:13Z</time></trkpt><trkpt lat="43.0805003202266" lon="11.570315356534023"><ele>328.0</ele><time>2026-04-11T17:34:15Z</time></trkpt><trkpt lat="43.080413943583494" lon="11.570299899761341"><ele>328.0</ele><time>2026-04-11T17:34:17Z</time></trkpt><trkpt lat="43.080324165387005" lon="11.570275860674977"><ele>328.0</ele><time>2026-04-11T17:34:19Z</time></trkpt><trkpt lat="43.080232992983284" lon="11.570257342496403"><ele>328.0</ele><time>2026-04-11T17:34:21Z</time></trkpt><trkpt lat="43.08014031458312" lon="11.570235553692394"><ele>328.0</ele><time>2026-04-11T17:34:23Z</time></trkpt><trkpt lat="43.08004285908367" lon="11.570200897357786"><ele>328.0</ele><time>2026-04-11T17:34:25Z</time></trkpt><trkpt lat="43.079945759528" lon="11.570179988596122"><ele>328.0</ele><time>2026-04-11T17:34:27Z</time></trkpt><trkpt lat="43.07984697101518" lon="11.570149942969465"><ele>328.0</ele><time>2026-04-11T17:34:29Z</time></trkpt><trkpt lat="43.07975302633418" lon="11.570128700163174"><ele>328.59999999999997</ele><time>2026-04-11T17:34:31Z</time></trkpt><trkpt lat="43.07966156611276" lon="11.570106083099507"><ele>329.2</ele><time>2026-04-11T17:34:33Z</time></trkpt><trkpt lat="43.07957137108175" lon="11.570082277973741"><ele>329.8</ele><time>2026-04-11T17:34:35Z</time></trkpt><trkpt lat="43.079479255937045" lon="11.570053129531523"><ele>330.4</ele><time>2026-04-11T17:34:37Z</time></trkpt><trkpt lat="43.07938776331766" lon="11.570017596786272"><ele>331.0</ele><time>2026-04-11T17:34:39Z</time></trkpt><trkpt lat="43.0792920894342" lon="11.569996444763655"><ele>331.0</ele><time>2026-04-11T17:34:41Z</time></trkpt><trkpt lat="43.079192587958715" lon="11.569968508952321"><ele>331.0</ele><time>2026-04-11T17:34:43Z</time></trkpt><trkpt lat="43.07909422204809" lon="11.569937376566875"><ele>331.0</ele><time>2026-04-11T17:34:45Z</time></trkpt><trkpt lat="43.07899662531379" lon="11.569914937291102"><ele>331.0</ele><time>2026-04-11T17:34:47Z</time></trkpt><trkpt lat="43.07889691192261" lon="11.569890796036997"><ele>331.0</ele><time>2026-04-11T17:34:49Z</time></trkpt><trkpt lat="43.07879435199272" lon="11.569887130004792"><ele>331.20000000000005</ele><time>2026-04-11T17:34:51Z</time></trkpt><trkpt lat="43.0786968772641" lon="11.569894324521298"><ele>331.40000000000003</ele><time>2026-04-11T17:34:53Z</time></trkpt><trkpt lat="43.07859745046796" lon="11.569915736529095"><ele>331.6</ele><time>2026-04-11T17:34:55Z</time></trkpt><trkpt lat="43.078496374767724" lon="11.569971449656078"><ele>331.8</ele><time>2026-04-11T17:34:57Z</time></trkpt><trkpt lat="43.07838204108114" lon="11.570025512706586"><ele>332.0</ele><time>2026-04-11T17:34:59Z</time></trkpt><trkpt lat="43.07832303037609" lon="11.570057325695858"><ele>331.85714285714283</ele><time>2026-04-11T17:35:00Z</time></trkpt><trkpt lat="43.078261023713864" lon="11.570088286030893"><ele>331.7142857142857</ele><time>2026-04-11T17:35:01Z</time></trkpt><trkpt lat="43.078197798258486" lon="11.57012736852301"><ele>331.57142857142856</ele><time>2026-04-11T17:35:02Z</time></trkpt><trkpt lat="43.07813302695152" lon="11.57017167410666"><ele>331.42857142857144</ele><time>2026-04-11T17:35:03Z</time></trkpt><trkpt lat="43.078064874312226" lon="11.570216040705615"><ele>331.2857142857143</ele><time>2026-04-11T17:35:04Z</time></trkpt><trkpt lat="43.07799370069995" lon="11.570255848963718"><ele>331.14285714285717</ele><time>2026-04-11T17:35:05Z</time></trkpt><trkpt lat="43.077920353423686" lon="11.570298765427692"><ele>331.0</ele><time>2026-04-11T17:35:06Z</time></trkpt><trkpt lat="43.07784419215213" lon="11.570343168792014"><ele>328.8333333333333</ele><time>2026-04-11T17:35:07Z</time></trkpt><trkpt lat="43.07776507560067" lon="11.570386475268746"><ele>326.66666666666663</ele><time>2026-04-11T17:35:08Z</time></trkpt><trkpt lat="43.0776871065897" lon="11.57043358480594"><ele>324.5</ele><time>2026-04-11T17:35:09Z</time></trkpt><trkpt lat="43.0776062325245" lon="11.57048300539073"><ele>322.3333333333333</ele><time>2026-04-11T17:35:10Z</time></trkpt><trkpt lat="43.07752370017607" lon="11.5705322326609"><ele>320.1666666666667</ele><time>2026-04-11T17:35:11Z</time></trkpt><trkpt lat="43.07743928875253" lon="11.570581994179012"><ele>318.0</ele><time>2026-04-11T17:35:12Z</time></trkpt><trkpt lat="43.07735553530217" lon="11.570640005506638"><ele>318.0</ele><time>2026-04-11T17:35:13Z</time></trkpt><trkpt lat="43.07727360259212" lon="11.570705829974928"><ele>318.0</ele><time>2026-04-11T17:35:14Z</time></trkpt><trkpt lat="43.077192594592944" lon="11.570776023076586"><ele>318.0</ele><time>2026-04-11T17:35:15Z</time></trkpt><trkpt lat="43.07711298666424" lon="11.570854669246286"><ele>318.0</ele><time>2026-04-11T17:35:16Z</time></trkpt><trkpt lat="43.07703577625582" lon="11.570937259585703"><ele>318.0</ele><time>2026-04-11T17:35:17Z</time></trkpt><trkpt lat="43.07696141695283" lon="11.57102858061843"><ele>318.0</ele><time>2026-04-11T17:35:18Z</time></trkpt><trkpt lat="43.07688952275574" lon="11.571123189272267"><ele>318.0</ele><time>2026-04-11T17:35:19Z</time></trkpt><trkpt lat="43.07681044236928" lon="11.57120163466607"><ele>318.0</ele><time>2026-04-11T17:35:20Z</time></trkpt><trkpt lat="43.07671237568123" lon="11.57124833156518"><ele>318.0</ele><time>2026-04-11T17:35:21Z</time></trkpt><trkpt lat="43.07660800200985" lon="11.571269998477481"><ele>318.0</ele><time>2026-04-11T17:35:22Z</time></trkpt><trkpt lat="43.07649899181046" lon="11.57126633656367"><ele>315.4</ele><time>2026-04-11T17:35:23Z</time></trkpt><trkpt lat="43.0763929693139" lon="11.571234921023068"><ele>312.8</ele><time>2026-04-11T17:35:24Z</time></trkpt><trkpt lat="43.07629267289258" lon="11.57118229606235"><ele>310.2</ele><time>2026-04-11T17:35:25Z</time></trkpt><trkpt lat="43.076212784453084" lon="11.571089391241136"><ele>307.6</ele><time>2026-04-11T17:35:26Z</time></trkpt><trkpt lat="43.076141646912816" lon="11.570984636384884"><ele>305.0</ele><time>2026-04-11T17:35:27Z</time></trkpt><trkpt lat="43.07606558375741" lon="11.570883457712508"><ele>305.0</ele><time>2026-04-11T17:35:28Z</time></trkpt><trkpt lat="43.075988836746525" lon="11.570797830542428"><ele>305.0</ele><time>2026-04-11T17:35:29Z</time></trkpt><trkpt lat="43.075911564787205" lon="11.570705892360156"><ele>305.0</ele><time>2026-04-11T17:35:30Z</time></trkpt><trkpt lat="43.07583255945914" lon="11.570618521809998"><ele>305.0</ele><time>2026-04-11T17:35:31Z</time></trkpt><trkpt lat="43.07576195625178" lon="11.57053634932338"><ele>305.0</ele><time>2026-04-11T17:35:32Z</time></trkpt><trkpt lat="43.07569415799162" lon="11.570457297347927"><ele>305.33333333333337</ele><time>2026-04-11T17:35:33Z</time></trkpt><trkpt lat="43.07562923573592" lon="11.570389811698854"><ele>305.6666666666667</ele><time>2026-04-11T17:35:34Z</time></trkpt><trkpt lat="43.07556334911073" lon="11.57033722847663"><ele>306.0</ele><time>2026-04-11T17:35:35Z</time></trkpt><trkpt lat="43.07548920109513" lon="11.570322549543093"><ele>306.3333333333333</ele><time>2026-04-11T17:35:36Z</time></trkpt><trkpt lat="43.075415204180146" lon="11.57034814140142"><ele>306.66666666666663</ele><time>2026-04-11T17:35:37Z</time></trkpt><trkpt lat="43.07534926687875" lon="11.570410673498069"><ele>307.0</ele><time>2026-04-11T17:35:38Z</time></trkpt><trkpt lat="43.07528891968083" lon="11.57047627123854"><ele>304.0</ele><time>2026-04-11T17:35:39Z</time></trkpt><trkpt lat="43.07527180945837" lon="11.57062783718547"><ele>301.0</ele><time>2026-04-11T17:35:40Z</time></trkpt><trkpt lat="43.075263076541006" lon="11.570754310036053"><ele>298.0</ele><time>2026-04-11T17:35:40.999Z</time></trkpt><trkpt lat="43.0752877715357" lon="11.570890472648296"><ele>295.0</ele><time>2026-04-11T17:35:41.999Z</time></trkpt><trkpt lat="43.07533784360452" lon="11.571005634766275"><ele>292.0</ele><time>2026-04-11T17:35:42.999Z</time></trkpt><trkpt lat="43.07536707663024" lon="11.571137117803508"><ele>290.2</ele><time>2026-04-11T17:35:43.999Z</time></trkpt><trkpt lat="43.07541926281138" lon="11.571253850736129"><ele>288.4</ele><time>2026-04-11T17:35:44.999Z</time></trkpt><trkpt lat="43.07548402321554" lon="11.571360968396155"><ele>286.6</ele><time>2026-04-11T17:35:45.999Z</time></trkpt><trkpt lat="43.0755507727584" lon="11.571465519833193"><ele>284.8</ele><time>2026-04-11T17:35:46.999Z</time></trkpt><trkpt lat="43.07563329394389" lon="11.571549211615789"><ele>283.0</ele><time>2026-04-11T17:35:47.999Z</time></trkpt><trkpt lat="43.075702564325255" lon="11.57164651114923"><ele>283.0</ele><time>2026-04-11T17:35:48.999Z</time></trkpt><trkpt lat="43.07575442105781" lon="11.571762280021549"><ele>283.0</ele><time>2026-04-11T17:35:49.999Z</time></trkpt><trkpt lat="43.07579772913565" lon="11.5718844677521"><ele>283.0</ele><time>2026-04-11T17:35:50.999Z</time></trkpt><trkpt lat="43.07580930386036" lon="11.572025450402647"><ele>283.0</ele><time>2026-04-11T17:35:51.999Z</time></trkpt><trkpt lat="43.075826351648" lon="11.572165176268612"><ele>283.0</ele><time>2026-04-11T17:35:52.999Z</time></trkpt><trkpt lat="43.07584833701205" lon="11.5723070663989"><ele>283.4</ele><time>2026-04-11T17:35:53.999Z</time></trkpt><trkpt lat="43.07590122538208" lon="11.572438112237919"><ele>283.8</ele><time>2026-04-11T17:35:54.999Z</time></trkpt><trkpt lat="43.07597955509455" lon="11.572549506331212"><ele>284.2</ele><time>2026-04-11T17:35:55.999Z</time></trkpt><trkpt lat="43.076066770867826" lon="11.572643101817155"><ele>284.6</ele><time>2026-04-11T17:35:56.999Z</time></trkpt><trkpt lat="43.0761634005682" lon="11.572718891706288"><ele>285.0</ele><time>2026-04-11T17:35:58Z</time></trkpt><trkpt lat="43.07626683663899" lon="11.572780151494252"><ele>283.0</ele><time>2026-04-11T17:35:59Z</time></trkpt><trkpt lat="43.076357397097254" lon="11.572865368067893"><ele>281.0</ele><time>2026-04-11T17:36:00Z</time></trkpt><trkpt lat="43.07645105004187" lon="11.572908709961158"><ele>279.0</ele><time>2026-04-11T17:36:01Z</time></trkpt><trkpt lat="43.076502509634714" lon="11.573001237371715"><ele>277.0</ele><time>2026-04-11T17:36:02Z</time></trkpt><trkpt lat="43.076524640481914" lon="11.573113604434598"><ele>275.0</ele><time>2026-04-11T17:36:03Z</time></trkpt><trkpt lat="43.076500673708566" lon="11.573235540675205"><ele>275.0</ele><time>2026-04-11T17:36:04Z</time></trkpt><trkpt lat="43.076445127130654" lon="11.573327640513401"><ele>275.0</ele><time>2026-04-11T17:36:05Z</time></trkpt><trkpt lat="43.07637056992099" lon="11.573371985573505"><ele>275.0</ele><time>2026-04-11T17:36:06Z</time></trkpt><trkpt lat="43.07628827133677" lon="11.573375945944289"><ele>275.0</ele><time>2026-04-11T17:36:07Z</time></trkpt><trkpt lat="43.07620112179959" lon="11.573326426564355"><ele>275.0</ele><time>2026-04-11T17:36:08Z</time></trkpt><trkpt lat="43.07612568063359" lon="11.573264136305838"><ele>275.0</ele><time>2026-04-11T17:36:09Z</time></trkpt><trkpt lat="43.076055118438255" lon="11.573197640927384"><ele>275.0</ele><time>2026-04-11T17:36:10Z</time></trkpt><trkpt lat="43.07598683980696" lon="11.573131734280315"><ele>275.0</ele><time>2026-04-11T17:36:11Z</time></trkpt><trkpt lat="43.07591690185524" lon="11.573063140449817"><ele>275.0</ele><time>2026-04-11T17:36:12Z</time></trkpt><trkpt lat="43.07584975927379" lon="11.572992458462856"><ele>275.0</ele><time>2026-04-11T17:36:13Z</time></trkpt><trkpt lat="43.07578405046865" lon="11.572918223304859"><ele>275.0</ele><time>2026-04-11T17:36:14Z</time></trkpt><trkpt lat="43.07571514665092" lon="11.572850109086104"><ele>275.0</ele><time>2026-04-11T17:36:15Z</time></trkpt><trkpt lat="43.075637516979" lon="11.57279786384617"><ele>274.33333333333337</ele><time>2026-04-11T17:36:16Z</time></trkpt><trkpt lat="43.0755519254951" lon="11.57277389313229"><ele>273.6666666666667</ele><time>2026-04-11T17:36:17Z</time></trkpt><trkpt lat="43.075465624497284" lon="11.572774467231566"><ele>273.0</ele><time>2026-04-11T17:36:18Z</time></trkpt><trkpt lat="43.075387553961214" lon="11.572803112565866"><ele>272.3333333333333</ele><time>2026-04-11T17:36:19Z</time></trkpt><trkpt lat="43.07532492256972" lon="11.572871520846713"><ele>271.66666666666663</ele><time>2026-04-11T17:36:20Z</time></trkpt><trkpt lat="43.07529247387575" lon="11.572976325399218"><ele>271.0</ele><time>2026-04-11T17:36:21Z</time></trkpt><trkpt lat="43.07529244437701" lon="11.573097233577851"><ele>270.3333333333333</ele><time>2026-04-11T17:36:22Z</time></trkpt><trkpt lat="43.075321023270696" lon="11.573217342218339"><ele>269.66666666666663</ele><time>2026-04-11T17:36:23Z</time></trkpt><trkpt lat="43.07535447742396" lon="11.573333255102755"><ele>269.0</ele><time>2026-04-11T17:36:24Z</time></trkpt><trkpt lat="43.07538075899077" lon="11.573448025047325"><ele>268.3333333333333</ele><time>2026-04-11T17:36:25Z</time></trkpt><trkpt lat="43.0753953882621" lon="11.573563019610974"><ele>267.6666666666667</ele><time>2026-04-11T17:36:26Z</time></trkpt><trkpt lat="43.075358615178516" lon="11.573664404582304"><ele>267.0</ele><time>2026-04-11T17:36:27Z</time></trkpt><trkpt lat="43.075300031754026" lon="11.573744579903748"><ele>265.4</ele><time>2026-04-11T17:36:28Z</time></trkpt><trkpt lat="43.075217655321566" lon="11.573783900316561"><ele>263.79999999999995</ele><time>2026-04-11T17:36:29Z</time></trkpt><trkpt lat="43.07513599285615" lon="11.573831904098993"><ele>262.2</ele><time>2026-04-11T17:36:30Z</time></trkpt><trkpt lat="43.07504009637483" lon="11.57383972737532"><ele>260.59999999999997</ele><time>2026-04-11T17:36:31Z</time></trkpt><trkpt lat="43.07494724679576" lon="11.573853408801057"><ele>259.0</ele><time>2026-04-11T17:36:32Z</time></trkpt><trkpt lat="43.07485449916154" lon="11.57386625831768"><ele>258.8</ele><time>2026-04-11T17:36:33Z</time></trkpt><trkpt lat="43.074759041225995" lon="11.573860335317368"><ele>258.59999999999997</ele><time>2026-04-11T17:36:34Z</time></trkpt><trkpt lat="43.074664338845935" lon="11.573837600183564"><ele>258.4</ele><time>2026-04-11T17:36:35Z</time></trkpt><trkpt lat="43.07456600584863" lon="11.57383299171009"><ele>258.2</ele><time>2026-04-11T17:36:36Z</time></trkpt><trkpt lat="43.07447873176183" lon="11.573865511585383"><ele>258.0</ele><time>2026-04-11T17:36:37Z</time></trkpt><trkpt lat="43.074389833243856" lon="11.573924267644168"><ele>258.0</ele><time>2026-04-11T17:36:38Z</time></trkpt><trkpt lat="43.074306274256465" lon="11.574007274064236"><ele>258.0</ele><time>2026-04-11T17:36:39Z</time></trkpt><trkpt lat="43.074235395590414" lon="11.574105632837728"><ele>258.0</ele><time>2026-04-11T17:36:40Z</time></trkpt><trkpt lat="43.07417380902252" lon="11.574213087301677"><ele>258.0</ele><time>2026-04-11T17:36:41Z</time></trkpt><trkpt lat="43.07411379092473" lon="11.574319608470926"><ele>258.0</ele><time>2026-04-11T17:36:42Z</time></trkpt><trkpt lat="43.07404088661136" lon="11.574431103266365"><ele>257.2</ele><time>2026-04-11T17:36:43Z</time></trkpt><trkpt lat="43.073983419319426" lon="11.57453857018749"><ele>256.4</ele><time>2026-04-11T17:36:44Z</time></trkpt><trkpt lat="43.073924627297984" lon="11.574649061893176"><ele>255.59999999999997</ele><time>2026-04-11T17:36:45Z</time></trkpt><trkpt lat="43.073864621320745" lon="11.574762842459812"><ele>254.79999999999998</ele><time>2026-04-11T17:36:46Z</time></trkpt><trkpt lat="43.073803660363374" lon="11.574874183395485"><ele>254.0</ele><time>2026-04-11T17:36:47Z</time></trkpt><trkpt lat="43.07374945813205" lon="11.574988372427343"><ele>254.0</ele><time>2026-04-11T17:36:48Z</time></trkpt><trkpt lat="43.07370467974542" lon="11.575110602586665"><ele>253.99999999999997</ele><time>2026-04-11T17:36:49Z</time></trkpt><trkpt lat="43.07367296878314" lon="11.575233559072178"><ele>253.99999999999997</ele><time>2026-04-11T17:36:50Z</time></trkpt><trkpt lat="43.073652221598394" lon="11.575360743202703"><ele>254.0</ele><time>2026-04-11T17:36:51Z</time></trkpt><trkpt lat="43.073632445280076" lon="11.575488044526582"><ele>254.0</ele><time>2026-04-11T17:36:52Z</time></trkpt><trkpt lat="43.07362432368631" lon="11.575605190781308"><ele>253.66666666666669</ele><time>2026-04-11T17:36:53Z</time></trkpt><trkpt lat="43.073610916309946" lon="11.575721204361939"><ele>253.33333333333334</ele><time>2026-04-11T17:36:54Z</time></trkpt><trkpt lat="43.0735967171242" lon="11.575831271089983"><ele>253.0</ele><time>2026-04-11T17:36:55Z</time></trkpt><trkpt lat="43.07358410312883" lon="11.57594082488102"><ele>252.66666666666669</ele><time>2026-04-11T17:36:56Z</time></trkpt><trkpt lat="43.073565861182864" lon="11.576051237037506"><ele>252.33333333333334</ele><time>2026-04-11T17:36:57Z</time></trkpt><trkpt lat="43.073556848933094" lon="11.576159188390763"><ele>252.0</ele><time>2026-04-11T17:36:58Z</time></trkpt><trkpt lat="43.07354267667976" lon="11.576266832998652"><ele>251.66666666666666</ele><time>2026-04-11T17:36:59Z</time></trkpt><trkpt lat="43.07353320111141" lon="11.576375648587298"><ele>251.33333333333331</ele><time>2026-04-11T17:37:00Z</time></trkpt><trkpt lat="43.07353504646561" lon="11.576482632177756"><ele>251.0</ele><time>2026-04-11T17:37:01Z</time></trkpt><trkpt lat="43.07354053161635" lon="11.576592283224144"><ele>250.66666666666666</ele><time>2026-04-11T17:37:02Z</time></trkpt><trkpt lat="43.07354765347423" lon="11.576699123037043"><ele>250.33333333333331</ele><time>2026-04-11T17:37:03Z</time></trkpt><trkpt lat="43.07355349476441" lon="11.576808321347828"><ele>250.0</ele><time>2026-04-11T17:37:04Z</time></trkpt><trkpt lat="43.073559041801424" lon="11.57692102747333"><ele>249.83333333333331</ele><time>2026-04-11T17:37:05Z</time></trkpt><trkpt lat="43.07356235405958" lon="11.5770348353563"><ele>249.66666666666666</ele><time>2026-04-11T17:37:06Z</time></trkpt><trkpt lat="43.073571859005035" lon="11.577146253839441"><ele>249.5</ele><time>2026-04-11T17:37:07Z</time></trkpt><trkpt lat="43.07357768087696" lon="11.57726063638467"><ele>249.33333333333331</ele><time>2026-04-11T17:37:08Z</time></trkpt><trkpt lat="43.073583498873006" lon="11.57737924983215"><ele>249.16666666666666</ele><time>2026-04-11T17:37:09Z</time></trkpt><trkpt lat="43.073586769603025" lon="11.577492940126062"><ele>249.0</ele><time>2026-04-11T17:37:10Z</time></trkpt><trkpt lat="43.07358693875067" lon="11.577602834564534"><ele>249.0</ele><time>2026-04-11T17:37:11Z</time></trkpt><trkpt lat="43.07357808861556" lon="11.5777092921263"><ele>248.99999999999997</ele><time>2026-04-11T17:37:12Z</time></trkpt><trkpt lat="43.07356647495015" lon="11.577812498218625"><ele>249.0</ele><time>2026-04-11T17:37:13Z</time></trkpt><trkpt lat="43.07354725595261" lon="11.577912688525267"><ele>249.0</ele><time>2026-04-11T17:37:14Z</time></trkpt><trkpt lat="43.073525384310344" lon="11.57800949361521"><ele>248.99999999999997</ele><time>2026-04-11T17:37:15Z</time></trkpt><trkpt lat="43.07349881919103" lon="11.578100383867733"><ele>249.0</ele><time>2026-04-11T17:37:16Z</time></trkpt><trkpt lat="43.073467916451804" lon="11.57818673359728"><ele>249.0</ele><time>2026-04-11T17:37:17Z</time></trkpt><trkpt lat="43.07342787068102" lon="11.578270048718183"><ele>249.33333333333334</ele><time>2026-04-11T17:37:18Z</time></trkpt><trkpt lat="43.07338534599286" lon="11.578338028146993"><ele>249.66666666666669</ele><time>2026-04-11T17:37:19Z</time></trkpt><trkpt lat="43.07334090699564" lon="11.578406770865858"><ele>250.0</ele><time>2026-04-11T17:37:20Z</time></trkpt><trkpt lat="43.073300159411836" lon="11.578474224320056"><ele>250.33333333333334</ele><time>2026-04-11T17:37:21Z</time></trkpt><trkpt lat="43.07322243349012" lon="11.578601646892345"><ele>250.66666666666669</ele><time>2026-04-11T17:37:23Z</time></trkpt><trkpt lat="43.07314556204282" lon="11.57872081425855"><ele>251.0</ele><time>2026-04-11T17:37:25Z</time></trkpt><trkpt lat="43.073071036069074" lon="11.57884341426749"><ele>251.4</ele><time>2026-04-11T17:37:27Z</time></trkpt><trkpt lat="43.07299578369587" lon="11.578951297774594"><ele>251.8</ele><time>2026-04-11T17:37:29Z</time></trkpt><trkpt lat="43.072935646936294" lon="11.57908154489928"><ele>252.20000000000002</ele><time>2026-04-11T17:37:31Z</time></trkpt><trkpt lat="43.072871863844426" lon="11.579201177619739"><ele>252.60000000000002</ele><time>2026-04-11T17:37:33Z</time></trkpt><trkpt lat="43.07279623719786" lon="11.579301560552572"><ele>253.0</ele><time>2026-04-11T17:37:35Z</time></trkpt><trkpt lat="43.072733733266375" lon="11.57941044740044"><ele>252.99999999999997</ele><time>2026-04-11T17:37:37Z</time></trkpt><trkpt lat="43.07267471265552" lon="11.579513264839349"><ele>253.0</ele><time>2026-04-11T17:37:39Z</time></trkpt><trkpt lat="43.072615214955476" lon="11.579605987456798"><ele>253.0</ele><time>2026-04-11T17:37:41Z</time></trkpt><trkpt lat="43.07255497956797" lon="11.57969424007076"><ele>253.0</ele><time>2026-04-11T17:37:43Z</time></trkpt><trkpt lat="43.072494328769146" lon="11.579772705160517"><ele>252.99999999999997</ele><time>2026-04-11T17:37:45Z</time></trkpt><trkpt lat="43.07243266417281" lon="11.57984945432255"><ele>253.0</ele><time>2026-04-11T17:37:47Z</time></trkpt><trkpt lat="43.07236656913996" lon="11.579932194914324"><ele>254.14285714285717</ele><time>2026-04-11T17:37:49Z</time></trkpt><trkpt lat="43.072313064321925" lon="11.580002578915659"><ele>255.28571428571428</ele><time>2026-04-11T17:37:51Z</time></trkpt><trkpt lat="43.07226816761048" lon="11.580089931743155"><ele>256.42857142857144</ele><time>2026-04-11T17:37:53Z</time></trkpt><trkpt lat="43.07221132851024" lon="11.580148216824046"><ele>257.57142857142856</ele><time>2026-04-11T17:37:55Z</time></trkpt><trkpt lat="43.0721659433461" lon="11.580218636919867"><ele>258.7142857142857</ele><time>2026-04-11T17:37:57Z</time></trkpt><trkpt lat="43.072121837535825" lon="11.58028330510874"><ele>259.8571428571429</ele><time>2026-04-11T17:37:58.999Z</time></trkpt><trkpt lat="43.07206987364347" lon="11.580371209255086"><ele>261.0</ele><time>2026-04-11T17:38:01.999Z</time></trkpt><trkpt lat="43.072035922866746" lon="11.580444039307086"><ele>261.3333333333333</ele><time>2026-04-11T17:38:04Z</time></trkpt><trkpt lat="43.072008412659095" lon="11.58054429496854"><ele>261.6666666666667</ele><time>2026-04-11T17:38:07Z</time></trkpt><trkpt lat="43.071981526346796" lon="11.580659697218763"><ele>262.0</ele><time>2026-04-11T17:38:10Z</time></trkpt><trkpt lat="43.07196792482972" lon="11.58076387679186"><ele>262.33333333333337</ele><time>2026-04-11T17:38:13Z</time></trkpt><trkpt lat="43.07197186293401" lon="11.580871521120418"><ele>262.6666666666667</ele><time>2026-04-11T17:38:16Z</time></trkpt><trkpt lat="43.071977978410914" lon="11.580971532532342"><ele>263.0</ele><time>2026-04-11T17:38:19Z</time></trkpt><trkpt lat="43.07200343810744" lon="11.581067529435177"><ele>263.0</ele><time>2026-04-11T17:38:22Z</time></trkpt><trkpt lat="43.072023146575084" lon="11.581158733164006"><ele>263.0</ele><time>2026-04-11T17:38:25Z</time></trkpt><trkpt lat="43.07206640235866" lon="11.581255328869808"><ele>263.0</ele><time>2026-04-11T17:38:28Z</time></trkpt><trkpt lat="43.07209928647366" lon="11.58137400944287"><ele>263.0</ele><time>2026-04-11T17:38:31Z</time></trkpt><trkpt lat="43.072154130935395" lon="11.581442511490934"><ele>263.0</ele><time>2026-04-11T17:38:33Z</time></trkpt><trkpt lat="43.07216259166702" lon="11.581565666921458"><ele>263.0</ele><time>2026-04-11T17:38:36Z</time></trkpt><trkpt lat="43.07218909191997" lon="11.581688270149597"><ele>263.7142857142857</ele><time>2026-04-11T17:38:39Z</time></trkpt><trkpt lat="43.07217655147025" lon="11.581806271641236"><ele>264.4285714285714</ele><time>2026-04-11T17:38:42Z</time></trkpt><trkpt lat="43.0721467464497" lon="11.581885168767675"><ele>265.1428571428571</ele><time>2026-04-11T17:38:45Z</time></trkpt><trkpt lat="43.07208482411969" lon="11.581931802409226"><ele>265.85714285714283</ele><time>2026-04-11T17:38:48Z</time></trkpt><trkpt lat="43.07201908833616" lon="11.581947195538621"><ele>266.57142857142856</ele><time>2026-04-11T17:38:51Z</time></trkpt><trkpt lat="43.071950918455386" lon="11.581923566944361"><ele>267.2857142857143</ele><time>2026-04-11T17:38:54Z</time></trkpt><trkpt lat="43.07189060876705" lon="11.581855407469059"><ele>268.0</ele><time>2026-04-11T17:38:57Z</time></trkpt><trkpt lat="43.07183348631243" lon="11.581783065609104"><ele>268.0</ele><time>2026-04-11T17:39:00Z</time></trkpt><trkpt lat="43.07177440587988" lon="11.581726191320662"><ele>268.0</ele><time>2026-04-11T17:39:03Z</time></trkpt><trkpt lat="43.071715197603545" lon="11.581665612643752"><ele>268.0</ele><time>2026-04-11T17:39:06Z</time></trkpt><trkpt lat="43.07165294106659" lon="11.581609391699535"><ele>268.0</ele><time>2026-04-11T17:39:09Z</time></trkpt><trkpt lat="43.071584442674435" lon="11.581572722140667"><ele>268.0</ele><time>2026-04-11T17:39:12Z</time></trkpt><trkpt lat="43.07151694038851" lon="11.581532589194158"><ele>268.0</ele><time>2026-04-11T17:39:15Z</time></trkpt><trkpt lat="43.0714506803802" lon="11.581505757181537"><ele>268.0</ele><time>2026-04-11T17:39:18Z</time></trkpt><trkpt lat="43.07138087841388" lon="11.581475460378506"><ele>268.0</ele><time>2026-04-11T17:39:21Z</time></trkpt><trkpt lat="43.07131447445178" lon="11.581447320597853"><ele>268.0</ele><time>2026-04-11T17:39:24Z</time></trkpt><trkpt lat="43.071248155076354" lon="11.581404987801248"><ele>268.0</ele><time>2026-04-11T17:39:27Z</time></trkpt><trkpt lat="43.071190747257205" lon="11.581343568547961"><ele>268.0</ele><time>2026-04-11T17:39:30Z</time></trkpt><trkpt lat="43.07114871788273" lon="11.581259710098593"><ele>268.0</ele><time>2026-04-11T17:39:33Z</time></trkpt><trkpt lat="43.07111329168286" lon="11.581179127545779"><ele>268.0</ele><time>2026-04-11T17:39:36Z</time></trkpt><trkpt lat="43.07107420763829" lon="11.581100719233635"><ele>268.0</ele><time>2026-04-11T17:39:39Z</time></trkpt><trkpt lat="43.07103182717504" lon="11.581025345709891"><ele>268.0</ele><time>2026-04-11T17:39:42Z</time></trkpt><trkpt lat="43.070970189486204" lon="11.580975298270022"><ele>268.0</ele><time>2026-04-11T17:39:45Z</time></trkpt><trkpt lat="43.07090185855013" lon="11.580952931105616"><ele>268.0</ele><time>2026-04-11T17:39:48Z</time></trkpt><trkpt lat="43.070836279912236" lon="11.580961334644984"><ele>268.0</ele><time>2026-04-11T17:39:51Z</time></trkpt><trkpt lat="43.07077456933784" lon="11.580993316914348"><ele>268.0</ele><time>2026-04-11T17:39:54Z</time></trkpt><trkpt lat="43.07071485834087" lon="11.581053547150093"><ele>268.0</ele><time>2026-04-11T17:39:58Z</time></trkpt><trkpt lat="43.070673573726296" lon="11.581125493829894"><ele>268.0</ele><time>2026-04-11T17:40:01Z</time></trkpt><trkpt lat="43.070660975856214" lon="11.581231692159283"><ele>269.16666666666663</ele><time>2026-04-11T17:40:04Z</time></trkpt><trkpt lat="43.07066767435199" lon="11.581336883147848"><ele>270.3333333333333</ele><time>2026-04-11T17:40:06.999Z</time></trkpt><trkpt lat="43.07069694106406" lon="11.581428164785363"><ele>271.5</ele><time>2026-04-11T17:40:10Z</time></trkpt><trkpt lat="43.070732205499" lon="11.581526407933397"><ele>272.6666666666667</ele><time>2026-04-11T17:40:13Z</time></trkpt><trkpt lat="43.07077907271544" lon="11.581619181279185"><ele>273.83333333333337</ele><time>2026-04-11T17:40:16Z</time></trkpt><trkpt lat="43.07081913103396" lon="11.581719311000361"><ele>275.0</ele><time>2026-04-11T17:40:19Z</time></trkpt><trkpt lat="43.070874514714454" lon="11.581812351791529"><ele>275.0</ele><time>2026-04-11T17:40:22Z</time></trkpt><trkpt lat="43.070917533019646" lon="11.581906710776495"><ele>275.0</ele><time>2026-04-11T17:40:25Z</time></trkpt><trkpt lat="43.070964983349604" lon="11.58199102426382"><ele>275.0</ele><time>2026-04-11T17:40:28Z</time></trkpt><trkpt lat="43.07100308096754" lon="11.58208375829672"><ele>275.0</ele><time>2026-04-11T17:40:31Z</time></trkpt><trkpt lat="43.0710397697531" lon="11.582176964147541"><ele>275.0</ele><time>2026-04-11T17:40:34Z</time></trkpt><trkpt lat="43.071077680913135" lon="11.582274534389768"><ele>275.0</ele><time>2026-04-11T17:40:37Z</time></trkpt><trkpt lat="43.071118600870484" lon="11.582377035744253"><ele>276.14285714285717</ele><time>2026-04-11T17:40:40Z</time></trkpt><trkpt lat="43.07113496047893" lon="11.582480098760923"><ele>277.2857142857143</ele><time>2026-04-11T17:40:43Z</time></trkpt><trkpt lat="43.07115069409749" lon="11.582582819370103"><ele>278.42857142857144</ele><time>2026-04-11T17:40:46Z</time></trkpt><trkpt lat="43.07116361734365" lon="11.582682410172346"><ele>279.57142857142856</ele><time>2026-04-11T17:40:49Z</time></trkpt><trkpt lat="43.07116809178597" lon="11.582776864237758"><ele>280.7142857142857</ele><time>2026-04-11T17:40:52Z</time></trkpt><trkpt lat="43.07117193540652" lon="11.582872671750966"><ele>281.8571428571429</ele><time>2026-04-11T17:40:55Z</time></trkpt><trkpt lat="43.071159286549175" lon="11.58297789187061"><ele>283.0</ele><time>2026-04-11T17:40:58Z</time></trkpt><trkpt lat="43.07115331555081" lon="11.583075667071817"><ele>283.2857142857143</ele><time>2026-04-11T17:41:01Z</time></trkpt><trkpt lat="43.071124239046256" lon="11.583177960390469"><ele>283.5714285714286</ele><time>2026-04-11T17:41:04Z</time></trkpt><trkpt lat="43.07110025527776" lon="11.583277091359655"><ele>283.8571428571429</ele><time>2026-04-11T17:41:07Z</time></trkpt><trkpt lat="43.07107331549422" lon="11.583363902008585"><ele>284.14285714285717</ele><time>2026-04-11T17:41:10Z</time></trkpt><trkpt lat="43.07104182693952" lon="11.583444949198952"><ele>284.42857142857144</ele><time>2026-04-11T17:41:13Z</time></trkpt><trkpt lat="43.07102422627314" lon="11.58354071015501"><ele>284.7142857142857</ele><time>2026-04-11T17:41:16Z</time></trkpt><trkpt lat="43.071002093665896" lon="11.583631653041536"><ele>285.0</ele><time>2026-04-11T17:41:19Z</time></trkpt><trkpt lat="43.07097007561015" lon="11.583711391553136"><ele>285.42857142857144</ele><time>2026-04-11T17:41:22Z</time></trkpt><trkpt lat="43.070934863770724" lon="11.583800578037721"><ele>285.8571428571429</ele><time>2026-04-11T17:41:25Z</time></trkpt><trkpt lat="43.07091104277623" lon="11.583889101637011"><ele>286.28571428571433</ele><time>2026-04-11T17:41:28Z</time></trkpt><trkpt lat="43.07087925520916" lon="11.583976779063484"><ele>286.7142857142857</ele><time>2026-04-11T17:41:31Z</time></trkpt><trkpt lat="43.070853283154" lon="11.584056367789856"><ele>287.14285714285717</ele><time>2026-04-11T17:41:34Z</time></trkpt><trkpt lat="43.07081680513977" lon="11.584146211040633"><ele>287.5714285714286</ele><time>2026-04-11T17:41:37Z</time></trkpt><trkpt lat="43.070780616620404" lon="11.584236191390007"><ele>288.0</ele><time>2026-04-11T17:41:40Z</time></trkpt><trkpt lat="43.070752948721484" lon="11.584323012774595"><ele>288.7142857142857</ele><time>2026-04-11T17:41:43Z</time></trkpt><trkpt lat="43.07072370360345" lon="11.584413578545181"><ele>289.42857142857144</ele><time>2026-04-11T17:41:46Z</time></trkpt><trkpt lat="43.07069504795353" lon="11.584504186560794"><ele>290.1428571428571</ele><time>2026-04-11T17:41:49Z</time></trkpt><trkpt lat="43.07066105178485" lon="11.584594895287868"><ele>290.8571428571429</ele><time>2026-04-11T17:41:52Z</time></trkpt><trkpt lat="43.07062965968912" lon="11.58468250711416"><ele>291.57142857142856</ele><time>2026-04-11T17:41:55Z</time></trkpt><trkpt lat="43.070602070609056" lon="11.5847730819248"><ele>292.2857142857143</ele><time>2026-04-11T17:41:58Z</time></trkpt><trkpt lat="43.07057432019449" lon="11.58486449808769"><ele>293.0</ele><time>2026-04-11T17:42:01Z</time></trkpt><trkpt lat="43.070543421194046" lon="11.584954133537279"><ele>293.1428571428571</ele><time>2026-04-11T17:42:04Z</time></trkpt><trkpt lat="43.07051580164191" lon="11.585038840340207"><ele>293.2857142857143</ele><time>2026-04-11T17:42:07Z</time></trkpt><trkpt lat="43.07048204919931" lon="11.585121883626051"><ele>293.42857142857144</ele><time>2026-04-11T17:42:10Z</time></trkpt><trkpt lat="43.07043214802661" lon="11.585188746188155"><ele>293.57142857142856</ele><time>2026-04-11T17:42:12.999Z</time></trkpt><trkpt lat="43.070359857772885" lon="11.585239251663465"><ele>293.7142857142857</ele><time>2026-04-11T17:42:17Z</time></trkpt><trkpt lat="43.07027862565999" lon="11.585252864129961"><ele>293.85714285714283</ele><time>2026-04-11T17:42:21Z</time></trkpt><trkpt lat="43.07020070375263" lon="11.585240620117114"><ele>294.0</ele><time>2026-04-11T17:42:25Z</time></trkpt><trkpt lat="43.0701381345106" lon="11.585206811089586"><ele>294.0</ele><time>2026-04-11T17:42:28Z</time></trkpt><trkpt lat="43.07007764317737" lon="11.585161879488012"><ele>294.0</ele><time>2026-04-11T17:42:31Z</time></trkpt><trkpt lat="43.0700134052738" lon="11.585118394477538"><ele>294.0</ele><time>2026-04-11T17:42:34Z</time></trkpt><trkpt lat="43.069953848523696" lon="11.585077304471378"><ele>294.0</ele><time>2026-04-11T17:42:37Z</time></trkpt><trkpt lat="43.06989567112342" lon="11.585021955642505"><ele>294.0</ele><time>2026-04-11T17:42:40Z</time></trkpt><trkpt lat="43.0698377784961" lon="11.584979561573045"><ele>294.0</ele><time>2026-04-11T17:42:43Z</time></trkpt><trkpt lat="43.06977741994655" lon="11.584938130387469"><ele>294.0</ele><time>2026-04-11T17:42:46Z</time></trkpt><trkpt lat="43.06972096547185" lon="11.584897899587611"><ele>295.3333333333333</ele><time>2026-04-11T17:42:49Z</time></trkpt><trkpt lat="43.069650919822855" lon="11.5848466788909"><ele>296.6666666666667</ele><time>2026-04-11T17:42:53Z</time></trkpt><trkpt lat="43.06958160217484" lon="11.584790988925214"><ele>298.0</ele><time>2026-04-11T17:42:57Z</time></trkpt><trkpt lat="43.06950879765121" lon="11.584734011618776"><ele>299.33333333333337</ele><time>2026-04-11T17:43:01Z</time></trkpt><trkpt lat="43.06943298358711" lon="11.584678163976"><ele>300.6666666666667</ele><time>2026-04-11T17:43:05Z</time></trkpt><trkpt lat="43.06937660292283" lon="11.584635316591502"><ele>302.0</ele><time>2026-04-11T17:43:08Z</time></trkpt><trkpt lat="43.069304751875414" lon="11.584581132484564"><ele>302.00000000000006</ele><time>2026-04-11T17:43:12Z</time></trkpt><trkpt lat="43.06925166404662" lon="11.584532838459833"><ele>302.0</ele><time>2026-04-11T17:43:15Z</time></trkpt><trkpt lat="43.06919401090711" lon="11.584496740223003"><ele>302.0</ele><time>2026-04-11T17:43:18Z</time></trkpt><trkpt lat="43.06913676386265" lon="11.584447357796599"><ele>302.0</ele><time>2026-04-11T17:43:21Z</time></trkpt><trkpt lat="43.069078639901946" lon="11.584403150461544"><ele>302.0</ele><time>2026-04-11T17:43:24Z</time></trkpt><trkpt lat="43.06901716605772" lon="11.584357962273018"><ele>302.00000000000006</ele><time>2026-04-11T17:43:27Z</time></trkpt><trkpt lat="43.06895909907582" lon="11.584313533867977"><ele>302.0</ele><time>2026-04-11T17:43:30Z</time></trkpt><trkpt lat="43.068897377016725" lon="11.584270067433806"><ele>301.8571428571429</ele><time>2026-04-11T17:43:33Z</time></trkpt><trkpt lat="43.068837794463285" lon="11.584227134678862"><ele>301.7142857142857</ele><time>2026-04-11T17:43:36Z</time></trkpt><trkpt lat="43.068782088177876" lon="11.584174001373436"><ele>301.57142857142856</ele><time>2026-04-11T17:43:39Z</time></trkpt><trkpt lat="43.068722855401504" lon="11.584128450288242"><ele>301.42857142857144</ele><time>2026-04-11T17:43:42Z</time></trkpt><trkpt lat="43.06866246145073" lon="11.584099413505816"><ele>301.2857142857143</ele><time>2026-04-11T17:43:45Z</time></trkpt><trkpt lat="43.06859683666235" lon="11.58409104461721"><ele>301.14285714285717</ele><time>2026-04-11T17:43:48Z</time></trkpt><trkpt lat="43.06853074069115" lon="11.584093418212568"><ele>301.0</ele><time>2026-04-11T17:43:51Z</time></trkpt><trkpt lat="43.06846162480624" lon="11.58411388855881"><ele>301.0</ele><time>2026-04-11T17:43:54Z</time></trkpt><trkpt lat="43.06839261367061" lon="11.58415182624868"><ele>301.0</ele><time>2026-04-11T17:43:57Z</time></trkpt><trkpt lat="43.06833039645863" lon="11.584200955071015"><ele>301.0</ele><time>2026-04-11T17:44:00Z</time></trkpt><trkpt lat="43.06826643506982" lon="11.584257760957588"><ele>301.0</ele><time>2026-04-11T17:44:03Z</time></trkpt><trkpt lat="43.06820267695123" lon="11.584332104611148"><ele>301.0</ele><time>2026-04-11T17:44:07Z</time></trkpt><trkpt lat="43.06814578787863" lon="11.584398739169337"><ele>301.0</ele><time>2026-04-11T17:44:11Z</time></trkpt><trkpt lat="43.06810377174315" lon="11.584472584745146"><ele>301.0</ele><time>2026-04-11T17:44:14Z</time></trkpt><trkpt lat="43.06806731130709" lon="11.584546037349458"><ele>300.66666666666663</ele><time>2026-04-11T17:44:17Z</time></trkpt><trkpt lat="43.06804109160896" lon="11.5846348039521"><ele>300.3333333333333</ele><time>2026-04-11T17:44:20Z</time></trkpt><trkpt lat="43.06797606136014" lon="11.584725863390792"><ele>300.0</ele><time>2026-04-11T17:44:23Z</time></trkpt><trkpt lat="43.06798620413025" lon="11.584844088606363"><ele>299.6666666666667</ele><time>2026-04-11T17:44:27Z</time></trkpt><trkpt lat="43.067983694019325" lon="11.58493739930853"><ele>299.33333333333337</ele><time>2026-04-11T17:44:30Z</time></trkpt><trkpt lat="43.067972856802605" lon="11.585034533981256"><ele>299.0</ele><time>2026-04-11T17:44:33Z</time></trkpt><trkpt lat="43.06796823892423" lon="11.585123204178725"><ele>299.0</ele><time>2026-04-11T17:44:36Z</time></trkpt><trkpt lat="43.06796664831858" lon="11.585214717832498"><ele>299.0</ele><time>2026-04-11T17:44:39Z</time></trkpt><trkpt lat="43.06795836053029" lon="11.585307774235904"><ele>299.0</ele><time>2026-04-11T17:44:42Z</time></trkpt><trkpt lat="43.067956938090674" lon="11.58539896642801"><ele>299.0</ele><time>2026-04-11T17:44:45Z</time></trkpt><trkpt lat="43.0679559847283" lon="11.585487162922396"><ele>299.0</ele><time>2026-04-11T17:44:48Z</time></trkpt><trkpt lat="43.06794617518504" lon="11.58557593123272"><ele>299.0</ele><time>2026-04-11T17:44:51Z</time></trkpt><trkpt lat="43.06794311690404" lon="11.585668938960914"><ele>299.0</ele><time>2026-04-11T17:44:54Z</time></trkpt><trkpt lat="43.06794623097597" lon="11.585768012852258"><ele>300.1428571428571</ele><time>2026-04-11T17:44:57Z</time></trkpt><trkpt lat="43.06794022380879" lon="11.585858777394181"><ele>301.2857142857143</ele><time>2026-04-11T17:45:00Z</time></trkpt><trkpt lat="43.067935118461804" lon="11.585946821325823"><ele>302.42857142857144</ele><time>2026-04-11T17:45:03Z</time></trkpt><trkpt lat="43.067925138423675" lon="11.586035625183513"><ele>303.57142857142856</ele><time>2026-04-11T17:45:06Z</time></trkpt><trkpt lat="43.06792535255158" lon="11.586124277347984"><ele>304.7142857142857</ele><time>2026-04-11T17:45:09Z</time></trkpt><trkpt lat="43.067918937057186" lon="11.586237155303637"><ele>305.85714285714283</ele><time>2026-04-11T17:45:13Z</time></trkpt><trkpt lat="43.06791402565343" lon="11.586324817509936"><ele>307.0</ele><time>2026-04-11T17:45:16Z</time></trkpt><trkpt lat="43.067902100964915" lon="11.586414932599505"><ele>308.1428571428571</ele><time>2026-04-11T17:45:19Z</time></trkpt><trkpt lat="43.06789477634845" lon="11.586501896245077"><ele>309.2857142857143</ele><time>2026-04-11T17:45:22Z</time></trkpt><trkpt lat="43.06788816338765" lon="11.586591621505548"><ele>310.42857142857144</ele><time>2026-04-11T17:45:25Z</time></trkpt><trkpt lat="43.06787285639616" lon="11.586683343757803"><ele>311.57142857142856</ele><time>2026-04-11T17:45:28Z</time></trkpt><trkpt lat="43.06784689489836" lon="11.586776580481935"><ele>312.7142857142857</ele><time>2026-04-11T17:45:31Z</time></trkpt><trkpt lat="43.06781402861499" lon="11.586858060715093"><ele>313.85714285714283</ele><time>2026-04-11T17:45:34Z</time></trkpt><trkpt lat="43.067785427287774" lon="11.586939456725057"><ele>315.0</ele><time>2026-04-11T17:45:37Z</time></trkpt><trkpt lat="43.067748912764166" lon="11.587015922582362"><ele>315.2857142857143</ele><time>2026-04-11T17:45:40Z</time></trkpt><trkpt lat="43.0677141377504" lon="11.58709195753924"><ele>315.57142857142856</ele><time>2026-04-11T17:45:43Z</time></trkpt><trkpt lat="43.06767441610171" lon="11.587164365876646"><ele>315.8571428571429</ele><time>2026-04-11T17:45:46Z</time></trkpt><trkpt lat="43.067631494771355" lon="11.587241521793507"><ele>316.1428571428571</ele><time>2026-04-11T17:45:49Z</time></trkpt><trkpt lat="43.067595184552005" lon="11.587325628583176"><ele>316.42857142857144</ele><time>2026-04-11T17:45:52Z</time></trkpt><trkpt lat="43.06756320637853" lon="11.587404074801544"><ele>316.7142857142857</ele><time>2026-04-11T17:45:55Z</time></trkpt><trkpt lat="43.067524726467745" lon="11.587479034580682"><ele>317.0</ele><time>2026-04-11T17:45:58Z</time></trkpt><trkpt lat="43.067484885571645" lon="11.587556056419134"><ele>317.0</ele><time>2026-04-11T17:46:01Z</time></trkpt><trkpt lat="43.06744426036824" lon="11.587632795523165"><ele>317.0</ele><time>2026-04-11T17:46:04Z</time></trkpt><trkpt lat="43.0674019102882" lon="11.587710314069993"><ele>317.0</ele><time>2026-04-11T17:46:07Z</time></trkpt><trkpt lat="43.06735703528856" lon="11.587789889122012"><ele>317.0</ele><time>2026-04-11T17:46:10Z</time></trkpt><trkpt lat="43.06731701406725" lon="11.58786263935547"><ele>317.0</ele><time>2026-04-11T17:46:13Z</time></trkpt><trkpt lat="43.06727442855794" lon="11.587935051441455"><ele>317.0</ele><time>2026-04-11T17:46:16Z</time></trkpt><trkpt lat="43.0672325977214" lon="11.588009661384552"><ele>317.0</ele><time>2026-04-11T17:46:19Z</time></trkpt><trkpt lat="43.06719540841837" lon="11.588085494644739"><ele>317.57142857142856</ele><time>2026-04-11T17:46:22Z</time></trkpt><trkpt lat="43.06715482525607" lon="11.588157437960493"><ele>318.1428571428571</ele><time>2026-04-11T17:46:25Z</time></trkpt><trkpt lat="43.067119405179795" lon="11.588232451988903"><ele>318.71428571428567</ele><time>2026-04-11T17:46:28Z</time></trkpt><trkpt lat="43.06707017078054" lon="11.588296284027876"><ele>319.2857142857143</ele><time>2026-04-11T17:46:31Z</time></trkpt><trkpt lat="43.06703373961981" lon="11.588371729800235"><ele>319.85714285714283</ele><time>2026-04-11T17:46:34Z</time></trkpt><trkpt lat="43.066998709808004" lon="11.588449693977115"><ele>320.4285714285714</ele><time>2026-04-11T17:46:37Z</time></trkpt><trkpt lat="43.06696862130609" lon="11.588528649645484"><ele>321.0</ele><time>2026-04-11T17:46:40Z</time></trkpt><trkpt lat="43.06693144096382" lon="11.58861711545313"><ele>321.3333333333333</ele><time>2026-04-11T17:46:43Z</time></trkpt><trkpt lat="43.066890991552704" lon="11.588697871983864"><ele>321.6666666666667</ele><time>2026-04-11T17:46:46Z</time></trkpt><trkpt lat="43.06685752830884" lon="11.588791292011773"><ele>322.0</ele><time>2026-04-11T17:46:49Z</time></trkpt><trkpt lat="43.066828122290175" lon="11.588882744261355"><ele>322.33333333333337</ele><time>2026-04-11T17:46:52Z</time></trkpt><trkpt lat="43.066795864850754" lon="11.588985223310981"><ele>322.6666666666667</ele><time>2026-04-11T17:46:55Z</time></trkpt><trkpt lat="43.06675870792955" lon="11.589084211425691"><ele>323.0</ele><time>2026-04-11T17:46:58Z</time></trkpt><trkpt lat="43.066739211476225" lon="11.589182583269807"><ele>323.0</ele><time>2026-04-11T17:47:01Z</time></trkpt><trkpt lat="43.06670918016534" lon="11.589279142802251"><ele>323.0</ele><time>2026-04-11T17:47:04Z</time></trkpt><trkpt lat="43.06668256160943" lon="11.589385240880784"><ele>323.0</ele><time>2026-04-11T17:47:07Z</time></trkpt><trkpt lat="43.06665150467349" lon="11.589493511303166"><ele>323.0</ele><time>2026-04-11T17:47:10Z</time></trkpt><trkpt lat="43.06662862779063" lon="11.58959621675853"><ele>323.0</ele><time>2026-04-11T17:47:13Z</time></trkpt><trkpt lat="43.066603105268904" lon="11.589701511893649"><ele>323.0</ele><time>2026-04-11T17:47:16Z</time></trkpt><trkpt lat="43.06657140704552" lon="11.589811852036151"><ele>324.5</ele><time>2026-04-11T17:47:19Z</time></trkpt><trkpt lat="43.06654126661415" lon="11.589912481660722"><ele>326.0</ele><time>2026-04-11T17:47:22Z</time></trkpt><trkpt lat="43.06651313867987" lon="11.590022920930597"><ele>327.5</ele><time>2026-04-11T17:47:25Z</time></trkpt><trkpt lat="43.06647471034844" lon="11.59011671276217"><ele>329.0</ele><time>2026-04-11T17:47:28Z</time></trkpt><trkpt lat="43.06641620168592" lon="11.590192140342957"><ele>330.5</ele><time>2026-04-11T17:47:31Z</time></trkpt><trkpt lat="43.066343859384574" lon="11.590236816547309"><ele>332.0</ele><time>2026-04-11T17:47:34Z</time></trkpt><trkpt lat="43.06627178126006" lon="11.590257261629313"><ele>332.0</ele><time>2026-04-11T17:47:37Z</time></trkpt><trkpt lat="43.06619740237743" lon="11.590243046118706"><ele>332.0</ele><time>2026-04-11T17:47:40Z</time></trkpt><trkpt lat="43.06611976452088" lon="11.590213707489806"><ele>332.0</ele><time>2026-04-11T17:47:43Z</time></trkpt><trkpt lat="43.06605061024949" lon="11.590183415106635"><ele>332.0</ele><time>2026-04-11T17:47:46Z</time></trkpt><trkpt lat="43.06597292574609" lon="11.59015408070213"><ele>332.0</ele><time>2026-04-11T17:47:50Z</time></trkpt><trkpt lat="43.06589614791173" lon="11.590146888366252"><ele>332.0</ele><time>2026-04-11T17:47:54Z</time></trkpt><trkpt lat="43.065816611529044" lon="11.590132888867771"><ele>331.85714285714283</ele><time>2026-04-11T17:47:58Z</time></trkpt><trkpt lat="43.06573426177264" lon="11.590148018888781"><ele>331.7142857142857</ele><time>2026-04-11T17:48:02Z</time></trkpt><trkpt lat="43.06565964939862" lon="11.59017737943332"><ele>331.57142857142856</ele><time>2026-04-11T17:48:05Z</time></trkpt><trkpt lat="43.065591246327976" lon="11.590216808025929"><ele>331.42857142857144</ele><time>2026-04-11T17:48:08Z</time></trkpt><trkpt lat="43.06553072860856" lon="11.590261453978108"><ele>331.2857142857143</ele><time>2026-04-11T17:48:11Z</time></trkpt><trkpt lat="43.0654652457176" lon="11.590305094232885"><ele>331.14285714285717</ele><time>2026-04-11T17:48:14Z</time></trkpt><trkpt lat="43.06540538352478" lon="11.590350057778585"><ele>331.0</ele><time>2026-04-11T17:48:17Z</time></trkpt><trkpt lat="43.06534479400818" lon="11.590388799511594"><ele>332.14285714285717</ele><time>2026-04-11T17:48:20Z</time></trkpt><trkpt lat="43.06528358409813" lon="11.5904349882496"><ele>333.2857142857143</ele><time>2026-04-11T17:48:23Z</time></trkpt><trkpt lat="43.065223201477565" lon="11.590479314191654"><ele>334.42857142857144</ele><time>2026-04-11T17:48:26Z</time></trkpt><trkpt lat="43.065167174254285" lon="11.590542116245008"><ele>335.57142857142856</ele><time>2026-04-11T17:48:29Z</time></trkpt><trkpt lat="43.065108672270284" lon="11.590590907518111"><ele>336.7142857142857</ele><time>2026-04-11T17:48:32Z</time></trkpt><trkpt lat="43.065042662805844" lon="11.590662069800233"><ele>337.85714285714283</ele><time>2026-04-11T17:48:36Z</time></trkpt><trkpt lat="43.06499764407006" lon="11.590729017106971"><ele>339.0</ele><time>2026-04-11T17:48:39Z</time></trkpt><trkpt lat="43.06495799842718" lon="11.590801898564763"><ele>338.4285714285714</ele><time>2026-04-11T17:48:42Z</time></trkpt><trkpt lat="43.064914291078324" lon="11.590871507662802"><ele>337.8571428571429</ele><time>2026-04-11T17:48:45Z</time></trkpt><trkpt lat="43.06487408441419" lon="11.590947358962861"><ele>337.2857142857143</ele><time>2026-04-11T17:48:48Z</time></trkpt><trkpt lat="43.06483993456221" lon="11.591025187665565"><ele>336.71428571428567</ele><time>2026-04-11T17:48:51Z</time></trkpt><trkpt lat="43.06481758803485" lon="11.591112231755236"><ele>336.1428571428571</ele><time>2026-04-11T17:48:54Z</time></trkpt><trkpt lat="43.0647927167335" lon="11.591198483871526"><ele>335.57142857142856</ele><time>2026-04-11T17:48:57Z</time></trkpt><trkpt lat="43.064778186483395" lon="11.591284380433935"><ele>335.0</ele><time>2026-04-11T17:49:00Z</time></trkpt><trkpt lat="43.06477038437787" lon="11.591377794171166"><ele>334.99999999999994</ele><time>2026-04-11T17:49:03Z</time></trkpt><trkpt lat="43.06477022493073" lon="11.591477888561641"><ele>335.0</ele><time>2026-04-11T17:49:06Z</time></trkpt><trkpt lat="43.06477812714657" lon="11.591579630683103"><ele>335.0</ele><time>2026-04-11T17:49:09Z</time></trkpt><trkpt lat="43.06478128244994" lon="11.591678653292018"><ele>335.0</ele><time>2026-04-11T17:49:12Z</time></trkpt><trkpt lat="43.06478425520175" lon="11.591779530033651"><ele>335.0</ele><time>2026-04-11T17:49:15Z</time></trkpt><trkpt lat="43.06478931740429" lon="11.59187214890085"><ele>334.99999999999994</ele><time>2026-04-11T17:49:18Z</time></trkpt><trkpt lat="43.06479349159636" lon="11.591967425445574"><ele>335.0</ele><time>2026-04-11T17:49:21Z</time></trkpt><trkpt lat="43.06480228651558" lon="11.592066339826745"><ele>335.85714285714283</ele><time>2026-04-11T17:49:24Z</time></trkpt><trkpt lat="43.064820687861975" lon="11.592157126133994"><ele>336.7142857142857</ele><time>2026-04-11T17:49:27Z</time></trkpt><trkpt lat="43.064821176539645" lon="11.5922518085346"><ele>337.57142857142856</ele><time>2026-04-11T17:49:30Z</time></trkpt><trkpt lat="43.06482126248603" lon="11.592346843883474"><ele>338.42857142857144</ele><time>2026-04-11T17:49:33Z</time></trkpt><trkpt lat="43.06481356694047" lon="11.592442010814493"><ele>339.2857142857143</ele><time>2026-04-11T17:49:36Z</time></trkpt><trkpt lat="43.06480609370764" lon="11.59253045458501"><ele>340.1428571428571</ele><time>2026-04-11T17:49:39Z</time></trkpt><trkpt lat="43.06478847084772" lon="11.592621226734302"><ele>341.0</ele><time>2026-04-11T17:49:42Z</time></trkpt><trkpt lat="43.064765414781334" lon="11.592711690122318"><ele>341.0</ele><time>2026-04-11T17:49:45Z</time></trkpt><trkpt lat="43.064743337768256" lon="11.592794546387285"><ele>341.0</ele><time>2026-04-11T17:49:48Z</time></trkpt><trkpt lat="43.06471870712416" lon="11.5928826186095"><ele>341.0</ele><time>2026-04-11T17:49:51Z</time></trkpt><trkpt lat="43.0646876812957" lon="11.592965810358814"><ele>341.0</ele><time>2026-04-11T17:49:54Z</time></trkpt><trkpt lat="43.06466197495561" lon="11.593048351546145"><ele>341.0</ele><time>2026-04-11T17:49:57Z</time></trkpt><trkpt lat="43.06462988239934" lon="11.59315449321363"><ele>341.0</ele><time>2026-04-11T17:50:01Z</time></trkpt><trkpt lat="43.06460955362198" lon="11.59323923835988"><ele>341.0</ele><time>2026-04-11T17:50:04Z</time></trkpt><trkpt lat="43.06458774764941" lon="11.593322171944958"><ele>342.0</ele><time>2026-04-11T17:50:07Z</time></trkpt><trkpt lat="43.06456797485105" lon="11.593411296859085"><ele>343.0</ele><time>2026-04-11T17:50:10Z</time></trkpt><trkpt lat="43.06455221985916" lon="11.593505070002038"><ele>344.0</ele><time>2026-04-11T17:50:13Z</time></trkpt><trkpt lat="43.064539854715335" lon="11.593601715232097"><ele>345.0</ele><time>2026-04-11T17:50:16Z</time></trkpt><trkpt lat="43.06452814132364" lon="11.593693676039221"><ele>346.0</ele><time>2026-04-11T17:50:19Z</time></trkpt><trkpt lat="43.064520041549876" lon="11.593790524529227"><ele>347.0</ele><time>2026-04-11T17:50:22Z</time></trkpt><trkpt lat="43.0645049942742" lon="11.593883540232383"><ele>348.0</ele><time>2026-04-11T17:50:25Z</time></trkpt><trkpt lat="43.06449517106022" lon="11.593970955450297"><ele>349.0</ele><time>2026-04-11T17:50:28Z</time></trkpt><trkpt lat="43.064480774025895" lon="11.594057621679536"><ele>350.0</ele><time>2026-04-11T17:50:31Z</time></trkpt><trkpt lat="43.06446771702394" lon="11.594167366276888"><ele>351.0</ele><time>2026-04-11T17:50:34.999Z</time></trkpt><trkpt lat="43.06445303494182" lon="11.594256434838618"><ele>352.0</ele><time>2026-04-11T17:50:37.999Z</time></trkpt><trkpt lat="43.06444134533548" lon="11.594342843416928"><ele>353.0</ele><time>2026-04-11T17:50:41Z</time></trkpt><trkpt lat="43.064425552322106" lon="11.594454236492604"><ele>354.0</ele><time>2026-04-11T17:50:45Z</time></trkpt><trkpt lat="43.06441621565453" lon="11.594567694434541"><ele>355.0</ele><time>2026-04-11T17:50:49Z</time></trkpt><trkpt lat="43.06440003452439" lon="11.594658428772137"><ele>356.0</ele><time>2026-04-11T17:50:52Z</time></trkpt><trkpt lat="43.06438847650931" lon="11.594752509942674"><ele>357.0</ele><time>2026-04-11T17:50:55Z</time></trkpt><trkpt lat="43.06438325054702" lon="11.594843669602948"><ele>358.0</ele><time>2026-04-11T17:50:58Z</time></trkpt><trkpt lat="43.06436621297025" lon="11.594934659120966"><ele>359.0</ele><time>2026-04-11T17:51:01Z</time></trkpt><trkpt lat="43.06434537978869" lon="11.595027575224039"><ele>360.0</ele><time>2026-04-11T17:51:04Z</time></trkpt><trkpt lat="43.06432376427968" lon="11.595117077386115"><ele>361.0</ele><time>2026-04-11T17:51:07Z</time></trkpt><trkpt lat="43.06429758487837" lon="11.595202747391584"><ele>362.0</ele><time>2026-04-11T17:51:10Z</time></trkpt><trkpt lat="43.06426139497871" lon="11.595278952637143"><ele>362.57142857142856</ele><time>2026-04-11T17:51:13Z</time></trkpt><trkpt lat="43.06422580890726" lon="11.595358571909985"><ele>363.1428571428571</ele><time>2026-04-11T17:51:16Z</time></trkpt><trkpt lat="43.064175236076885" lon="11.595425686444198"><ele>363.7142857142857</ele><time>2026-04-11T17:51:19Z</time></trkpt><trkpt lat="43.064126142886195" lon="11.595488976741288"><ele>364.2857142857143</ele><time>2026-04-11T17:51:22Z</time></trkpt><trkpt lat="43.06407391931426" lon="11.595564451632447"><ele>364.8571428571429</ele><time>2026-04-11T17:51:26Z</time></trkpt><trkpt lat="43.06403086733076" lon="11.595639095738862"><ele>365.42857142857144</ele><time>2026-04-11T17:51:30Z</time></trkpt><trkpt lat="43.06398167020258" lon="11.595701109815387"><ele>366.0</ele><time>2026-04-11T17:51:34Z</time></trkpt><trkpt lat="43.063933526860055" lon="11.59576532275414"><ele>366.0</ele><time>2026-04-11T17:51:38Z</time></trkpt><trkpt lat="43.063888124338746" lon="11.595833528228214"><ele>366.0</ele><time>2026-04-11T17:51:42Z</time></trkpt><trkpt lat="43.06384366729026" lon="11.595897597571549"><ele>366.0</ele><time>2026-04-11T17:51:46Z</time></trkpt><trkpt lat="43.06379228936407" lon="11.595971977487467"><ele>366.0</ele><time>2026-04-11T17:51:50Z</time></trkpt><trkpt lat="43.063747087105085" lon="11.596034155053163"><ele>366.0</ele><time>2026-04-11T17:51:53Z</time></trkpt><trkpt lat="43.063694751281005" lon="11.596114044838924"><ele>366.0</ele><time>2026-04-11T17:51:57Z</time></trkpt><trkpt lat="43.063639764415015" lon="11.59618843132627"><ele>366.0</ele><time>2026-04-11T17:52:01Z</time></trkpt><trkpt lat="43.06358659104498" lon="11.596269889849022"><ele>367.5</ele><time>2026-04-11T17:52:05Z</time></trkpt><trkpt lat="43.0635349219939" lon="11.596343146651193"><ele>369.0</ele><time>2026-04-11T17:52:09Z</time></trkpt><trkpt lat="43.06347825315197" lon="11.596417729482852"><ele>370.5</ele><time>2026-04-11T17:52:13Z</time></trkpt><trkpt lat="43.0634258880423" lon="11.5964941911173"><ele>372.0</ele><time>2026-04-11T17:52:17Z</time></trkpt><trkpt lat="43.06336875460265" lon="11.596567934157754"><ele>373.5</ele><time>2026-04-11T17:52:21Z</time></trkpt><trkpt lat="43.063304479676376" lon="11.596628965500075"><ele>375.0</ele><time>2026-04-11T17:52:25Z</time></trkpt><trkpt lat="43.06324472643459" lon="11.596695441168828"><ele>375.0</ele><time>2026-04-11T17:52:29Z</time></trkpt><trkpt lat="43.06318512657979" lon="11.596744011406773"><ele>375.0</ele><time>2026-04-11T17:52:32.999Z</time></trkpt><trkpt lat="43.06313115470818" lon="11.596795147820938"><ele>375.0</ele><time>2026-04-11T17:52:36.999Z</time></trkpt><trkpt lat="43.0630767554932" lon="11.59684442017027"><ele>375.0</ele><time>2026-04-11T17:52:40.999Z</time></trkpt><trkpt lat="43.063014673996875" lon="11.596890854550614"><ele>375.0</ele><time>2026-04-11T17:52:44.999Z</time></trkpt><trkpt lat="43.06295983369988" lon="11.596938023179371"><ele>375.0</ele><time>2026-04-11T17:52:49Z</time></trkpt><trkpt lat="43.062895699910854" lon="11.596977637165313"><ele>375.0</ele><time>2026-04-11T17:52:53Z</time></trkpt><trkpt lat="43.0628399416391" lon="11.597023881160998"><ele>375.5714285714286</ele><time>2026-04-11T17:52:56Z</time></trkpt><trkpt lat="43.0627814377866" lon="11.597065866640728"><ele>376.1428571428571</ele><time>2026-04-11T17:52:59Z</time></trkpt><trkpt lat="43.062723552990605" lon="11.597109333141852"><ele>376.7142857142857</ele><time>2026-04-11T17:53:02Z</time></trkpt><trkpt lat="43.06265439241722" lon="11.597170945138338"><ele>377.28571428571433</ele><time>2026-04-11T17:53:06Z</time></trkpt><trkpt lat="43.06258884811091" lon="11.597228000442382"><ele>377.8571428571429</ele><time>2026-04-11T17:53:10Z</time></trkpt><trkpt lat="43.06252239675864" lon="11.59728498291319"><ele>378.42857142857144</ele><time>2026-04-11T17:53:14Z</time></trkpt><trkpt lat="43.06245835951446" lon="11.59733712949287"><ele>379.0</ele><time>2026-04-11T17:53:18Z</time></trkpt><trkpt lat="43.06239119881853" lon="11.597386989489829"><ele>379.00000000000006</ele><time>2026-04-11T17:53:22Z</time></trkpt><trkpt lat="43.06231759688114" lon="11.597443927257471"><ele>379.0</ele><time>2026-04-11T17:53:26Z</time></trkpt><trkpt lat="43.06225820684244" lon="11.597494312046196"><ele>379.0</ele><time>2026-04-11T17:53:29Z</time></trkpt><trkpt lat="43.06220082611921" lon="11.59754060735746"><ele>379.0</ele><time>2026-04-11T17:53:32Z</time></trkpt><trkpt lat="43.06214036453739" lon="11.597586459746084"><ele>379.0</ele><time>2026-04-11T17:53:35Z</time></trkpt><trkpt lat="43.06207372243364" lon="11.597633253043696"><ele>379.00000000000006</ele><time>2026-04-11T17:53:38Z</time></trkpt><trkpt lat="43.06201213295901" lon="11.597696708535416"><ele>379.0</ele><time>2026-04-11T17:53:41Z</time></trkpt><trkpt lat="43.06194203286955" lon="11.5977647082619"><ele>380.16666666666663</ele><time>2026-04-11T17:53:44Z</time></trkpt><trkpt lat="43.061882137029926" lon="11.597862771756652"><ele>381.3333333333333</ele><time>2026-04-11T17:53:47Z</time></trkpt><trkpt lat="43.061826970784324" lon="11.59796045828632"><ele>382.5</ele><time>2026-04-11T17:53:50Z</time></trkpt><trkpt lat="43.06179101790293" lon="11.598033471735395"><ele>383.66666666666663</ele><time>2026-04-11T17:53:52Z</time></trkpt><trkpt lat="43.061755565950676" lon="11.598113083361293"><ele>384.8333333333333</ele><time>2026-04-11T17:53:54Z</time></trkpt><trkpt lat="43.06172571371144" lon="11.598200450851873"><ele>386.0</ele><time>2026-04-11T17:53:56Z</time></trkpt><trkpt lat="43.06170384439554" lon="11.598295011477555"><ele>385.99999999999994</ele><time>2026-04-11T17:53:58Z</time></trkpt><trkpt lat="43.06168249436973" lon="11.598389151544188"><ele>386.0</ele><time>2026-04-11T17:54:00Z</time></trkpt><trkpt lat="43.061666312976115" lon="11.598491611787939"><ele>386.0</ele><time>2026-04-11T17:54:02Z</time></trkpt><trkpt lat="43.06165502419992" lon="11.598598603886877"><ele>386.0</ele><time>2026-04-11T17:54:04Z</time></trkpt><trkpt lat="43.06164333911083" lon="11.598716173405748"><ele>385.99999999999994</ele><time>2026-04-11T17:54:06Z</time></trkpt><trkpt lat="43.06162756047609" lon="11.598829794947198"><ele>386.0</ele><time>2026-04-11T17:54:08Z</time></trkpt><trkpt lat="43.06162696590219" lon="11.598942344401303"><ele>385.8333333333333</ele><time>2026-04-11T17:54:10Z</time></trkpt><trkpt lat="43.06161721225858" lon="11.599053954733483"><ele>385.66666666666663</ele><time>2026-04-11T17:54:12Z</time></trkpt><trkpt lat="43.06160729594552" lon="11.599163889192289"><ele>385.5</ele><time>2026-04-11T17:54:14Z</time></trkpt><trkpt lat="43.061585411821014" lon="11.599268434407794"><ele>385.33333333333337</ele><time>2026-04-11T17:54:16Z</time></trkpt><trkpt lat="43.06157787359349" lon="11.59937445552361"><ele>385.1666666666667</ele><time>2026-04-11T17:54:18Z</time></trkpt><trkpt lat="43.06156807094297" lon="11.5994834715133"><ele>385.0</ele><time>2026-04-11T17:54:20Z</time></trkpt><trkpt lat="43.061555847231716" lon="11.599590724414258"><ele>383.50000000000006</ele><time>2026-04-11T17:54:22Z</time></trkpt><trkpt lat="43.06152830853357" lon="11.59969663583126"><ele>382.0</ele><time>2026-04-11T17:54:24Z</time></trkpt><trkpt lat="43.061497885901936" lon="11.599795263828561"><ele>380.5</ele><time>2026-04-11T17:54:26Z</time></trkpt><trkpt lat="43.06145746521127" lon="11.599893019628915"><ele>379.0</ele><time>2026-04-11T17:54:28Z</time></trkpt><trkpt lat="43.061422911921014" lon="11.59998894732247"><ele>377.5</ele><time>2026-04-11T17:54:30Z</time></trkpt><trkpt lat="43.06138625066818" lon="11.600069482171435"><ele>376.0</ele><time>2026-04-11T17:54:32Z</time></trkpt><trkpt lat="43.06135579475584" lon="11.600163184122929"><ele>376.0</ele><time>2026-04-11T17:54:35Z</time></trkpt><trkpt lat="43.06132005487969" lon="11.60024391298639"><ele>376.0</ele><time>2026-04-11T17:54:38Z</time></trkpt><trkpt lat="43.0612875843734" lon="11.60032075264403"><ele>376.0</ele><time>2026-04-11T17:54:41Z</time></trkpt><trkpt lat="43.061251575619245" lon="11.600391725789445"><ele>376.0</ele><time>2026-04-11T17:54:43.999Z</time></trkpt><trkpt lat="43.06122380871429" lon="11.60048259970918"><ele>376.0</ele><time>2026-04-11T17:54:47.999Z</time></trkpt><trkpt lat="43.06119214668149" lon="11.60056965841594"><ele>376.0</ele><time>2026-04-11T17:54:52Z</time></trkpt><trkpt lat="43.06115658004816" lon="11.60066289565904"><ele>376.0</ele><time>2026-04-11T17:54:56Z</time></trkpt><trkpt lat="43.06111674209183" lon="11.600754552124211"><ele>377.3333333333333</ele><time>2026-04-11T17:55:00Z</time></trkpt><trkpt lat="43.06108416700326" lon="11.60085054817024"><ele>378.66666666666663</ele><time>2026-04-11T17:55:04Z</time></trkpt><trkpt lat="43.061039430070736" lon="11.600949654503248"><ele>380.0</ele><time>2026-04-11T17:55:08Z</time></trkpt><trkpt lat="43.06100644648103" lon="11.601034231116003"><ele>381.3333333333333</ele><time>2026-04-11T17:55:11Z</time></trkpt><trkpt lat="43.060974926679506" lon="11.601119220075505"><ele>382.6666666666667</ele><time>2026-04-11T17:55:14Z</time></trkpt><trkpt lat="43.06094186630575" lon="11.601203539906496"><ele>384.0</ele><time>2026-04-11T17:55:17Z</time></trkpt><trkpt lat="43.06090270573126" lon="11.601298353249396"><ele>385.2857142857143</ele><time>2026-04-11T17:55:20Z</time></trkpt><trkpt lat="43.06084856107539" lon="11.601369311759562"><ele>386.57142857142856</ele><time>2026-04-11T17:55:23Z</time></trkpt><trkpt lat="43.06079090939378" lon="11.601437383929477"><ele>387.8571428571429</ele><time>2026-04-11T17:55:26Z</time></trkpt><trkpt lat="43.060726065950234" lon="11.601489492709725"><ele>389.1428571428571</ele><time>2026-04-11T17:55:29Z</time></trkpt><trkpt lat="43.06066039723753" lon="11.60154297710104"><ele>390.42857142857144</ele><time>2026-04-11T17:55:32Z</time></trkpt><trkpt lat="43.06060968964054" lon="11.60160229023442"><ele>391.7142857142857</ele><time>2026-04-11T17:55:35Z</time></trkpt><trkpt lat="43.06055372097644" lon="11.601679172996864"><ele>393.0</ele><time>2026-04-11T17:55:40Z</time></trkpt><trkpt lat="43.06058084761953" lon="11.601772296810186"><ele>393.5714285714286</ele><time>2026-04-11T17:55:43Z</time></trkpt><trkpt lat="43.060629952157505" lon="11.601848088000569"><ele>394.14285714285717</ele><time>2026-04-11T17:55:46Z</time></trkpt><trkpt lat="43.060674751106845" lon="11.601918956711346"><ele>394.7142857142857</ele><time>2026-04-11T17:55:49Z</time></trkpt><trkpt lat="43.060720218350816" lon="11.601982688226478"><ele>395.28571428571433</ele><time>2026-04-11T17:55:52Z</time></trkpt><trkpt lat="43.060755283692835" lon="11.602064693371904"><ele>395.85714285714283</ele><time>2026-04-11T17:55:55Z</time></trkpt><trkpt lat="43.060791091041445" lon="11.602150258246862"><ele>396.42857142857144</ele><time>2026-04-11T17:55:58Z</time></trkpt><trkpt lat="43.06081924878164" lon="11.602239040003024"><ele>397.0</ele><time>2026-04-11T17:56:01Z</time></trkpt><trkpt lat="43.060839374779675" lon="11.602327325734143"><ele>397.6666666666667</ele><time>2026-04-11T17:56:04Z</time></trkpt><trkpt lat="43.0608513342557" lon="11.602429538995567"><ele>398.33333333333337</ele><time>2026-04-11T17:56:07Z</time></trkpt><trkpt lat="43.060865401036594" lon="11.602533268761311"><ele>399.0</ele><time>2026-04-11T17:56:10Z</time></trkpt><trkpt lat="43.06088105557361" lon="11.602635015034888"><ele>399.66666666666663</ele><time>2026-04-11T17:56:13Z</time></trkpt><trkpt lat="43.060891820741574" lon="11.602739918635303"><ele>400.3333333333333</ele><time>2026-04-11T17:56:16Z</time></trkpt><trkpt lat="43.06090861583988" lon="11.602837581400296"><ele>401.0</ele><time>2026-04-11T17:56:19Z</time></trkpt><trkpt lat="43.06092177925556" lon="11.602932977572706"><ele>402.16666666666663</ele><time>2026-04-11T17:56:22Z</time></trkpt><trkpt lat="43.060939464546166" lon="11.603020058886091"><ele>403.3333333333333</ele><time>2026-04-11T17:56:25Z</time></trkpt><trkpt lat="43.06094021521203" lon="11.603133485998052"><ele>404.5</ele><time>2026-04-11T17:56:29Z</time></trkpt><trkpt lat="43.06094339250693" lon="11.603239991280093"><ele>405.66666666666663</ele><time>2026-04-11T17:56:33Z</time></trkpt><trkpt lat="43.06094231297278" lon="11.603340548613762"><ele>406.8333333333333</ele><time>2026-04-11T17:56:37Z</time></trkpt><trkpt lat="43.06094718249324" lon="11.603444912839993"><ele>408.0</ele><time>2026-04-11T17:56:41Z</time></trkpt><trkpt lat="43.06094569092494" lon="11.603552506708427"><ele>408.0</ele><time>2026-04-11T17:56:45Z</time></trkpt><trkpt lat="43.06093890417797" lon="11.603656331985654"><ele>408.0</ele><time>2026-04-11T17:56:48Z</time></trkpt><trkpt lat="43.060938704998804" lon="11.603756830655165"><ele>408.0</ele><time>2026-04-11T17:56:51Z</time></trkpt><trkpt lat="43.060933861570696" lon="11.603864053077206"><ele>408.0</ele><time>2026-04-11T17:56:53.999Z</time></trkpt><trkpt lat="43.06092086700214" lon="11.603968697174595"><ele>408.0</ele><time>2026-04-11T17:56:56.999Z</time></trkpt><trkpt lat="43.06091952752235" lon="11.604097839723313"><ele>408.0</ele><time>2026-04-11T17:57:00Z</time></trkpt><trkpt lat="43.06091683420846" lon="11.604221167125848"><ele>408.1666666666667</ele><time>2026-04-11T17:57:03Z</time></trkpt><trkpt lat="43.06092069719305" lon="11.604307423578323"><ele>408.33333333333337</ele><time>2026-04-11T17:57:05Z</time></trkpt><trkpt lat="43.06092954552974" lon="11.604405232719392"><ele>408.5</ele><time>2026-04-11T17:57:07Z</time></trkpt><trkpt lat="43.060933305028826" lon="11.60450817994789"><ele>408.6666666666667</ele><time>2026-04-11T17:57:09Z</time></trkpt><trkpt lat="43.06092971828849" lon="11.604618017475698"><ele>408.83333333333337</ele><time>2026-04-11T17:57:11Z</time></trkpt><trkpt lat="43.060932793713285" lon="11.604731032803542"><ele>409.0</ele><time>2026-04-11T17:57:13Z</time></trkpt><trkpt lat="43.06094018894945" lon="11.604844876405652"><ele>409.00000000000006</ele><time>2026-04-11T17:57:15Z</time></trkpt><trkpt lat="43.0609480966238" lon="11.604959559471283"><ele>409.0</ele><time>2026-04-11T17:57:17Z</time></trkpt><trkpt lat="43.06095486475299" lon="11.605068940463292"><ele>409.0</ele><time>2026-04-11T17:57:19Z</time></trkpt><trkpt lat="43.060953497404114" lon="11.605177004525325"><ele>409.0</ele><time>2026-04-11T17:57:21Z</time></trkpt><trkpt lat="43.06094425308103" lon="11.605283988869632"><ele>409.00000000000006</ele><time>2026-04-11T17:57:23Z</time></trkpt><trkpt lat="43.06091844005885" lon="11.605378412902036"><ele>409.0</ele><time>2026-04-11T17:57:25Z</time></trkpt><trkpt lat="43.060887727627076" lon="11.605462614383407"><ele>408.2857142857143</ele><time>2026-04-11T17:57:27Z</time></trkpt><trkpt lat="43.060864438803605" lon="11.605545828248639"><ele>407.5714285714286</ele><time>2026-04-11T17:57:29Z</time></trkpt><trkpt lat="43.06083231831376" lon="11.605620973410778"><ele>406.8571428571429</ele><time>2026-04-11T17:57:31Z</time></trkpt><trkpt lat="43.06078692158804" lon="11.605710491083638"><ele>406.1428571428571</ele><time>2026-04-11T17:57:34Z</time></trkpt><trkpt lat="43.06074413200456" lon="11.605800690469314"><ele>405.42857142857144</ele><time>2026-04-11T17:57:38Z</time></trkpt><trkpt lat="43.060711283335806" lon="11.605876351924792"><ele>404.7142857142857</ele><time>2026-04-11T17:57:41Z</time></trkpt><trkpt lat="43.06063513042116" lon="11.605920684185486"><ele>404.0</ele><time>2026-04-11T17:57:45Z</time></trkpt><trkpt lat="43.06055456511721" lon="11.605927827370895"><ele>404.0</ele><time>2026-04-11T17:57:48Z</time></trkpt><trkpt lat="43.06046541489679" lon="11.605920905747015"><ele>404.0</ele><time>2026-04-11T17:57:50Z</time></trkpt><trkpt lat="43.06036434850434" lon="11.60590286732539"><ele>404.0</ele><time>2026-04-11T17:57:52Z</time></trkpt><trkpt lat="43.060263401801365" lon="11.605881332494741"><ele>404.0</ele><time>2026-04-11T17:57:54Z</time></trkpt><trkpt lat="43.06019360441332" lon="11.605853729146734"><ele>404.0</ele><time>2026-04-11T17:57:56Z</time></trkpt><trkpt lat="43.060102144112115" lon="11.605826456569915"><ele>403.99999999999994</ele><time>2026-04-11T17:57:59Z</time></trkpt><trkpt lat="43.06003374243112" lon="11.60580074069005"><ele>404.0</ele><time>2026-04-11T17:58:02Z</time></trkpt><trkpt lat="43.059948821071906" lon="11.60577187959401"><ele>404.0</ele><time>2026-04-11T17:58:05Z</time></trkpt><trkpt lat="43.05987619550883" lon="11.605780882280499"><ele>404.0</ele><time>2026-04-11T17:58:07Z</time></trkpt><trkpt lat="43.05979283876801" lon="11.605799146599917"><ele>403.99999999999994</ele><time>2026-04-11T17:58:09Z</time></trkpt><trkpt lat="43.05969602141062" lon="11.605817564015885"><ele>404.0</ele><time>2026-04-11T17:58:11Z</time></trkpt><trkpt lat="43.05959401769426" lon="11.605865494411075"><ele>404.6</ele><time>2026-04-11T17:58:13Z</time></trkpt><trkpt lat="43.05949611981404" lon="11.605936466382095"><ele>405.2</ele><time>2026-04-11T17:58:15Z</time></trkpt><trkpt lat="43.05940188463313" lon="11.60601075103359"><ele>405.8</ele><time>2026-04-11T17:58:17Z</time></trkpt><trkpt lat="43.05931010792494" lon="11.606081051005347"><ele>406.40000000000003</ele><time>2026-04-11T17:58:19Z</time></trkpt><trkpt lat="43.05922865678305" lon="11.60615044859502"><ele>407.0</ele><time>2026-04-11T17:58:21Z</time></trkpt><trkpt lat="43.059144879596" lon="11.606215840414368"><ele>407.40000000000003</ele><time>2026-04-11T17:58:23Z</time></trkpt><trkpt lat="43.059062577586" lon="11.606281189130502"><ele>407.8</ele><time>2026-04-11T17:58:25Z</time></trkpt><trkpt lat="43.05897807592549" lon="11.606342343322366"><ele>408.2</ele><time>2026-04-11T17:58:27Z</time></trkpt><trkpt lat="43.058902366134134" lon="11.606413164138349"><ele>408.6</ele><time>2026-04-11T17:58:29Z</time></trkpt><trkpt lat="43.05883041271844" lon="11.606477426126052"><ele>409.0</ele><time>2026-04-11T17:58:31Z</time></trkpt><trkpt lat="43.05876276954944" lon="11.60653938674305"><ele>409.0</ele><time>2026-04-11T17:58:33Z</time></trkpt><trkpt lat="43.05870224714447" lon="11.606599120485637"><ele>409.0</ele><time>2026-04-11T17:58:35Z</time></trkpt><trkpt lat="43.05863857064039" lon="11.606641399595707"><ele>409.0</ele><time>2026-04-11T17:58:37Z</time></trkpt><trkpt lat="43.058565457457114" lon="11.606704336478906"><ele>409.0</ele><time>2026-04-11T17:58:40Z</time></trkpt><trkpt lat="43.058504348457014" lon="11.606765584283252"><ele>409.0</ele><time>2026-04-11T17:58:43Z</time></trkpt><trkpt lat="43.05844761363402" lon="11.606820613286498"><ele>409.0</ele><time>2026-04-11T17:58:46Z</time></trkpt><trkpt lat="43.05839042746253" lon="11.606859881706077"><ele>409.0</ele><time>2026-04-11T17:58:49Z</time></trkpt><trkpt lat="43.058324080718904" lon="11.60692300336743"><ele>408.85714285714283</ele><time>2026-04-11T17:58:53Z</time></trkpt><trkpt lat="43.05825811000782" lon="11.606974994659273"><ele>408.7142857142857</ele><time>2026-04-11T17:58:57Z</time></trkpt><trkpt lat="43.05819732606517" lon="11.60700947662792"><ele>408.57142857142856</ele><time>2026-04-11T17:59:00.999Z</time></trkpt><trkpt lat="43.05812158744303" lon="11.607007182663933"><ele>408.42857142857144</ele><time>2026-04-11T17:59:05Z</time></trkpt><trkpt lat="43.058058018982486" lon="11.606968659955866"><ele>408.28571428571433</ele><time>2026-04-11T17:59:09Z</time></trkpt><trkpt lat="43.05799442146167" lon="11.606905110907997"><ele>408.14285714285717</ele><time>2026-04-11T17:59:13Z</time></trkpt><trkpt lat="43.05794517643252" lon="11.606820041759804"><ele>408.0</ele><time>2026-04-11T17:59:16Z</time></trkpt><trkpt lat="43.057890772820244" lon="11.60675413951861"><ele>408.0</ele><time>2026-04-11T17:59:19Z</time></trkpt><trkpt lat="43.05784142068241" lon="11.60665736965951"><ele>408.0</ele><time>2026-04-11T17:59:23Z</time></trkpt><trkpt lat="43.05778988149769" lon="11.606584133555025"><ele>408.0</ele><time>2026-04-11T17:59:26Z</time></trkpt><trkpt lat="43.05774434170743" lon="11.606515291668531"><ele>408.0</ele><time>2026-04-11T17:59:29Z</time></trkpt><trkpt lat="43.05770481478555" lon="11.606428704373432"><ele>408.0</ele><time>2026-04-11T17:59:32Z</time></trkpt><trkpt lat="43.05767370983602" lon="11.606343590740417"><ele>408.0</ele><time>2026-04-11T17:59:35Z</time></trkpt><trkpt lat="43.05765140537574" lon="11.606256066067553"><ele>408.0</ele><time>2026-04-11T17:59:38Z</time></trkpt><trkpt lat="43.057618672911694" lon="11.606175108479176"><ele>408.2857142857143</ele><time>2026-04-11T17:59:41Z</time></trkpt><trkpt lat="43.057590978630735" lon="11.606094011621108"><ele>408.57142857142856</ele><time>2026-04-11T17:59:44Z</time></trkpt><trkpt lat="43.057562433858664" lon="11.60599996700727"><ele>408.8571428571429</ele><time>2026-04-11T17:59:47Z</time></trkpt><trkpt lat="43.05751456625308" lon="11.605923950148112"><ele>409.1428571428571</ele><time>2026-04-11T17:59:50Z</time></trkpt><trkpt lat="43.05749420541489" lon="11.605831539822509"><ele>409.4285714285714</ele><time>2026-04-11T17:59:53Z</time></trkpt><trkpt lat="43.057461777765475" lon="11.60574876025338"><ele>409.7142857142857</ele><time>2026-04-11T17:59:56Z</time></trkpt><trkpt lat="43.05743685019146" lon="11.605662894348555"><ele>410.0</ele><time>2026-04-11T17:59:59Z</time></trkpt><trkpt lat="43.05740983757679" lon="11.605577234395525"><ele>409.99999999999994</ele><time>2026-04-11T18:00:02Z</time></trkpt><trkpt lat="43.05737823076087" lon="11.605495659820429"><ele>410.0</ele><time>2026-04-11T18:00:05Z</time></trkpt><trkpt lat="43.057336893673906" lon="11.605379725025179"><ele>410.0</ele><time>2026-04-11T18:00:09Z</time></trkpt><trkpt lat="43.05728766171122" lon="11.605285583068845"><ele>410.0</ele><time>2026-04-11T18:00:13Z</time></trkpt><trkpt lat="43.05725733706026" lon="11.605196276013672"><ele>409.99999999999994</ele><time>2026-04-11T18:00:16Z</time></trkpt><trkpt lat="43.05722884098485" lon="11.605117488950459"><ele>410.0</ele><time>2026-04-11T18:00:19Z</time></trkpt><trkpt lat="43.05719619822728" lon="11.605034102351304"><ele>410.7142857142857</ele><time>2026-04-11T18:00:22Z</time></trkpt><trkpt lat="43.05716937866664" lon="11.604945525333266"><ele>411.4285714285714</ele><time>2026-04-11T18:00:25Z</time></trkpt><trkpt lat="43.05713849280636" lon="11.60486290225724"><ele>412.1428571428571</ele><time>2026-04-11T18:00:28Z</time></trkpt><trkpt lat="43.05710984176684" lon="11.604780699640443"><ele>412.8571428571429</ele><time>2026-04-11T18:00:31Z</time></trkpt><trkpt lat="43.05706678584406" lon="11.604698582301767"><ele>413.57142857142856</ele><time>2026-04-11T18:00:34Z</time></trkpt><trkpt lat="43.05700857543826" lon="11.604632049801486"><ele>414.2857142857143</ele><time>2026-04-11T18:00:37Z</time></trkpt><trkpt lat="43.05695677512729" lon="11.604578679935038"><ele>415.0</ele><time>2026-04-11T18:00:40Z</time></trkpt><trkpt lat="43.056920965735735" lon="11.604480136082719"><ele>415.14285714285717</ele><time>2026-04-11T18:00:43Z</time></trkpt><trkpt lat="43.056877072120535" lon="11.604408579337187"><ele>415.28571428571433</ele><time>2026-04-11T18:00:46Z</time></trkpt><trkpt lat="43.056831295035906" lon="11.604337940806577"><ele>415.42857142857144</ele><time>2026-04-11T18:00:49Z</time></trkpt><trkpt lat="43.056784773695945" lon="11.6042631674467"><ele>415.57142857142856</ele><time>2026-04-11T18:00:52Z</time></trkpt><trkpt lat="43.05673936721322" lon="11.60418276849396"><ele>415.7142857142857</ele><time>2026-04-11T18:00:55Z</time></trkpt><trkpt lat="43.056696058069555" lon="11.604101015803977"><ele>415.85714285714283</ele><time>2026-04-11T18:00:58Z</time></trkpt><trkpt lat="43.05665029457068" lon="11.60402046352218"><ele>416.0</ele><time>2026-04-11T18:01:01Z</time></trkpt><trkpt lat="43.05661276959058" lon="11.603942971703145"><ele>416.0</ele><time>2026-04-11T18:01:04Z</time></trkpt><trkpt lat="43.05656920801148" lon="11.603865238521264"><ele>416.0</ele><time>2026-04-11T18:01:06.999Z</time></trkpt><trkpt lat="43.05652466997096" lon="11.603794346722566"><ele>416.0</ele><time>2026-04-11T18:01:10Z</time></trkpt><trkpt lat="43.05647461731416" lon="11.603723433323864"><ele>416.0</ele><time>2026-04-11T18:01:13Z</time></trkpt><trkpt lat="43.05642179600029" lon="11.603659842423825"><ele>416.0</ele><time>2026-04-11T18:01:16Z</time></trkpt><trkpt lat="43.05635729077085" lon="11.603604792461793"><ele>416.0</ele><time>2026-04-11T18:01:19Z</time></trkpt><trkpt lat="43.05630552253119" lon="11.603549866326176"><ele>416.0</ele><time>2026-04-11T18:01:22Z</time></trkpt><trkpt lat="43.05625670217277" lon="11.603490075317431"><ele>416.7142857142857</ele><time>2026-04-11T18:01:25Z</time></trkpt><trkpt lat="43.0562067786798" lon="11.603425539255591"><ele>417.42857142857144</ele><time>2026-04-11T18:01:28Z</time></trkpt><trkpt lat="43.056151419742456" lon="11.603362289330603"><ele>418.14285714285717</ele><time>2026-04-11T18:01:31Z</time></trkpt><trkpt lat="43.05609862013093" lon="11.603303186989576"><ele>418.8571428571429</ele><time>2026-04-11T18:01:34Z</time></trkpt><trkpt lat="43.05604670952125" lon="11.603241888143799"><ele>419.57142857142856</ele><time>2026-04-11T18:01:37Z</time></trkpt><trkpt lat="43.055992087140694" lon="11.603189850484089"><ele>420.28571428571433</ele><time>2026-04-11T18:01:40Z</time></trkpt><trkpt lat="43.05593580089844" lon="11.603138197737731"><ele>421.0</ele><time>2026-04-11T18:01:43Z</time></trkpt><trkpt lat="43.05587974178575" lon="11.603073775532945"><ele>421.00000000000006</ele><time>2026-04-11T18:01:46Z</time></trkpt><trkpt lat="43.055829572043564" lon="11.60300926318415"><ele>421.0</ele><time>2026-04-11T18:01:49Z</time></trkpt><trkpt lat="43.05577137338038" lon="11.60295585734472"><ele>421.0</ele><time>2026-04-11T18:01:52Z</time></trkpt><trkpt lat="43.05571506753059" lon="11.602899943422909"><ele>421.0</ele><time>2026-04-11T18:01:55Z</time></trkpt><trkpt lat="43.05566264786667" lon="11.602849048969766"><ele>421.0</ele><time>2026-04-11T18:01:58Z</time></trkpt><trkpt lat="43.05560854385836" lon="11.602790807743462"><ele>421.00000000000006</ele><time>2026-04-11T18:02:01Z</time></trkpt><trkpt lat="43.05555278018461" lon="11.602734547121768"><ele>421.0</ele><time>2026-04-11T18:02:04Z</time></trkpt><trkpt lat="43.05548600815937" lon="11.602657119129162"><ele>421.8571428571429</ele><time>2026-04-11T18:02:08Z</time></trkpt><trkpt lat="43.05543268056712" lon="11.602600558609383"><ele>422.7142857142857</ele><time>2026-04-11T18:02:11Z</time></trkpt><trkpt lat="43.055382588769554" lon="11.602537754672252"><ele>423.57142857142856</ele><time>2026-04-11T18:02:15Z</time></trkpt><trkpt lat="43.05531441115246" lon="11.60246621714084"><ele>424.42857142857144</ele><time>2026-04-11T18:02:19Z</time></trkpt><trkpt lat="43.05524508236774" lon="11.602412814712117"><ele>425.2857142857143</ele><time>2026-04-11T18:02:22Z</time></trkpt><trkpt lat="43.055191523961376" lon="11.60234249880947"><ele>426.14285714285717</ele><time>2026-04-11T18:02:25Z</time></trkpt><trkpt lat="43.055140262008834" lon="11.602269404345629"><ele>427.0</ele><time>2026-04-11T18:02:28Z</time></trkpt><trkpt lat="43.05507340062042" lon="11.602206042957794"><ele>427.00000000000006</ele><time>2026-04-11T18:02:32Z</time></trkpt><trkpt lat="43.055026020479076" lon="11.602148603949688"><ele>427.0</ele><time>2026-04-11T18:02:35Z</time></trkpt><trkpt lat="43.05496249645462" lon="11.602089111918492"><ele>427.0</ele><time>2026-04-11T18:02:39Z</time></trkpt><trkpt lat="43.05489741601381" lon="11.602029670270019"><ele>427.0</ele><time>2026-04-11T18:02:43Z</time></trkpt><trkpt lat="43.05483209962277" lon="11.601979378518788"><ele>427.00000000000006</ele><time>2026-04-11T18:02:46Z</time></trkpt><trkpt lat="43.05476113541274" lon="11.601927975887952"><ele>427.0</ele><time>2026-04-11T18:02:49Z</time></trkpt><trkpt lat="43.054684440183266" lon="11.601879815849786"><ele>427.50000000000006</ele><time>2026-04-11T18:02:53Z</time></trkpt><trkpt lat="43.054608287558274" lon="11.601843276934385"><ele>428.0</ele><time>2026-04-11T18:02:56Z</time></trkpt><trkpt lat="43.05453134057083" lon="11.601813484886897"><ele>428.5</ele><time>2026-04-11T18:02:59.999Z</time></trkpt><trkpt lat="43.05445634052928" lon="11.601791076453967"><ele>429.0</ele><time>2026-04-11T18:03:02.999Z</time></trkpt><trkpt lat="43.05437200544612" lon="11.601756410589193"><ele>429.50000000000006</ele><time>2026-04-11T18:03:05.999Z</time></trkpt><trkpt lat="43.05429912400962" lon="11.60172247609651"><ele>430.0</ele><time>2026-04-11T18:03:08.999Z</time></trkpt><trkpt lat="43.05422645659968" lon="11.601689714979669"><ele>430.00000000000006</ele><time>2026-04-11T18:03:11.999Z</time></trkpt><trkpt lat="43.05414985167302" lon="11.601662621230497"><ele>430.0</ele><time>2026-04-11T18:03:16Z</time></trkpt><trkpt lat="43.054069329457406" lon="11.60161940926222"><ele>430.0</ele><time>2026-04-11T18:03:20Z</time></trkpt><trkpt lat="43.05400708508349" lon="11.601568917936254"><ele>430.0</ele><time>2026-04-11T18:03:23Z</time></trkpt><trkpt lat="43.053946650362434" lon="11.601536513759793"><ele>430.00000000000006</ele><time>2026-04-11T18:06:25Z</time></trkpt><trkpt lat="43.053886159212205" lon="11.601479090506887"><ele>430.0</ele><time>2026-04-11T18:06:29Z</time></trkpt><trkpt lat="43.05381853678624" lon="11.60142916651534"><ele>430.1666666666667</ele><time>2026-04-11T18:06:33Z</time></trkpt><trkpt lat="43.05375913625752" lon="11.6013903986601"><ele>430.33333333333337</ele><time>2026-04-11T18:06:36Z</time></trkpt><trkpt lat="43.05368278078954" lon="11.601323674639888"><ele>430.5</ele><time>2026-04-11T18:06:39Z</time></trkpt><trkpt lat="43.05361267028445" lon="11.601287547822606"><ele>430.66666666666663</ele><time>2026-04-11T18:06:42Z</time></trkpt><trkpt lat="43.05354101566243" lon="11.601235112211343"><ele>430.8333333333333</ele><time>2026-04-11T18:06:45Z</time></trkpt><trkpt lat="43.0534568638561" lon="11.601166472923314"><ele>431.0</ele><time>2026-04-11T18:06:48Z</time></trkpt><trkpt lat="43.053402011834976" lon="11.601122596579902"><ele>431.0</ele><time>2026-04-11T18:06:50Z</time></trkpt><trkpt lat="43.05333491047201" lon="11.601081252797155"><ele>431.0</ele><time>2026-04-11T18:06:52Z</time></trkpt><trkpt lat="43.053279968222945" lon="11.601021793501573"><ele>431.0</ele><time>2026-04-11T18:06:54Z</time></trkpt><trkpt lat="43.05321737506367" lon="11.600976484148745"><ele>431.0</ele><time>2026-04-11T18:06:56Z</time></trkpt><trkpt lat="43.0531638191327" lon="11.600921874477367"><ele>431.0</ele><time>2026-04-11T18:06:58Z</time></trkpt><trkpt lat="43.05310983217636" lon="11.600868205881811"><ele>431.0</ele><time>2026-04-11T18:07:00Z</time></trkpt><trkpt lat="43.05305939781471" lon="11.600804355780964"><ele>431.0</ele><time>2026-04-11T18:07:02Z</time></trkpt><trkpt lat="43.052990585342634" lon="11.600747679062668"><ele>430.0</ele><time>2026-04-11T18:07:04Z</time></trkpt><trkpt lat="43.052934641790785" lon="11.600707174852593"><ele>429.0</ele><time>2026-04-11T18:07:06Z</time></trkpt><trkpt lat="43.05285993076252" lon="11.600604856735051"><ele>428.0</ele><time>2026-04-11T18:07:08Z</time></trkpt><trkpt lat="43.052790149439545" lon="11.600517931983866"><ele>427.0</ele><time>2026-04-11T18:07:09.999Z</time></trkpt><trkpt lat="43.05273080571628" lon="11.600410995245984"><ele>426.0</ele><time>2026-04-11T18:07:11.999Z</time></trkpt><trkpt lat="43.05267180727738" lon="11.600304706174155"><ele>426.0</ele><time>2026-04-11T18:07:13.999Z</time></trkpt><trkpt lat="43.05261787785222" lon="11.600188551220683"><ele>426.0</ele><time>2026-04-11T18:07:15.999Z</time></trkpt><trkpt lat="43.05255178951876" lon="11.600081130051715"><ele>426.0</ele><time>2026-04-11T18:07:17.999Z</time></trkpt><trkpt lat="43.05248542464101" lon="11.599979811848863"><ele>426.0</ele><time>2026-04-11T18:07:19.999Z</time></trkpt><trkpt lat="43.052415872057146" lon="11.599904338632408"><ele>426.0</ele><time>2026-04-11T18:07:21.999Z</time></trkpt><trkpt lat="43.05234415383944" lon="11.599827637009508"><ele>425.6</ele><time>2026-04-11T18:07:23.999Z</time></trkpt><trkpt lat="43.05225600481997" lon="11.599760812743675"><ele>425.20000000000005</ele><time>2026-04-11T18:07:25.999Z</time></trkpt><trkpt lat="43.05215558375885" lon="11.599695401157879"><ele>424.79999999999995</ele><time>2026-04-11T18:07:28Z</time></trkpt><trkpt lat="43.05206603158045" lon="11.599620625027217"><ele>424.4</ele><time>2026-04-11T18:07:30Z</time></trkpt><trkpt lat="43.051972113774156" lon="11.59955829621983"><ele>424.0</ele><time>2026-04-11T18:07:32Z</time></trkpt><trkpt lat="43.051859981011425" lon="11.599498515329346"><ele>424.0</ele><time>2026-04-11T18:07:34Z</time></trkpt><trkpt lat="43.051756467289785" lon="11.59944367571957"><ele>424.0</ele><time>2026-04-11T18:07:36Z</time></trkpt><trkpt lat="43.051660501100216" lon="11.599397506444026"><ele>424.0</ele><time>2026-04-11T18:07:38Z</time></trkpt><trkpt lat="43.05155932823416" lon="11.599366838984475"><ele>424.0</ele><time>2026-04-11T18:07:40Z</time></trkpt><trkpt lat="43.05145706897512" lon="11.599363521099843"><ele>424.0</ele><time>2026-04-11T18:07:42Z</time></trkpt><trkpt lat="43.05134895394787" lon="11.599379832337975"><ele>424.50000000000006</ele><time>2026-04-11T18:07:44Z</time></trkpt><trkpt lat="43.05126310895544" lon="11.599353240997328"><ele>425.0</ele><time>2026-04-11T18:07:46Z</time></trkpt><trkpt lat="43.05116530301205" lon="11.599399335723243"><ele>425.5</ele><time>2026-04-11T18:07:48Z</time></trkpt><trkpt lat="43.051095989451966" lon="11.599423797261931"><ele>426.0</ele><time>2026-04-11T18:07:50Z</time></trkpt><trkpt lat="43.051028352830116" lon="11.599439136704115"><ele>426.50000000000006</ele><time>2026-04-11T18:07:52Z</time></trkpt><trkpt lat="43.05095213950086" lon="11.599465409720299"><ele>427.0</ele><time>2026-04-11T18:07:55Z</time></trkpt><trkpt lat="43.05089282580899" lon="11.59949435245426"><ele>427.14285714285717</ele><time>2026-04-11T18:07:59Z</time></trkpt><trkpt lat="43.05081692117401" lon="11.599507932018538"><ele>427.2857142857143</ele><time>2026-04-11T18:08:03Z</time></trkpt><trkpt lat="43.0507443760939" lon="11.599536203659506"><ele>427.42857142857144</ele><time>2026-04-11T18:08:07Z</time></trkpt><trkpt lat="43.05066229283277" lon="11.59956794621968"><ele>427.57142857142856</ele><time>2026-04-11T18:08:11Z</time></trkpt><trkpt lat="43.05058502012714" lon="11.599574670490075"><ele>427.7142857142857</ele><time>2026-04-11T18:08:15Z</time></trkpt><trkpt lat="43.05051835921947" lon="11.599598936025783"><ele>427.8571428571429</ele><time>2026-04-11T18:08:18Z</time></trkpt><trkpt lat="43.050457972620066" lon="11.59962695242342"><ele>428.0</ele><time>2026-04-11T18:08:21Z</time></trkpt><trkpt lat="43.050392899326596" lon="11.599650792964862"><ele>428.00000000000006</ele><time>2026-04-11T18:08:25Z</time></trkpt><trkpt lat="43.05032516886371" lon="11.599649675623022"><ele>428.0</ele><time>2026-04-11T18:08:28Z</time></trkpt><trkpt lat="43.05026312113733" lon="11.599682060763772"><ele>428.0</ele><time>2026-04-11T18:08:31Z</time></trkpt><trkpt lat="43.050189505341336" lon="11.599691539434998"><ele>428.0</ele><time>2026-04-11T18:08:34Z</time></trkpt><trkpt lat="43.05011903085969" lon="11.599713581366938"><ele>428.0</ele><time>2026-04-11T18:08:37Z</time></trkpt><trkpt lat="43.050051120762895" lon="11.5997672369241"><ele>428.00000000000006</ele><time>2026-04-11T18:08:40Z</time></trkpt><trkpt lat="43.049968122246824" lon="11.599790525046346"><ele>428.0</ele><time>2026-04-11T18:08:44Z</time></trkpt><trkpt lat="43.04989619325892" lon="11.599820481924551"><ele>429.00000000000006</ele><time>2026-04-11T18:08:47Z</time></trkpt><trkpt lat="43.0498292509767" lon="11.599851370453976"><ele>430.0</ele><time>2026-04-11T18:08:50Z</time></trkpt><trkpt lat="43.049759426436744" lon="11.599886878144781"><ele>431.0</ele><time>2026-04-11T18:08:53Z</time></trkpt><trkpt lat="43.04968612538398" lon="11.59992229816768"><ele>432.0</ele><time>2026-04-11T18:08:56Z</time></trkpt><trkpt lat="43.04961271628915" lon="11.59996876255942"><ele>433.0</ele><time>2026-04-11T18:08:59Z</time></trkpt><trkpt lat="43.04954882307815" lon="11.59999767803468"><ele>434.00000000000006</ele><time>2026-04-11T18:09:02Z</time></trkpt><trkpt lat="43.04948657877489" lon="11.600039342194844"><ele>435.0</ele><time>2026-04-11T18:09:05Z</time></trkpt><trkpt lat="43.04942522490159" lon="11.600073928337382"><ele>435.00000000000006</ele><time>2026-04-11T18:09:08Z</time></trkpt><trkpt lat="43.04936041738668" lon="11.600115483497913"><ele>435.0</ele><time>2026-04-11T18:09:11Z</time></trkpt><trkpt lat="43.049287313534414" lon="11.600158748185594"><ele>435.0</ele><time>2026-04-11T18:09:15Z</time></trkpt><trkpt lat="43.0492222502518" lon="11.600197924802417"><ele>435.0</ele><time>2026-04-11T18:09:19Z</time></trkpt><trkpt lat="43.04915139173773" lon="11.600234736363644"><ele>435.0</ele><time>2026-04-11T18:09:23Z</time></trkpt><trkpt lat="43.049089316082544" lon="11.600274660155272"><ele>435.00000000000006</ele><time>2026-04-11T18:09:27Z</time></trkpt><trkpt lat="43.049026365007826" lon="11.600320583452135"><ele>435.0</ele><time>2026-04-11T18:09:30.999Z</time></trkpt><trkpt lat="43.048969154893896" lon="11.600359768735103"><ele>435.7142857142857</ele><time>2026-04-11T18:09:35Z</time></trkpt><trkpt lat="43.04890864881316" lon="11.60040019136883"><ele>436.42857142857144</ele><time>2026-04-11T18:09:39Z</time></trkpt><trkpt lat="43.048844518109696" lon="11.600443887930318"><ele>437.1428571428571</ele><time>2026-04-11T18:09:44Z</time></trkpt><trkpt lat="43.048779323832996" lon="11.600486052416967"><ele>437.8571428571429</ele><time>2026-04-11T18:09:49Z</time></trkpt><trkpt lat="43.04872300668181" lon="11.600545314296786"><ele>438.57142857142856</ele><time>2026-04-11T18:09:54Z</time></trkpt><trkpt lat="43.048657490863285" lon="11.600573844319847"><ele>439.2857142857143</ele><time>2026-04-11T18:09:58Z</time></trkpt><trkpt lat="43.04860094840123" lon="11.600617364459051"><ele>440.0</ele><time>2026-04-11T18:10:02Z</time></trkpt><trkpt lat="43.04854258889578" lon="11.600656611501517"><ele>439.99999999999994</ele><time>2026-04-11T18:10:06Z</time></trkpt><trkpt lat="43.0484787467945" lon="11.600706563685332"><ele>440.0</ele><time>2026-04-11T18:10:10Z</time></trkpt><trkpt lat="43.04841330581181" lon="11.600751726627504"><ele>440.0</ele><time>2026-04-11T18:10:14Z</time></trkpt><trkpt lat="43.04835330300345" lon="11.600792605162555"><ele>440.0</ele><time>2026-04-11T18:10:17Z</time></trkpt><trkpt lat="43.04828762378008" lon="11.60083718311815"><ele>439.99999999999994</ele><time>2026-04-11T18:10:19Z</time></trkpt><trkpt lat="43.04820847871383" lon="11.600900087513054"><ele>440.0</ele><time>2026-04-11T18:10:21Z</time></trkpt><trkpt lat="43.04811035817672" lon="11.600967267111484"><ele>440.6</ele><time>2026-04-11T18:10:23Z</time></trkpt><trkpt lat="43.048015382197995" lon="11.60103081024294"><ele>441.2</ele><time>2026-04-11T18:10:25Z</time></trkpt><trkpt lat="43.047922517510266" lon="11.601087442478116"><ele>441.79999999999995</ele><time>2026-04-11T18:10:27Z</time></trkpt><trkpt lat="43.04783630811783" lon="11.601143232391555"><ele>442.4</ele><time>2026-04-11T18:10:29Z</time></trkpt><trkpt lat="43.047761835506655" lon="11.601197935229466"><ele>443.0</ele><time>2026-04-11T18:10:31Z</time></trkpt><trkpt lat="43.04769666792198" lon="11.60124846856135"><ele>443.0</ele><time>2026-04-11T18:10:33Z</time></trkpt><trkpt lat="43.04761554531098" lon="11.601294019254587"><ele>443.0</ele><time>2026-04-11T18:10:36Z</time></trkpt><trkpt lat="43.047540524725605" lon="11.60133685769605"><ele>443.0</ele><time>2026-04-11T18:10:39Z</time></trkpt><trkpt lat="43.04748038599426" lon="11.601380226695147"><ele>443.0</ele><time>2026-04-11T18:10:42Z</time></trkpt><trkpt lat="43.047420229756746" lon="11.60141195150759"><ele>443.0</ele><time>2026-04-11T18:10:45Z</time></trkpt><trkpt lat="43.04735516143067" lon="11.601439822188555"><ele>443.0</ele><time>2026-04-11T18:10:48Z</time></trkpt><trkpt lat="43.04728531367052" lon="11.601470414794548"><ele>443.0</ele><time>2026-04-11T18:10:51Z</time></trkpt><trkpt lat="43.04720884252753" lon="11.601505641706893"><ele>443.66666666666663</ele><time>2026-04-11T18:10:54Z</time></trkpt><trkpt lat="43.0471251870063" lon="11.601527250540238"><ele>444.3333333333333</ele><time>2026-04-11T18:10:57Z</time></trkpt><trkpt lat="43.047046520757775" lon="11.601528380426673"><ele>445.0</ele><time>2026-04-11T18:11:00Z</time></trkpt><trkpt lat="43.04696775684546" lon="11.601520048535154"><ele>445.66666666666663</ele><time>2026-04-11T18:11:03Z</time></trkpt><trkpt lat="43.04690396505851" lon="11.601507291680768"><ele>446.3333333333333</ele><time>2026-04-11T18:11:06Z</time></trkpt><trkpt lat="43.04682756154844" lon="11.6014854100046"><ele>447.0</ele><time>2026-04-11T18:11:10Z</time></trkpt><trkpt lat="43.046764051909406" lon="11.60145456164178"><ele>446.99999999999994</ele><time>2026-04-11T18:11:14Z</time></trkpt><trkpt lat="43.046699628437224" lon="11.601438151039591"><ele>447.0</ele><time>2026-04-11T18:11:18Z</time></trkpt><trkpt lat="43.04663611942474" lon="11.601418955805507"><ele>447.0</ele><time>2026-04-11T18:11:22Z</time></trkpt><trkpt lat="43.046574258931926" lon="11.601400182246756"><ele>447.0</ele><time>2026-04-11T18:11:26Z</time></trkpt><trkpt lat="43.04650999351417" lon="11.601375896166912"><ele>447.0</ele><time>2026-04-11T18:11:30Z</time></trkpt><trkpt lat="43.04643993021507" lon="11.601341903496545"><ele>446.99999999999994</ele><time>2026-04-11T18:11:35Z</time></trkpt><trkpt lat="43.04637638597796" lon="11.601308229556453"><ele>447.0</ele><time>2026-04-11T18:11:38.999Z</time></trkpt><trkpt lat="43.0463176566454" lon="11.60126584972279"><ele>447.85714285714283</ele><time>2026-04-11T18:11:43Z</time></trkpt><trkpt lat="43.046247098259485" lon="11.6012420291839"><ele>448.71428571428567</ele><time>2026-04-11T18:11:48Z</time></trkpt><trkpt lat="43.04618441745051" lon="11.601203976799393"><ele>449.57142857142856</ele><time>2026-04-11T18:11:53Z</time></trkpt><trkpt lat="43.04612046582056" lon="11.60118063064912"><ele>450.4285714285714</ele><time>2026-04-11T18:11:58Z</time></trkpt><trkpt lat="43.04605676160942" lon="11.601158830127279"><ele>451.2857142857143</ele><time>2026-04-11T18:12:03Z</time></trkpt><trkpt lat="43.04599915359892" lon="11.601110639389903"><ele>452.14285714285705</ele><time>2026-04-11T18:12:08Z</time></trkpt><trkpt lat="43.04593418756762" lon="11.601083427324577"><ele>452.99999999999994</ele><time>2026-04-11T18:12:14Z</time></trkpt><trkpt lat="43.04586914398862" lon="11.601035269929975"><ele>453.2857142857142</ele><time>2026-04-11T18:12:20Z</time></trkpt><trkpt lat="43.045798227663944" lon="11.600995492210261"><ele>453.57142857142856</ele><time>2026-04-11T18:12:26Z</time></trkpt><trkpt lat="43.04573297191081" lon="11.6009538872673"><ele>453.85714285714283</ele><time>2026-04-11T18:12:32Z</time></trkpt><trkpt lat="43.04566151817195" lon="11.600928455664521"><ele>454.1428571428571</ele><time>2026-04-11T18:12:38Z</time></trkpt><trkpt lat="43.04559493034263" lon="11.600896032412782"><ele>454.42857142857144</ele><time>2026-04-11T18:12:44Z</time></trkpt><trkpt lat="43.04553512325613" lon="11.6008670580012"><ele>454.7142857142857</ele><time>2026-04-11T18:12:49Z</time></trkpt><trkpt lat="43.04547376329614" lon="11.600836658795806"><ele>455.0</ele><time>2026-04-11T18:12:54Z</time></trkpt><trkpt lat="43.045411998376004" lon="11.600814719269316"><ele>456.57142857142856</ele><time>2026-04-11T18:12:59Z</time></trkpt><trkpt lat="43.04534517672603" lon="11.600787383582645"><ele>458.1428571428571</ele><time>2026-04-11T18:13:05Z</time></trkpt><trkpt lat="43.04528579402583" lon="11.600745976232716"><ele>459.7142857142857</ele><time>2026-04-11T18:13:09Z</time></trkpt><trkpt lat="43.0452161092912" lon="11.600717704400967"><ele>461.2857142857143</ele><time>2026-04-11T18:13:14Z</time></trkpt><trkpt lat="43.045133723331354" lon="11.600691369139506"><ele>462.85714285714283</ele><time>2026-04-11T18:13:20Z</time></trkpt><trkpt lat="43.04506741057149" lon="11.600673093284401"><ele>464.42857142857144</ele><time>2026-04-11T18:13:25Z</time></trkpt><trkpt lat="43.04499849990705" lon="11.60064907668673"><ele>466.0</ele><time>2026-04-11T18:13:29.999Z</time></trkpt><trkpt lat="43.04492899829406" lon="11.600628879083908"><ele>466.83333333333337</ele><time>2026-04-11T18:13:34.999Z</time></trkpt><trkpt lat="43.04485254307473" lon="11.600614936017557"><ele>467.6666666666667</ele><time>2026-04-11T18:13:38.999Z</time></trkpt><trkpt lat="43.04478509635087" lon="11.600608405656857"><ele>468.5</ele><time>2026-04-11T18:13:41.999Z</time></trkpt><trkpt lat="43.044700776618036" lon="11.600600320017502"><ele>469.33333333333337</ele><time>2026-04-11T18:13:46Z</time></trkpt><trkpt lat="43.044619691097346" lon="11.600597812684823"><ele>470.1666666666667</ele><time>2026-04-11T18:13:50Z</time></trkpt><trkpt lat="43.044550955634605" lon="11.600599716166208"><ele>471.0</ele><time>2026-04-11T18:13:53Z</time></trkpt><trkpt lat="43.0444669233286" lon="11.600592021053245"><ele>471.00000000000006</ele><time>2026-04-11T18:13:57Z</time></trkpt><trkpt lat="43.04438302569449" lon="11.600586146954628"><ele>471.0</ele><time>2026-04-11T18:14:01Z</time></trkpt><trkpt lat="43.04431867700918" lon="11.60058091813478"><ele>471.00000000000006</ele><time>2026-04-11T18:14:04Z</time></trkpt><trkpt lat="43.044250050308065" lon="11.600575616527301"><ele>471.00000000000006</ele><time>2026-04-11T18:14:07Z</time></trkpt><trkpt lat="43.044185884915734" lon="11.600580654805626"><ele>471.0</ele><time>2026-04-11T18:14:10Z</time></trkpt><trkpt lat="43.04410048362442" lon="11.600578977587148"><ele>471.00000000000006</ele><time>2026-04-11T18:14:14Z</time></trkpt><trkpt lat="43.04402155687055" lon="11.600584534260122"><ele>471.00000000000006</ele><time>2026-04-11T18:14:18Z</time></trkpt><trkpt lat="43.04394349209969" lon="11.600577630833369"><ele>471.7142857142858</ele><time>2026-04-11T18:14:22Z</time></trkpt><trkpt lat="43.043866097498395" lon="11.600580097004958"><ele>472.42857142857144</ele><time>2026-04-11T18:14:26Z</time></trkpt><trkpt lat="43.04379347642148" lon="11.600595273554983"><ele>473.14285714285717</ele><time>2026-04-11T18:14:30Z</time></trkpt><trkpt lat="43.0437145689878" lon="11.600593315618912"><ele>473.8571428571429</ele><time>2026-04-11T18:14:34Z</time></trkpt><trkpt lat="43.043649481928604" lon="11.600591101169798"><ele>474.57142857142856</ele><time>2026-04-11T18:14:38Z</time></trkpt><trkpt lat="43.04358065012665" lon="11.600592565651729"><ele>475.2857142857143</ele><time>2026-04-11T18:14:42Z</time></trkpt><trkpt lat="43.043516298853675" lon="11.600590706128726"><ele>476.0</ele><time>2026-04-11T18:14:46Z</time></trkpt><trkpt lat="43.043447976224115" lon="11.600587424390993"><ele>476.0</ele><time>2026-04-11T18:14:50Z</time></trkpt><trkpt lat="43.04337722250001" lon="11.600593220460915"><ele>476.0</ele><time>2026-04-11T18:14:54Z</time></trkpt><trkpt lat="43.0433119191071" lon="11.600598141178454"><ele>476.0</ele><time>2026-04-11T18:14:58Z</time></trkpt><trkpt lat="43.04324898000417" lon="11.60058405195982"><ele>476.0</ele><time>2026-04-11T18:15:02Z</time></trkpt><trkpt lat="43.043185099652746" lon="11.600580270146313"><ele>476.0</ele><time>2026-04-11T18:15:06Z</time></trkpt><trkpt lat="43.04310900410088" lon="11.600581508067725"><ele>476.0</ele><time>2026-04-11T18:15:11Z</time></trkpt><trkpt lat="43.04303260920507" lon="11.60055368943334"><ele>476.0</ele><time>2026-04-11T18:15:15.999Z</time></trkpt><trkpt lat="43.04296785230987" lon="11.600530634456723"><ele>476.8571428571429</ele><time>2026-04-11T18:15:19.999Z</time></trkpt><trkpt lat="43.04289361673619" lon="11.600497597196098"><ele>477.7142857142857</ele><time>2026-04-11T18:15:24.999Z</time></trkpt><trkpt lat="43.04282791037738" lon="11.600457266870714"><ele>478.57142857142856</ele><time>2026-04-11T18:15:28.999Z</time></trkpt><trkpt lat="43.042769853956344" lon="11.600410357902323"><ele>479.42857142857144</ele><time>2026-04-11T18:15:32.999Z</time></trkpt><trkpt lat="43.04271525261681" lon="11.600359314442342"><ele>480.28571428571433</ele><time>2026-04-11T18:15:36.999Z</time></trkpt><trkpt lat="43.04265656756337" lon="11.600316652218844"><ele>481.14285714285717</ele><time>2026-04-11T18:15:40.999Z</time></trkpt><trkpt lat="43.04259849293346" lon="11.600277332516578"><ele>482.0</ele><time>2026-04-11T18:15:44.999Z</time></trkpt><trkpt lat="43.04254002263664" lon="11.600220324802466"><ele>482.28571428571433</ele><time>2026-04-11T18:15:49.999Z</time></trkpt><trkpt lat="43.04248378608659" lon="11.60017408832192"><ele>482.5714285714286</ele><time>2026-04-11T18:15:55Z</time></trkpt><trkpt lat="43.04242790384506" lon="11.6001327162685"><ele>482.8571428571429</ele><time>2026-04-11T18:16:00Z</time></trkpt><trkpt lat="43.042363836682995" lon="11.60008545517306"><ele>483.1428571428571</ele><time>2026-04-11T18:16:05Z</time></trkpt><trkpt lat="43.04230281732327" lon="11.60003902369768"><ele>483.4285714285714</ele><time>2026-04-11T18:16:10Z</time></trkpt><trkpt lat="43.04224564882127" lon="11.599998191562703"><ele>483.71428571428567</ele><time>2026-04-11T18:16:15Z</time></trkpt><trkpt lat="43.04219325087283" lon="11.599949400689841"><ele>484.0</ele><time>2026-04-11T18:16:20Z</time></trkpt><trkpt lat="43.04213416941274" lon="11.599913720923642"><ele>485.57142857142856</ele><time>2026-04-11T18:16:25Z</time></trkpt><trkpt lat="43.042071128541096" lon="11.599868622175096"><ele>487.1428571428571</ele><time>2026-04-11T18:16:30Z</time></trkpt><trkpt lat="43.04200046792296" lon="11.599834019155702"><ele>488.71428571428567</ele><time>2026-04-11T18:16:36Z</time></trkpt><trkpt lat="43.0419331307125" lon="11.599798530836036"><ele>490.2857142857142</ele><time>2026-04-11T18:16:41Z</time></trkpt><trkpt lat="43.04186933970581" lon="11.599767879784304"><ele>491.85714285714283</ele><time>2026-04-11T18:16:46Z</time></trkpt><trkpt lat="43.041805279815286" lon="11.5997431198021"><ele>493.42857142857133</ele><time>2026-04-11T18:16:51Z</time></trkpt><trkpt lat="43.041737742744914" lon="11.599724398519792"><ele>494.99999999999994</ele><time>2026-04-11T18:16:56Z</time></trkpt><trkpt lat="43.041677133973174" lon="11.599698290043062"><ele>495.99999999999994</ele><time>2026-04-11T18:17:01Z</time></trkpt><trkpt lat="43.041609151858715" lon="11.599687596189872"><ele>497.0</ele><time>2026-04-11T18:17:06Z</time></trkpt><trkpt lat="43.041536501374395" lon="11.59965946965588"><ele>497.99999999999994</ele><time>2026-04-11T18:17:11Z</time></trkpt><trkpt lat="43.04145955226101" lon="11.599649209255725"><ele>498.99999999999994</ele><time>2026-04-11T18:17:16Z</time></trkpt><trkpt lat="43.04138470148546" lon="11.59968386514356"><ele>500.0</ele><time>2026-04-11T18:17:21Z</time></trkpt><trkpt lat="43.04131637686749" lon="11.599727965518596"><ele>500.99999999999994</ele><time>2026-04-11T18:17:25.999Z</time></trkpt><trkpt lat="43.04125627482938" lon="11.599760404116394"><ele>501.99999999999994</ele><time>2026-04-11T18:17:29.999Z</time></trkpt><trkpt lat="43.04119727452316" lon="11.599792426461255"><ele>501.99999999999994</ele><time>2026-04-11T18:17:33.999Z</time></trkpt><trkpt lat="43.041126308305344" lon="11.599832335681056"><ele>502.0</ele><time>2026-04-11T18:17:38.999Z</time></trkpt><trkpt lat="43.041061119303876" lon="11.599879258019616"><ele>501.99999999999994</ele><time>2026-04-11T18:17:43.999Z</time></trkpt><trkpt lat="43.04099383639146" lon="11.599921460123708"><ele>501.99999999999994</ele><time>2026-04-11T18:17:48.999Z</time></trkpt><trkpt lat="43.0409278513667" lon="11.59996472592908"><ele>502.0</ele><time>2026-04-11T18:17:53.999Z</time></trkpt><trkpt lat="43.04087076355796" lon="11.600006112227614"><ele>501.99999999999994</ele><time>2026-04-11T18:17:58Z</time></trkpt><trkpt lat="43.040807953941744" lon="11.60004496686107"><ele>501.99999999999994</ele><time>2026-04-11T18:18:02Z</time></trkpt><trkpt lat="43.04074381055762" lon="11.600094192593623"><ele>503.00000000000006</ele><time>2026-04-11T18:18:06Z</time></trkpt><trkpt lat="43.040683872684184" lon="11.600135231475939"><ele>504.0</ele><time>2026-04-11T18:18:10Z</time></trkpt><trkpt lat="43.04061602643186" lon="11.600185044434875"><ele>505.0</ele><time>2026-04-11T18:18:14Z</time></trkpt><trkpt lat="43.04054696884864" lon="11.60025289562414"><ele>506.0</ele><time>2026-04-11T18:18:18Z</time></trkpt><trkpt lat="43.04048000252583" lon="11.600319454854183"><ele>507.00000000000006</ele><time>2026-04-11T18:18:22Z</time></trkpt><trkpt lat="43.04042199127686" lon="11.600394494068304"><ele>508.0</ele><time>2026-04-11T18:18:26Z</time></trkpt><trkpt lat="43.04036305453506" lon="11.600473503286631"><ele>508.28571428571433</ele><time>2026-04-11T18:18:30Z</time></trkpt><trkpt lat="43.04031411679981" lon="11.600529732122176"><ele>508.57142857142856</ele><time>2026-04-11T18:18:34Z</time></trkpt><trkpt lat="43.04025358071972" lon="11.600597647353347"><ele>508.8571428571429</ele><time>2026-04-11T18:18:39Z</time></trkpt><trkpt lat="43.04020415375283" lon="11.600653998059299"><ele>509.14285714285717</ele><time>2026-04-11T18:18:43Z</time></trkpt><trkpt lat="43.040154787291414" lon="11.60072787109409"><ele>509.42857142857144</ele><time>2026-04-11T18:18:48Z</time></trkpt><trkpt lat="43.04009821078637" lon="11.600787723802258"><ele>509.7142857142857</ele><time>2026-04-11T18:18:53Z</time></trkpt><trkpt lat="43.04005363552199" lon="11.60085604634816"><ele>510.0</ele><time>2026-04-11T18:18:57Z</time></trkpt><trkpt lat="43.040007350274244" lon="11.600922122873175"><ele>509.8571428571429</ele><time>2026-04-11T18:19:01Z</time></trkpt><trkpt lat="43.03994538036436" lon="11.60099180309157"><ele>509.7142857142858</ele><time>2026-04-11T18:19:05Z</time></trkpt><trkpt lat="43.03989925050996" lon="11.601068770135466"><ele>509.57142857142856</ele><time>2026-04-11T18:19:09Z</time></trkpt><trkpt lat="43.0398511596957" lon="11.601139946987551"><ele>509.42857142857144</ele><time>2026-04-11T18:19:13Z</time></trkpt><trkpt lat="43.03980819374246" lon="11.60122285478648"><ele>509.2857142857143</ele><time>2026-04-11T18:19:17Z</time></trkpt><trkpt lat="43.039778207069446" lon="11.601308784955643"><ele>509.1428571428571</ele><time>2026-04-11T18:19:21Z</time></trkpt><trkpt lat="43.03975359882476" lon="11.601397102081563"><ele>508.99999999999994</ele><time>2026-04-11T18:19:24.999Z</time></trkpt><trkpt lat="43.03972132704665" lon="11.601477511042821"><ele>508.8571428571428</ele><time>2026-04-11T18:19:28.999Z</time></trkpt><trkpt lat="43.039700504553586" lon="11.601571672311106"><ele>508.71428571428567</ele><time>2026-04-11T18:19:32.999Z</time></trkpt><trkpt lat="43.0396769736716" lon="11.601674033923068"><ele>508.57142857142856</ele><time>2026-04-11T18:19:36.999Z</time></trkpt><trkpt lat="43.03965189816213" lon="11.601779718427226"><ele>508.4285714285714</ele><time>2026-04-11T18:19:40.999Z</time></trkpt><trkpt lat="43.03962925701978" lon="11.60188400999017"><ele>508.2857142857142</ele><time>2026-04-11T18:19:44.999Z</time></trkpt><trkpt lat="43.03961837679185" lon="11.601972700412384"><ele>508.14285714285717</ele><time>2026-04-11T18:23:08.999Z</time></trkpt><trkpt lat="43.03959435812063" lon="11.602057086781459"><ele>508.0</ele><time>2026-04-11T18:23:15.999Z</time></trkpt><trkpt lat="43.039580467813046" lon="11.602159609955804"><ele>508.57142857142856</ele><time>2026-04-11T18:23:20.999Z</time></trkpt><trkpt lat="43.03956025649402" lon="11.602250753227041"><ele>509.1428571428571</ele><time>2026-04-11T18:23:23.999Z</time></trkpt><trkpt lat="43.039551892965" lon="11.602339343517382"><ele>509.71428571428567</ele><time>2026-04-11T18:23:26.999Z</time></trkpt><trkpt lat="43.03952858705311" lon="11.60243337953676"><ele>510.2857142857143</ele><time>2026-04-11T18:23:29.999Z</time></trkpt><trkpt lat="43.03950215553717" lon="11.602531753354205"><ele>510.8571428571428</ele><time>2026-04-11T18:23:32.999Z</time></trkpt><trkpt lat="43.03947524730942" lon="11.602631079566919"><ele>511.4285714285714</ele><time>2026-04-11T18:23:35.999Z</time></trkpt><trkpt lat="43.039437857532356" lon="11.602737262452829"><ele>512.0</ele><time>2026-04-11T18:23:38.999Z</time></trkpt><trkpt lat="43.039393360808056" lon="11.60283517971327"><ele>511.4285714285714</ele><time>2026-04-11T18:23:41.999Z</time></trkpt><trkpt lat="43.03935972835378" lon="11.602914502864232"><ele>510.8571428571428</ele><time>2026-04-11T18:23:43.999Z</time></trkpt><trkpt lat="43.039320995324005" lon="11.602987630802751"><ele>510.2857142857143</ele><time>2026-04-11T18:23:45.999Z</time></trkpt><trkpt lat="43.03927573602254" lon="11.603062390213626"><ele>509.71428571428567</ele><time>2026-04-11T18:23:47.999Z</time></trkpt><trkpt lat="43.03922976747441" lon="11.603159749850564"><ele>509.1428571428571</ele><time>2026-04-11T18:23:50.999Z</time></trkpt><trkpt lat="43.039184649495915" lon="11.603227445364356"><ele>508.57142857142856</ele><time>2026-04-11T18:23:52.999Z</time></trkpt><trkpt lat="43.03912432424812" lon="11.603302995100941"><ele>508.0</ele><time>2026-04-11T18:23:54.999Z</time></trkpt><trkpt lat="43.03905027496802" lon="11.603384573432042"><ele>508.00000000000006</ele><time>2026-04-11T18:23:57.999Z</time></trkpt><trkpt lat="43.039015888756396" lon="11.60346144797367"><ele>508.0</ele><time>2026-04-11T18:23:59.999Z</time></trkpt><trkpt lat="43.038939179151065" lon="11.603548512244915"><ele>508.0</ele><time>2026-04-11T18:24:02.999Z</time></trkpt><trkpt lat="43.03889243929842" lon="11.603627908672179"><ele>508.0</ele><time>2026-04-11T18:24:04.999Z</time></trkpt><trkpt lat="43.038843935981994" lon="11.603689962436901"><ele>508.00000000000006</ele><time>2026-04-11T18:24:06.999Z</time></trkpt><trkpt lat="43.03879286031113" lon="11.603768183275202"><ele>508.0</ele><time>2026-04-11T18:24:08.999Z</time></trkpt><trkpt lat="43.03873525370612" lon="11.60383761431411"><ele>508.8571428571429</ele><time>2026-04-11T18:24:10.999Z</time></trkpt><trkpt lat="43.0387711831657" lon="11.603912479582245"><ele>509.71428571428567</ele><time>2026-04-11T18:24:12.999Z</time></trkpt><trkpt lat="43.03870240199053" lon="11.603973103078916"><ele>510.57142857142856</ele><time>2026-04-11T18:24:14.999Z</time></trkpt><trkpt lat="43.038665311576494" lon="11.604057830974508"><ele>511.42857142857144</ele><time>2026-04-11T18:24:17Z</time></trkpt><trkpt lat="43.038640154662446" lon="11.60413962515059"><ele>512.2857142857143</ele><time>2026-04-11T18:24:19Z</time></trkpt><trkpt lat="43.038618487428586" lon="11.604242102703891"><ele>513.1428571428571</ele><time>2026-04-11T18:24:22Z</time></trkpt><trkpt lat="43.038603893726915" lon="11.604348818166217"><ele>514.0</ele><time>2026-04-11T18:24:25Z</time></trkpt><trkpt lat="43.03856755145105" lon="11.604449144533133"><ele>514.4</ele><time>2026-04-11T18:24:28Z</time></trkpt><trkpt lat="43.03853953263362" lon="11.604569755043903"><ele>514.8</ele><time>2026-04-11T18:24:30Z</time></trkpt><trkpt lat="43.03851717201537" lon="11.604716588293881"><ele>515.2</ele><time>2026-04-11T18:24:32Z</time></trkpt><trkpt lat="43.038502781340085" lon="11.604850599418326"><ele>515.6</ele><time>2026-04-11T18:24:34Z</time></trkpt><trkpt lat="43.03845174409962" lon="11.604953964229013"><ele>516.0</ele><time>2026-04-11T18:24:36Z</time></trkpt><trkpt lat="43.03844087776219" lon="11.60506023987173"><ele>516.0</ele><time>2026-04-11T18:24:38Z</time></trkpt><trkpt lat="43.03843086562291" lon="11.605158161121722"><ele>516.0</ele><time>2026-04-11T18:24:40Z</time></trkpt><trkpt lat="43.03841881660059" lon="11.605271468271743"><ele>516.0</ele><time>2026-04-11T18:24:42Z</time></trkpt><trkpt lat="43.03840388288983" lon="11.605409162542184"><ele>516.0</ele><time>2026-04-11T18:24:44Z</time></trkpt><trkpt lat="43.03839042505017" lon="11.605522027540204"><ele>516.0</ele><time>2026-04-11T18:24:46Z</time></trkpt><trkpt lat="43.038376729110816" lon="11.605614960650625"><ele>516.0</ele><time>2026-04-11T18:24:48Z</time></trkpt><trkpt lat="43.038352192141105" lon="11.605734298127087"><ele>516.2</ele><time>2026-04-11T18:24:50Z</time></trkpt><trkpt lat="43.03831430279472" lon="11.605850156714965"><ele>516.4000000000001</ele><time>2026-04-11T18:24:52Z</time></trkpt><trkpt lat="43.03828087091913" lon="11.605945064287296"><ele>516.6</ele><time>2026-04-11T18:24:54Z</time></trkpt><trkpt lat="43.03819893619712" lon="11.606020674504807"><ele>516.8000000000001</ele><time>2026-04-11T18:24:56Z</time></trkpt><trkpt lat="43.03809595536355" lon="11.60607179701892"><ele>517.0</ele><time>2026-04-11T18:24:58Z</time></trkpt><trkpt lat="43.03799677795722" lon="11.606096889814252"><ele>514.6</ele><time>2026-04-11T18:25:00Z</time></trkpt><trkpt lat="43.037896238014824" lon="11.606111407585763"><ele>512.2</ele><time>2026-04-11T18:25:02Z</time></trkpt><trkpt lat="43.03778055800189" lon="11.606121071269849"><ele>509.8</ele><time>2026-04-11T18:25:04Z</time></trkpt><trkpt lat="43.037671717791575" lon="11.606126151588724"><ele>507.4</ele><time>2026-04-11T18:25:06Z</time></trkpt><trkpt lat="43.03758735717802" lon="11.60613517713387"><ele>505.0</ele><time>2026-04-11T18:25:08Z</time></trkpt><trkpt lat="43.03750930527624" lon="11.606138344706842"><ele>503.1428571428571</ele><time>2026-04-11T18:25:11Z</time></trkpt><trkpt lat="43.03744774046404" lon="11.60616155328442"><ele>501.2857142857142</ele><time>2026-04-11T18:25:20Z</time></trkpt><trkpt lat="43.037366071108536" lon="11.606189018897568"><ele>499.42857142857144</ele><time>2026-04-11T18:25:23Z</time></trkpt><trkpt lat="43.037285401412355" lon="11.606193788168044"><ele>497.57142857142856</ele><time>2026-04-11T18:25:25Z</time></trkpt><trkpt lat="43.03720693832412" lon="11.606196407256638"><ele>495.7142857142857</ele><time>2026-04-11T18:25:27Z</time></trkpt><trkpt lat="43.0371401561644" lon="11.606205213521992"><ele>493.8571428571429</ele><time>2026-04-11T18:25:29Z</time></trkpt><trkpt lat="43.03707019689348" lon="11.606220581495908"><ele>492.00000000000006</ele><time>2026-04-11T18:25:31Z</time></trkpt><trkpt lat="43.036991350303964" lon="11.60623973091586"><ele>492.0</ele><time>2026-04-11T18:25:33Z</time></trkpt><trkpt lat="43.0369046526886" lon="11.606275180159168"><ele>492.00000000000006</ele><time>2026-04-11T18:25:35Z</time></trkpt><trkpt lat="43.03683602486433" lon="11.606343632220742"><ele>492.00000000000006</ele><time>2026-04-11T18:25:37Z</time></trkpt><trkpt lat="43.03674935680144" lon="11.606410038840894"><ele>492.0</ele><time>2026-04-11T18:25:39Z</time></trkpt><trkpt lat="43.03667255301501" lon="11.606506883145647"><ele>492.0</ele><time>2026-04-11T18:25:41Z</time></trkpt><trkpt lat="43.03663220903153" lon="11.606644975991914"><ele>488.8333333333333</ele><time>2026-04-11T18:25:43Z</time></trkpt><trkpt lat="43.03659002941631" lon="11.60673992012506"><ele>485.66666666666663</ele><time>2026-04-11T18:25:45Z</time></trkpt><trkpt lat="43.03655398512791" lon="11.60685649428324"><ele>482.5</ele><time>2026-04-11T18:25:48Z</time></trkpt><trkpt lat="43.03652780160625" lon="11.606946370200614"><ele>479.3333333333333</ele><time>2026-04-11T18:25:50Z</time></trkpt><trkpt lat="43.03650844113897" lon="11.607034161772653"><ele>476.16666666666663</ele><time>2026-04-11T18:25:52Z</time></trkpt><trkpt lat="43.036490837974355" lon="11.607159593223201"><ele>473.0</ele><time>2026-04-11T18:25:55Z</time></trkpt><trkpt lat="43.03649473197455" lon="11.60726436829127"><ele>472.99999999999994</ele><time>2026-04-11T18:25:58Z</time></trkpt><trkpt lat="43.03647751725702" lon="11.607361644084163"><ele>473.0</ele><time>2026-04-11T18:26:01.999Z</time></trkpt><trkpt lat="43.0364439999259" lon="11.60747302649845"><ele>473.0</ele><time>2026-04-11T18:26:07.999Z</time></trkpt><trkpt lat="43.03635577672484" lon="11.607488805651219"><ele>473.0</ele><time>2026-04-11T18:26:09.999Z</time></trkpt><trkpt lat="43.03629293978649" lon="11.6075269985725"><ele>472.99999999999994</ele><time>2026-04-11T18:26:11.999Z</time></trkpt><trkpt lat="43.03621290417364" lon="11.607548865018465"><ele>473.0</ele><time>2026-04-11T18:26:13.999Z</time></trkpt><trkpt lat="43.03614369927758" lon="11.607594892723947"><ele>473.0</ele><time>2026-04-11T18:26:15.999Z</time></trkpt><trkpt lat="43.03606729345675" lon="11.607643646411512"><ele>472.99999999999994</ele><time>2026-04-11T18:26:17.999Z</time></trkpt><trkpt lat="43.0360111044159" lon="11.60777032344075"><ele>472.99999999999994</ele><time>2026-04-11T18:26:19.999Z</time></trkpt><trkpt lat="43.03598111413227" lon="11.60791891903489"><ele>473.0</ele><time>2026-04-11T18:26:22Z</time></trkpt><trkpt lat="43.035970087654256" lon="11.60807698727256"><ele>473.0</ele><time>2026-04-11T18:26:24Z</time></trkpt><trkpt lat="43.035961106900785" lon="11.608230875667944"><ele>473.66666666666663</ele><time>2026-04-11T18:26:26Z</time></trkpt><trkpt lat="43.035947939912596" lon="11.608364638919317"><ele>474.3333333333333</ele><time>2026-04-11T18:26:28Z</time></trkpt><trkpt lat="43.03593385706064" lon="11.608467477537317"><ele>475.0</ele><time>2026-04-11T18:26:30Z</time></trkpt><trkpt lat="43.035879412018254" lon="11.60858236242256"><ele>475.66666666666663</ele><time>2026-04-11T18:26:33Z</time></trkpt><trkpt lat="43.03579886119469" lon="11.608668727618666"><ele>476.3333333333333</ele><time>2026-04-11T18:26:36Z</time></trkpt><trkpt lat="43.0357509239766" lon="11.608734789120914"><ele>477.0</ele><time>2026-04-11T18:26:38Z</time></trkpt><trkpt lat="43.03571073970073" lon="11.60881889818472"><ele>473.3333333333333</ele><time>2026-04-11T18:26:40Z</time></trkpt><trkpt lat="43.035706979088815" lon="11.608921945110078"><ele>469.66666666666663</ele><time>2026-04-11T18:26:42Z</time></trkpt><trkpt lat="43.03571975321149" lon="11.609029785229732"><ele>466.0</ele><time>2026-04-11T18:26:45Z</time></trkpt><trkpt lat="43.03573289996598" lon="11.609141292395147"><ele>462.3333333333333</ele><time>2026-04-11T18:26:48Z</time></trkpt><trkpt lat="43.035747682702414" lon="11.60924565330185"><ele>458.66666666666663</ele><time>2026-04-11T18:26:51Z</time></trkpt><trkpt lat="43.03575852913314" lon="11.609338056609376"><ele>455.0</ele><time>2026-04-11T18:26:54Z</time></trkpt><trkpt lat="43.03577876430563" lon="11.609428165284168"><ele>454.16666666666663</ele><time>2026-04-11T18:26:56Z</time></trkpt><trkpt lat="43.03574484825254" lon="11.609512766389615"><ele>453.3333333333333</ele><time>2026-04-11T18:26:58Z</time></trkpt><trkpt lat="43.03569849278789" lon="11.60960282620279"><ele>452.5</ele><time>2026-04-11T18:27:01Z</time></trkpt><trkpt lat="43.03561196167023" lon="11.609641935514453"><ele>451.66666666666663</ele><time>2026-04-11T18:27:04Z</time></trkpt><trkpt lat="43.03553323572641" lon="11.609652153328417"><ele>450.8333333333333</ele><time>2026-04-11T18:27:06Z</time></trkpt><trkpt lat="43.03546285592638" lon="11.60967163811638"><ele>450.0</ele><time>2026-04-11T18:27:08Z</time></trkpt><trkpt lat="43.03538328915776" lon="11.609674054032"><ele>450.0</ele><time>2026-04-11T18:27:10Z</time></trkpt><trkpt lat="43.03530192929161" lon="11.609650778321148"><ele>450.0</ele><time>2026-04-11T18:27:12Z</time></trkpt><trkpt lat="43.03521092284804" lon="11.609623128596594"><ele>450.0</ele><time>2026-04-11T18:27:14Z</time></trkpt><trkpt lat="43.035107690113485" lon="11.609636558429461"><ele>450.0</ele><time>2026-04-11T18:27:16Z</time></trkpt><trkpt lat="43.035006143836775" lon="11.60966896826599"><ele>450.0</ele><time>2026-04-11T18:27:18Z</time></trkpt><trkpt lat="43.034913351779" lon="11.609731690241093"><ele>449.75</ele><time>2026-04-11T18:27:20Z</time></trkpt><trkpt lat="43.03480949111978" lon="11.609808363822827"><ele>449.5</ele><time>2026-04-11T18:27:22Z</time></trkpt><trkpt lat="43.03471919285949" lon="11.609900281234037"><ele>449.25</ele><time>2026-04-11T18:27:24Z</time></trkpt><trkpt lat="43.03462566398566" lon="11.609986670876632"><ele>449.0</ele><time>2026-04-11T18:27:26Z</time></trkpt><trkpt lat="43.03453993745625" lon="11.610082865579026"><ele>448.99999999999994</ele><time>2026-04-11T18:27:28Z</time></trkpt><trkpt lat="43.03446973049208" lon="11.610165681064194"><ele>449.0</ele><time>2026-04-11T18:27:30Z</time></trkpt><trkpt lat="43.03439394077556" lon="11.610253271811455"><ele>449.0</ele><time>2026-04-11T18:27:32Z</time></trkpt><trkpt lat="43.03432885312527" lon="11.610338368510519"><ele>449.0</ele><time>2026-04-11T18:27:34Z</time></trkpt><trkpt lat="43.03426336689403" lon="11.610413718624168"><ele>448.99999999999994</ele><time>2026-04-11T18:27:36Z</time></trkpt><trkpt lat="43.034199742075266" lon="11.61046762697044"><ele>449.0</ele><time>2026-04-11T18:27:38Z</time></trkpt><trkpt lat="43.03414240551061" lon="11.610524503445905"><ele>446.2</ele><time>2026-04-11T18:27:40Z</time></trkpt><trkpt lat="43.034079659503455" lon="11.610591595390808"><ele>443.4</ele><time>2026-04-11T18:27:42Z</time></trkpt><trkpt lat="43.03404817048491" lon="11.610710002125106"><ele>440.6</ele><time>2026-04-11T18:27:44Z</time></trkpt><trkpt lat="43.03403460965568" lon="11.610829498977825"><ele>437.8</ele><time>2026-04-11T18:27:46Z</time></trkpt><trkpt lat="43.03401922685999" lon="11.610963752378549"><ele>435.0</ele><time>2026-04-11T18:27:48Z</time></trkpt><trkpt lat="43.03399943717449" lon="11.61109405162213"><ele>433.4</ele><time>2026-04-11T18:27:50Z</time></trkpt><trkpt lat="43.03397663987327" lon="11.61122267089792"><ele>431.8</ele><time>2026-04-11T18:27:52Z</time></trkpt><trkpt lat="43.03395592636905" lon="11.611372245491388"><ele>430.20000000000005</ele><time>2026-04-11T18:27:54Z</time></trkpt><trkpt lat="43.03393542736003" lon="11.611530633630675"><ele>428.6</ele><time>2026-04-11T18:27:56Z</time></trkpt><trkpt lat="43.03391671647532" lon="11.611628263114655"><ele>427.0</ele><time>2026-04-11T18:27:58Z</time></trkpt><trkpt lat="43.0339126758163" lon="11.611769795272792"><ele>427.0</ele><time>2026-04-11T18:28:00Z</time></trkpt><trkpt lat="43.03389448337119" lon="11.611914610883876"><ele>427.00000000000006</ele><time>2026-04-11T18:28:02Z</time></trkpt><trkpt lat="43.03387886340905" lon="11.612054017822235"><ele>427.00000000000006</ele><time>2026-04-11T18:28:04Z</time></trkpt><trkpt lat="43.033862314883955" lon="11.612203036317707"><ele>427.0</ele><time>2026-04-11T18:28:06Z</time></trkpt><trkpt lat="43.03384749023049" lon="11.61235368175608"><ele>427.0</ele><time>2026-04-11T18:28:08Z</time></trkpt><trkpt lat="43.033831492271815" lon="11.61252656870749"><ele>426.83333333333337</ele><time>2026-04-11T18:28:10Z</time></trkpt><trkpt lat="43.03383178037279" lon="11.612619138578328"><ele>426.6666666666667</ele><time>2026-04-11T18:28:11Z</time></trkpt><trkpt lat="43.03382922707885" lon="11.612706851514911"><ele>426.5</ele><time>2026-04-11T18:28:12Z</time></trkpt><trkpt lat="43.03382515024705" lon="11.612873574112248"><ele>426.33333333333337</ele><time>2026-04-11T18:28:14Z</time></trkpt><trkpt lat="43.03382263702902" lon="11.6129638579319"><ele>426.1666666666667</ele><time>2026-04-11T18:28:15Z</time></trkpt><trkpt lat="43.033822666815716" lon="11.61305428858836"><ele>426.0</ele><time>2026-04-11T18:28:16Z</time></trkpt><trkpt lat="43.03382356528566" lon="11.613146544847126"><ele>424.99999999999994</ele><time>2026-04-11T18:28:17Z</time></trkpt><trkpt lat="43.03382704608154" lon="11.613233850530937"><ele>424.0</ele><time>2026-04-11T18:28:18Z</time></trkpt><trkpt lat="43.033821528946426" lon="11.61332182280756"><ele>423.0</ele><time>2026-04-11T18:28:18.999Z</time></trkpt><trkpt lat="43.03381830626097" lon="11.613410904654096"><ele>422.0</ele><time>2026-04-11T18:28:19.999Z</time></trkpt><trkpt lat="43.033819107748265" lon="11.613506517050691"><ele>421.0</ele><time>2026-04-11T18:28:20.999Z</time></trkpt><trkpt lat="43.03382028540213" lon="11.613599426745854"><ele>419.99999999999994</ele><time>2026-04-11T18:28:21.999Z</time></trkpt><trkpt lat="43.03381792347661" lon="11.613692662439831"><ele>419.0</ele><time>2026-04-11T18:28:22.999Z</time></trkpt><trkpt lat="43.033820030857896" lon="11.613782878352694"><ele>417.0</ele><time>2026-04-11T18:28:23.999Z</time></trkpt><trkpt lat="43.033816954503656" lon="11.61394420086381"><ele>415.0</ele><time>2026-04-11T18:28:25.999Z</time></trkpt><trkpt lat="43.033807055895046" lon="11.61408702155417"><ele>413.0</ele><time>2026-04-11T18:28:28Z</time></trkpt><trkpt lat="43.03378434779893" lon="11.614205331068582"><ele>411.0</ele><time>2026-04-11T18:28:30Z</time></trkpt><trkpt lat="43.0337624714846" lon="11.614328916746786"><ele>409.0</ele><time>2026-04-11T18:28:32Z</time></trkpt><trkpt lat="43.03373616220993" lon="11.614430272244862"><ele>407.2</ele><time>2026-04-11T18:28:34Z</time></trkpt><trkpt lat="43.03369491338934" lon="11.614539833488102"><ele>405.4</ele><time>2026-04-11T18:28:36Z</time></trkpt><trkpt lat="43.03364103881004" lon="11.614658847226218"><ele>403.6</ele><time>2026-04-11T18:28:38Z</time></trkpt><trkpt lat="43.0335779957592" lon="11.614774403749886"><ele>401.8</ele><time>2026-04-11T18:28:40Z</time></trkpt><trkpt lat="43.03352715910799" lon="11.614896322339211"><ele>400.0</ele><time>2026-04-11T18:28:42Z</time></trkpt><trkpt lat="43.0334646232261" lon="11.614997108050396"><ele>400.0</ele><time>2026-04-11T18:28:44Z</time></trkpt><trkpt lat="43.03338706108106" lon="11.615098114508221"><ele>400.0</ele><time>2026-04-11T18:28:46Z</time></trkpt><trkpt lat="43.0333247732315" lon="11.615179209290787"><ele>400.0</ele><time>2026-04-11T18:28:48Z</time></trkpt><trkpt lat="43.033266376138904" lon="11.615260975656382"><ele>400.0</ele><time>2026-04-11T18:28:50Z</time></trkpt><trkpt lat="43.0332139085298" lon="11.615369670705086"><ele>400.0</ele><time>2026-04-11T18:28:52Z</time></trkpt><trkpt lat="43.03315159085537" lon="11.615474685056704"><ele>396.2</ele><time>2026-04-11T18:28:54Z</time></trkpt><trkpt lat="43.03308721947343" lon="11.615568220350488"><ele>392.4</ele><time>2026-04-11T18:28:56Z</time></trkpt><trkpt lat="43.03304533074853" lon="11.615651849730101"><ele>388.6</ele><time>2026-04-11T18:28:58Z</time></trkpt><trkpt lat="43.032987960320376" lon="11.61575621771758"><ele>384.8</ele><time>2026-04-11T18:29:01Z</time></trkpt><trkpt lat="43.03293742492856" lon="11.615908593397872"><ele>381.0</ele><time>2026-04-11T18:29:03Z</time></trkpt><trkpt lat="43.03289048675374" lon="11.616066756575904"><ele>380.3333333333333</ele><time>2026-04-11T18:29:05Z</time></trkpt><trkpt lat="43.03284737820025" lon="11.616221354228548"><ele>379.6666666666667</ele><time>2026-04-11T18:29:07Z</time></trkpt><trkpt lat="43.03282788743904" lon="11.616305279552932"><ele>379.0</ele><time>2026-04-11T18:29:08Z</time></trkpt><trkpt lat="43.032800083808986" lon="11.616388377441082"><ele>378.33333333333337</ele><time>2026-04-11T18:29:09Z</time></trkpt><trkpt lat="43.03278019234108" lon="11.616481067589554"><ele>377.6666666666667</ele><time>2026-04-11T18:29:10Z</time></trkpt><trkpt lat="43.03275056364736" lon="11.61657618977971"><ele>377.0</ele><time>2026-04-11T18:29:11Z</time></trkpt><trkpt lat="43.03272695634636" lon="11.616672352606628"><ele>376.99999999999994</ele><time>2026-04-11T18:29:12Z</time></trkpt><trkpt lat="43.03269207709058" lon="11.616757244616764"><ele>377.0</ele><time>2026-04-11T18:29:13Z</time></trkpt><trkpt lat="43.03266382331033" lon="11.616843236808997"><ele>377.0</ele><time>2026-04-11T18:29:14Z</time></trkpt><trkpt lat="43.032636110460125" lon="11.616936355275453"><ele>377.0</ele><time>2026-04-11T18:29:15Z</time></trkpt><trkpt lat="43.0326088718434" lon="11.617027168916058"><ele>377.0</ele><time>2026-04-11T18:29:16Z</time></trkpt><trkpt lat="43.032582862721675" lon="11.617115004067905"><ele>376.99999999999994</ele><time>2026-04-11T18:29:17Z</time></trkpt><trkpt lat="43.032551876314244" lon="11.617199392827192"><ele>377.0</ele><time>2026-04-11T18:29:18Z</time></trkpt><trkpt lat="43.03251800103895" lon="11.61727763290422"><ele>373.6</ele><time>2026-04-11T18:29:19Z</time></trkpt><trkpt lat="43.03245412609333" lon="11.61739842566843"><ele>370.20000000000005</ele><time>2026-04-11T18:29:21Z</time></trkpt><trkpt lat="43.03239862577179" lon="11.617508196439825"><ele>366.8</ele><time>2026-04-11T18:29:23Z</time></trkpt><trkpt lat="43.03233565269535" lon="11.617616245812998"><ele>363.4</ele><time>2026-04-11T18:29:25Z</time></trkpt><trkpt lat="43.03228762763826" lon="11.61773279102638"><ele>360.0</ele><time>2026-04-11T18:29:27Z</time></trkpt><trkpt lat="43.03223408940378" lon="11.617829200427039"><ele>360.0</ele><time>2026-04-11T18:29:29Z</time></trkpt><trkpt lat="43.03218213387521" lon="11.617913388356847"><ele>360.0</ele><time>2026-04-11T18:29:31Z</time></trkpt><trkpt lat="43.032115115997144" lon="11.617990074829958"><ele>360.0</ele><time>2026-04-11T18:29:33Z</time></trkpt><trkpt lat="43.03204732333228" lon="11.618053956481438"><ele>360.0</ele><time>2026-04-11T18:29:35Z</time></trkpt><trkpt lat="43.031973295808456" lon="11.618148490216498"><ele>360.0</ele><time>2026-04-11T18:29:37Z</time></trkpt><trkpt lat="43.03192870956803" lon="11.618246224391994"><ele>360.0</ele><time>2026-04-11T18:29:39Z</time></trkpt><trkpt lat="43.03189692790359" lon="11.618338840011617"><ele>360.0</ele><time>2026-04-11T18:29:41Z</time></trkpt><trkpt lat="43.031886353944564" lon="11.618428339806936"><ele>360.0</ele><time>2026-04-11T18:29:43Z</time></trkpt><trkpt lat="43.03189010539931" lon="11.618534364539638"><ele>360.0</ele><time>2026-04-11T18:29:45Z</time></trkpt><trkpt lat="43.03189832453754" lon="11.618647708990474"><ele>360.0</ele><time>2026-04-11T18:29:47Z</time></trkpt><trkpt lat="43.031893708400126" lon="11.618752070536257"><ele>360.0</ele><time>2026-04-11T18:29:49Z</time></trkpt><trkpt lat="43.031884333475645" lon="11.618849198070304"><ele>360.0</ele><time>2026-04-11T18:29:51Z</time></trkpt><trkpt lat="43.031843897145215" lon="11.61893230512599"><ele>360.0</ele><time>2026-04-11T18:29:53Z</time></trkpt><trkpt lat="43.03178890835569" lon="11.618993304315323"><ele>359.8333333333333</ele><time>2026-04-11T18:29:55Z</time></trkpt><trkpt lat="43.03172244310282" lon="11.619042824940674"><ele>359.6666666666667</ele><time>2026-04-11T18:29:57Z</time></trkpt><trkpt lat="43.031641862253686" lon="11.619067045532555"><ele>359.5</ele><time>2026-04-11T18:29:59Z</time></trkpt><trkpt lat="43.031559116078185" lon="11.619073278415502"><ele>359.33333333333337</ele><time>2026-04-11T18:30:01Z</time></trkpt><trkpt lat="43.03148540884255" lon="11.619061467078549"><ele>359.1666666666667</ele><time>2026-04-11T18:30:03Z</time></trkpt><trkpt lat="43.0314190784802" lon="11.619004695432036"><ele>359.0</ele><time>2026-04-11T18:30:05Z</time></trkpt><trkpt lat="43.03137810491341" lon="11.618930456936235"><ele>356.6666666666667</ele><time>2026-04-11T18:30:07Z</time></trkpt><trkpt lat="43.0313508149479" lon="11.618842763754904"><ele>354.33333333333337</ele><time>2026-04-11T18:30:09Z</time></trkpt><trkpt lat="43.03133443965324" lon="11.618752836661182"><ele>352.0</ele><time>2026-04-11T18:30:11Z</time></trkpt><trkpt lat="43.03128137733842" lon="11.618660822875247"><ele>349.6666666666667</ele><time>2026-04-11T18:30:14Z</time></trkpt><trkpt lat="43.031195891565176" lon="11.618633573332865"><ele>347.3333333333333</ele><time>2026-04-11T18:30:17Z</time></trkpt><trkpt lat="43.03112931312086" lon="11.618654808489797"><ele>345.0</ele><time>2026-04-11T18:30:19Z</time></trkpt><trkpt lat="43.03105620847016" lon="11.618681459913383"><ele>345.0</ele><time>2026-04-11T18:30:20.999Z</time></trkpt><trkpt lat="43.0309821652268" lon="11.618696279005414"><ele>345.0</ele><time>2026-04-11T18:30:22.999Z</time></trkpt><trkpt lat="43.03091498239854" lon="11.618718216428931"><ele>345.0</ele><time>2026-04-11T18:30:24.999Z</time></trkpt><trkpt lat="43.03084280570917" lon="11.618751683092901"><ele>345.0</ele><time>2026-04-11T18:30:26.999Z</time></trkpt><trkpt lat="43.030765516982164" lon="11.618772174872477"><ele>345.0</ele><time>2026-04-11T18:30:28.999Z</time></trkpt><trkpt lat="43.03068571512253" lon="11.61878426582315"><ele>345.0</ele><time>2026-04-11T18:30:30.999Z</time></trkpt><trkpt lat="43.030594898684996" lon="11.61884807632514"><ele>342.3333333333333</ele><time>2026-04-11T18:30:32.999Z</time></trkpt><trkpt lat="43.03051856880204" lon="11.618943670795785"><ele>339.6666666666667</ele><time>2026-04-11T18:30:35Z</time></trkpt><trkpt lat="43.03046539052485" lon="11.619026170153658"><ele>337.0</ele><time>2026-04-11T18:30:37Z</time></trkpt><trkpt lat="43.030432102294064" lon="11.61911283320218"><ele>334.33333333333337</ele><time>2026-04-11T18:30:39Z</time></trkpt><trkpt lat="43.0304123251595" lon="11.619207508686792"><ele>331.6666666666667</ele><time>2026-04-11T18:30:41Z</time></trkpt><trkpt lat="43.03039993380447" lon="11.619341949035315"><ele>329.0</ele><time>2026-04-11T18:30:44Z</time></trkpt><trkpt lat="43.03040424711755" lon="11.619460347655059"><ele>327.79999999999995</ele><time>2026-04-11T18:30:46Z</time></trkpt><trkpt lat="43.030430077592996" lon="11.61958903007354"><ele>326.59999999999997</ele><time>2026-04-11T18:30:48Z</time></trkpt><trkpt lat="43.03046829367484" lon="11.619716413047655"><ele>325.4</ele><time>2026-04-11T18:30:50Z</time></trkpt><trkpt lat="43.030505296404854" lon="11.619837663644455"><ele>324.2</ele><time>2026-04-11T18:30:52Z</time></trkpt><trkpt lat="43.03054383330037" lon="11.619963941422633"><ele>323.0</ele><time>2026-04-11T18:30:54Z</time></trkpt><trkpt lat="43.03056680575788" lon="11.620049307894234"><ele>323.0</ele><time>2026-04-11T18:30:55Z</time></trkpt><trkpt lat="43.03058545659981" lon="11.620139683402755"><ele>323.0</ele><time>2026-04-11T18:30:56Z</time></trkpt><trkpt lat="43.03061311444247" lon="11.620223112840298"><ele>323.0</ele><time>2026-04-11T18:30:57Z</time></trkpt><trkpt lat="43.030613868653504" lon="11.620335235774625"><ele>323.0</ele><time>2026-04-11T18:30:59Z</time></trkpt><trkpt lat="43.030595301786356" lon="11.620456454493477"><ele>323.0</ele><time>2026-04-11T18:31:02Z</time></trkpt><trkpt lat="43.03054940740716" lon="11.62056300577316"><ele>323.0</ele><time>2026-04-11T18:31:04Z</time></trkpt><trkpt lat="43.030509399917186" lon="11.620661389505276"><ele>321.83333333333337</ele><time>2026-04-11T18:31:06Z</time></trkpt><trkpt lat="43.03044784275566" lon="11.620719720291627"><ele>320.6666666666667</ele><time>2026-04-11T18:31:09Z</time></trkpt><trkpt lat="43.030355638274806" lon="11.620747748508133"><ele>319.5</ele><time>2026-04-11T18:31:12Z</time></trkpt><trkpt lat="43.0302782498068" lon="11.620695424364362"><ele>318.3333333333333</ele><time>2026-04-11T18:31:14Z</time></trkpt><trkpt lat="43.03020904454885" lon="11.620634493642573"><ele>317.16666666666663</ele><time>2026-04-11T18:31:16Z</time></trkpt><trkpt lat="43.03012462820866" lon="11.620578419424827"><ele>316.0</ele><time>2026-04-11T18:31:18Z</time></trkpt><trkpt lat="43.03002892608976" lon="11.620600765678617"><ele>314.16666666666663</ele><time>2026-04-11T18:31:20Z</time></trkpt><trkpt lat="43.02996062384125" lon="11.620600355905344"><ele>312.3333333333333</ele><time>2026-04-11T18:31:22Z</time></trkpt><trkpt lat="43.0298675195589" lon="11.620614234851217"><ele>310.5</ele><time>2026-04-11T18:31:25Z</time></trkpt><trkpt lat="43.02977684707949" lon="11.62061393541929"><ele>308.6666666666667</ele><time>2026-04-11T18:31:27Z</time></trkpt><trkpt lat="43.02969034813826" lon="11.620645974471078"><ele>306.83333333333337</ele><time>2026-04-11T18:31:29Z</time></trkpt><trkpt lat="43.02958618176663" lon="11.620652656605438"><ele>305.0</ele><time>2026-04-11T18:31:32Z</time></trkpt><trkpt lat="43.02951370510424" lon="11.620659734344382"><ele>305.0</ele><time>2026-04-11T18:31:34Z</time></trkpt><trkpt lat="43.0294383080729" lon="11.620665006517834"><ele>305.0</ele><time>2026-04-11T18:31:36Z</time></trkpt><trkpt lat="43.0293590681472" lon="11.620660893472774"><ele>305.0</ele><time>2026-04-11T18:31:38Z</time></trkpt><trkpt lat="43.029287118325676" lon="11.62063282677951"><ele>305.0</ele><time>2026-04-11T18:31:40Z</time></trkpt><trkpt lat="43.029202960070485" lon="11.620599921316515"><ele>305.0</ele><time>2026-04-11T18:31:42Z</time></trkpt><trkpt lat="43.029120176307075" lon="11.620567567190061"><ele>305.0</ele><time>2026-04-11T18:31:44Z</time></trkpt><trkpt lat="43.02903638259074" lon="11.62054495067154"><ele>304.33333333333337</ele><time>2026-04-11T18:31:46Z</time></trkpt><trkpt lat="43.02896150119861" lon="11.620549669705396"><ele>303.6666666666667</ele><time>2026-04-11T18:31:48Z</time></trkpt><trkpt lat="43.02889559473942" lon="11.620552864377885"><ele>303.0</ele><time>2026-04-11T18:31:50Z</time></trkpt><trkpt lat="43.02881815091252" lon="11.620522912021963"><ele>302.3333333333333</ele><time>2026-04-11T18:31:52Z</time></trkpt><trkpt lat="43.02875495797427" lon="11.620426276141151"><ele>301.66666666666663</ele><time>2026-04-11T18:31:54Z</time></trkpt><trkpt lat="43.02868454178171" lon="11.620343227220093"><ele>301.0</ele><time>2026-04-11T18:31:56Z</time></trkpt><trkpt lat="43.028634345805315" lon="11.620269419023375"><ele>301.0</ele><time>2026-04-11T18:31:58Z</time></trkpt><trkpt lat="43.02858355387283" lon="11.62021391687782"><ele>301.0</ele><time>2026-04-11T18:32:00Z</time></trkpt><trkpt lat="43.02851593023323" lon="11.620154163264923"><ele>301.0</ele><time>2026-04-11T18:32:04Z</time></trkpt><trkpt lat="43.02839911684263" lon="11.620639320002708"><ele>299.5</ele><time>2026-04-11T18:32:15.999Z</time></trkpt><trkpt lat="43.02836211399155" lon="11.6208381419362"><ele>298.0</ele><time>2026-04-11T18:32:17.999Z</time></trkpt><trkpt lat="43.02833705174027" lon="11.621004903936056"><ele>296.5</ele><time>2026-04-11T18:32:19.999Z</time></trkpt><trkpt lat="43.028326059831585" lon="11.6211803877207"><ele>295.0</ele><time>2026-04-11T18:32:21.999Z</time></trkpt><trkpt lat="43.02830495991376" lon="11.621266255465356"><ele>290.8333333333333</ele><time>2026-04-11T18:32:22.999Z</time></trkpt><trkpt lat="43.0282916141618" lon="11.621350909546363"><ele>286.66666666666663</ele><time>2026-04-11T18:32:23.999Z</time></trkpt><trkpt lat="43.02826400439081" lon="11.621491215661676"><ele>282.5</ele><time>2026-04-11T18:32:25.999Z</time></trkpt><trkpt lat="43.02825105359034" lon="11.62157848382722"><ele>278.3333333333333</ele><time>2026-04-11T18:32:26.999Z</time></trkpt><trkpt lat="43.028226156209726" lon="11.621746253222001"><ele>274.1666666666667</ele><time>2026-04-11T18:32:28.999Z</time></trkpt><trkpt lat="43.02821236808643" lon="11.621839163645879"><ele>270.0</ele><time>2026-04-11T18:32:29.999Z</time></trkpt><trkpt lat="43.02819786311662" lon="11.621939607640138"><ele>268.8</ele><time>2026-04-11T18:32:30.999Z</time></trkpt><trkpt lat="43.0282007687418" lon="11.622036382728282"><ele>267.6</ele><time>2026-04-11T18:32:31.999Z</time></trkpt><trkpt lat="43.02818167612568" lon="11.622125231661109"><ele>266.4</ele><time>2026-04-11T18:32:32.999Z</time></trkpt><trkpt lat="43.02815669106792" lon="11.62228505945427"><ele>265.2</ele><time>2026-04-11T18:32:34.999Z</time></trkpt><trkpt lat="43.02812744185602" lon="11.622446642905736"><ele>264.0</ele><time>2026-04-11T18:32:36.999Z</time></trkpt><trkpt lat="43.02807950792858" lon="11.622607386005514"><ele>264.0</ele><time>2026-04-11T18:32:38.999Z</time></trkpt><trkpt lat="43.028058847191865" lon="11.622696670966693"><ele>264.0</ele><time>2026-04-11T18:32:40Z</time></trkpt><trkpt lat="43.028033710432254" lon="11.622783914979749"><ele>264.0</ele><time>2026-04-11T18:32:41Z</time></trkpt><trkpt lat="43.02800798843965" lon="11.622866592320934"><ele>264.0</ele><time>2026-04-11T18:32:42Z</time></trkpt><trkpt lat="43.02798723075353" lon="11.622948295475934"><ele>264.0</ele><time>2026-04-11T18:32:43Z</time></trkpt><trkpt lat="43.027965309041875" lon="11.623036068767924"><ele>264.0</ele><time>2026-04-11T18:32:44Z</time></trkpt><trkpt lat="43.027944782420725" lon="11.623134853643059"><ele>264.0</ele><time>2026-04-11T18:32:45Z</time></trkpt><trkpt lat="43.02792649696349" lon="11.62322543207853"><ele>263.0</ele><time>2026-04-11T18:32:46Z</time></trkpt><trkpt lat="43.02791108134469" lon="11.623323215703476"><ele>262.0</ele><time>2026-04-11T18:32:47Z</time></trkpt><trkpt lat="43.027900513361196" lon="11.623430130840395"><ele>261.0</ele><time>2026-04-11T18:32:48Z</time></trkpt><trkpt lat="43.027896297801725" lon="11.62354457004786"><ele>260.0</ele><time>2026-04-11T18:32:49Z</time></trkpt><trkpt lat="43.027897295090916" lon="11.623653031399042"><ele>259.0</ele><time>2026-04-11T18:32:50Z</time></trkpt><trkpt lat="43.02790156778108" lon="11.623753788167706"><ele>258.0</ele><time>2026-04-11T18:32:51Z</time></trkpt><trkpt lat="43.02790684929524" lon="11.623850668802616"><ele>257.99999999999994</ele><time>2026-04-11T18:32:52Z</time></trkpt><trkpt lat="43.0279183334566" lon="11.62394116774226"><ele>258.0</ele><time>2026-04-11T18:32:53Z</time></trkpt><trkpt lat="43.02793030732557" lon="11.624029631311714"><ele>258.0</ele><time>2026-04-11T18:32:54Z</time></trkpt><trkpt lat="43.027948185117985" lon="11.62411734462313"><ele>258.0</ele><time>2026-04-11T18:32:55Z</time></trkpt><trkpt lat="43.0279632238394" lon="11.624206372492047"><ele>258.0</ele><time>2026-04-11T18:32:56Z</time></trkpt><trkpt lat="43.02797648666675" lon="11.624293098341575"><ele>257.99999999999994</ele><time>2026-04-11T18:32:57Z</time></trkpt><trkpt lat="43.02802294241245" lon="11.624429844869113"><ele>258.0</ele><time>2026-04-11T18:32:59Z</time></trkpt><trkpt lat="43.02807118478449" lon="11.62457652400529"><ele>258.0</ele><time>2026-04-11T18:33:01Z</time></trkpt><trkpt lat="43.02810385386858" lon="11.624658470748695"><ele>258.0</ele><time>2026-04-11T18:33:02Z</time></trkpt><trkpt lat="43.028143689440896" lon="11.624768452604673"><ele>258.0</ele><time>2026-04-11T18:33:04Z</time></trkpt><trkpt lat="43.028185866312974" lon="11.62485448255759"><ele>258.0</ele><time>2026-04-11T18:33:06Z</time></trkpt><trkpt lat="43.028225065402225" lon="11.624946963448854"><ele>258.0</ele><time>2026-04-11T18:33:08Z</time></trkpt><trkpt lat="43.0282648912615" lon="11.62505856230912"><ele>258.0</ele><time>2026-04-11T18:33:11Z</time></trkpt><trkpt lat="43.02830471588928" lon="11.625145537303808"><ele>258.3333333333333</ele><time>2026-04-11T18:33:15Z</time></trkpt><trkpt lat="43.028317601373345" lon="11.625236928381335"><ele>258.6666666666667</ele><time>2026-04-11T18:35:56.999Z</time></trkpt><trkpt lat="43.028335044035984" lon="11.625334478580003"><ele>259.0</ele><time>2026-04-11T18:36:00.999Z</time></trkpt><trkpt lat="43.02842508441671" lon="11.625316146615402"><ele>259.33333333333337</ele><time>2026-04-11T18:36:01.999Z</time></trkpt><trkpt lat="43.0284937634519" lon="11.625368838714635"><ele>259.6666666666667</ele><time>2026-04-11T18:36:04.999Z</time></trkpt><trkpt lat="43.028553582121816" lon="11.625461542928987"><ele>260.0</ele><time>2026-04-11T18:36:07.999Z</time></trkpt><trkpt lat="43.02858777714289" lon="11.625543614537417"><ele>260.00000000000006</ele><time>2026-04-11T18:36:09.999Z</time></trkpt><trkpt lat="43.02864328496014" lon="11.625614721054731"><ele>260.0</ele><time>2026-04-11T18:36:11.999Z</time></trkpt><trkpt lat="43.028693700352946" lon="11.625680204877266"><ele>260.0</ele><time>2026-04-11T18:36:13.999Z</time></trkpt><trkpt lat="43.02874993592575" lon="11.625748245373833"><ele>260.0</ele><time>2026-04-11T18:36:15.999Z</time></trkpt><trkpt lat="43.028806218342226" lon="11.625806373205284"><ele>260.0</ele><time>2026-04-11T18:36:17.999Z</time></trkpt><trkpt lat="43.02886955167866" lon="11.62585550491829"><ele>260.00000000000006</ele><time>2026-04-11T18:36:19.999Z</time></trkpt><trkpt lat="43.028940784203776" lon="11.625897102992251"><ele>260.0</ele><time>2026-04-11T18:36:21.999Z</time></trkpt><trkpt lat="43.02902080680734" lon="11.625932559532615"><ele>260.0</ele><time>2026-04-11T18:36:23.999Z</time></trkpt><trkpt lat="43.02909758265897" lon="11.625975499976834"><ele>260.0</ele><time>2026-04-11T18:36:25.999Z</time></trkpt><trkpt lat="43.02919663644501" lon="11.626014906109267"><ele>260.0</ele><time>2026-04-11T18:36:27.999Z</time></trkpt><trkpt lat="43.02929894594442" lon="11.626044507528233"><ele>260.0</ele><time>2026-04-11T18:36:29.999Z</time></trkpt><trkpt lat="43.02940406808869" lon="11.626074183892865"><ele>260.0</ele><time>2026-04-11T18:36:31.999Z</time></trkpt><trkpt lat="43.02951433598037" lon="11.626124049939124"><ele>259.0</ele><time>2026-04-11T18:36:33.999Z</time></trkpt><trkpt lat="43.02961333090249" lon="11.626190017145221"><ele>258.0</ele><time>2026-04-11T18:36:35.999Z</time></trkpt><trkpt lat="43.02971249047515" lon="11.62625618808452"><ele>257.0</ele><time>2026-04-11T18:36:37.999Z</time></trkpt><trkpt lat="43.029822387265355" lon="11.626331357232932"><ele>256.0</ele><time>2026-04-11T18:36:39.999Z</time></trkpt><trkpt lat="43.029939431966824" lon="11.626399788133332"><ele>256.42857142857144</ele><time>2026-04-11T18:36:41.999Z</time></trkpt><trkpt lat="43.030001061112976" lon="11.626429497038554"><ele>256.85714285714283</ele><time>2026-04-11T18:36:42.999Z</time></trkpt><trkpt lat="43.03006439776161" lon="11.626455072041118"><ele>257.2857142857143</ele><time>2026-04-11T18:36:43.999Z</time></trkpt><trkpt lat="43.03012898521429" lon="11.626479543599844"><ele>257.7142857142857</ele><time>2026-04-11T18:36:44.999Z</time></trkpt><trkpt lat="43.0301940248456" lon="11.626500318870317"><ele>258.1428571428571</ele><time>2026-04-11T18:36:45.999Z</time></trkpt><trkpt lat="43.030263470000484" lon="11.62651316943668"><ele>258.57142857142856</ele><time>2026-04-11T18:36:46.999Z</time></trkpt><trkpt lat="43.03033181230611" lon="11.62652938934623"><ele>259.0</ele><time>2026-04-11T18:36:47.999Z</time></trkpt><trkpt lat="43.03040003099116" lon="11.626542042609024"><ele>259.0</ele><time>2026-04-11T18:36:48.999Z</time></trkpt><trkpt lat="43.0304682534786" lon="11.626553116639258"><ele>259.0</ele><time>2026-04-11T18:36:49.999Z</time></trkpt><trkpt lat="43.030532711977784" lon="11.626565950903014"><ele>259.0</ele><time>2026-04-11T18:36:50.999Z</time></trkpt><trkpt lat="43.03059834756364" lon="11.626577779621272"><ele>259.0</ele><time>2026-04-11T18:36:52Z</time></trkpt><trkpt lat="43.03066326853626" lon="11.626590993563847"><ele>259.0</ele><time>2026-04-11T18:36:53Z</time></trkpt><trkpt lat="43.03073031544271" lon="11.626605735959096"><ele>259.0</ele><time>2026-04-11T18:36:54Z</time></trkpt><trkpt lat="43.03079756295896" lon="11.626618548139776"><ele>259.0</ele><time>2026-04-11T18:36:55Z</time></trkpt><trkpt lat="43.030863949193865" lon="11.626636204716247"><ele>259.7142857142857</ele><time>2026-04-11T18:36:56Z</time></trkpt><trkpt lat="43.030927367657206" lon="11.626661403941558"><ele>260.42857142857144</ele><time>2026-04-11T18:36:57Z</time></trkpt><trkpt lat="43.03099293780443" lon="11.626683807069764"><ele>261.1428571428571</ele><time>2026-04-11T18:36:58Z</time></trkpt><trkpt lat="43.031059613186954" lon="11.626707604633046"><ele>261.8571428571429</ele><time>2026-04-11T18:36:59Z</time></trkpt><trkpt lat="43.03112733588985" lon="11.626728444999596"><ele>262.57142857142856</ele><time>2026-04-11T18:37:00Z</time></trkpt><trkpt lat="43.03119907949761" lon="11.626746537789748"><ele>263.2857142857143</ele><time>2026-04-11T18:37:01Z</time></trkpt><trkpt lat="43.03126786719379" lon="11.626770698482794"><ele>264.0</ele><time>2026-04-11T18:37:02Z</time></trkpt><trkpt lat="43.031336911521315" lon="11.626792751274502"><ele>264.0</ele><time>2026-04-11T18:37:03Z</time></trkpt><trkpt lat="43.031405721765786" lon="11.626814159538785"><ele>264.0</ele><time>2026-04-11T18:37:04Z</time></trkpt><trkpt lat="43.031474935764805" lon="11.626837113921201"><ele>264.0</ele><time>2026-04-11T18:37:05Z</time></trkpt><trkpt lat="43.031546686673245" lon="11.626859981636036"><ele>264.0</ele><time>2026-04-11T18:37:06Z</time></trkpt><trkpt lat="43.03161789865201" lon="11.62687694568589"><ele>264.0</ele><time>2026-04-11T18:37:07Z</time></trkpt><trkpt lat="43.03168937783019" lon="11.626899242472554"><ele>264.0</ele><time>2026-04-11T18:37:08Z</time></trkpt><trkpt lat="43.03175782799214" lon="11.62692325289941"><ele>264.0</ele><time>2026-04-11T18:37:09Z</time></trkpt><trkpt lat="43.03182397176692" lon="11.626950365152846"><ele>263.6666666666667</ele><time>2026-04-11T18:37:10Z</time></trkpt><trkpt lat="43.03189108020426" lon="11.626973026213319"><ele>263.3333333333333</ele><time>2026-04-11T18:37:11Z</time></trkpt><trkpt lat="43.03195945057579" lon="11.62699350704974"><ele>263.0</ele><time>2026-04-11T18:37:12Z</time></trkpt><trkpt lat="43.03202966812144" lon="11.627014103008799"><ele>262.66666666666663</ele><time>2026-04-11T18:37:13Z</time></trkpt><trkpt lat="43.0321591110342" lon="11.627051136427719"><ele>262.3333333333333</ele><time>2026-04-11T18:37:15Z</time></trkpt><trkpt lat="43.03222395838684" lon="11.627069548235909"><ele>262.0</ele><time>2026-04-11T18:37:16Z</time></trkpt><trkpt lat="43.03228604451333" lon="11.627089816663535"><ele>260.75</ele><time>2026-04-11T18:37:17Z</time></trkpt><trkpt lat="43.03240765637906" lon="11.627126465765095"><ele>259.5</ele><time>2026-04-11T18:37:19Z</time></trkpt><trkpt lat="43.032529521486765" lon="11.62716005313423"><ele>258.25</ele><time>2026-04-11T18:37:21Z</time></trkpt><trkpt lat="43.032645436597676" lon="11.627200343855478"><ele>257.0</ele><time>2026-04-11T18:37:23Z</time></trkpt><trkpt lat="43.032756347343486" lon="11.627236642484235"><ele>257.0</ele><time>2026-04-11T18:37:25Z</time></trkpt><trkpt lat="43.032864411233774" lon="11.627268632299781"><ele>257.0</ele><time>2026-04-11T18:37:27Z</time></trkpt><trkpt lat="43.03296787560217" lon="11.627304042504315"><ele>257.0</ele><time>2026-04-11T18:37:29Z</time></trkpt><trkpt lat="43.03306939465871" lon="11.62733636058633"><ele>257.0</ele><time>2026-04-11T18:37:31Z</time></trkpt><trkpt lat="43.033167102269466" lon="11.627379637532389"><ele>257.0</ele><time>2026-04-11T18:37:33Z</time></trkpt><trkpt lat="43.033265848179255" lon="11.627402632276652"><ele>257.2</ele><time>2026-04-11T18:37:35Z</time></trkpt><trkpt lat="43.03335176638379" lon="11.627472422438492"><ele>257.4</ele><time>2026-04-11T18:37:37Z</time></trkpt><trkpt lat="43.033416674488436" lon="11.627580884096385"><ele>257.6</ele><time>2026-04-11T18:37:39Z</time></trkpt><trkpt lat="43.03345133661158" lon="11.62771547455179"><ele>257.8</ele><time>2026-04-11T18:37:41Z</time></trkpt><trkpt lat="43.03345317471871" lon="11.627862516223079"><ele>258.0</ele><time>2026-04-11T18:37:43Z</time></trkpt><trkpt lat="43.03344338174762" lon="11.628010486156056"><ele>258.0</ele><time>2026-04-11T18:37:45Z</time></trkpt><trkpt lat="43.03342929714515" lon="11.628160687333935"><ele>258.0</ele><time>2026-04-11T18:37:47Z</time></trkpt><trkpt lat="43.033414137151496" lon="11.628319875021957"><ele>258.0</ele><time>2026-04-11T18:37:49Z</time></trkpt><trkpt lat="43.033403389038185" lon="11.628477370917981"><ele>258.0</ele><time>2026-04-11T18:37:51Z</time></trkpt><trkpt lat="43.03339616042592" lon="11.628640321113474"><ele>258.4</ele><time>2026-04-11T18:37:53Z</time></trkpt><trkpt lat="43.03338165016833" lon="11.628804492560352"><ele>258.8</ele><time>2026-04-11T18:37:55Z</time></trkpt><trkpt lat="43.03337577149337" lon="11.628895667476579"><ele>259.2</ele><time>2026-04-11T18:37:56Z</time></trkpt><trkpt lat="43.0333648704178" lon="11.629067400448905"><ele>259.6</ele><time>2026-04-11T18:37:57.999Z</time></trkpt><trkpt lat="43.033361057562566" lon="11.629161930689472"><ele>260.0</ele><time>2026-04-11T18:37:58.999Z</time></trkpt><trkpt lat="43.03335761497315" lon="11.629254430968494"><ele>260.00000000000006</ele><time>2026-04-11T18:37:59.999Z</time></trkpt><trkpt lat="43.03335209586569" lon="11.62934850692635"><ele>260.0</ele><time>2026-04-11T18:38:00.999Z</time></trkpt><trkpt lat="43.033346311351565" lon="11.629440764805112"><ele>260.0</ele><time>2026-04-11T18:38:01.999Z</time></trkpt><trkpt lat="43.03334118615953" lon="11.629533594096527"><ele>260.0</ele><time>2026-04-11T18:38:02.999Z</time></trkpt><trkpt lat="43.033338434504785" lon="11.629631304441997"><ele>260.0</ele><time>2026-04-11T18:38:03.999Z</time></trkpt><trkpt lat="43.03333210005266" lon="11.629729719945619"><ele>260.00000000000006</ele><time>2026-04-11T18:38:04.999Z</time></trkpt><trkpt lat="43.0333274679073" lon="11.629827336420767"><ele>260.0</ele><time>2026-04-11T18:38:05.999Z</time></trkpt><trkpt lat="43.03332645747231" lon="11.62992172256898"><ele>259.83333333333337</ele><time>2026-04-11T18:38:06.999Z</time></trkpt><trkpt lat="43.03332686988397" lon="11.630010996263294"><ele>259.6666666666667</ele><time>2026-04-11T18:38:07.999Z</time></trkpt><trkpt lat="43.03332844455378" lon="11.63010294083928"><ele>259.5</ele><time>2026-04-11T18:38:08.999Z</time></trkpt><trkpt lat="43.033331788601004" lon="11.630193700328078"><ele>259.3333333333333</ele><time>2026-04-11T18:38:09.999Z</time></trkpt><trkpt lat="43.033337549391725" lon="11.630282439931953"><ele>259.16666666666663</ele><time>2026-04-11T18:38:10.999Z</time></trkpt><trkpt lat="43.0333433420463" lon="11.630443622685467"><ele>259.0</ele><time>2026-04-11T18:38:12.999Z</time></trkpt><trkpt lat="43.03335618676138" lon="11.630595844672392"><ele>259.0</ele><time>2026-04-11T18:38:14.999Z</time></trkpt><trkpt lat="43.033368443795105" lon="11.63074502466594"><ele>259.0</ele><time>2026-04-11T18:38:16.999Z</time></trkpt><trkpt lat="43.03338000201191" lon="11.630893282000748"><ele>259.0</ele><time>2026-04-11T18:38:18.999Z</time></trkpt><trkpt lat="43.033395646409794" lon="11.631041428303421"><ele>259.0</ele><time>2026-04-11T18:38:20.999Z</time></trkpt><trkpt lat="43.03340943593714" lon="11.631189997280982"><ele>259.0</ele><time>2026-04-11T18:38:22.999Z</time></trkpt><trkpt lat="43.03342559969245" lon="11.631338802272504"><ele>259.25</ele><time>2026-04-11T18:38:24.999Z</time></trkpt><trkpt lat="43.033444203954865" lon="11.63149099845822"><ele>259.5</ele><time>2026-04-11T18:38:26.999Z</time></trkpt><trkpt lat="43.03345554471728" lon="11.63164475931722"><ele>259.75</ele><time>2026-04-11T18:38:28.999Z</time></trkpt><trkpt lat="43.03347343717501" lon="11.63180050983211"><ele>260.0</ele><time>2026-04-11T18:38:30.999Z</time></trkpt><trkpt lat="43.03347703854025" lon="11.631949965800331"><ele>259.25</ele><time>2026-04-11T18:38:32.999Z</time></trkpt><trkpt lat="43.033492036855655" lon="11.63210795167149"><ele>258.5</ele><time>2026-04-11T18:38:34.999Z</time></trkpt><trkpt lat="43.03350852138842" lon="11.632261068255824"><ele>257.75</ele><time>2026-04-11T18:38:36.999Z</time></trkpt><trkpt lat="43.033522669910454" lon="11.632418028300114"><ele>257.0</ele><time>2026-04-11T18:38:38.999Z</time></trkpt><trkpt lat="43.03352958393062" lon="11.63257165783084"><ele>257.0</ele><time>2026-04-11T18:38:40.999Z</time></trkpt><trkpt lat="43.033548203779404" lon="11.632722571629657"><ele>257.0</ele><time>2026-04-11T18:38:42.999Z</time></trkpt><trkpt lat="43.03356587967248" lon="11.63287308521039"><ele>257.0</ele><time>2026-04-11T18:38:44.999Z</time></trkpt><trkpt lat="43.033583352103655" lon="11.633024455699351"><ele>257.0</ele><time>2026-04-11T18:38:46.999Z</time></trkpt><trkpt lat="43.033592880271925" lon="11.633179211065162"><ele>257.0</ele><time>2026-04-11T18:38:48.999Z</time></trkpt><trkpt lat="43.03360005802187" lon="11.633329611975073"><ele>256.8</ele><time>2026-04-11T18:38:50.999Z</time></trkpt><trkpt lat="43.03360998273863" lon="11.633480333634601"><ele>256.6</ele><time>2026-04-11T18:38:52.999Z</time></trkpt><trkpt lat="43.033610589330884" lon="11.633631091134408"><ele>256.40000000000003</ele><time>2026-04-11T18:38:54.999Z</time></trkpt><trkpt lat="43.03360374082927" lon="11.633777229819186"><ele>256.2</ele><time>2026-04-11T18:38:56.999Z</time></trkpt><trkpt lat="43.03359887003988" lon="11.633923296578107"><ele>256.0</ele><time>2026-04-11T18:38:59Z</time></trkpt><trkpt lat="43.03358318199345" lon="11.634062652656374"><ele>256.0</ele><time>2026-04-11T18:39:01Z</time></trkpt><trkpt lat="43.03357252325824" lon="11.634201357126933"><ele>256.0</ele><time>2026-04-11T18:39:03Z</time></trkpt><trkpt lat="43.03355859264866" lon="11.634334843657063"><ele>256.0</ele><time>2026-04-11T18:39:05Z</time></trkpt><trkpt lat="43.033545230488905" lon="11.634465905378862"><ele>256.0</ele><time>2026-04-11T18:39:07Z</time></trkpt><trkpt lat="43.03352888691637" lon="11.634591875147509"><ele>256.0</ele><time>2026-04-11T18:39:09Z</time></trkpt><trkpt lat="43.03351904821472" lon="11.63471625264564"><ele>256.3333333333333</ele><time>2026-04-11T18:39:11Z</time></trkpt><trkpt lat="43.033508048214415" lon="11.634837650130125"><ele>256.66666666666663</ele><time>2026-04-11T18:39:13Z</time></trkpt><trkpt lat="43.03349741883366" lon="11.63495989869455"><ele>257.0</ele><time>2026-04-11T18:39:15Z</time></trkpt><trkpt lat="43.0334856607881" lon="11.635079392176413"><ele>257.3333333333333</ele><time>2026-04-11T18:39:17Z</time></trkpt><trkpt lat="43.033459716240344" lon="11.635194198029854"><ele>257.6666666666667</ele><time>2026-04-11T18:39:19Z</time></trkpt><trkpt lat="43.03344820922613" lon="11.635313455705806"><ele>258.0</ele><time>2026-04-11T18:39:21Z</time></trkpt><trkpt lat="43.03345425884576" lon="11.635435515065328"><ele>258.3333333333333</ele><time>2026-04-11T18:39:23Z</time></trkpt><trkpt lat="43.03344353461202" lon="11.635552810523063"><ele>258.6666666666667</ele><time>2026-04-11T18:39:25Z</time></trkpt><trkpt lat="43.033440326862014" lon="11.635671294565528"><ele>259.0</ele><time>2026-04-11T18:39:27Z</time></trkpt><trkpt lat="43.033430757333534" lon="11.635785038803014"><ele>259.33333333333337</ele><time>2026-04-11T18:39:29Z</time></trkpt><trkpt lat="43.03343040763635" lon="11.635903011780101"><ele>259.6666666666667</ele><time>2026-04-11T18:39:31Z</time></trkpt><trkpt lat="43.033431799261855" lon="11.636019818722955"><ele>260.0</ele><time>2026-04-11T18:39:33Z</time></trkpt><trkpt lat="43.0334413176235" lon="11.636140024895122"><ele>260.0</ele><time>2026-04-11T18:39:35Z</time></trkpt><trkpt lat="43.033446116123955" lon="11.636254353158181"><ele>260.0</ele><time>2026-04-11T18:39:37Z</time></trkpt><trkpt lat="43.03345241634632" lon="11.63637186737335"><ele>260.0</ele><time>2026-04-11T18:39:39Z</time></trkpt><trkpt lat="43.03346060289148" lon="11.636487509141322"><ele>260.0</ele><time>2026-04-11T18:39:41Z</time></trkpt><trkpt lat="43.03347073965243" lon="11.636602278946132"><ele>260.0</ele><time>2026-04-11T18:39:43Z</time></trkpt><trkpt lat="43.03348237145081" lon="11.636720517165287"><ele>260.0</ele><time>2026-04-11T18:39:45Z</time></trkpt><trkpt lat="43.033486105003526" lon="11.63683520594497"><ele>260.0</ele><time>2026-04-11T18:39:47Z</time></trkpt><trkpt lat="43.03349379485899" lon="11.636946546660763"><ele>260.0</ele><time>2026-04-11T18:39:49Z</time></trkpt><trkpt lat="43.03349769031167" lon="11.637061812663728"><ele>260.0</ele><time>2026-04-11T18:39:51Z</time></trkpt><trkpt lat="43.03350379214329" lon="11.637176991323638"><ele>260.0</ele><time>2026-04-11T18:39:53Z</time></trkpt><trkpt lat="43.03351538147142" lon="11.637301126516407"><ele>260.0</ele><time>2026-04-11T18:39:55Z</time></trkpt><trkpt lat="43.03352284727062" lon="11.637425252407613"><ele>260.0</ele><time>2026-04-11T18:39:57Z</time></trkpt><trkpt lat="43.033529210459854" lon="11.637548109641777"><ele>260.2</ele><time>2026-04-11T18:39:59Z</time></trkpt><trkpt lat="43.033537458664384" lon="11.637675283426695"><ele>260.4</ele><time>2026-04-11T18:40:01Z</time></trkpt><trkpt lat="43.03354035162482" lon="11.637803086308876"><ele>260.6</ele><time>2026-04-11T18:40:03Z</time></trkpt><trkpt lat="43.03354924197388" lon="11.637928578165477"><ele>260.8</ele><time>2026-04-11T18:40:05Z</time></trkpt><trkpt lat="43.03356320512902" lon="11.638053756263593"><ele>261.0</ele><time>2026-04-11T18:40:07Z</time></trkpt><trkpt lat="43.033562955340756" lon="11.638187447981103"><ele>261.0</ele><time>2026-04-11T18:40:09Z</time></trkpt><trkpt lat="43.033590623085935" lon="11.638312026412468"><ele>261.0</ele><time>2026-04-11T18:40:10.999Z</time></trkpt><trkpt lat="43.03360689305824" lon="11.638440076286363"><ele>261.0</ele><time>2026-04-11T18:40:12.999Z</time></trkpt><trkpt lat="43.03362615055003" lon="11.63856922541419"><ele>261.0</ele><time>2026-04-11T18:40:14.999Z</time></trkpt><trkpt lat="43.033645460928696" lon="11.638696924483199"><ele>261.0</ele><time>2026-04-11T18:40:16.999Z</time></trkpt><trkpt lat="43.0336728292005" lon="11.638824724393878"><ele>260.8</ele><time>2026-04-11T18:40:18.999Z</time></trkpt><trkpt lat="43.03369193640157" lon="11.638950456520831"><ele>260.6</ele><time>2026-04-11T18:40:20.999Z</time></trkpt><trkpt lat="43.033719633441294" lon="11.639080870962617"><ele>260.4</ele><time>2026-04-11T18:40:22.999Z</time></trkpt><trkpt lat="43.03374418629218" lon="11.639207651030716"><ele>260.2</ele><time>2026-04-11T18:40:24.999Z</time></trkpt><trkpt lat="43.0337582682144" lon="11.639341299118758"><ele>260.0</ele><time>2026-04-11T18:40:26.999Z</time></trkpt><trkpt lat="43.033782856725644" lon="11.63947283028826"><ele>260.0</ele><time>2026-04-11T18:40:28.999Z</time></trkpt><trkpt lat="43.033807330015094" lon="11.639611160786869"><ele>260.0</ele><time>2026-04-11T18:40:30.999Z</time></trkpt><trkpt lat="43.033836351774774" lon="11.639749381126482"><ele>260.0</ele><time>2026-04-11T18:40:32.999Z</time></trkpt><trkpt lat="43.03386151131833" lon="11.63988310295578"><ele>260.0</ele><time>2026-04-11T18:40:34.999Z</time></trkpt><trkpt lat="43.03389412671472" lon="11.640022489180666"><ele>260.0</ele><time>2026-04-11T18:40:36.999Z</time></trkpt><trkpt lat="43.033922275710566" lon="11.640160986274786"><ele>260.0</ele><time>2026-04-11T18:40:38.999Z</time></trkpt><trkpt lat="43.03394563642516" lon="11.640299145942583"><ele>260.0</ele><time>2026-04-11T18:40:40.999Z</time></trkpt><trkpt lat="43.033973016396075" lon="11.640437767672168"><ele>260.0</ele><time>2026-04-11T18:40:42.999Z</time></trkpt><trkpt lat="43.03399744812033" lon="11.640586347922035"><ele>260.0</ele><time>2026-04-11T18:40:44.999Z</time></trkpt><trkpt lat="43.03402406944193" lon="11.640722825055155"><ele>260.0</ele><time>2026-04-11T18:40:46.999Z</time></trkpt><trkpt lat="43.03405084651401" lon="11.640864413277031"><ele>260.0</ele><time>2026-04-11T18:40:48.999Z</time></trkpt><trkpt lat="43.034075501065765" lon="11.641003793863604"><ele>260.0</ele><time>2026-04-11T18:40:50.999Z</time></trkpt><trkpt lat="43.034106652159544" lon="11.641144380247823"><ele>260.0</ele><time>2026-04-11T18:40:52.999Z</time></trkpt><trkpt lat="43.03412722063988" lon="11.641282156439646"><ele>260.0</ele><time>2026-04-11T18:40:54.999Z</time></trkpt><trkpt lat="43.03415440985764" lon="11.641418696729156"><ele>260.0</ele><time>2026-04-11T18:40:56.999Z</time></trkpt><trkpt lat="43.0341739477858" lon="11.641553865389909"><ele>260.4</ele><time>2026-04-11T18:40:58.999Z</time></trkpt><trkpt lat="43.03419924379379" lon="11.64169662862955"><ele>260.8</ele><time>2026-04-11T18:41:00.999Z</time></trkpt><trkpt lat="43.03422291563121" lon="11.641837922645493"><ele>261.2</ele><time>2026-04-11T18:41:02.999Z</time></trkpt><trkpt lat="43.03425152090947" lon="11.641979565304055"><ele>261.6</ele><time>2026-04-11T18:41:05Z</time></trkpt><trkpt lat="43.03428163261871" lon="11.642121323108094"><ele>262.0</ele><time>2026-04-11T18:41:07Z</time></trkpt><trkpt lat="43.03431007615125" lon="11.642268018011233"><ele>262.0</ele><time>2026-04-11T18:41:09Z</time></trkpt><trkpt lat="43.03433667905806" lon="11.642415930153236"><ele>262.0</ele><time>2026-04-11T18:41:11Z</time></trkpt><trkpt lat="43.03436939013392" lon="11.642556428357123"><ele>262.0</ele><time>2026-04-11T18:41:13Z</time></trkpt><trkpt lat="43.0344038039084" lon="11.642694404097753"><ele>262.0</ele><time>2026-04-11T18:41:15Z</time></trkpt><trkpt lat="43.03442665029577" lon="11.642832311425089"><ele>262.0</ele><time>2026-04-11T18:41:17Z</time></trkpt><trkpt lat="43.03444651471263" lon="11.642964183637591"><ele>262.0</ele><time>2026-04-11T18:41:19Z</time></trkpt><trkpt lat="43.034470639972525" lon="11.643095937313467"><ele>262.0</ele><time>2026-04-11T18:41:21Z</time></trkpt><trkpt lat="43.03449813088947" lon="11.643218157290512"><ele>262.0</ele><time>2026-04-11T18:41:23Z</time></trkpt><trkpt lat="43.03452179316006" lon="11.643345150835739"><ele>262.0</ele><time>2026-04-11T18:41:25Z</time></trkpt><trkpt lat="43.03454311491494" lon="11.643474650375895"><ele>262.0</ele><time>2026-04-11T18:41:27Z</time></trkpt><trkpt lat="43.03457644491042" lon="11.643599951710218"><ele>262.0</ele><time>2026-04-11T18:41:29Z</time></trkpt><trkpt lat="43.03459525785031" lon="11.64372242578471"><ele>262.0</ele><time>2026-04-11T18:41:31Z</time></trkpt><trkpt lat="43.03461380147136" lon="11.643846627756831"><ele>262.0</ele><time>2026-04-11T18:41:33Z</time></trkpt><trkpt lat="43.0346389842898" lon="11.643969584269252"><ele>262.0</ele><time>2026-04-11T18:41:35Z</time></trkpt><trkpt lat="43.03466671545496" lon="11.64409188038722"><ele>262.0</ele><time>2026-04-11T18:41:37Z</time></trkpt><trkpt lat="43.0346857764171" lon="11.644216850969588"><ele>262.0</ele><time>2026-04-11T18:41:39Z</time></trkpt><trkpt lat="43.03471075301058" lon="11.644340813714384"><ele>262.0</ele><time>2026-04-11T18:41:41Z</time></trkpt><trkpt lat="43.03473622784627" lon="11.64446091782462"><ele>262.0</ele><time>2026-04-11T18:41:43Z</time></trkpt><trkpt lat="43.03476002167874" lon="11.64457986602505"><ele>262.0</ele><time>2026-04-11T18:41:45Z</time></trkpt><trkpt lat="43.03476829363041" lon="11.64470619977534"><ele>262.0</ele><time>2026-04-11T18:41:47Z</time></trkpt><trkpt lat="43.034788702786756" lon="11.644822897619044"><ele>262.0</ele><time>2026-04-11T18:41:49Z</time></trkpt><trkpt lat="43.034812807023556" lon="11.644927400716863"><ele>262.0</ele><time>2026-04-11T18:41:51Z</time></trkpt><trkpt lat="43.03482800540119" lon="11.645025597784286"><ele>262.0</ele><time>2026-04-11T18:41:53Z</time></trkpt><trkpt lat="43.034823270752334" lon="11.64513430202179"><ele>262.0</ele><time>2026-04-11T18:41:56Z</time></trkpt><trkpt lat="43.034925853905236" lon="11.645235969602622"><ele>262.0</ele><time>2026-04-11T18:41:58Z</time></trkpt><trkpt lat="43.03499264657285" lon="11.645287150631562"><ele>262.0</ele><time>2026-04-11T18:42:00Z</time></trkpt><trkpt lat="43.03506338962174" lon="11.645363216904721"><ele>262.6</ele><time>2026-04-11T18:42:02Z</time></trkpt><trkpt lat="43.03513209390411" lon="11.645444980283823"><ele>263.2</ele><time>2026-04-11T18:42:04Z</time></trkpt><trkpt lat="43.035209385850486" lon="11.645506953607235"><ele>263.8</ele><time>2026-04-11T18:42:06Z</time></trkpt><trkpt lat="43.03527620682887" lon="11.645597302660272"><ele>264.4</ele><time>2026-04-11T18:42:08Z</time></trkpt><trkpt lat="43.03534817270756" lon="11.645678507101646"><ele>265.0</ele><time>2026-04-11T18:42:10Z</time></trkpt><trkpt lat="43.03543160869778" lon="11.645769582184796"><ele>265.0</ele><time>2026-04-11T18:42:12Z</time></trkpt><trkpt lat="43.035508888599125" lon="11.645863800391988"><ele>265.0</ele><time>2026-04-11T18:42:14Z</time></trkpt><trkpt lat="43.03558215142599" lon="11.645949347151944"><ele>265.0</ele><time>2026-04-11T18:42:15.999Z</time></trkpt><trkpt lat="43.035657643139615" lon="11.646046076097301"><ele>265.0</ele><time>2026-04-11T18:42:17.999Z</time></trkpt><trkpt lat="43.03573622483178" lon="11.646132590824637"><ele>265.0</ele><time>2026-04-11T18:42:19.999Z</time></trkpt><trkpt lat="43.03581119302587" lon="11.646216459684743"><ele>265.0</ele><time>2026-04-11T18:42:21.999Z</time></trkpt><trkpt lat="43.03589354903707" lon="11.64628656052551"><ele>265.0</ele><time>2026-04-11T18:42:23.999Z</time></trkpt><trkpt lat="43.035969446004266" lon="11.646358666092048"><ele>265.0</ele><time>2026-04-11T18:42:25.999Z</time></trkpt><trkpt lat="43.03605635610841" lon="11.646416676641259"><ele>265.0</ele><time>2026-04-11T18:42:27.999Z</time></trkpt><trkpt lat="43.03613949245024" lon="11.646471398762738"><ele>265.0</ele><time>2026-04-11T18:42:29.999Z</time></trkpt><trkpt lat="43.03622363658024" lon="11.64652234899025"><ele>265.0</ele><time>2026-04-11T18:42:31.999Z</time></trkpt><trkpt lat="43.03630555357502" lon="11.646571001977074"><ele>265.0</ele><time>2026-04-11T18:42:33.999Z</time></trkpt><trkpt lat="43.036393119574164" lon="11.646610455007304"><ele>265.0</ele><time>2026-04-11T18:42:35.999Z</time></trkpt><trkpt lat="43.03647729399597" lon="11.646651977136292"><ele>265.0</ele><time>2026-04-11T18:42:37.999Z</time></trkpt><trkpt lat="43.0365571413461" lon="11.64669444490578"><ele>265.0</ele><time>2026-04-11T18:42:39.999Z</time></trkpt><trkpt lat="43.036632665034254" lon="11.64673065970662"><ele>265.0</ele><time>2026-04-11T18:42:41.999Z</time></trkpt><trkpt lat="43.0367122774684" lon="11.646769259589624"><ele>265.0</ele><time>2026-04-11T18:42:43.999Z</time></trkpt><trkpt lat="43.03679389088254" lon="11.646797542524407"><ele>265.0</ele><time>2026-04-11T18:42:45.999Z</time></trkpt><trkpt lat="43.03686624017175" lon="11.646838445051243"><ele>265.0</ele><time>2026-04-11T18:42:47.999Z</time></trkpt><trkpt lat="43.03693775520699" lon="11.646884679083916"><ele>265.0</ele><time>2026-04-11T18:42:49.999Z</time></trkpt><trkpt lat="43.03700929866317" lon="11.646912542534514"><ele>265.0</ele><time>2026-04-11T18:42:51.999Z</time></trkpt><trkpt lat="43.03708080239116" lon="11.646955076214637"><ele>265.0</ele><time>2026-04-11T18:42:53.999Z</time></trkpt><trkpt lat="43.037152341259926" lon="11.647005265619761"><ele>265.16666666666663</ele><time>2026-04-11T18:42:55.999Z</time></trkpt><trkpt lat="43.03722546920401" lon="11.647056352501808"><ele>265.3333333333333</ele><time>2026-04-11T18:42:57.999Z</time></trkpt><trkpt lat="43.037295647097025" lon="11.647099792557206"><ele>265.5</ele><time>2026-04-11T18:42:59.999Z</time></trkpt><trkpt lat="43.03736540199484" lon="11.647152794619952"><ele>265.6666666666667</ele><time>2026-04-11T18:43:01.999Z</time></trkpt><trkpt lat="43.03743161429456" lon="11.64720710464687"><ele>265.83333333333337</ele><time>2026-04-11T18:43:03.999Z</time></trkpt><trkpt lat="43.037495400676086" lon="11.647255358933833"><ele>266.0</ele><time>2026-04-11T18:43:05.999Z</time></trkpt><trkpt lat="43.037558118463814" lon="11.647313689326815"><ele>266.0</ele><time>2026-04-11T18:43:07.999Z</time></trkpt><trkpt lat="43.03762070177101" lon="11.647367129607005"><ele>266.0</ele><time>2026-04-11T18:43:10Z</time></trkpt><trkpt lat="43.037687737447676" lon="11.647419436334417"><ele>266.0</ele><time>2026-04-11T18:43:12Z</time></trkpt><trkpt lat="43.037756265110765" lon="11.64747686355312"><ele>266.0</ele><time>2026-04-11T18:43:14Z</time></trkpt><trkpt lat="43.037820204252306" lon="11.647531157123046"><ele>266.0</ele><time>2026-04-11T18:43:16Z</time></trkpt><trkpt lat="43.03788255522349" lon="11.64758715073459"><ele>266.0</ele><time>2026-04-11T18:43:18Z</time></trkpt><trkpt lat="43.0379517013977" lon="11.647633243322606"><ele>266.0</ele><time>2026-04-11T18:43:20Z</time></trkpt><trkpt lat="43.03801234729652" lon="11.647679270162298"><ele>266.0</ele><time>2026-04-11T18:43:22Z</time></trkpt><trkpt lat="43.03807006462564" lon="11.647736231836301"><ele>266.0</ele><time>2026-04-11T18:43:24Z</time></trkpt><trkpt lat="43.038137706723845" lon="11.647787066776857"><ele>266.0</ele><time>2026-04-11T18:43:26Z</time></trkpt><trkpt lat="43.03820357008297" lon="11.647842791859704"><ele>266.0</ele><time>2026-04-11T18:43:28Z</time></trkpt><trkpt lat="43.038263874634055" lon="11.647895807083918"><ele>266.0</ele><time>2026-04-11T18:43:30Z</time></trkpt><trkpt lat="43.038320486850466" lon="11.647942859345696"><ele>266.0</ele><time>2026-04-11T18:43:32Z</time></trkpt><trkpt lat="43.03837787482223" lon="11.647981570653343"><ele>266.5</ele><time>2026-04-11T18:43:34Z</time></trkpt><trkpt lat="43.0384525166035" lon="11.64804470312893"><ele>267.0</ele><time>2026-04-11T18:43:37Z</time></trkpt><trkpt lat="43.03852813554082" lon="11.648092611737523"><ele>267.5</ele><time>2026-04-11T18:43:40Z</time></trkpt><trkpt lat="43.03860198289255" lon="11.648144045099917"><ele>268.0</ele><time>2026-04-11T18:43:43Z</time></trkpt><trkpt lat="43.03868426506069" lon="11.648189285931618"><ele>268.5</ele><time>2026-04-11T18:43:46Z</time></trkpt><trkpt lat="43.038767985087894" lon="11.64821608944505"><ele>269.0</ele><time>2026-04-11T18:43:49Z</time></trkpt><trkpt lat="43.03885773017259" lon="11.648242808619328"><ele>269.0</ele><time>2026-04-11T18:43:52Z</time></trkpt><trkpt lat="43.038949988152524" lon="11.64826640979442"><ele>269.0</ele><time>2026-04-11T18:43:55Z</time></trkpt><trkpt lat="43.039010784272655" lon="11.648289999140513"><ele>269.0</ele><time>2026-04-11T18:43:57Z</time></trkpt><trkpt lat="43.03907242508648" lon="11.648308046906665"><ele>269.0</ele><time>2026-04-11T18:43:59Z</time></trkpt><trkpt lat="43.03913395110524" lon="11.64833039558251"><ele>269.0</ele><time>2026-04-11T18:44:01Z</time></trkpt><trkpt lat="43.039201779637835" lon="11.648334512665517"><ele>269.0</ele><time>2026-04-11T18:44:03Z</time></trkpt><trkpt lat="43.039281185533035" lon="11.648356827506374"><ele>269.0</ele><time>2026-04-11T18:44:06Z</time></trkpt><trkpt lat="43.03935654690082" lon="11.64838317482392"><ele>269.0</ele><time>2026-04-11T18:44:09Z</time></trkpt><trkpt lat="43.039445793972945" lon="11.648385094949106"><ele>269.0</ele><time>2026-04-11T18:44:12Z</time></trkpt><trkpt lat="43.03952352890847" lon="11.648397116368592"><ele>269.0</ele><time>2026-04-11T18:44:15Z</time></trkpt><trkpt lat="43.03958740732249" lon="11.648397239267206"><ele>269.0</ele><time>2026-04-11T18:44:17Z</time></trkpt><trkpt lat="43.03966256633763" lon="11.648387463546829"><ele>269.0</ele><time>2026-04-11T18:44:19.999Z</time></trkpt><trkpt lat="43.03975367911505" lon="11.648365991279487"><ele>269.0</ele><time>2026-04-11T18:44:22.999Z</time></trkpt><trkpt lat="43.03984384760934" lon="11.648343609926656"><ele>269.0</ele><time>2026-04-11T18:44:25.999Z</time></trkpt><trkpt lat="43.03992827585597" lon="11.648326453361937"><ele>269.0</ele><time>2026-04-11T18:44:28.999Z</time></trkpt><trkpt lat="43.04001766090559" lon="11.648297495168947"><ele>269.0</ele><time>2026-04-11T18:44:31.999Z</time></trkpt><trkpt lat="43.04010758374762" lon="11.648270983185855"><ele>269.0</ele><time>2026-04-11T18:44:34.999Z</time></trkpt><trkpt lat="43.04016956709562" lon="11.648250686719553"><ele>269.0</ele><time>2026-04-11T18:44:36.999Z</time></trkpt><trkpt lat="43.040233776114206" lon="11.648231532709575"><ele>269.0</ele><time>2026-04-11T18:44:38.999Z</time></trkpt><trkpt lat="43.040321203320076" lon="11.648213915842431"><ele>269.5</ele><time>2026-04-11T18:44:41.999Z</time></trkpt><trkpt lat="43.04038646580679" lon="11.648198378202958"><ele>270.0</ele><time>2026-04-11T18:44:43.999Z</time></trkpt><trkpt lat="43.04047893515187" lon="11.64817833024861"><ele>270.5</ele><time>2026-04-11T18:44:46.999Z</time></trkpt><trkpt lat="43.04054315468488" lon="11.648161999006048"><ele>271.0</ele><time>2026-04-11T18:44:48.999Z</time></trkpt><trkpt lat="43.04061017900562" lon="11.648141944778581"><ele>271.5</ele><time>2026-04-11T18:44:50.999Z</time></trkpt><trkpt lat="43.04069948557635" lon="11.648114152633637"><ele>272.0</ele><time>2026-04-11T18:44:53.999Z</time></trkpt><trkpt lat="43.04076678158902" lon="11.648093872091854"><ele>272.57142857142856</ele><time>2026-04-11T18:44:55.999Z</time></trkpt><trkpt lat="43.04083324992231" lon="11.648077071822096"><ele>273.1428571428571</ele><time>2026-04-11T18:44:57.999Z</time></trkpt><trkpt lat="43.040900491077174" lon="11.64806398650131"><ele>273.7142857142857</ele><time>2026-04-11T18:44:59.999Z</time></trkpt><trkpt lat="43.04096390731824" lon="11.648042851991496"><ele>274.2857142857143</ele><time>2026-04-11T18:45:01.999Z</time></trkpt><trkpt lat="43.041028352633596" lon="11.648021865396409"><ele>274.8571428571429</ele><time>2026-04-11T18:45:03.999Z</time></trkpt><trkpt lat="43.04111648481571" lon="11.647997138541946"><ele>275.42857142857144</ele><time>2026-04-11T18:45:06.999Z</time></trkpt><trkpt lat="43.04120419225499" lon="11.647972760272037"><ele>276.0</ele><time>2026-04-11T18:45:09.999Z</time></trkpt><trkpt lat="43.041290246343905" lon="11.647947956608546"><ele>276.0</ele><time>2026-04-11T18:45:12.999Z</time></trkpt><trkpt lat="43.041369911029946" lon="11.64793504230099"><ele>276.0</ele><time>2026-04-11T18:45:16Z</time></trkpt><trkpt lat="43.0414538754467" lon="11.647929805640242"><ele>276.0</ele><time>2026-04-11T18:45:19Z</time></trkpt><trkpt lat="43.041537633250314" lon="11.647938294609656"><ele>276.0</ele><time>2026-04-11T18:45:22Z</time></trkpt><trkpt lat="43.04161372121521" lon="11.647987664162823"><ele>276.0</ele><time>2026-04-11T18:45:25Z</time></trkpt><trkpt lat="43.041689924221956" lon="11.648027518998925"><ele>276.0</ele><time>2026-04-11T18:45:28Z</time></trkpt><trkpt lat="43.04176747709812" lon="11.648054434211256"><ele>276.6666666666667</ele><time>2026-04-11T18:45:31Z</time></trkpt><trkpt lat="43.04184330651297" lon="11.648106874857431"><ele>277.3333333333333</ele><time>2026-04-11T18:45:34Z</time></trkpt><trkpt lat="43.041917950144054" lon="11.648154556670129"><ele>278.0</ele><time>2026-04-11T18:45:37Z</time></trkpt><trkpt lat="43.041994333057524" lon="11.648203708511778"><ele>278.66666666666663</ele><time>2026-04-11T18:45:40Z</time></trkpt><trkpt lat="43.04207544538514" lon="11.648249442876692"><ele>279.3333333333333</ele><time>2026-04-11T18:45:43Z</time></trkpt><trkpt lat="43.042156973317574" lon="11.648297801500512"><ele>280.0</ele><time>2026-04-11T18:45:46Z</time></trkpt><trkpt lat="43.042235979353144" lon="11.648347568010081"><ele>280.0</ele><time>2026-04-11T18:45:49Z</time></trkpt><trkpt lat="43.04231664688979" lon="11.648398911445032"><ele>280.0</ele><time>2026-04-11T18:45:52Z</time></trkpt><trkpt lat="43.04239897958749" lon="11.648443774332781"><ele>280.0</ele><time>2026-04-11T18:45:55Z</time></trkpt><trkpt lat="43.04246197979825" lon="11.648477250789963"><ele>280.0</ele><time>2026-04-11T18:45:57Z</time></trkpt><trkpt lat="43.04252174706115" lon="11.648512425850605"><ele>280.0</ele><time>2026-04-11T18:45:59Z</time></trkpt><trkpt lat="43.0425822405354" lon="11.648546636312332"><ele>280.0</ele><time>2026-04-11T18:46:01Z</time></trkpt><trkpt lat="43.04267116809209" lon="11.648596016796288"><ele>281.14285714285717</ele><time>2026-04-11T18:46:04Z</time></trkpt><trkpt lat="43.04273353751826" lon="11.648633074548934"><ele>282.2857142857143</ele><time>2026-04-11T18:46:06Z</time></trkpt><trkpt lat="43.042796236227424" lon="11.648670843979758"><ele>283.42857142857144</ele><time>2026-04-11T18:46:08Z</time></trkpt><trkpt lat="43.04286276965068" lon="11.648713779698337"><ele>284.57142857142856</ele><time>2026-04-11T18:46:10Z</time></trkpt><trkpt lat="43.04292446613379" lon="11.648753710427703"><ele>285.7142857142857</ele><time>2026-04-11T18:46:12Z</time></trkpt><trkpt lat="43.04298023291657" lon="11.648805550007852"><ele>286.8571428571429</ele><time>2026-04-11T18:46:14Z</time></trkpt><trkpt lat="43.043034931022305" lon="11.64885997332209"><ele>288.0</ele><time>2026-04-11T18:46:16Z</time></trkpt><trkpt lat="43.04310077175706" lon="11.648950363023767"><ele>288.0</ele><time>2026-04-11T18:46:19Z</time></trkpt><trkpt lat="43.043153344037485" lon="11.64904592348288"><ele>288.0</ele><time>2026-04-11T18:46:22Z</time></trkpt><trkpt lat="43.04320221456353" lon="11.64914171259805"><ele>288.0</ele><time>2026-04-11T18:46:25Z</time></trkpt><trkpt lat="43.04324475386973" lon="11.649237922229926"><ele>288.0</ele><time>2026-04-11T18:46:28Z</time></trkpt><trkpt lat="43.04329252195756" lon="11.64932469306942"><ele>288.0</ele><time>2026-04-11T18:46:31Z</time></trkpt><trkpt lat="43.04333051005665" lon="11.649418504275317"><ele>288.0</ele><time>2026-04-11T18:46:33.999Z</time></trkpt><trkpt lat="43.0433676832409" lon="11.649505941096532"><ele>288.00000000000006</ele><time>2026-04-11T18:46:36.999Z</time></trkpt><trkpt lat="43.0434091572365" lon="11.649594963382949"><ele>288.0</ele><time>2026-04-11T18:46:39.999Z</time></trkpt><trkpt lat="43.04344501146496" lon="11.649684052497706"><ele>288.0</ele><time>2026-04-11T18:46:42.999Z</time></trkpt><trkpt lat="43.04348553027626" lon="11.649766854314436"><ele>288.0</ele><time>2026-04-11T18:46:45.999Z</time></trkpt><trkpt lat="43.043524391940025" lon="11.649843686587522"><ele>288.0</ele><time>2026-04-11T18:46:48.999Z</time></trkpt><trkpt lat="43.04355499649448" lon="11.649929542930133"><ele>288.00000000000006</ele><time>2026-04-11T18:46:51.999Z</time></trkpt><trkpt lat="43.04359581920279" lon="11.650018300676136"><ele>288.0</ele><time>2026-04-11T18:46:54.999Z</time></trkpt><trkpt lat="43.04363899265563" lon="11.650107347434195"><ele>288.0</ele><time>2026-04-11T18:46:57.999Z</time></trkpt><trkpt lat="43.04368567102421" lon="11.650193959968044"><ele>288.0</ele><time>2026-04-11T18:47:00.999Z</time></trkpt><trkpt lat="43.04373013414473" lon="11.650292529251564"><ele>288.0</ele><time>2026-04-11T18:47:03.999Z</time></trkpt><trkpt lat="43.04377535404699" lon="11.650386551734066"><ele>288.0</ele><time>2026-04-11T18:47:06.999Z</time></trkpt><trkpt lat="43.043817502309885" lon="11.650476380240995"><ele>288.0</ele><time>2026-04-11T18:47:09.999Z</time></trkpt><trkpt lat="43.043858042407905" lon="11.650567363007033"><ele>288.0</ele><time>2026-04-11T18:47:12.999Z</time></trkpt><trkpt lat="43.043904391796794" lon="11.650653064152422"><ele>288.6666666666667</ele><time>2026-04-11T18:47:15.999Z</time></trkpt><trkpt lat="43.04394410626234" lon="11.65074391816908"><ele>289.3333333333333</ele><time>2026-04-11T18:47:18.999Z</time></trkpt><trkpt lat="43.04398436140794" lon="11.65083505487381"><ele>290.0</ele><time>2026-04-11T18:47:22Z</time></trkpt><trkpt lat="43.04402990894783" lon="11.650919945906084"><ele>290.66666666666663</ele><time>2026-04-11T18:47:25Z</time></trkpt><trkpt lat="43.044069566007856" lon="11.651007631523434"><ele>291.3333333333333</ele><time>2026-04-11T18:47:28Z</time></trkpt><trkpt lat="43.04411005917105" lon="11.651092770438291"><ele>292.0</ele><time>2026-04-11T18:47:31Z</time></trkpt><trkpt lat="43.04415231709932" lon="11.65117377090042"><ele>292.1428571428571</ele><time>2026-04-11T18:47:34Z</time></trkpt><trkpt lat="43.04417984351162" lon="11.65126580419376"><ele>292.2857142857143</ele><time>2026-04-11T18:47:37Z</time></trkpt><trkpt lat="43.044216694062364" lon="11.651353054934749"><ele>292.42857142857144</ele><time>2026-04-11T18:47:40Z</time></trkpt><trkpt lat="43.04425696509623" lon="11.651437232266188"><ele>292.57142857142856</ele><time>2026-04-11T18:47:43Z</time></trkpt><trkpt lat="43.04429888306938" lon="11.651519674812109"><ele>292.7142857142857</ele><time>2026-04-11T18:47:46Z</time></trkpt><trkpt lat="43.04434742636511" lon="11.65159563943847"><ele>292.85714285714283</ele><time>2026-04-11T18:47:49Z</time></trkpt><trkpt lat="43.0444062051377" lon="11.651664072261719"><ele>293.0</ele><time>2026-04-11T18:47:52Z</time></trkpt><trkpt lat="43.04447080961846" lon="11.651723924480958"><ele>292.99999999999994</ele><time>2026-04-11T18:47:56Z</time></trkpt><trkpt lat="43.04452756167515" lon="11.651771352276436"><ele>293.0</ele><time>2026-04-11T18:48:10Z</time></trkpt><trkpt lat="43.04458613205359" lon="11.651804700766005"><ele>293.0</ele><time>2026-04-11T18:50:20Z</time></trkpt><trkpt lat="43.044653617378124" lon="11.65183775030181"><ele>293.0</ele><time>2026-04-11T18:50:52.999Z</time></trkpt><trkpt lat="43.04472113743433" lon="11.651894761212983"><ele>293.0</ele><time>2026-04-11T18:50:57.999Z</time></trkpt><trkpt lat="43.04479109386515" lon="11.65195819909502"><ele>292.99999999999994</ele><time>2026-04-11T18:51:00.999Z</time></trkpt><trkpt lat="43.04484521093803" lon="11.652010481803645"><ele>293.0</ele><time>2026-04-11T18:51:02.999Z</time></trkpt><trkpt lat="43.04490511625725" lon="11.652077420820095"><ele>292.6</ele><time>2026-04-11T18:51:04.999Z</time></trkpt><trkpt lat="43.044963638672186" lon="11.652154203798382"><ele>292.20000000000005</ele><time>2026-04-11T18:51:06.999Z</time></trkpt><trkpt lat="43.04502176342116" lon="11.652255503802524"><ele>291.8</ele><time>2026-04-11T18:51:08.999Z</time></trkpt><trkpt lat="43.04508724726457" lon="11.652376110335666"><ele>291.40000000000003</ele><time>2026-04-11T18:51:10.999Z</time></trkpt><trkpt lat="43.04515033778352" lon="11.652507137511913"><ele>291.0</ele><time>2026-04-11T18:51:12.999Z</time></trkpt><trkpt lat="43.04521904797129" lon="11.652644710408039"><ele>291.0</ele><time>2026-04-11T18:51:14.999Z</time></trkpt><trkpt lat="43.04529085782406" lon="11.65278093271484"><ele>291.0</ele><time>2026-04-11T18:51:16.999Z</time></trkpt><trkpt lat="43.04536003080115" lon="11.652915801517842"><ele>291.0</ele><time>2026-04-11T18:51:18.999Z</time></trkpt><trkpt lat="43.04542846787991" lon="11.653039825149419"><ele>291.0</ele><time>2026-04-11T18:51:20.999Z</time></trkpt><trkpt lat="43.04549592073953" lon="11.65317239785665"><ele>290.8333333333333</ele><time>2026-04-11T18:51:22.999Z</time></trkpt><trkpt lat="43.04553437821347" lon="11.653241736013076"><ele>290.6666666666667</ele><time>2026-04-11T18:51:23.999Z</time></trkpt><trkpt lat="43.045602689869085" lon="11.653382765310258"><ele>290.5</ele><time>2026-04-11T18:51:25.999Z</time></trkpt><trkpt lat="43.04564160863737" lon="11.65345625558496"><ele>290.33333333333337</ele><time>2026-04-11T18:51:26.999Z</time></trkpt><trkpt lat="43.045684214639394" lon="11.65352867228806"><ele>290.1666666666667</ele><time>2026-04-11T18:51:27.999Z</time></trkpt><trkpt lat="43.04572262159989" lon="11.653603745806507"><ele>290.0</ele><time>2026-04-11T18:51:28.999Z</time></trkpt><trkpt lat="43.04578983589549" lon="11.653742422757635"><ele>288.4</ele><time>2026-04-11T18:51:30.999Z</time></trkpt><trkpt lat="43.04585304435172" lon="11.65386745402847"><ele>286.8</ele><time>2026-04-11T18:51:32.999Z</time></trkpt><trkpt lat="43.04591087987192" lon="11.653974751611374"><ele>285.2</ele><time>2026-04-11T18:51:35Z</time></trkpt><trkpt lat="43.04595883000523" lon="11.654077768619556"><ele>283.6</ele><time>2026-04-11T18:51:37Z</time></trkpt><trkpt lat="43.04600835655258" lon="11.654170956068223"><ele>282.0</ele><time>2026-04-11T18:51:39Z</time></trkpt><trkpt lat="43.046051150535675" lon="11.654258544396386"><ele>282.0</ele><time>2026-04-11T18:51:41Z</time></trkpt><trkpt lat="43.04608863670062" lon="11.654346268288487"><ele>282.0</ele><time>2026-04-11T18:51:43Z</time></trkpt><trkpt lat="43.04613028497358" lon="11.654424810011093"><ele>282.0</ele><time>2026-04-11T18:51:45Z</time></trkpt><trkpt lat="43.046178075008896" lon="11.654496284101242"><ele>282.0</ele><time>2026-04-11T18:51:47Z</time></trkpt><trkpt lat="43.046223380018155" lon="11.654560672686099"><ele>282.0</ele><time>2026-04-11T18:51:49Z</time></trkpt><trkpt lat="43.04627777096638" lon="11.65461407783512"><ele>282.0</ele><time>2026-04-11T18:51:51Z</time></trkpt><trkpt lat="43.04633774216658" lon="11.654665496392846"><ele>282.0</ele><time>2026-04-11T18:51:53Z</time></trkpt><trkpt lat="43.04639758606803" lon="11.654704549175287"><ele>281.8571428571429</ele><time>2026-04-11T18:51:55Z</time></trkpt><trkpt lat="43.0464676938963" lon="11.654720491384813"><ele>281.7142857142857</ele><time>2026-04-11T18:51:57Z</time></trkpt><trkpt lat="43.04654063183331" lon="11.654746727852611"><ele>281.57142857142856</ele><time>2026-04-11T18:51:59Z</time></trkpt><trkpt lat="43.04660849542748" lon="11.654749873257112"><ele>281.42857142857144</ele><time>2026-04-11T18:52:01Z</time></trkpt><trkpt lat="43.04667811911069" lon="11.654747552953868"><ele>281.2857142857143</ele><time>2026-04-11T18:52:03Z</time></trkpt><trkpt lat="43.04675102991018" lon="11.654734011772787"><ele>281.14285714285717</ele><time>2026-04-11T18:52:05Z</time></trkpt><trkpt lat="43.04682582404928" lon="11.65471884161826"><ele>281.0</ele><time>2026-04-11T18:52:07Z</time></trkpt><trkpt lat="43.046906222667154" lon="11.654709712544015"><ele>281.0</ele><time>2026-04-11T18:52:09Z</time></trkpt><trkpt lat="43.046986910222" lon="11.654700097097825"><ele>281.0</ele><time>2026-04-11T18:52:11Z</time></trkpt><trkpt lat="43.04707306614269" lon="11.65468449670209"><ele>281.0</ele><time>2026-04-11T18:52:13Z</time></trkpt><trkpt lat="43.04716051258869" lon="11.654674047530957"><ele>281.0</ele><time>2026-04-11T18:52:15Z</time></trkpt><trkpt lat="43.04725106744526" lon="11.654662790104606"><ele>281.0</ele><time>2026-04-11T18:52:17Z</time></trkpt><trkpt lat="43.047341928846514" lon="11.654653894440466"><ele>281.0</ele><time>2026-04-11T18:52:19Z</time></trkpt><trkpt lat="43.04743580935562" lon="11.654639366673646"><ele>281.0</ele><time>2026-04-11T18:52:21Z</time></trkpt><trkpt lat="43.047537819042226" lon="11.654628780240655"><ele>281.0</ele><time>2026-04-11T18:52:23Z</time></trkpt><trkpt lat="43.047635120652906" lon="11.654639168240259"><ele>281.0</ele><time>2026-04-11T18:52:25Z</time></trkpt><trkpt lat="43.04772823847816" lon="11.654645733246507"><ele>281.0</ele><time>2026-04-11T18:52:27Z</time></trkpt><trkpt lat="43.04781265935167" lon="11.654667886114632"><ele>281.0</ele><time>2026-04-11T18:52:29Z</time></trkpt><trkpt lat="43.04788957811436" lon="11.654724387416397"><ele>281.0</ele><time>2026-04-11T18:52:31Z</time></trkpt><trkpt lat="43.04796442291209" lon="11.654778370248126"><ele>281.0</ele><time>2026-04-11T18:52:33Z</time></trkpt><trkpt lat="43.04803315810999" lon="11.654848067363641"><ele>281.0</ele><time>2026-04-11T18:52:35Z</time></trkpt><trkpt lat="43.04810292641748" lon="11.654923596958376"><ele>281.0</ele><time>2026-04-11T18:52:37Z</time></trkpt><trkpt lat="43.048177671971985" lon="11.654999861468303"><ele>281.0</ele><time>2026-04-11T18:52:39Z</time></trkpt><trkpt lat="43.04825441836167" lon="11.655071744998882"><ele>281.0</ele><time>2026-04-11T18:52:41Z</time></trkpt><trkpt lat="43.048332135230396" lon="11.65514771606946"><ele>281.40000000000003</ele><time>2026-04-11T18:52:43Z</time></trkpt><trkpt lat="43.04840278883282" lon="11.655228489080379"><ele>281.8</ele><time>2026-04-11T18:52:45Z</time></trkpt><trkpt lat="43.048482883266026" lon="11.655316368608302"><ele>282.20000000000005</ele><time>2026-04-11T18:52:46.999Z</time></trkpt><trkpt lat="43.048566950364766" lon="11.655393386646262"><ele>282.6</ele><time>2026-04-11T18:52:48.999Z</time></trkpt><trkpt lat="43.04865626490358" lon="11.655487180500776"><ele>283.0</ele><time>2026-04-11T18:52:50.999Z</time></trkpt><trkpt lat="43.048744107488034" lon="11.655583589335183"><ele>282.0</ele><time>2026-04-11T18:52:52.999Z</time></trkpt><trkpt lat="43.04884480462332" lon="11.655677810843825"><ele>281.0</ele><time>2026-04-11T18:52:54.999Z</time></trkpt><trkpt lat="43.04894053270259" lon="11.655774062364424"><ele>280.0</ele><time>2026-04-11T18:52:56.999Z</time></trkpt><trkpt lat="43.049035972612884" lon="11.655871331739139"><ele>279.0</ele><time>2026-04-11T18:52:58.999Z</time></trkpt><trkpt lat="43.04912421339984" lon="11.655955192405905"><ele>279.2</ele><time>2026-04-11T18:53:00.999Z</time></trkpt><trkpt lat="43.04920248581243" lon="11.656041879656799"><ele>279.4</ele><time>2026-04-11T18:53:02.999Z</time></trkpt><trkpt lat="43.04928221752609" lon="11.656127367994015"><ele>279.6</ele><time>2026-04-11T18:53:04.999Z</time></trkpt><trkpt lat="43.04935936935898" lon="11.656199696196294"><ele>279.8</ele><time>2026-04-11T18:53:06.999Z</time></trkpt><trkpt lat="43.04942773011056" lon="11.656273715830684"><ele>280.0</ele><time>2026-04-11T18:53:08.999Z</time></trkpt><trkpt lat="43.0494954494386" lon="11.656338624570687"><ele>280.16666666666663</ele><time>2026-04-11T18:53:10.999Z</time></trkpt><trkpt lat="43.04955851945361" lon="11.656400637617473"><ele>280.3333333333333</ele><time>2026-04-11T18:53:12.999Z</time></trkpt><trkpt lat="43.049623404396975" lon="11.656461320872499"><ele>280.5</ele><time>2026-04-11T18:53:14.999Z</time></trkpt><trkpt lat="43.04968697661724" lon="11.656531991120186"><ele>280.6666666666667</ele><time>2026-04-11T18:53:16.999Z</time></trkpt><trkpt lat="43.04974788128634" lon="11.656597057844657"><ele>280.83333333333337</ele><time>2026-04-11T18:53:18.999Z</time></trkpt><trkpt lat="43.049811775417496" lon="11.656659525037409"><ele>281.0</ele><time>2026-04-11T18:53:20.999Z</time></trkpt><trkpt lat="43.04986759730617" lon="11.656724670550007"><ele>281.00000000000006</ele><time>2026-04-11T18:53:22.999Z</time></trkpt><trkpt lat="43.04992983703962" lon="11.656783679595668"><ele>281.0</ele><time>2026-04-11T18:53:24.999Z</time></trkpt><trkpt lat="43.04998541293907" lon="11.656840852803152"><ele>281.0</ele><time>2026-04-11T18:53:26.999Z</time></trkpt><trkpt lat="43.050041964076335" lon="11.656891329625564"><ele>281.0</ele><time>2026-04-11T18:53:28.999Z</time></trkpt><trkpt lat="43.05010106020945" lon="11.656937781522945"><ele>281.0</ele><time>2026-04-11T18:53:30.999Z</time></trkpt><trkpt lat="43.05016121367318" lon="11.656971347654302"><ele>281.00000000000006</ele><time>2026-04-11T18:53:32.999Z</time></trkpt><trkpt lat="43.050222904129875" lon="11.657000453584025"><ele>281.0</ele><time>2026-04-11T18:53:34.999Z</time></trkpt><trkpt lat="43.05028540825617" lon="11.657017340802936"><ele>281.33333333333337</ele><time>2026-04-11T18:53:36.999Z</time></trkpt><trkpt lat="43.050374540059764" lon="11.65701379124582"><ele>281.6666666666667</ele><time>2026-04-11T18:53:40Z</time></trkpt><trkpt lat="43.050465684399285" lon="11.657004591039115"><ele>282.0</ele><time>2026-04-11T18:53:43Z</time></trkpt><trkpt lat="43.050559332877434" lon="11.656982882951079"><ele>282.3333333333333</ele><time>2026-04-11T18:53:46Z</time></trkpt><trkpt lat="43.05062593866387" lon="11.656963493034194"><ele>282.66666666666663</ele><time>2026-04-11T18:53:48Z</time></trkpt><trkpt lat="43.050692215577506" lon="11.656945543763856"><ele>283.0</ele><time>2026-04-11T18:53:50Z</time></trkpt><trkpt lat="43.05076230477124" lon="11.656929608806038"><ele>283.0</ele><time>2026-04-11T18:53:52Z</time></trkpt><trkpt lat="43.05083211106316" lon="11.65691620770859"><ele>283.0</ele><time>2026-04-11T18:53:54Z</time></trkpt><trkpt lat="43.050906691312406" lon="11.656893755950517"><ele>283.0</ele><time>2026-04-11T18:53:56Z</time></trkpt><trkpt lat="43.05098244756635" lon="11.65687264517885"><ele>283.0</ele><time>2026-04-11T18:53:58Z</time></trkpt><trkpt lat="43.051060154392324" lon="11.656856652703393"><ele>283.0</ele><time>2026-04-11T18:54:00Z</time></trkpt><trkpt lat="43.05113320609594" lon="11.656844387066899"><ele>283.0</ele><time>2026-04-11T18:54:02Z</time></trkpt><trkpt lat="43.05120912174547" lon="11.656849556037937"><ele>283.0</ele><time>2026-04-11T18:54:04Z</time></trkpt><trkpt lat="43.05128687841007" lon="11.656855291827918"><ele>283.0</ele><time>2026-04-11T18:54:06Z</time></trkpt><trkpt lat="43.05136239247771" lon="11.656877007922334"><ele>283.0</ele><time>2026-04-11T18:54:08Z</time></trkpt><trkpt lat="43.051439862455396" lon="11.656890784448112"><ele>283.0</ele><time>2026-04-11T18:54:10Z</time></trkpt><trkpt lat="43.05151692141125" lon="11.656915476303418"><ele>283.0</ele><time>2026-04-11T18:54:12Z</time></trkpt><trkpt lat="43.051590668636706" lon="11.656937217512935"><ele>283.0</ele><time>2026-04-11T18:54:14Z</time></trkpt><trkpt lat="43.05166955878929" lon="11.656960318063055"><ele>284.3333333333333</ele><time>2026-04-11T18:54:16Z</time></trkpt><trkpt lat="43.051744424486586" lon="11.656982983492567"><ele>285.66666666666663</ele><time>2026-04-11T18:54:18Z</time></trkpt><trkpt lat="43.051820894902185" lon="11.65701053507239"><ele>287.0</ele><time>2026-04-11T18:54:20Z</time></trkpt><trkpt lat="43.05189261619772" lon="11.65705061090397"><ele>288.3333333333333</ele><time>2026-04-11T18:54:22Z</time></trkpt><trkpt lat="43.05197040803764" lon="11.657085927640258"><ele>289.6666666666667</ele><time>2026-04-11T18:54:24Z</time></trkpt><trkpt lat="43.05204549393262" lon="11.657130481560838"><ele>291.0</ele><time>2026-04-11T18:54:26Z</time></trkpt><trkpt lat="43.052111670052646" lon="11.657175734716636"><ele>291.0</ele><time>2026-04-11T18:54:28Z</time></trkpt><trkpt lat="43.05217842668139" lon="11.657232189457917"><ele>291.0</ele><time>2026-04-11T18:54:30Z</time></trkpt><trkpt lat="43.05224259112148" lon="11.657281928166574"><ele>291.0</ele><time>2026-04-11T18:54:32Z</time></trkpt><trkpt lat="43.052309379126875" lon="11.657337258168726"><ele>291.0</ele><time>2026-04-11T18:54:34Z</time></trkpt><trkpt lat="43.0523768608455" lon="11.657390154799167"><ele>291.0</ele><time>2026-04-11T18:54:36Z</time></trkpt><trkpt lat="43.05244408372901" lon="11.657443754459173"><ele>291.0</ele><time>2026-04-11T18:54:38Z</time></trkpt><trkpt lat="43.05250932639883" lon="11.657497515662302"><ele>290.5</ele><time>2026-04-11T18:54:40Z</time></trkpt><trkpt lat="43.052583636800996" lon="11.657537704583751"><ele>290.0</ele><time>2026-04-11T18:54:42Z</time></trkpt><trkpt lat="43.05265051804127" lon="11.657604154126485"><ele>289.5</ele><time>2026-04-11T18:54:44Z</time></trkpt><trkpt lat="43.052718303149696" lon="11.657661934634133"><ele>289.0</ele><time>2026-04-11T18:54:46Z</time></trkpt><trkpt lat="43.05279569651345" lon="11.657717578076277"><ele>288.5</ele><time>2026-04-11T18:54:48Z</time></trkpt><trkpt lat="43.052867200694095" lon="11.657777742531493"><ele>288.0</ele><time>2026-04-11T18:54:49.999Z</time></trkpt><trkpt lat="43.05293452977098" lon="11.6578402651527"><ele>289.6666666666667</ele><time>2026-04-11T18:54:51.999Z</time></trkpt><trkpt lat="43.052990498575724" lon="11.657906611724059"><ele>291.3333333333333</ele><time>2026-04-11T18:54:53.999Z</time></trkpt><trkpt lat="43.053049624281606" lon="11.65798339385152"><ele>293.0</ele><time>2026-04-11T18:54:55.999Z</time></trkpt><trkpt lat="43.05310346488476" lon="11.658075558324471"><ele>294.66666666666663</ele><time>2026-04-11T18:54:57.999Z</time></trkpt><trkpt lat="43.05315825494001" lon="11.658180331870826"><ele>296.3333333333333</ele><time>2026-04-11T18:54:59.999Z</time></trkpt><trkpt lat="43.05319731760798" lon="11.658291755435668"><ele>298.0</ele><time>2026-04-11T18:55:01.999Z</time></trkpt><trkpt lat="43.053252959346885" lon="11.65839632482036"><ele>298.0</ele><time>2026-04-11T18:55:03.999Z</time></trkpt><trkpt lat="43.05330030157208" lon="11.658486551811249"><ele>298.0</ele><time>2026-04-11T18:55:05.999Z</time></trkpt><trkpt lat="43.05334468541408" lon="11.658579717335046"><ele>298.0</ele><time>2026-04-11T18:55:07.999Z</time></trkpt><trkpt lat="43.05339038877752" lon="11.658676109757872"><ele>298.0</ele><time>2026-04-11T18:55:09.999Z</time></trkpt><trkpt lat="43.053431441174546" lon="11.658782661542258"><ele>298.0</ele><time>2026-04-11T18:55:11.999Z</time></trkpt><trkpt lat="43.05348347959414" lon="11.658864095295367"><ele>298.0</ele><time>2026-04-11T18:55:13.999Z</time></trkpt><trkpt lat="43.05353024548359" lon="11.658966248833021"><ele>298.0</ele><time>2026-04-11T18:55:15.999Z</time></trkpt><trkpt lat="43.05357324599756" lon="11.659058563318737"><ele>298.0</ele><time>2026-04-11T18:55:17.999Z</time></trkpt><trkpt lat="43.05361459792389" lon="11.659149910019755"><ele>298.0</ele><time>2026-04-11T18:55:19.999Z</time></trkpt><trkpt lat="43.053656577089576" lon="11.659230654362409"><ele>298.0</ele><time>2026-04-11T18:55:21.999Z</time></trkpt><trkpt lat="43.05370365972047" lon="11.659314546879115"><ele>298.0</ele><time>2026-04-11T18:55:23.999Z</time></trkpt><trkpt lat="43.05373535314567" lon="11.659403797813223"><ele>298.0</ele><time>2026-04-11T18:55:25.999Z</time></trkpt><trkpt lat="43.053790225837545" lon="11.659508034923725"><ele>299.42857142857144</ele><time>2026-04-11T18:55:28.999Z</time></trkpt><trkpt lat="43.053827121817264" lon="11.659586085410503"><ele>300.85714285714283</ele><time>2026-04-11T18:55:30.999Z</time></trkpt><trkpt lat="43.05387158811247" lon="11.659692217391449"><ele>302.2857142857143</ele><time>2026-04-11T18:55:33.999Z</time></trkpt><trkpt lat="43.05391936449567" lon="11.659757281032544"><ele>303.7142857142857</ele><time>2026-04-11T18:55:35.999Z</time></trkpt><trkpt lat="43.05396911393257" lon="11.659859615905374"><ele>305.1428571428571</ele><time>2026-04-11T18:55:38.999Z</time></trkpt><trkpt lat="43.05400333197661" lon="11.659933826282922"><ele>306.57142857142856</ele><time>2026-04-11T18:55:40.999Z</time></trkpt><trkpt lat="43.05404731962256" lon="11.660004416401438"><ele>308.0</ele><time>2026-04-11T18:55:42.999Z</time></trkpt><trkpt lat="43.05408423874193" lon="11.660077009225136"><ele>308.0</ele><time>2026-04-11T18:55:45Z</time></trkpt><trkpt lat="43.054120347553926" lon="11.66015315552166"><ele>308.0</ele><time>2026-04-11T18:55:47Z</time></trkpt><trkpt lat="43.05415579273298" lon="11.660233306442342"><ele>308.0</ele><time>2026-04-11T18:55:49Z</time></trkpt><trkpt lat="43.05419519296427" lon="11.660309404107474"><ele>308.0</ele><time>2026-04-11T18:55:51Z</time></trkpt><trkpt lat="43.05423647718827" lon="11.660392116386834"><ele>308.0</ele><time>2026-04-11T18:55:53Z</time></trkpt><trkpt lat="43.054278605364985" lon="11.660471849048326"><ele>308.0</ele><time>2026-04-11T18:55:55Z</time></trkpt><trkpt lat="43.05432430714637" lon="11.660559424445406"><ele>308.0</ele><time>2026-04-11T18:55:57Z</time></trkpt><trkpt lat="43.054369096279984" lon="11.660639536561524"><ele>306.0</ele><time>2026-04-11T18:55:59Z</time></trkpt><trkpt lat="43.054419516688476" lon="11.660701201634733"><ele>304.0</ele><time>2026-04-11T18:56:01Z</time></trkpt><trkpt lat="43.05447382866891" lon="11.660774040731907"><ele>302.0</ele><time>2026-04-11T18:56:03Z</time></trkpt><trkpt lat="43.05454455200675" lon="11.660826712088063"><ele>300.0</ele><time>2026-04-11T18:56:05Z</time></trkpt><trkpt lat="43.05460795086645" lon="11.660883570652551"><ele>298.0</ele><time>2026-04-11T18:56:07Z</time></trkpt><trkpt lat="43.05468850583961" lon="11.660942092826867"><ele>296.0</ele><time>2026-04-11T18:56:09Z</time></trkpt><trkpt lat="43.05477376130566" lon="11.66099925035352"><ele>296.0</ele><time>2026-04-11T18:56:11Z</time></trkpt><trkpt lat="43.05485591456123" lon="11.661061876306368"><ele>296.0</ele><time>2026-04-11T18:56:13Z</time></trkpt><trkpt lat="43.05494155685394" lon="11.661122955475841"><ele>296.0</ele><time>2026-04-11T18:56:15Z</time></trkpt><trkpt lat="43.05503113733893" lon="11.66118383158947"><ele>296.0</ele><time>2026-04-11T18:56:17Z</time></trkpt><trkpt lat="43.055118726260666" lon="11.661241047042228"><ele>296.0</ele><time>2026-04-11T18:56:19Z</time></trkpt><trkpt lat="43.055215442478904" lon="11.661295658457634"><ele>295.2</ele><time>2026-04-11T18:56:21Z</time></trkpt><trkpt lat="43.05531686393168" lon="11.66133061473001"><ele>294.40000000000003</ele><time>2026-04-11T18:56:23Z</time></trkpt><trkpt lat="43.05542470336281" lon="11.661360544430192"><ele>293.6</ele><time>2026-04-11T18:56:25Z</time></trkpt><trkpt lat="43.0555349408182" lon="11.661383552863274"><ele>292.8</ele><time>2026-04-11T18:56:27Z</time></trkpt><trkpt lat="43.05563741826518" lon="11.661414780254901"><ele>292.0</ele><time>2026-04-11T18:56:29Z</time></trkpt><trkpt lat="43.05575047072718" lon="11.661436638037218"><ele>291.4</ele><time>2026-04-11T18:56:31Z</time></trkpt><trkpt lat="43.055866020313324" lon="11.661460785662527"><ele>290.79999999999995</ele><time>2026-04-11T18:56:33Z</time></trkpt><trkpt lat="43.05597582012443" lon="11.66149042719529"><ele>290.2</ele><time>2026-04-11T18:56:35Z</time></trkpt><trkpt lat="43.05604454232091" lon="11.661496197971301"><ele>289.59999999999997</ele><time>2026-04-11T18:56:36Z</time></trkpt><trkpt lat="43.05613157625011" lon="11.661500118930997"><ele>289.0</ele><time>2026-04-11T18:56:38Z</time></trkpt><trkpt lat="43.05623210683541" lon="11.661536764219928"><ele>289.0</ele><time>2026-04-11T18:56:40Z</time></trkpt><trkpt lat="43.05633361384041" lon="11.66156486639199"><ele>289.0</ele><time>2026-04-11T18:56:42Z</time></trkpt><trkpt lat="43.05643852621339" lon="11.661587432013974"><ele>289.0</ele><time>2026-04-11T18:56:44Z</time></trkpt><trkpt lat="43.0565388758216" lon="11.661599726144258"><ele>289.0</ele><time>2026-04-11T18:56:46Z</time></trkpt><trkpt lat="43.0566286966593" lon="11.661619248973176"><ele>289.0</ele><time>2026-04-11T18:56:48Z</time></trkpt><trkpt lat="43.05670354525051" lon="11.661641510246689"><ele>288.8571428571429</ele><time>2026-04-11T18:56:50Z</time></trkpt><trkpt lat="43.05676945679505" lon="11.661681763464275"><ele>288.7142857142857</ele><time>2026-04-11T18:56:52Z</time></trkpt><trkpt lat="43.056839586919715" lon="11.661728837160165"><ele>288.57142857142856</ele><time>2026-04-11T18:56:53.999Z</time></trkpt><trkpt lat="43.05690341327388" lon="11.661785458391796"><ele>288.42857142857144</ele><time>2026-04-11T18:56:55.999Z</time></trkpt><trkpt lat="43.05695911950231" lon="11.661851577573868"><ele>288.2857142857143</ele><time>2026-04-11T18:56:57.999Z</time></trkpt><trkpt lat="43.05701320425387" lon="11.661922127645907"><ele>288.14285714285717</ele><time>2026-04-11T18:56:59.999Z</time></trkpt><trkpt lat="43.057063492244474" lon="11.66199130935667"><ele>288.0</ele><time>2026-04-11T18:57:01.999Z</time></trkpt><trkpt lat="43.05711803419405" lon="11.662062012186363"><ele>288.0</ele><time>2026-04-11T18:57:03.999Z</time></trkpt><trkpt lat="43.057166329185684" lon="11.662139559537593"><ele>288.0</ele><time>2026-04-11T18:57:05.999Z</time></trkpt><trkpt lat="43.05722844071272" lon="11.662209382957828"><ele>288.0</ele><time>2026-04-11T18:57:07.999Z</time></trkpt><trkpt lat="43.05728478262829" lon="11.662279442230554"><ele>288.0</ele><time>2026-04-11T18:57:09.999Z</time></trkpt><trkpt lat="43.057337635211574" lon="11.662357017389532"><ele>288.0</ele><time>2026-04-11T18:57:11.999Z</time></trkpt><trkpt lat="43.05739582680045" lon="11.66243210659847"><ele>288.0</ele><time>2026-04-11T18:57:13.999Z</time></trkpt><trkpt lat="43.05745744099364" lon="11.66250957528796"><ele>288.0</ele><time>2026-04-11T18:57:15.999Z</time></trkpt><trkpt lat="43.05751299027238" lon="11.662585402548967"><ele>288.0</ele><time>2026-04-11T18:57:17.999Z</time></trkpt><trkpt lat="43.05757297403806" lon="11.662664791595276"><ele>288.0</ele><time>2026-04-11T18:57:19.999Z</time></trkpt><trkpt lat="43.05763555433463" lon="11.662747076473813"><ele>288.0</ele><time>2026-04-11T18:57:21.999Z</time></trkpt><trkpt lat="43.05769138499624" lon="11.662820360066153"><ele>288.0</ele><time>2026-04-11T18:57:23.999Z</time></trkpt><trkpt lat="43.05775416229235" lon="11.662901531742357"><ele>288.0</ele><time>2026-04-11T18:57:25.999Z</time></trkpt><trkpt lat="43.05781383077367" lon="11.6629804153859"><ele>288.0</ele><time>2026-04-11T18:57:27.999Z</time></trkpt><trkpt lat="43.057872251911014" lon="11.66305957717673"><ele>288.0</ele><time>2026-04-11T18:57:29.999Z</time></trkpt><trkpt lat="43.057932730292805" lon="11.663138893249938"><ele>288.0</ele><time>2026-04-11T18:57:31.999Z</time></trkpt><trkpt lat="43.05798686201058" lon="11.663219250423225"><ele>288.0</ele><time>2026-04-11T18:57:33.999Z</time></trkpt><trkpt lat="43.058050301868285" lon="11.663299371222633"><ele>288.0</ele><time>2026-04-11T18:57:35.999Z</time></trkpt><trkpt lat="43.058105943638566" lon="11.66337125677321"><ele>288.0</ele><time>2026-04-11T18:57:37.999Z</time></trkpt><trkpt lat="43.058159510518685" lon="11.663442309448818"><ele>288.0</ele><time>2026-04-11T18:57:39.999Z</time></trkpt><trkpt lat="43.058211599788926" lon="11.663511886444208"><ele>288.0</ele><time>2026-04-11T18:57:41.999Z</time></trkpt><trkpt lat="43.05825507069638" lon="11.663576698057883"><ele>288.0</ele><time>2026-04-11T18:57:43.999Z</time></trkpt><trkpt lat="43.05832577256778" lon="11.663654318768051"><ele>288.0</ele><time>2026-04-11T18:57:46.999Z</time></trkpt><trkpt lat="43.058383004991406" lon="11.663731116418743"><ele>288.0</ele><time>2026-04-11T18:57:49.999Z</time></trkpt><trkpt lat="43.058441542843084" lon="11.663802306463586"><ele>288.0</ele><time>2026-04-11T18:57:53Z</time></trkpt><trkpt lat="43.05849744133374" lon="11.66387466229119"><ele>288.14285714285717</ele><time>2026-04-11T18:57:56Z</time></trkpt><trkpt lat="43.05854849480342" lon="11.663944792302855"><ele>288.2857142857143</ele><time>2026-04-11T18:57:59Z</time></trkpt><trkpt lat="43.058596862549756" lon="11.664007677773157"><ele>288.42857142857144</ele><time>2026-04-11T18:58:02Z</time></trkpt><trkpt lat="43.058647510680444" lon="11.664073878428619"><ele>288.57142857142856</ele><time>2026-04-11T18:58:05Z</time></trkpt><trkpt lat="43.05870620123188" lon="11.664152027445173"><ele>288.7142857142857</ele><time>2026-04-11T18:58:09Z</time></trkpt><trkpt lat="43.058757554475335" lon="11.664217592906757"><ele>288.8571428571429</ele><time>2026-04-11T18:58:12Z</time></trkpt><trkpt lat="43.05880513969635" lon="11.66428657006279"><ele>289.0</ele><time>2026-04-11T18:58:15Z</time></trkpt><trkpt lat="43.058861445885526" lon="11.664353573790574"><ele>289.0</ele><time>2026-04-11T18:58:18Z</time></trkpt><trkpt lat="43.058923110025844" lon="11.664427169135987"><ele>289.0</ele><time>2026-04-11T18:58:21Z</time></trkpt><trkpt lat="43.058985292822975" lon="11.664514064651083"><ele>289.0</ele><time>2026-04-11T18:58:24Z</time></trkpt><trkpt lat="43.05904795924443" lon="11.66459205222646"><ele>289.0</ele><time>2026-04-11T18:58:27Z</time></trkpt><trkpt lat="43.059090783034044" lon="11.664657161104786"><ele>289.0</ele><time>2026-04-11T18:58:29Z</time></trkpt><trkpt lat="43.05913747090133" lon="11.664721164844389"><ele>289.0</ele><time>2026-04-11T18:58:31Z</time></trkpt><trkpt lat="43.059190758600394" lon="11.664791250121416"><ele>289.42857142857144</ele><time>2026-04-11T18:58:33Z</time></trkpt><trkpt lat="43.05924261374775" lon="11.664864160693236"><ele>289.85714285714283</ele><time>2026-04-11T18:58:35Z</time></trkpt><trkpt lat="43.059290520006265" lon="11.664941491097538"><ele>290.2857142857143</ele><time>2026-04-11T18:58:37Z</time></trkpt><trkpt lat="43.05933779551442" lon="11.665010948461546"><ele>290.7142857142857</ele><time>2026-04-11T18:58:39Z</time></trkpt><trkpt lat="43.05938955015964" lon="11.665084638707123"><ele>291.14285714285717</ele><time>2026-04-11T18:58:41Z</time></trkpt><trkpt lat="43.05944357920299" lon="11.665156882299517"><ele>291.57142857142856</ele><time>2026-04-11T18:58:43Z</time></trkpt><trkpt lat="43.059496291755664" lon="11.665227430895422"><ele>292.0</ele><time>2026-04-11T18:58:45Z</time></trkpt><trkpt lat="43.059549967785216" lon="11.66529768426221"><ele>292.0</ele><time>2026-04-11T18:58:47Z</time></trkpt><trkpt lat="43.059601257212925" lon="11.665369795674723"><ele>292.0</ele><time>2026-04-11T18:58:49Z</time></trkpt><trkpt lat="43.05965113055669" lon="11.66543674273926"><ele>292.0</ele><time>2026-04-11T18:58:51Z</time></trkpt><trkpt lat="43.05970227957356" lon="11.665510093162103"><ele>292.0</ele><time>2026-04-11T18:58:53Z</time></trkpt><trkpt lat="43.05975127563106" lon="11.665578888416812"><ele>292.0</ele><time>2026-04-11T18:58:55Z</time></trkpt><trkpt lat="43.059802822675486" lon="11.665647019225304"><ele>292.0</ele><time>2026-04-11T18:58:56.999Z</time></trkpt><trkpt lat="43.05985365732474" lon="11.665720558715025"><ele>292.0</ele><time>2026-04-11T18:58:58.999Z</time></trkpt><trkpt lat="43.059904134044544" lon="11.665790186055732"><ele>292.2857142857143</ele><time>2026-04-11T18:59:00.999Z</time></trkpt><trkpt lat="43.059951236080664" lon="11.665860812603933"><ele>292.57142857142856</ele><time>2026-04-11T18:59:02.999Z</time></trkpt><trkpt lat="43.06000045389894" lon="11.665933294259045"><ele>292.8571428571429</ele><time>2026-04-11T18:59:04.999Z</time></trkpt><trkpt lat="43.06005110275982" lon="11.666001528468174"><ele>293.1428571428571</ele><time>2026-04-11T18:59:06.999Z</time></trkpt><trkpt lat="43.060098615683856" lon="11.666073849413019"><ele>293.42857142857144</ele><time>2026-04-11T18:59:08.999Z</time></trkpt><trkpt lat="43.06014980887424" lon="11.666144510375712"><ele>293.7142857142857</ele><time>2026-04-11T18:59:10.999Z</time></trkpt><trkpt lat="43.06019439470425" lon="11.666215790880646"><ele>294.0</ele><time>2026-04-11T18:59:12.999Z</time></trkpt><trkpt lat="43.06024166621237" lon="11.666282934328844"><ele>294.0</ele><time>2026-04-11T18:59:14.999Z</time></trkpt><trkpt lat="43.060287200290084" lon="11.66634759537807"><ele>294.0</ele><time>2026-04-11T18:59:16.999Z</time></trkpt><trkpt lat="43.060325132292995" lon="11.666417677706209"><ele>294.0</ele><time>2026-04-11T18:59:18.999Z</time></trkpt><trkpt lat="43.06035826603703" lon="11.666511927281881"><ele>294.0</ele><time>2026-04-11T18:59:20.999Z</time></trkpt><trkpt lat="43.0603887843074" lon="11.666611532452457"><ele>294.0</ele><time>2026-04-11T18:59:22.999Z</time></trkpt><trkpt lat="43.06041229196572" lon="11.66671211064426"><ele>294.0</ele><time>2026-04-11T18:59:24.999Z</time></trkpt><trkpt lat="43.06044199429126" lon="11.666823272708184"><ele>294.0</ele><time>2026-04-11T18:59:26.999Z</time></trkpt><trkpt lat="43.06047104903049" lon="11.666938900337174"><ele>294.0</ele><time>2026-04-11T18:59:28.999Z</time></trkpt><trkpt lat="43.060499627194204" lon="11.667060420213875"><ele>294.0</ele><time>2026-04-11T18:59:30.999Z</time></trkpt><trkpt lat="43.060532449075126" lon="11.667183656295268"><ele>294.0</ele><time>2026-04-11T18:59:32.999Z</time></trkpt><trkpt lat="43.06056138833278" lon="11.667306808420765"><ele>294.0</ele><time>2026-04-11T18:59:34.999Z</time></trkpt><trkpt lat="43.06059229368137" lon="11.667432733165473"><ele>294.0</ele><time>2026-04-11T18:59:36.999Z</time></trkpt><trkpt lat="43.06062722945488" lon="11.667559079241766"><ele>294.0</ele><time>2026-04-11T18:59:38.999Z</time></trkpt><trkpt lat="43.06066002427829" lon="11.667694743284317"><ele>294.0</ele><time>2026-04-11T18:59:40.999Z</time></trkpt><trkpt lat="43.06069343757827" lon="11.667824595726657"><ele>294.0</ele><time>2026-04-11T18:59:42.999Z</time></trkpt><trkpt lat="43.06073092802719" lon="11.667955257234706"><ele>294.0</ele><time>2026-04-11T18:59:44.999Z</time></trkpt><trkpt lat="43.06075690304607" lon="11.66809234364414"><ele>294.0</ele><time>2026-04-11T18:59:46.999Z</time></trkpt><trkpt lat="43.06078627383341" lon="11.668216934991065"><ele>293.8</ele><time>2026-04-11T18:59:48.999Z</time></trkpt><trkpt lat="43.0608163567922" lon="11.66833817084442"><ele>293.59999999999997</ele><time>2026-04-11T18:59:50.999Z</time></trkpt><trkpt lat="43.060846475823546" lon="11.66845633516193"><ele>293.4</ele><time>2026-04-11T18:59:52.999Z</time></trkpt><trkpt lat="43.060878910295976" lon="11.66858279240565"><ele>293.2</ele><time>2026-04-11T18:59:54.999Z</time></trkpt><trkpt lat="43.06089800920921" lon="11.668694458940733"><ele>293.0</ele><time>2026-04-11T18:59:57Z</time></trkpt><trkpt lat="43.060924946319496" lon="11.66880488927964"><ele>292.99999999999994</ele><time>2026-04-11T18:59:59Z</time></trkpt><trkpt lat="43.06094969251127" lon="11.668915537647413"><ele>293.0</ele><time>2026-04-11T19:00:01Z</time></trkpt><trkpt lat="43.060985231457245" lon="11.669019118644986"><ele>293.0</ele><time>2026-04-11T19:00:03Z</time></trkpt><trkpt lat="43.061015134427755" lon="11.669109412222285"><ele>293.0</ele><time>2026-04-11T19:00:05Z</time></trkpt><trkpt lat="43.06105137104524" lon="11.669189575299653"><ele>293.0</ele><time>2026-04-11T19:00:07Z</time></trkpt><trkpt lat="43.06109258028787" lon="11.669263763084402"><ele>292.99999999999994</ele><time>2026-04-11T19:00:09Z</time></trkpt><trkpt lat="43.061150313545795" lon="11.669321091506783"><ele>293.0</ele><time>2026-04-11T19:00:11Z</time></trkpt><trkpt lat="43.06121439551741" lon="11.669368857943253"><ele>292.99999999999994</ele><time>2026-04-11T19:00:13Z</time></trkpt><trkpt lat="43.06126917049543" lon="11.66943676191832"><ele>293.0</ele><time>2026-04-11T19:00:15Z</time></trkpt><trkpt lat="43.06132266707613" lon="11.669503718645979"><ele>293.0</ele><time>2026-04-11T19:00:17Z</time></trkpt><trkpt lat="43.061384470489465" lon="11.669558631206021"><ele>293.0</ele><time>2026-04-11T19:00:19Z</time></trkpt><trkpt lat="43.06144307455174" lon="11.669619323677141"><ele>293.0</ele><time>2026-04-11T19:00:21Z</time></trkpt><trkpt lat="43.061504527918544" lon="11.669674910058184"><ele>292.99999999999994</ele><time>2026-04-11T19:00:23Z</time></trkpt><trkpt lat="43.06156402077428" lon="11.669733748247909"><ele>293.0</ele><time>2026-04-11T19:00:25Z</time></trkpt><trkpt lat="43.06162861428547" lon="11.669789536805679"><ele>293.1666666666667</ele><time>2026-04-11T19:00:27Z</time></trkpt><trkpt lat="43.06169632282077" lon="11.669839071251065"><ele>293.33333333333337</ele><time>2026-04-11T19:00:29Z</time></trkpt><trkpt lat="43.061760474573006" lon="11.669887295104301"><ele>293.5</ele><time>2026-04-11T19:00:31Z</time></trkpt><trkpt lat="43.06182586527912" lon="11.669938413917816"><ele>293.6666666666667</ele><time>2026-04-11T19:00:33Z</time></trkpt><trkpt lat="43.061892065413986" lon="11.669991688023035"><ele>293.8333333333333</ele><time>2026-04-11T19:00:35Z</time></trkpt><trkpt lat="43.06195850162926" lon="11.670044876097982"><ele>294.0</ele><time>2026-04-11T19:00:37Z</time></trkpt><trkpt lat="43.062025876752294" lon="11.67008654780907"><ele>294.0</ele><time>2026-04-11T19:00:39Z</time></trkpt><trkpt lat="43.062094267270986" lon="11.67013224343829"><ele>294.0</ele><time>2026-04-11T19:00:41Z</time></trkpt><trkpt lat="43.06216595319177" lon="11.670177641220938"><ele>294.0</ele><time>2026-04-11T19:00:43Z</time></trkpt><trkpt lat="43.0622313414544" lon="11.670220227607064"><ele>294.0</ele><time>2026-04-11T19:00:45Z</time></trkpt><trkpt lat="43.062298830946276" lon="11.670261946767933"><ele>294.0</ele><time>2026-04-11T19:00:47Z</time></trkpt><trkpt lat="43.062362381216765" lon="11.670306658576994"><ele>294.0</ele><time>2026-04-11T19:00:49Z</time></trkpt><trkpt lat="43.06242479789393" lon="11.670345719073547"><ele>294.0</ele><time>2026-04-11T19:00:51Z</time></trkpt><trkpt lat="43.06249061691067" lon="11.670387601818474"><ele>294.2857142857143</ele><time>2026-04-11T19:00:53Z</time></trkpt><trkpt lat="43.06255610393026" lon="11.67043162722256"><ele>294.57142857142856</ele><time>2026-04-11T19:00:55Z</time></trkpt><trkpt lat="43.06261657592729" lon="11.670480517356996"><ele>294.8571428571429</ele><time>2026-04-11T19:00:57Z</time></trkpt><trkpt lat="43.06268093960431" lon="11.670523939026031"><ele>295.1428571428571</ele><time>2026-04-11T19:00:59Z</time></trkpt><trkpt lat="43.06274576286363" lon="11.670569314001627"><ele>295.42857142857144</ele><time>2026-04-11T19:01:01Z</time></trkpt><trkpt lat="43.062808191353845" lon="11.67060460239366"><ele>295.7142857142857</ele><time>2026-04-11T19:01:03Z</time></trkpt><trkpt lat="43.06286870531873" lon="11.670652133633086"><ele>296.0</ele><time>2026-04-11T19:01:05Z</time></trkpt><trkpt lat="43.06292988976449" lon="11.67070149879863"><ele>296.0</ele><time>2026-04-11T19:01:07Z</time></trkpt><trkpt lat="43.062993042938494" lon="11.670743236748766"><ele>296.0</ele><time>2026-04-11T19:01:09Z</time></trkpt><trkpt lat="43.063055568480635" lon="11.670787342267284"><ele>296.0</ele><time>2026-04-11T19:01:10.999Z</time></trkpt><trkpt lat="43.06311627228012" lon="11.670820120348557"><ele>296.0</ele><time>2026-04-11T19:01:12.999Z</time></trkpt><trkpt lat="43.0631735413073" lon="11.670860722006065"><ele>296.0</ele><time>2026-04-11T19:01:14.999Z</time></trkpt><trkpt lat="43.06322969304642" lon="11.670905156325368"><ele>296.0</ele><time>2026-04-11T19:01:17.999Z</time></trkpt><trkpt lat="43.063288630438294" lon="11.670959635605433"><ele>296.0</ele><time>2026-04-11T19:01:39.999Z</time></trkpt><trkpt lat="43.06335792097974" lon="11.671001598794144"><ele>296.42857142857144</ele><time>2026-04-11T19:01:43.999Z</time></trkpt><trkpt lat="43.06342941622404" lon="11.671055848000854"><ele>296.85714285714283</ele><time>2026-04-11T19:01:47.999Z</time></trkpt><trkpt lat="43.063489762904624" lon="11.671090036730712"><ele>297.2857142857143</ele><time>2026-04-11T19:01:50.999Z</time></trkpt><trkpt lat="43.06355543981685" lon="11.671127199539134"><ele>297.7142857142857</ele><time>2026-04-11T19:01:53.999Z</time></trkpt><trkpt lat="43.063612089826655" lon="11.671167135238841"><ele>298.14285714285717</ele><time>2026-04-11T19:01:57.999Z</time></trkpt><trkpt lat="43.06368341859988" lon="11.67120969925371"><ele>298.57142857142856</ele><time>2026-04-11T19:04:15Z</time></trkpt><trkpt lat="43.06375958353708" lon="11.671249053087845"><ele>299.0</ele><time>2026-04-11T19:04:20Z</time></trkpt><trkpt lat="43.06382949858394" lon="11.671289507251279"><ele>299.1666666666667</ele><time>2026-04-11T19:04:24Z</time></trkpt><trkpt lat="43.063885633591646" lon="11.671333721329402"><ele>299.33333333333337</ele><time>2026-04-11T19:04:27Z</time></trkpt><trkpt lat="43.06395301988835" lon="11.671408089220336"><ele>299.5</ele><time>2026-04-11T19:04:30Z</time></trkpt><trkpt lat="43.06402330393885" lon="11.671448545839754"><ele>299.6666666666667</ele><time>2026-04-11T19:04:33Z</time></trkpt><trkpt lat="43.06410117162173" lon="11.671497657226658"><ele>299.8333333333333</ele><time>2026-04-11T19:04:36Z</time></trkpt><trkpt lat="43.06417662014975" lon="11.671534556557889"><ele>300.0</ele><time>2026-04-11T19:04:39Z</time></trkpt><trkpt lat="43.06425672658256" lon="11.671586448744954"><ele>300.5</ele><time>2026-04-11T19:04:42Z</time></trkpt><trkpt lat="43.06433325732697" lon="11.671629100133787"><ele>301.0</ele><time>2026-04-11T19:04:45Z</time></trkpt><trkpt lat="43.06440249335369" lon="11.671677037685425"><ele>301.5</ele><time>2026-04-11T19:04:48Z</time></trkpt><trkpt lat="43.06447546745844" lon="11.671730215240526"><ele>302.0</ele><time>2026-04-11T19:04:51Z</time></trkpt><trkpt lat="43.064545865964085" lon="11.671776193675843"><ele>302.5</ele><time>2026-04-11T19:04:54Z</time></trkpt><trkpt lat="43.0646091544185" lon="11.671826771373649"><ele>303.0</ele><time>2026-04-11T19:04:57Z</time></trkpt><trkpt lat="43.06467080732704" lon="11.671859458038838"><ele>303.0</ele><time>2026-04-11T19:05:00Z</time></trkpt><trkpt lat="43.06472778186982" lon="11.67189648720779"><ele>303.0</ele><time>2026-04-11T19:05:03Z</time></trkpt><trkpt lat="43.06480254384372" lon="11.671936598547177"><ele>303.0</ele><time>2026-04-11T19:05:06.999Z</time></trkpt><trkpt lat="43.06486114612771" lon="11.671979513040949"><ele>303.0</ele><time>2026-04-11T19:05:09.999Z</time></trkpt><trkpt lat="43.06492592273873" lon="11.672035138503212"><ele>303.0</ele><time>2026-04-11T19:05:13.999Z</time></trkpt><trkpt lat="43.06498883040846" lon="11.672088206663416"><ele>303.0</ele><time>2026-04-11T19:05:17.999Z</time></trkpt><trkpt lat="43.06506229993753" lon="11.672140525803519"><ele>303.0</ele><time>2026-04-11T19:05:21.999Z</time></trkpt><trkpt lat="43.06512394953194" lon="11.672175522225352"><ele>303.8571428571429</ele><time>2026-04-11T19:05:25.999Z</time></trkpt><trkpt lat="43.06518940927226" lon="11.672212013629142"><ele>304.7142857142857</ele><time>2026-04-11T19:05:29.999Z</time></trkpt><trkpt lat="43.06525367092697" lon="11.67222707379814"><ele>305.57142857142856</ele><time>2026-04-11T19:05:33.999Z</time></trkpt><trkpt lat="43.0653183992349" lon="11.672232798502561"><ele>306.42857142857144</ele><time>2026-04-11T19:05:37.999Z</time></trkpt><trkpt lat="43.06538597997135" lon="11.672213374971522"><ele>307.2857142857143</ele><time>2026-04-11T19:05:41.999Z</time></trkpt><trkpt lat="43.065447825931074" lon="11.672168869029473"><ele>308.14285714285717</ele><time>2026-04-11T19:05:45.999Z</time></trkpt><trkpt lat="43.06550216896113" lon="11.672111350980181"><ele>309.0</ele><time>2026-04-11T19:05:49.999Z</time></trkpt><trkpt lat="43.06554552041869" lon="11.672046536883965"><ele>309.00000000000006</ele><time>2026-04-11T19:05:53.999Z</time></trkpt><trkpt lat="43.06558696456423" lon="11.671972125188727"><ele>309.0</ele><time>2026-04-11T19:05:57.999Z</time></trkpt><trkpt lat="43.06563848559852" lon="11.671907804192795"><ele>309.0</ele><time>2026-04-11T19:06:02.999Z</time></trkpt><trkpt lat="43.065704123746045" lon="11.671887910958736"><ele>309.0</ele><time>2026-04-11T19:06:06.999Z</time></trkpt><trkpt lat="43.06576802079598" lon="11.671884190426224"><ele>309.0</ele><time>2026-04-11T19:06:10.999Z</time></trkpt><trkpt lat="43.0658298066802" lon="11.671905993996997"><ele>309.00000000000006</ele><time>2026-04-11T19:06:15Z</time></trkpt><trkpt lat="43.06589948197745" lon="11.671937604585278"><ele>309.0</ele><time>2026-04-11T19:06:20Z</time></trkpt><trkpt lat="43.06596957728765" lon="11.67198189932539"><ele>310.14285714285717</ele><time>2026-04-11T19:06:25Z</time></trkpt><trkpt lat="43.06604112342459" lon="11.672014273655702"><ele>311.2857142857143</ele><time>2026-04-11T19:06:30Z</time></trkpt><trkpt lat="43.06611214459131" lon="11.672043621794932"><ele>312.42857142857144</ele><time>2026-04-11T19:06:35Z</time></trkpt><trkpt lat="43.066174551789665" lon="11.672089768815285"><ele>313.57142857142856</ele><time>2026-04-11T19:06:40Z</time></trkpt><trkpt lat="43.06622959806234" lon="11.672155301166915"><ele>314.7142857142857</ele><time>2026-04-11T19:06:45Z</time></trkpt><trkpt lat="43.06625855693564" lon="11.672250214647987"><ele>315.8571428571429</ele><time>2026-04-11T19:06:50Z</time></trkpt><trkpt lat="43.06628301606917" lon="11.672345104257008"><ele>317.0</ele><time>2026-04-11T19:06:56Z</time></trkpt><trkpt lat="43.066312870070306" lon="11.672426462408925"><ele>317.0</ele><time>2026-04-11T19:07:01Z</time></trkpt><trkpt lat="43.06636452620794" lon="11.672494802395171"><ele>317.0</ele><time>2026-04-11T19:07:06Z</time></trkpt><trkpt lat="43.066413388250325" lon="11.672563592245329"><ele>317.0</ele><time>2026-04-11T19:07:11Z</time></trkpt><trkpt lat="43.06647949544048" lon="11.672612121376865"><ele>317.0</ele><time>2026-04-11T19:07:16Z</time></trkpt><trkpt lat="43.0665483448047" lon="11.67264298230908"><ele>317.0</ele><time>2026-04-11T19:07:21Z</time></trkpt><trkpt lat="43.0666078059761" lon="11.6726752522396"><ele>317.0</ele><time>2026-04-11T19:07:25Z</time></trkpt><trkpt lat="43.06666377193142" lon="11.672717154040424"><ele>317.0</ele><time>2026-04-11T19:07:28.999Z</time></trkpt><trkpt lat="43.06669586947348" lon="11.672808901616321"><ele>317.57142857142856</ele><time>2026-04-11T19:07:33.999Z</time></trkpt><trkpt lat="43.06670161397981" lon="11.672899388880285"><ele>318.1428571428571</ele><time>2026-04-11T19:07:39.999Z</time></trkpt><trkpt lat="43.06669245608842" lon="11.672986459630627"><ele>318.71428571428567</ele><time>2026-04-11T19:07:44.999Z</time></trkpt><trkpt lat="43.06666250164376" lon="11.673064262719352"><ele>319.2857142857143</ele><time>2026-04-11T19:07:49.999Z</time></trkpt><trkpt lat="43.066621083477095" lon="11.673142076232358"><ele>319.85714285714283</ele><time>2026-04-11T19:07:54.999Z</time></trkpt><trkpt lat="43.066583182379105" lon="11.67321247714902"><ele>320.4285714285714</ele><time>2026-04-11T19:07:58.999Z</time></trkpt><trkpt lat="43.066538096455375" lon="11.673296223789864"><ele>321.0</ele><time>2026-04-11T19:08:03.999Z</time></trkpt><trkpt lat="43.06650291183725" lon="11.673376491721395"><ele>320.99999999999994</ele><time>2026-04-11T19:08:07.999Z</time></trkpt><trkpt lat="43.066478298938755" lon="11.673457899559642"><ele>321.0</ele><time>2026-04-11T19:08:11.999Z</time></trkpt><trkpt lat="43.066482240537184" lon="11.673552450970858"><ele>321.0</ele><time>2026-04-11T19:08:15.999Z</time></trkpt><trkpt lat="43.06649186933741" lon="11.673646919811885"><ele>321.0</ele><time>2026-04-11T19:08:19.999Z</time></trkpt><trkpt lat="43.06652511540375" lon="11.67374230153347"><ele>321.0</ele><time>2026-04-11T19:08:24Z</time></trkpt><trkpt lat="43.066568372234805" lon="11.673828550928551"><ele>320.99999999999994</ele><time>2026-04-11T19:08:28Z</time></trkpt><trkpt lat="43.06660000614147" lon="11.673917768158692"><ele>321.0</ele><time>2026-04-11T19:08:32Z</time></trkpt><trkpt lat="43.066631616745255" lon="11.673995650557279"><ele>322.57142857142856</ele><time>2026-04-11T19:08:36Z</time></trkpt><trkpt lat="43.06666133087624" lon="11.674088589802828"><ele>324.1428571428571</ele><time>2026-04-11T19:08:41Z</time></trkpt><trkpt lat="43.066683351811314" lon="11.67418241973465"><ele>325.71428571428567</ele><time>2026-04-11T19:08:46Z</time></trkpt><trkpt lat="43.06670492359976" lon="11.674280095857531"><ele>327.2857142857143</ele><time>2026-04-11T19:08:51Z</time></trkpt><trkpt lat="43.06672198440802" lon="11.674369172451101"><ele>328.8571428571429</ele><time>2026-04-11T19:08:55Z</time></trkpt><trkpt lat="43.066740279300305" lon="11.674457298616579"><ele>330.4285714285714</ele><time>2026-04-11T19:08:59Z</time></trkpt><trkpt lat="43.0667799570416" lon="11.674531392379553"><ele>332.0</ele><time>2026-04-11T19:09:03Z</time></trkpt><trkpt lat="43.066809069240726" lon="11.674612761140398"><ele>332.0</ele><time>2026-04-11T19:09:07Z</time></trkpt><trkpt lat="43.066841350557894" lon="11.674687567702472"><ele>332.0</ele><time>2026-04-11T19:09:11Z</time></trkpt><trkpt lat="43.06688985329738" lon="11.674749602204187"><ele>332.0</ele><time>2026-04-11T19:09:15Z</time></trkpt><trkpt lat="43.066954437076156" lon="11.67479139700412"><ele>332.0</ele><time>2026-04-11T19:09:19Z</time></trkpt><trkpt lat="43.06703144329367" lon="11.674827429981528"><ele>332.0</ele><time>2026-04-11T19:09:23Z</time></trkpt><trkpt lat="43.06709186895527" lon="11.674857044964314"><ele>332.0</ele><time>2026-04-11T19:09:26Z</time></trkpt><trkpt lat="43.067168580078366" lon="11.674886936392435"><ele>332.0</ele><time>2026-04-11T19:09:30Z</time></trkpt><trkpt lat="43.06723386771927" lon="11.674922818034394"><ele>332.0</ele><time>2026-04-11T19:09:34Z</time></trkpt><trkpt lat="43.06731080526812" lon="11.67495258132361"><ele>332.0</ele><time>2026-04-11T19:09:38Z</time></trkpt><trkpt lat="43.067378166020326" lon="11.674988911666574"><ele>332.0</ele><time>2026-04-11T19:09:41.999Z</time></trkpt><trkpt lat="43.06744596622973" lon="11.67502751609448"><ele>332.0</ele><time>2026-04-11T19:09:45.999Z</time></trkpt><trkpt lat="43.06752199718169" lon="11.675056664318221"><ele>332.0</ele><time>2026-04-11T19:09:49.999Z</time></trkpt><trkpt lat="43.06759130561391" lon="11.675087673472557"><ele>332.0</ele><time>2026-04-11T19:09:53.999Z</time></trkpt><trkpt lat="43.06766438228919" lon="11.675127075225985"><ele>332.83333333333337</ele><time>2026-04-11T19:09:57.999Z</time></trkpt><trkpt lat="43.067733440564055" lon="11.675158365635086"><ele>333.6666666666667</ele><time>2026-04-11T19:10:01.999Z</time></trkpt><trkpt lat="43.0678000650586" lon="11.675191466618958"><ele>334.5</ele><time>2026-04-11T19:10:05.999Z</time></trkpt><trkpt lat="43.06785915292895" lon="11.675243844518619"><ele>335.3333333333333</ele><time>2026-04-11T19:10:09.999Z</time></trkpt><trkpt lat="43.067918739876106" lon="11.675310665893178"><ele>336.16666666666663</ele><time>2026-04-11T19:10:13.999Z</time></trkpt><trkpt lat="43.06797980222616" lon="11.67538388552615"><ele>337.0</ele><time>2026-04-11T19:10:17.999Z</time></trkpt><trkpt lat="43.068034672884465" lon="11.675459640420183"><ele>337.00000000000006</ele><time>2026-04-11T19:10:21.999Z</time></trkpt><trkpt lat="43.068077375260636" lon="11.67552429970115"><ele>337.0</ele><time>2026-04-11T19:10:24.999Z</time></trkpt><trkpt lat="43.068115823719864" lon="11.675592899748171"><ele>337.0</ele><time>2026-04-11T19:10:28Z</time></trkpt><trkpt lat="43.06816550114881" lon="11.675652388745064"><ele>337.0</ele><time>2026-04-11T19:10:31Z</time></trkpt><trkpt lat="43.06821065291962" lon="11.675717335212452"><ele>337.0</ele><time>2026-04-11T19:10:34Z</time></trkpt><trkpt lat="43.06825902165143" lon="11.675788547390022"><ele>337.00000000000006</ele><time>2026-04-11T19:10:37Z</time></trkpt><trkpt lat="43.068313707463965" lon="11.675850647585971"><ele>337.0</ele><time>2026-04-11T19:10:40Z</time></trkpt><trkpt lat="43.06837008926858" lon="11.675916951248356"><ele>337.8571428571429</ele><time>2026-04-11T19:10:43Z</time></trkpt><trkpt lat="43.06842031493019" lon="11.675992399748596"><ele>338.7142857142857</ele><time>2026-04-11T19:10:46Z</time></trkpt><trkpt lat="43.068474141185476" lon="11.67606650696764"><ele>339.57142857142856</ele><time>2026-04-11T19:10:49Z</time></trkpt><trkpt lat="43.06853281221525" lon="11.67613302302521"><ele>340.42857142857144</ele><time>2026-04-11T19:10:52Z</time></trkpt><trkpt lat="43.068585275356604" lon="11.676205281773152"><ele>341.2857142857143</ele><time>2026-04-11T19:10:55Z</time></trkpt><trkpt lat="43.06863918356585" lon="11.676275674065655"><ele>342.14285714285717</ele><time>2026-04-11T19:10:58Z</time></trkpt><trkpt lat="43.06869196855494" lon="11.67634241505048"><ele>343.0</ele><time>2026-04-11T19:11:01Z</time></trkpt><trkpt lat="43.068741706283866" lon="11.676411608609754"><ele>343.0</ele><time>2026-04-11T19:11:04Z</time></trkpt><trkpt lat="43.068793127139635" lon="11.676480098080178"><ele>343.0</ele><time>2026-04-11T19:11:07Z</time></trkpt><trkpt lat="43.06884112501424" lon="11.67655221789798"><ele>343.0</ele><time>2026-04-11T19:11:10Z</time></trkpt><trkpt lat="43.06889253491051" lon="11.676621432548274"><ele>343.0</ele><time>2026-04-11T19:11:13Z</time></trkpt><trkpt lat="43.068942671322645" lon="11.6766951268688"><ele>343.0</ele><time>2026-04-11T19:11:16Z</time></trkpt><trkpt lat="43.068993642545614" lon="11.676771073062785"><ele>343.0</ele><time>2026-04-11T19:11:19Z</time></trkpt><trkpt lat="43.069042233822415" lon="11.67685535401606"><ele>343.0</ele><time>2026-04-11T19:11:22Z</time></trkpt><trkpt lat="43.06907083408714" lon="11.676959006775808"><ele>343.5</ele><time>2026-04-11T19:11:25Z</time></trkpt><trkpt lat="43.069071896555386" lon="11.677064489217745"><ele>344.0</ele><time>2026-04-11T19:11:28Z</time></trkpt><trkpt lat="43.06905723442655" lon="11.677157654751056"><ele>344.5</ele><time>2026-04-11T19:11:31Z</time></trkpt><trkpt lat="43.06902380142015" lon="11.677250817024637"><ele>345.0</ele><time>2026-04-11T19:11:34Z</time></trkpt><trkpt lat="43.06899142492177" lon="11.677355301161985"><ele>345.5</ele><time>2026-04-11T19:11:37Z</time></trkpt><trkpt lat="43.068952932994286" lon="11.677453489892695"><ele>346.0</ele><time>2026-04-11T19:11:40Z</time></trkpt><trkpt lat="43.06890705127807" lon="11.677553112749266"><ele>346.0</ele><time>2026-04-11T19:11:42.999Z</time></trkpt><trkpt lat="43.068862332223965" lon="11.677663218356422"><ele>346.0</ele><time>2026-04-11T19:11:45.999Z</time></trkpt><trkpt lat="43.06881462192952" lon="11.677767776789757"><ele>346.0</ele><time>2026-04-11T19:11:48.999Z</time></trkpt><trkpt lat="43.068766010364605" lon="11.677875422584629"><ele>346.0</ele><time>2026-04-11T19:11:51.999Z</time></trkpt><trkpt lat="43.06873231307345" lon="11.677974501367588"><ele>346.0</ele><time>2026-04-11T19:11:54.999Z</time></trkpt><trkpt lat="43.06868758746879" lon="11.678045972919135"><ele>346.0</ele><time>2026-04-11T19:11:57.999Z</time></trkpt><trkpt lat="43.068653727690396" lon="11.678139629204932"><ele>347.1428571428571</ele><time>2026-04-11T19:12:00.999Z</time></trkpt><trkpt lat="43.068627566527745" lon="11.678236216247456"><ele>348.28571428571433</ele><time>2026-04-11T19:12:03.999Z</time></trkpt><trkpt lat="43.06860036252913" lon="11.6783295244295"><ele>349.42857142857144</ele><time>2026-04-11T19:12:06.999Z</time></trkpt><trkpt lat="43.068581967548326" lon="11.678428293780033"><ele>350.57142857142856</ele><time>2026-04-11T19:12:09.999Z</time></trkpt><trkpt lat="43.068579158530405" lon="11.678519397617718"><ele>351.71428571428567</ele><time>2026-04-11T19:12:12.999Z</time></trkpt><trkpt lat="43.06856341972283" lon="11.678615011114895"><ele>352.8571428571429</ele><time>2026-04-11T19:12:15.999Z</time></trkpt><trkpt lat="43.068537488706326" lon="11.678725997932279"><ele>354.0</ele><time>2026-04-11T19:12:19.999Z</time></trkpt><trkpt lat="43.068524598118444" lon="11.678814561707675"><ele>355.0</ele><time>2026-04-11T19:12:22.999Z</time></trkpt><trkpt lat="43.06851162430877" lon="11.678900102959132"><ele>356.0</ele><time>2026-04-11T19:12:25.999Z</time></trkpt><trkpt lat="43.06849455536743" lon="11.679003003012662"><ele>357.0</ele><time>2026-04-11T19:12:29.999Z</time></trkpt><trkpt lat="43.06848565893477" lon="11.679098172521938"><ele>358.0</ele><time>2026-04-11T19:12:34Z</time></trkpt><trkpt lat="43.06846891290284" lon="11.679185751558471"><ele>359.0</ele><time>2026-04-11T19:12:38Z</time></trkpt><trkpt lat="43.06845363022665" lon="11.67927912310814"><ele>360.0</ele><time>2026-04-11T19:12:42Z</time></trkpt><trkpt lat="43.06843889682651" lon="11.67938018564489"><ele>361.0</ele><time>2026-04-11T19:12:46Z</time></trkpt><trkpt lat="43.06842825280044" lon="11.679473624925729"><ele>361.14285714285717</ele><time>2026-04-11T19:12:50Z</time></trkpt><trkpt lat="43.06842299968518" lon="11.679579589142767"><ele>361.2857142857143</ele><time>2026-04-11T19:12:54Z</time></trkpt><trkpt lat="43.068425016485314" lon="11.679685757273239"><ele>361.42857142857144</ele><time>2026-04-11T19:12:58Z</time></trkpt><trkpt lat="43.068448816841006" lon="11.679775000298136"><ele>361.57142857142856</ele><time>2026-04-11T19:13:02Z</time></trkpt><trkpt lat="43.0684956550894" lon="11.679838339580831"><ele>361.71428571428567</ele><time>2026-04-11T19:13:05Z</time></trkpt><trkpt lat="43.06854313920737" lon="11.679922511668426"><ele>361.85714285714283</ele><time>2026-04-11T19:13:09Z</time></trkpt><trkpt lat="43.06860721312882" lon="11.679978873730239"><ele>362.0</ele><time>2026-04-11T19:13:13Z</time></trkpt><trkpt lat="43.068682214554755" lon="11.680013985824505"><ele>362.0</ele><time>2026-04-11T19:13:17Z</time></trkpt><trkpt lat="43.068760387373146" lon="11.680018606957193"><ele>362.0</ele><time>2026-04-11T19:13:21Z</time></trkpt><trkpt lat="43.06883759654715" lon="11.679991671909255"><ele>362.0</ele><time>2026-04-11T19:13:25Z</time></trkpt><trkpt lat="43.068900716663876" lon="11.679946605910265"><ele>362.0</ele><time>2026-04-11T19:13:29Z</time></trkpt><trkpt lat="43.0689527066257" lon="11.67986342710608"><ele>362.0</ele><time>2026-04-11T19:13:33Z</time></trkpt><trkpt lat="43.068993851705976" lon="11.679796754247592"><ele>362.0</ele><time>2026-04-11T19:13:36Z</time></trkpt><trkpt lat="43.06901254998743" lon="11.679706386849167"><ele>362.0</ele><time>2026-04-11T19:13:39Z</time></trkpt><trkpt lat="43.06903672332979" lon="11.679615192465887"><ele>362.0</ele><time>2026-04-11T19:13:42Z</time></trkpt><trkpt lat="43.06906413698692" lon="11.67951825816183"><ele>362.0</ele><time>2026-04-11T19:13:44.999Z</time></trkpt><trkpt lat="43.06908663757294" lon="11.679427331150775"><ele>362.0</ele><time>2026-04-11T19:13:47.999Z</time></trkpt><trkpt lat="43.06910660035129" lon="11.679331822953376"><ele>362.0</ele><time>2026-04-11T19:13:50.999Z</time></trkpt><trkpt lat="43.0691337124337" lon="11.679242374918752"><ele>362.0</ele><time>2026-04-11T19:13:53.999Z</time></trkpt><trkpt lat="43.06917597469123" lon="11.679158122062354"><ele>362.0</ele><time>2026-04-11T19:13:56.999Z</time></trkpt><trkpt lat="43.069238706464354" lon="11.679077257002854"><ele>363.2857142857143</ele><time>2026-04-11T19:13:59.999Z</time></trkpt><trkpt lat="43.069294309961435" lon="11.67899965636328"><ele>364.57142857142856</ele><time>2026-04-11T19:14:02.999Z</time></trkpt><trkpt lat="43.06935533494046" lon="11.678949430545389"><ele>365.8571428571429</ele><time>2026-04-11T19:14:05.999Z</time></trkpt><trkpt lat="43.06941376604944" lon="11.67891549312299"><ele>367.1428571428571</ele><time>2026-04-11T19:14:08.999Z</time></trkpt><trkpt lat="43.06949113092291" lon="11.678879030650144"><ele>368.42857142857144</ele><time>2026-04-11T19:14:12.999Z</time></trkpt><trkpt lat="43.0695681225803" lon="11.678872952914675"><ele>369.7142857142857</ele><time>2026-04-11T19:14:16.999Z</time></trkpt><trkpt lat="43.06963765189628" lon="11.678860291573898"><ele>371.0</ele><time>2026-04-11T19:14:20.999Z</time></trkpt><trkpt lat="43.06971801107762" lon="11.678851316505407"><ele>371.0</ele><time>2026-04-11T19:14:24.999Z</time></trkpt><trkpt lat="43.06979614476626" lon="11.678843220849659"><ele>371.0</ele><time>2026-04-11T19:14:28.999Z</time></trkpt><trkpt lat="43.06987107499418" lon="11.678834297629287"><ele>371.0</ele><time>2026-04-11T19:14:32.999Z</time></trkpt><trkpt lat="43.06994965498644" lon="11.678830735852912"><ele>371.0</ele><time>2026-04-11T19:14:36.999Z</time></trkpt><trkpt lat="43.07002265540194" lon="11.678821758707231"><ele>371.0</ele><time>2026-04-11T19:14:41Z</time></trkpt><trkpt lat="43.07009652192749" lon="11.678812825915118"><ele>371.0</ele><time>2026-04-11T19:14:45Z</time></trkpt><trkpt lat="43.07016746840913" lon="11.678799807427476"><ele>372.5</ele><time>2026-04-11T19:14:49Z</time></trkpt><trkpt lat="43.070240833519755" lon="11.678799168346755"><ele>374.0</ele><time>2026-04-11T19:14:53Z</time></trkpt><trkpt lat="43.07031611501952" lon="11.678794643069365"><ele>375.5</ele><time>2026-04-11T19:14:57Z</time></trkpt><trkpt lat="43.07038968472482" lon="11.678783916319047"><ele>377.0</ele><time>2026-04-11T19:15:01Z</time></trkpt><trkpt lat="43.070506488234095" lon="11.678776157457484"><ele>378.5</ele><time>2026-04-11T19:15:07Z</time></trkpt><trkpt lat="43.07057701830123" lon="11.678767389954377"><ele>380.0</ele><time>2026-04-11T19:15:11Z</time></trkpt><trkpt lat="43.07076438033735" lon="11.678740894423632"><ele>381.1666666666667</ele><time>2026-04-11T19:15:21Z</time></trkpt><trkpt lat="43.07084026790858" lon="11.678727486547398"><ele>382.33333333333337</ele><time>2026-04-11T19:15:25Z</time></trkpt><trkpt lat="43.070926873480275" lon="11.678729609316552"><ele>383.5</ele><time>2026-04-11T19:15:30Z</time></trkpt><trkpt lat="43.071000988136596" lon="11.67872529171581"><ele>384.6666666666667</ele><time>2026-04-11T19:15:34Z</time></trkpt><trkpt lat="43.071075413117285" lon="11.678711974639565"><ele>385.8333333333333</ele><time>2026-04-11T19:15:38Z</time></trkpt><trkpt lat="43.0711817261533" lon="11.678694517123041"><ele>387.0</ele><time>2026-04-11T19:15:44Z</time></trkpt><trkpt lat="43.071254328514385" lon="11.678685833977305"><ele>387.0</ele><time>2026-04-11T19:15:48Z</time></trkpt><trkpt lat="43.071369849877584" lon="11.678678832070492"><ele>387.0</ele><time>2026-04-11T19:15:53.999Z</time></trkpt><trkpt lat="43.0714510608671" lon="11.67866474690494"><ele>387.0</ele><time>2026-04-11T19:15:57.999Z</time></trkpt><trkpt lat="43.07163476929986" lon="11.678654832576102"><ele>387.0</ele><time>2026-04-11T19:16:07.999Z</time></trkpt><trkpt lat="43.071719952677505" lon="11.678644673411709"><ele>389.0</ele><time>2026-04-11T19:16:12.999Z</time></trkpt><trkpt lat="43.07183016815427" lon="11.678633660750506"><ele>391.0</ele><time>2026-04-11T19:16:19.999Z</time></trkpt><trkpt lat="43.07205175652383" lon="11.67861202090778"><ele>393.0</ele><time>2026-04-11T19:16:33.999Z</time></trkpt><trkpt lat="43.07211090225011" lon="11.678643943573533"><ele>395.0</ele><time>2026-04-11T19:16:37.999Z</time></trkpt><trkpt lat="43.07216061055226" lon="11.678698704140409"><ele>395.0</ele><time>2026-04-11T19:16:41.999Z</time></trkpt><trkpt lat="43.07220366894473" lon="11.678769124396515"><ele>395.0</ele><time>2026-04-11T19:16:47Z</time></trkpt><trkpt lat="43.0722099506383" lon="11.678882076486278"><ele>395.0</ele><time>2026-04-11T19:16:51Z</time></trkpt><trkpt lat="43.07220721359383" lon="11.678972155450571"><ele>395.0</ele><time>2026-04-11T19:16:55Z</time></trkpt><trkpt lat="43.07218649322318" lon="11.679068429524243"><ele>395.0</ele><time>2026-04-11T19:17:00Z</time></trkpt><trkpt lat="43.07216305174174" lon="11.6791575995993"><ele>395.0</ele><time>2026-04-11T19:17:04Z</time></trkpt><trkpt lat="43.07212716444837" lon="11.679251087955452"><ele>395.0</ele><time>2026-04-11T19:17:08Z</time></trkpt><trkpt lat="43.072108861120086" lon="11.679346527675778"><ele>395.0</ele><time>2026-04-11T19:17:12Z</time></trkpt><trkpt lat="43.07208079658215" lon="11.679431140318329"><ele>395.0</ele><time>2026-04-11T19:17:16Z</time></trkpt><trkpt lat="43.07204565933006" lon="11.679523310707694"><ele>395.0</ele><time>2026-04-11T19:17:20Z</time></trkpt><trkpt lat="43.07202871736763" lon="11.679620025849456"><ele>395.0</ele><time>2026-04-11T19:17:24Z</time></trkpt><trkpt lat="43.072003103800704" lon="11.679715096968016"><ele>395.0</ele><time>2026-04-11T19:17:28Z</time></trkpt><trkpt lat="43.07197628399783" lon="11.679814680810177"><ele>395.0</ele><time>2026-04-11T19:17:32Z</time></trkpt><trkpt lat="43.07195818605393" lon="11.679913759469505"><ele>395.0</ele><time>2026-04-11T19:17:36Z</time></trkpt><trkpt lat="43.07195131911253" lon="11.680009388410285"><ele>394.99999999999994</ele><time>2026-04-11T19:17:40Z</time></trkpt><trkpt lat="43.07196489546252" lon="11.680101408483596"><ele>395.0</ele><time>2026-04-11T19:17:44Z</time></trkpt><trkpt lat="43.07200802405344" lon="11.680192172659629"><ele>395.0</ele><time>2026-04-11T19:17:48Z</time></trkpt><trkpt lat="43.072071485328095" lon="11.680252425708417"><ele>395.0</ele><time>2026-04-11T19:17:51.999Z</time></trkpt><trkpt lat="43.07213746012758" lon="11.680294620512234"><ele>394.99999999999994</ele><time>2026-04-11T19:17:55.999Z</time></trkpt><trkpt lat="43.07225199097495" lon="11.68026659896641"><ele>395.0</ele><time>2026-04-11T19:18:01.999Z</time></trkpt><trkpt lat="43.07232244716865" lon="11.680225661239243"><ele>395.57142857142856</ele><time>2026-04-11T19:18:05.999Z</time></trkpt><trkpt lat="43.07238126905605" lon="11.680150763740144"><ele>396.14285714285717</ele><time>2026-04-11T19:18:09.999Z</time></trkpt><trkpt lat="43.07241859402239" lon="11.680070552527967"><ele>396.7142857142857</ele><time>2026-04-11T19:18:12.999Z</time></trkpt><trkpt lat="43.07245634004056" lon="11.679982543964126"><ele>397.2857142857143</ele><time>2026-04-11T19:18:15.999Z</time></trkpt><trkpt lat="43.072487742698584" lon="11.679894874692986"><ele>397.8571428571429</ele><time>2026-04-11T19:18:18.999Z</time></trkpt><trkpt lat="43.072526917103175" lon="11.679816749058341"><ele>398.42857142857144</ele><time>2026-04-11T19:18:21.999Z</time></trkpt><trkpt lat="43.07255788433193" lon="11.679736852637015"><ele>399.0</ele><time>2026-04-11T19:18:24.999Z</time></trkpt><trkpt lat="43.07259771763132" lon="11.6796537475257"><ele>399.85714285714283</ele><time>2026-04-11T19:18:27.999Z</time></trkpt><trkpt lat="43.07264367360538" lon="11.679576460190576"><ele>400.7142857142857</ele><time>2026-04-11T19:18:30.999Z</time></trkpt><trkpt lat="43.07267953327376" lon="11.679493940719958"><ele>401.57142857142856</ele><time>2026-04-11T19:18:33.999Z</time></trkpt><trkpt lat="43.0727132931861" lon="11.679406206396084"><ele>402.42857142857144</ele><time>2026-04-11T19:18:36.999Z</time></trkpt><trkpt lat="43.07274900516088" lon="11.679325395345947"><ele>403.2857142857143</ele><time>2026-04-11T19:18:39.999Z</time></trkpt><trkpt lat="43.072788697977686" lon="11.679254686712818"><ele>404.1428571428571</ele><time>2026-04-11T19:18:42.999Z</time></trkpt><trkpt lat="43.07283450395509" lon="11.679170619617377"><ele>405.0</ele><time>2026-04-11T19:18:46.999Z</time></trkpt><trkpt lat="43.07287759733205" lon="11.679076495094264"><ele>404.99999999999994</ele><time>2026-04-11T19:18:51Z</time></trkpt><trkpt lat="43.07292403493033" lon="11.679005519114114"><ele>405.0</ele><time>2026-04-11T19:18:55Z</time></trkpt><trkpt lat="43.07298172671623" lon="11.678924533314246"><ele>405.0</ele><time>2026-04-11T19:18:59Z</time></trkpt><trkpt lat="43.073036483898896" lon="11.6788667645283"><ele>405.0</ele><time>2026-04-11T19:19:02Z</time></trkpt><trkpt lat="43.07309130775054" lon="11.678799514215871"><ele>405.0</ele><time>2026-04-11T19:19:06Z</time></trkpt><trkpt lat="43.07315029809612" lon="11.678742339356145"><ele>404.99999999999994</ele><time>2026-04-11T19:19:10Z</time></trkpt><trkpt lat="43.07321277558484" lon="11.678673139447493"><ele>405.0</ele><time>2026-04-11T19:19:14Z</time></trkpt><trkpt lat="43.073269478756224" lon="11.678603580874661"><ele>406.3333333333333</ele><time>2026-04-11T19:19:18Z</time></trkpt><trkpt lat="43.07332250600822" lon="11.678549854281119"><ele>407.66666666666663</ele><time>2026-04-11T19:19:22Z</time></trkpt><trkpt lat="43.07337697537601" lon="11.678480016250171"><ele>409.0</ele><time>2026-04-11T19:19:26Z</time></trkpt><trkpt lat="43.073458750113005" lon="11.678413572464411"><ele>410.3333333333333</ele><time>2026-04-11T19:19:31Z</time></trkpt><trkpt lat="43.073472166553934" lon="11.678322572298274"><ele>411.66666666666663</ele><time>2026-04-11T19:19:34Z</time></trkpt><trkpt lat="43.073524146596064" lon="11.67824213104757"><ele>413.0</ele><time>2026-04-11T19:19:38Z</time></trkpt><trkpt lat="43.07356901823532" lon="11.678158214329924"><ele>412.99999999999994</ele><time>2026-04-11T19:19:42Z</time></trkpt><trkpt lat="43.073604123240955" lon="11.678059800403835"><ele>413.0</ele><time>2026-04-11T19:19:46Z</time></trkpt><trkpt lat="43.07364065430457" lon="11.67796296816296"><ele>413.0</ele><time>2026-04-11T19:19:50Z</time></trkpt><trkpt lat="43.07367945490432" lon="11.677888670529608"><ele>413.0</ele><time>2026-04-11T19:19:54Z</time></trkpt><trkpt lat="43.07372258472572" lon="11.677792110756155"><ele>412.99999999999994</ele><time>2026-04-11T19:19:57.999Z</time></trkpt><trkpt lat="43.073754111815475" lon="11.677693119301903"><ele>413.0</ele><time>2026-04-11T19:20:01.999Z</time></trkpt><trkpt lat="43.073794981807005" lon="11.677593242267456"><ele>412.16666666666663</ele><time>2026-04-11T19:20:05.999Z</time></trkpt><trkpt lat="43.07383718338393" lon="11.677501041977916"><ele>411.3333333333333</ele><time>2026-04-11T19:20:09.999Z</time></trkpt><trkpt lat="43.073863928064355" lon="11.677406083839436"><ele>410.5</ele><time>2026-04-11T19:20:13.999Z</time></trkpt><trkpt lat="43.07390340406812" lon="11.677318874329645"><ele>409.66666666666663</ele><time>2026-04-11T19:20:17.999Z</time></trkpt><trkpt lat="43.073930879693236" lon="11.67721550586326"><ele>408.8333333333333</ele><time>2026-04-11T19:20:21.999Z</time></trkpt><trkpt lat="43.073965018686096" lon="11.677131191605284"><ele>408.0</ele><time>2026-04-11T19:20:25.999Z</time></trkpt><trkpt lat="43.073995749513976" lon="11.677036141353588"><ele>407.57142857142856</ele><time>2026-04-11T19:20:29.999Z</time></trkpt><trkpt lat="43.07401939209081" lon="11.67692751381142"><ele>407.14285714285717</ele><time>2026-04-11T19:20:33.999Z</time></trkpt><trkpt lat="43.07404416720787" lon="11.676840722588338"><ele>406.71428571428567</ele><time>2026-04-11T19:20:37.999Z</time></trkpt><trkpt lat="43.07407915433723" lon="11.676744772084676"><ele>406.2857142857143</ele><time>2026-04-11T19:20:41.999Z</time></trkpt><trkpt lat="43.07408842873841" lon="11.676652600705346"><ele>405.85714285714283</ele><time>2026-04-11T19:20:44.999Z</time></trkpt><trkpt lat="43.07411729208025" lon="11.676573948054841"><ele>405.4285714285714</ele><time>2026-04-11T19:20:47.999Z</time></trkpt><trkpt lat="43.07414482744732" lon="11.676488807207715"><ele>405.0</ele><time>2026-04-11T19:20:51.999Z</time></trkpt><trkpt lat="43.074178781655505" lon="11.676394941922155"><ele>408.8333333333333</ele><time>2026-04-11T19:20:57Z</time></trkpt><trkpt lat="43.07421559036139" lon="11.676291419291134"><ele>412.66666666666663</ele><time>2026-04-11T19:21:01Z</time></trkpt><trkpt lat="43.07424372844436" lon="11.676201325397919"><ele>416.5</ele><time>2026-04-11T19:21:05Z</time></trkpt><trkpt lat="43.07428799630639" lon="11.6761214025903"><ele>420.3333333333333</ele><time>2026-04-11T19:21:09Z</time></trkpt><trkpt lat="43.074351051628874" lon="11.676054720890855"><ele>424.16666666666663</ele><time>2026-04-11T19:21:14Z</time></trkpt><trkpt lat="43.074369193846756" lon="11.675944768300774"><ele>428.0</ele><time>2026-04-11T19:21:18Z</time></trkpt><trkpt lat="43.074409793351464" lon="11.675847723899993"><ele>428.00000000000006</ele><time>2026-04-11T19:21:22Z</time></trkpt><trkpt lat="43.07444482757598" lon="11.675774174046428"><ele>428.0</ele><time>2026-04-11T19:21:25Z</time></trkpt><trkpt lat="43.07448278694511" lon="11.675700394290367"><ele>428.0</ele><time>2026-04-11T19:21:28Z</time></trkpt><trkpt lat="43.07452160016468" lon="11.67562717056998"><ele>428.0</ele><time>2026-04-11T19:21:31Z</time></trkpt><trkpt lat="43.07456492261143" lon="11.675554150841739"><ele>428.0</ele><time>2026-04-11T19:21:34Z</time></trkpt><trkpt lat="43.07459494783347" lon="11.675472701716933"><ele>428.00000000000006</ele><time>2026-04-11T19:21:37Z</time></trkpt><trkpt lat="43.074642255281844" lon="11.675407297902115"><ele>428.0</ele><time>2026-04-11T19:21:40Z</time></trkpt><trkpt lat="43.07470563356893" lon="11.67534095121308"><ele>428.00000000000006</ele><time>2026-04-11T19:21:43Z</time></trkpt><trkpt lat="43.07477037003038" lon="11.675286264389465"><ele>428.0</ele><time>2026-04-11T19:21:46Z</time></trkpt><trkpt lat="43.074831343580165" lon="11.675242622581834"><ele>428.0</ele><time>2026-04-11T19:21:49Z</time></trkpt><trkpt lat="43.07489981158384" lon="11.675205202873007"><ele>428.0</ele><time>2026-04-11T19:21:52Z</time></trkpt><trkpt lat="43.074958827664474" lon="11.675160178200386"><ele>428.0</ele><time>2026-04-11T19:21:55Z</time></trkpt><trkpt lat="43.07503216587771" lon="11.67512267939791"><ele>428.00000000000006</ele><time>2026-04-11T19:21:59Z</time></trkpt><trkpt lat="43.075104709772404" lon="11.675079308621637"><ele>428.0</ele><time>2026-04-11T19:22:02.999Z</time></trkpt><trkpt lat="43.07516245216357" lon="11.67504359981565"><ele>428.8333333333333</ele><time>2026-04-11T19:22:05.999Z</time></trkpt><trkpt lat="43.07522302808167" lon="11.674999500784702"><ele>429.66666666666663</ele><time>2026-04-11T19:22:08.999Z</time></trkpt><trkpt lat="43.075298898560064" lon="11.674944151678973"><ele>430.5</ele><time>2026-04-11T19:22:12.999Z</time></trkpt><trkpt lat="43.075357045578095" lon="11.6749088259428"><ele>431.33333333333337</ele><time>2026-04-11T19:22:15.999Z</time></trkpt><trkpt lat="43.0754339442425" lon="11.674859194135445"><ele>432.1666666666667</ele><time>2026-04-11T19:22:19.999Z</time></trkpt><trkpt lat="43.075503364708375" lon="11.674799093991831"><ele>433.0</ele><time>2026-04-11T19:22:23.999Z</time></trkpt><trkpt lat="43.07557155592766" lon="11.67474552274169"><ele>433.00000000000006</ele><time>2026-04-11T19:22:27.999Z</time></trkpt><trkpt lat="43.07562641595947" lon="11.674697684154985"><ele>433.0</ele><time>2026-04-11T19:22:30.999Z</time></trkpt><trkpt lat="43.07569141855333" lon="11.674645519261619"><ele>433.0</ele><time>2026-04-11T19:22:34.999Z</time></trkpt><trkpt lat="43.0757573521165" lon="11.674588208716752"><ele>433.0</ele><time>2026-04-11T19:22:38.999Z</time></trkpt><trkpt lat="43.07583309773703" lon="11.67453870236061"><ele>433.00000000000006</ele><time>2026-04-11T19:22:42.999Z</time></trkpt><trkpt lat="43.07590319472514" lon="11.674488414782067"><ele>433.0</ele><time>2026-04-11T19:22:46.999Z</time></trkpt><trkpt lat="43.07597270700816" lon="11.674430482654742"><ele>433.57142857142856</ele><time>2026-04-11T19:22:50.999Z</time></trkpt><trkpt lat="43.076028858130876" lon="11.674387760542833"><ele>434.1428571428571</ele><time>2026-04-11T19:22:53.999Z</time></trkpt><trkpt lat="43.0760841800233" lon="11.674342833501534"><ele>434.71428571428567</ele><time>2026-04-11T19:22:56.999Z</time></trkpt><trkpt lat="43.0761575485386" lon="11.674288505197753"><ele>435.2857142857143</ele><time>2026-04-11T19:23:00.999Z</time></trkpt><trkpt lat="43.076225349921685" lon="11.674230242690166"><ele>435.8571428571429</ele><time>2026-04-11T19:23:05Z</time></trkpt><trkpt lat="43.07629010166493" lon="11.67417047460959"><ele>436.4285714285714</ele><time>2026-04-11T19:23:09Z</time></trkpt><trkpt lat="43.07634856563825" lon="11.674097736122846"><ele>437.0</ele><time>2026-04-11T19:23:13Z</time></trkpt><trkpt lat="43.07639777150702" lon="11.674020913536948"><ele>437.0</ele><time>2026-04-11T19:23:17Z</time></trkpt><trkpt lat="43.07644572537707" lon="11.673935487214445"><ele>437.0</ele><time>2026-04-11T19:23:21Z</time></trkpt><trkpt lat="43.076495076888875" lon="11.673849667176393"><ele>437.0</ele><time>2026-04-11T19:23:25Z</time></trkpt><trkpt lat="43.07654192538222" lon="11.673770076070719"><ele>437.0</ele><time>2026-04-11T19:23:29Z</time></trkpt><trkpt lat="43.07657491008529" lon="11.673692957885"><ele>437.0</ele><time>2026-04-11T19:23:32Z</time></trkpt><trkpt lat="43.07662371003308" lon="11.673612529435296"><ele>437.0</ele><time>2026-04-11T19:23:36Z</time></trkpt><trkpt lat="43.07665172570113" lon="11.673531880579008"><ele>437.0</ele><time>2026-04-11T19:23:39Z</time></trkpt><trkpt lat="43.076688019090106" lon="11.673461148452406"><ele>438.49999999999994</ele><time>2026-04-11T19:23:42Z</time></trkpt><trkpt lat="43.076728338721324" lon="11.673366484311321"><ele>440.0</ele><time>2026-04-11T19:23:46Z</time></trkpt><trkpt lat="43.0767762859405" lon="11.67328497402797"><ele>441.5</ele><time>2026-04-11T19:23:50Z</time></trkpt><trkpt lat="43.07685101244394" lon="11.673242337681513"><ele>443.0</ele><time>2026-04-11T19:23:54Z</time></trkpt><trkpt lat="43.07692584020049" lon="11.673284208424922"><ele>444.49999999999994</ele><time>2026-04-11T19:23:58Z</time></trkpt><trkpt lat="43.076953330399" lon="11.673361836574728"><ele>446.0</ele><time>2026-04-11T19:24:01Z</time></trkpt><trkpt lat="43.07694489645792" lon="11.67345905316187"><ele>446.0</ele><time>2026-04-11T19:24:04Z</time></trkpt><trkpt lat="43.07693584665046" lon="11.67354960677046"><ele>446.0</ele><time>2026-04-11T19:24:07Z</time></trkpt><trkpt lat="43.07693825336684" lon="11.673643124104403"><ele>446.0</ele><time>2026-04-11T19:24:09.999Z</time></trkpt><trkpt lat="43.076936319744895" lon="11.673738510530832"><ele>446.0</ele><time>2026-04-11T19:24:12.999Z</time></trkpt><trkpt lat="43.076937216510615" lon="11.673837328870636"><ele>446.0</ele><time>2026-04-11T19:24:15.999Z</time></trkpt><trkpt lat="43.07694546215564" lon="11.673931015949455"><ele>446.0</ele><time>2026-04-11T19:24:18.999Z</time></trkpt><trkpt lat="43.076955489723794" lon="11.674028277962142"><ele>446.0</ele><time>2026-04-11T19:24:21.999Z</time></trkpt><trkpt lat="43.076966459580305" lon="11.674138891373731"><ele>446.85714285714283</ele><time>2026-04-11T19:24:25.999Z</time></trkpt><trkpt lat="43.07695865691384" lon="11.674245499887784"><ele>447.71428571428567</ele><time>2026-04-11T19:24:29.999Z</time></trkpt><trkpt lat="43.07693054330952" lon="11.67434128087011"><ele>448.57142857142856</ele><time>2026-04-11T19:24:33.999Z</time></trkpt><trkpt lat="43.0769091098272" lon="11.674423771571744"><ele>449.42857142857144</ele><time>2026-04-11T19:24:36.999Z</time></trkpt><trkpt lat="43.07687814620494" lon="11.67450151660278"><ele>450.2857142857143</ele><time>2026-04-11T19:24:40.999Z</time></trkpt><trkpt lat="43.076847861765216" lon="11.67459525952243"><ele>451.14285714285717</ele><time>2026-04-11T19:24:44.999Z</time></trkpt><trkpt lat="43.07681354586979" lon="11.674693645306057"><ele>452.0</ele><time>2026-04-11T19:24:48.999Z</time></trkpt><trkpt lat="43.076790159541694" lon="11.674774195681431"><ele>453.28571428571433</ele><time>2026-04-11T19:24:51.999Z</time></trkpt><trkpt lat="43.07676739175109" lon="11.674858009904538"><ele>454.57142857142856</ele><time>2026-04-11T19:24:55.999Z</time></trkpt><trkpt lat="43.07673677734231" lon="11.674954516126322"><ele>455.8571428571429</ele><time>2026-04-11T19:24:59.999Z</time></trkpt><trkpt lat="43.0767116115721" lon="11.675055627530865"><ele>457.14285714285717</ele><time>2026-04-11T19:25:03.999Z</time></trkpt><trkpt lat="43.076683085729975" lon="11.67515519293784"><ele>458.42857142857144</ele><time>2026-04-11T19:25:07.999Z</time></trkpt><trkpt lat="43.07666138185478" lon="11.675251017546577"><ele>459.7142857142857</ele><time>2026-04-11T19:25:12Z</time></trkpt><trkpt lat="43.07663847752526" lon="11.675331474976558"><ele>461.0</ele><time>2026-04-11T19:25:15Z</time></trkpt><trkpt lat="43.07661534409893" lon="11.675425775593888"><ele>459.8571428571429</ele><time>2026-04-11T19:25:19Z</time></trkpt><trkpt lat="43.07659568517228" lon="11.675510986114427"><ele>458.7142857142858</ele><time>2026-04-11T19:25:23Z</time></trkpt><trkpt lat="43.076565839286864" lon="11.675602359646604"><ele>457.57142857142856</ele><time>2026-04-11T19:25:27Z</time></trkpt><trkpt lat="43.0765481241937" lon="11.675685951459847"><ele>456.42857142857144</ele><time>2026-04-11T19:25:30Z</time></trkpt><trkpt lat="43.07652981793173" lon="11.675793199157996"><ele>455.2857142857143</ele><time>2026-04-11T19:25:34Z</time></trkpt><trkpt lat="43.07649404566986" lon="11.67590116456091"><ele>454.1428571428571</ele><time>2026-04-11T19:25:38Z</time></trkpt><trkpt lat="43.07646956482292" lon="11.675987089506053"><ele>452.99999999999994</ele><time>2026-04-11T19:25:41Z</time></trkpt><trkpt lat="43.076449326276844" lon="11.676074475356963"><ele>454.2857142857142</ele><time>2026-04-11T19:25:44Z</time></trkpt><trkpt lat="43.07642594002201" lon="11.676162829216988"><ele>455.57142857142856</ele><time>2026-04-11T19:25:47Z</time></trkpt><trkpt lat="43.076406145359805" lon="11.676246950950631"><ele>456.85714285714283</ele><time>2026-04-11T19:25:50Z</time></trkpt><trkpt lat="43.07637931387706" lon="11.676325632502426"><ele>458.1428571428571</ele><time>2026-04-11T19:25:53Z</time></trkpt><trkpt lat="43.07635419422917" lon="11.676407263885407"><ele>459.42857142857144</ele><time>2026-04-11T19:25:56Z</time></trkpt><trkpt lat="43.07633405443136" lon="11.676505243012109"><ele>460.7142857142857</ele><time>2026-04-11T19:26:00Z</time></trkpt><trkpt lat="43.07629318065923" lon="11.676594584715682"><ele>462.0</ele><time>2026-04-11T19:26:04Z</time></trkpt><trkpt lat="43.07626857692216" lon="11.676698750499568"><ele>462.0</ele><time>2026-04-11T19:26:08Z</time></trkpt><trkpt lat="43.07622649271407" lon="11.676777926592651"><ele>462.0</ele><time>2026-04-11T19:26:12Z</time></trkpt><trkpt lat="43.07619188074263" lon="11.676855166679786"><ele>462.0</ele><time>2026-04-11T19:26:15Z</time></trkpt><trkpt lat="43.076157385181574" lon="11.676952228993246"><ele>462.0</ele><time>2026-04-11T19:26:18.999Z</time></trkpt><trkpt lat="43.07612854351744" lon="11.677057067288994"><ele>462.0</ele><time>2026-04-11T19:26:22.999Z</time></trkpt><trkpt lat="43.07610749385853" lon="11.677151836169008"><ele>462.0</ele><time>2026-04-11T19:26:26.999Z</time></trkpt><trkpt lat="43.076095281969636" lon="11.677249712484743"><ele>462.0</ele><time>2026-04-11T19:26:30.999Z</time></trkpt><trkpt lat="43.07607286942275" lon="11.677343842546568"><ele>463.3333333333333</ele><time>2026-04-11T19:26:34.999Z</time></trkpt><trkpt lat="43.07604933262951" lon="11.677442966021179"><ele>464.66666666666663</ele><time>2026-04-11T19:26:38.999Z</time></trkpt><trkpt lat="43.07603469292044" lon="11.677547942575853"><ele>466.0</ele><time>2026-04-11T19:26:42.999Z</time></trkpt><trkpt lat="43.076015269125904" lon="11.677646646479456"><ele>467.3333333333333</ele><time>2026-04-11T19:26:46.999Z</time></trkpt><trkpt lat="43.07599282930757" lon="11.677745560587736"><ele>468.66666666666663</ele><time>2026-04-11T19:26:50.999Z</time></trkpt><trkpt lat="43.07598230082933" lon="11.677832374053546"><ele>470.0</ele><time>2026-04-11T19:26:53.999Z</time></trkpt><trkpt lat="43.07596556411059" lon="11.677945424364827"><ele>471.0</ele><time>2026-04-11T19:26:57.999Z</time></trkpt><trkpt lat="43.075946175870314" lon="11.678029956085577"><ele>471.99999999999994</ele><time>2026-04-11T19:27:00.999Z</time></trkpt><trkpt lat="43.075933903499376" lon="11.678136307355887"><ele>473.0</ele><time>2026-04-11T19:27:04.999Z</time></trkpt><trkpt lat="43.07591798650377" lon="11.6782423585183"><ele>474.0</ele><time>2026-04-11T19:27:08.999Z</time></trkpt><trkpt lat="43.07590571180797" lon="11.67834363042915"><ele>474.99999999999994</ele><time>2026-04-11T19:27:12.999Z</time></trkpt><trkpt lat="43.07590353066284" lon="11.678444443717677"><ele>476.0</ele><time>2026-04-11T19:27:17Z</time></trkpt><trkpt lat="43.075905726123544" lon="11.678550604017612"><ele>477.0</ele><time>2026-04-11T19:27:21Z</time></trkpt><trkpt lat="43.075908415089295" lon="11.678660247482927"><ele>477.3333333333333</ele><time>2026-04-11T19:27:25Z</time></trkpt><trkpt lat="43.075920231531036" lon="11.678767868176692"><ele>477.66666666666663</ele><time>2026-04-11T19:27:29Z</time></trkpt><trkpt lat="43.07591947845717" lon="11.678864768061105"><ele>478.0</ele><time>2026-04-11T19:27:33Z</time></trkpt><trkpt lat="43.0759461577975" lon="11.678971093436031"><ele>478.3333333333333</ele><time>2026-04-11T19:27:37Z</time></trkpt><trkpt lat="43.07595579270565" lon="11.67906724252488"><ele>478.66666666666663</ele><time>2026-04-11T19:27:41Z</time></trkpt><trkpt lat="43.07597091712833" lon="11.679167974613495"><ele>479.0</ele><time>2026-04-11T19:27:45Z</time></trkpt><trkpt lat="43.075988027011675" lon="11.679269395266628"><ele>478.99999999999994</ele><time>2026-04-11T19:27:49Z</time></trkpt><trkpt lat="43.07601390469418" lon="11.679370931200841"><ele>479.0</ele><time>2026-04-11T19:27:53Z</time></trkpt><trkpt lat="43.076022798279766" lon="11.679458153997539"><ele>479.0</ele><time>2026-04-11T19:27:56Z</time></trkpt><trkpt lat="43.07603991294918" lon="11.679566802454671"><ele>479.0</ele><time>2026-04-11T19:28:01Z</time></trkpt><trkpt lat="43.076046217971495" lon="11.679679503615283"><ele>478.99999999999994</ele><time>2026-04-11T19:28:05Z</time></trkpt><trkpt lat="43.0760427094041" lon="11.679776865218578"><ele>479.0</ele><time>2026-04-11T19:28:08Z</time></trkpt><trkpt lat="43.07603735415438" lon="11.679886387899927"><ele>478.8333333333333</ele><time>2026-04-11T19:28:11Z</time></trkpt><trkpt lat="43.07603755578907" lon="11.679991810152648"><ele>478.66666666666663</ele><time>2026-04-11T19:28:14Z</time></trkpt><trkpt lat="43.07601730807256" lon="11.68009800632919"><ele>478.5</ele><time>2026-04-11T19:28:17Z</time></trkpt><trkpt lat="43.07600615951046" lon="11.680212705067527"><ele>478.33333333333337</ele><time>2026-04-11T19:28:20Z</time></trkpt><trkpt lat="43.075998352557015" lon="11.680329167245937"><ele>478.1666666666667</ele><time>2026-04-11T19:28:23Z</time></trkpt><trkpt lat="43.07598599554712" lon="11.680413690129425"><ele>478.0</ele><time>2026-04-11T19:28:24.999Z</time></trkpt><trkpt lat="43.0759618325854" lon="11.680494274168645"><ele>478.00000000000006</ele><time>2026-04-11T19:28:26.999Z</time></trkpt><trkpt lat="43.07595196195542" lon="11.68057958502655"><ele>478.0</ele><time>2026-04-11T19:28:28.999Z</time></trkpt><trkpt lat="43.07594726977538" lon="11.680671192654382"><ele>478.00000000000006</ele><time>2026-04-11T19:28:30.999Z</time></trkpt><trkpt lat="43.0759559036421" lon="11.680760941982605"><ele>478.00000000000006</ele><time>2026-04-11T19:28:32.999Z</time></trkpt><trkpt lat="43.07596955619056" lon="11.680849895295573"><ele>478.0</ele><time>2026-04-11T19:28:34.999Z</time></trkpt><trkpt lat="43.07598402585429" lon="11.680942615753725"><ele>478.00000000000006</ele><time>2026-04-11T19:28:36.999Z</time></trkpt><trkpt lat="43.07601056960447" lon="11.681059188489497"><ele>478.00000000000006</ele><time>2026-04-11T19:28:39.999Z</time></trkpt><trkpt lat="43.076045202601556" lon="11.68117318392883"><ele>477.1666666666667</ele><time>2026-04-11T19:28:42.999Z</time></trkpt><trkpt lat="43.07605958317058" lon="11.681277939088305"><ele>476.33333333333337</ele><time>2026-04-11T19:28:46.999Z</time></trkpt><trkpt lat="43.07608665746509" lon="11.681363943826298"><ele>475.5</ele><time>2026-04-11T19:28:49.999Z</time></trkpt><trkpt lat="43.07610658874427" lon="11.68148951987668"><ele>474.66666666666663</ele><time>2026-04-11T19:28:52.999Z</time></trkpt><trkpt lat="43.076135570586615" lon="11.681590798873223"><ele>473.8333333333333</ele><time>2026-04-11T19:28:54.999Z</time></trkpt><trkpt lat="43.07618711135324" lon="11.681695896730556"><ele>473.0</ele><time>2026-04-11T19:28:56.999Z</time></trkpt><trkpt lat="43.07626522998395" lon="11.681797613662647"><ele>472.99999999999994</ele><time>2026-04-11T19:28:58.999Z</time></trkpt><trkpt lat="43.076365347218875" lon="11.68184644202382"><ele>473.0</ele><time>2026-04-11T19:29:00.999Z</time></trkpt><trkpt lat="43.076459222926964" lon="11.681856979075475"><ele>473.0</ele><time>2026-04-11T19:29:02.999Z</time></trkpt><trkpt lat="43.07653995848026" lon="11.681846049584527"><ele>473.0</ele><time>2026-04-11T19:29:04.999Z</time></trkpt><trkpt lat="43.07660762888516" lon="11.681833655921967"><ele>472.99999999999994</ele><time>2026-04-11T19:29:06.999Z</time></trkpt><trkpt lat="43.07669377097177" lon="11.681824974223737"><ele>473.0</ele><time>2026-04-11T19:29:09.999Z</time></trkpt><trkpt lat="43.07677195525038" lon="11.681816513216171"><ele>474.42857142857144</ele><time>2026-04-11T19:29:12.999Z</time></trkpt><trkpt lat="43.07685154746087" lon="11.681802222922974"><ele>475.85714285714283</ele><time>2026-04-11T19:29:15.999Z</time></trkpt><trkpt lat="43.076916085894915" lon="11.681790420991073"><ele>477.2857142857143</ele><time>2026-04-11T19:29:18.999Z</time></trkpt><trkpt lat="43.07697428736111" lon="11.681743233820256"><ele>478.7142857142857</ele><time>2026-04-11T19:29:22Z</time></trkpt><trkpt lat="43.07701675374015" lon="11.681674663693826"><ele>480.1428571428571</ele><time>2026-04-11T19:29:25Z</time></trkpt><trkpt lat="43.07704406627224" lon="11.681594874298396"><ele>481.57142857142856</ele><time>2026-04-11T19:29:28Z</time></trkpt><trkpt lat="43.07705751974615" lon="11.681485165598017"><ele>483.0</ele><time>2026-04-11T19:29:32Z</time></trkpt><trkpt lat="43.07707465765726" lon="11.681390191546532"><ele>483.0</ele><time>2026-04-11T19:29:36Z</time></trkpt><trkpt lat="43.07707917418301" lon="11.681278946897939"><ele>483.0</ele><time>2026-04-11T19:29:40Z</time></trkpt><trkpt lat="43.07709962293732" lon="11.681191900787354"><ele>483.0</ele><time>2026-04-11T19:29:44Z</time></trkpt><trkpt lat="43.077117306194936" lon="11.681102387909593"><ele>483.0</ele><time>2026-04-11T19:29:47Z</time></trkpt><trkpt lat="43.07713533010095" lon="11.681007029438563"><ele>483.0</ele><time>2026-04-11T19:29:50Z</time></trkpt><trkpt lat="43.07716037442938" lon="11.680922303957644"><ele>483.0</ele><time>2026-04-11T19:29:53Z</time></trkpt><trkpt lat="43.07716683456177" lon="11.680819758547141"><ele>483.0</ele><time>2026-04-11T19:29:56Z</time></trkpt><trkpt lat="43.0771839450905" lon="11.680717200159236"><ele>484.42857142857144</ele><time>2026-04-11T19:29:59Z</time></trkpt><trkpt lat="43.077195745452826" lon="11.68061125246207"><ele>485.8571428571429</ele><time>2026-04-11T19:30:02Z</time></trkpt><trkpt lat="43.07722434403655" lon="11.680507615273282"><ele>487.2857142857143</ele><time>2026-04-11T19:30:05Z</time></trkpt><trkpt lat="43.07725620003806" lon="11.680415799674487"><ele>488.7142857142857</ele><time>2026-04-11T19:30:08Z</time></trkpt><trkpt lat="43.07727698013385" lon="11.68030504485893"><ele>490.14285714285717</ele><time>2026-04-11T19:30:11Z</time></trkpt><trkpt lat="43.07729053367532" lon="11.680220827971182"><ele>491.57142857142856</ele><time>2026-04-11T19:30:13Z</time></trkpt><trkpt lat="43.07730683918518" lon="11.680132219920209"><ele>493.0</ele><time>2026-04-11T19:30:15Z</time></trkpt><trkpt lat="43.0773360037291" lon="11.680043325442826"><ele>492.71428571428567</ele><time>2026-04-11T19:30:17Z</time></trkpt><trkpt lat="43.07736544222383" lon="11.679951979065756"><ele>492.42857142857144</ele><time>2026-04-11T19:30:19Z</time></trkpt><trkpt lat="43.07738376293046" lon="11.679846401539802"><ele>492.1428571428571</ele><time>2026-04-11T19:30:21Z</time></trkpt><trkpt lat="43.07741240758837" lon="11.679742546048463"><ele>491.85714285714283</ele><time>2026-04-11T19:30:23Z</time></trkpt><trkpt lat="43.07743794978289" lon="11.679646886444033"><ele>491.57142857142856</ele><time>2026-04-11T19:30:25Z</time></trkpt><trkpt lat="43.0774602069278" lon="11.679548083644537"><ele>491.2857142857143</ele><time>2026-04-11T19:30:27Z</time></trkpt><trkpt lat="43.077478830929" lon="11.679461047111642"><ele>491.0</ele><time>2026-04-11T19:30:29Z</time></trkpt><trkpt lat="43.07749620868497" lon="11.679371374137615"><ele>491.0</ele><time>2026-04-11T19:30:31Z</time></trkpt><trkpt lat="43.0775067719206" lon="11.679272353856646"><ele>490.99999999999994</ele><time>2026-04-11T19:30:32.999Z</time></trkpt><trkpt lat="43.0775159148192" lon="11.679168032966965"><ele>491.0</ele><time>2026-04-11T19:30:34.999Z</time></trkpt><trkpt lat="43.07752077375248" lon="11.679074748253097"><ele>491.0</ele><time>2026-04-11T19:30:36.999Z</time></trkpt><trkpt lat="43.07753049205789" lon="11.678982086855834"><ele>490.99999999999994</ele><time>2026-04-11T19:30:39.999Z</time></trkpt><trkpt lat="43.07754496917348" lon="11.67889226446682"><ele>491.0</ele><time>2026-04-11T19:30:43.999Z</time></trkpt><trkpt lat="43.07753540216041" lon="11.67879131000596"><ele>491.0</ele><time>2026-04-11T19:30:47.999Z</time></trkpt><trkpt lat="43.07753591365874" lon="11.678697414114186"><ele>491.0</ele><time>2026-04-11T19:30:51.999Z</time></trkpt><trkpt lat="43.07754083456054" lon="11.678609315063857"><ele>490.99999999999994</ele><time>2026-04-11T19:30:54.999Z</time></trkpt><trkpt lat="43.077558625458494" lon="11.678509018392301"><ele>491.0</ele><time>2026-04-11T19:30:58.999Z</time></trkpt><trkpt lat="43.077563754259494" lon="11.6784199759829"><ele>491.0</ele><time>2026-04-11T19:31:02.999Z</time></trkpt><trkpt lat="43.07751737120802" lon="11.678350696793151"><ele>490.99999999999994</ele><time>2026-04-11T19:31:28Z</time></trkpt><trkpt lat="43.07747885122033" lon="11.678427076492893"><ele>491.0</ele><time>2026-04-11T19:46:22Z</time></trkpt><trkpt lat="43.07746507163643" lon="11.678512870656064"><ele>491.0</ele><time>2026-04-11T19:46:30Z</time></trkpt><trkpt lat="43.07744937980514" lon="11.678611729212953"><ele>491.0</ele><time>2026-04-11T19:46:38Z</time></trkpt><trkpt lat="43.07743635114627" lon="11.678704457177394"><ele>490.99999999999994</ele><time>2026-04-11T19:46:45Z</time></trkpt><trkpt lat="43.077434552053276" lon="11.67880219729187"><ele>491.0</ele><time>2026-04-11T19:46:53Z</time></trkpt><trkpt lat="43.07741634061792" lon="11.67889526856778"><ele>491.0</ele><time>2026-04-11T19:47:01Z</time></trkpt><trkpt lat="43.07745361878139" lon="11.67881408416172"><ele>490.99999999999994</ele><time>2026-04-11T19:47:22.999Z</time></trkpt><trkpt lat="43.07747003258376" lon="11.678725584198384"><ele>491.0</ele><time>2026-04-11T19:47:33.999Z</time></trkpt><trkpt lat="43.07748342127876" lon="11.678640494059533"><ele>491.0</ele><time>2026-04-11T19:47:42.999Z</time></trkpt><trkpt lat="43.07749708542147" lon="11.67855236301936"><ele>491.0</ele><time>2026-04-11T19:47:50.999Z</time></trkpt><trkpt lat="43.077506960090524" lon="11.678455418071733"><ele>491.0</ele><time>2026-04-11T19:48:00.999Z</time></trkpt><trkpt lat="43.077512786442234" lon="11.67836951287253"><ele>491.0</ele><time>2026-04-11T19:48:11.999Z</time></trkpt></trkseg></trk></gpx>